<?xml version="1.0" encoding="UTF-8" standalone="no" ?>
<gpx xmlns="http://www.topografix.com/GPX/1/1" xmlns:xsi="http://www.w3.org/2001/XMLSchema-instance" xsi:schemaLocation="http://www.topografix.com/GPX/1/1 http://www.topografix.com/GPX/1/1/gpx.xsd" version="1.1" creator="VisuGPX - https://www.visugpx.com">
  <metadata>
    <name>VTT-2022-07-25-01</name>
  </metadata>
  <trk>
    <name><![CDATA[VTT-2022-07-25-01]]></name>
    <extensions>
      <line xmlns="http://www.topografix.com/GPX/gpx_style/0/2">
        <width>4</width>
      </line>
    </extensions>
    <trkseg>
      <trkpt lat="42.91856" lon="1.83668">
        <ele>562.6</ele>
        <time>2022-07-25T08:00:00.000Z</time>
      </trkpt>
      <trkpt lat="42.91856" lon="1.83668">
        <ele>562.6</ele>
        <time>2022-07-25T08:00:01.000Z</time>
      </trkpt>
      <trkpt lat="42.91864" lon="1.83661">
        <ele>562.6</ele>
        <time>2022-07-25T08:00:07.000Z</time>
      </trkpt>
      <trkpt lat="42.91868" lon="1.83655">
        <ele>562.6</ele>
        <time>2022-07-25T08:00:09.000Z</time>
      </trkpt>
      <trkpt lat="42.91874" lon="1.83647">
        <ele>562.6</ele>
        <time>2022-07-25T08:00:11.000Z</time>
      </trkpt>
      <trkpt lat="42.9188" lon="1.83639">
        <ele>562.6</ele>
        <time>2022-07-25T08:00:13.000Z</time>
      </trkpt>
      <trkpt lat="42.91884" lon="1.83631">
        <ele>562.6</ele>
        <time>2022-07-25T08:00:15.000Z</time>
      </trkpt>
      <trkpt lat="42.91888" lon="1.83625">
        <ele>562.6</ele>
        <time>2022-07-25T08:00:17.000Z</time>
      </trkpt>
      <trkpt lat="42.91894" lon="1.8362">
        <ele>562.6</ele>
        <time>2022-07-25T08:00:19.000Z</time>
      </trkpt>
      <trkpt lat="42.919" lon="1.83617">
        <ele>562.6</ele>
        <time>2022-07-25T08:00:21.000Z</time>
      </trkpt>
      <trkpt lat="42.91906" lon="1.83613">
        <ele>562.6</ele>
        <time>2022-07-25T08:00:23.000Z</time>
      </trkpt>
      <trkpt lat="42.9191" lon="1.83606">
        <ele>562.6</ele>
        <time>2022-07-25T08:00:25.000Z</time>
      </trkpt>
      <trkpt lat="42.91914" lon="1.83597">
        <ele>562.6</ele>
        <time>2022-07-25T08:00:27.000Z</time>
      </trkpt>
      <trkpt lat="42.91919" lon="1.8359">
        <ele>562.6</ele>
        <time>2022-07-25T08:00:29.000Z</time>
      </trkpt>
      <trkpt lat="42.91924" lon="1.83586">
        <ele>562.6</ele>
        <time>2022-07-25T08:00:31.000Z</time>
      </trkpt>
      <trkpt lat="42.91931" lon="1.83588">
        <ele>562.6</ele>
        <time>2022-07-25T08:00:33.000Z</time>
      </trkpt>
      <trkpt lat="42.91938" lon="1.83595">
        <ele>562.6</ele>
        <time>2022-07-25T08:00:35.000Z</time>
      </trkpt>
      <trkpt lat="42.91941" lon="1.83599">
        <ele>562.6</ele>
        <time>2022-07-25T08:00:36.000Z</time>
      </trkpt>
      <trkpt lat="42.91948" lon="1.83606">
        <ele>562.6</ele>
        <time>2022-07-25T08:00:38.000Z</time>
      </trkpt>
      <trkpt lat="42.91953" lon="1.83609">
        <ele>562.6</ele>
        <time>2022-07-25T08:00:39.000Z</time>
      </trkpt>
      <trkpt lat="42.91958" lon="1.83612">
        <ele>562.6</ele>
        <time>2022-07-25T08:00:40.000Z</time>
      </trkpt>
      <trkpt lat="42.91962" lon="1.83615">
        <ele>562.6</ele>
        <time>2022-07-25T08:00:41.000Z</time>
      </trkpt>
      <trkpt lat="42.91967" lon="1.83619">
        <ele>562.5</ele>
        <time>2022-07-25T08:00:42.000Z</time>
      </trkpt>
      <trkpt lat="42.91971" lon="1.83623">
        <ele>562.5</ele>
        <time>2022-07-25T08:00:43.000Z</time>
      </trkpt>
      <trkpt lat="42.91976" lon="1.83627">
        <ele>562.5</ele>
        <time>2022-07-25T08:00:44.000Z</time>
      </trkpt>
      <trkpt lat="42.91981" lon="1.83631">
        <ele>562.5</ele>
        <time>2022-07-25T08:00:45.000Z</time>
      </trkpt>
      <trkpt lat="42.91986" lon="1.83635">
        <ele>562.4</ele>
        <time>2022-07-25T08:00:46.000Z</time>
      </trkpt>
      <trkpt lat="42.9199" lon="1.83639">
        <ele>562.4</ele>
        <time>2022-07-25T08:00:47.000Z</time>
      </trkpt>
      <trkpt lat="42.91995" lon="1.83643">
        <ele>562.4</ele>
        <time>2022-07-25T08:00:48.000Z</time>
      </trkpt>
      <trkpt lat="42.92" lon="1.83648">
        <ele>562.3</ele>
        <time>2022-07-25T08:00:49.000Z</time>
      </trkpt>
      <trkpt lat="42.92005" lon="1.83652">
        <ele>562.3</ele>
        <time>2022-07-25T08:00:50.000Z</time>
      </trkpt>
      <trkpt lat="42.9201" lon="1.83657">
        <ele>562.3</ele>
        <time>2022-07-25T08:00:51.000Z</time>
      </trkpt>
      <trkpt lat="42.92015" lon="1.83662">
        <ele>562.2</ele>
        <time>2022-07-25T08:00:52.000Z</time>
      </trkpt>
      <trkpt lat="42.9202" lon="1.83667">
        <ele>562.1</ele>
        <time>2022-07-25T08:00:53.000Z</time>
      </trkpt>
      <trkpt lat="42.92025" lon="1.83672">
        <ele>562</ele>
        <time>2022-07-25T08:00:54.000Z</time>
      </trkpt>
      <trkpt lat="42.9203" lon="1.83677">
        <ele>561.9</ele>
        <time>2022-07-25T08:00:55.000Z</time>
      </trkpt>
      <trkpt lat="42.92035" lon="1.83683">
        <ele>561.8</ele>
        <time>2022-07-25T08:00:56.000Z</time>
      </trkpt>
      <trkpt lat="42.9204" lon="1.83688">
        <ele>561.7</ele>
        <time>2022-07-25T08:00:57.000Z</time>
      </trkpt>
      <trkpt lat="42.92045" lon="1.83693">
        <ele>561.6</ele>
        <time>2022-07-25T08:00:58.000Z</time>
      </trkpt>
      <trkpt lat="42.92051" lon="1.83699">
        <ele>561.4</ele>
        <time>2022-07-25T08:00:59.000Z</time>
      </trkpt>
      <trkpt lat="42.92056" lon="1.83705">
        <ele>561.3</ele>
        <time>2022-07-25T08:01:00.000Z</time>
      </trkpt>
      <trkpt lat="42.9206" lon="1.83711">
        <ele>561.2</ele>
        <time>2022-07-25T08:01:01.000Z</time>
      </trkpt>
      <trkpt lat="42.92065" lon="1.83717">
        <ele>561.1</ele>
        <time>2022-07-25T08:01:02.000Z</time>
      </trkpt>
      <trkpt lat="42.9207" lon="1.83722">
        <ele>560.9</ele>
        <time>2022-07-25T08:01:03.000Z</time>
      </trkpt>
      <trkpt lat="42.92075" lon="1.83727">
        <ele>560.8</ele>
        <time>2022-07-25T08:01:04.000Z</time>
      </trkpt>
      <trkpt lat="42.9208" lon="1.83732">
        <ele>560.6</ele>
        <time>2022-07-25T08:01:05.000Z</time>
      </trkpt>
      <trkpt lat="42.92085" lon="1.83736">
        <ele>560.4</ele>
        <time>2022-07-25T08:01:06.000Z</time>
      </trkpt>
      <trkpt lat="42.9209" lon="1.8374">
        <ele>560.2</ele>
        <time>2022-07-25T08:01:07.000Z</time>
      </trkpt>
      <trkpt lat="42.92096" lon="1.83744">
        <ele>560</ele>
        <time>2022-07-25T08:01:08.000Z</time>
      </trkpt>
      <trkpt lat="42.92101" lon="1.83748">
        <ele>559.7</ele>
        <time>2022-07-25T08:01:09.000Z</time>
      </trkpt>
      <trkpt lat="42.92106" lon="1.83752">
        <ele>559.4</ele>
        <time>2022-07-25T08:01:10.000Z</time>
      </trkpt>
      <trkpt lat="42.92112" lon="1.83756">
        <ele>559.3</ele>
        <time>2022-07-25T08:01:11.000Z</time>
      </trkpt>
      <trkpt lat="42.92117" lon="1.8376">
        <ele>559.2</ele>
        <time>2022-07-25T08:01:12.000Z</time>
      </trkpt>
      <trkpt lat="42.92123" lon="1.83764">
        <ele>559.1</ele>
        <time>2022-07-25T08:01:13.000Z</time>
      </trkpt>
      <trkpt lat="42.92128" lon="1.83768">
        <ele>559</ele>
        <time>2022-07-25T08:01:14.000Z</time>
      </trkpt>
      <trkpt lat="42.92133" lon="1.83771">
        <ele>558.9</ele>
        <time>2022-07-25T08:01:15.000Z</time>
      </trkpt>
      <trkpt lat="42.92139" lon="1.83775">
        <ele>558.8</ele>
        <time>2022-07-25T08:01:16.000Z</time>
      </trkpt>
      <trkpt lat="42.92144" lon="1.83779">
        <ele>558.6</ele>
        <time>2022-07-25T08:01:17.000Z</time>
        <extensions>
          <gpxtpx:TrackPointExtension xmlns:gpxtpx="http://www.garmin.com/xmlschemas/TrackPointExtension/v1">
            <gpxtpx:hr>77</gpxtpx:hr>
          </gpxtpx:TrackPointExtension>
        </extensions>
      </trkpt>
      <trkpt lat="42.92149" lon="1.83783">
        <ele>558.5</ele>
        <time>2022-07-25T08:01:18.000Z</time>
        <extensions>
          <gpxtpx:TrackPointExtension xmlns:gpxtpx="http://www.garmin.com/xmlschemas/TrackPointExtension/v1">
            <gpxtpx:hr>77</gpxtpx:hr>
          </gpxtpx:TrackPointExtension>
        </extensions>
      </trkpt>
      <trkpt lat="42.92154" lon="1.83787">
        <ele>558.4</ele>
        <time>2022-07-25T08:01:19.000Z</time>
        <extensions>
          <gpxtpx:TrackPointExtension xmlns:gpxtpx="http://www.garmin.com/xmlschemas/TrackPointExtension/v1">
            <gpxtpx:hr>77</gpxtpx:hr>
          </gpxtpx:TrackPointExtension>
        </extensions>
      </trkpt>
      <trkpt lat="42.9216" lon="1.83791">
        <ele>558.3</ele>
        <time>2022-07-25T08:01:20.000Z</time>
        <extensions>
          <gpxtpx:TrackPointExtension xmlns:gpxtpx="http://www.garmin.com/xmlschemas/TrackPointExtension/v1">
            <gpxtpx:hr>77</gpxtpx:hr>
          </gpxtpx:TrackPointExtension>
        </extensions>
      </trkpt>
      <trkpt lat="42.92165" lon="1.83795">
        <ele>558.2</ele>
        <time>2022-07-25T08:01:21.000Z</time>
        <extensions>
          <gpxtpx:TrackPointExtension xmlns:gpxtpx="http://www.garmin.com/xmlschemas/TrackPointExtension/v1">
            <gpxtpx:hr>77</gpxtpx:hr>
          </gpxtpx:TrackPointExtension>
        </extensions>
      </trkpt>
      <trkpt lat="42.9217" lon="1.83799">
        <ele>558.1</ele>
        <time>2022-07-25T08:01:22.000Z</time>
        <extensions>
          <gpxtpx:TrackPointExtension xmlns:gpxtpx="http://www.garmin.com/xmlschemas/TrackPointExtension/v1">
            <gpxtpx:hr>77</gpxtpx:hr>
          </gpxtpx:TrackPointExtension>
        </extensions>
      </trkpt>
      <trkpt lat="42.92176" lon="1.83802">
        <ele>558</ele>
        <time>2022-07-25T08:01:23.000Z</time>
        <extensions>
          <gpxtpx:TrackPointExtension xmlns:gpxtpx="http://www.garmin.com/xmlschemas/TrackPointExtension/v1">
            <gpxtpx:hr>77</gpxtpx:hr>
          </gpxtpx:TrackPointExtension>
        </extensions>
      </trkpt>
      <trkpt lat="42.92182" lon="1.83805">
        <ele>557.9</ele>
        <time>2022-07-25T08:01:24.000Z</time>
        <extensions>
          <gpxtpx:TrackPointExtension xmlns:gpxtpx="http://www.garmin.com/xmlschemas/TrackPointExtension/v1">
            <gpxtpx:hr>77</gpxtpx:hr>
          </gpxtpx:TrackPointExtension>
        </extensions>
      </trkpt>
      <trkpt lat="42.92187" lon="1.83808">
        <ele>557.8</ele>
        <time>2022-07-25T08:01:25.000Z</time>
        <extensions>
          <gpxtpx:TrackPointExtension xmlns:gpxtpx="http://www.garmin.com/xmlschemas/TrackPointExtension/v1">
            <gpxtpx:hr>77</gpxtpx:hr>
          </gpxtpx:TrackPointExtension>
        </extensions>
      </trkpt>
      <trkpt lat="42.92193" lon="1.83811">
        <ele>557.8</ele>
        <time>2022-07-25T08:01:26.000Z</time>
      </trkpt>
      <trkpt lat="42.92199" lon="1.83814">
        <ele>557.7</ele>
        <time>2022-07-25T08:01:27.000Z</time>
      </trkpt>
      <trkpt lat="42.92204" lon="1.83817">
        <ele>557.6</ele>
        <time>2022-07-25T08:01:28.000Z</time>
      </trkpt>
      <trkpt lat="42.9221" lon="1.8382">
        <ele>557.6</ele>
        <time>2022-07-25T08:01:29.000Z</time>
        <extensions>
          <gpxtpx:TrackPointExtension xmlns:gpxtpx="http://www.garmin.com/xmlschemas/TrackPointExtension/v1">
            <gpxtpx:hr>80</gpxtpx:hr>
          </gpxtpx:TrackPointExtension>
        </extensions>
      </trkpt>
      <trkpt lat="42.92216" lon="1.83823">
        <ele>557.5</ele>
        <time>2022-07-25T08:01:30.000Z</time>
        <extensions>
          <gpxtpx:TrackPointExtension xmlns:gpxtpx="http://www.garmin.com/xmlschemas/TrackPointExtension/v1">
            <gpxtpx:hr>80</gpxtpx:hr>
          </gpxtpx:TrackPointExtension>
        </extensions>
      </trkpt>
      <trkpt lat="42.92222" lon="1.83826">
        <ele>557.5</ele>
        <time>2022-07-25T08:01:31.000Z</time>
        <extensions>
          <gpxtpx:TrackPointExtension xmlns:gpxtpx="http://www.garmin.com/xmlschemas/TrackPointExtension/v1">
            <gpxtpx:hr>80</gpxtpx:hr>
          </gpxtpx:TrackPointExtension>
        </extensions>
      </trkpt>
      <trkpt lat="42.92228" lon="1.83828">
        <ele>557.4</ele>
        <time>2022-07-25T08:01:32.000Z</time>
        <extensions>
          <gpxtpx:TrackPointExtension xmlns:gpxtpx="http://www.garmin.com/xmlschemas/TrackPointExtension/v1">
            <gpxtpx:hr>83</gpxtpx:hr>
          </gpxtpx:TrackPointExtension>
        </extensions>
      </trkpt>
      <trkpt lat="42.92233" lon="1.83832">
        <ele>557.3</ele>
        <time>2022-07-25T08:01:33.000Z</time>
        <extensions>
          <gpxtpx:TrackPointExtension xmlns:gpxtpx="http://www.garmin.com/xmlschemas/TrackPointExtension/v1">
            <gpxtpx:hr>87</gpxtpx:hr>
          </gpxtpx:TrackPointExtension>
        </extensions>
      </trkpt>
      <trkpt lat="42.92236" lon="1.83837">
        <ele>557.1</ele>
        <time>2022-07-25T08:01:34.000Z</time>
        <extensions>
          <gpxtpx:TrackPointExtension xmlns:gpxtpx="http://www.garmin.com/xmlschemas/TrackPointExtension/v1">
            <gpxtpx:hr>91</gpxtpx:hr>
          </gpxtpx:TrackPointExtension>
        </extensions>
      </trkpt>
      <trkpt lat="42.92236" lon="1.83843">
        <ele>557</ele>
        <time>2022-07-25T08:01:35.000Z</time>
        <extensions>
          <gpxtpx:TrackPointExtension xmlns:gpxtpx="http://www.garmin.com/xmlschemas/TrackPointExtension/v1">
            <gpxtpx:hr>91</gpxtpx:hr>
          </gpxtpx:TrackPointExtension>
        </extensions>
      </trkpt>
      <trkpt lat="42.92234" lon="1.8385">
        <ele>556.9</ele>
        <time>2022-07-25T08:01:36.000Z</time>
        <extensions>
          <gpxtpx:TrackPointExtension xmlns:gpxtpx="http://www.garmin.com/xmlschemas/TrackPointExtension/v1">
            <gpxtpx:hr>96</gpxtpx:hr>
          </gpxtpx:TrackPointExtension>
        </extensions>
      </trkpt>
      <trkpt lat="42.92231" lon="1.83857">
        <ele>556.8</ele>
        <time>2022-07-25T08:01:37.000Z</time>
        <extensions>
          <gpxtpx:TrackPointExtension xmlns:gpxtpx="http://www.garmin.com/xmlschemas/TrackPointExtension/v1">
            <gpxtpx:hr>100</gpxtpx:hr>
          </gpxtpx:TrackPointExtension>
        </extensions>
      </trkpt>
      <trkpt lat="42.92229" lon="1.83863">
        <ele>556.8</ele>
        <time>2022-07-25T08:01:38.000Z</time>
        <extensions>
          <gpxtpx:TrackPointExtension xmlns:gpxtpx="http://www.garmin.com/xmlschemas/TrackPointExtension/v1">
            <gpxtpx:hr>104</gpxtpx:hr>
          </gpxtpx:TrackPointExtension>
        </extensions>
      </trkpt>
      <trkpt lat="42.92227" lon="1.83868">
        <ele>556.7</ele>
        <time>2022-07-25T08:01:39.000Z</time>
        <extensions>
          <gpxtpx:TrackPointExtension xmlns:gpxtpx="http://www.garmin.com/xmlschemas/TrackPointExtension/v1">
            <gpxtpx:hr>109</gpxtpx:hr>
          </gpxtpx:TrackPointExtension>
        </extensions>
      </trkpt>
      <trkpt lat="42.92225" lon="1.83874">
        <ele>556.7</ele>
        <time>2022-07-25T08:01:40.000Z</time>
        <extensions>
          <gpxtpx:TrackPointExtension xmlns:gpxtpx="http://www.garmin.com/xmlschemas/TrackPointExtension/v1">
            <gpxtpx:hr>111</gpxtpx:hr>
          </gpxtpx:TrackPointExtension>
        </extensions>
      </trkpt>
      <trkpt lat="42.92225" lon="1.83881">
        <ele>556.6</ele>
        <time>2022-07-25T08:01:41.000Z</time>
        <extensions>
          <gpxtpx:TrackPointExtension xmlns:gpxtpx="http://www.garmin.com/xmlschemas/TrackPointExtension/v1">
            <gpxtpx:hr>112</gpxtpx:hr>
          </gpxtpx:TrackPointExtension>
        </extensions>
      </trkpt>
      <trkpt lat="42.92223" lon="1.83887">
        <ele>556.5</ele>
        <time>2022-07-25T08:01:42.000Z</time>
        <extensions>
          <gpxtpx:TrackPointExtension xmlns:gpxtpx="http://www.garmin.com/xmlschemas/TrackPointExtension/v1">
            <gpxtpx:hr>112</gpxtpx:hr>
          </gpxtpx:TrackPointExtension>
        </extensions>
      </trkpt>
      <trkpt lat="42.92222" lon="1.83893">
        <ele>556.4</ele>
        <time>2022-07-25T08:01:43.000Z</time>
        <extensions>
          <gpxtpx:TrackPointExtension xmlns:gpxtpx="http://www.garmin.com/xmlschemas/TrackPointExtension/v1">
            <gpxtpx:hr>113</gpxtpx:hr>
          </gpxtpx:TrackPointExtension>
        </extensions>
      </trkpt>
      <trkpt lat="42.9222" lon="1.839">
        <ele>556.3</ele>
        <time>2022-07-25T08:01:44.000Z</time>
        <extensions>
          <gpxtpx:TrackPointExtension xmlns:gpxtpx="http://www.garmin.com/xmlschemas/TrackPointExtension/v1">
            <gpxtpx:hr>113</gpxtpx:hr>
          </gpxtpx:TrackPointExtension>
        </extensions>
      </trkpt>
      <trkpt lat="42.92218" lon="1.83908">
        <ele>556.2</ele>
        <time>2022-07-25T08:01:45.000Z</time>
        <extensions>
          <gpxtpx:TrackPointExtension xmlns:gpxtpx="http://www.garmin.com/xmlschemas/TrackPointExtension/v1">
            <gpxtpx:hr>113</gpxtpx:hr>
          </gpxtpx:TrackPointExtension>
        </extensions>
      </trkpt>
      <trkpt lat="42.92216" lon="1.83916">
        <ele>556.1</ele>
        <time>2022-07-25T08:01:46.000Z</time>
        <extensions>
          <gpxtpx:TrackPointExtension xmlns:gpxtpx="http://www.garmin.com/xmlschemas/TrackPointExtension/v1">
            <gpxtpx:hr>113</gpxtpx:hr>
          </gpxtpx:TrackPointExtension>
        </extensions>
      </trkpt>
      <trkpt lat="42.92214" lon="1.83926">
        <ele>556</ele>
        <time>2022-07-25T08:01:47.000Z</time>
        <extensions>
          <gpxtpx:TrackPointExtension xmlns:gpxtpx="http://www.garmin.com/xmlschemas/TrackPointExtension/v1">
            <gpxtpx:hr>113</gpxtpx:hr>
          </gpxtpx:TrackPointExtension>
        </extensions>
      </trkpt>
      <trkpt lat="42.92211" lon="1.83936">
        <ele>555.8</ele>
        <time>2022-07-25T08:01:48.000Z</time>
        <extensions>
          <gpxtpx:TrackPointExtension xmlns:gpxtpx="http://www.garmin.com/xmlschemas/TrackPointExtension/v1">
            <gpxtpx:hr>113</gpxtpx:hr>
          </gpxtpx:TrackPointExtension>
        </extensions>
      </trkpt>
      <trkpt lat="42.92208" lon="1.83946">
        <ele>555.5</ele>
        <time>2022-07-25T08:01:49.000Z</time>
        <extensions>
          <gpxtpx:TrackPointExtension xmlns:gpxtpx="http://www.garmin.com/xmlschemas/TrackPointExtension/v1">
            <gpxtpx:hr>113</gpxtpx:hr>
          </gpxtpx:TrackPointExtension>
        </extensions>
      </trkpt>
      <trkpt lat="42.92204" lon="1.83954">
        <ele>555.3</ele>
        <time>2022-07-25T08:01:50.000Z</time>
        <extensions>
          <gpxtpx:TrackPointExtension xmlns:gpxtpx="http://www.garmin.com/xmlschemas/TrackPointExtension/v1">
            <gpxtpx:hr>113</gpxtpx:hr>
          </gpxtpx:TrackPointExtension>
        </extensions>
      </trkpt>
      <trkpt lat="42.92201" lon="1.8396">
        <ele>555</ele>
        <time>2022-07-25T08:01:51.000Z</time>
        <extensions>
          <gpxtpx:TrackPointExtension xmlns:gpxtpx="http://www.garmin.com/xmlschemas/TrackPointExtension/v1">
            <gpxtpx:hr>113</gpxtpx:hr>
          </gpxtpx:TrackPointExtension>
        </extensions>
      </trkpt>
      <trkpt lat="42.92202" lon="1.8397">
        <ele>554.2</ele>
        <time>2022-07-25T08:01:53.000Z</time>
        <extensions>
          <gpxtpx:TrackPointExtension xmlns:gpxtpx="http://www.garmin.com/xmlschemas/TrackPointExtension/v1">
            <gpxtpx:hr>113</gpxtpx:hr>
          </gpxtpx:TrackPointExtension>
        </extensions>
      </trkpt>
      <trkpt lat="42.92206" lon="1.83974">
        <ele>553.9</ele>
        <time>2022-07-25T08:01:54.000Z</time>
        <extensions>
          <gpxtpx:TrackPointExtension xmlns:gpxtpx="http://www.garmin.com/xmlschemas/TrackPointExtension/v1">
            <gpxtpx:hr>113</gpxtpx:hr>
          </gpxtpx:TrackPointExtension>
        </extensions>
      </trkpt>
      <trkpt lat="42.9221" lon="1.83978">
        <ele>553.5</ele>
        <time>2022-07-25T08:01:55.000Z</time>
        <extensions>
          <gpxtpx:TrackPointExtension xmlns:gpxtpx="http://www.garmin.com/xmlschemas/TrackPointExtension/v1">
            <gpxtpx:hr>113</gpxtpx:hr>
          </gpxtpx:TrackPointExtension>
        </extensions>
      </trkpt>
      <trkpt lat="42.92213" lon="1.83982">
        <ele>553.2</ele>
        <time>2022-07-25T08:01:56.000Z</time>
        <extensions>
          <gpxtpx:TrackPointExtension xmlns:gpxtpx="http://www.garmin.com/xmlschemas/TrackPointExtension/v1">
            <gpxtpx:hr>113</gpxtpx:hr>
          </gpxtpx:TrackPointExtension>
        </extensions>
      </trkpt>
      <trkpt lat="42.92217" lon="1.83986">
        <ele>552.8</ele>
        <time>2022-07-25T08:01:57.000Z</time>
        <extensions>
          <gpxtpx:TrackPointExtension xmlns:gpxtpx="http://www.garmin.com/xmlschemas/TrackPointExtension/v1">
            <gpxtpx:hr>113</gpxtpx:hr>
          </gpxtpx:TrackPointExtension>
        </extensions>
      </trkpt>
      <trkpt lat="42.92221" lon="1.8399">
        <ele>552.5</ele>
        <time>2022-07-25T08:01:58.000Z</time>
        <extensions>
          <gpxtpx:TrackPointExtension xmlns:gpxtpx="http://www.garmin.com/xmlschemas/TrackPointExtension/v1">
            <gpxtpx:hr>113</gpxtpx:hr>
          </gpxtpx:TrackPointExtension>
        </extensions>
      </trkpt>
      <trkpt lat="42.92225" lon="1.83995">
        <ele>552.2</ele>
        <time>2022-07-25T08:01:59.000Z</time>
        <extensions>
          <gpxtpx:TrackPointExtension xmlns:gpxtpx="http://www.garmin.com/xmlschemas/TrackPointExtension/v1">
            <gpxtpx:hr>113</gpxtpx:hr>
          </gpxtpx:TrackPointExtension>
        </extensions>
      </trkpt>
      <trkpt lat="42.92228" lon="1.84">
        <ele>551.8</ele>
        <time>2022-07-25T08:02:00.000Z</time>
        <extensions>
          <gpxtpx:TrackPointExtension xmlns:gpxtpx="http://www.garmin.com/xmlschemas/TrackPointExtension/v1">
            <gpxtpx:hr>113</gpxtpx:hr>
          </gpxtpx:TrackPointExtension>
        </extensions>
      </trkpt>
      <trkpt lat="42.92232" lon="1.84006">
        <ele>551.5</ele>
        <time>2022-07-25T08:02:01.000Z</time>
        <extensions>
          <gpxtpx:TrackPointExtension xmlns:gpxtpx="http://www.garmin.com/xmlschemas/TrackPointExtension/v1">
            <gpxtpx:hr>113</gpxtpx:hr>
          </gpxtpx:TrackPointExtension>
        </extensions>
      </trkpt>
      <trkpt lat="42.92236" lon="1.84011">
        <ele>551.2</ele>
        <time>2022-07-25T08:02:02.000Z</time>
        <extensions>
          <gpxtpx:TrackPointExtension xmlns:gpxtpx="http://www.garmin.com/xmlschemas/TrackPointExtension/v1">
            <gpxtpx:hr>113</gpxtpx:hr>
          </gpxtpx:TrackPointExtension>
        </extensions>
      </trkpt>
      <trkpt lat="42.9224" lon="1.84017">
        <ele>551</ele>
        <time>2022-07-25T08:02:03.000Z</time>
        <extensions>
          <gpxtpx:TrackPointExtension xmlns:gpxtpx="http://www.garmin.com/xmlschemas/TrackPointExtension/v1">
            <gpxtpx:hr>112</gpxtpx:hr>
          </gpxtpx:TrackPointExtension>
        </extensions>
      </trkpt>
      <trkpt lat="42.92245" lon="1.84022">
        <ele>550.7</ele>
        <time>2022-07-25T08:02:04.000Z</time>
        <extensions>
          <gpxtpx:TrackPointExtension xmlns:gpxtpx="http://www.garmin.com/xmlschemas/TrackPointExtension/v1">
            <gpxtpx:hr>112</gpxtpx:hr>
          </gpxtpx:TrackPointExtension>
        </extensions>
      </trkpt>
      <trkpt lat="42.9225" lon="1.84027">
        <ele>550.4</ele>
        <time>2022-07-25T08:02:05.000Z</time>
        <extensions>
          <gpxtpx:TrackPointExtension xmlns:gpxtpx="http://www.garmin.com/xmlschemas/TrackPointExtension/v1">
            <gpxtpx:hr>112</gpxtpx:hr>
          </gpxtpx:TrackPointExtension>
        </extensions>
      </trkpt>
      <trkpt lat="42.92255" lon="1.84033">
        <ele>550.1</ele>
        <time>2022-07-25T08:02:06.000Z</time>
        <extensions>
          <gpxtpx:TrackPointExtension xmlns:gpxtpx="http://www.garmin.com/xmlschemas/TrackPointExtension/v1">
            <gpxtpx:hr>112</gpxtpx:hr>
          </gpxtpx:TrackPointExtension>
        </extensions>
      </trkpt>
      <trkpt lat="42.9226" lon="1.84038">
        <ele>549.8</ele>
        <time>2022-07-25T08:02:07.000Z</time>
        <extensions>
          <gpxtpx:TrackPointExtension xmlns:gpxtpx="http://www.garmin.com/xmlschemas/TrackPointExtension/v1">
            <gpxtpx:hr>112</gpxtpx:hr>
          </gpxtpx:TrackPointExtension>
        </extensions>
      </trkpt>
      <trkpt lat="42.92265" lon="1.84043">
        <ele>549.5</ele>
        <time>2022-07-25T08:02:08.000Z</time>
        <extensions>
          <gpxtpx:TrackPointExtension xmlns:gpxtpx="http://www.garmin.com/xmlschemas/TrackPointExtension/v1">
            <gpxtpx:hr>112</gpxtpx:hr>
          </gpxtpx:TrackPointExtension>
        </extensions>
      </trkpt>
      <trkpt lat="42.9227" lon="1.84048">
        <ele>549.3</ele>
        <time>2022-07-25T08:02:09.000Z</time>
        <extensions>
          <gpxtpx:TrackPointExtension xmlns:gpxtpx="http://www.garmin.com/xmlschemas/TrackPointExtension/v1">
            <gpxtpx:hr>112</gpxtpx:hr>
          </gpxtpx:TrackPointExtension>
        </extensions>
      </trkpt>
      <trkpt lat="42.92275" lon="1.84054">
        <ele>549</ele>
        <time>2022-07-25T08:02:10.000Z</time>
        <extensions>
          <gpxtpx:TrackPointExtension xmlns:gpxtpx="http://www.garmin.com/xmlschemas/TrackPointExtension/v1">
            <gpxtpx:hr>112</gpxtpx:hr>
          </gpxtpx:TrackPointExtension>
        </extensions>
      </trkpt>
      <trkpt lat="42.9228" lon="1.84059">
        <ele>548.7</ele>
        <time>2022-07-25T08:02:11.000Z</time>
        <extensions>
          <gpxtpx:TrackPointExtension xmlns:gpxtpx="http://www.garmin.com/xmlschemas/TrackPointExtension/v1">
            <gpxtpx:hr>112</gpxtpx:hr>
          </gpxtpx:TrackPointExtension>
        </extensions>
      </trkpt>
      <trkpt lat="42.92284" lon="1.84065">
        <ele>548.4</ele>
        <time>2022-07-25T08:02:12.000Z</time>
        <extensions>
          <gpxtpx:TrackPointExtension xmlns:gpxtpx="http://www.garmin.com/xmlschemas/TrackPointExtension/v1">
            <gpxtpx:hr>112</gpxtpx:hr>
          </gpxtpx:TrackPointExtension>
        </extensions>
      </trkpt>
      <trkpt lat="42.92289" lon="1.8407">
        <ele>548.2</ele>
        <time>2022-07-25T08:02:13.000Z</time>
        <extensions>
          <gpxtpx:TrackPointExtension xmlns:gpxtpx="http://www.garmin.com/xmlschemas/TrackPointExtension/v1">
            <gpxtpx:hr>112</gpxtpx:hr>
          </gpxtpx:TrackPointExtension>
        </extensions>
      </trkpt>
      <trkpt lat="42.92294" lon="1.84076">
        <ele>547.9</ele>
        <time>2022-07-25T08:02:14.000Z</time>
        <extensions>
          <gpxtpx:TrackPointExtension xmlns:gpxtpx="http://www.garmin.com/xmlschemas/TrackPointExtension/v1">
            <gpxtpx:hr>111</gpxtpx:hr>
          </gpxtpx:TrackPointExtension>
        </extensions>
      </trkpt>
      <trkpt lat="42.923" lon="1.84081">
        <ele>547.6</ele>
        <time>2022-07-25T08:02:15.000Z</time>
        <extensions>
          <gpxtpx:TrackPointExtension xmlns:gpxtpx="http://www.garmin.com/xmlschemas/TrackPointExtension/v1">
            <gpxtpx:hr>110</gpxtpx:hr>
          </gpxtpx:TrackPointExtension>
        </extensions>
      </trkpt>
      <trkpt lat="42.92306" lon="1.84087">
        <ele>547.3</ele>
        <time>2022-07-25T08:02:16.000Z</time>
        <extensions>
          <gpxtpx:TrackPointExtension xmlns:gpxtpx="http://www.garmin.com/xmlschemas/TrackPointExtension/v1">
            <gpxtpx:hr>110</gpxtpx:hr>
          </gpxtpx:TrackPointExtension>
        </extensions>
      </trkpt>
      <trkpt lat="42.92311" lon="1.84093">
        <ele>547</ele>
        <time>2022-07-25T08:02:17.000Z</time>
        <extensions>
          <gpxtpx:TrackPointExtension xmlns:gpxtpx="http://www.garmin.com/xmlschemas/TrackPointExtension/v1">
            <gpxtpx:hr>110</gpxtpx:hr>
          </gpxtpx:TrackPointExtension>
        </extensions>
      </trkpt>
      <trkpt lat="42.92317" lon="1.84099">
        <ele>546.8</ele>
        <time>2022-07-25T08:02:18.000Z</time>
        <extensions>
          <gpxtpx:TrackPointExtension xmlns:gpxtpx="http://www.garmin.com/xmlschemas/TrackPointExtension/v1">
            <gpxtpx:hr>109</gpxtpx:hr>
          </gpxtpx:TrackPointExtension>
        </extensions>
      </trkpt>
      <trkpt lat="42.92322" lon="1.84105">
        <ele>546.6</ele>
        <time>2022-07-25T08:02:19.000Z</time>
        <extensions>
          <gpxtpx:TrackPointExtension xmlns:gpxtpx="http://www.garmin.com/xmlschemas/TrackPointExtension/v1">
            <gpxtpx:hr>109</gpxtpx:hr>
          </gpxtpx:TrackPointExtension>
        </extensions>
      </trkpt>
      <trkpt lat="42.92327" lon="1.84111">
        <ele>546.4</ele>
        <time>2022-07-25T08:02:20.000Z</time>
        <extensions>
          <gpxtpx:TrackPointExtension xmlns:gpxtpx="http://www.garmin.com/xmlschemas/TrackPointExtension/v1">
            <gpxtpx:hr>109</gpxtpx:hr>
          </gpxtpx:TrackPointExtension>
        </extensions>
      </trkpt>
      <trkpt lat="42.92333" lon="1.84117">
        <ele>546.1</ele>
        <time>2022-07-25T08:02:21.000Z</time>
        <extensions>
          <gpxtpx:TrackPointExtension xmlns:gpxtpx="http://www.garmin.com/xmlschemas/TrackPointExtension/v1">
            <gpxtpx:hr>109</gpxtpx:hr>
          </gpxtpx:TrackPointExtension>
        </extensions>
      </trkpt>
      <trkpt lat="42.92337" lon="1.84123">
        <ele>545.9</ele>
        <time>2022-07-25T08:02:22.000Z</time>
        <extensions>
          <gpxtpx:TrackPointExtension xmlns:gpxtpx="http://www.garmin.com/xmlschemas/TrackPointExtension/v1">
            <gpxtpx:hr>110</gpxtpx:hr>
          </gpxtpx:TrackPointExtension>
        </extensions>
      </trkpt>
      <trkpt lat="42.9234" lon="1.84131">
        <ele>545.7</ele>
        <time>2022-07-25T08:02:23.000Z</time>
        <extensions>
          <gpxtpx:TrackPointExtension xmlns:gpxtpx="http://www.garmin.com/xmlschemas/TrackPointExtension/v1">
            <gpxtpx:hr>110</gpxtpx:hr>
          </gpxtpx:TrackPointExtension>
        </extensions>
      </trkpt>
      <trkpt lat="42.9234" lon="1.84139">
        <ele>545.5</ele>
        <time>2022-07-25T08:02:24.000Z</time>
        <extensions>
          <gpxtpx:TrackPointExtension xmlns:gpxtpx="http://www.garmin.com/xmlschemas/TrackPointExtension/v1">
            <gpxtpx:hr>110</gpxtpx:hr>
          </gpxtpx:TrackPointExtension>
        </extensions>
      </trkpt>
      <trkpt lat="42.92337" lon="1.84147">
        <ele>545.3</ele>
        <time>2022-07-25T08:02:25.000Z</time>
        <extensions>
          <gpxtpx:TrackPointExtension xmlns:gpxtpx="http://www.garmin.com/xmlschemas/TrackPointExtension/v1">
            <gpxtpx:hr>110</gpxtpx:hr>
          </gpxtpx:TrackPointExtension>
        </extensions>
      </trkpt>
      <trkpt lat="42.92334" lon="1.84153">
        <ele>545.1</ele>
        <time>2022-07-25T08:02:26.000Z</time>
        <extensions>
          <gpxtpx:TrackPointExtension xmlns:gpxtpx="http://www.garmin.com/xmlschemas/TrackPointExtension/v1">
            <gpxtpx:hr>111</gpxtpx:hr>
          </gpxtpx:TrackPointExtension>
        </extensions>
      </trkpt>
      <trkpt lat="42.9233" lon="1.8416">
        <ele>544.9</ele>
        <time>2022-07-25T08:02:27.000Z</time>
        <extensions>
          <gpxtpx:TrackPointExtension xmlns:gpxtpx="http://www.garmin.com/xmlschemas/TrackPointExtension/v1">
            <gpxtpx:hr>111</gpxtpx:hr>
          </gpxtpx:TrackPointExtension>
        </extensions>
      </trkpt>
      <trkpt lat="42.92326" lon="1.84168">
        <ele>544.8</ele>
        <time>2022-07-25T08:02:28.000Z</time>
        <extensions>
          <gpxtpx:TrackPointExtension xmlns:gpxtpx="http://www.garmin.com/xmlschemas/TrackPointExtension/v1">
            <gpxtpx:hr>111</gpxtpx:hr>
          </gpxtpx:TrackPointExtension>
        </extensions>
      </trkpt>
      <trkpt lat="42.92322" lon="1.84175">
        <ele>544.6</ele>
        <time>2022-07-25T08:02:29.000Z</time>
        <extensions>
          <gpxtpx:TrackPointExtension xmlns:gpxtpx="http://www.garmin.com/xmlschemas/TrackPointExtension/v1">
            <gpxtpx:hr>111</gpxtpx:hr>
          </gpxtpx:TrackPointExtension>
        </extensions>
      </trkpt>
      <trkpt lat="42.9232" lon="1.84184">
        <ele>544.4</ele>
        <time>2022-07-25T08:02:30.000Z</time>
        <extensions>
          <gpxtpx:TrackPointExtension xmlns:gpxtpx="http://www.garmin.com/xmlschemas/TrackPointExtension/v1">
            <gpxtpx:hr>111</gpxtpx:hr>
          </gpxtpx:TrackPointExtension>
        </extensions>
      </trkpt>
      <trkpt lat="42.9232" lon="1.84192">
        <ele>544.2</ele>
        <time>2022-07-25T08:02:31.000Z</time>
        <extensions>
          <gpxtpx:TrackPointExtension xmlns:gpxtpx="http://www.garmin.com/xmlschemas/TrackPointExtension/v1">
            <gpxtpx:hr>111</gpxtpx:hr>
          </gpxtpx:TrackPointExtension>
        </extensions>
      </trkpt>
      <trkpt lat="42.92323" lon="1.84202">
        <ele>544</ele>
        <time>2022-07-25T08:02:32.000Z</time>
        <extensions>
          <gpxtpx:TrackPointExtension xmlns:gpxtpx="http://www.garmin.com/xmlschemas/TrackPointExtension/v1">
            <gpxtpx:hr>112</gpxtpx:hr>
          </gpxtpx:TrackPointExtension>
        </extensions>
      </trkpt>
      <trkpt lat="42.92329" lon="1.84209">
        <ele>543.8</ele>
        <time>2022-07-25T08:02:33.000Z</time>
        <extensions>
          <gpxtpx:TrackPointExtension xmlns:gpxtpx="http://www.garmin.com/xmlschemas/TrackPointExtension/v1">
            <gpxtpx:hr>112</gpxtpx:hr>
          </gpxtpx:TrackPointExtension>
        </extensions>
      </trkpt>
      <trkpt lat="42.92336" lon="1.84215">
        <ele>543.6</ele>
        <time>2022-07-25T08:02:34.000Z</time>
        <extensions>
          <gpxtpx:TrackPointExtension xmlns:gpxtpx="http://www.garmin.com/xmlschemas/TrackPointExtension/v1">
            <gpxtpx:hr>113</gpxtpx:hr>
          </gpxtpx:TrackPointExtension>
        </extensions>
      </trkpt>
      <trkpt lat="42.92344" lon="1.84218">
        <ele>543.5</ele>
        <time>2022-07-25T08:02:35.000Z</time>
        <extensions>
          <gpxtpx:TrackPointExtension xmlns:gpxtpx="http://www.garmin.com/xmlschemas/TrackPointExtension/v1">
            <gpxtpx:hr>113</gpxtpx:hr>
          </gpxtpx:TrackPointExtension>
        </extensions>
      </trkpt>
      <trkpt lat="42.92352" lon="1.84221">
        <ele>543.3</ele>
        <time>2022-07-25T08:02:36.000Z</time>
        <extensions>
          <gpxtpx:TrackPointExtension xmlns:gpxtpx="http://www.garmin.com/xmlschemas/TrackPointExtension/v1">
            <gpxtpx:hr>114</gpxtpx:hr>
          </gpxtpx:TrackPointExtension>
        </extensions>
      </trkpt>
      <trkpt lat="42.92359" lon="1.84225">
        <ele>543.1</ele>
        <time>2022-07-25T08:02:37.000Z</time>
        <extensions>
          <gpxtpx:TrackPointExtension xmlns:gpxtpx="http://www.garmin.com/xmlschemas/TrackPointExtension/v1">
            <gpxtpx:hr>115</gpxtpx:hr>
          </gpxtpx:TrackPointExtension>
        </extensions>
      </trkpt>
      <trkpt lat="42.92367" lon="1.8423">
        <ele>542.9</ele>
        <time>2022-07-25T08:02:38.000Z</time>
        <extensions>
          <gpxtpx:TrackPointExtension xmlns:gpxtpx="http://www.garmin.com/xmlschemas/TrackPointExtension/v1">
            <gpxtpx:hr>115</gpxtpx:hr>
          </gpxtpx:TrackPointExtension>
        </extensions>
      </trkpt>
      <trkpt lat="42.92375" lon="1.84235">
        <ele>542.7</ele>
        <time>2022-07-25T08:02:39.000Z</time>
        <extensions>
          <gpxtpx:TrackPointExtension xmlns:gpxtpx="http://www.garmin.com/xmlschemas/TrackPointExtension/v1">
            <gpxtpx:hr>116</gpxtpx:hr>
          </gpxtpx:TrackPointExtension>
        </extensions>
      </trkpt>
      <trkpt lat="42.92382" lon="1.8424">
        <ele>542.5</ele>
        <time>2022-07-25T08:02:40.000Z</time>
        <extensions>
          <gpxtpx:TrackPointExtension xmlns:gpxtpx="http://www.garmin.com/xmlschemas/TrackPointExtension/v1">
            <gpxtpx:hr>117</gpxtpx:hr>
          </gpxtpx:TrackPointExtension>
        </extensions>
      </trkpt>
      <trkpt lat="42.92389" lon="1.84245">
        <ele>542.3</ele>
        <time>2022-07-25T08:02:41.000Z</time>
        <extensions>
          <gpxtpx:TrackPointExtension xmlns:gpxtpx="http://www.garmin.com/xmlschemas/TrackPointExtension/v1">
            <gpxtpx:hr>118</gpxtpx:hr>
          </gpxtpx:TrackPointExtension>
        </extensions>
      </trkpt>
      <trkpt lat="42.92396" lon="1.84251">
        <ele>542.1</ele>
        <time>2022-07-25T08:02:42.000Z</time>
        <extensions>
          <gpxtpx:TrackPointExtension xmlns:gpxtpx="http://www.garmin.com/xmlschemas/TrackPointExtension/v1">
            <gpxtpx:hr>118</gpxtpx:hr>
          </gpxtpx:TrackPointExtension>
        </extensions>
      </trkpt>
      <trkpt lat="42.92402" lon="1.84258">
        <ele>541.9</ele>
        <time>2022-07-25T08:02:43.000Z</time>
        <extensions>
          <gpxtpx:TrackPointExtension xmlns:gpxtpx="http://www.garmin.com/xmlschemas/TrackPointExtension/v1">
            <gpxtpx:hr>119</gpxtpx:hr>
          </gpxtpx:TrackPointExtension>
        </extensions>
      </trkpt>
      <trkpt lat="42.92408" lon="1.84266">
        <ele>541.7</ele>
        <time>2022-07-25T08:02:44.000Z</time>
        <extensions>
          <gpxtpx:TrackPointExtension xmlns:gpxtpx="http://www.garmin.com/xmlschemas/TrackPointExtension/v1">
            <gpxtpx:hr>120</gpxtpx:hr>
          </gpxtpx:TrackPointExtension>
        </extensions>
      </trkpt>
      <trkpt lat="42.92412" lon="1.84275">
        <ele>541.6</ele>
        <time>2022-07-25T08:02:45.000Z</time>
        <extensions>
          <gpxtpx:TrackPointExtension xmlns:gpxtpx="http://www.garmin.com/xmlschemas/TrackPointExtension/v1">
            <gpxtpx:hr>121</gpxtpx:hr>
          </gpxtpx:TrackPointExtension>
        </extensions>
      </trkpt>
      <trkpt lat="42.92416" lon="1.84286">
        <ele>541.4</ele>
        <time>2022-07-25T08:02:46.000Z</time>
        <extensions>
          <gpxtpx:TrackPointExtension xmlns:gpxtpx="http://www.garmin.com/xmlschemas/TrackPointExtension/v1">
            <gpxtpx:hr>122</gpxtpx:hr>
          </gpxtpx:TrackPointExtension>
        </extensions>
      </trkpt>
      <trkpt lat="42.92419" lon="1.84297">
        <ele>541.1</ele>
        <time>2022-07-25T08:02:47.000Z</time>
        <extensions>
          <gpxtpx:TrackPointExtension xmlns:gpxtpx="http://www.garmin.com/xmlschemas/TrackPointExtension/v1">
            <gpxtpx:hr>122</gpxtpx:hr>
          </gpxtpx:TrackPointExtension>
        </extensions>
      </trkpt>
      <trkpt lat="42.92421" lon="1.84309">
        <ele>540.9</ele>
        <time>2022-07-25T08:02:48.000Z</time>
        <extensions>
          <gpxtpx:TrackPointExtension xmlns:gpxtpx="http://www.garmin.com/xmlschemas/TrackPointExtension/v1">
            <gpxtpx:hr>123</gpxtpx:hr>
          </gpxtpx:TrackPointExtension>
        </extensions>
      </trkpt>
      <trkpt lat="42.92423" lon="1.84321">
        <ele>540.7</ele>
        <time>2022-07-25T08:02:49.000Z</time>
        <extensions>
          <gpxtpx:TrackPointExtension xmlns:gpxtpx="http://www.garmin.com/xmlschemas/TrackPointExtension/v1">
            <gpxtpx:hr>123</gpxtpx:hr>
          </gpxtpx:TrackPointExtension>
        </extensions>
      </trkpt>
      <trkpt lat="42.92423" lon="1.84332">
        <ele>540.5</ele>
        <time>2022-07-25T08:02:50.000Z</time>
        <extensions>
          <gpxtpx:TrackPointExtension xmlns:gpxtpx="http://www.garmin.com/xmlschemas/TrackPointExtension/v1">
            <gpxtpx:hr>123</gpxtpx:hr>
          </gpxtpx:TrackPointExtension>
        </extensions>
      </trkpt>
      <trkpt lat="42.92423" lon="1.84343">
        <ele>540.2</ele>
        <time>2022-07-25T08:02:51.000Z</time>
        <extensions>
          <gpxtpx:TrackPointExtension xmlns:gpxtpx="http://www.garmin.com/xmlschemas/TrackPointExtension/v1">
            <gpxtpx:hr>124</gpxtpx:hr>
          </gpxtpx:TrackPointExtension>
        </extensions>
      </trkpt>
      <trkpt lat="42.92424" lon="1.84354">
        <ele>540</ele>
        <time>2022-07-25T08:02:52.000Z</time>
        <extensions>
          <gpxtpx:TrackPointExtension xmlns:gpxtpx="http://www.garmin.com/xmlschemas/TrackPointExtension/v1">
            <gpxtpx:hr>124</gpxtpx:hr>
          </gpxtpx:TrackPointExtension>
        </extensions>
      </trkpt>
      <trkpt lat="42.92423" lon="1.84366">
        <ele>539.7</ele>
        <time>2022-07-25T08:02:53.000Z</time>
        <extensions>
          <gpxtpx:TrackPointExtension xmlns:gpxtpx="http://www.garmin.com/xmlschemas/TrackPointExtension/v1">
            <gpxtpx:hr>125</gpxtpx:hr>
          </gpxtpx:TrackPointExtension>
        </extensions>
      </trkpt>
      <trkpt lat="42.92422" lon="1.84377">
        <ele>539.4</ele>
        <time>2022-07-25T08:02:54.000Z</time>
        <extensions>
          <gpxtpx:TrackPointExtension xmlns:gpxtpx="http://www.garmin.com/xmlschemas/TrackPointExtension/v1">
            <gpxtpx:hr>125</gpxtpx:hr>
          </gpxtpx:TrackPointExtension>
        </extensions>
      </trkpt>
      <trkpt lat="42.92422" lon="1.84389">
        <ele>539.2</ele>
        <time>2022-07-25T08:02:55.000Z</time>
        <extensions>
          <gpxtpx:TrackPointExtension xmlns:gpxtpx="http://www.garmin.com/xmlschemas/TrackPointExtension/v1">
            <gpxtpx:hr>125</gpxtpx:hr>
          </gpxtpx:TrackPointExtension>
        </extensions>
      </trkpt>
      <trkpt lat="42.92422" lon="1.84401">
        <ele>538.9</ele>
        <time>2022-07-25T08:02:56.000Z</time>
        <extensions>
          <gpxtpx:TrackPointExtension xmlns:gpxtpx="http://www.garmin.com/xmlschemas/TrackPointExtension/v1">
            <gpxtpx:hr>125</gpxtpx:hr>
          </gpxtpx:TrackPointExtension>
        </extensions>
      </trkpt>
      <trkpt lat="42.92424" lon="1.84412">
        <ele>538.7</ele>
        <time>2022-07-25T08:02:57.000Z</time>
        <extensions>
          <gpxtpx:TrackPointExtension xmlns:gpxtpx="http://www.garmin.com/xmlschemas/TrackPointExtension/v1">
            <gpxtpx:hr>125</gpxtpx:hr>
          </gpxtpx:TrackPointExtension>
        </extensions>
      </trkpt>
      <trkpt lat="42.92428" lon="1.84422">
        <ele>538.5</ele>
        <time>2022-07-25T08:02:58.000Z</time>
        <extensions>
          <gpxtpx:TrackPointExtension xmlns:gpxtpx="http://www.garmin.com/xmlschemas/TrackPointExtension/v1">
            <gpxtpx:hr>126</gpxtpx:hr>
          </gpxtpx:TrackPointExtension>
        </extensions>
      </trkpt>
      <trkpt lat="42.92435" lon="1.8443">
        <ele>538.3</ele>
        <time>2022-07-25T08:02:59.000Z</time>
        <extensions>
          <gpxtpx:TrackPointExtension xmlns:gpxtpx="http://www.garmin.com/xmlschemas/TrackPointExtension/v1">
            <gpxtpx:hr>126</gpxtpx:hr>
          </gpxtpx:TrackPointExtension>
        </extensions>
      </trkpt>
      <trkpt lat="42.92441" lon="1.84435">
        <ele>538.1</ele>
        <time>2022-07-25T08:03:00.000Z</time>
        <extensions>
          <gpxtpx:TrackPointExtension xmlns:gpxtpx="http://www.garmin.com/xmlschemas/TrackPointExtension/v1">
            <gpxtpx:hr>127</gpxtpx:hr>
          </gpxtpx:TrackPointExtension>
        </extensions>
      </trkpt>
      <trkpt lat="42.92447" lon="1.8444">
        <ele>537.9</ele>
        <time>2022-07-25T08:03:01.000Z</time>
        <extensions>
          <gpxtpx:TrackPointExtension xmlns:gpxtpx="http://www.garmin.com/xmlschemas/TrackPointExtension/v1">
            <gpxtpx:hr>127</gpxtpx:hr>
          </gpxtpx:TrackPointExtension>
        </extensions>
      </trkpt>
      <trkpt lat="42.92452" lon="1.84446">
        <ele>537.7</ele>
        <time>2022-07-25T08:03:02.000Z</time>
        <extensions>
          <gpxtpx:TrackPointExtension xmlns:gpxtpx="http://www.garmin.com/xmlschemas/TrackPointExtension/v1">
            <gpxtpx:hr>127</gpxtpx:hr>
          </gpxtpx:TrackPointExtension>
        </extensions>
      </trkpt>
      <trkpt lat="42.92456" lon="1.84453">
        <ele>537.5</ele>
        <time>2022-07-25T08:03:03.000Z</time>
        <extensions>
          <gpxtpx:TrackPointExtension xmlns:gpxtpx="http://www.garmin.com/xmlschemas/TrackPointExtension/v1">
            <gpxtpx:hr>128</gpxtpx:hr>
          </gpxtpx:TrackPointExtension>
        </extensions>
      </trkpt>
      <trkpt lat="42.92459" lon="1.84462">
        <ele>537.4</ele>
        <time>2022-07-25T08:03:04.000Z</time>
        <extensions>
          <gpxtpx:TrackPointExtension xmlns:gpxtpx="http://www.garmin.com/xmlschemas/TrackPointExtension/v1">
            <gpxtpx:hr>128</gpxtpx:hr>
          </gpxtpx:TrackPointExtension>
        </extensions>
      </trkpt>
      <trkpt lat="42.92459" lon="1.84469">
        <ele>537.2</ele>
        <time>2022-07-25T08:03:05.000Z</time>
        <extensions>
          <gpxtpx:TrackPointExtension xmlns:gpxtpx="http://www.garmin.com/xmlschemas/TrackPointExtension/v1">
            <gpxtpx:hr>128</gpxtpx:hr>
          </gpxtpx:TrackPointExtension>
        </extensions>
      </trkpt>
      <trkpt lat="42.92459" lon="1.84477">
        <ele>537.1</ele>
        <time>2022-07-25T08:03:06.000Z</time>
        <extensions>
          <gpxtpx:TrackPointExtension xmlns:gpxtpx="http://www.garmin.com/xmlschemas/TrackPointExtension/v1">
            <gpxtpx:hr>129</gpxtpx:hr>
          </gpxtpx:TrackPointExtension>
        </extensions>
      </trkpt>
      <trkpt lat="42.92458" lon="1.84485">
        <ele>537</ele>
        <time>2022-07-25T08:03:07.000Z</time>
        <extensions>
          <gpxtpx:TrackPointExtension xmlns:gpxtpx="http://www.garmin.com/xmlschemas/TrackPointExtension/v1">
            <gpxtpx:hr>129</gpxtpx:hr>
          </gpxtpx:TrackPointExtension>
        </extensions>
      </trkpt>
      <trkpt lat="42.92457" lon="1.84493">
        <ele>536.8</ele>
        <time>2022-07-25T08:03:08.000Z</time>
        <extensions>
          <gpxtpx:TrackPointExtension xmlns:gpxtpx="http://www.garmin.com/xmlschemas/TrackPointExtension/v1">
            <gpxtpx:hr>130</gpxtpx:hr>
          </gpxtpx:TrackPointExtension>
        </extensions>
      </trkpt>
      <trkpt lat="42.92457" lon="1.845">
        <ele>536.7</ele>
        <time>2022-07-25T08:03:09.000Z</time>
        <extensions>
          <gpxtpx:TrackPointExtension xmlns:gpxtpx="http://www.garmin.com/xmlschemas/TrackPointExtension/v1">
            <gpxtpx:hr>130</gpxtpx:hr>
          </gpxtpx:TrackPointExtension>
        </extensions>
      </trkpt>
      <trkpt lat="42.92456" lon="1.84507">
        <ele>536.6</ele>
        <time>2022-07-25T08:03:10.000Z</time>
        <extensions>
          <gpxtpx:TrackPointExtension xmlns:gpxtpx="http://www.garmin.com/xmlschemas/TrackPointExtension/v1">
            <gpxtpx:hr>130</gpxtpx:hr>
          </gpxtpx:TrackPointExtension>
        </extensions>
      </trkpt>
      <trkpt lat="42.92455" lon="1.84514">
        <ele>536.5</ele>
        <time>2022-07-25T08:03:11.000Z</time>
        <extensions>
          <gpxtpx:TrackPointExtension xmlns:gpxtpx="http://www.garmin.com/xmlschemas/TrackPointExtension/v1">
            <gpxtpx:hr>130</gpxtpx:hr>
          </gpxtpx:TrackPointExtension>
        </extensions>
      </trkpt>
      <trkpt lat="42.92453" lon="1.84525">
        <ele>536.4</ele>
        <time>2022-07-25T08:03:13.000Z</time>
        <extensions>
          <gpxtpx:TrackPointExtension xmlns:gpxtpx="http://www.garmin.com/xmlschemas/TrackPointExtension/v1">
            <gpxtpx:hr>130</gpxtpx:hr>
          </gpxtpx:TrackPointExtension>
        </extensions>
      </trkpt>
      <trkpt lat="42.92451" lon="1.84535">
        <ele>536.3</ele>
        <time>2022-07-25T08:03:15.000Z</time>
        <extensions>
          <gpxtpx:TrackPointExtension xmlns:gpxtpx="http://www.garmin.com/xmlschemas/TrackPointExtension/v1">
            <gpxtpx:hr>131</gpxtpx:hr>
          </gpxtpx:TrackPointExtension>
        </extensions>
      </trkpt>
      <trkpt lat="42.92449" lon="1.84544">
        <ele>536.2</ele>
        <time>2022-07-25T08:03:17.000Z</time>
        <extensions>
          <gpxtpx:TrackPointExtension xmlns:gpxtpx="http://www.garmin.com/xmlschemas/TrackPointExtension/v1">
            <gpxtpx:hr>131</gpxtpx:hr>
          </gpxtpx:TrackPointExtension>
        </extensions>
      </trkpt>
      <trkpt lat="42.92447" lon="1.84554">
        <ele>536.2</ele>
        <time>2022-07-25T08:03:19.000Z</time>
        <extensions>
          <gpxtpx:TrackPointExtension xmlns:gpxtpx="http://www.garmin.com/xmlschemas/TrackPointExtension/v1">
            <gpxtpx:hr>131</gpxtpx:hr>
          </gpxtpx:TrackPointExtension>
        </extensions>
      </trkpt>
      <trkpt lat="42.92446" lon="1.84565">
        <ele>536.2</ele>
        <time>2022-07-25T08:03:21.000Z</time>
        <extensions>
          <gpxtpx:TrackPointExtension xmlns:gpxtpx="http://www.garmin.com/xmlschemas/TrackPointExtension/v1">
            <gpxtpx:hr>131</gpxtpx:hr>
          </gpxtpx:TrackPointExtension>
        </extensions>
      </trkpt>
      <trkpt lat="42.92443" lon="1.84575">
        <ele>536.2</ele>
        <time>2022-07-25T08:03:23.000Z</time>
        <extensions>
          <gpxtpx:TrackPointExtension xmlns:gpxtpx="http://www.garmin.com/xmlschemas/TrackPointExtension/v1">
            <gpxtpx:hr>131</gpxtpx:hr>
          </gpxtpx:TrackPointExtension>
        </extensions>
      </trkpt>
      <trkpt lat="42.92441" lon="1.84586">
        <ele>536.3</ele>
        <time>2022-07-25T08:03:25.000Z</time>
        <extensions>
          <gpxtpx:TrackPointExtension xmlns:gpxtpx="http://www.garmin.com/xmlschemas/TrackPointExtension/v1">
            <gpxtpx:hr>131</gpxtpx:hr>
          </gpxtpx:TrackPointExtension>
        </extensions>
      </trkpt>
      <trkpt lat="42.92441" lon="1.84593">
        <ele>536.3</ele>
        <time>2022-07-25T08:03:26.000Z</time>
        <extensions>
          <gpxtpx:TrackPointExtension xmlns:gpxtpx="http://www.garmin.com/xmlschemas/TrackPointExtension/v1">
            <gpxtpx:hr>131</gpxtpx:hr>
          </gpxtpx:TrackPointExtension>
        </extensions>
      </trkpt>
      <trkpt lat="42.92441" lon="1.84603">
        <ele>536.4</ele>
        <time>2022-07-25T08:03:28.000Z</time>
        <extensions>
          <gpxtpx:TrackPointExtension xmlns:gpxtpx="http://www.garmin.com/xmlschemas/TrackPointExtension/v1">
            <gpxtpx:hr>132</gpxtpx:hr>
          </gpxtpx:TrackPointExtension>
        </extensions>
      </trkpt>
      <trkpt lat="42.92442" lon="1.84615">
        <ele>536.4</ele>
        <time>2022-07-25T08:03:30.000Z</time>
        <extensions>
          <gpxtpx:TrackPointExtension xmlns:gpxtpx="http://www.garmin.com/xmlschemas/TrackPointExtension/v1">
            <gpxtpx:hr>133</gpxtpx:hr>
          </gpxtpx:TrackPointExtension>
        </extensions>
      </trkpt>
      <trkpt lat="42.92444" lon="1.84621">
        <ele>536.5</ele>
        <time>2022-07-25T08:03:31.000Z</time>
        <extensions>
          <gpxtpx:TrackPointExtension xmlns:gpxtpx="http://www.garmin.com/xmlschemas/TrackPointExtension/v1">
            <gpxtpx:hr>133</gpxtpx:hr>
          </gpxtpx:TrackPointExtension>
        </extensions>
      </trkpt>
      <trkpt lat="42.92449" lon="1.8463">
        <ele>536.6</ele>
        <time>2022-07-25T08:03:33.000Z</time>
        <extensions>
          <gpxtpx:TrackPointExtension xmlns:gpxtpx="http://www.garmin.com/xmlschemas/TrackPointExtension/v1">
            <gpxtpx:hr>135</gpxtpx:hr>
          </gpxtpx:TrackPointExtension>
        </extensions>
      </trkpt>
      <trkpt lat="42.92456" lon="1.84633">
        <ele>536.7</ele>
        <time>2022-07-25T08:03:35.000Z</time>
        <extensions>
          <gpxtpx:TrackPointExtension xmlns:gpxtpx="http://www.garmin.com/xmlschemas/TrackPointExtension/v1">
            <gpxtpx:hr>136</gpxtpx:hr>
          </gpxtpx:TrackPointExtension>
        </extensions>
      </trkpt>
      <trkpt lat="42.92461" lon="1.84635">
        <ele>536.9</ele>
        <time>2022-07-25T08:03:37.000Z</time>
        <extensions>
          <gpxtpx:TrackPointExtension xmlns:gpxtpx="http://www.garmin.com/xmlschemas/TrackPointExtension/v1">
            <gpxtpx:hr>137</gpxtpx:hr>
          </gpxtpx:TrackPointExtension>
        </extensions>
      </trkpt>
      <trkpt lat="42.92465" lon="1.84638">
        <ele>537</ele>
        <time>2022-07-25T08:03:39.000Z</time>
        <extensions>
          <gpxtpx:TrackPointExtension xmlns:gpxtpx="http://www.garmin.com/xmlschemas/TrackPointExtension/v1">
            <gpxtpx:hr>138</gpxtpx:hr>
          </gpxtpx:TrackPointExtension>
        </extensions>
      </trkpt>
      <trkpt lat="42.9247" lon="1.84641">
        <ele>537.4</ele>
        <time>2022-07-25T08:03:42.000Z</time>
        <extensions>
          <gpxtpx:TrackPointExtension xmlns:gpxtpx="http://www.garmin.com/xmlschemas/TrackPointExtension/v1">
            <gpxtpx:hr>141</gpxtpx:hr>
          </gpxtpx:TrackPointExtension>
        </extensions>
      </trkpt>
      <trkpt lat="42.92476" lon="1.84644">
        <ele>537.7</ele>
        <time>2022-07-25T08:03:45.000Z</time>
        <extensions>
          <gpxtpx:TrackPointExtension xmlns:gpxtpx="http://www.garmin.com/xmlschemas/TrackPointExtension/v1">
            <gpxtpx:hr>143</gpxtpx:hr>
          </gpxtpx:TrackPointExtension>
        </extensions>
      </trkpt>
      <trkpt lat="42.92481" lon="1.84644">
        <ele>537.8</ele>
        <time>2022-07-25T08:03:47.000Z</time>
        <extensions>
          <gpxtpx:TrackPointExtension xmlns:gpxtpx="http://www.garmin.com/xmlschemas/TrackPointExtension/v1">
            <gpxtpx:hr>144</gpxtpx:hr>
          </gpxtpx:TrackPointExtension>
        </extensions>
      </trkpt>
      <trkpt lat="42.92488" lon="1.84645">
        <ele>538.2</ele>
        <time>2022-07-25T08:03:50.000Z</time>
        <extensions>
          <gpxtpx:TrackPointExtension xmlns:gpxtpx="http://www.garmin.com/xmlschemas/TrackPointExtension/v1">
            <gpxtpx:hr>145</gpxtpx:hr>
          </gpxtpx:TrackPointExtension>
        </extensions>
      </trkpt>
      <trkpt lat="42.92494" lon="1.84648">
        <ele>538.3</ele>
        <time>2022-07-25T08:03:52.000Z</time>
        <extensions>
          <gpxtpx:TrackPointExtension xmlns:gpxtpx="http://www.garmin.com/xmlschemas/TrackPointExtension/v1">
            <gpxtpx:hr>145</gpxtpx:hr>
          </gpxtpx:TrackPointExtension>
        </extensions>
      </trkpt>
      <trkpt lat="42.92501" lon="1.84651">
        <ele>538.5</ele>
        <time>2022-07-25T08:03:54.000Z</time>
        <extensions>
          <gpxtpx:TrackPointExtension xmlns:gpxtpx="http://www.garmin.com/xmlschemas/TrackPointExtension/v1">
            <gpxtpx:hr>146</gpxtpx:hr>
          </gpxtpx:TrackPointExtension>
        </extensions>
      </trkpt>
      <trkpt lat="42.92505" lon="1.84654">
        <ele>538.6</ele>
        <time>2022-07-25T08:03:55.000Z</time>
        <extensions>
          <gpxtpx:TrackPointExtension xmlns:gpxtpx="http://www.garmin.com/xmlschemas/TrackPointExtension/v1">
            <gpxtpx:hr>146</gpxtpx:hr>
          </gpxtpx:TrackPointExtension>
        </extensions>
      </trkpt>
      <trkpt lat="42.92513" lon="1.84657">
        <ele>538.8</ele>
        <time>2022-07-25T08:03:57.000Z</time>
        <extensions>
          <gpxtpx:TrackPointExtension xmlns:gpxtpx="http://www.garmin.com/xmlschemas/TrackPointExtension/v1">
            <gpxtpx:hr>146</gpxtpx:hr>
          </gpxtpx:TrackPointExtension>
        </extensions>
      </trkpt>
      <trkpt lat="42.92517" lon="1.84657">
        <ele>538.8</ele>
        <time>2022-07-25T08:03:58.000Z</time>
        <extensions>
          <gpxtpx:TrackPointExtension xmlns:gpxtpx="http://www.garmin.com/xmlschemas/TrackPointExtension/v1">
            <gpxtpx:hr>147</gpxtpx:hr>
          </gpxtpx:TrackPointExtension>
        </extensions>
      </trkpt>
      <trkpt lat="42.92525" lon="1.84655">
        <ele>539</ele>
        <time>2022-07-25T08:04:00.000Z</time>
        <extensions>
          <gpxtpx:TrackPointExtension xmlns:gpxtpx="http://www.garmin.com/xmlschemas/TrackPointExtension/v1">
            <gpxtpx:hr>148</gpxtpx:hr>
          </gpxtpx:TrackPointExtension>
        </extensions>
      </trkpt>
      <trkpt lat="42.92534" lon="1.84655">
        <ele>538.9</ele>
        <time>2022-07-25T08:04:02.000Z</time>
        <extensions>
          <gpxtpx:TrackPointExtension xmlns:gpxtpx="http://www.garmin.com/xmlschemas/TrackPointExtension/v1">
            <gpxtpx:hr>150</gpxtpx:hr>
          </gpxtpx:TrackPointExtension>
        </extensions>
      </trkpt>
      <trkpt lat="42.92539" lon="1.84656">
        <ele>538.9</ele>
        <time>2022-07-25T08:04:03.000Z</time>
        <extensions>
          <gpxtpx:TrackPointExtension xmlns:gpxtpx="http://www.garmin.com/xmlschemas/TrackPointExtension/v1">
            <gpxtpx:hr>150</gpxtpx:hr>
          </gpxtpx:TrackPointExtension>
        </extensions>
      </trkpt>
      <trkpt lat="42.92543" lon="1.84657">
        <ele>538.8</ele>
        <time>2022-07-25T08:04:04.000Z</time>
        <extensions>
          <gpxtpx:TrackPointExtension xmlns:gpxtpx="http://www.garmin.com/xmlschemas/TrackPointExtension/v1">
            <gpxtpx:hr>150</gpxtpx:hr>
          </gpxtpx:TrackPointExtension>
        </extensions>
      </trkpt>
      <trkpt lat="42.92549" lon="1.84658">
        <ele>538.7</ele>
        <time>2022-07-25T08:04:05.000Z</time>
        <extensions>
          <gpxtpx:TrackPointExtension xmlns:gpxtpx="http://www.garmin.com/xmlschemas/TrackPointExtension/v1">
            <gpxtpx:hr>151</gpxtpx:hr>
          </gpxtpx:TrackPointExtension>
        </extensions>
      </trkpt>
      <trkpt lat="42.92556" lon="1.8466">
        <ele>538.6</ele>
        <time>2022-07-25T08:04:06.000Z</time>
        <extensions>
          <gpxtpx:TrackPointExtension xmlns:gpxtpx="http://www.garmin.com/xmlschemas/TrackPointExtension/v1">
            <gpxtpx:hr>151</gpxtpx:hr>
          </gpxtpx:TrackPointExtension>
        </extensions>
      </trkpt>
      <trkpt lat="42.92562" lon="1.84661">
        <ele>538.6</ele>
        <time>2022-07-25T08:04:07.000Z</time>
        <extensions>
          <gpxtpx:TrackPointExtension xmlns:gpxtpx="http://www.garmin.com/xmlschemas/TrackPointExtension/v1">
            <gpxtpx:hr>152</gpxtpx:hr>
          </gpxtpx:TrackPointExtension>
        </extensions>
      </trkpt>
      <trkpt lat="42.92567" lon="1.84661">
        <ele>538.6</ele>
        <time>2022-07-25T08:04:08.000Z</time>
        <extensions>
          <gpxtpx:TrackPointExtension xmlns:gpxtpx="http://www.garmin.com/xmlschemas/TrackPointExtension/v1">
            <gpxtpx:hr>152</gpxtpx:hr>
          </gpxtpx:TrackPointExtension>
        </extensions>
      </trkpt>
      <trkpt lat="42.92572" lon="1.84661">
        <ele>538.5</ele>
        <time>2022-07-25T08:04:09.000Z</time>
        <extensions>
          <gpxtpx:TrackPointExtension xmlns:gpxtpx="http://www.garmin.com/xmlschemas/TrackPointExtension/v1">
            <gpxtpx:hr>152</gpxtpx:hr>
          </gpxtpx:TrackPointExtension>
        </extensions>
      </trkpt>
      <trkpt lat="42.92577" lon="1.84661">
        <ele>538.5</ele>
        <time>2022-07-25T08:04:10.000Z</time>
        <extensions>
          <gpxtpx:TrackPointExtension xmlns:gpxtpx="http://www.garmin.com/xmlschemas/TrackPointExtension/v1">
            <gpxtpx:hr>152</gpxtpx:hr>
          </gpxtpx:TrackPointExtension>
        </extensions>
      </trkpt>
      <trkpt lat="42.92587" lon="1.84661">
        <ele>538.4</ele>
        <time>2022-07-25T08:04:12.000Z</time>
        <extensions>
          <gpxtpx:TrackPointExtension xmlns:gpxtpx="http://www.garmin.com/xmlschemas/TrackPointExtension/v1">
            <gpxtpx:hr>152</gpxtpx:hr>
          </gpxtpx:TrackPointExtension>
        </extensions>
      </trkpt>
      <trkpt lat="42.92592" lon="1.8466">
        <ele>538.4</ele>
        <time>2022-07-25T08:04:13.000Z</time>
        <extensions>
          <gpxtpx:TrackPointExtension xmlns:gpxtpx="http://www.garmin.com/xmlschemas/TrackPointExtension/v1">
            <gpxtpx:hr>152</gpxtpx:hr>
          </gpxtpx:TrackPointExtension>
        </extensions>
      </trkpt>
      <trkpt lat="42.92598" lon="1.8466">
        <ele>538.4</ele>
        <time>2022-07-25T08:04:14.000Z</time>
        <extensions>
          <gpxtpx:TrackPointExtension xmlns:gpxtpx="http://www.garmin.com/xmlschemas/TrackPointExtension/v1">
            <gpxtpx:hr>152</gpxtpx:hr>
          </gpxtpx:TrackPointExtension>
        </extensions>
      </trkpt>
      <trkpt lat="42.92604" lon="1.84659">
        <ele>538.4</ele>
        <time>2022-07-25T08:04:15.000Z</time>
        <extensions>
          <gpxtpx:TrackPointExtension xmlns:gpxtpx="http://www.garmin.com/xmlschemas/TrackPointExtension/v1">
            <gpxtpx:hr>152</gpxtpx:hr>
          </gpxtpx:TrackPointExtension>
        </extensions>
      </trkpt>
      <trkpt lat="42.92612" lon="1.8466">
        <ele>538.4</ele>
        <time>2022-07-25T08:04:16.000Z</time>
        <extensions>
          <gpxtpx:TrackPointExtension xmlns:gpxtpx="http://www.garmin.com/xmlschemas/TrackPointExtension/v1">
            <gpxtpx:hr>152</gpxtpx:hr>
          </gpxtpx:TrackPointExtension>
        </extensions>
      </trkpt>
      <trkpt lat="42.92621" lon="1.84661">
        <ele>538.3</ele>
        <time>2022-07-25T08:04:17.000Z</time>
        <extensions>
          <gpxtpx:TrackPointExtension xmlns:gpxtpx="http://www.garmin.com/xmlschemas/TrackPointExtension/v1">
            <gpxtpx:hr>152</gpxtpx:hr>
          </gpxtpx:TrackPointExtension>
        </extensions>
      </trkpt>
      <trkpt lat="42.9263" lon="1.84661">
        <ele>538.3</ele>
        <time>2022-07-25T08:04:18.000Z</time>
        <extensions>
          <gpxtpx:TrackPointExtension xmlns:gpxtpx="http://www.garmin.com/xmlschemas/TrackPointExtension/v1">
            <gpxtpx:hr>152</gpxtpx:hr>
          </gpxtpx:TrackPointExtension>
        </extensions>
      </trkpt>
      <trkpt lat="42.92638" lon="1.84662">
        <ele>538.3</ele>
        <time>2022-07-25T08:04:19.000Z</time>
        <extensions>
          <gpxtpx:TrackPointExtension xmlns:gpxtpx="http://www.garmin.com/xmlschemas/TrackPointExtension/v1">
            <gpxtpx:hr>152</gpxtpx:hr>
          </gpxtpx:TrackPointExtension>
        </extensions>
      </trkpt>
      <trkpt lat="42.92645" lon="1.84662">
        <ele>538.2</ele>
        <time>2022-07-25T08:04:20.000Z</time>
        <extensions>
          <gpxtpx:TrackPointExtension xmlns:gpxtpx="http://www.garmin.com/xmlschemas/TrackPointExtension/v1">
            <gpxtpx:hr>152</gpxtpx:hr>
          </gpxtpx:TrackPointExtension>
        </extensions>
      </trkpt>
      <trkpt lat="42.92651" lon="1.84661">
        <ele>538.2</ele>
        <time>2022-07-25T08:04:21.000Z</time>
        <extensions>
          <gpxtpx:TrackPointExtension xmlns:gpxtpx="http://www.garmin.com/xmlschemas/TrackPointExtension/v1">
            <gpxtpx:hr>152</gpxtpx:hr>
          </gpxtpx:TrackPointExtension>
        </extensions>
      </trkpt>
      <trkpt lat="42.92658" lon="1.8466">
        <ele>538.2</ele>
        <time>2022-07-25T08:04:22.000Z</time>
        <extensions>
          <gpxtpx:TrackPointExtension xmlns:gpxtpx="http://www.garmin.com/xmlschemas/TrackPointExtension/v1">
            <gpxtpx:hr>152</gpxtpx:hr>
          </gpxtpx:TrackPointExtension>
        </extensions>
      </trkpt>
      <trkpt lat="42.92665" lon="1.84658">
        <ele>538.2</ele>
        <time>2022-07-25T08:04:23.000Z</time>
        <extensions>
          <gpxtpx:TrackPointExtension xmlns:gpxtpx="http://www.garmin.com/xmlschemas/TrackPointExtension/v1">
            <gpxtpx:hr>152</gpxtpx:hr>
          </gpxtpx:TrackPointExtension>
        </extensions>
      </trkpt>
      <trkpt lat="42.92671" lon="1.84656">
        <ele>538.1</ele>
        <time>2022-07-25T08:04:24.000Z</time>
        <extensions>
          <gpxtpx:TrackPointExtension xmlns:gpxtpx="http://www.garmin.com/xmlschemas/TrackPointExtension/v1">
            <gpxtpx:hr>152</gpxtpx:hr>
          </gpxtpx:TrackPointExtension>
        </extensions>
      </trkpt>
      <trkpt lat="42.92677" lon="1.84652">
        <ele>538</ele>
        <time>2022-07-25T08:04:25.000Z</time>
        <extensions>
          <gpxtpx:TrackPointExtension xmlns:gpxtpx="http://www.garmin.com/xmlschemas/TrackPointExtension/v1">
            <gpxtpx:hr>152</gpxtpx:hr>
          </gpxtpx:TrackPointExtension>
        </extensions>
      </trkpt>
      <trkpt lat="42.92684" lon="1.84648">
        <ele>537.9</ele>
        <time>2022-07-25T08:04:26.000Z</time>
        <extensions>
          <gpxtpx:TrackPointExtension xmlns:gpxtpx="http://www.garmin.com/xmlschemas/TrackPointExtension/v1">
            <gpxtpx:hr>152</gpxtpx:hr>
          </gpxtpx:TrackPointExtension>
        </extensions>
      </trkpt>
      <trkpt lat="42.92688" lon="1.8464">
        <ele>537.7</ele>
        <time>2022-07-25T08:04:27.000Z</time>
        <extensions>
          <gpxtpx:TrackPointExtension xmlns:gpxtpx="http://www.garmin.com/xmlschemas/TrackPointExtension/v1">
            <gpxtpx:hr>152</gpxtpx:hr>
          </gpxtpx:TrackPointExtension>
        </extensions>
      </trkpt>
      <trkpt lat="42.92695" lon="1.84634">
        <ele>537.5</ele>
        <time>2022-07-25T08:04:28.000Z</time>
        <extensions>
          <gpxtpx:TrackPointExtension xmlns:gpxtpx="http://www.garmin.com/xmlschemas/TrackPointExtension/v1">
            <gpxtpx:hr>151</gpxtpx:hr>
          </gpxtpx:TrackPointExtension>
        </extensions>
      </trkpt>
      <trkpt lat="42.92705" lon="1.8463">
        <ele>537.3</ele>
        <time>2022-07-25T08:04:29.000Z</time>
        <extensions>
          <gpxtpx:TrackPointExtension xmlns:gpxtpx="http://www.garmin.com/xmlschemas/TrackPointExtension/v1">
            <gpxtpx:hr>151</gpxtpx:hr>
          </gpxtpx:TrackPointExtension>
        </extensions>
      </trkpt>
      <trkpt lat="42.92714" lon="1.84628">
        <ele>537</ele>
        <time>2022-07-25T08:04:30.000Z</time>
        <extensions>
          <gpxtpx:TrackPointExtension xmlns:gpxtpx="http://www.garmin.com/xmlschemas/TrackPointExtension/v1">
            <gpxtpx:hr>151</gpxtpx:hr>
          </gpxtpx:TrackPointExtension>
        </extensions>
      </trkpt>
      <trkpt lat="42.92724" lon="1.84627">
        <ele>536.8</ele>
        <time>2022-07-25T08:04:31.000Z</time>
        <extensions>
          <gpxtpx:TrackPointExtension xmlns:gpxtpx="http://www.garmin.com/xmlschemas/TrackPointExtension/v1">
            <gpxtpx:hr>151</gpxtpx:hr>
          </gpxtpx:TrackPointExtension>
        </extensions>
      </trkpt>
      <trkpt lat="42.92733" lon="1.84627">
        <ele>536.5</ele>
        <time>2022-07-25T08:04:32.000Z</time>
        <extensions>
          <gpxtpx:TrackPointExtension xmlns:gpxtpx="http://www.garmin.com/xmlschemas/TrackPointExtension/v1">
            <gpxtpx:hr>151</gpxtpx:hr>
          </gpxtpx:TrackPointExtension>
        </extensions>
      </trkpt>
      <trkpt lat="42.92741" lon="1.84628">
        <ele>536.2</ele>
        <time>2022-07-25T08:04:33.000Z</time>
        <extensions>
          <gpxtpx:TrackPointExtension xmlns:gpxtpx="http://www.garmin.com/xmlschemas/TrackPointExtension/v1">
            <gpxtpx:hr>151</gpxtpx:hr>
          </gpxtpx:TrackPointExtension>
        </extensions>
      </trkpt>
      <trkpt lat="42.92748" lon="1.8463">
        <ele>535.9</ele>
        <time>2022-07-25T08:04:34.000Z</time>
        <extensions>
          <gpxtpx:TrackPointExtension xmlns:gpxtpx="http://www.garmin.com/xmlschemas/TrackPointExtension/v1">
            <gpxtpx:hr>151</gpxtpx:hr>
          </gpxtpx:TrackPointExtension>
        </extensions>
      </trkpt>
      <trkpt lat="42.92757" lon="1.84633">
        <ele>535.6</ele>
        <time>2022-07-25T08:04:35.000Z</time>
        <extensions>
          <gpxtpx:TrackPointExtension xmlns:gpxtpx="http://www.garmin.com/xmlschemas/TrackPointExtension/v1">
            <gpxtpx:hr>150</gpxtpx:hr>
          </gpxtpx:TrackPointExtension>
        </extensions>
      </trkpt>
      <trkpt lat="42.92765" lon="1.84636">
        <ele>535.2</ele>
        <time>2022-07-25T08:04:36.000Z</time>
        <extensions>
          <gpxtpx:TrackPointExtension xmlns:gpxtpx="http://www.garmin.com/xmlschemas/TrackPointExtension/v1">
            <gpxtpx:hr>150</gpxtpx:hr>
          </gpxtpx:TrackPointExtension>
        </extensions>
      </trkpt>
      <trkpt lat="42.92774" lon="1.8464">
        <ele>534.8</ele>
        <time>2022-07-25T08:04:37.000Z</time>
        <extensions>
          <gpxtpx:TrackPointExtension xmlns:gpxtpx="http://www.garmin.com/xmlschemas/TrackPointExtension/v1">
            <gpxtpx:hr>150</gpxtpx:hr>
          </gpxtpx:TrackPointExtension>
        </extensions>
      </trkpt>
      <trkpt lat="42.92783" lon="1.84645">
        <ele>534.3</ele>
        <time>2022-07-25T08:04:38.000Z</time>
        <extensions>
          <gpxtpx:TrackPointExtension xmlns:gpxtpx="http://www.garmin.com/xmlschemas/TrackPointExtension/v1">
            <gpxtpx:hr>150</gpxtpx:hr>
          </gpxtpx:TrackPointExtension>
        </extensions>
      </trkpt>
      <trkpt lat="42.92793" lon="1.84651">
        <ele>534</ele>
        <time>2022-07-25T08:04:39.000Z</time>
        <extensions>
          <gpxtpx:TrackPointExtension xmlns:gpxtpx="http://www.garmin.com/xmlschemas/TrackPointExtension/v1">
            <gpxtpx:hr>150</gpxtpx:hr>
          </gpxtpx:TrackPointExtension>
        </extensions>
      </trkpt>
      <trkpt lat="42.92802" lon="1.84656">
        <ele>533.6</ele>
        <time>2022-07-25T08:04:40.000Z</time>
        <extensions>
          <gpxtpx:TrackPointExtension xmlns:gpxtpx="http://www.garmin.com/xmlschemas/TrackPointExtension/v1">
            <gpxtpx:hr>150</gpxtpx:hr>
          </gpxtpx:TrackPointExtension>
        </extensions>
      </trkpt>
      <trkpt lat="42.92811" lon="1.84662">
        <ele>533.1</ele>
        <time>2022-07-25T08:04:41.000Z</time>
        <extensions>
          <gpxtpx:TrackPointExtension xmlns:gpxtpx="http://www.garmin.com/xmlschemas/TrackPointExtension/v1">
            <gpxtpx:hr>150</gpxtpx:hr>
          </gpxtpx:TrackPointExtension>
        </extensions>
      </trkpt>
      <trkpt lat="42.92819" lon="1.84667">
        <ele>532.7</ele>
        <time>2022-07-25T08:04:42.000Z</time>
        <extensions>
          <gpxtpx:TrackPointExtension xmlns:gpxtpx="http://www.garmin.com/xmlschemas/TrackPointExtension/v1">
            <gpxtpx:hr>150</gpxtpx:hr>
          </gpxtpx:TrackPointExtension>
        </extensions>
      </trkpt>
      <trkpt lat="42.92826" lon="1.84671">
        <ele>532.3</ele>
        <time>2022-07-25T08:04:43.000Z</time>
        <extensions>
          <gpxtpx:TrackPointExtension xmlns:gpxtpx="http://www.garmin.com/xmlschemas/TrackPointExtension/v1">
            <gpxtpx:hr>150</gpxtpx:hr>
          </gpxtpx:TrackPointExtension>
        </extensions>
      </trkpt>
      <trkpt lat="42.92832" lon="1.84676">
        <ele>531.9</ele>
        <time>2022-07-25T08:04:44.000Z</time>
        <extensions>
          <gpxtpx:TrackPointExtension xmlns:gpxtpx="http://www.garmin.com/xmlschemas/TrackPointExtension/v1">
            <gpxtpx:hr>150</gpxtpx:hr>
          </gpxtpx:TrackPointExtension>
        </extensions>
      </trkpt>
      <trkpt lat="42.92838" lon="1.8468">
        <ele>531.5</ele>
        <time>2022-07-25T08:04:45.000Z</time>
        <extensions>
          <gpxtpx:TrackPointExtension xmlns:gpxtpx="http://www.garmin.com/xmlschemas/TrackPointExtension/v1">
            <gpxtpx:hr>150</gpxtpx:hr>
          </gpxtpx:TrackPointExtension>
        </extensions>
      </trkpt>
      <trkpt lat="42.92843" lon="1.84687">
        <ele>530.8</ele>
        <time>2022-07-25T08:04:47.000Z</time>
        <extensions>
          <gpxtpx:TrackPointExtension xmlns:gpxtpx="http://www.garmin.com/xmlschemas/TrackPointExtension/v1">
            <gpxtpx:hr>150</gpxtpx:hr>
          </gpxtpx:TrackPointExtension>
        </extensions>
      </trkpt>
      <trkpt lat="42.92849" lon="1.84691">
        <ele>530.1</ele>
        <time>2022-07-25T08:04:49.000Z</time>
        <extensions>
          <gpxtpx:TrackPointExtension xmlns:gpxtpx="http://www.garmin.com/xmlschemas/TrackPointExtension/v1">
            <gpxtpx:hr>150</gpxtpx:hr>
          </gpxtpx:TrackPointExtension>
        </extensions>
      </trkpt>
      <trkpt lat="42.92856" lon="1.84693">
        <ele>529.5</ele>
        <time>2022-07-25T08:04:51.000Z</time>
        <extensions>
          <gpxtpx:TrackPointExtension xmlns:gpxtpx="http://www.garmin.com/xmlschemas/TrackPointExtension/v1">
            <gpxtpx:hr>149</gpxtpx:hr>
          </gpxtpx:TrackPointExtension>
        </extensions>
      </trkpt>
      <trkpt lat="42.92862" lon="1.84699">
        <ele>528.8</ele>
        <time>2022-07-25T08:04:53.000Z</time>
        <extensions>
          <gpxtpx:TrackPointExtension xmlns:gpxtpx="http://www.garmin.com/xmlschemas/TrackPointExtension/v1">
            <gpxtpx:hr>149</gpxtpx:hr>
          </gpxtpx:TrackPointExtension>
        </extensions>
      </trkpt>
      <trkpt lat="42.92866" lon="1.84705">
        <ele>528.3</ele>
        <time>2022-07-25T08:04:55.000Z</time>
        <extensions>
          <gpxtpx:TrackPointExtension xmlns:gpxtpx="http://www.garmin.com/xmlschemas/TrackPointExtension/v1">
            <gpxtpx:hr>149</gpxtpx:hr>
          </gpxtpx:TrackPointExtension>
        </extensions>
      </trkpt>
      <trkpt lat="42.92874" lon="1.84708">
        <ele>527.8</ele>
        <time>2022-07-25T08:04:57.000Z</time>
        <extensions>
          <gpxtpx:TrackPointExtension xmlns:gpxtpx="http://www.garmin.com/xmlschemas/TrackPointExtension/v1">
            <gpxtpx:hr>148</gpxtpx:hr>
          </gpxtpx:TrackPointExtension>
        </extensions>
      </trkpt>
      <trkpt lat="42.92882" lon="1.84711">
        <ele>527.4</ele>
        <time>2022-07-25T08:04:59.000Z</time>
        <extensions>
          <gpxtpx:TrackPointExtension xmlns:gpxtpx="http://www.garmin.com/xmlschemas/TrackPointExtension/v1">
            <gpxtpx:hr>147</gpxtpx:hr>
          </gpxtpx:TrackPointExtension>
        </extensions>
      </trkpt>
      <trkpt lat="42.92887" lon="1.84713">
        <ele>527.2</ele>
        <time>2022-07-25T08:05:00.000Z</time>
        <extensions>
          <gpxtpx:TrackPointExtension xmlns:gpxtpx="http://www.garmin.com/xmlschemas/TrackPointExtension/v1">
            <gpxtpx:hr>147</gpxtpx:hr>
          </gpxtpx:TrackPointExtension>
        </extensions>
      </trkpt>
      <trkpt lat="42.92891" lon="1.84715">
        <ele>527</ele>
        <time>2022-07-25T08:05:01.000Z</time>
        <extensions>
          <gpxtpx:TrackPointExtension xmlns:gpxtpx="http://www.garmin.com/xmlschemas/TrackPointExtension/v1">
            <gpxtpx:hr>146</gpxtpx:hr>
          </gpxtpx:TrackPointExtension>
        </extensions>
      </trkpt>
      <trkpt lat="42.92896" lon="1.84719">
        <ele>526.8</ele>
        <time>2022-07-25T08:05:02.000Z</time>
        <extensions>
          <gpxtpx:TrackPointExtension xmlns:gpxtpx="http://www.garmin.com/xmlschemas/TrackPointExtension/v1">
            <gpxtpx:hr>145</gpxtpx:hr>
          </gpxtpx:TrackPointExtension>
        </extensions>
      </trkpt>
      <trkpt lat="42.929" lon="1.84722">
        <ele>526.7</ele>
        <time>2022-07-25T08:05:03.000Z</time>
        <extensions>
          <gpxtpx:TrackPointExtension xmlns:gpxtpx="http://www.garmin.com/xmlschemas/TrackPointExtension/v1">
            <gpxtpx:hr>145</gpxtpx:hr>
          </gpxtpx:TrackPointExtension>
        </extensions>
      </trkpt>
      <trkpt lat="42.92905" lon="1.84725">
        <ele>526.5</ele>
        <time>2022-07-25T08:05:04.000Z</time>
        <extensions>
          <gpxtpx:TrackPointExtension xmlns:gpxtpx="http://www.garmin.com/xmlschemas/TrackPointExtension/v1">
            <gpxtpx:hr>145</gpxtpx:hr>
          </gpxtpx:TrackPointExtension>
        </extensions>
      </trkpt>
      <trkpt lat="42.9291" lon="1.84728">
        <ele>526.4</ele>
        <time>2022-07-25T08:05:05.000Z</time>
        <extensions>
          <gpxtpx:TrackPointExtension xmlns:gpxtpx="http://www.garmin.com/xmlschemas/TrackPointExtension/v1">
            <gpxtpx:hr>144</gpxtpx:hr>
          </gpxtpx:TrackPointExtension>
        </extensions>
      </trkpt>
      <trkpt lat="42.92915" lon="1.84731">
        <ele>526.2</ele>
        <time>2022-07-25T08:05:06.000Z</time>
        <extensions>
          <gpxtpx:TrackPointExtension xmlns:gpxtpx="http://www.garmin.com/xmlschemas/TrackPointExtension/v1">
            <gpxtpx:hr>143</gpxtpx:hr>
          </gpxtpx:TrackPointExtension>
        </extensions>
      </trkpt>
      <trkpt lat="42.92919" lon="1.84734">
        <ele>526.1</ele>
        <time>2022-07-25T08:05:07.000Z</time>
        <extensions>
          <gpxtpx:TrackPointExtension xmlns:gpxtpx="http://www.garmin.com/xmlschemas/TrackPointExtension/v1">
            <gpxtpx:hr>142</gpxtpx:hr>
          </gpxtpx:TrackPointExtension>
        </extensions>
      </trkpt>
      <trkpt lat="42.92924" lon="1.84738">
        <ele>526</ele>
        <time>2022-07-25T08:05:08.000Z</time>
        <extensions>
          <gpxtpx:TrackPointExtension xmlns:gpxtpx="http://www.garmin.com/xmlschemas/TrackPointExtension/v1">
            <gpxtpx:hr>142</gpxtpx:hr>
          </gpxtpx:TrackPointExtension>
        </extensions>
      </trkpt>
      <trkpt lat="42.92929" lon="1.84741">
        <ele>525.8</ele>
        <time>2022-07-25T08:05:09.000Z</time>
        <extensions>
          <gpxtpx:TrackPointExtension xmlns:gpxtpx="http://www.garmin.com/xmlschemas/TrackPointExtension/v1">
            <gpxtpx:hr>141</gpxtpx:hr>
          </gpxtpx:TrackPointExtension>
        </extensions>
      </trkpt>
      <trkpt lat="42.92934" lon="1.84744">
        <ele>525.7</ele>
        <time>2022-07-25T08:05:10.000Z</time>
        <extensions>
          <gpxtpx:TrackPointExtension xmlns:gpxtpx="http://www.garmin.com/xmlschemas/TrackPointExtension/v1">
            <gpxtpx:hr>141</gpxtpx:hr>
          </gpxtpx:TrackPointExtension>
        </extensions>
      </trkpt>
      <trkpt lat="42.92939" lon="1.84747">
        <ele>525.6</ele>
        <time>2022-07-25T08:05:11.000Z</time>
        <extensions>
          <gpxtpx:TrackPointExtension xmlns:gpxtpx="http://www.garmin.com/xmlschemas/TrackPointExtension/v1">
            <gpxtpx:hr>140</gpxtpx:hr>
          </gpxtpx:TrackPointExtension>
        </extensions>
      </trkpt>
      <trkpt lat="42.92943" lon="1.84751">
        <ele>525.5</ele>
        <time>2022-07-25T08:05:12.000Z</time>
        <extensions>
          <gpxtpx:TrackPointExtension xmlns:gpxtpx="http://www.garmin.com/xmlschemas/TrackPointExtension/v1">
            <gpxtpx:hr>140</gpxtpx:hr>
          </gpxtpx:TrackPointExtension>
        </extensions>
      </trkpt>
      <trkpt lat="42.92948" lon="1.84755">
        <ele>525.4</ele>
        <time>2022-07-25T08:05:13.000Z</time>
        <extensions>
          <gpxtpx:TrackPointExtension xmlns:gpxtpx="http://www.garmin.com/xmlschemas/TrackPointExtension/v1">
            <gpxtpx:hr>140</gpxtpx:hr>
          </gpxtpx:TrackPointExtension>
        </extensions>
      </trkpt>
      <trkpt lat="42.92953" lon="1.84758">
        <ele>525.3</ele>
        <time>2022-07-25T08:05:14.000Z</time>
        <extensions>
          <gpxtpx:TrackPointExtension xmlns:gpxtpx="http://www.garmin.com/xmlschemas/TrackPointExtension/v1">
            <gpxtpx:hr>140</gpxtpx:hr>
          </gpxtpx:TrackPointExtension>
        </extensions>
      </trkpt>
      <trkpt lat="42.92958" lon="1.84762">
        <ele>525.2</ele>
        <time>2022-07-25T08:05:15.000Z</time>
        <extensions>
          <gpxtpx:TrackPointExtension xmlns:gpxtpx="http://www.garmin.com/xmlschemas/TrackPointExtension/v1">
            <gpxtpx:hr>140</gpxtpx:hr>
          </gpxtpx:TrackPointExtension>
        </extensions>
      </trkpt>
      <trkpt lat="42.92962" lon="1.84765">
        <ele>525.1</ele>
        <time>2022-07-25T08:05:16.000Z</time>
        <extensions>
          <gpxtpx:TrackPointExtension xmlns:gpxtpx="http://www.garmin.com/xmlschemas/TrackPointExtension/v1">
            <gpxtpx:hr>140</gpxtpx:hr>
          </gpxtpx:TrackPointExtension>
        </extensions>
      </trkpt>
      <trkpt lat="42.92967" lon="1.84769">
        <ele>525</ele>
        <time>2022-07-25T08:05:17.000Z</time>
        <extensions>
          <gpxtpx:TrackPointExtension xmlns:gpxtpx="http://www.garmin.com/xmlschemas/TrackPointExtension/v1">
            <gpxtpx:hr>139</gpxtpx:hr>
          </gpxtpx:TrackPointExtension>
        </extensions>
      </trkpt>
      <trkpt lat="42.92971" lon="1.84773">
        <ele>525</ele>
        <time>2022-07-25T08:05:18.000Z</time>
        <extensions>
          <gpxtpx:TrackPointExtension xmlns:gpxtpx="http://www.garmin.com/xmlschemas/TrackPointExtension/v1">
            <gpxtpx:hr>139</gpxtpx:hr>
          </gpxtpx:TrackPointExtension>
        </extensions>
      </trkpt>
      <trkpt lat="42.92976" lon="1.84776">
        <ele>524.9</ele>
        <time>2022-07-25T08:05:19.000Z</time>
        <extensions>
          <gpxtpx:TrackPointExtension xmlns:gpxtpx="http://www.garmin.com/xmlschemas/TrackPointExtension/v1">
            <gpxtpx:hr>139</gpxtpx:hr>
          </gpxtpx:TrackPointExtension>
        </extensions>
      </trkpt>
      <trkpt lat="42.92981" lon="1.8478">
        <ele>524.8</ele>
        <time>2022-07-25T08:05:20.000Z</time>
        <extensions>
          <gpxtpx:TrackPointExtension xmlns:gpxtpx="http://www.garmin.com/xmlschemas/TrackPointExtension/v1">
            <gpxtpx:hr>139</gpxtpx:hr>
          </gpxtpx:TrackPointExtension>
        </extensions>
      </trkpt>
      <trkpt lat="42.92986" lon="1.84783">
        <ele>524.6</ele>
        <time>2022-07-25T08:05:21.000Z</time>
        <extensions>
          <gpxtpx:TrackPointExtension xmlns:gpxtpx="http://www.garmin.com/xmlschemas/TrackPointExtension/v1">
            <gpxtpx:hr>138</gpxtpx:hr>
          </gpxtpx:TrackPointExtension>
        </extensions>
      </trkpt>
      <trkpt lat="42.92991" lon="1.84787">
        <ele>524.5</ele>
        <time>2022-07-25T08:05:22.000Z</time>
        <extensions>
          <gpxtpx:TrackPointExtension xmlns:gpxtpx="http://www.garmin.com/xmlschemas/TrackPointExtension/v1">
            <gpxtpx:hr>138</gpxtpx:hr>
          </gpxtpx:TrackPointExtension>
        </extensions>
      </trkpt>
      <trkpt lat="42.92996" lon="1.84791">
        <ele>524.4</ele>
        <time>2022-07-25T08:05:23.000Z</time>
        <extensions>
          <gpxtpx:TrackPointExtension xmlns:gpxtpx="http://www.garmin.com/xmlschemas/TrackPointExtension/v1">
            <gpxtpx:hr>137</gpxtpx:hr>
          </gpxtpx:TrackPointExtension>
        </extensions>
      </trkpt>
      <trkpt lat="42.93001" lon="1.84795">
        <ele>524.3</ele>
        <time>2022-07-25T08:05:24.000Z</time>
        <extensions>
          <gpxtpx:TrackPointExtension xmlns:gpxtpx="http://www.garmin.com/xmlschemas/TrackPointExtension/v1">
            <gpxtpx:hr>136</gpxtpx:hr>
          </gpxtpx:TrackPointExtension>
        </extensions>
      </trkpt>
      <trkpt lat="42.93005" lon="1.84798">
        <ele>524.2</ele>
        <time>2022-07-25T08:05:25.000Z</time>
        <extensions>
          <gpxtpx:TrackPointExtension xmlns:gpxtpx="http://www.garmin.com/xmlschemas/TrackPointExtension/v1">
            <gpxtpx:hr>136</gpxtpx:hr>
          </gpxtpx:TrackPointExtension>
        </extensions>
      </trkpt>
      <trkpt lat="42.93009" lon="1.84802">
        <ele>524.1</ele>
        <time>2022-07-25T08:05:26.000Z</time>
        <extensions>
          <gpxtpx:TrackPointExtension xmlns:gpxtpx="http://www.garmin.com/xmlschemas/TrackPointExtension/v1">
            <gpxtpx:hr>136</gpxtpx:hr>
          </gpxtpx:TrackPointExtension>
        </extensions>
      </trkpt>
      <trkpt lat="42.93012" lon="1.84806">
        <ele>524</ele>
        <time>2022-07-25T08:05:27.000Z</time>
        <extensions>
          <gpxtpx:TrackPointExtension xmlns:gpxtpx="http://www.garmin.com/xmlschemas/TrackPointExtension/v1">
            <gpxtpx:hr>135</gpxtpx:hr>
          </gpxtpx:TrackPointExtension>
        </extensions>
      </trkpt>
      <trkpt lat="42.93016" lon="1.8481">
        <ele>523.9</ele>
        <time>2022-07-25T08:05:28.000Z</time>
        <extensions>
          <gpxtpx:TrackPointExtension xmlns:gpxtpx="http://www.garmin.com/xmlschemas/TrackPointExtension/v1">
            <gpxtpx:hr>135</gpxtpx:hr>
          </gpxtpx:TrackPointExtension>
        </extensions>
      </trkpt>
      <trkpt lat="42.9302" lon="1.84814">
        <ele>523.9</ele>
        <time>2022-07-25T08:05:29.000Z</time>
        <extensions>
          <gpxtpx:TrackPointExtension xmlns:gpxtpx="http://www.garmin.com/xmlschemas/TrackPointExtension/v1">
            <gpxtpx:hr>135</gpxtpx:hr>
          </gpxtpx:TrackPointExtension>
        </extensions>
      </trkpt>
      <trkpt lat="42.93024" lon="1.84817">
        <ele>523.8</ele>
        <time>2022-07-25T08:05:30.000Z</time>
        <extensions>
          <gpxtpx:TrackPointExtension xmlns:gpxtpx="http://www.garmin.com/xmlschemas/TrackPointExtension/v1">
            <gpxtpx:hr>135</gpxtpx:hr>
          </gpxtpx:TrackPointExtension>
        </extensions>
      </trkpt>
      <trkpt lat="42.93031" lon="1.84822">
        <ele>523.6</ele>
        <time>2022-07-25T08:05:32.000Z</time>
        <extensions>
          <gpxtpx:TrackPointExtension xmlns:gpxtpx="http://www.garmin.com/xmlschemas/TrackPointExtension/v1">
            <gpxtpx:hr>134</gpxtpx:hr>
          </gpxtpx:TrackPointExtension>
        </extensions>
      </trkpt>
      <trkpt lat="42.93039" lon="1.84825">
        <ele>523.5</ele>
        <time>2022-07-25T08:05:34.000Z</time>
        <extensions>
          <gpxtpx:TrackPointExtension xmlns:gpxtpx="http://www.garmin.com/xmlschemas/TrackPointExtension/v1">
            <gpxtpx:hr>133</gpxtpx:hr>
          </gpxtpx:TrackPointExtension>
        </extensions>
      </trkpt>
      <trkpt lat="42.93046" lon="1.84827">
        <ele>523.3</ele>
        <time>2022-07-25T08:05:36.000Z</time>
        <extensions>
          <gpxtpx:TrackPointExtension xmlns:gpxtpx="http://www.garmin.com/xmlschemas/TrackPointExtension/v1">
            <gpxtpx:hr>133</gpxtpx:hr>
          </gpxtpx:TrackPointExtension>
        </extensions>
      </trkpt>
      <trkpt lat="42.93053" lon="1.84829">
        <ele>523.2</ele>
        <time>2022-07-25T08:05:38.000Z</time>
        <extensions>
          <gpxtpx:TrackPointExtension xmlns:gpxtpx="http://www.garmin.com/xmlschemas/TrackPointExtension/v1">
            <gpxtpx:hr>132</gpxtpx:hr>
          </gpxtpx:TrackPointExtension>
        </extensions>
      </trkpt>
      <trkpt lat="42.93061" lon="1.8483">
        <ele>523.1</ele>
        <time>2022-07-25T08:05:40.000Z</time>
        <extensions>
          <gpxtpx:TrackPointExtension xmlns:gpxtpx="http://www.garmin.com/xmlschemas/TrackPointExtension/v1">
            <gpxtpx:hr>132</gpxtpx:hr>
          </gpxtpx:TrackPointExtension>
        </extensions>
      </trkpt>
      <trkpt lat="42.93068" lon="1.84829">
        <ele>523</ele>
        <time>2022-07-25T08:05:42.000Z</time>
        <extensions>
          <gpxtpx:TrackPointExtension xmlns:gpxtpx="http://www.garmin.com/xmlschemas/TrackPointExtension/v1">
            <gpxtpx:hr>131</gpxtpx:hr>
          </gpxtpx:TrackPointExtension>
        </extensions>
      </trkpt>
      <trkpt lat="42.93077" lon="1.84829">
        <ele>522.8</ele>
        <time>2022-07-25T08:05:44.000Z</time>
        <extensions>
          <gpxtpx:TrackPointExtension xmlns:gpxtpx="http://www.garmin.com/xmlschemas/TrackPointExtension/v1">
            <gpxtpx:hr>130</gpxtpx:hr>
          </gpxtpx:TrackPointExtension>
        </extensions>
      </trkpt>
      <trkpt lat="42.93082" lon="1.84829">
        <ele>522.7</ele>
        <time>2022-07-25T08:05:45.000Z</time>
        <extensions>
          <gpxtpx:TrackPointExtension xmlns:gpxtpx="http://www.garmin.com/xmlschemas/TrackPointExtension/v1">
            <gpxtpx:hr>128</gpxtpx:hr>
          </gpxtpx:TrackPointExtension>
        </extensions>
      </trkpt>
      <trkpt lat="42.93087" lon="1.8483">
        <ele>522.7</ele>
        <time>2022-07-25T08:05:46.000Z</time>
        <extensions>
          <gpxtpx:TrackPointExtension xmlns:gpxtpx="http://www.garmin.com/xmlschemas/TrackPointExtension/v1">
            <gpxtpx:hr>127</gpxtpx:hr>
          </gpxtpx:TrackPointExtension>
        </extensions>
      </trkpt>
      <trkpt lat="42.93095" lon="1.84828">
        <ele>522.5</ele>
        <time>2022-07-25T08:05:48.000Z</time>
        <extensions>
          <gpxtpx:TrackPointExtension xmlns:gpxtpx="http://www.garmin.com/xmlschemas/TrackPointExtension/v1">
            <gpxtpx:hr>126</gpxtpx:hr>
          </gpxtpx:TrackPointExtension>
        </extensions>
      </trkpt>
      <trkpt lat="42.931" lon="1.84828">
        <ele>522.4</ele>
        <time>2022-07-25T08:05:49.000Z</time>
        <extensions>
          <gpxtpx:TrackPointExtension xmlns:gpxtpx="http://www.garmin.com/xmlschemas/TrackPointExtension/v1">
            <gpxtpx:hr>125</gpxtpx:hr>
          </gpxtpx:TrackPointExtension>
        </extensions>
      </trkpt>
      <trkpt lat="42.93108" lon="1.84827">
        <ele>522.2</ele>
        <time>2022-07-25T08:05:51.000Z</time>
        <extensions>
          <gpxtpx:TrackPointExtension xmlns:gpxtpx="http://www.garmin.com/xmlschemas/TrackPointExtension/v1">
            <gpxtpx:hr>123</gpxtpx:hr>
          </gpxtpx:TrackPointExtension>
        </extensions>
      </trkpt>
      <trkpt lat="42.93123" lon="1.84835">
        <ele>522</ele>
        <time>2022-07-25T08:05:53.000Z</time>
        <extensions>
          <gpxtpx:TrackPointExtension xmlns:gpxtpx="http://www.garmin.com/xmlschemas/TrackPointExtension/v1">
            <gpxtpx:hr>122</gpxtpx:hr>
          </gpxtpx:TrackPointExtension>
        </extensions>
      </trkpt>
      <trkpt lat="42.93129" lon="1.84836">
        <ele>521.9</ele>
        <time>2022-07-25T08:05:54.000Z</time>
        <extensions>
          <gpxtpx:TrackPointExtension xmlns:gpxtpx="http://www.garmin.com/xmlschemas/TrackPointExtension/v1">
            <gpxtpx:hr>122</gpxtpx:hr>
          </gpxtpx:TrackPointExtension>
        </extensions>
      </trkpt>
      <trkpt lat="42.93135" lon="1.84835">
        <ele>521.7</ele>
        <time>2022-07-25T08:05:55.000Z</time>
        <extensions>
          <gpxtpx:TrackPointExtension xmlns:gpxtpx="http://www.garmin.com/xmlschemas/TrackPointExtension/v1">
            <gpxtpx:hr>123</gpxtpx:hr>
          </gpxtpx:TrackPointExtension>
        </extensions>
      </trkpt>
      <trkpt lat="42.9314" lon="1.84835">
        <ele>521.6</ele>
        <time>2022-07-25T08:05:56.000Z</time>
        <extensions>
          <gpxtpx:TrackPointExtension xmlns:gpxtpx="http://www.garmin.com/xmlschemas/TrackPointExtension/v1">
            <gpxtpx:hr>123</gpxtpx:hr>
          </gpxtpx:TrackPointExtension>
        </extensions>
      </trkpt>
      <trkpt lat="42.93145" lon="1.84835">
        <ele>521.4</ele>
        <time>2022-07-25T08:05:57.000Z</time>
        <extensions>
          <gpxtpx:TrackPointExtension xmlns:gpxtpx="http://www.garmin.com/xmlschemas/TrackPointExtension/v1">
            <gpxtpx:hr>123</gpxtpx:hr>
          </gpxtpx:TrackPointExtension>
        </extensions>
      </trkpt>
      <trkpt lat="42.93153" lon="1.84841">
        <ele>521.2</ele>
        <time>2022-07-25T08:05:58.000Z</time>
        <extensions>
          <gpxtpx:TrackPointExtension xmlns:gpxtpx="http://www.garmin.com/xmlschemas/TrackPointExtension/v1">
            <gpxtpx:hr>123</gpxtpx:hr>
          </gpxtpx:TrackPointExtension>
        </extensions>
      </trkpt>
      <trkpt lat="42.93162" lon="1.84849">
        <ele>521.1</ele>
        <time>2022-07-25T08:05:59.000Z</time>
        <extensions>
          <gpxtpx:TrackPointExtension xmlns:gpxtpx="http://www.garmin.com/xmlschemas/TrackPointExtension/v1">
            <gpxtpx:hr>124</gpxtpx:hr>
          </gpxtpx:TrackPointExtension>
        </extensions>
      </trkpt>
      <trkpt lat="42.93171" lon="1.84854">
        <ele>520.9</ele>
        <time>2022-07-25T08:06:00.000Z</time>
        <extensions>
          <gpxtpx:TrackPointExtension xmlns:gpxtpx="http://www.garmin.com/xmlschemas/TrackPointExtension/v1">
            <gpxtpx:hr>124</gpxtpx:hr>
          </gpxtpx:TrackPointExtension>
        </extensions>
      </trkpt>
      <trkpt lat="42.93178" lon="1.84857">
        <ele>520.7</ele>
        <time>2022-07-25T08:06:01.000Z</time>
        <extensions>
          <gpxtpx:TrackPointExtension xmlns:gpxtpx="http://www.garmin.com/xmlschemas/TrackPointExtension/v1">
            <gpxtpx:hr>124</gpxtpx:hr>
          </gpxtpx:TrackPointExtension>
        </extensions>
      </trkpt>
      <trkpt lat="42.93184" lon="1.84862">
        <ele>520.5</ele>
        <time>2022-07-25T08:06:02.000Z</time>
        <extensions>
          <gpxtpx:TrackPointExtension xmlns:gpxtpx="http://www.garmin.com/xmlschemas/TrackPointExtension/v1">
            <gpxtpx:hr>124</gpxtpx:hr>
          </gpxtpx:TrackPointExtension>
        </extensions>
      </trkpt>
      <trkpt lat="42.93189" lon="1.84865">
        <ele>520.4</ele>
        <time>2022-07-25T08:06:03.000Z</time>
        <extensions>
          <gpxtpx:TrackPointExtension xmlns:gpxtpx="http://www.garmin.com/xmlschemas/TrackPointExtension/v1">
            <gpxtpx:hr>124</gpxtpx:hr>
          </gpxtpx:TrackPointExtension>
        </extensions>
      </trkpt>
      <trkpt lat="42.93195" lon="1.84868">
        <ele>520.2</ele>
        <time>2022-07-25T08:06:04.000Z</time>
        <extensions>
          <gpxtpx:TrackPointExtension xmlns:gpxtpx="http://www.garmin.com/xmlschemas/TrackPointExtension/v1">
            <gpxtpx:hr>125</gpxtpx:hr>
          </gpxtpx:TrackPointExtension>
        </extensions>
      </trkpt>
      <trkpt lat="42.93201" lon="1.84869">
        <ele>520</ele>
        <time>2022-07-25T08:06:05.000Z</time>
        <extensions>
          <gpxtpx:TrackPointExtension xmlns:gpxtpx="http://www.garmin.com/xmlschemas/TrackPointExtension/v1">
            <gpxtpx:hr>125</gpxtpx:hr>
          </gpxtpx:TrackPointExtension>
        </extensions>
      </trkpt>
      <trkpt lat="42.93211" lon="1.84869">
        <ele>519.9</ele>
        <time>2022-07-25T08:06:06.000Z</time>
        <extensions>
          <gpxtpx:TrackPointExtension xmlns:gpxtpx="http://www.garmin.com/xmlschemas/TrackPointExtension/v1">
            <gpxtpx:hr>125</gpxtpx:hr>
          </gpxtpx:TrackPointExtension>
        </extensions>
      </trkpt>
      <trkpt lat="42.93217" lon="1.84871">
        <ele>519.8</ele>
        <time>2022-07-25T08:06:07.000Z</time>
        <extensions>
          <gpxtpx:TrackPointExtension xmlns:gpxtpx="http://www.garmin.com/xmlschemas/TrackPointExtension/v1">
            <gpxtpx:hr>125</gpxtpx:hr>
          </gpxtpx:TrackPointExtension>
        </extensions>
      </trkpt>
      <trkpt lat="42.93224" lon="1.84872">
        <ele>519.6</ele>
        <time>2022-07-25T08:06:08.000Z</time>
        <extensions>
          <gpxtpx:TrackPointExtension xmlns:gpxtpx="http://www.garmin.com/xmlschemas/TrackPointExtension/v1">
            <gpxtpx:hr>126</gpxtpx:hr>
          </gpxtpx:TrackPointExtension>
        </extensions>
      </trkpt>
      <trkpt lat="42.9323" lon="1.84873">
        <ele>519.5</ele>
        <time>2022-07-25T08:06:09.000Z</time>
        <extensions>
          <gpxtpx:TrackPointExtension xmlns:gpxtpx="http://www.garmin.com/xmlschemas/TrackPointExtension/v1">
            <gpxtpx:hr>126</gpxtpx:hr>
          </gpxtpx:TrackPointExtension>
        </extensions>
      </trkpt>
      <trkpt lat="42.93237" lon="1.84876">
        <ele>519.4</ele>
        <time>2022-07-25T08:06:10.000Z</time>
        <extensions>
          <gpxtpx:TrackPointExtension xmlns:gpxtpx="http://www.garmin.com/xmlschemas/TrackPointExtension/v1">
            <gpxtpx:hr>126</gpxtpx:hr>
          </gpxtpx:TrackPointExtension>
        </extensions>
      </trkpt>
      <trkpt lat="42.93243" lon="1.84879">
        <ele>519.3</ele>
        <time>2022-07-25T08:06:11.000Z</time>
        <extensions>
          <gpxtpx:TrackPointExtension xmlns:gpxtpx="http://www.garmin.com/xmlschemas/TrackPointExtension/v1">
            <gpxtpx:hr>126</gpxtpx:hr>
          </gpxtpx:TrackPointExtension>
        </extensions>
      </trkpt>
      <trkpt lat="42.9325" lon="1.84883">
        <ele>519.2</ele>
        <time>2022-07-25T08:06:12.000Z</time>
        <extensions>
          <gpxtpx:TrackPointExtension xmlns:gpxtpx="http://www.garmin.com/xmlschemas/TrackPointExtension/v1">
            <gpxtpx:hr>126</gpxtpx:hr>
          </gpxtpx:TrackPointExtension>
        </extensions>
      </trkpt>
      <trkpt lat="42.93255" lon="1.84888">
        <ele>519.1</ele>
        <time>2022-07-25T08:06:13.000Z</time>
        <extensions>
          <gpxtpx:TrackPointExtension xmlns:gpxtpx="http://www.garmin.com/xmlschemas/TrackPointExtension/v1">
            <gpxtpx:hr>126</gpxtpx:hr>
          </gpxtpx:TrackPointExtension>
        </extensions>
      </trkpt>
      <trkpt lat="42.93259" lon="1.84893">
        <ele>519</ele>
        <time>2022-07-25T08:06:14.000Z</time>
        <extensions>
          <gpxtpx:TrackPointExtension xmlns:gpxtpx="http://www.garmin.com/xmlschemas/TrackPointExtension/v1">
            <gpxtpx:hr>126</gpxtpx:hr>
          </gpxtpx:TrackPointExtension>
        </extensions>
      </trkpt>
      <trkpt lat="42.93262" lon="1.84897">
        <ele>518.9</ele>
        <time>2022-07-25T08:06:15.000Z</time>
        <extensions>
          <gpxtpx:TrackPointExtension xmlns:gpxtpx="http://www.garmin.com/xmlschemas/TrackPointExtension/v1">
            <gpxtpx:hr>126</gpxtpx:hr>
          </gpxtpx:TrackPointExtension>
        </extensions>
      </trkpt>
      <trkpt lat="42.93264" lon="1.84908">
        <ele>518.8</ele>
        <time>2022-07-25T08:06:17.000Z</time>
        <extensions>
          <gpxtpx:TrackPointExtension xmlns:gpxtpx="http://www.garmin.com/xmlschemas/TrackPointExtension/v1">
            <gpxtpx:hr>126</gpxtpx:hr>
          </gpxtpx:TrackPointExtension>
        </extensions>
      </trkpt>
      <trkpt lat="42.93264" lon="1.84915">
        <ele>518.7</ele>
        <time>2022-07-25T08:06:19.000Z</time>
        <extensions>
          <gpxtpx:TrackPointExtension xmlns:gpxtpx="http://www.garmin.com/xmlschemas/TrackPointExtension/v1">
            <gpxtpx:hr>126</gpxtpx:hr>
          </gpxtpx:TrackPointExtension>
        </extensions>
      </trkpt>
      <trkpt lat="42.93266" lon="1.84923">
        <ele>518.5</ele>
        <time>2022-07-25T08:06:22.000Z</time>
        <extensions>
          <gpxtpx:TrackPointExtension xmlns:gpxtpx="http://www.garmin.com/xmlschemas/TrackPointExtension/v1">
            <gpxtpx:hr>126</gpxtpx:hr>
          </gpxtpx:TrackPointExtension>
        </extensions>
      </trkpt>
      <trkpt lat="42.93272" lon="1.84929">
        <ele>518.4</ele>
        <time>2022-07-25T08:06:24.000Z</time>
        <extensions>
          <gpxtpx:TrackPointExtension xmlns:gpxtpx="http://www.garmin.com/xmlschemas/TrackPointExtension/v1">
            <gpxtpx:hr>127</gpxtpx:hr>
          </gpxtpx:TrackPointExtension>
        </extensions>
      </trkpt>
      <trkpt lat="42.9328" lon="1.84936">
        <ele>518.2</ele>
        <time>2022-07-25T08:06:26.000Z</time>
        <extensions>
          <gpxtpx:TrackPointExtension xmlns:gpxtpx="http://www.garmin.com/xmlschemas/TrackPointExtension/v1">
            <gpxtpx:hr>128</gpxtpx:hr>
          </gpxtpx:TrackPointExtension>
        </extensions>
      </trkpt>
      <trkpt lat="42.93285" lon="1.8494">
        <ele>518</ele>
        <time>2022-07-25T08:06:27.000Z</time>
        <extensions>
          <gpxtpx:TrackPointExtension xmlns:gpxtpx="http://www.garmin.com/xmlschemas/TrackPointExtension/v1">
            <gpxtpx:hr>128</gpxtpx:hr>
          </gpxtpx:TrackPointExtension>
        </extensions>
      </trkpt>
      <trkpt lat="42.93289" lon="1.84943">
        <ele>517.9</ele>
        <time>2022-07-25T08:06:28.000Z</time>
        <extensions>
          <gpxtpx:TrackPointExtension xmlns:gpxtpx="http://www.garmin.com/xmlschemas/TrackPointExtension/v1">
            <gpxtpx:hr>128</gpxtpx:hr>
          </gpxtpx:TrackPointExtension>
        </extensions>
      </trkpt>
      <trkpt lat="42.93294" lon="1.84947">
        <ele>517.8</ele>
        <time>2022-07-25T08:06:29.000Z</time>
        <extensions>
          <gpxtpx:TrackPointExtension xmlns:gpxtpx="http://www.garmin.com/xmlschemas/TrackPointExtension/v1">
            <gpxtpx:hr>128</gpxtpx:hr>
          </gpxtpx:TrackPointExtension>
        </extensions>
      </trkpt>
      <trkpt lat="42.93301" lon="1.84954">
        <ele>517.5</ele>
        <time>2022-07-25T08:06:31.000Z</time>
        <extensions>
          <gpxtpx:TrackPointExtension xmlns:gpxtpx="http://www.garmin.com/xmlschemas/TrackPointExtension/v1">
            <gpxtpx:hr>129</gpxtpx:hr>
          </gpxtpx:TrackPointExtension>
        </extensions>
      </trkpt>
      <trkpt lat="42.93306" lon="1.84958">
        <ele>517.4</ele>
        <time>2022-07-25T08:06:32.000Z</time>
        <extensions>
          <gpxtpx:TrackPointExtension xmlns:gpxtpx="http://www.garmin.com/xmlschemas/TrackPointExtension/v1">
            <gpxtpx:hr>129</gpxtpx:hr>
          </gpxtpx:TrackPointExtension>
        </extensions>
      </trkpt>
      <trkpt lat="42.93308" lon="1.84964">
        <ele>517.3</ele>
        <time>2022-07-25T08:06:33.000Z</time>
        <extensions>
          <gpxtpx:TrackPointExtension xmlns:gpxtpx="http://www.garmin.com/xmlschemas/TrackPointExtension/v1">
            <gpxtpx:hr>129</gpxtpx:hr>
          </gpxtpx:TrackPointExtension>
        </extensions>
      </trkpt>
      <trkpt lat="42.93314" lon="1.84968">
        <ele>517.2</ele>
        <time>2022-07-25T08:06:34.000Z</time>
        <extensions>
          <gpxtpx:TrackPointExtension xmlns:gpxtpx="http://www.garmin.com/xmlschemas/TrackPointExtension/v1">
            <gpxtpx:hr>130</gpxtpx:hr>
          </gpxtpx:TrackPointExtension>
        </extensions>
      </trkpt>
      <trkpt lat="42.93318" lon="1.84972">
        <ele>517</ele>
        <time>2022-07-25T08:06:35.000Z</time>
        <extensions>
          <gpxtpx:TrackPointExtension xmlns:gpxtpx="http://www.garmin.com/xmlschemas/TrackPointExtension/v1">
            <gpxtpx:hr>130</gpxtpx:hr>
          </gpxtpx:TrackPointExtension>
        </extensions>
      </trkpt>
      <trkpt lat="42.93327" lon="1.84976">
        <ele>516.8</ele>
        <time>2022-07-25T08:06:36.000Z</time>
        <extensions>
          <gpxtpx:TrackPointExtension xmlns:gpxtpx="http://www.garmin.com/xmlschemas/TrackPointExtension/v1">
            <gpxtpx:hr>130</gpxtpx:hr>
          </gpxtpx:TrackPointExtension>
        </extensions>
      </trkpt>
      <trkpt lat="42.93334" lon="1.84978">
        <ele>516.6</ele>
        <time>2022-07-25T08:06:37.000Z</time>
        <extensions>
          <gpxtpx:TrackPointExtension xmlns:gpxtpx="http://www.garmin.com/xmlschemas/TrackPointExtension/v1">
            <gpxtpx:hr>131</gpxtpx:hr>
          </gpxtpx:TrackPointExtension>
        </extensions>
      </trkpt>
      <trkpt lat="42.9334" lon="1.84981">
        <ele>516.5</ele>
        <time>2022-07-25T08:06:38.000Z</time>
        <extensions>
          <gpxtpx:TrackPointExtension xmlns:gpxtpx="http://www.garmin.com/xmlschemas/TrackPointExtension/v1">
            <gpxtpx:hr>131</gpxtpx:hr>
          </gpxtpx:TrackPointExtension>
        </extensions>
      </trkpt>
      <trkpt lat="42.93347" lon="1.84986">
        <ele>516.4</ele>
        <time>2022-07-25T08:06:39.000Z</time>
        <extensions>
          <gpxtpx:TrackPointExtension xmlns:gpxtpx="http://www.garmin.com/xmlschemas/TrackPointExtension/v1">
            <gpxtpx:hr>131</gpxtpx:hr>
          </gpxtpx:TrackPointExtension>
        </extensions>
      </trkpt>
      <trkpt lat="42.93353" lon="1.8499">
        <ele>516.2</ele>
        <time>2022-07-25T08:06:40.000Z</time>
        <extensions>
          <gpxtpx:TrackPointExtension xmlns:gpxtpx="http://www.garmin.com/xmlschemas/TrackPointExtension/v1">
            <gpxtpx:hr>132</gpxtpx:hr>
          </gpxtpx:TrackPointExtension>
        </extensions>
      </trkpt>
      <trkpt lat="42.93358" lon="1.84993">
        <ele>516.1</ele>
        <time>2022-07-25T08:06:41.000Z</time>
        <extensions>
          <gpxtpx:TrackPointExtension xmlns:gpxtpx="http://www.garmin.com/xmlschemas/TrackPointExtension/v1">
            <gpxtpx:hr>132</gpxtpx:hr>
          </gpxtpx:TrackPointExtension>
        </extensions>
      </trkpt>
      <trkpt lat="42.93361" lon="1.84997">
        <ele>515.9</ele>
        <time>2022-07-25T08:06:42.000Z</time>
        <extensions>
          <gpxtpx:TrackPointExtension xmlns:gpxtpx="http://www.garmin.com/xmlschemas/TrackPointExtension/v1">
            <gpxtpx:hr>132</gpxtpx:hr>
          </gpxtpx:TrackPointExtension>
        </extensions>
      </trkpt>
      <trkpt lat="42.93363" lon="1.85003">
        <ele>515.8</ele>
        <time>2022-07-25T08:06:43.000Z</time>
        <extensions>
          <gpxtpx:TrackPointExtension xmlns:gpxtpx="http://www.garmin.com/xmlschemas/TrackPointExtension/v1">
            <gpxtpx:hr>132</gpxtpx:hr>
          </gpxtpx:TrackPointExtension>
        </extensions>
      </trkpt>
      <trkpt lat="42.93365" lon="1.85014">
        <ele>515.6</ele>
        <time>2022-07-25T08:06:45.000Z</time>
        <extensions>
          <gpxtpx:TrackPointExtension xmlns:gpxtpx="http://www.garmin.com/xmlschemas/TrackPointExtension/v1">
            <gpxtpx:hr>132</gpxtpx:hr>
          </gpxtpx:TrackPointExtension>
        </extensions>
      </trkpt>
      <trkpt lat="42.93368" lon="1.85019">
        <ele>515.5</ele>
        <time>2022-07-25T08:06:46.000Z</time>
        <extensions>
          <gpxtpx:TrackPointExtension xmlns:gpxtpx="http://www.garmin.com/xmlschemas/TrackPointExtension/v1">
            <gpxtpx:hr>131</gpxtpx:hr>
          </gpxtpx:TrackPointExtension>
        </extensions>
      </trkpt>
      <trkpt lat="42.93375" lon="1.85024">
        <ele>515.3</ele>
        <time>2022-07-25T08:06:48.000Z</time>
        <extensions>
          <gpxtpx:TrackPointExtension xmlns:gpxtpx="http://www.garmin.com/xmlschemas/TrackPointExtension/v1">
            <gpxtpx:hr>130</gpxtpx:hr>
          </gpxtpx:TrackPointExtension>
        </extensions>
      </trkpt>
      <trkpt lat="42.93383" lon="1.85027">
        <ele>515.1</ele>
        <time>2022-07-25T08:06:50.000Z</time>
        <extensions>
          <gpxtpx:TrackPointExtension xmlns:gpxtpx="http://www.garmin.com/xmlschemas/TrackPointExtension/v1">
            <gpxtpx:hr>130</gpxtpx:hr>
          </gpxtpx:TrackPointExtension>
        </extensions>
      </trkpt>
      <trkpt lat="42.93391" lon="1.8503">
        <ele>515</ele>
        <time>2022-07-25T08:06:52.000Z</time>
        <extensions>
          <gpxtpx:TrackPointExtension xmlns:gpxtpx="http://www.garmin.com/xmlschemas/TrackPointExtension/v1">
            <gpxtpx:hr>129</gpxtpx:hr>
          </gpxtpx:TrackPointExtension>
        </extensions>
      </trkpt>
      <trkpt lat="42.93397" lon="1.85032">
        <ele>514.8</ele>
        <time>2022-07-25T08:06:54.000Z</time>
        <extensions>
          <gpxtpx:TrackPointExtension xmlns:gpxtpx="http://www.garmin.com/xmlschemas/TrackPointExtension/v1">
            <gpxtpx:hr>129</gpxtpx:hr>
          </gpxtpx:TrackPointExtension>
        </extensions>
      </trkpt>
      <trkpt lat="42.93404" lon="1.85035">
        <ele>514.7</ele>
        <time>2022-07-25T08:06:56.000Z</time>
        <extensions>
          <gpxtpx:TrackPointExtension xmlns:gpxtpx="http://www.garmin.com/xmlschemas/TrackPointExtension/v1">
            <gpxtpx:hr>128</gpxtpx:hr>
          </gpxtpx:TrackPointExtension>
        </extensions>
      </trkpt>
      <trkpt lat="42.93412" lon="1.8504">
        <ele>514.6</ele>
        <time>2022-07-25T08:06:58.000Z</time>
        <extensions>
          <gpxtpx:TrackPointExtension xmlns:gpxtpx="http://www.garmin.com/xmlschemas/TrackPointExtension/v1">
            <gpxtpx:hr>128</gpxtpx:hr>
          </gpxtpx:TrackPointExtension>
        </extensions>
      </trkpt>
      <trkpt lat="42.93416" lon="1.85043">
        <ele>514.5</ele>
        <time>2022-07-25T08:06:59.000Z</time>
        <extensions>
          <gpxtpx:TrackPointExtension xmlns:gpxtpx="http://www.garmin.com/xmlschemas/TrackPointExtension/v1">
            <gpxtpx:hr>128</gpxtpx:hr>
          </gpxtpx:TrackPointExtension>
        </extensions>
      </trkpt>
      <trkpt lat="42.93423" lon="1.85051">
        <ele>514.4</ele>
        <time>2022-07-25T08:07:01.000Z</time>
        <extensions>
          <gpxtpx:TrackPointExtension xmlns:gpxtpx="http://www.garmin.com/xmlschemas/TrackPointExtension/v1">
            <gpxtpx:hr>128</gpxtpx:hr>
          </gpxtpx:TrackPointExtension>
        </extensions>
      </trkpt>
      <trkpt lat="42.93432" lon="1.85058">
        <ele>514.3</ele>
        <time>2022-07-25T08:07:02.000Z</time>
        <extensions>
          <gpxtpx:TrackPointExtension xmlns:gpxtpx="http://www.garmin.com/xmlschemas/TrackPointExtension/v1">
            <gpxtpx:hr>128</gpxtpx:hr>
          </gpxtpx:TrackPointExtension>
        </extensions>
      </trkpt>
      <trkpt lat="42.93441" lon="1.85066">
        <ele>514.2</ele>
        <time>2022-07-25T08:07:03.000Z</time>
        <extensions>
          <gpxtpx:TrackPointExtension xmlns:gpxtpx="http://www.garmin.com/xmlschemas/TrackPointExtension/v1">
            <gpxtpx:hr>128</gpxtpx:hr>
          </gpxtpx:TrackPointExtension>
        </extensions>
      </trkpt>
      <trkpt lat="42.93448" lon="1.85072">
        <ele>514.1</ele>
        <time>2022-07-25T08:07:04.000Z</time>
        <extensions>
          <gpxtpx:TrackPointExtension xmlns:gpxtpx="http://www.garmin.com/xmlschemas/TrackPointExtension/v1">
            <gpxtpx:hr>128</gpxtpx:hr>
          </gpxtpx:TrackPointExtension>
        </extensions>
      </trkpt>
      <trkpt lat="42.93454" lon="1.85079">
        <ele>514.1</ele>
        <time>2022-07-25T08:07:05.000Z</time>
        <extensions>
          <gpxtpx:TrackPointExtension xmlns:gpxtpx="http://www.garmin.com/xmlschemas/TrackPointExtension/v1">
            <gpxtpx:hr>128</gpxtpx:hr>
          </gpxtpx:TrackPointExtension>
        </extensions>
      </trkpt>
      <trkpt lat="42.93459" lon="1.85087">
        <ele>514</ele>
        <time>2022-07-25T08:07:06.000Z</time>
        <extensions>
          <gpxtpx:TrackPointExtension xmlns:gpxtpx="http://www.garmin.com/xmlschemas/TrackPointExtension/v1">
            <gpxtpx:hr>128</gpxtpx:hr>
          </gpxtpx:TrackPointExtension>
        </extensions>
      </trkpt>
      <trkpt lat="42.93463" lon="1.85094">
        <ele>513.9</ele>
        <time>2022-07-25T08:07:07.000Z</time>
        <extensions>
          <gpxtpx:TrackPointExtension xmlns:gpxtpx="http://www.garmin.com/xmlschemas/TrackPointExtension/v1">
            <gpxtpx:hr>128</gpxtpx:hr>
          </gpxtpx:TrackPointExtension>
        </extensions>
      </trkpt>
      <trkpt lat="42.93468" lon="1.85099">
        <ele>513.8</ele>
        <time>2022-07-25T08:07:08.000Z</time>
        <extensions>
          <gpxtpx:TrackPointExtension xmlns:gpxtpx="http://www.garmin.com/xmlschemas/TrackPointExtension/v1">
            <gpxtpx:hr>128</gpxtpx:hr>
          </gpxtpx:TrackPointExtension>
        </extensions>
      </trkpt>
      <trkpt lat="42.93473" lon="1.85105">
        <ele>513.7</ele>
        <time>2022-07-25T08:07:09.000Z</time>
        <extensions>
          <gpxtpx:TrackPointExtension xmlns:gpxtpx="http://www.garmin.com/xmlschemas/TrackPointExtension/v1">
            <gpxtpx:hr>128</gpxtpx:hr>
          </gpxtpx:TrackPointExtension>
        </extensions>
      </trkpt>
      <trkpt lat="42.93478" lon="1.8511">
        <ele>513.6</ele>
        <time>2022-07-25T08:07:10.000Z</time>
        <extensions>
          <gpxtpx:TrackPointExtension xmlns:gpxtpx="http://www.garmin.com/xmlschemas/TrackPointExtension/v1">
            <gpxtpx:hr>128</gpxtpx:hr>
          </gpxtpx:TrackPointExtension>
        </extensions>
      </trkpt>
      <trkpt lat="42.93482" lon="1.85114">
        <ele>513.5</ele>
        <time>2022-07-25T08:07:11.000Z</time>
        <extensions>
          <gpxtpx:TrackPointExtension xmlns:gpxtpx="http://www.garmin.com/xmlschemas/TrackPointExtension/v1">
            <gpxtpx:hr>128</gpxtpx:hr>
          </gpxtpx:TrackPointExtension>
        </extensions>
      </trkpt>
      <trkpt lat="42.93488" lon="1.85116">
        <ele>513.4</ele>
        <time>2022-07-25T08:07:12.000Z</time>
        <extensions>
          <gpxtpx:TrackPointExtension xmlns:gpxtpx="http://www.garmin.com/xmlschemas/TrackPointExtension/v1">
            <gpxtpx:hr>128</gpxtpx:hr>
          </gpxtpx:TrackPointExtension>
        </extensions>
      </trkpt>
      <trkpt lat="42.93494" lon="1.85117">
        <ele>513.3</ele>
        <time>2022-07-25T08:07:13.000Z</time>
        <extensions>
          <gpxtpx:TrackPointExtension xmlns:gpxtpx="http://www.garmin.com/xmlschemas/TrackPointExtension/v1">
            <gpxtpx:hr>128</gpxtpx:hr>
          </gpxtpx:TrackPointExtension>
        </extensions>
      </trkpt>
      <trkpt lat="42.93501" lon="1.85116">
        <ele>513.2</ele>
        <time>2022-07-25T08:07:14.000Z</time>
        <extensions>
          <gpxtpx:TrackPointExtension xmlns:gpxtpx="http://www.garmin.com/xmlschemas/TrackPointExtension/v1">
            <gpxtpx:hr>128</gpxtpx:hr>
          </gpxtpx:TrackPointExtension>
        </extensions>
      </trkpt>
      <trkpt lat="42.93508" lon="1.85115">
        <ele>513.1</ele>
        <time>2022-07-25T08:07:15.000Z</time>
        <extensions>
          <gpxtpx:TrackPointExtension xmlns:gpxtpx="http://www.garmin.com/xmlschemas/TrackPointExtension/v1">
            <gpxtpx:hr>128</gpxtpx:hr>
          </gpxtpx:TrackPointExtension>
        </extensions>
      </trkpt>
      <trkpt lat="42.93514" lon="1.85114">
        <ele>513</ele>
        <time>2022-07-25T08:07:16.000Z</time>
        <extensions>
          <gpxtpx:TrackPointExtension xmlns:gpxtpx="http://www.garmin.com/xmlschemas/TrackPointExtension/v1">
            <gpxtpx:hr>128</gpxtpx:hr>
          </gpxtpx:TrackPointExtension>
        </extensions>
      </trkpt>
      <trkpt lat="42.93519" lon="1.85112">
        <ele>512.9</ele>
        <time>2022-07-25T08:07:17.000Z</time>
        <extensions>
          <gpxtpx:TrackPointExtension xmlns:gpxtpx="http://www.garmin.com/xmlschemas/TrackPointExtension/v1">
            <gpxtpx:hr>128</gpxtpx:hr>
          </gpxtpx:TrackPointExtension>
        </extensions>
      </trkpt>
      <trkpt lat="42.93523" lon="1.85108">
        <ele>512.8</ele>
        <time>2022-07-25T08:07:18.000Z</time>
        <extensions>
          <gpxtpx:TrackPointExtension xmlns:gpxtpx="http://www.garmin.com/xmlschemas/TrackPointExtension/v1">
            <gpxtpx:hr>127</gpxtpx:hr>
          </gpxtpx:TrackPointExtension>
        </extensions>
      </trkpt>
      <trkpt lat="42.93527" lon="1.85106">
        <ele>512.7</ele>
        <time>2022-07-25T08:07:19.000Z</time>
        <extensions>
          <gpxtpx:TrackPointExtension xmlns:gpxtpx="http://www.garmin.com/xmlschemas/TrackPointExtension/v1">
            <gpxtpx:hr>127</gpxtpx:hr>
          </gpxtpx:TrackPointExtension>
        </extensions>
      </trkpt>
      <trkpt lat="42.93532" lon="1.85102">
        <ele>512.6</ele>
        <time>2022-07-25T08:07:20.000Z</time>
        <extensions>
          <gpxtpx:TrackPointExtension xmlns:gpxtpx="http://www.garmin.com/xmlschemas/TrackPointExtension/v1">
            <gpxtpx:hr>126</gpxtpx:hr>
          </gpxtpx:TrackPointExtension>
        </extensions>
      </trkpt>
      <trkpt lat="42.93537" lon="1.85098">
        <ele>512.5</ele>
        <time>2022-07-25T08:07:21.000Z</time>
        <extensions>
          <gpxtpx:TrackPointExtension xmlns:gpxtpx="http://www.garmin.com/xmlschemas/TrackPointExtension/v1">
            <gpxtpx:hr>125</gpxtpx:hr>
          </gpxtpx:TrackPointExtension>
        </extensions>
      </trkpt>
      <trkpt lat="42.93542" lon="1.85096">
        <ele>512.4</ele>
        <time>2022-07-25T08:07:22.000Z</time>
        <extensions>
          <gpxtpx:TrackPointExtension xmlns:gpxtpx="http://www.garmin.com/xmlschemas/TrackPointExtension/v1">
            <gpxtpx:hr>125</gpxtpx:hr>
          </gpxtpx:TrackPointExtension>
        </extensions>
      </trkpt>
      <trkpt lat="42.93547" lon="1.85095">
        <ele>512.3</ele>
        <time>2022-07-25T08:07:23.000Z</time>
        <extensions>
          <gpxtpx:TrackPointExtension xmlns:gpxtpx="http://www.garmin.com/xmlschemas/TrackPointExtension/v1">
            <gpxtpx:hr>124</gpxtpx:hr>
          </gpxtpx:TrackPointExtension>
        </extensions>
      </trkpt>
      <trkpt lat="42.93553" lon="1.85098">
        <ele>512.1</ele>
        <time>2022-07-25T08:07:24.000Z</time>
        <extensions>
          <gpxtpx:TrackPointExtension xmlns:gpxtpx="http://www.garmin.com/xmlschemas/TrackPointExtension/v1">
            <gpxtpx:hr>124</gpxtpx:hr>
          </gpxtpx:TrackPointExtension>
        </extensions>
      </trkpt>
      <trkpt lat="42.93558" lon="1.85102">
        <ele>512</ele>
        <time>2022-07-25T08:07:25.000Z</time>
        <extensions>
          <gpxtpx:TrackPointExtension xmlns:gpxtpx="http://www.garmin.com/xmlschemas/TrackPointExtension/v1">
            <gpxtpx:hr>123</gpxtpx:hr>
          </gpxtpx:TrackPointExtension>
        </extensions>
      </trkpt>
      <trkpt lat="42.93563" lon="1.85107">
        <ele>511.9</ele>
        <time>2022-07-25T08:07:26.000Z</time>
        <extensions>
          <gpxtpx:TrackPointExtension xmlns:gpxtpx="http://www.garmin.com/xmlschemas/TrackPointExtension/v1">
            <gpxtpx:hr>123</gpxtpx:hr>
          </gpxtpx:TrackPointExtension>
        </extensions>
      </trkpt>
      <trkpt lat="42.93568" lon="1.85113">
        <ele>511.8</ele>
        <time>2022-07-25T08:07:27.000Z</time>
        <extensions>
          <gpxtpx:TrackPointExtension xmlns:gpxtpx="http://www.garmin.com/xmlschemas/TrackPointExtension/v1">
            <gpxtpx:hr>123</gpxtpx:hr>
          </gpxtpx:TrackPointExtension>
        </extensions>
      </trkpt>
      <trkpt lat="42.93573" lon="1.85119">
        <ele>511.8</ele>
        <time>2022-07-25T08:07:28.000Z</time>
        <extensions>
          <gpxtpx:TrackPointExtension xmlns:gpxtpx="http://www.garmin.com/xmlschemas/TrackPointExtension/v1">
            <gpxtpx:hr>123</gpxtpx:hr>
          </gpxtpx:TrackPointExtension>
        </extensions>
      </trkpt>
      <trkpt lat="42.93577" lon="1.85125">
        <ele>511.6</ele>
        <time>2022-07-25T08:07:29.000Z</time>
        <extensions>
          <gpxtpx:TrackPointExtension xmlns:gpxtpx="http://www.garmin.com/xmlschemas/TrackPointExtension/v1">
            <gpxtpx:hr>123</gpxtpx:hr>
          </gpxtpx:TrackPointExtension>
        </extensions>
      </trkpt>
      <trkpt lat="42.93584" lon="1.85129">
        <ele>511.5</ele>
        <time>2022-07-25T08:07:30.000Z</time>
        <extensions>
          <gpxtpx:TrackPointExtension xmlns:gpxtpx="http://www.garmin.com/xmlschemas/TrackPointExtension/v1">
            <gpxtpx:hr>123</gpxtpx:hr>
          </gpxtpx:TrackPointExtension>
        </extensions>
      </trkpt>
      <trkpt lat="42.93589" lon="1.85135">
        <ele>511.4</ele>
        <time>2022-07-25T08:07:31.000Z</time>
        <extensions>
          <gpxtpx:TrackPointExtension xmlns:gpxtpx="http://www.garmin.com/xmlschemas/TrackPointExtension/v1">
            <gpxtpx:hr>124</gpxtpx:hr>
          </gpxtpx:TrackPointExtension>
        </extensions>
      </trkpt>
      <trkpt lat="42.93595" lon="1.85141">
        <ele>511.3</ele>
        <time>2022-07-25T08:07:32.000Z</time>
        <extensions>
          <gpxtpx:TrackPointExtension xmlns:gpxtpx="http://www.garmin.com/xmlschemas/TrackPointExtension/v1">
            <gpxtpx:hr>124</gpxtpx:hr>
          </gpxtpx:TrackPointExtension>
        </extensions>
      </trkpt>
      <trkpt lat="42.93603" lon="1.8515">
        <ele>511.2</ele>
        <time>2022-07-25T08:07:33.000Z</time>
        <extensions>
          <gpxtpx:TrackPointExtension xmlns:gpxtpx="http://www.garmin.com/xmlschemas/TrackPointExtension/v1">
            <gpxtpx:hr>124</gpxtpx:hr>
          </gpxtpx:TrackPointExtension>
        </extensions>
      </trkpt>
      <trkpt lat="42.9361" lon="1.85152">
        <ele>511.1</ele>
        <time>2022-07-25T08:07:34.000Z</time>
        <extensions>
          <gpxtpx:TrackPointExtension xmlns:gpxtpx="http://www.garmin.com/xmlschemas/TrackPointExtension/v1">
            <gpxtpx:hr>124</gpxtpx:hr>
          </gpxtpx:TrackPointExtension>
        </extensions>
      </trkpt>
      <trkpt lat="42.93615" lon="1.85158">
        <ele>511</ele>
        <time>2022-07-25T08:07:35.000Z</time>
        <extensions>
          <gpxtpx:TrackPointExtension xmlns:gpxtpx="http://www.garmin.com/xmlschemas/TrackPointExtension/v1">
            <gpxtpx:hr>125</gpxtpx:hr>
          </gpxtpx:TrackPointExtension>
        </extensions>
      </trkpt>
      <trkpt lat="42.93619" lon="1.85166">
        <ele>510.9</ele>
        <time>2022-07-25T08:07:36.000Z</time>
        <extensions>
          <gpxtpx:TrackPointExtension xmlns:gpxtpx="http://www.garmin.com/xmlschemas/TrackPointExtension/v1">
            <gpxtpx:hr>125</gpxtpx:hr>
          </gpxtpx:TrackPointExtension>
        </extensions>
      </trkpt>
      <trkpt lat="42.93622" lon="1.85175">
        <ele>510.8</ele>
        <time>2022-07-25T08:07:37.000Z</time>
        <extensions>
          <gpxtpx:TrackPointExtension xmlns:gpxtpx="http://www.garmin.com/xmlschemas/TrackPointExtension/v1">
            <gpxtpx:hr>126</gpxtpx:hr>
          </gpxtpx:TrackPointExtension>
        </extensions>
      </trkpt>
      <trkpt lat="42.93626" lon="1.85183">
        <ele>510.7</ele>
        <time>2022-07-25T08:07:38.000Z</time>
        <extensions>
          <gpxtpx:TrackPointExtension xmlns:gpxtpx="http://www.garmin.com/xmlschemas/TrackPointExtension/v1">
            <gpxtpx:hr>126</gpxtpx:hr>
          </gpxtpx:TrackPointExtension>
        </extensions>
      </trkpt>
      <trkpt lat="42.93629" lon="1.85191">
        <ele>510.6</ele>
        <time>2022-07-25T08:07:39.000Z</time>
        <extensions>
          <gpxtpx:TrackPointExtension xmlns:gpxtpx="http://www.garmin.com/xmlschemas/TrackPointExtension/v1">
            <gpxtpx:hr>126</gpxtpx:hr>
          </gpxtpx:TrackPointExtension>
        </extensions>
      </trkpt>
      <trkpt lat="42.93634" lon="1.85198">
        <ele>510.5</ele>
        <time>2022-07-25T08:07:40.000Z</time>
        <extensions>
          <gpxtpx:TrackPointExtension xmlns:gpxtpx="http://www.garmin.com/xmlschemas/TrackPointExtension/v1">
            <gpxtpx:hr>127</gpxtpx:hr>
          </gpxtpx:TrackPointExtension>
        </extensions>
      </trkpt>
      <trkpt lat="42.93638" lon="1.85205">
        <ele>510.3</ele>
        <time>2022-07-25T08:07:41.000Z</time>
        <extensions>
          <gpxtpx:TrackPointExtension xmlns:gpxtpx="http://www.garmin.com/xmlschemas/TrackPointExtension/v1">
            <gpxtpx:hr>128</gpxtpx:hr>
          </gpxtpx:TrackPointExtension>
        </extensions>
      </trkpt>
      <trkpt lat="42.93644" lon="1.85211">
        <ele>510.2</ele>
        <time>2022-07-25T08:07:42.000Z</time>
        <extensions>
          <gpxtpx:TrackPointExtension xmlns:gpxtpx="http://www.garmin.com/xmlschemas/TrackPointExtension/v1">
            <gpxtpx:hr>128</gpxtpx:hr>
          </gpxtpx:TrackPointExtension>
        </extensions>
      </trkpt>
      <trkpt lat="42.93649" lon="1.85216">
        <ele>510.1</ele>
        <time>2022-07-25T08:07:43.000Z</time>
        <extensions>
          <gpxtpx:TrackPointExtension xmlns:gpxtpx="http://www.garmin.com/xmlschemas/TrackPointExtension/v1">
            <gpxtpx:hr>129</gpxtpx:hr>
          </gpxtpx:TrackPointExtension>
        </extensions>
      </trkpt>
      <trkpt lat="42.93655" lon="1.85222">
        <ele>509.9</ele>
        <time>2022-07-25T08:07:44.000Z</time>
        <extensions>
          <gpxtpx:TrackPointExtension xmlns:gpxtpx="http://www.garmin.com/xmlschemas/TrackPointExtension/v1">
            <gpxtpx:hr>129</gpxtpx:hr>
          </gpxtpx:TrackPointExtension>
        </extensions>
      </trkpt>
      <trkpt lat="42.9366" lon="1.85228">
        <ele>509.8</ele>
        <time>2022-07-25T08:07:45.000Z</time>
        <extensions>
          <gpxtpx:TrackPointExtension xmlns:gpxtpx="http://www.garmin.com/xmlschemas/TrackPointExtension/v1">
            <gpxtpx:hr>130</gpxtpx:hr>
          </gpxtpx:TrackPointExtension>
        </extensions>
      </trkpt>
      <trkpt lat="42.93665" lon="1.85234">
        <ele>509.7</ele>
        <time>2022-07-25T08:07:46.000Z</time>
        <extensions>
          <gpxtpx:TrackPointExtension xmlns:gpxtpx="http://www.garmin.com/xmlschemas/TrackPointExtension/v1">
            <gpxtpx:hr>130</gpxtpx:hr>
          </gpxtpx:TrackPointExtension>
        </extensions>
      </trkpt>
      <trkpt lat="42.93671" lon="1.8524">
        <ele>509.6</ele>
        <time>2022-07-25T08:07:47.000Z</time>
        <extensions>
          <gpxtpx:TrackPointExtension xmlns:gpxtpx="http://www.garmin.com/xmlschemas/TrackPointExtension/v1">
            <gpxtpx:hr>130</gpxtpx:hr>
          </gpxtpx:TrackPointExtension>
        </extensions>
      </trkpt>
      <trkpt lat="42.93676" lon="1.85245">
        <ele>509.5</ele>
        <time>2022-07-25T08:07:48.000Z</time>
        <extensions>
          <gpxtpx:TrackPointExtension xmlns:gpxtpx="http://www.garmin.com/xmlschemas/TrackPointExtension/v1">
            <gpxtpx:hr>131</gpxtpx:hr>
          </gpxtpx:TrackPointExtension>
        </extensions>
      </trkpt>
      <trkpt lat="42.93681" lon="1.8525">
        <ele>509.4</ele>
        <time>2022-07-25T08:07:49.000Z</time>
        <extensions>
          <gpxtpx:TrackPointExtension xmlns:gpxtpx="http://www.garmin.com/xmlschemas/TrackPointExtension/v1">
            <gpxtpx:hr>132</gpxtpx:hr>
          </gpxtpx:TrackPointExtension>
        </extensions>
      </trkpt>
      <trkpt lat="42.93687" lon="1.85255">
        <ele>509.4</ele>
        <time>2022-07-25T08:07:50.000Z</time>
        <extensions>
          <gpxtpx:TrackPointExtension xmlns:gpxtpx="http://www.garmin.com/xmlschemas/TrackPointExtension/v1">
            <gpxtpx:hr>132</gpxtpx:hr>
          </gpxtpx:TrackPointExtension>
        </extensions>
      </trkpt>
      <trkpt lat="42.93693" lon="1.85259">
        <ele>509.3</ele>
        <time>2022-07-25T08:07:51.000Z</time>
        <extensions>
          <gpxtpx:TrackPointExtension xmlns:gpxtpx="http://www.garmin.com/xmlschemas/TrackPointExtension/v1">
            <gpxtpx:hr>133</gpxtpx:hr>
          </gpxtpx:TrackPointExtension>
        </extensions>
      </trkpt>
      <trkpt lat="42.93699" lon="1.85264">
        <ele>509.3</ele>
        <time>2022-07-25T08:07:52.000Z</time>
        <extensions>
          <gpxtpx:TrackPointExtension xmlns:gpxtpx="http://www.garmin.com/xmlschemas/TrackPointExtension/v1">
            <gpxtpx:hr>134</gpxtpx:hr>
          </gpxtpx:TrackPointExtension>
        </extensions>
      </trkpt>
      <trkpt lat="42.93705" lon="1.85268">
        <ele>509.2</ele>
        <time>2022-07-25T08:07:53.000Z</time>
        <extensions>
          <gpxtpx:TrackPointExtension xmlns:gpxtpx="http://www.garmin.com/xmlschemas/TrackPointExtension/v1">
            <gpxtpx:hr>134</gpxtpx:hr>
          </gpxtpx:TrackPointExtension>
        </extensions>
      </trkpt>
      <trkpt lat="42.9371" lon="1.85271">
        <ele>509.2</ele>
        <time>2022-07-25T08:07:54.000Z</time>
        <extensions>
          <gpxtpx:TrackPointExtension xmlns:gpxtpx="http://www.garmin.com/xmlschemas/TrackPointExtension/v1">
            <gpxtpx:hr>134</gpxtpx:hr>
          </gpxtpx:TrackPointExtension>
        </extensions>
      </trkpt>
      <trkpt lat="42.93716" lon="1.85273">
        <ele>509.1</ele>
        <time>2022-07-25T08:07:55.000Z</time>
        <extensions>
          <gpxtpx:TrackPointExtension xmlns:gpxtpx="http://www.garmin.com/xmlschemas/TrackPointExtension/v1">
            <gpxtpx:hr>135</gpxtpx:hr>
          </gpxtpx:TrackPointExtension>
        </extensions>
      </trkpt>
      <trkpt lat="42.93723" lon="1.85276">
        <ele>509.1</ele>
        <time>2022-07-25T08:07:56.000Z</time>
        <extensions>
          <gpxtpx:TrackPointExtension xmlns:gpxtpx="http://www.garmin.com/xmlschemas/TrackPointExtension/v1">
            <gpxtpx:hr>135</gpxtpx:hr>
          </gpxtpx:TrackPointExtension>
        </extensions>
      </trkpt>
      <trkpt lat="42.93729" lon="1.85279">
        <ele>509</ele>
        <time>2022-07-25T08:07:57.000Z</time>
        <extensions>
          <gpxtpx:TrackPointExtension xmlns:gpxtpx="http://www.garmin.com/xmlschemas/TrackPointExtension/v1">
            <gpxtpx:hr>136</gpxtpx:hr>
          </gpxtpx:TrackPointExtension>
        </extensions>
      </trkpt>
      <trkpt lat="42.93735" lon="1.85282">
        <ele>509</ele>
        <time>2022-07-25T08:07:58.000Z</time>
        <extensions>
          <gpxtpx:TrackPointExtension xmlns:gpxtpx="http://www.garmin.com/xmlschemas/TrackPointExtension/v1">
            <gpxtpx:hr>136</gpxtpx:hr>
          </gpxtpx:TrackPointExtension>
        </extensions>
      </trkpt>
      <trkpt lat="42.93742" lon="1.85285">
        <ele>508.9</ele>
        <time>2022-07-25T08:07:59.000Z</time>
        <extensions>
          <gpxtpx:TrackPointExtension xmlns:gpxtpx="http://www.garmin.com/xmlschemas/TrackPointExtension/v1">
            <gpxtpx:hr>137</gpxtpx:hr>
          </gpxtpx:TrackPointExtension>
        </extensions>
      </trkpt>
      <trkpt lat="42.9375" lon="1.85289">
        <ele>508.9</ele>
        <time>2022-07-25T08:08:00.000Z</time>
        <extensions>
          <gpxtpx:TrackPointExtension xmlns:gpxtpx="http://www.garmin.com/xmlschemas/TrackPointExtension/v1">
            <gpxtpx:hr>137</gpxtpx:hr>
          </gpxtpx:TrackPointExtension>
        </extensions>
      </trkpt>
      <trkpt lat="42.93759" lon="1.85293">
        <ele>508.9</ele>
        <time>2022-07-25T08:08:01.000Z</time>
        <extensions>
          <gpxtpx:TrackPointExtension xmlns:gpxtpx="http://www.garmin.com/xmlschemas/TrackPointExtension/v1">
            <gpxtpx:hr>138</gpxtpx:hr>
          </gpxtpx:TrackPointExtension>
        </extensions>
      </trkpt>
      <trkpt lat="42.93766" lon="1.85297">
        <ele>508.8</ele>
        <time>2022-07-25T08:08:02.000Z</time>
        <extensions>
          <gpxtpx:TrackPointExtension xmlns:gpxtpx="http://www.garmin.com/xmlschemas/TrackPointExtension/v1">
            <gpxtpx:hr>138</gpxtpx:hr>
          </gpxtpx:TrackPointExtension>
        </extensions>
      </trkpt>
      <trkpt lat="42.93773" lon="1.85302">
        <ele>508.8</ele>
        <time>2022-07-25T08:08:03.000Z</time>
        <extensions>
          <gpxtpx:TrackPointExtension xmlns:gpxtpx="http://www.garmin.com/xmlschemas/TrackPointExtension/v1">
            <gpxtpx:hr>138</gpxtpx:hr>
          </gpxtpx:TrackPointExtension>
        </extensions>
      </trkpt>
      <trkpt lat="42.93781" lon="1.85306">
        <ele>508.7</ele>
        <time>2022-07-25T08:08:04.000Z</time>
        <extensions>
          <gpxtpx:TrackPointExtension xmlns:gpxtpx="http://www.garmin.com/xmlschemas/TrackPointExtension/v1">
            <gpxtpx:hr>138</gpxtpx:hr>
          </gpxtpx:TrackPointExtension>
        </extensions>
      </trkpt>
      <trkpt lat="42.93787" lon="1.85311">
        <ele>508.6</ele>
        <time>2022-07-25T08:08:05.000Z</time>
        <extensions>
          <gpxtpx:TrackPointExtension xmlns:gpxtpx="http://www.garmin.com/xmlschemas/TrackPointExtension/v1">
            <gpxtpx:hr>139</gpxtpx:hr>
          </gpxtpx:TrackPointExtension>
        </extensions>
      </trkpt>
      <trkpt lat="42.93793" lon="1.85316">
        <ele>508.5</ele>
        <time>2022-07-25T08:08:06.000Z</time>
        <extensions>
          <gpxtpx:TrackPointExtension xmlns:gpxtpx="http://www.garmin.com/xmlschemas/TrackPointExtension/v1">
            <gpxtpx:hr>139</gpxtpx:hr>
          </gpxtpx:TrackPointExtension>
        </extensions>
      </trkpt>
      <trkpt lat="42.93799" lon="1.85321">
        <ele>508.4</ele>
        <time>2022-07-25T08:08:07.000Z</time>
        <extensions>
          <gpxtpx:TrackPointExtension xmlns:gpxtpx="http://www.garmin.com/xmlschemas/TrackPointExtension/v1">
            <gpxtpx:hr>139</gpxtpx:hr>
          </gpxtpx:TrackPointExtension>
        </extensions>
      </trkpt>
      <trkpt lat="42.93806" lon="1.85325">
        <ele>508.4</ele>
        <time>2022-07-25T08:08:08.000Z</time>
        <extensions>
          <gpxtpx:TrackPointExtension xmlns:gpxtpx="http://www.garmin.com/xmlschemas/TrackPointExtension/v1">
            <gpxtpx:hr>139</gpxtpx:hr>
          </gpxtpx:TrackPointExtension>
        </extensions>
      </trkpt>
      <trkpt lat="42.93813" lon="1.85329">
        <ele>508.3</ele>
        <time>2022-07-25T08:08:09.000Z</time>
        <extensions>
          <gpxtpx:TrackPointExtension xmlns:gpxtpx="http://www.garmin.com/xmlschemas/TrackPointExtension/v1">
            <gpxtpx:hr>140</gpxtpx:hr>
          </gpxtpx:TrackPointExtension>
        </extensions>
      </trkpt>
      <trkpt lat="42.9382" lon="1.85333">
        <ele>508.2</ele>
        <time>2022-07-25T08:08:10.000Z</time>
        <extensions>
          <gpxtpx:TrackPointExtension xmlns:gpxtpx="http://www.garmin.com/xmlschemas/TrackPointExtension/v1">
            <gpxtpx:hr>140</gpxtpx:hr>
          </gpxtpx:TrackPointExtension>
        </extensions>
      </trkpt>
      <trkpt lat="42.93827" lon="1.85337">
        <ele>508.1</ele>
        <time>2022-07-25T08:08:11.000Z</time>
        <extensions>
          <gpxtpx:TrackPointExtension xmlns:gpxtpx="http://www.garmin.com/xmlschemas/TrackPointExtension/v1">
            <gpxtpx:hr>140</gpxtpx:hr>
          </gpxtpx:TrackPointExtension>
        </extensions>
      </trkpt>
      <trkpt lat="42.93834" lon="1.85341">
        <ele>507.9</ele>
        <time>2022-07-25T08:08:12.000Z</time>
        <extensions>
          <gpxtpx:TrackPointExtension xmlns:gpxtpx="http://www.garmin.com/xmlschemas/TrackPointExtension/v1">
            <gpxtpx:hr>140</gpxtpx:hr>
          </gpxtpx:TrackPointExtension>
        </extensions>
      </trkpt>
      <trkpt lat="42.93841" lon="1.85345">
        <ele>507.8</ele>
        <time>2022-07-25T08:08:13.000Z</time>
        <extensions>
          <gpxtpx:TrackPointExtension xmlns:gpxtpx="http://www.garmin.com/xmlschemas/TrackPointExtension/v1">
            <gpxtpx:hr>140</gpxtpx:hr>
          </gpxtpx:TrackPointExtension>
        </extensions>
      </trkpt>
      <trkpt lat="42.93848" lon="1.85349">
        <ele>507.7</ele>
        <time>2022-07-25T08:08:14.000Z</time>
        <extensions>
          <gpxtpx:TrackPointExtension xmlns:gpxtpx="http://www.garmin.com/xmlschemas/TrackPointExtension/v1">
            <gpxtpx:hr>140</gpxtpx:hr>
          </gpxtpx:TrackPointExtension>
        </extensions>
      </trkpt>
      <trkpt lat="42.93855" lon="1.85353">
        <ele>507.6</ele>
        <time>2022-07-25T08:08:15.000Z</time>
        <extensions>
          <gpxtpx:TrackPointExtension xmlns:gpxtpx="http://www.garmin.com/xmlschemas/TrackPointExtension/v1">
            <gpxtpx:hr>140</gpxtpx:hr>
          </gpxtpx:TrackPointExtension>
        </extensions>
      </trkpt>
      <trkpt lat="42.93863" lon="1.85358">
        <ele>507.3</ele>
        <time>2022-07-25T08:08:16.000Z</time>
        <extensions>
          <gpxtpx:TrackPointExtension xmlns:gpxtpx="http://www.garmin.com/xmlschemas/TrackPointExtension/v1">
            <gpxtpx:hr>140</gpxtpx:hr>
          </gpxtpx:TrackPointExtension>
        </extensions>
      </trkpt>
      <trkpt lat="42.9387" lon="1.85362">
        <ele>507.1</ele>
        <time>2022-07-25T08:08:17.000Z</time>
        <extensions>
          <gpxtpx:TrackPointExtension xmlns:gpxtpx="http://www.garmin.com/xmlschemas/TrackPointExtension/v1">
            <gpxtpx:hr>139</gpxtpx:hr>
          </gpxtpx:TrackPointExtension>
        </extensions>
      </trkpt>
      <trkpt lat="42.93878" lon="1.85366">
        <ele>506.9</ele>
        <time>2022-07-25T08:08:18.000Z</time>
        <extensions>
          <gpxtpx:TrackPointExtension xmlns:gpxtpx="http://www.garmin.com/xmlschemas/TrackPointExtension/v1">
            <gpxtpx:hr>139</gpxtpx:hr>
          </gpxtpx:TrackPointExtension>
        </extensions>
      </trkpt>
      <trkpt lat="42.93884" lon="1.8537">
        <ele>506.8</ele>
        <time>2022-07-25T08:08:19.000Z</time>
        <extensions>
          <gpxtpx:TrackPointExtension xmlns:gpxtpx="http://www.garmin.com/xmlschemas/TrackPointExtension/v1">
            <gpxtpx:hr>138</gpxtpx:hr>
          </gpxtpx:TrackPointExtension>
        </extensions>
      </trkpt>
      <trkpt lat="42.93891" lon="1.85375">
        <ele>506.6</ele>
        <time>2022-07-25T08:08:20.000Z</time>
        <extensions>
          <gpxtpx:TrackPointExtension xmlns:gpxtpx="http://www.garmin.com/xmlschemas/TrackPointExtension/v1">
            <gpxtpx:hr>138</gpxtpx:hr>
          </gpxtpx:TrackPointExtension>
        </extensions>
      </trkpt>
      <trkpt lat="42.93898" lon="1.85379">
        <ele>506.4</ele>
        <time>2022-07-25T08:08:21.000Z</time>
        <extensions>
          <gpxtpx:TrackPointExtension xmlns:gpxtpx="http://www.garmin.com/xmlschemas/TrackPointExtension/v1">
            <gpxtpx:hr>138</gpxtpx:hr>
          </gpxtpx:TrackPointExtension>
        </extensions>
      </trkpt>
      <trkpt lat="42.93904" lon="1.85383">
        <ele>506.3</ele>
        <time>2022-07-25T08:08:22.000Z</time>
        <extensions>
          <gpxtpx:TrackPointExtension xmlns:gpxtpx="http://www.garmin.com/xmlschemas/TrackPointExtension/v1">
            <gpxtpx:hr>137</gpxtpx:hr>
          </gpxtpx:TrackPointExtension>
        </extensions>
      </trkpt>
      <trkpt lat="42.93911" lon="1.85388">
        <ele>506.2</ele>
        <time>2022-07-25T08:08:23.000Z</time>
        <extensions>
          <gpxtpx:TrackPointExtension xmlns:gpxtpx="http://www.garmin.com/xmlschemas/TrackPointExtension/v1">
            <gpxtpx:hr>137</gpxtpx:hr>
          </gpxtpx:TrackPointExtension>
        </extensions>
      </trkpt>
      <trkpt lat="42.93918" lon="1.85393">
        <ele>506</ele>
        <time>2022-07-25T08:08:24.000Z</time>
        <extensions>
          <gpxtpx:TrackPointExtension xmlns:gpxtpx="http://www.garmin.com/xmlschemas/TrackPointExtension/v1">
            <gpxtpx:hr>136</gpxtpx:hr>
          </gpxtpx:TrackPointExtension>
        </extensions>
      </trkpt>
      <trkpt lat="42.93925" lon="1.85398">
        <ele>505.9</ele>
        <time>2022-07-25T08:08:25.000Z</time>
        <extensions>
          <gpxtpx:TrackPointExtension xmlns:gpxtpx="http://www.garmin.com/xmlschemas/TrackPointExtension/v1">
            <gpxtpx:hr>136</gpxtpx:hr>
          </gpxtpx:TrackPointExtension>
        </extensions>
      </trkpt>
      <trkpt lat="42.93932" lon="1.85403">
        <ele>505.8</ele>
        <time>2022-07-25T08:08:26.000Z</time>
        <extensions>
          <gpxtpx:TrackPointExtension xmlns:gpxtpx="http://www.garmin.com/xmlschemas/TrackPointExtension/v1">
            <gpxtpx:hr>136</gpxtpx:hr>
          </gpxtpx:TrackPointExtension>
        </extensions>
      </trkpt>
      <trkpt lat="42.93939" lon="1.85407">
        <ele>505.6</ele>
        <time>2022-07-25T08:08:27.000Z</time>
        <extensions>
          <gpxtpx:TrackPointExtension xmlns:gpxtpx="http://www.garmin.com/xmlschemas/TrackPointExtension/v1">
            <gpxtpx:hr>136</gpxtpx:hr>
          </gpxtpx:TrackPointExtension>
        </extensions>
      </trkpt>
      <trkpt lat="42.93948" lon="1.85412">
        <ele>505.5</ele>
        <time>2022-07-25T08:08:28.000Z</time>
        <extensions>
          <gpxtpx:TrackPointExtension xmlns:gpxtpx="http://www.garmin.com/xmlschemas/TrackPointExtension/v1">
            <gpxtpx:hr>136</gpxtpx:hr>
          </gpxtpx:TrackPointExtension>
        </extensions>
      </trkpt>
      <trkpt lat="42.93956" lon="1.85414">
        <ele>505.4</ele>
        <time>2022-07-25T08:08:29.000Z</time>
        <extensions>
          <gpxtpx:TrackPointExtension xmlns:gpxtpx="http://www.garmin.com/xmlschemas/TrackPointExtension/v1">
            <gpxtpx:hr>136</gpxtpx:hr>
          </gpxtpx:TrackPointExtension>
        </extensions>
      </trkpt>
      <trkpt lat="42.93965" lon="1.85415">
        <ele>505.2</ele>
        <time>2022-07-25T08:08:30.000Z</time>
        <extensions>
          <gpxtpx:TrackPointExtension xmlns:gpxtpx="http://www.garmin.com/xmlschemas/TrackPointExtension/v1">
            <gpxtpx:hr>136</gpxtpx:hr>
          </gpxtpx:TrackPointExtension>
        </extensions>
      </trkpt>
      <trkpt lat="42.93972" lon="1.85417">
        <ele>505.1</ele>
        <time>2022-07-25T08:08:31.000Z</time>
        <extensions>
          <gpxtpx:TrackPointExtension xmlns:gpxtpx="http://www.garmin.com/xmlschemas/TrackPointExtension/v1">
            <gpxtpx:hr>136</gpxtpx:hr>
          </gpxtpx:TrackPointExtension>
        </extensions>
      </trkpt>
      <trkpt lat="42.93979" lon="1.85421">
        <ele>505</ele>
        <time>2022-07-25T08:08:32.000Z</time>
        <extensions>
          <gpxtpx:TrackPointExtension xmlns:gpxtpx="http://www.garmin.com/xmlschemas/TrackPointExtension/v1">
            <gpxtpx:hr>136</gpxtpx:hr>
          </gpxtpx:TrackPointExtension>
        </extensions>
      </trkpt>
      <trkpt lat="42.93985" lon="1.85427">
        <ele>504.8</ele>
        <time>2022-07-25T08:08:33.000Z</time>
        <extensions>
          <gpxtpx:TrackPointExtension xmlns:gpxtpx="http://www.garmin.com/xmlschemas/TrackPointExtension/v1">
            <gpxtpx:hr>135</gpxtpx:hr>
          </gpxtpx:TrackPointExtension>
        </extensions>
      </trkpt>
      <trkpt lat="42.93991" lon="1.85433">
        <ele>504.7</ele>
        <time>2022-07-25T08:08:34.000Z</time>
        <extensions>
          <gpxtpx:TrackPointExtension xmlns:gpxtpx="http://www.garmin.com/xmlschemas/TrackPointExtension/v1">
            <gpxtpx:hr>135</gpxtpx:hr>
          </gpxtpx:TrackPointExtension>
        </extensions>
      </trkpt>
      <trkpt lat="42.93998" lon="1.8544">
        <ele>504.6</ele>
        <time>2022-07-25T08:08:35.000Z</time>
        <extensions>
          <gpxtpx:TrackPointExtension xmlns:gpxtpx="http://www.garmin.com/xmlschemas/TrackPointExtension/v1">
            <gpxtpx:hr>135</gpxtpx:hr>
          </gpxtpx:TrackPointExtension>
        </extensions>
      </trkpt>
      <trkpt lat="42.94005" lon="1.85446">
        <ele>504.5</ele>
        <time>2022-07-25T08:08:36.000Z</time>
        <extensions>
          <gpxtpx:TrackPointExtension xmlns:gpxtpx="http://www.garmin.com/xmlschemas/TrackPointExtension/v1">
            <gpxtpx:hr>135</gpxtpx:hr>
          </gpxtpx:TrackPointExtension>
        </extensions>
      </trkpt>
      <trkpt lat="42.94013" lon="1.85452">
        <ele>504.3</ele>
        <time>2022-07-25T08:08:37.000Z</time>
        <extensions>
          <gpxtpx:TrackPointExtension xmlns:gpxtpx="http://www.garmin.com/xmlschemas/TrackPointExtension/v1">
            <gpxtpx:hr>135</gpxtpx:hr>
          </gpxtpx:TrackPointExtension>
        </extensions>
      </trkpt>
      <trkpt lat="42.94019" lon="1.85458">
        <ele>504.2</ele>
        <time>2022-07-25T08:08:38.000Z</time>
        <extensions>
          <gpxtpx:TrackPointExtension xmlns:gpxtpx="http://www.garmin.com/xmlschemas/TrackPointExtension/v1">
            <gpxtpx:hr>135</gpxtpx:hr>
          </gpxtpx:TrackPointExtension>
        </extensions>
      </trkpt>
      <trkpt lat="42.94026" lon="1.85464">
        <ele>504.1</ele>
        <time>2022-07-25T08:08:39.000Z</time>
        <extensions>
          <gpxtpx:TrackPointExtension xmlns:gpxtpx="http://www.garmin.com/xmlschemas/TrackPointExtension/v1">
            <gpxtpx:hr>135</gpxtpx:hr>
          </gpxtpx:TrackPointExtension>
        </extensions>
      </trkpt>
      <trkpt lat="42.94033" lon="1.85471">
        <ele>504</ele>
        <time>2022-07-25T08:08:40.000Z</time>
        <extensions>
          <gpxtpx:TrackPointExtension xmlns:gpxtpx="http://www.garmin.com/xmlschemas/TrackPointExtension/v1">
            <gpxtpx:hr>135</gpxtpx:hr>
          </gpxtpx:TrackPointExtension>
        </extensions>
      </trkpt>
      <trkpt lat="42.94038" lon="1.85479">
        <ele>503.9</ele>
        <time>2022-07-25T08:08:41.000Z</time>
        <extensions>
          <gpxtpx:TrackPointExtension xmlns:gpxtpx="http://www.garmin.com/xmlschemas/TrackPointExtension/v1">
            <gpxtpx:hr>135</gpxtpx:hr>
          </gpxtpx:TrackPointExtension>
        </extensions>
      </trkpt>
      <trkpt lat="42.94043" lon="1.85487">
        <ele>503.7</ele>
        <time>2022-07-25T08:08:42.000Z</time>
        <extensions>
          <gpxtpx:TrackPointExtension xmlns:gpxtpx="http://www.garmin.com/xmlschemas/TrackPointExtension/v1">
            <gpxtpx:hr>135</gpxtpx:hr>
          </gpxtpx:TrackPointExtension>
        </extensions>
      </trkpt>
      <trkpt lat="42.94046" lon="1.85495">
        <ele>503.6</ele>
        <time>2022-07-25T08:08:43.000Z</time>
        <extensions>
          <gpxtpx:TrackPointExtension xmlns:gpxtpx="http://www.garmin.com/xmlschemas/TrackPointExtension/v1">
            <gpxtpx:hr>135</gpxtpx:hr>
          </gpxtpx:TrackPointExtension>
        </extensions>
      </trkpt>
      <trkpt lat="42.94048" lon="1.85503">
        <ele>503.5</ele>
        <time>2022-07-25T08:08:44.000Z</time>
        <extensions>
          <gpxtpx:TrackPointExtension xmlns:gpxtpx="http://www.garmin.com/xmlschemas/TrackPointExtension/v1">
            <gpxtpx:hr>135</gpxtpx:hr>
          </gpxtpx:TrackPointExtension>
        </extensions>
      </trkpt>
      <trkpt lat="42.9405" lon="1.85511">
        <ele>503.3</ele>
        <time>2022-07-25T08:08:45.000Z</time>
        <extensions>
          <gpxtpx:TrackPointExtension xmlns:gpxtpx="http://www.garmin.com/xmlschemas/TrackPointExtension/v1">
            <gpxtpx:hr>136</gpxtpx:hr>
          </gpxtpx:TrackPointExtension>
        </extensions>
      </trkpt>
      <trkpt lat="42.94054" lon="1.85519">
        <ele>503.2</ele>
        <time>2022-07-25T08:08:46.000Z</time>
        <extensions>
          <gpxtpx:TrackPointExtension xmlns:gpxtpx="http://www.garmin.com/xmlschemas/TrackPointExtension/v1">
            <gpxtpx:hr>136</gpxtpx:hr>
          </gpxtpx:TrackPointExtension>
        </extensions>
      </trkpt>
      <trkpt lat="42.94059" lon="1.85525">
        <ele>503.1</ele>
        <time>2022-07-25T08:08:47.000Z</time>
        <extensions>
          <gpxtpx:TrackPointExtension xmlns:gpxtpx="http://www.garmin.com/xmlschemas/TrackPointExtension/v1">
            <gpxtpx:hr>136</gpxtpx:hr>
          </gpxtpx:TrackPointExtension>
        </extensions>
      </trkpt>
      <trkpt lat="42.94065" lon="1.85529">
        <ele>503</ele>
        <time>2022-07-25T08:08:48.000Z</time>
        <extensions>
          <gpxtpx:TrackPointExtension xmlns:gpxtpx="http://www.garmin.com/xmlschemas/TrackPointExtension/v1">
            <gpxtpx:hr>137</gpxtpx:hr>
          </gpxtpx:TrackPointExtension>
        </extensions>
      </trkpt>
      <trkpt lat="42.9407" lon="1.85532">
        <ele>502.9</ele>
        <time>2022-07-25T08:08:49.000Z</time>
        <extensions>
          <gpxtpx:TrackPointExtension xmlns:gpxtpx="http://www.garmin.com/xmlschemas/TrackPointExtension/v1">
            <gpxtpx:hr>137</gpxtpx:hr>
          </gpxtpx:TrackPointExtension>
        </extensions>
      </trkpt>
      <trkpt lat="42.94076" lon="1.85536">
        <ele>502.8</ele>
        <time>2022-07-25T08:08:50.000Z</time>
        <extensions>
          <gpxtpx:TrackPointExtension xmlns:gpxtpx="http://www.garmin.com/xmlschemas/TrackPointExtension/v1">
            <gpxtpx:hr>138</gpxtpx:hr>
          </gpxtpx:TrackPointExtension>
        </extensions>
      </trkpt>
      <trkpt lat="42.94082" lon="1.85541">
        <ele>502.7</ele>
        <time>2022-07-25T08:08:51.000Z</time>
        <extensions>
          <gpxtpx:TrackPointExtension xmlns:gpxtpx="http://www.garmin.com/xmlschemas/TrackPointExtension/v1">
            <gpxtpx:hr>138</gpxtpx:hr>
          </gpxtpx:TrackPointExtension>
        </extensions>
      </trkpt>
      <trkpt lat="42.94087" lon="1.85546">
        <ele>502.7</ele>
        <time>2022-07-25T08:08:52.000Z</time>
        <extensions>
          <gpxtpx:TrackPointExtension xmlns:gpxtpx="http://www.garmin.com/xmlschemas/TrackPointExtension/v1">
            <gpxtpx:hr>138</gpxtpx:hr>
          </gpxtpx:TrackPointExtension>
        </extensions>
      </trkpt>
      <trkpt lat="42.94092" lon="1.8555">
        <ele>502.6</ele>
        <time>2022-07-25T08:08:53.000Z</time>
        <extensions>
          <gpxtpx:TrackPointExtension xmlns:gpxtpx="http://www.garmin.com/xmlschemas/TrackPointExtension/v1">
            <gpxtpx:hr>139</gpxtpx:hr>
          </gpxtpx:TrackPointExtension>
        </extensions>
      </trkpt>
      <trkpt lat="42.94097" lon="1.85554">
        <ele>502.5</ele>
        <time>2022-07-25T08:08:54.000Z</time>
        <extensions>
          <gpxtpx:TrackPointExtension xmlns:gpxtpx="http://www.garmin.com/xmlschemas/TrackPointExtension/v1">
            <gpxtpx:hr>139</gpxtpx:hr>
          </gpxtpx:TrackPointExtension>
        </extensions>
      </trkpt>
      <trkpt lat="42.94103" lon="1.85558">
        <ele>502.4</ele>
        <time>2022-07-25T08:08:55.000Z</time>
        <extensions>
          <gpxtpx:TrackPointExtension xmlns:gpxtpx="http://www.garmin.com/xmlschemas/TrackPointExtension/v1">
            <gpxtpx:hr>139</gpxtpx:hr>
          </gpxtpx:TrackPointExtension>
        </extensions>
      </trkpt>
      <trkpt lat="42.94109" lon="1.85562">
        <ele>502.4</ele>
        <time>2022-07-25T08:08:56.000Z</time>
        <extensions>
          <gpxtpx:TrackPointExtension xmlns:gpxtpx="http://www.garmin.com/xmlschemas/TrackPointExtension/v1">
            <gpxtpx:hr>139</gpxtpx:hr>
          </gpxtpx:TrackPointExtension>
        </extensions>
      </trkpt>
      <trkpt lat="42.94114" lon="1.85566">
        <ele>502.3</ele>
        <time>2022-07-25T08:08:57.000Z</time>
        <extensions>
          <gpxtpx:TrackPointExtension xmlns:gpxtpx="http://www.garmin.com/xmlschemas/TrackPointExtension/v1">
            <gpxtpx:hr>139</gpxtpx:hr>
          </gpxtpx:TrackPointExtension>
        </extensions>
      </trkpt>
      <trkpt lat="42.94119" lon="1.85571">
        <ele>502.2</ele>
        <time>2022-07-25T08:08:58.000Z</time>
        <extensions>
          <gpxtpx:TrackPointExtension xmlns:gpxtpx="http://www.garmin.com/xmlschemas/TrackPointExtension/v1">
            <gpxtpx:hr>139</gpxtpx:hr>
          </gpxtpx:TrackPointExtension>
        </extensions>
      </trkpt>
      <trkpt lat="42.94124" lon="1.85575">
        <ele>502.2</ele>
        <time>2022-07-25T08:08:59.000Z</time>
        <extensions>
          <gpxtpx:TrackPointExtension xmlns:gpxtpx="http://www.garmin.com/xmlschemas/TrackPointExtension/v1">
            <gpxtpx:hr>138</gpxtpx:hr>
          </gpxtpx:TrackPointExtension>
        </extensions>
      </trkpt>
      <trkpt lat="42.94129" lon="1.8558">
        <ele>502.1</ele>
        <time>2022-07-25T08:09:00.000Z</time>
        <extensions>
          <gpxtpx:TrackPointExtension xmlns:gpxtpx="http://www.garmin.com/xmlschemas/TrackPointExtension/v1">
            <gpxtpx:hr>138</gpxtpx:hr>
          </gpxtpx:TrackPointExtension>
        </extensions>
      </trkpt>
      <trkpt lat="42.94133" lon="1.85585">
        <ele>502</ele>
        <time>2022-07-25T08:09:01.000Z</time>
        <extensions>
          <gpxtpx:TrackPointExtension xmlns:gpxtpx="http://www.garmin.com/xmlschemas/TrackPointExtension/v1">
            <gpxtpx:hr>138</gpxtpx:hr>
          </gpxtpx:TrackPointExtension>
        </extensions>
      </trkpt>
      <trkpt lat="42.94139" lon="1.8559">
        <ele>501.9</ele>
        <time>2022-07-25T08:09:02.000Z</time>
        <extensions>
          <gpxtpx:TrackPointExtension xmlns:gpxtpx="http://www.garmin.com/xmlschemas/TrackPointExtension/v1">
            <gpxtpx:hr>138</gpxtpx:hr>
          </gpxtpx:TrackPointExtension>
        </extensions>
      </trkpt>
      <trkpt lat="42.94143" lon="1.85594">
        <ele>501.8</ele>
        <time>2022-07-25T08:09:03.000Z</time>
        <extensions>
          <gpxtpx:TrackPointExtension xmlns:gpxtpx="http://www.garmin.com/xmlschemas/TrackPointExtension/v1">
            <gpxtpx:hr>138</gpxtpx:hr>
          </gpxtpx:TrackPointExtension>
        </extensions>
      </trkpt>
      <trkpt lat="42.94148" lon="1.85598">
        <ele>501.8</ele>
        <time>2022-07-25T08:09:04.000Z</time>
        <extensions>
          <gpxtpx:TrackPointExtension xmlns:gpxtpx="http://www.garmin.com/xmlschemas/TrackPointExtension/v1">
            <gpxtpx:hr>138</gpxtpx:hr>
          </gpxtpx:TrackPointExtension>
        </extensions>
      </trkpt>
      <trkpt lat="42.94151" lon="1.85603">
        <ele>501.7</ele>
        <time>2022-07-25T08:09:05.000Z</time>
        <extensions>
          <gpxtpx:TrackPointExtension xmlns:gpxtpx="http://www.garmin.com/xmlschemas/TrackPointExtension/v1">
            <gpxtpx:hr>138</gpxtpx:hr>
          </gpxtpx:TrackPointExtension>
        </extensions>
      </trkpt>
      <trkpt lat="42.94154" lon="1.85609">
        <ele>501.6</ele>
        <time>2022-07-25T08:09:06.000Z</time>
        <extensions>
          <gpxtpx:TrackPointExtension xmlns:gpxtpx="http://www.garmin.com/xmlschemas/TrackPointExtension/v1">
            <gpxtpx:hr>138</gpxtpx:hr>
          </gpxtpx:TrackPointExtension>
        </extensions>
      </trkpt>
      <trkpt lat="42.94155" lon="1.85616">
        <ele>501.6</ele>
        <time>2022-07-25T08:09:07.000Z</time>
        <extensions>
          <gpxtpx:TrackPointExtension xmlns:gpxtpx="http://www.garmin.com/xmlschemas/TrackPointExtension/v1">
            <gpxtpx:hr>138</gpxtpx:hr>
          </gpxtpx:TrackPointExtension>
        </extensions>
      </trkpt>
      <trkpt lat="42.94157" lon="1.85622">
        <ele>501.6</ele>
        <time>2022-07-25T08:09:08.000Z</time>
        <extensions>
          <gpxtpx:TrackPointExtension xmlns:gpxtpx="http://www.garmin.com/xmlschemas/TrackPointExtension/v1">
            <gpxtpx:hr>138</gpxtpx:hr>
          </gpxtpx:TrackPointExtension>
        </extensions>
      </trkpt>
      <trkpt lat="42.94159" lon="1.85628">
        <ele>501.5</ele>
        <time>2022-07-25T08:09:09.000Z</time>
        <extensions>
          <gpxtpx:TrackPointExtension xmlns:gpxtpx="http://www.garmin.com/xmlschemas/TrackPointExtension/v1">
            <gpxtpx:hr>138</gpxtpx:hr>
          </gpxtpx:TrackPointExtension>
        </extensions>
      </trkpt>
      <trkpt lat="42.94162" lon="1.85634">
        <ele>501.5</ele>
        <time>2022-07-25T08:09:10.000Z</time>
        <extensions>
          <gpxtpx:TrackPointExtension xmlns:gpxtpx="http://www.garmin.com/xmlschemas/TrackPointExtension/v1">
            <gpxtpx:hr>137</gpxtpx:hr>
          </gpxtpx:TrackPointExtension>
        </extensions>
      </trkpt>
      <trkpt lat="42.94165" lon="1.85638">
        <ele>501.5</ele>
        <time>2022-07-25T08:09:11.000Z</time>
        <extensions>
          <gpxtpx:TrackPointExtension xmlns:gpxtpx="http://www.garmin.com/xmlschemas/TrackPointExtension/v1">
            <gpxtpx:hr>137</gpxtpx:hr>
          </gpxtpx:TrackPointExtension>
        </extensions>
      </trkpt>
      <trkpt lat="42.94169" lon="1.85643">
        <ele>501.5</ele>
        <time>2022-07-25T08:09:12.000Z</time>
        <extensions>
          <gpxtpx:TrackPointExtension xmlns:gpxtpx="http://www.garmin.com/xmlschemas/TrackPointExtension/v1">
            <gpxtpx:hr>137</gpxtpx:hr>
          </gpxtpx:TrackPointExtension>
        </extensions>
      </trkpt>
      <trkpt lat="42.94173" lon="1.85648">
        <ele>501.5</ele>
        <time>2022-07-25T08:09:13.000Z</time>
        <extensions>
          <gpxtpx:TrackPointExtension xmlns:gpxtpx="http://www.garmin.com/xmlschemas/TrackPointExtension/v1">
            <gpxtpx:hr>137</gpxtpx:hr>
          </gpxtpx:TrackPointExtension>
        </extensions>
      </trkpt>
      <trkpt lat="42.94177" lon="1.85653">
        <ele>501.4</ele>
        <time>2022-07-25T08:09:14.000Z</time>
        <extensions>
          <gpxtpx:TrackPointExtension xmlns:gpxtpx="http://www.garmin.com/xmlschemas/TrackPointExtension/v1">
            <gpxtpx:hr>137</gpxtpx:hr>
          </gpxtpx:TrackPointExtension>
        </extensions>
      </trkpt>
      <trkpt lat="42.9418" lon="1.85659">
        <ele>501.4</ele>
        <time>2022-07-25T08:09:15.000Z</time>
        <extensions>
          <gpxtpx:TrackPointExtension xmlns:gpxtpx="http://www.garmin.com/xmlschemas/TrackPointExtension/v1">
            <gpxtpx:hr>137</gpxtpx:hr>
          </gpxtpx:TrackPointExtension>
        </extensions>
      </trkpt>
      <trkpt lat="42.94184" lon="1.85664">
        <ele>501.4</ele>
        <time>2022-07-25T08:09:16.000Z</time>
        <extensions>
          <gpxtpx:TrackPointExtension xmlns:gpxtpx="http://www.garmin.com/xmlschemas/TrackPointExtension/v1">
            <gpxtpx:hr>137</gpxtpx:hr>
          </gpxtpx:TrackPointExtension>
        </extensions>
      </trkpt>
      <trkpt lat="42.94187" lon="1.8567">
        <ele>501.4</ele>
        <time>2022-07-25T08:09:17.000Z</time>
        <extensions>
          <gpxtpx:TrackPointExtension xmlns:gpxtpx="http://www.garmin.com/xmlschemas/TrackPointExtension/v1">
            <gpxtpx:hr>137</gpxtpx:hr>
          </gpxtpx:TrackPointExtension>
        </extensions>
      </trkpt>
      <trkpt lat="42.94191" lon="1.85675">
        <ele>501.4</ele>
        <time>2022-07-25T08:09:18.000Z</time>
        <extensions>
          <gpxtpx:TrackPointExtension xmlns:gpxtpx="http://www.garmin.com/xmlschemas/TrackPointExtension/v1">
            <gpxtpx:hr>137</gpxtpx:hr>
          </gpxtpx:TrackPointExtension>
        </extensions>
      </trkpt>
      <trkpt lat="42.94194" lon="1.85681">
        <ele>501.4</ele>
        <time>2022-07-25T08:09:19.000Z</time>
        <extensions>
          <gpxtpx:TrackPointExtension xmlns:gpxtpx="http://www.garmin.com/xmlschemas/TrackPointExtension/v1">
            <gpxtpx:hr>137</gpxtpx:hr>
          </gpxtpx:TrackPointExtension>
        </extensions>
      </trkpt>
      <trkpt lat="42.94198" lon="1.85686">
        <ele>501.3</ele>
        <time>2022-07-25T08:09:20.000Z</time>
        <extensions>
          <gpxtpx:TrackPointExtension xmlns:gpxtpx="http://www.garmin.com/xmlschemas/TrackPointExtension/v1">
            <gpxtpx:hr>137</gpxtpx:hr>
          </gpxtpx:TrackPointExtension>
        </extensions>
      </trkpt>
      <trkpt lat="42.94201" lon="1.85693">
        <ele>501.3</ele>
        <time>2022-07-25T08:09:21.000Z</time>
        <extensions>
          <gpxtpx:TrackPointExtension xmlns:gpxtpx="http://www.garmin.com/xmlschemas/TrackPointExtension/v1">
            <gpxtpx:hr>138</gpxtpx:hr>
          </gpxtpx:TrackPointExtension>
        </extensions>
      </trkpt>
      <trkpt lat="42.94203" lon="1.857">
        <ele>501.3</ele>
        <time>2022-07-25T08:09:22.000Z</time>
        <extensions>
          <gpxtpx:TrackPointExtension xmlns:gpxtpx="http://www.garmin.com/xmlschemas/TrackPointExtension/v1">
            <gpxtpx:hr>138</gpxtpx:hr>
          </gpxtpx:TrackPointExtension>
        </extensions>
      </trkpt>
      <trkpt lat="42.94206" lon="1.85705">
        <ele>501.3</ele>
        <time>2022-07-25T08:09:23.000Z</time>
        <extensions>
          <gpxtpx:TrackPointExtension xmlns:gpxtpx="http://www.garmin.com/xmlschemas/TrackPointExtension/v1">
            <gpxtpx:hr>138</gpxtpx:hr>
          </gpxtpx:TrackPointExtension>
        </extensions>
      </trkpt>
      <trkpt lat="42.94209" lon="1.85711">
        <ele>501.3</ele>
        <time>2022-07-25T08:09:24.000Z</time>
        <extensions>
          <gpxtpx:TrackPointExtension xmlns:gpxtpx="http://www.garmin.com/xmlschemas/TrackPointExtension/v1">
            <gpxtpx:hr>138</gpxtpx:hr>
          </gpxtpx:TrackPointExtension>
        </extensions>
      </trkpt>
      <trkpt lat="42.94214" lon="1.85715">
        <ele>501.3</ele>
        <time>2022-07-25T08:09:25.000Z</time>
        <extensions>
          <gpxtpx:TrackPointExtension xmlns:gpxtpx="http://www.garmin.com/xmlschemas/TrackPointExtension/v1">
            <gpxtpx:hr>138</gpxtpx:hr>
          </gpxtpx:TrackPointExtension>
        </extensions>
      </trkpt>
      <trkpt lat="42.94218" lon="1.85719">
        <ele>501.3</ele>
        <time>2022-07-25T08:09:26.000Z</time>
        <extensions>
          <gpxtpx:TrackPointExtension xmlns:gpxtpx="http://www.garmin.com/xmlschemas/TrackPointExtension/v1">
            <gpxtpx:hr>138</gpxtpx:hr>
          </gpxtpx:TrackPointExtension>
        </extensions>
      </trkpt>
      <trkpt lat="42.94222" lon="1.85722">
        <ele>501.3</ele>
        <time>2022-07-25T08:09:27.000Z</time>
        <extensions>
          <gpxtpx:TrackPointExtension xmlns:gpxtpx="http://www.garmin.com/xmlschemas/TrackPointExtension/v1">
            <gpxtpx:hr>138</gpxtpx:hr>
          </gpxtpx:TrackPointExtension>
        </extensions>
      </trkpt>
      <trkpt lat="42.94225" lon="1.85725">
        <ele>501.3</ele>
        <time>2022-07-25T08:09:28.000Z</time>
        <extensions>
          <gpxtpx:TrackPointExtension xmlns:gpxtpx="http://www.garmin.com/xmlschemas/TrackPointExtension/v1">
            <gpxtpx:hr>138</gpxtpx:hr>
          </gpxtpx:TrackPointExtension>
        </extensions>
      </trkpt>
      <trkpt lat="42.94233" lon="1.85731">
        <ele>501.2</ele>
        <time>2022-07-25T08:09:30.000Z</time>
        <extensions>
          <gpxtpx:TrackPointExtension xmlns:gpxtpx="http://www.garmin.com/xmlschemas/TrackPointExtension/v1">
            <gpxtpx:hr>138</gpxtpx:hr>
          </gpxtpx:TrackPointExtension>
        </extensions>
      </trkpt>
      <trkpt lat="42.94237" lon="1.85735">
        <ele>501.2</ele>
        <time>2022-07-25T08:09:31.000Z</time>
        <extensions>
          <gpxtpx:TrackPointExtension xmlns:gpxtpx="http://www.garmin.com/xmlschemas/TrackPointExtension/v1">
            <gpxtpx:hr>138</gpxtpx:hr>
          </gpxtpx:TrackPointExtension>
        </extensions>
      </trkpt>
      <trkpt lat="42.94244" lon="1.85742">
        <ele>501.2</ele>
        <time>2022-07-25T08:09:33.000Z</time>
        <extensions>
          <gpxtpx:TrackPointExtension xmlns:gpxtpx="http://www.garmin.com/xmlschemas/TrackPointExtension/v1">
            <gpxtpx:hr>139</gpxtpx:hr>
          </gpxtpx:TrackPointExtension>
        </extensions>
      </trkpt>
      <trkpt lat="42.94252" lon="1.85748">
        <ele>501.2</ele>
        <time>2022-07-25T08:09:35.000Z</time>
        <extensions>
          <gpxtpx:TrackPointExtension xmlns:gpxtpx="http://www.garmin.com/xmlschemas/TrackPointExtension/v1">
            <gpxtpx:hr>139</gpxtpx:hr>
          </gpxtpx:TrackPointExtension>
        </extensions>
      </trkpt>
      <trkpt lat="42.94257" lon="1.85752">
        <ele>501.2</ele>
        <time>2022-07-25T08:09:36.000Z</time>
        <extensions>
          <gpxtpx:TrackPointExtension xmlns:gpxtpx="http://www.garmin.com/xmlschemas/TrackPointExtension/v1">
            <gpxtpx:hr>139</gpxtpx:hr>
          </gpxtpx:TrackPointExtension>
        </extensions>
      </trkpt>
      <trkpt lat="42.94262" lon="1.85756">
        <ele>501.2</ele>
        <time>2022-07-25T08:09:37.000Z</time>
        <extensions>
          <gpxtpx:TrackPointExtension xmlns:gpxtpx="http://www.garmin.com/xmlschemas/TrackPointExtension/v1">
            <gpxtpx:hr>139</gpxtpx:hr>
          </gpxtpx:TrackPointExtension>
        </extensions>
      </trkpt>
      <trkpt lat="42.94267" lon="1.85759">
        <ele>501.2</ele>
        <time>2022-07-25T08:09:38.000Z</time>
        <extensions>
          <gpxtpx:TrackPointExtension xmlns:gpxtpx="http://www.garmin.com/xmlschemas/TrackPointExtension/v1">
            <gpxtpx:hr>139</gpxtpx:hr>
          </gpxtpx:TrackPointExtension>
        </extensions>
      </trkpt>
      <trkpt lat="42.94271" lon="1.85762">
        <ele>501.2</ele>
        <time>2022-07-25T08:09:39.000Z</time>
        <extensions>
          <gpxtpx:TrackPointExtension xmlns:gpxtpx="http://www.garmin.com/xmlschemas/TrackPointExtension/v1">
            <gpxtpx:hr>139</gpxtpx:hr>
          </gpxtpx:TrackPointExtension>
        </extensions>
      </trkpt>
      <trkpt lat="42.94277" lon="1.85766">
        <ele>501.2</ele>
        <time>2022-07-25T08:09:40.000Z</time>
        <extensions>
          <gpxtpx:TrackPointExtension xmlns:gpxtpx="http://www.garmin.com/xmlschemas/TrackPointExtension/v1">
            <gpxtpx:hr>139</gpxtpx:hr>
          </gpxtpx:TrackPointExtension>
        </extensions>
      </trkpt>
      <trkpt lat="42.94282" lon="1.85769">
        <ele>501.2</ele>
        <time>2022-07-25T08:09:41.000Z</time>
        <extensions>
          <gpxtpx:TrackPointExtension xmlns:gpxtpx="http://www.garmin.com/xmlschemas/TrackPointExtension/v1">
            <gpxtpx:hr>139</gpxtpx:hr>
          </gpxtpx:TrackPointExtension>
        </extensions>
      </trkpt>
      <trkpt lat="42.94287" lon="1.85773">
        <ele>501.2</ele>
        <time>2022-07-25T08:09:42.000Z</time>
        <extensions>
          <gpxtpx:TrackPointExtension xmlns:gpxtpx="http://www.garmin.com/xmlschemas/TrackPointExtension/v1">
            <gpxtpx:hr>139</gpxtpx:hr>
          </gpxtpx:TrackPointExtension>
        </extensions>
      </trkpt>
      <trkpt lat="42.94292" lon="1.85778">
        <ele>501.2</ele>
        <time>2022-07-25T08:09:43.000Z</time>
        <extensions>
          <gpxtpx:TrackPointExtension xmlns:gpxtpx="http://www.garmin.com/xmlschemas/TrackPointExtension/v1">
            <gpxtpx:hr>139</gpxtpx:hr>
          </gpxtpx:TrackPointExtension>
        </extensions>
      </trkpt>
      <trkpt lat="42.94297" lon="1.85783">
        <ele>501.2</ele>
        <time>2022-07-25T08:09:44.000Z</time>
        <extensions>
          <gpxtpx:TrackPointExtension xmlns:gpxtpx="http://www.garmin.com/xmlschemas/TrackPointExtension/v1">
            <gpxtpx:hr>139</gpxtpx:hr>
          </gpxtpx:TrackPointExtension>
        </extensions>
      </trkpt>
      <trkpt lat="42.94302" lon="1.85787">
        <ele>501.2</ele>
        <time>2022-07-25T08:09:45.000Z</time>
        <extensions>
          <gpxtpx:TrackPointExtension xmlns:gpxtpx="http://www.garmin.com/xmlschemas/TrackPointExtension/v1">
            <gpxtpx:hr>139</gpxtpx:hr>
          </gpxtpx:TrackPointExtension>
        </extensions>
      </trkpt>
      <trkpt lat="42.94307" lon="1.85792">
        <ele>501.2</ele>
        <time>2022-07-25T08:09:46.000Z</time>
        <extensions>
          <gpxtpx:TrackPointExtension xmlns:gpxtpx="http://www.garmin.com/xmlschemas/TrackPointExtension/v1">
            <gpxtpx:hr>139</gpxtpx:hr>
          </gpxtpx:TrackPointExtension>
        </extensions>
      </trkpt>
      <trkpt lat="42.94311" lon="1.85796">
        <ele>501.2</ele>
        <time>2022-07-25T08:09:47.000Z</time>
        <extensions>
          <gpxtpx:TrackPointExtension xmlns:gpxtpx="http://www.garmin.com/xmlschemas/TrackPointExtension/v1">
            <gpxtpx:hr>139</gpxtpx:hr>
          </gpxtpx:TrackPointExtension>
        </extensions>
      </trkpt>
      <trkpt lat="42.94316" lon="1.858">
        <ele>501.2</ele>
        <time>2022-07-25T08:09:48.000Z</time>
        <extensions>
          <gpxtpx:TrackPointExtension xmlns:gpxtpx="http://www.garmin.com/xmlschemas/TrackPointExtension/v1">
            <gpxtpx:hr>139</gpxtpx:hr>
          </gpxtpx:TrackPointExtension>
        </extensions>
      </trkpt>
      <trkpt lat="42.94321" lon="1.85805">
        <ele>501.1</ele>
        <time>2022-07-25T08:09:49.000Z</time>
        <extensions>
          <gpxtpx:TrackPointExtension xmlns:gpxtpx="http://www.garmin.com/xmlschemas/TrackPointExtension/v1">
            <gpxtpx:hr>139</gpxtpx:hr>
          </gpxtpx:TrackPointExtension>
        </extensions>
      </trkpt>
      <trkpt lat="42.94325" lon="1.85809">
        <ele>501.1</ele>
        <time>2022-07-25T08:09:50.000Z</time>
        <extensions>
          <gpxtpx:TrackPointExtension xmlns:gpxtpx="http://www.garmin.com/xmlschemas/TrackPointExtension/v1">
            <gpxtpx:hr>139</gpxtpx:hr>
          </gpxtpx:TrackPointExtension>
        </extensions>
      </trkpt>
      <trkpt lat="42.9433" lon="1.85813">
        <ele>501.1</ele>
        <time>2022-07-25T08:09:51.000Z</time>
        <extensions>
          <gpxtpx:TrackPointExtension xmlns:gpxtpx="http://www.garmin.com/xmlschemas/TrackPointExtension/v1">
            <gpxtpx:hr>139</gpxtpx:hr>
          </gpxtpx:TrackPointExtension>
        </extensions>
      </trkpt>
      <trkpt lat="42.94335" lon="1.85817">
        <ele>501.1</ele>
        <time>2022-07-25T08:09:52.000Z</time>
        <extensions>
          <gpxtpx:TrackPointExtension xmlns:gpxtpx="http://www.garmin.com/xmlschemas/TrackPointExtension/v1">
            <gpxtpx:hr>139</gpxtpx:hr>
          </gpxtpx:TrackPointExtension>
        </extensions>
      </trkpt>
      <trkpt lat="42.94339" lon="1.85822">
        <ele>501.1</ele>
        <time>2022-07-25T08:09:53.000Z</time>
        <extensions>
          <gpxtpx:TrackPointExtension xmlns:gpxtpx="http://www.garmin.com/xmlschemas/TrackPointExtension/v1">
            <gpxtpx:hr>139</gpxtpx:hr>
          </gpxtpx:TrackPointExtension>
        </extensions>
      </trkpt>
      <trkpt lat="42.94344" lon="1.85828">
        <ele>501.1</ele>
        <time>2022-07-25T08:09:54.000Z</time>
        <extensions>
          <gpxtpx:TrackPointExtension xmlns:gpxtpx="http://www.garmin.com/xmlschemas/TrackPointExtension/v1">
            <gpxtpx:hr>139</gpxtpx:hr>
          </gpxtpx:TrackPointExtension>
        </extensions>
      </trkpt>
      <trkpt lat="42.9435" lon="1.85833">
        <ele>501.1</ele>
        <time>2022-07-25T08:09:55.000Z</time>
        <extensions>
          <gpxtpx:TrackPointExtension xmlns:gpxtpx="http://www.garmin.com/xmlschemas/TrackPointExtension/v1">
            <gpxtpx:hr>139</gpxtpx:hr>
          </gpxtpx:TrackPointExtension>
        </extensions>
      </trkpt>
      <trkpt lat="42.94355" lon="1.85837">
        <ele>501.1</ele>
        <time>2022-07-25T08:09:56.000Z</time>
        <extensions>
          <gpxtpx:TrackPointExtension xmlns:gpxtpx="http://www.garmin.com/xmlschemas/TrackPointExtension/v1">
            <gpxtpx:hr>139</gpxtpx:hr>
          </gpxtpx:TrackPointExtension>
        </extensions>
      </trkpt>
      <trkpt lat="42.9436" lon="1.85842">
        <ele>501.1</ele>
        <time>2022-07-25T08:09:57.000Z</time>
        <extensions>
          <gpxtpx:TrackPointExtension xmlns:gpxtpx="http://www.garmin.com/xmlschemas/TrackPointExtension/v1">
            <gpxtpx:hr>139</gpxtpx:hr>
          </gpxtpx:TrackPointExtension>
        </extensions>
      </trkpt>
      <trkpt lat="42.94365" lon="1.85847">
        <ele>501</ele>
        <time>2022-07-25T08:09:58.000Z</time>
        <extensions>
          <gpxtpx:TrackPointExtension xmlns:gpxtpx="http://www.garmin.com/xmlschemas/TrackPointExtension/v1">
            <gpxtpx:hr>139</gpxtpx:hr>
          </gpxtpx:TrackPointExtension>
        </extensions>
      </trkpt>
      <trkpt lat="42.94371" lon="1.85852">
        <ele>501</ele>
        <time>2022-07-25T08:09:59.000Z</time>
        <extensions>
          <gpxtpx:TrackPointExtension xmlns:gpxtpx="http://www.garmin.com/xmlschemas/TrackPointExtension/v1">
            <gpxtpx:hr>139</gpxtpx:hr>
          </gpxtpx:TrackPointExtension>
        </extensions>
      </trkpt>
      <trkpt lat="42.94376" lon="1.85857">
        <ele>501</ele>
        <time>2022-07-25T08:10:00.000Z</time>
        <extensions>
          <gpxtpx:TrackPointExtension xmlns:gpxtpx="http://www.garmin.com/xmlschemas/TrackPointExtension/v1">
            <gpxtpx:hr>139</gpxtpx:hr>
          </gpxtpx:TrackPointExtension>
        </extensions>
      </trkpt>
      <trkpt lat="42.94381" lon="1.85862">
        <ele>501</ele>
        <time>2022-07-25T08:10:01.000Z</time>
        <extensions>
          <gpxtpx:TrackPointExtension xmlns:gpxtpx="http://www.garmin.com/xmlschemas/TrackPointExtension/v1">
            <gpxtpx:hr>139</gpxtpx:hr>
          </gpxtpx:TrackPointExtension>
        </extensions>
      </trkpt>
      <trkpt lat="42.94386" lon="1.85867">
        <ele>501</ele>
        <time>2022-07-25T08:10:02.000Z</time>
        <extensions>
          <gpxtpx:TrackPointExtension xmlns:gpxtpx="http://www.garmin.com/xmlschemas/TrackPointExtension/v1">
            <gpxtpx:hr>139</gpxtpx:hr>
          </gpxtpx:TrackPointExtension>
        </extensions>
      </trkpt>
      <trkpt lat="42.94391" lon="1.85872">
        <ele>500.9</ele>
        <time>2022-07-25T08:10:03.000Z</time>
        <extensions>
          <gpxtpx:TrackPointExtension xmlns:gpxtpx="http://www.garmin.com/xmlschemas/TrackPointExtension/v1">
            <gpxtpx:hr>139</gpxtpx:hr>
          </gpxtpx:TrackPointExtension>
        </extensions>
      </trkpt>
      <trkpt lat="42.94396" lon="1.85877">
        <ele>500.9</ele>
        <time>2022-07-25T08:10:04.000Z</time>
        <extensions>
          <gpxtpx:TrackPointExtension xmlns:gpxtpx="http://www.garmin.com/xmlschemas/TrackPointExtension/v1">
            <gpxtpx:hr>139</gpxtpx:hr>
          </gpxtpx:TrackPointExtension>
        </extensions>
      </trkpt>
      <trkpt lat="42.94401" lon="1.85882">
        <ele>500.9</ele>
        <time>2022-07-25T08:10:05.000Z</time>
        <extensions>
          <gpxtpx:TrackPointExtension xmlns:gpxtpx="http://www.garmin.com/xmlschemas/TrackPointExtension/v1">
            <gpxtpx:hr>139</gpxtpx:hr>
          </gpxtpx:TrackPointExtension>
        </extensions>
      </trkpt>
      <trkpt lat="42.94406" lon="1.85888">
        <ele>500.8</ele>
        <time>2022-07-25T08:10:06.000Z</time>
        <extensions>
          <gpxtpx:TrackPointExtension xmlns:gpxtpx="http://www.garmin.com/xmlschemas/TrackPointExtension/v1">
            <gpxtpx:hr>139</gpxtpx:hr>
          </gpxtpx:TrackPointExtension>
        </extensions>
      </trkpt>
      <trkpt lat="42.94412" lon="1.85894">
        <ele>500.8</ele>
        <time>2022-07-25T08:10:07.000Z</time>
        <extensions>
          <gpxtpx:TrackPointExtension xmlns:gpxtpx="http://www.garmin.com/xmlschemas/TrackPointExtension/v1">
            <gpxtpx:hr>139</gpxtpx:hr>
          </gpxtpx:TrackPointExtension>
        </extensions>
      </trkpt>
      <trkpt lat="42.9442" lon="1.859">
        <ele>500.7</ele>
        <time>2022-07-25T08:10:08.000Z</time>
        <extensions>
          <gpxtpx:TrackPointExtension xmlns:gpxtpx="http://www.garmin.com/xmlschemas/TrackPointExtension/v1">
            <gpxtpx:hr>139</gpxtpx:hr>
          </gpxtpx:TrackPointExtension>
        </extensions>
      </trkpt>
      <trkpt lat="42.94426" lon="1.85906">
        <ele>500.6</ele>
        <time>2022-07-25T08:10:09.000Z</time>
        <extensions>
          <gpxtpx:TrackPointExtension xmlns:gpxtpx="http://www.garmin.com/xmlschemas/TrackPointExtension/v1">
            <gpxtpx:hr>139</gpxtpx:hr>
          </gpxtpx:TrackPointExtension>
        </extensions>
      </trkpt>
      <trkpt lat="42.94431" lon="1.85912">
        <ele>500.6</ele>
        <time>2022-07-25T08:10:10.000Z</time>
        <extensions>
          <gpxtpx:TrackPointExtension xmlns:gpxtpx="http://www.garmin.com/xmlschemas/TrackPointExtension/v1">
            <gpxtpx:hr>139</gpxtpx:hr>
          </gpxtpx:TrackPointExtension>
        </extensions>
      </trkpt>
      <trkpt lat="42.94436" lon="1.85918">
        <ele>500.5</ele>
        <time>2022-07-25T08:10:11.000Z</time>
        <extensions>
          <gpxtpx:TrackPointExtension xmlns:gpxtpx="http://www.garmin.com/xmlschemas/TrackPointExtension/v1">
            <gpxtpx:hr>139</gpxtpx:hr>
          </gpxtpx:TrackPointExtension>
        </extensions>
      </trkpt>
      <trkpt lat="42.94441" lon="1.85924">
        <ele>500.4</ele>
        <time>2022-07-25T08:10:12.000Z</time>
        <extensions>
          <gpxtpx:TrackPointExtension xmlns:gpxtpx="http://www.garmin.com/xmlschemas/TrackPointExtension/v1">
            <gpxtpx:hr>139</gpxtpx:hr>
          </gpxtpx:TrackPointExtension>
        </extensions>
      </trkpt>
      <trkpt lat="42.94447" lon="1.85931">
        <ele>500.3</ele>
        <time>2022-07-25T08:10:13.000Z</time>
        <extensions>
          <gpxtpx:TrackPointExtension xmlns:gpxtpx="http://www.garmin.com/xmlschemas/TrackPointExtension/v1">
            <gpxtpx:hr>139</gpxtpx:hr>
          </gpxtpx:TrackPointExtension>
        </extensions>
      </trkpt>
      <trkpt lat="42.94452" lon="1.85937">
        <ele>500.2</ele>
        <time>2022-07-25T08:10:14.000Z</time>
        <extensions>
          <gpxtpx:TrackPointExtension xmlns:gpxtpx="http://www.garmin.com/xmlschemas/TrackPointExtension/v1">
            <gpxtpx:hr>139</gpxtpx:hr>
          </gpxtpx:TrackPointExtension>
        </extensions>
      </trkpt>
      <trkpt lat="42.94458" lon="1.85943">
        <ele>500.1</ele>
        <time>2022-07-25T08:10:15.000Z</time>
        <extensions>
          <gpxtpx:TrackPointExtension xmlns:gpxtpx="http://www.garmin.com/xmlschemas/TrackPointExtension/v1">
            <gpxtpx:hr>139</gpxtpx:hr>
          </gpxtpx:TrackPointExtension>
        </extensions>
      </trkpt>
      <trkpt lat="42.94463" lon="1.85949">
        <ele>500</ele>
        <time>2022-07-25T08:10:16.000Z</time>
        <extensions>
          <gpxtpx:TrackPointExtension xmlns:gpxtpx="http://www.garmin.com/xmlschemas/TrackPointExtension/v1">
            <gpxtpx:hr>139</gpxtpx:hr>
          </gpxtpx:TrackPointExtension>
        </extensions>
      </trkpt>
      <trkpt lat="42.94468" lon="1.85956">
        <ele>499.9</ele>
        <time>2022-07-25T08:10:17.000Z</time>
        <extensions>
          <gpxtpx:TrackPointExtension xmlns:gpxtpx="http://www.garmin.com/xmlschemas/TrackPointExtension/v1">
            <gpxtpx:hr>139</gpxtpx:hr>
          </gpxtpx:TrackPointExtension>
        </extensions>
      </trkpt>
      <trkpt lat="42.94474" lon="1.85963">
        <ele>499.8</ele>
        <time>2022-07-25T08:10:18.000Z</time>
        <extensions>
          <gpxtpx:TrackPointExtension xmlns:gpxtpx="http://www.garmin.com/xmlschemas/TrackPointExtension/v1">
            <gpxtpx:hr>139</gpxtpx:hr>
          </gpxtpx:TrackPointExtension>
        </extensions>
      </trkpt>
      <trkpt lat="42.9448" lon="1.8597">
        <ele>499.7</ele>
        <time>2022-07-25T08:10:19.000Z</time>
        <extensions>
          <gpxtpx:TrackPointExtension xmlns:gpxtpx="http://www.garmin.com/xmlschemas/TrackPointExtension/v1">
            <gpxtpx:hr>139</gpxtpx:hr>
          </gpxtpx:TrackPointExtension>
        </extensions>
      </trkpt>
      <trkpt lat="42.94485" lon="1.85977">
        <ele>499.7</ele>
        <time>2022-07-25T08:10:20.000Z</time>
        <extensions>
          <gpxtpx:TrackPointExtension xmlns:gpxtpx="http://www.garmin.com/xmlschemas/TrackPointExtension/v1">
            <gpxtpx:hr>139</gpxtpx:hr>
          </gpxtpx:TrackPointExtension>
        </extensions>
      </trkpt>
      <trkpt lat="42.9449" lon="1.85983">
        <ele>499.6</ele>
        <time>2022-07-25T08:10:21.000Z</time>
        <extensions>
          <gpxtpx:TrackPointExtension xmlns:gpxtpx="http://www.garmin.com/xmlschemas/TrackPointExtension/v1">
            <gpxtpx:hr>139</gpxtpx:hr>
          </gpxtpx:TrackPointExtension>
        </extensions>
      </trkpt>
      <trkpt lat="42.94495" lon="1.85989">
        <ele>499.5</ele>
        <time>2022-07-25T08:10:22.000Z</time>
        <extensions>
          <gpxtpx:TrackPointExtension xmlns:gpxtpx="http://www.garmin.com/xmlschemas/TrackPointExtension/v1">
            <gpxtpx:hr>139</gpxtpx:hr>
          </gpxtpx:TrackPointExtension>
        </extensions>
      </trkpt>
      <trkpt lat="42.94499" lon="1.85994">
        <ele>499.5</ele>
        <time>2022-07-25T08:10:23.000Z</time>
        <extensions>
          <gpxtpx:TrackPointExtension xmlns:gpxtpx="http://www.garmin.com/xmlschemas/TrackPointExtension/v1">
            <gpxtpx:hr>138</gpxtpx:hr>
          </gpxtpx:TrackPointExtension>
        </extensions>
      </trkpt>
      <trkpt lat="42.94503" lon="1.85998">
        <ele>499.4</ele>
        <time>2022-07-25T08:10:24.000Z</time>
        <extensions>
          <gpxtpx:TrackPointExtension xmlns:gpxtpx="http://www.garmin.com/xmlschemas/TrackPointExtension/v1">
            <gpxtpx:hr>138</gpxtpx:hr>
          </gpxtpx:TrackPointExtension>
        </extensions>
      </trkpt>
      <trkpt lat="42.94507" lon="1.86002">
        <ele>499.3</ele>
        <time>2022-07-25T08:10:25.000Z</time>
        <extensions>
          <gpxtpx:TrackPointExtension xmlns:gpxtpx="http://www.garmin.com/xmlschemas/TrackPointExtension/v1">
            <gpxtpx:hr>138</gpxtpx:hr>
          </gpxtpx:TrackPointExtension>
        </extensions>
      </trkpt>
      <trkpt lat="42.94511" lon="1.86007">
        <ele>499.3</ele>
        <time>2022-07-25T08:10:26.000Z</time>
        <extensions>
          <gpxtpx:TrackPointExtension xmlns:gpxtpx="http://www.garmin.com/xmlschemas/TrackPointExtension/v1">
            <gpxtpx:hr>138</gpxtpx:hr>
          </gpxtpx:TrackPointExtension>
        </extensions>
      </trkpt>
      <trkpt lat="42.94516" lon="1.86013">
        <ele>499.2</ele>
        <time>2022-07-25T08:10:27.000Z</time>
        <extensions>
          <gpxtpx:TrackPointExtension xmlns:gpxtpx="http://www.garmin.com/xmlschemas/TrackPointExtension/v1">
            <gpxtpx:hr>137</gpxtpx:hr>
          </gpxtpx:TrackPointExtension>
        </extensions>
      </trkpt>
      <trkpt lat="42.9452" lon="1.86019">
        <ele>499.1</ele>
        <time>2022-07-25T08:10:28.000Z</time>
        <extensions>
          <gpxtpx:TrackPointExtension xmlns:gpxtpx="http://www.garmin.com/xmlschemas/TrackPointExtension/v1">
            <gpxtpx:hr>137</gpxtpx:hr>
          </gpxtpx:TrackPointExtension>
        </extensions>
      </trkpt>
      <trkpt lat="42.94524" lon="1.86025">
        <ele>499</ele>
        <time>2022-07-25T08:10:29.000Z</time>
        <extensions>
          <gpxtpx:TrackPointExtension xmlns:gpxtpx="http://www.garmin.com/xmlschemas/TrackPointExtension/v1">
            <gpxtpx:hr>137</gpxtpx:hr>
          </gpxtpx:TrackPointExtension>
        </extensions>
      </trkpt>
      <trkpt lat="42.94528" lon="1.86032">
        <ele>498.9</ele>
        <time>2022-07-25T08:10:30.000Z</time>
        <extensions>
          <gpxtpx:TrackPointExtension xmlns:gpxtpx="http://www.garmin.com/xmlschemas/TrackPointExtension/v1">
            <gpxtpx:hr>136</gpxtpx:hr>
          </gpxtpx:TrackPointExtension>
        </extensions>
      </trkpt>
      <trkpt lat="42.94533" lon="1.86037">
        <ele>498.8</ele>
        <time>2022-07-25T08:10:31.000Z</time>
        <extensions>
          <gpxtpx:TrackPointExtension xmlns:gpxtpx="http://www.garmin.com/xmlschemas/TrackPointExtension/v1">
            <gpxtpx:hr>136</gpxtpx:hr>
          </gpxtpx:TrackPointExtension>
        </extensions>
      </trkpt>
      <trkpt lat="42.94537" lon="1.86044">
        <ele>498.7</ele>
        <time>2022-07-25T08:10:32.000Z</time>
        <extensions>
          <gpxtpx:TrackPointExtension xmlns:gpxtpx="http://www.garmin.com/xmlschemas/TrackPointExtension/v1">
            <gpxtpx:hr>136</gpxtpx:hr>
          </gpxtpx:TrackPointExtension>
        </extensions>
      </trkpt>
      <trkpt lat="42.94542" lon="1.8605">
        <ele>498.6</ele>
        <time>2022-07-25T08:10:33.000Z</time>
        <extensions>
          <gpxtpx:TrackPointExtension xmlns:gpxtpx="http://www.garmin.com/xmlschemas/TrackPointExtension/v1">
            <gpxtpx:hr>135</gpxtpx:hr>
          </gpxtpx:TrackPointExtension>
        </extensions>
      </trkpt>
      <trkpt lat="42.94546" lon="1.86057">
        <ele>498.5</ele>
        <time>2022-07-25T08:10:34.000Z</time>
        <extensions>
          <gpxtpx:TrackPointExtension xmlns:gpxtpx="http://www.garmin.com/xmlschemas/TrackPointExtension/v1">
            <gpxtpx:hr>135</gpxtpx:hr>
          </gpxtpx:TrackPointExtension>
        </extensions>
      </trkpt>
      <trkpt lat="42.94551" lon="1.86064">
        <ele>498.3</ele>
        <time>2022-07-25T08:10:35.000Z</time>
        <extensions>
          <gpxtpx:TrackPointExtension xmlns:gpxtpx="http://www.garmin.com/xmlschemas/TrackPointExtension/v1">
            <gpxtpx:hr>135</gpxtpx:hr>
          </gpxtpx:TrackPointExtension>
        </extensions>
      </trkpt>
      <trkpt lat="42.94556" lon="1.86071">
        <ele>498.2</ele>
        <time>2022-07-25T08:10:36.000Z</time>
        <extensions>
          <gpxtpx:TrackPointExtension xmlns:gpxtpx="http://www.garmin.com/xmlschemas/TrackPointExtension/v1">
            <gpxtpx:hr>135</gpxtpx:hr>
          </gpxtpx:TrackPointExtension>
        </extensions>
      </trkpt>
      <trkpt lat="42.94561" lon="1.86078">
        <ele>498.1</ele>
        <time>2022-07-25T08:10:37.000Z</time>
        <extensions>
          <gpxtpx:TrackPointExtension xmlns:gpxtpx="http://www.garmin.com/xmlschemas/TrackPointExtension/v1">
            <gpxtpx:hr>135</gpxtpx:hr>
          </gpxtpx:TrackPointExtension>
        </extensions>
      </trkpt>
      <trkpt lat="42.94566" lon="1.86085">
        <ele>498</ele>
        <time>2022-07-25T08:10:38.000Z</time>
        <extensions>
          <gpxtpx:TrackPointExtension xmlns:gpxtpx="http://www.garmin.com/xmlschemas/TrackPointExtension/v1">
            <gpxtpx:hr>135</gpxtpx:hr>
          </gpxtpx:TrackPointExtension>
        </extensions>
      </trkpt>
      <trkpt lat="42.94572" lon="1.86092">
        <ele>497.9</ele>
        <time>2022-07-25T08:10:39.000Z</time>
        <extensions>
          <gpxtpx:TrackPointExtension xmlns:gpxtpx="http://www.garmin.com/xmlschemas/TrackPointExtension/v1">
            <gpxtpx:hr>135</gpxtpx:hr>
          </gpxtpx:TrackPointExtension>
        </extensions>
      </trkpt>
      <trkpt lat="42.94578" lon="1.86099">
        <ele>497.8</ele>
        <time>2022-07-25T08:10:40.000Z</time>
        <extensions>
          <gpxtpx:TrackPointExtension xmlns:gpxtpx="http://www.garmin.com/xmlschemas/TrackPointExtension/v1">
            <gpxtpx:hr>135</gpxtpx:hr>
          </gpxtpx:TrackPointExtension>
        </extensions>
      </trkpt>
      <trkpt lat="42.94583" lon="1.86107">
        <ele>497.7</ele>
        <time>2022-07-25T08:10:41.000Z</time>
        <extensions>
          <gpxtpx:TrackPointExtension xmlns:gpxtpx="http://www.garmin.com/xmlschemas/TrackPointExtension/v1">
            <gpxtpx:hr>136</gpxtpx:hr>
          </gpxtpx:TrackPointExtension>
        </extensions>
      </trkpt>
      <trkpt lat="42.94589" lon="1.86115">
        <ele>497.6</ele>
        <time>2022-07-25T08:10:42.000Z</time>
        <extensions>
          <gpxtpx:TrackPointExtension xmlns:gpxtpx="http://www.garmin.com/xmlschemas/TrackPointExtension/v1">
            <gpxtpx:hr>136</gpxtpx:hr>
          </gpxtpx:TrackPointExtension>
        </extensions>
      </trkpt>
      <trkpt lat="42.94595" lon="1.86121">
        <ele>497.4</ele>
        <time>2022-07-25T08:10:43.000Z</time>
        <extensions>
          <gpxtpx:TrackPointExtension xmlns:gpxtpx="http://www.garmin.com/xmlschemas/TrackPointExtension/v1">
            <gpxtpx:hr>136</gpxtpx:hr>
          </gpxtpx:TrackPointExtension>
        </extensions>
      </trkpt>
      <trkpt lat="42.946" lon="1.86128">
        <ele>497.3</ele>
        <time>2022-07-25T08:10:44.000Z</time>
        <extensions>
          <gpxtpx:TrackPointExtension xmlns:gpxtpx="http://www.garmin.com/xmlschemas/TrackPointExtension/v1">
            <gpxtpx:hr>136</gpxtpx:hr>
          </gpxtpx:TrackPointExtension>
        </extensions>
      </trkpt>
      <trkpt lat="42.94606" lon="1.86135">
        <ele>497.1</ele>
        <time>2022-07-25T08:10:45.000Z</time>
        <extensions>
          <gpxtpx:TrackPointExtension xmlns:gpxtpx="http://www.garmin.com/xmlschemas/TrackPointExtension/v1">
            <gpxtpx:hr>137</gpxtpx:hr>
          </gpxtpx:TrackPointExtension>
        </extensions>
      </trkpt>
      <trkpt lat="42.9461" lon="1.86142">
        <ele>497</ele>
        <time>2022-07-25T08:10:46.000Z</time>
        <extensions>
          <gpxtpx:TrackPointExtension xmlns:gpxtpx="http://www.garmin.com/xmlschemas/TrackPointExtension/v1">
            <gpxtpx:hr>137</gpxtpx:hr>
          </gpxtpx:TrackPointExtension>
        </extensions>
      </trkpt>
      <trkpt lat="42.94615" lon="1.8615">
        <ele>496.9</ele>
        <time>2022-07-25T08:10:47.000Z</time>
        <extensions>
          <gpxtpx:TrackPointExtension xmlns:gpxtpx="http://www.garmin.com/xmlschemas/TrackPointExtension/v1">
            <gpxtpx:hr>137</gpxtpx:hr>
          </gpxtpx:TrackPointExtension>
        </extensions>
      </trkpt>
      <trkpt lat="42.94619" lon="1.86157">
        <ele>496.8</ele>
        <time>2022-07-25T08:10:48.000Z</time>
        <extensions>
          <gpxtpx:TrackPointExtension xmlns:gpxtpx="http://www.garmin.com/xmlschemas/TrackPointExtension/v1">
            <gpxtpx:hr>137</gpxtpx:hr>
          </gpxtpx:TrackPointExtension>
        </extensions>
      </trkpt>
      <trkpt lat="42.94623" lon="1.86164">
        <ele>496.7</ele>
        <time>2022-07-25T08:10:49.000Z</time>
        <extensions>
          <gpxtpx:TrackPointExtension xmlns:gpxtpx="http://www.garmin.com/xmlschemas/TrackPointExtension/v1">
            <gpxtpx:hr>138</gpxtpx:hr>
          </gpxtpx:TrackPointExtension>
        </extensions>
      </trkpt>
      <trkpt lat="42.94627" lon="1.86171">
        <ele>496.5</ele>
        <time>2022-07-25T08:10:50.000Z</time>
        <extensions>
          <gpxtpx:TrackPointExtension xmlns:gpxtpx="http://www.garmin.com/xmlschemas/TrackPointExtension/v1">
            <gpxtpx:hr>138</gpxtpx:hr>
          </gpxtpx:TrackPointExtension>
        </extensions>
      </trkpt>
      <trkpt lat="42.94632" lon="1.86179">
        <ele>496.4</ele>
        <time>2022-07-25T08:10:51.000Z</time>
        <extensions>
          <gpxtpx:TrackPointExtension xmlns:gpxtpx="http://www.garmin.com/xmlschemas/TrackPointExtension/v1">
            <gpxtpx:hr>138</gpxtpx:hr>
          </gpxtpx:TrackPointExtension>
        </extensions>
      </trkpt>
      <trkpt lat="42.94636" lon="1.86186">
        <ele>496.3</ele>
        <time>2022-07-25T08:10:52.000Z</time>
        <extensions>
          <gpxtpx:TrackPointExtension xmlns:gpxtpx="http://www.garmin.com/xmlschemas/TrackPointExtension/v1">
            <gpxtpx:hr>138</gpxtpx:hr>
          </gpxtpx:TrackPointExtension>
        </extensions>
      </trkpt>
      <trkpt lat="42.94641" lon="1.86193">
        <ele>496.2</ele>
        <time>2022-07-25T08:10:53.000Z</time>
        <extensions>
          <gpxtpx:TrackPointExtension xmlns:gpxtpx="http://www.garmin.com/xmlschemas/TrackPointExtension/v1">
            <gpxtpx:hr>138</gpxtpx:hr>
          </gpxtpx:TrackPointExtension>
        </extensions>
      </trkpt>
      <trkpt lat="42.94646" lon="1.862">
        <ele>496.1</ele>
        <time>2022-07-25T08:10:54.000Z</time>
        <extensions>
          <gpxtpx:TrackPointExtension xmlns:gpxtpx="http://www.garmin.com/xmlschemas/TrackPointExtension/v1">
            <gpxtpx:hr>139</gpxtpx:hr>
          </gpxtpx:TrackPointExtension>
        </extensions>
      </trkpt>
      <trkpt lat="42.9465" lon="1.86207">
        <ele>496</ele>
        <time>2022-07-25T08:10:55.000Z</time>
        <extensions>
          <gpxtpx:TrackPointExtension xmlns:gpxtpx="http://www.garmin.com/xmlschemas/TrackPointExtension/v1">
            <gpxtpx:hr>139</gpxtpx:hr>
          </gpxtpx:TrackPointExtension>
        </extensions>
      </trkpt>
      <trkpt lat="42.94654" lon="1.86215">
        <ele>495.9</ele>
        <time>2022-07-25T08:10:56.000Z</time>
        <extensions>
          <gpxtpx:TrackPointExtension xmlns:gpxtpx="http://www.garmin.com/xmlschemas/TrackPointExtension/v1">
            <gpxtpx:hr>139</gpxtpx:hr>
          </gpxtpx:TrackPointExtension>
        </extensions>
      </trkpt>
      <trkpt lat="42.94659" lon="1.86222">
        <ele>495.8</ele>
        <time>2022-07-25T08:10:57.000Z</time>
        <extensions>
          <gpxtpx:TrackPointExtension xmlns:gpxtpx="http://www.garmin.com/xmlschemas/TrackPointExtension/v1">
            <gpxtpx:hr>139</gpxtpx:hr>
          </gpxtpx:TrackPointExtension>
        </extensions>
      </trkpt>
      <trkpt lat="42.94663" lon="1.8623">
        <ele>495.7</ele>
        <time>2022-07-25T08:10:58.000Z</time>
        <extensions>
          <gpxtpx:TrackPointExtension xmlns:gpxtpx="http://www.garmin.com/xmlschemas/TrackPointExtension/v1">
            <gpxtpx:hr>139</gpxtpx:hr>
          </gpxtpx:TrackPointExtension>
        </extensions>
      </trkpt>
      <trkpt lat="42.94668" lon="1.86238">
        <ele>495.6</ele>
        <time>2022-07-25T08:10:59.000Z</time>
        <extensions>
          <gpxtpx:TrackPointExtension xmlns:gpxtpx="http://www.garmin.com/xmlschemas/TrackPointExtension/v1">
            <gpxtpx:hr>139</gpxtpx:hr>
          </gpxtpx:TrackPointExtension>
        </extensions>
      </trkpt>
      <trkpt lat="42.94673" lon="1.86245">
        <ele>495.5</ele>
        <time>2022-07-25T08:11:00.000Z</time>
        <extensions>
          <gpxtpx:TrackPointExtension xmlns:gpxtpx="http://www.garmin.com/xmlschemas/TrackPointExtension/v1">
            <gpxtpx:hr>140</gpxtpx:hr>
          </gpxtpx:TrackPointExtension>
        </extensions>
      </trkpt>
      <trkpt lat="42.94678" lon="1.86253">
        <ele>495.4</ele>
        <time>2022-07-25T08:11:01.000Z</time>
        <extensions>
          <gpxtpx:TrackPointExtension xmlns:gpxtpx="http://www.garmin.com/xmlschemas/TrackPointExtension/v1">
            <gpxtpx:hr>140</gpxtpx:hr>
          </gpxtpx:TrackPointExtension>
        </extensions>
      </trkpt>
      <trkpt lat="42.94684" lon="1.86261">
        <ele>495.3</ele>
        <time>2022-07-25T08:11:02.000Z</time>
        <extensions>
          <gpxtpx:TrackPointExtension xmlns:gpxtpx="http://www.garmin.com/xmlschemas/TrackPointExtension/v1">
            <gpxtpx:hr>140</gpxtpx:hr>
          </gpxtpx:TrackPointExtension>
        </extensions>
      </trkpt>
      <trkpt lat="42.94689" lon="1.86269">
        <ele>495.2</ele>
        <time>2022-07-25T08:11:03.000Z</time>
        <extensions>
          <gpxtpx:TrackPointExtension xmlns:gpxtpx="http://www.garmin.com/xmlschemas/TrackPointExtension/v1">
            <gpxtpx:hr>140</gpxtpx:hr>
          </gpxtpx:TrackPointExtension>
        </extensions>
      </trkpt>
      <trkpt lat="42.94695" lon="1.86276">
        <ele>495.1</ele>
        <time>2022-07-25T08:11:04.000Z</time>
        <extensions>
          <gpxtpx:TrackPointExtension xmlns:gpxtpx="http://www.garmin.com/xmlschemas/TrackPointExtension/v1">
            <gpxtpx:hr>140</gpxtpx:hr>
          </gpxtpx:TrackPointExtension>
        </extensions>
      </trkpt>
      <trkpt lat="42.947" lon="1.86284">
        <ele>495</ele>
        <time>2022-07-25T08:11:05.000Z</time>
        <extensions>
          <gpxtpx:TrackPointExtension xmlns:gpxtpx="http://www.garmin.com/xmlschemas/TrackPointExtension/v1">
            <gpxtpx:hr>140</gpxtpx:hr>
          </gpxtpx:TrackPointExtension>
        </extensions>
      </trkpt>
      <trkpt lat="42.94706" lon="1.86292">
        <ele>494.9</ele>
        <time>2022-07-25T08:11:06.000Z</time>
        <extensions>
          <gpxtpx:TrackPointExtension xmlns:gpxtpx="http://www.garmin.com/xmlschemas/TrackPointExtension/v1">
            <gpxtpx:hr>141</gpxtpx:hr>
          </gpxtpx:TrackPointExtension>
        </extensions>
      </trkpt>
      <trkpt lat="42.94711" lon="1.86299">
        <ele>494.8</ele>
        <time>2022-07-25T08:11:07.000Z</time>
        <extensions>
          <gpxtpx:TrackPointExtension xmlns:gpxtpx="http://www.garmin.com/xmlschemas/TrackPointExtension/v1">
            <gpxtpx:hr>141</gpxtpx:hr>
          </gpxtpx:TrackPointExtension>
        </extensions>
      </trkpt>
      <trkpt lat="42.94716" lon="1.86307">
        <ele>494.6</ele>
        <time>2022-07-25T08:11:08.000Z</time>
        <extensions>
          <gpxtpx:TrackPointExtension xmlns:gpxtpx="http://www.garmin.com/xmlschemas/TrackPointExtension/v1">
            <gpxtpx:hr>141</gpxtpx:hr>
          </gpxtpx:TrackPointExtension>
        </extensions>
      </trkpt>
      <trkpt lat="42.94721" lon="1.86314">
        <ele>494.5</ele>
        <time>2022-07-25T08:11:09.000Z</time>
        <extensions>
          <gpxtpx:TrackPointExtension xmlns:gpxtpx="http://www.garmin.com/xmlschemas/TrackPointExtension/v1">
            <gpxtpx:hr>141</gpxtpx:hr>
          </gpxtpx:TrackPointExtension>
        </extensions>
      </trkpt>
      <trkpt lat="42.94727" lon="1.86322">
        <ele>494.4</ele>
        <time>2022-07-25T08:11:10.000Z</time>
        <extensions>
          <gpxtpx:TrackPointExtension xmlns:gpxtpx="http://www.garmin.com/xmlschemas/TrackPointExtension/v1">
            <gpxtpx:hr>142</gpxtpx:hr>
          </gpxtpx:TrackPointExtension>
        </extensions>
      </trkpt>
      <trkpt lat="42.94732" lon="1.8633">
        <ele>494.3</ele>
        <time>2022-07-25T08:11:11.000Z</time>
        <extensions>
          <gpxtpx:TrackPointExtension xmlns:gpxtpx="http://www.garmin.com/xmlschemas/TrackPointExtension/v1">
            <gpxtpx:hr>142</gpxtpx:hr>
          </gpxtpx:TrackPointExtension>
        </extensions>
      </trkpt>
      <trkpt lat="42.94738" lon="1.86338">
        <ele>494.1</ele>
        <time>2022-07-25T08:11:12.000Z</time>
        <extensions>
          <gpxtpx:TrackPointExtension xmlns:gpxtpx="http://www.garmin.com/xmlschemas/TrackPointExtension/v1">
            <gpxtpx:hr>142</gpxtpx:hr>
          </gpxtpx:TrackPointExtension>
        </extensions>
      </trkpt>
      <trkpt lat="42.94743" lon="1.86346">
        <ele>494</ele>
        <time>2022-07-25T08:11:13.000Z</time>
        <extensions>
          <gpxtpx:TrackPointExtension xmlns:gpxtpx="http://www.garmin.com/xmlschemas/TrackPointExtension/v1">
            <gpxtpx:hr>142</gpxtpx:hr>
          </gpxtpx:TrackPointExtension>
        </extensions>
      </trkpt>
      <trkpt lat="42.94748" lon="1.86354">
        <ele>493.8</ele>
        <time>2022-07-25T08:11:14.000Z</time>
        <extensions>
          <gpxtpx:TrackPointExtension xmlns:gpxtpx="http://www.garmin.com/xmlschemas/TrackPointExtension/v1">
            <gpxtpx:hr>143</gpxtpx:hr>
          </gpxtpx:TrackPointExtension>
        </extensions>
      </trkpt>
      <trkpt lat="42.94753" lon="1.86361">
        <ele>493.7</ele>
        <time>2022-07-25T08:11:15.000Z</time>
        <extensions>
          <gpxtpx:TrackPointExtension xmlns:gpxtpx="http://www.garmin.com/xmlschemas/TrackPointExtension/v1">
            <gpxtpx:hr>143</gpxtpx:hr>
          </gpxtpx:TrackPointExtension>
        </extensions>
      </trkpt>
      <trkpt lat="42.94758" lon="1.86368">
        <ele>493.6</ele>
        <time>2022-07-25T08:11:16.000Z</time>
        <extensions>
          <gpxtpx:TrackPointExtension xmlns:gpxtpx="http://www.garmin.com/xmlschemas/TrackPointExtension/v1">
            <gpxtpx:hr>143</gpxtpx:hr>
          </gpxtpx:TrackPointExtension>
        </extensions>
      </trkpt>
      <trkpt lat="42.94763" lon="1.86376">
        <ele>493.5</ele>
        <time>2022-07-25T08:11:17.000Z</time>
        <extensions>
          <gpxtpx:TrackPointExtension xmlns:gpxtpx="http://www.garmin.com/xmlschemas/TrackPointExtension/v1">
            <gpxtpx:hr>143</gpxtpx:hr>
          </gpxtpx:TrackPointExtension>
        </extensions>
      </trkpt>
      <trkpt lat="42.94769" lon="1.86383">
        <ele>493.4</ele>
        <time>2022-07-25T08:11:18.000Z</time>
        <extensions>
          <gpxtpx:TrackPointExtension xmlns:gpxtpx="http://www.garmin.com/xmlschemas/TrackPointExtension/v1">
            <gpxtpx:hr>143</gpxtpx:hr>
          </gpxtpx:TrackPointExtension>
        </extensions>
      </trkpt>
      <trkpt lat="42.94775" lon="1.8639">
        <ele>493.3</ele>
        <time>2022-07-25T08:11:19.000Z</time>
        <extensions>
          <gpxtpx:TrackPointExtension xmlns:gpxtpx="http://www.garmin.com/xmlschemas/TrackPointExtension/v1">
            <gpxtpx:hr>143</gpxtpx:hr>
          </gpxtpx:TrackPointExtension>
        </extensions>
      </trkpt>
      <trkpt lat="42.94781" lon="1.86396">
        <ele>493.2</ele>
        <time>2022-07-25T08:11:20.000Z</time>
        <extensions>
          <gpxtpx:TrackPointExtension xmlns:gpxtpx="http://www.garmin.com/xmlschemas/TrackPointExtension/v1">
            <gpxtpx:hr>143</gpxtpx:hr>
          </gpxtpx:TrackPointExtension>
        </extensions>
      </trkpt>
      <trkpt lat="42.94786" lon="1.86403">
        <ele>493.1</ele>
        <time>2022-07-25T08:11:21.000Z</time>
        <extensions>
          <gpxtpx:TrackPointExtension xmlns:gpxtpx="http://www.garmin.com/xmlschemas/TrackPointExtension/v1">
            <gpxtpx:hr>144</gpxtpx:hr>
          </gpxtpx:TrackPointExtension>
        </extensions>
      </trkpt>
      <trkpt lat="42.94792" lon="1.8641">
        <ele>493</ele>
        <time>2022-07-25T08:11:22.000Z</time>
        <extensions>
          <gpxtpx:TrackPointExtension xmlns:gpxtpx="http://www.garmin.com/xmlschemas/TrackPointExtension/v1">
            <gpxtpx:hr>144</gpxtpx:hr>
          </gpxtpx:TrackPointExtension>
        </extensions>
      </trkpt>
      <trkpt lat="42.94798" lon="1.86416">
        <ele>492.9</ele>
        <time>2022-07-25T08:11:23.000Z</time>
        <extensions>
          <gpxtpx:TrackPointExtension xmlns:gpxtpx="http://www.garmin.com/xmlschemas/TrackPointExtension/v1">
            <gpxtpx:hr>144</gpxtpx:hr>
          </gpxtpx:TrackPointExtension>
        </extensions>
      </trkpt>
      <trkpt lat="42.94805" lon="1.86422">
        <ele>492.8</ele>
        <time>2022-07-25T08:11:24.000Z</time>
        <extensions>
          <gpxtpx:TrackPointExtension xmlns:gpxtpx="http://www.garmin.com/xmlschemas/TrackPointExtension/v1">
            <gpxtpx:hr>144</gpxtpx:hr>
          </gpxtpx:TrackPointExtension>
        </extensions>
      </trkpt>
      <trkpt lat="42.94811" lon="1.86428">
        <ele>492.7</ele>
        <time>2022-07-25T08:11:25.000Z</time>
        <extensions>
          <gpxtpx:TrackPointExtension xmlns:gpxtpx="http://www.garmin.com/xmlschemas/TrackPointExtension/v1">
            <gpxtpx:hr>144</gpxtpx:hr>
          </gpxtpx:TrackPointExtension>
        </extensions>
      </trkpt>
      <trkpt lat="42.94816" lon="1.86433">
        <ele>492.6</ele>
        <time>2022-07-25T08:11:26.000Z</time>
        <extensions>
          <gpxtpx:TrackPointExtension xmlns:gpxtpx="http://www.garmin.com/xmlschemas/TrackPointExtension/v1">
            <gpxtpx:hr>143</gpxtpx:hr>
          </gpxtpx:TrackPointExtension>
        </extensions>
      </trkpt>
      <trkpt lat="42.94822" lon="1.86439">
        <ele>492.5</ele>
        <time>2022-07-25T08:11:27.000Z</time>
        <extensions>
          <gpxtpx:TrackPointExtension xmlns:gpxtpx="http://www.garmin.com/xmlschemas/TrackPointExtension/v1">
            <gpxtpx:hr>143</gpxtpx:hr>
          </gpxtpx:TrackPointExtension>
        </extensions>
      </trkpt>
      <trkpt lat="42.94827" lon="1.86445">
        <ele>492.4</ele>
        <time>2022-07-25T08:11:28.000Z</time>
        <extensions>
          <gpxtpx:TrackPointExtension xmlns:gpxtpx="http://www.garmin.com/xmlschemas/TrackPointExtension/v1">
            <gpxtpx:hr>143</gpxtpx:hr>
          </gpxtpx:TrackPointExtension>
        </extensions>
      </trkpt>
      <trkpt lat="42.94833" lon="1.8645">
        <ele>492.3</ele>
        <time>2022-07-25T08:11:29.000Z</time>
        <extensions>
          <gpxtpx:TrackPointExtension xmlns:gpxtpx="http://www.garmin.com/xmlschemas/TrackPointExtension/v1">
            <gpxtpx:hr>143</gpxtpx:hr>
          </gpxtpx:TrackPointExtension>
        </extensions>
      </trkpt>
      <trkpt lat="42.94839" lon="1.86455">
        <ele>492.2</ele>
        <time>2022-07-25T08:11:30.000Z</time>
        <extensions>
          <gpxtpx:TrackPointExtension xmlns:gpxtpx="http://www.garmin.com/xmlschemas/TrackPointExtension/v1">
            <gpxtpx:hr>142</gpxtpx:hr>
          </gpxtpx:TrackPointExtension>
        </extensions>
      </trkpt>
      <trkpt lat="42.94845" lon="1.8646">
        <ele>492.1</ele>
        <time>2022-07-25T08:11:31.000Z</time>
        <extensions>
          <gpxtpx:TrackPointExtension xmlns:gpxtpx="http://www.garmin.com/xmlschemas/TrackPointExtension/v1">
            <gpxtpx:hr>142</gpxtpx:hr>
          </gpxtpx:TrackPointExtension>
        </extensions>
      </trkpt>
      <trkpt lat="42.94852" lon="1.86465">
        <ele>492</ele>
        <time>2022-07-25T08:11:32.000Z</time>
        <extensions>
          <gpxtpx:TrackPointExtension xmlns:gpxtpx="http://www.garmin.com/xmlschemas/TrackPointExtension/v1">
            <gpxtpx:hr>142</gpxtpx:hr>
          </gpxtpx:TrackPointExtension>
        </extensions>
      </trkpt>
      <trkpt lat="42.94859" lon="1.86469">
        <ele>491.9</ele>
        <time>2022-07-25T08:11:33.000Z</time>
        <extensions>
          <gpxtpx:TrackPointExtension xmlns:gpxtpx="http://www.garmin.com/xmlschemas/TrackPointExtension/v1">
            <gpxtpx:hr>141</gpxtpx:hr>
          </gpxtpx:TrackPointExtension>
        </extensions>
      </trkpt>
      <trkpt lat="42.94866" lon="1.86474">
        <ele>491.8</ele>
        <time>2022-07-25T08:11:34.000Z</time>
        <extensions>
          <gpxtpx:TrackPointExtension xmlns:gpxtpx="http://www.garmin.com/xmlschemas/TrackPointExtension/v1">
            <gpxtpx:hr>140</gpxtpx:hr>
          </gpxtpx:TrackPointExtension>
        </extensions>
      </trkpt>
      <trkpt lat="42.94873" lon="1.86479">
        <ele>491.7</ele>
        <time>2022-07-25T08:11:35.000Z</time>
        <extensions>
          <gpxtpx:TrackPointExtension xmlns:gpxtpx="http://www.garmin.com/xmlschemas/TrackPointExtension/v1">
            <gpxtpx:hr>139</gpxtpx:hr>
          </gpxtpx:TrackPointExtension>
        </extensions>
      </trkpt>
      <trkpt lat="42.94879" lon="1.86483">
        <ele>491.5</ele>
        <time>2022-07-25T08:11:36.000Z</time>
        <extensions>
          <gpxtpx:TrackPointExtension xmlns:gpxtpx="http://www.garmin.com/xmlschemas/TrackPointExtension/v1">
            <gpxtpx:hr>139</gpxtpx:hr>
          </gpxtpx:TrackPointExtension>
        </extensions>
      </trkpt>
      <trkpt lat="42.94886" lon="1.86486">
        <ele>491.4</ele>
        <time>2022-07-25T08:11:37.000Z</time>
        <extensions>
          <gpxtpx:TrackPointExtension xmlns:gpxtpx="http://www.garmin.com/xmlschemas/TrackPointExtension/v1">
            <gpxtpx:hr>139</gpxtpx:hr>
          </gpxtpx:TrackPointExtension>
        </extensions>
      </trkpt>
      <trkpt lat="42.94893" lon="1.86489">
        <ele>491.2</ele>
        <time>2022-07-25T08:11:38.000Z</time>
        <extensions>
          <gpxtpx:TrackPointExtension xmlns:gpxtpx="http://www.garmin.com/xmlschemas/TrackPointExtension/v1">
            <gpxtpx:hr>138</gpxtpx:hr>
          </gpxtpx:TrackPointExtension>
        </extensions>
      </trkpt>
      <trkpt lat="42.949" lon="1.86493">
        <ele>491.1</ele>
        <time>2022-07-25T08:11:39.000Z</time>
        <extensions>
          <gpxtpx:TrackPointExtension xmlns:gpxtpx="http://www.garmin.com/xmlschemas/TrackPointExtension/v1">
            <gpxtpx:hr>138</gpxtpx:hr>
          </gpxtpx:TrackPointExtension>
        </extensions>
      </trkpt>
      <trkpt lat="42.94907" lon="1.86497">
        <ele>491</ele>
        <time>2022-07-25T08:11:40.000Z</time>
        <extensions>
          <gpxtpx:TrackPointExtension xmlns:gpxtpx="http://www.garmin.com/xmlschemas/TrackPointExtension/v1">
            <gpxtpx:hr>138</gpxtpx:hr>
          </gpxtpx:TrackPointExtension>
        </extensions>
      </trkpt>
      <trkpt lat="42.94914" lon="1.86502">
        <ele>490.9</ele>
        <time>2022-07-25T08:11:41.000Z</time>
        <extensions>
          <gpxtpx:TrackPointExtension xmlns:gpxtpx="http://www.garmin.com/xmlschemas/TrackPointExtension/v1">
            <gpxtpx:hr>138</gpxtpx:hr>
          </gpxtpx:TrackPointExtension>
        </extensions>
      </trkpt>
      <trkpt lat="42.94921" lon="1.86505">
        <ele>490.8</ele>
        <time>2022-07-25T08:11:42.000Z</time>
        <extensions>
          <gpxtpx:TrackPointExtension xmlns:gpxtpx="http://www.garmin.com/xmlschemas/TrackPointExtension/v1">
            <gpxtpx:hr>139</gpxtpx:hr>
          </gpxtpx:TrackPointExtension>
        </extensions>
      </trkpt>
      <trkpt lat="42.94928" lon="1.86509">
        <ele>490.6</ele>
        <time>2022-07-25T08:11:43.000Z</time>
        <extensions>
          <gpxtpx:TrackPointExtension xmlns:gpxtpx="http://www.garmin.com/xmlschemas/TrackPointExtension/v1">
            <gpxtpx:hr>139</gpxtpx:hr>
          </gpxtpx:TrackPointExtension>
        </extensions>
      </trkpt>
      <trkpt lat="42.94935" lon="1.86512">
        <ele>490.5</ele>
        <time>2022-07-25T08:11:44.000Z</time>
        <extensions>
          <gpxtpx:TrackPointExtension xmlns:gpxtpx="http://www.garmin.com/xmlschemas/TrackPointExtension/v1">
            <gpxtpx:hr>139</gpxtpx:hr>
          </gpxtpx:TrackPointExtension>
        </extensions>
      </trkpt>
      <trkpt lat="42.94943" lon="1.86516">
        <ele>490.4</ele>
        <time>2022-07-25T08:11:45.000Z</time>
        <extensions>
          <gpxtpx:TrackPointExtension xmlns:gpxtpx="http://www.garmin.com/xmlschemas/TrackPointExtension/v1">
            <gpxtpx:hr>139</gpxtpx:hr>
          </gpxtpx:TrackPointExtension>
        </extensions>
      </trkpt>
      <trkpt lat="42.94951" lon="1.86518">
        <ele>490.3</ele>
        <time>2022-07-25T08:11:46.000Z</time>
        <extensions>
          <gpxtpx:TrackPointExtension xmlns:gpxtpx="http://www.garmin.com/xmlschemas/TrackPointExtension/v1">
            <gpxtpx:hr>139</gpxtpx:hr>
          </gpxtpx:TrackPointExtension>
        </extensions>
      </trkpt>
      <trkpt lat="42.94958" lon="1.8652">
        <ele>490.2</ele>
        <time>2022-07-25T08:11:47.000Z</time>
        <extensions>
          <gpxtpx:TrackPointExtension xmlns:gpxtpx="http://www.garmin.com/xmlschemas/TrackPointExtension/v1">
            <gpxtpx:hr>140</gpxtpx:hr>
          </gpxtpx:TrackPointExtension>
        </extensions>
      </trkpt>
      <trkpt lat="42.94966" lon="1.86521">
        <ele>490.1</ele>
        <time>2022-07-25T08:11:48.000Z</time>
        <extensions>
          <gpxtpx:TrackPointExtension xmlns:gpxtpx="http://www.garmin.com/xmlschemas/TrackPointExtension/v1">
            <gpxtpx:hr>140</gpxtpx:hr>
          </gpxtpx:TrackPointExtension>
        </extensions>
      </trkpt>
      <trkpt lat="42.94973" lon="1.86523">
        <ele>490</ele>
        <time>2022-07-25T08:11:49.000Z</time>
        <extensions>
          <gpxtpx:TrackPointExtension xmlns:gpxtpx="http://www.garmin.com/xmlschemas/TrackPointExtension/v1">
            <gpxtpx:hr>140</gpxtpx:hr>
          </gpxtpx:TrackPointExtension>
        </extensions>
      </trkpt>
      <trkpt lat="42.94981" lon="1.86524">
        <ele>489.9</ele>
        <time>2022-07-25T08:11:50.000Z</time>
        <extensions>
          <gpxtpx:TrackPointExtension xmlns:gpxtpx="http://www.garmin.com/xmlschemas/TrackPointExtension/v1">
            <gpxtpx:hr>140</gpxtpx:hr>
          </gpxtpx:TrackPointExtension>
        </extensions>
      </trkpt>
      <trkpt lat="42.94989" lon="1.86524">
        <ele>489.7</ele>
        <time>2022-07-25T08:11:51.000Z</time>
        <extensions>
          <gpxtpx:TrackPointExtension xmlns:gpxtpx="http://www.garmin.com/xmlschemas/TrackPointExtension/v1">
            <gpxtpx:hr>140</gpxtpx:hr>
          </gpxtpx:TrackPointExtension>
        </extensions>
      </trkpt>
      <trkpt lat="42.94996" lon="1.86524">
        <ele>489.6</ele>
        <time>2022-07-25T08:11:52.000Z</time>
        <extensions>
          <gpxtpx:TrackPointExtension xmlns:gpxtpx="http://www.garmin.com/xmlschemas/TrackPointExtension/v1">
            <gpxtpx:hr>140</gpxtpx:hr>
          </gpxtpx:TrackPointExtension>
        </extensions>
      </trkpt>
      <trkpt lat="42.95003" lon="1.86524">
        <ele>489.5</ele>
        <time>2022-07-25T08:11:53.000Z</time>
        <extensions>
          <gpxtpx:TrackPointExtension xmlns:gpxtpx="http://www.garmin.com/xmlschemas/TrackPointExtension/v1">
            <gpxtpx:hr>140</gpxtpx:hr>
          </gpxtpx:TrackPointExtension>
        </extensions>
      </trkpt>
      <trkpt lat="42.9501" lon="1.86523">
        <ele>489.4</ele>
        <time>2022-07-25T08:11:54.000Z</time>
        <extensions>
          <gpxtpx:TrackPointExtension xmlns:gpxtpx="http://www.garmin.com/xmlschemas/TrackPointExtension/v1">
            <gpxtpx:hr>140</gpxtpx:hr>
          </gpxtpx:TrackPointExtension>
        </extensions>
      </trkpt>
      <trkpt lat="42.95018" lon="1.86523">
        <ele>489.2</ele>
        <time>2022-07-25T08:11:55.000Z</time>
        <extensions>
          <gpxtpx:TrackPointExtension xmlns:gpxtpx="http://www.garmin.com/xmlschemas/TrackPointExtension/v1">
            <gpxtpx:hr>140</gpxtpx:hr>
          </gpxtpx:TrackPointExtension>
        </extensions>
      </trkpt>
      <trkpt lat="42.95025" lon="1.86522">
        <ele>489.1</ele>
        <time>2022-07-25T08:11:56.000Z</time>
        <extensions>
          <gpxtpx:TrackPointExtension xmlns:gpxtpx="http://www.garmin.com/xmlschemas/TrackPointExtension/v1">
            <gpxtpx:hr>140</gpxtpx:hr>
          </gpxtpx:TrackPointExtension>
        </extensions>
      </trkpt>
      <trkpt lat="42.95032" lon="1.86522">
        <ele>489</ele>
        <time>2022-07-25T08:11:57.000Z</time>
        <extensions>
          <gpxtpx:TrackPointExtension xmlns:gpxtpx="http://www.garmin.com/xmlschemas/TrackPointExtension/v1">
            <gpxtpx:hr>140</gpxtpx:hr>
          </gpxtpx:TrackPointExtension>
        </extensions>
      </trkpt>
      <trkpt lat="42.9504" lon="1.8652">
        <ele>488.8</ele>
        <time>2022-07-25T08:11:58.000Z</time>
        <extensions>
          <gpxtpx:TrackPointExtension xmlns:gpxtpx="http://www.garmin.com/xmlschemas/TrackPointExtension/v1">
            <gpxtpx:hr>140</gpxtpx:hr>
          </gpxtpx:TrackPointExtension>
        </extensions>
      </trkpt>
      <trkpt lat="42.95047" lon="1.86519">
        <ele>488.7</ele>
        <time>2022-07-25T08:11:59.000Z</time>
        <extensions>
          <gpxtpx:TrackPointExtension xmlns:gpxtpx="http://www.garmin.com/xmlschemas/TrackPointExtension/v1">
            <gpxtpx:hr>140</gpxtpx:hr>
          </gpxtpx:TrackPointExtension>
        </extensions>
      </trkpt>
      <trkpt lat="42.95055" lon="1.86518">
        <ele>488.6</ele>
        <time>2022-07-25T08:12:00.000Z</time>
        <extensions>
          <gpxtpx:TrackPointExtension xmlns:gpxtpx="http://www.garmin.com/xmlschemas/TrackPointExtension/v1">
            <gpxtpx:hr>140</gpxtpx:hr>
          </gpxtpx:TrackPointExtension>
        </extensions>
      </trkpt>
      <trkpt lat="42.95062" lon="1.86516">
        <ele>488.5</ele>
        <time>2022-07-25T08:12:01.000Z</time>
        <extensions>
          <gpxtpx:TrackPointExtension xmlns:gpxtpx="http://www.garmin.com/xmlschemas/TrackPointExtension/v1">
            <gpxtpx:hr>140</gpxtpx:hr>
          </gpxtpx:TrackPointExtension>
        </extensions>
      </trkpt>
      <trkpt lat="42.95069" lon="1.86514">
        <ele>488.3</ele>
        <time>2022-07-25T08:12:02.000Z</time>
        <extensions>
          <gpxtpx:TrackPointExtension xmlns:gpxtpx="http://www.garmin.com/xmlschemas/TrackPointExtension/v1">
            <gpxtpx:hr>140</gpxtpx:hr>
          </gpxtpx:TrackPointExtension>
        </extensions>
      </trkpt>
      <trkpt lat="42.95077" lon="1.86512">
        <ele>488.2</ele>
        <time>2022-07-25T08:12:03.000Z</time>
        <extensions>
          <gpxtpx:TrackPointExtension xmlns:gpxtpx="http://www.garmin.com/xmlschemas/TrackPointExtension/v1">
            <gpxtpx:hr>140</gpxtpx:hr>
          </gpxtpx:TrackPointExtension>
        </extensions>
      </trkpt>
      <trkpt lat="42.95084" lon="1.86509">
        <ele>488.1</ele>
        <time>2022-07-25T08:12:04.000Z</time>
        <extensions>
          <gpxtpx:TrackPointExtension xmlns:gpxtpx="http://www.garmin.com/xmlschemas/TrackPointExtension/v1">
            <gpxtpx:hr>141</gpxtpx:hr>
          </gpxtpx:TrackPointExtension>
        </extensions>
      </trkpt>
      <trkpt lat="42.95091" lon="1.86506">
        <ele>488</ele>
        <time>2022-07-25T08:12:05.000Z</time>
        <extensions>
          <gpxtpx:TrackPointExtension xmlns:gpxtpx="http://www.garmin.com/xmlschemas/TrackPointExtension/v1">
            <gpxtpx:hr>141</gpxtpx:hr>
          </gpxtpx:TrackPointExtension>
        </extensions>
      </trkpt>
      <trkpt lat="42.95098" lon="1.86503">
        <ele>487.9</ele>
        <time>2022-07-25T08:12:06.000Z</time>
        <extensions>
          <gpxtpx:TrackPointExtension xmlns:gpxtpx="http://www.garmin.com/xmlschemas/TrackPointExtension/v1">
            <gpxtpx:hr>141</gpxtpx:hr>
          </gpxtpx:TrackPointExtension>
        </extensions>
      </trkpt>
      <trkpt lat="42.95105" lon="1.865">
        <ele>487.7</ele>
        <time>2022-07-25T08:12:07.000Z</time>
        <extensions>
          <gpxtpx:TrackPointExtension xmlns:gpxtpx="http://www.garmin.com/xmlschemas/TrackPointExtension/v1">
            <gpxtpx:hr>141</gpxtpx:hr>
          </gpxtpx:TrackPointExtension>
        </extensions>
      </trkpt>
      <trkpt lat="42.95112" lon="1.86497">
        <ele>487.6</ele>
        <time>2022-07-25T08:12:08.000Z</time>
        <extensions>
          <gpxtpx:TrackPointExtension xmlns:gpxtpx="http://www.garmin.com/xmlschemas/TrackPointExtension/v1">
            <gpxtpx:hr>141</gpxtpx:hr>
          </gpxtpx:TrackPointExtension>
        </extensions>
      </trkpt>
      <trkpt lat="42.95119" lon="1.86493">
        <ele>487.5</ele>
        <time>2022-07-25T08:12:09.000Z</time>
        <extensions>
          <gpxtpx:TrackPointExtension xmlns:gpxtpx="http://www.garmin.com/xmlschemas/TrackPointExtension/v1">
            <gpxtpx:hr>141</gpxtpx:hr>
          </gpxtpx:TrackPointExtension>
        </extensions>
      </trkpt>
      <trkpt lat="42.95125" lon="1.86489">
        <ele>487.4</ele>
        <time>2022-07-25T08:12:10.000Z</time>
        <extensions>
          <gpxtpx:TrackPointExtension xmlns:gpxtpx="http://www.garmin.com/xmlschemas/TrackPointExtension/v1">
            <gpxtpx:hr>141</gpxtpx:hr>
          </gpxtpx:TrackPointExtension>
        </extensions>
      </trkpt>
      <trkpt lat="42.95132" lon="1.86486">
        <ele>487.2</ele>
        <time>2022-07-25T08:12:11.000Z</time>
        <extensions>
          <gpxtpx:TrackPointExtension xmlns:gpxtpx="http://www.garmin.com/xmlschemas/TrackPointExtension/v1">
            <gpxtpx:hr>141</gpxtpx:hr>
          </gpxtpx:TrackPointExtension>
        </extensions>
      </trkpt>
      <trkpt lat="42.95139" lon="1.86482">
        <ele>487.1</ele>
        <time>2022-07-25T08:12:12.000Z</time>
        <extensions>
          <gpxtpx:TrackPointExtension xmlns:gpxtpx="http://www.garmin.com/xmlschemas/TrackPointExtension/v1">
            <gpxtpx:hr>141</gpxtpx:hr>
          </gpxtpx:TrackPointExtension>
        </extensions>
      </trkpt>
      <trkpt lat="42.95147" lon="1.86478">
        <ele>487</ele>
        <time>2022-07-25T08:12:13.000Z</time>
        <extensions>
          <gpxtpx:TrackPointExtension xmlns:gpxtpx="http://www.garmin.com/xmlschemas/TrackPointExtension/v1">
            <gpxtpx:hr>141</gpxtpx:hr>
          </gpxtpx:TrackPointExtension>
        </extensions>
      </trkpt>
      <trkpt lat="42.95154" lon="1.86474">
        <ele>486.9</ele>
        <time>2022-07-25T08:12:14.000Z</time>
        <extensions>
          <gpxtpx:TrackPointExtension xmlns:gpxtpx="http://www.garmin.com/xmlschemas/TrackPointExtension/v1">
            <gpxtpx:hr>140</gpxtpx:hr>
          </gpxtpx:TrackPointExtension>
        </extensions>
      </trkpt>
      <trkpt lat="42.95161" lon="1.86471">
        <ele>486.7</ele>
        <time>2022-07-25T08:12:15.000Z</time>
        <extensions>
          <gpxtpx:TrackPointExtension xmlns:gpxtpx="http://www.garmin.com/xmlschemas/TrackPointExtension/v1">
            <gpxtpx:hr>140</gpxtpx:hr>
          </gpxtpx:TrackPointExtension>
        </extensions>
      </trkpt>
      <trkpt lat="42.95166" lon="1.86469">
        <ele>486.6</ele>
        <time>2022-07-25T08:12:16.000Z</time>
        <extensions>
          <gpxtpx:TrackPointExtension xmlns:gpxtpx="http://www.garmin.com/xmlschemas/TrackPointExtension/v1">
            <gpxtpx:hr>140</gpxtpx:hr>
          </gpxtpx:TrackPointExtension>
        </extensions>
      </trkpt>
      <trkpt lat="42.95172" lon="1.86467">
        <ele>486.5</ele>
        <time>2022-07-25T08:12:17.000Z</time>
        <extensions>
          <gpxtpx:TrackPointExtension xmlns:gpxtpx="http://www.garmin.com/xmlschemas/TrackPointExtension/v1">
            <gpxtpx:hr>140</gpxtpx:hr>
          </gpxtpx:TrackPointExtension>
        </extensions>
      </trkpt>
      <trkpt lat="42.95179" lon="1.86467">
        <ele>486.1</ele>
        <time>2022-07-25T08:12:19.000Z</time>
        <extensions>
          <gpxtpx:TrackPointExtension xmlns:gpxtpx="http://www.garmin.com/xmlschemas/TrackPointExtension/v1">
            <gpxtpx:hr>140</gpxtpx:hr>
          </gpxtpx:TrackPointExtension>
        </extensions>
      </trkpt>
      <trkpt lat="42.95186" lon="1.86469">
        <ele>485.8</ele>
        <time>2022-07-25T08:12:21.000Z</time>
        <extensions>
          <gpxtpx:TrackPointExtension xmlns:gpxtpx="http://www.garmin.com/xmlschemas/TrackPointExtension/v1">
            <gpxtpx:hr>140</gpxtpx:hr>
          </gpxtpx:TrackPointExtension>
        </extensions>
      </trkpt>
      <trkpt lat="42.95195" lon="1.86467">
        <ele>485.6</ele>
        <time>2022-07-25T08:12:23.000Z</time>
        <extensions>
          <gpxtpx:TrackPointExtension xmlns:gpxtpx="http://www.garmin.com/xmlschemas/TrackPointExtension/v1">
            <gpxtpx:hr>140</gpxtpx:hr>
          </gpxtpx:TrackPointExtension>
        </extensions>
      </trkpt>
      <trkpt lat="42.95198" lon="1.86462">
        <ele>485.4</ele>
        <time>2022-07-25T08:12:24.000Z</time>
        <extensions>
          <gpxtpx:TrackPointExtension xmlns:gpxtpx="http://www.garmin.com/xmlschemas/TrackPointExtension/v1">
            <gpxtpx:hr>140</gpxtpx:hr>
          </gpxtpx:TrackPointExtension>
        </extensions>
      </trkpt>
      <trkpt lat="42.95205" lon="1.86461">
        <ele>485.3</ele>
        <time>2022-07-25T08:12:25.000Z</time>
        <extensions>
          <gpxtpx:TrackPointExtension xmlns:gpxtpx="http://www.garmin.com/xmlschemas/TrackPointExtension/v1">
            <gpxtpx:hr>140</gpxtpx:hr>
          </gpxtpx:TrackPointExtension>
        </extensions>
      </trkpt>
      <trkpt lat="42.9521" lon="1.86459">
        <ele>485.1</ele>
        <time>2022-07-25T08:12:26.000Z</time>
        <extensions>
          <gpxtpx:TrackPointExtension xmlns:gpxtpx="http://www.garmin.com/xmlschemas/TrackPointExtension/v1">
            <gpxtpx:hr>140</gpxtpx:hr>
          </gpxtpx:TrackPointExtension>
        </extensions>
      </trkpt>
      <trkpt lat="42.95216" lon="1.86458">
        <ele>484.8</ele>
        <time>2022-07-25T08:12:27.000Z</time>
        <extensions>
          <gpxtpx:TrackPointExtension xmlns:gpxtpx="http://www.garmin.com/xmlschemas/TrackPointExtension/v1">
            <gpxtpx:hr>140</gpxtpx:hr>
          </gpxtpx:TrackPointExtension>
        </extensions>
      </trkpt>
      <trkpt lat="42.95221" lon="1.86458">
        <ele>484.6</ele>
        <time>2022-07-25T08:12:28.000Z</time>
        <extensions>
          <gpxtpx:TrackPointExtension xmlns:gpxtpx="http://www.garmin.com/xmlschemas/TrackPointExtension/v1">
            <gpxtpx:hr>140</gpxtpx:hr>
          </gpxtpx:TrackPointExtension>
        </extensions>
      </trkpt>
      <trkpt lat="42.95226" lon="1.86457">
        <ele>484.4</ele>
        <time>2022-07-25T08:12:29.000Z</time>
        <extensions>
          <gpxtpx:TrackPointExtension xmlns:gpxtpx="http://www.garmin.com/xmlschemas/TrackPointExtension/v1">
            <gpxtpx:hr>140</gpxtpx:hr>
          </gpxtpx:TrackPointExtension>
        </extensions>
      </trkpt>
      <trkpt lat="42.95231" lon="1.86455">
        <ele>484.3</ele>
        <time>2022-07-25T08:12:30.000Z</time>
        <extensions>
          <gpxtpx:TrackPointExtension xmlns:gpxtpx="http://www.garmin.com/xmlschemas/TrackPointExtension/v1">
            <gpxtpx:hr>139</gpxtpx:hr>
          </gpxtpx:TrackPointExtension>
        </extensions>
      </trkpt>
      <trkpt lat="42.95236" lon="1.86453">
        <ele>484.1</ele>
        <time>2022-07-25T08:12:31.000Z</time>
        <extensions>
          <gpxtpx:TrackPointExtension xmlns:gpxtpx="http://www.garmin.com/xmlschemas/TrackPointExtension/v1">
            <gpxtpx:hr>139</gpxtpx:hr>
          </gpxtpx:TrackPointExtension>
        </extensions>
      </trkpt>
      <trkpt lat="42.95242" lon="1.86448">
        <ele>483.6</ele>
        <time>2022-07-25T08:12:33.000Z</time>
        <extensions>
          <gpxtpx:TrackPointExtension xmlns:gpxtpx="http://www.garmin.com/xmlschemas/TrackPointExtension/v1">
            <gpxtpx:hr>139</gpxtpx:hr>
          </gpxtpx:TrackPointExtension>
        </extensions>
      </trkpt>
      <trkpt lat="42.95247" lon="1.8644">
        <ele>483</ele>
        <time>2022-07-25T08:12:35.000Z</time>
        <extensions>
          <gpxtpx:TrackPointExtension xmlns:gpxtpx="http://www.garmin.com/xmlschemas/TrackPointExtension/v1">
            <gpxtpx:hr>139</gpxtpx:hr>
          </gpxtpx:TrackPointExtension>
        </extensions>
      </trkpt>
      <trkpt lat="42.95249" lon="1.86432">
        <ele>482.6</ele>
        <time>2022-07-25T08:12:37.000Z</time>
        <extensions>
          <gpxtpx:TrackPointExtension xmlns:gpxtpx="http://www.garmin.com/xmlschemas/TrackPointExtension/v1">
            <gpxtpx:hr>139</gpxtpx:hr>
          </gpxtpx:TrackPointExtension>
        </extensions>
      </trkpt>
      <trkpt lat="42.9525" lon="1.86423">
        <ele>482.2</ele>
        <time>2022-07-25T08:12:39.000Z</time>
        <extensions>
          <gpxtpx:TrackPointExtension xmlns:gpxtpx="http://www.garmin.com/xmlschemas/TrackPointExtension/v1">
            <gpxtpx:hr>139</gpxtpx:hr>
          </gpxtpx:TrackPointExtension>
        </extensions>
      </trkpt>
      <trkpt lat="42.95251" lon="1.86415">
        <ele>481.6</ele>
        <time>2022-07-25T08:12:42.000Z</time>
        <extensions>
          <gpxtpx:TrackPointExtension xmlns:gpxtpx="http://www.garmin.com/xmlschemas/TrackPointExtension/v1">
            <gpxtpx:hr>138</gpxtpx:hr>
          </gpxtpx:TrackPointExtension>
        </extensions>
      </trkpt>
      <trkpt lat="42.95254" lon="1.86407">
        <ele>481.3</ele>
        <time>2022-07-25T08:12:44.000Z</time>
        <extensions>
          <gpxtpx:TrackPointExtension xmlns:gpxtpx="http://www.garmin.com/xmlschemas/TrackPointExtension/v1">
            <gpxtpx:hr>138</gpxtpx:hr>
          </gpxtpx:TrackPointExtension>
        </extensions>
      </trkpt>
      <trkpt lat="42.95257" lon="1.86401">
        <ele>480.9</ele>
        <time>2022-07-25T08:12:46.000Z</time>
        <extensions>
          <gpxtpx:TrackPointExtension xmlns:gpxtpx="http://www.garmin.com/xmlschemas/TrackPointExtension/v1">
            <gpxtpx:hr>137</gpxtpx:hr>
          </gpxtpx:TrackPointExtension>
        </extensions>
      </trkpt>
      <trkpt lat="42.95263" lon="1.86398">
        <ele>480.6</ele>
        <time>2022-07-25T08:12:48.000Z</time>
        <extensions>
          <gpxtpx:TrackPointExtension xmlns:gpxtpx="http://www.garmin.com/xmlschemas/TrackPointExtension/v1">
            <gpxtpx:hr>136</gpxtpx:hr>
          </gpxtpx:TrackPointExtension>
        </extensions>
      </trkpt>
      <trkpt lat="42.95269" lon="1.86395">
        <ele>480.2</ele>
        <time>2022-07-25T08:12:50.000Z</time>
        <extensions>
          <gpxtpx:TrackPointExtension xmlns:gpxtpx="http://www.garmin.com/xmlschemas/TrackPointExtension/v1">
            <gpxtpx:hr>136</gpxtpx:hr>
          </gpxtpx:TrackPointExtension>
        </extensions>
      </trkpt>
      <trkpt lat="42.95277" lon="1.86392">
        <ele>479.9</ele>
        <time>2022-07-25T08:12:52.000Z</time>
        <extensions>
          <gpxtpx:TrackPointExtension xmlns:gpxtpx="http://www.garmin.com/xmlschemas/TrackPointExtension/v1">
            <gpxtpx:hr>136</gpxtpx:hr>
          </gpxtpx:TrackPointExtension>
        </extensions>
      </trkpt>
      <trkpt lat="42.95285" lon="1.86388">
        <ele>479.6</ele>
        <time>2022-07-25T08:12:54.000Z</time>
        <extensions>
          <gpxtpx:TrackPointExtension xmlns:gpxtpx="http://www.garmin.com/xmlschemas/TrackPointExtension/v1">
            <gpxtpx:hr>136</gpxtpx:hr>
          </gpxtpx:TrackPointExtension>
        </extensions>
      </trkpt>
      <trkpt lat="42.95292" lon="1.86385">
        <ele>479.3</ele>
        <time>2022-07-25T08:12:56.000Z</time>
        <extensions>
          <gpxtpx:TrackPointExtension xmlns:gpxtpx="http://www.garmin.com/xmlschemas/TrackPointExtension/v1">
            <gpxtpx:hr>137</gpxtpx:hr>
          </gpxtpx:TrackPointExtension>
        </extensions>
      </trkpt>
      <trkpt lat="42.953" lon="1.86383">
        <ele>479.1</ele>
        <time>2022-07-25T08:12:58.000Z</time>
        <extensions>
          <gpxtpx:TrackPointExtension xmlns:gpxtpx="http://www.garmin.com/xmlschemas/TrackPointExtension/v1">
            <gpxtpx:hr>137</gpxtpx:hr>
          </gpxtpx:TrackPointExtension>
        </extensions>
      </trkpt>
      <trkpt lat="42.95306" lon="1.86381">
        <ele>478.9</ele>
        <time>2022-07-25T08:13:00.000Z</time>
        <extensions>
          <gpxtpx:TrackPointExtension xmlns:gpxtpx="http://www.garmin.com/xmlschemas/TrackPointExtension/v1">
            <gpxtpx:hr>137</gpxtpx:hr>
          </gpxtpx:TrackPointExtension>
        </extensions>
      </trkpt>
      <trkpt lat="42.95314" lon="1.86377">
        <ele>478.8</ele>
        <time>2022-07-25T08:13:02.000Z</time>
        <extensions>
          <gpxtpx:TrackPointExtension xmlns:gpxtpx="http://www.garmin.com/xmlschemas/TrackPointExtension/v1">
            <gpxtpx:hr>137</gpxtpx:hr>
          </gpxtpx:TrackPointExtension>
        </extensions>
      </trkpt>
      <trkpt lat="42.95322" lon="1.86374">
        <ele>478.6</ele>
        <time>2022-07-25T08:13:04.000Z</time>
        <extensions>
          <gpxtpx:TrackPointExtension xmlns:gpxtpx="http://www.garmin.com/xmlschemas/TrackPointExtension/v1">
            <gpxtpx:hr>136</gpxtpx:hr>
          </gpxtpx:TrackPointExtension>
        </extensions>
      </trkpt>
      <trkpt lat="42.95329" lon="1.86373">
        <ele>478.5</ele>
        <time>2022-07-25T08:13:06.000Z</time>
        <extensions>
          <gpxtpx:TrackPointExtension xmlns:gpxtpx="http://www.garmin.com/xmlschemas/TrackPointExtension/v1">
            <gpxtpx:hr>135</gpxtpx:hr>
          </gpxtpx:TrackPointExtension>
        </extensions>
      </trkpt>
      <trkpt lat="42.95337" lon="1.86371">
        <ele>478.3</ele>
        <time>2022-07-25T08:13:08.000Z</time>
        <extensions>
          <gpxtpx:TrackPointExtension xmlns:gpxtpx="http://www.garmin.com/xmlschemas/TrackPointExtension/v1">
            <gpxtpx:hr>135</gpxtpx:hr>
          </gpxtpx:TrackPointExtension>
        </extensions>
      </trkpt>
      <trkpt lat="42.95342" lon="1.8637">
        <ele>478.2</ele>
        <time>2022-07-25T08:13:09.000Z</time>
        <extensions>
          <gpxtpx:TrackPointExtension xmlns:gpxtpx="http://www.garmin.com/xmlschemas/TrackPointExtension/v1">
            <gpxtpx:hr>135</gpxtpx:hr>
          </gpxtpx:TrackPointExtension>
        </extensions>
      </trkpt>
      <trkpt lat="42.9535" lon="1.86369">
        <ele>478</ele>
        <time>2022-07-25T08:13:11.000Z</time>
        <extensions>
          <gpxtpx:TrackPointExtension xmlns:gpxtpx="http://www.garmin.com/xmlschemas/TrackPointExtension/v1">
            <gpxtpx:hr>135</gpxtpx:hr>
          </gpxtpx:TrackPointExtension>
        </extensions>
      </trkpt>
      <trkpt lat="42.95357" lon="1.86366">
        <ele>477.9</ele>
        <time>2022-07-25T08:13:13.000Z</time>
        <extensions>
          <gpxtpx:TrackPointExtension xmlns:gpxtpx="http://www.garmin.com/xmlschemas/TrackPointExtension/v1">
            <gpxtpx:hr>136</gpxtpx:hr>
          </gpxtpx:TrackPointExtension>
        </extensions>
      </trkpt>
      <trkpt lat="42.95362" lon="1.86364">
        <ele>477.8</ele>
        <time>2022-07-25T08:13:14.000Z</time>
        <extensions>
          <gpxtpx:TrackPointExtension xmlns:gpxtpx="http://www.garmin.com/xmlschemas/TrackPointExtension/v1">
            <gpxtpx:hr>136</gpxtpx:hr>
          </gpxtpx:TrackPointExtension>
        </extensions>
      </trkpt>
      <trkpt lat="42.9537" lon="1.8636">
        <ele>477.7</ele>
        <time>2022-07-25T08:13:16.000Z</time>
        <extensions>
          <gpxtpx:TrackPointExtension xmlns:gpxtpx="http://www.garmin.com/xmlschemas/TrackPointExtension/v1">
            <gpxtpx:hr>137</gpxtpx:hr>
          </gpxtpx:TrackPointExtension>
        </extensions>
      </trkpt>
      <trkpt lat="42.95375" lon="1.86358">
        <ele>477.6</ele>
        <time>2022-07-25T08:13:17.000Z</time>
        <extensions>
          <gpxtpx:TrackPointExtension xmlns:gpxtpx="http://www.garmin.com/xmlschemas/TrackPointExtension/v1">
            <gpxtpx:hr>137</gpxtpx:hr>
          </gpxtpx:TrackPointExtension>
        </extensions>
      </trkpt>
      <trkpt lat="42.95384" lon="1.86356">
        <ele>477.3</ele>
        <time>2022-07-25T08:13:19.000Z</time>
        <extensions>
          <gpxtpx:TrackPointExtension xmlns:gpxtpx="http://www.garmin.com/xmlschemas/TrackPointExtension/v1">
            <gpxtpx:hr>138</gpxtpx:hr>
          </gpxtpx:TrackPointExtension>
        </extensions>
      </trkpt>
      <trkpt lat="42.95389" lon="1.86353">
        <ele>477.2</ele>
        <time>2022-07-25T08:13:20.000Z</time>
        <extensions>
          <gpxtpx:TrackPointExtension xmlns:gpxtpx="http://www.garmin.com/xmlschemas/TrackPointExtension/v1">
            <gpxtpx:hr>138</gpxtpx:hr>
          </gpxtpx:TrackPointExtension>
        </extensions>
      </trkpt>
      <trkpt lat="42.95394" lon="1.8635">
        <ele>477</ele>
        <time>2022-07-25T08:13:21.000Z</time>
        <extensions>
          <gpxtpx:TrackPointExtension xmlns:gpxtpx="http://www.garmin.com/xmlschemas/TrackPointExtension/v1">
            <gpxtpx:hr>139</gpxtpx:hr>
          </gpxtpx:TrackPointExtension>
        </extensions>
      </trkpt>
      <trkpt lat="42.95401" lon="1.86342">
        <ele>476.6</ele>
        <time>2022-07-25T08:13:23.000Z</time>
        <extensions>
          <gpxtpx:TrackPointExtension xmlns:gpxtpx="http://www.garmin.com/xmlschemas/TrackPointExtension/v1">
            <gpxtpx:hr>139</gpxtpx:hr>
          </gpxtpx:TrackPointExtension>
        </extensions>
      </trkpt>
      <trkpt lat="42.95405" lon="1.86337">
        <ele>476.4</ele>
        <time>2022-07-25T08:13:24.000Z</time>
        <extensions>
          <gpxtpx:TrackPointExtension xmlns:gpxtpx="http://www.garmin.com/xmlschemas/TrackPointExtension/v1">
            <gpxtpx:hr>139</gpxtpx:hr>
          </gpxtpx:TrackPointExtension>
        </extensions>
      </trkpt>
      <trkpt lat="42.95408" lon="1.86332">
        <ele>476.3</ele>
        <time>2022-07-25T08:13:25.000Z</time>
        <extensions>
          <gpxtpx:TrackPointExtension xmlns:gpxtpx="http://www.garmin.com/xmlschemas/TrackPointExtension/v1">
            <gpxtpx:hr>139</gpxtpx:hr>
          </gpxtpx:TrackPointExtension>
        </extensions>
      </trkpt>
      <trkpt lat="42.95412" lon="1.86327">
        <ele>476.1</ele>
        <time>2022-07-25T08:13:26.000Z</time>
        <extensions>
          <gpxtpx:TrackPointExtension xmlns:gpxtpx="http://www.garmin.com/xmlschemas/TrackPointExtension/v1">
            <gpxtpx:hr>139</gpxtpx:hr>
          </gpxtpx:TrackPointExtension>
        </extensions>
      </trkpt>
      <trkpt lat="42.95417" lon="1.86323">
        <ele>476</ele>
        <time>2022-07-25T08:13:27.000Z</time>
        <extensions>
          <gpxtpx:TrackPointExtension xmlns:gpxtpx="http://www.garmin.com/xmlschemas/TrackPointExtension/v1">
            <gpxtpx:hr>139</gpxtpx:hr>
          </gpxtpx:TrackPointExtension>
        </extensions>
      </trkpt>
      <trkpt lat="42.95421" lon="1.86319">
        <ele>475.8</ele>
        <time>2022-07-25T08:13:28.000Z</time>
        <extensions>
          <gpxtpx:TrackPointExtension xmlns:gpxtpx="http://www.garmin.com/xmlschemas/TrackPointExtension/v1">
            <gpxtpx:hr>138</gpxtpx:hr>
          </gpxtpx:TrackPointExtension>
        </extensions>
      </trkpt>
      <trkpt lat="42.95427" lon="1.86311">
        <ele>475.6</ele>
        <time>2022-07-25T08:13:30.000Z</time>
        <extensions>
          <gpxtpx:TrackPointExtension xmlns:gpxtpx="http://www.garmin.com/xmlschemas/TrackPointExtension/v1">
            <gpxtpx:hr>138</gpxtpx:hr>
          </gpxtpx:TrackPointExtension>
        </extensions>
      </trkpt>
      <trkpt lat="42.95431" lon="1.86308">
        <ele>475.5</ele>
        <time>2022-07-25T08:13:31.000Z</time>
        <extensions>
          <gpxtpx:TrackPointExtension xmlns:gpxtpx="http://www.garmin.com/xmlschemas/TrackPointExtension/v1">
            <gpxtpx:hr>138</gpxtpx:hr>
          </gpxtpx:TrackPointExtension>
        </extensions>
      </trkpt>
      <trkpt lat="42.95435" lon="1.86305">
        <ele>475.4</ele>
        <time>2022-07-25T08:13:32.000Z</time>
        <extensions>
          <gpxtpx:TrackPointExtension xmlns:gpxtpx="http://www.garmin.com/xmlschemas/TrackPointExtension/v1">
            <gpxtpx:hr>137</gpxtpx:hr>
          </gpxtpx:TrackPointExtension>
        </extensions>
      </trkpt>
      <trkpt lat="42.95443" lon="1.86299">
        <ele>475.1</ele>
        <time>2022-07-25T08:13:34.000Z</time>
        <extensions>
          <gpxtpx:TrackPointExtension xmlns:gpxtpx="http://www.garmin.com/xmlschemas/TrackPointExtension/v1">
            <gpxtpx:hr>137</gpxtpx:hr>
          </gpxtpx:TrackPointExtension>
        </extensions>
      </trkpt>
      <trkpt lat="42.95449" lon="1.86295">
        <ele>474.8</ele>
        <time>2022-07-25T08:13:36.000Z</time>
        <extensions>
          <gpxtpx:TrackPointExtension xmlns:gpxtpx="http://www.garmin.com/xmlschemas/TrackPointExtension/v1">
            <gpxtpx:hr>137</gpxtpx:hr>
          </gpxtpx:TrackPointExtension>
        </extensions>
      </trkpt>
      <trkpt lat="42.95452" lon="1.86288">
        <ele>474.6</ele>
        <time>2022-07-25T08:13:38.000Z</time>
        <extensions>
          <gpxtpx:TrackPointExtension xmlns:gpxtpx="http://www.garmin.com/xmlschemas/TrackPointExtension/v1">
            <gpxtpx:hr>137</gpxtpx:hr>
          </gpxtpx:TrackPointExtension>
        </extensions>
      </trkpt>
      <trkpt lat="42.95456" lon="1.86283">
        <ele>474.4</ele>
        <time>2022-07-25T08:13:40.000Z</time>
        <extensions>
          <gpxtpx:TrackPointExtension xmlns:gpxtpx="http://www.garmin.com/xmlschemas/TrackPointExtension/v1">
            <gpxtpx:hr>137</gpxtpx:hr>
          </gpxtpx:TrackPointExtension>
        </extensions>
      </trkpt>
      <trkpt lat="42.95457" lon="1.86277">
        <ele>474.2</ele>
        <time>2022-07-25T08:13:42.000Z</time>
        <extensions>
          <gpxtpx:TrackPointExtension xmlns:gpxtpx="http://www.garmin.com/xmlschemas/TrackPointExtension/v1">
            <gpxtpx:hr>136</gpxtpx:hr>
          </gpxtpx:TrackPointExtension>
        </extensions>
      </trkpt>
      <trkpt lat="42.95461" lon="1.86274">
        <ele>474</ele>
        <time>2022-07-25T08:13:44.000Z</time>
        <extensions>
          <gpxtpx:TrackPointExtension xmlns:gpxtpx="http://www.garmin.com/xmlschemas/TrackPointExtension/v1">
            <gpxtpx:hr>136</gpxtpx:hr>
          </gpxtpx:TrackPointExtension>
        </extensions>
      </trkpt>
      <trkpt lat="42.95465" lon="1.8627">
        <ele>473.9</ele>
        <time>2022-07-25T08:13:45.000Z</time>
        <extensions>
          <gpxtpx:TrackPointExtension xmlns:gpxtpx="http://www.garmin.com/xmlschemas/TrackPointExtension/v1">
            <gpxtpx:hr>136</gpxtpx:hr>
          </gpxtpx:TrackPointExtension>
        </extensions>
      </trkpt>
      <trkpt lat="42.95471" lon="1.86271">
        <ele>473.8</ele>
        <time>2022-07-25T08:13:47.000Z</time>
        <extensions>
          <gpxtpx:TrackPointExtension xmlns:gpxtpx="http://www.garmin.com/xmlschemas/TrackPointExtension/v1">
            <gpxtpx:hr>136</gpxtpx:hr>
          </gpxtpx:TrackPointExtension>
        </extensions>
      </trkpt>
      <trkpt lat="42.95478" lon="1.86273">
        <ele>473.7</ele>
        <time>2022-07-25T08:13:49.000Z</time>
        <extensions>
          <gpxtpx:TrackPointExtension xmlns:gpxtpx="http://www.garmin.com/xmlschemas/TrackPointExtension/v1">
            <gpxtpx:hr>136</gpxtpx:hr>
          </gpxtpx:TrackPointExtension>
        </extensions>
      </trkpt>
      <trkpt lat="42.95484" lon="1.86277">
        <ele>473.6</ele>
        <time>2022-07-25T08:13:51.000Z</time>
        <extensions>
          <gpxtpx:TrackPointExtension xmlns:gpxtpx="http://www.garmin.com/xmlschemas/TrackPointExtension/v1">
            <gpxtpx:hr>136</gpxtpx:hr>
          </gpxtpx:TrackPointExtension>
        </extensions>
      </trkpt>
      <trkpt lat="42.95488" lon="1.8628">
        <ele>473.5</ele>
        <time>2022-07-25T08:13:52.000Z</time>
        <extensions>
          <gpxtpx:TrackPointExtension xmlns:gpxtpx="http://www.garmin.com/xmlschemas/TrackPointExtension/v1">
            <gpxtpx:hr>136</gpxtpx:hr>
          </gpxtpx:TrackPointExtension>
        </extensions>
      </trkpt>
      <trkpt lat="42.95496" lon="1.86286">
        <ele>473.4</ele>
        <time>2022-07-25T08:13:54.000Z</time>
        <extensions>
          <gpxtpx:TrackPointExtension xmlns:gpxtpx="http://www.garmin.com/xmlschemas/TrackPointExtension/v1">
            <gpxtpx:hr>135</gpxtpx:hr>
          </gpxtpx:TrackPointExtension>
        </extensions>
      </trkpt>
      <trkpt lat="42.95504" lon="1.86294">
        <ele>473.3</ele>
        <time>2022-07-25T08:13:56.000Z</time>
        <extensions>
          <gpxtpx:TrackPointExtension xmlns:gpxtpx="http://www.garmin.com/xmlschemas/TrackPointExtension/v1">
            <gpxtpx:hr>135</gpxtpx:hr>
          </gpxtpx:TrackPointExtension>
        </extensions>
      </trkpt>
      <trkpt lat="42.95509" lon="1.86298">
        <ele>473.2</ele>
        <time>2022-07-25T08:13:57.000Z</time>
        <extensions>
          <gpxtpx:TrackPointExtension xmlns:gpxtpx="http://www.garmin.com/xmlschemas/TrackPointExtension/v1">
            <gpxtpx:hr>135</gpxtpx:hr>
          </gpxtpx:TrackPointExtension>
        </extensions>
      </trkpt>
      <trkpt lat="42.95514" lon="1.86303">
        <ele>473</ele>
        <time>2022-07-25T08:13:58.000Z</time>
        <extensions>
          <gpxtpx:TrackPointExtension xmlns:gpxtpx="http://www.garmin.com/xmlschemas/TrackPointExtension/v1">
            <gpxtpx:hr>135</gpxtpx:hr>
          </gpxtpx:TrackPointExtension>
        </extensions>
      </trkpt>
      <trkpt lat="42.95518" lon="1.86307">
        <ele>472.9</ele>
        <time>2022-07-25T08:13:59.000Z</time>
        <extensions>
          <gpxtpx:TrackPointExtension xmlns:gpxtpx="http://www.garmin.com/xmlschemas/TrackPointExtension/v1">
            <gpxtpx:hr>135</gpxtpx:hr>
          </gpxtpx:TrackPointExtension>
        </extensions>
      </trkpt>
      <trkpt lat="42.95522" lon="1.86313">
        <ele>472.7</ele>
        <time>2022-07-25T08:14:00.000Z</time>
        <extensions>
          <gpxtpx:TrackPointExtension xmlns:gpxtpx="http://www.garmin.com/xmlschemas/TrackPointExtension/v1">
            <gpxtpx:hr>134</gpxtpx:hr>
          </gpxtpx:TrackPointExtension>
        </extensions>
      </trkpt>
      <trkpt lat="42.95527" lon="1.86319">
        <ele>472.5</ele>
        <time>2022-07-25T08:14:01.000Z</time>
        <extensions>
          <gpxtpx:TrackPointExtension xmlns:gpxtpx="http://www.garmin.com/xmlschemas/TrackPointExtension/v1">
            <gpxtpx:hr>134</gpxtpx:hr>
          </gpxtpx:TrackPointExtension>
        </extensions>
      </trkpt>
      <trkpt lat="42.95531" lon="1.86325">
        <ele>472.4</ele>
        <time>2022-07-25T08:14:02.000Z</time>
        <extensions>
          <gpxtpx:TrackPointExtension xmlns:gpxtpx="http://www.garmin.com/xmlschemas/TrackPointExtension/v1">
            <gpxtpx:hr>134</gpxtpx:hr>
          </gpxtpx:TrackPointExtension>
        </extensions>
      </trkpt>
      <trkpt lat="42.95537" lon="1.86332">
        <ele>472.2</ele>
        <time>2022-07-25T08:14:03.000Z</time>
        <extensions>
          <gpxtpx:TrackPointExtension xmlns:gpxtpx="http://www.garmin.com/xmlschemas/TrackPointExtension/v1">
            <gpxtpx:hr>134</gpxtpx:hr>
          </gpxtpx:TrackPointExtension>
        </extensions>
      </trkpt>
      <trkpt lat="42.95542" lon="1.86339">
        <ele>472.1</ele>
        <time>2022-07-25T08:14:04.000Z</time>
        <extensions>
          <gpxtpx:TrackPointExtension xmlns:gpxtpx="http://www.garmin.com/xmlschemas/TrackPointExtension/v1">
            <gpxtpx:hr>134</gpxtpx:hr>
          </gpxtpx:TrackPointExtension>
        </extensions>
      </trkpt>
      <trkpt lat="42.95547" lon="1.86346">
        <ele>472</ele>
        <time>2022-07-25T08:14:05.000Z</time>
        <extensions>
          <gpxtpx:TrackPointExtension xmlns:gpxtpx="http://www.garmin.com/xmlschemas/TrackPointExtension/v1">
            <gpxtpx:hr>134</gpxtpx:hr>
          </gpxtpx:TrackPointExtension>
        </extensions>
      </trkpt>
      <trkpt lat="42.95553" lon="1.86353">
        <ele>471.9</ele>
        <time>2022-07-25T08:14:06.000Z</time>
        <extensions>
          <gpxtpx:TrackPointExtension xmlns:gpxtpx="http://www.garmin.com/xmlschemas/TrackPointExtension/v1">
            <gpxtpx:hr>134</gpxtpx:hr>
          </gpxtpx:TrackPointExtension>
        </extensions>
      </trkpt>
      <trkpt lat="42.95558" lon="1.8636">
        <ele>471.7</ele>
        <time>2022-07-25T08:14:07.000Z</time>
        <extensions>
          <gpxtpx:TrackPointExtension xmlns:gpxtpx="http://www.garmin.com/xmlschemas/TrackPointExtension/v1">
            <gpxtpx:hr>134</gpxtpx:hr>
          </gpxtpx:TrackPointExtension>
        </extensions>
      </trkpt>
      <trkpt lat="42.95563" lon="1.86367">
        <ele>471.6</ele>
        <time>2022-07-25T08:14:08.000Z</time>
        <extensions>
          <gpxtpx:TrackPointExtension xmlns:gpxtpx="http://www.garmin.com/xmlschemas/TrackPointExtension/v1">
            <gpxtpx:hr>135</gpxtpx:hr>
          </gpxtpx:TrackPointExtension>
        </extensions>
      </trkpt>
      <trkpt lat="42.95567" lon="1.86373">
        <ele>471.5</ele>
        <time>2022-07-25T08:14:09.000Z</time>
        <extensions>
          <gpxtpx:TrackPointExtension xmlns:gpxtpx="http://www.garmin.com/xmlschemas/TrackPointExtension/v1">
            <gpxtpx:hr>135</gpxtpx:hr>
          </gpxtpx:TrackPointExtension>
        </extensions>
      </trkpt>
      <trkpt lat="42.95573" lon="1.86378">
        <ele>471.3</ele>
        <time>2022-07-25T08:14:10.000Z</time>
        <extensions>
          <gpxtpx:TrackPointExtension xmlns:gpxtpx="http://www.garmin.com/xmlschemas/TrackPointExtension/v1">
            <gpxtpx:hr>135</gpxtpx:hr>
          </gpxtpx:TrackPointExtension>
        </extensions>
      </trkpt>
      <trkpt lat="42.95578" lon="1.86382">
        <ele>471.2</ele>
        <time>2022-07-25T08:14:11.000Z</time>
        <extensions>
          <gpxtpx:TrackPointExtension xmlns:gpxtpx="http://www.garmin.com/xmlschemas/TrackPointExtension/v1">
            <gpxtpx:hr>136</gpxtpx:hr>
          </gpxtpx:TrackPointExtension>
        </extensions>
      </trkpt>
      <trkpt lat="42.95584" lon="1.86384">
        <ele>471.1</ele>
        <time>2022-07-25T08:14:12.000Z</time>
        <extensions>
          <gpxtpx:TrackPointExtension xmlns:gpxtpx="http://www.garmin.com/xmlschemas/TrackPointExtension/v1">
            <gpxtpx:hr>136</gpxtpx:hr>
          </gpxtpx:TrackPointExtension>
        </extensions>
      </trkpt>
      <trkpt lat="42.9559" lon="1.86387">
        <ele>471</ele>
        <time>2022-07-25T08:14:13.000Z</time>
        <extensions>
          <gpxtpx:TrackPointExtension xmlns:gpxtpx="http://www.garmin.com/xmlschemas/TrackPointExtension/v1">
            <gpxtpx:hr>137</gpxtpx:hr>
          </gpxtpx:TrackPointExtension>
        </extensions>
      </trkpt>
      <trkpt lat="42.95595" lon="1.86388">
        <ele>470.9</ele>
        <time>2022-07-25T08:14:14.000Z</time>
        <extensions>
          <gpxtpx:TrackPointExtension xmlns:gpxtpx="http://www.garmin.com/xmlschemas/TrackPointExtension/v1">
            <gpxtpx:hr>138</gpxtpx:hr>
          </gpxtpx:TrackPointExtension>
        </extensions>
      </trkpt>
      <trkpt lat="42.95602" lon="1.86392">
        <ele>470.7</ele>
        <time>2022-07-25T08:14:16.000Z</time>
        <extensions>
          <gpxtpx:TrackPointExtension xmlns:gpxtpx="http://www.garmin.com/xmlschemas/TrackPointExtension/v1">
            <gpxtpx:hr>139</gpxtpx:hr>
          </gpxtpx:TrackPointExtension>
        </extensions>
      </trkpt>
      <trkpt lat="42.9561" lon="1.86396">
        <ele>470.6</ele>
        <time>2022-07-25T08:14:18.000Z</time>
        <extensions>
          <gpxtpx:TrackPointExtension xmlns:gpxtpx="http://www.garmin.com/xmlschemas/TrackPointExtension/v1">
            <gpxtpx:hr>140</gpxtpx:hr>
          </gpxtpx:TrackPointExtension>
        </extensions>
      </trkpt>
      <trkpt lat="42.95614" lon="1.86399">
        <ele>470.5</ele>
        <time>2022-07-25T08:14:19.000Z</time>
        <extensions>
          <gpxtpx:TrackPointExtension xmlns:gpxtpx="http://www.garmin.com/xmlschemas/TrackPointExtension/v1">
            <gpxtpx:hr>140</gpxtpx:hr>
          </gpxtpx:TrackPointExtension>
        </extensions>
      </trkpt>
      <trkpt lat="42.95621" lon="1.86403">
        <ele>470.4</ele>
        <time>2022-07-25T08:14:20.000Z</time>
        <extensions>
          <gpxtpx:TrackPointExtension xmlns:gpxtpx="http://www.garmin.com/xmlschemas/TrackPointExtension/v1">
            <gpxtpx:hr>141</gpxtpx:hr>
          </gpxtpx:TrackPointExtension>
        </extensions>
      </trkpt>
      <trkpt lat="42.95626" lon="1.86408">
        <ele>470.3</ele>
        <time>2022-07-25T08:14:21.000Z</time>
        <extensions>
          <gpxtpx:TrackPointExtension xmlns:gpxtpx="http://www.garmin.com/xmlschemas/TrackPointExtension/v1">
            <gpxtpx:hr>141</gpxtpx:hr>
          </gpxtpx:TrackPointExtension>
        </extensions>
      </trkpt>
      <trkpt lat="42.95631" lon="1.86412">
        <ele>470.3</ele>
        <time>2022-07-25T08:14:22.000Z</time>
        <extensions>
          <gpxtpx:TrackPointExtension xmlns:gpxtpx="http://www.garmin.com/xmlschemas/TrackPointExtension/v1">
            <gpxtpx:hr>142</gpxtpx:hr>
          </gpxtpx:TrackPointExtension>
        </extensions>
      </trkpt>
      <trkpt lat="42.95639" lon="1.8642">
        <ele>470.2</ele>
        <time>2022-07-25T08:14:23.000Z</time>
        <extensions>
          <gpxtpx:TrackPointExtension xmlns:gpxtpx="http://www.garmin.com/xmlschemas/TrackPointExtension/v1">
            <gpxtpx:hr>143</gpxtpx:hr>
          </gpxtpx:TrackPointExtension>
        </extensions>
      </trkpt>
      <trkpt lat="42.95644" lon="1.86427">
        <ele>470.1</ele>
        <time>2022-07-25T08:14:24.000Z</time>
        <extensions>
          <gpxtpx:TrackPointExtension xmlns:gpxtpx="http://www.garmin.com/xmlschemas/TrackPointExtension/v1">
            <gpxtpx:hr>143</gpxtpx:hr>
          </gpxtpx:TrackPointExtension>
        </extensions>
      </trkpt>
      <trkpt lat="42.95648" lon="1.86434">
        <ele>470.1</ele>
        <time>2022-07-25T08:14:25.000Z</time>
        <extensions>
          <gpxtpx:TrackPointExtension xmlns:gpxtpx="http://www.garmin.com/xmlschemas/TrackPointExtension/v1">
            <gpxtpx:hr>144</gpxtpx:hr>
          </gpxtpx:TrackPointExtension>
        </extensions>
      </trkpt>
      <trkpt lat="42.9565" lon="1.86442">
        <ele>470</ele>
        <time>2022-07-25T08:14:26.000Z</time>
        <extensions>
          <gpxtpx:TrackPointExtension xmlns:gpxtpx="http://www.garmin.com/xmlschemas/TrackPointExtension/v1">
            <gpxtpx:hr>144</gpxtpx:hr>
          </gpxtpx:TrackPointExtension>
        </extensions>
      </trkpt>
      <trkpt lat="42.95651" lon="1.8645">
        <ele>470</ele>
        <time>2022-07-25T08:14:27.000Z</time>
        <extensions>
          <gpxtpx:TrackPointExtension xmlns:gpxtpx="http://www.garmin.com/xmlschemas/TrackPointExtension/v1">
            <gpxtpx:hr>145</gpxtpx:hr>
          </gpxtpx:TrackPointExtension>
        </extensions>
      </trkpt>
      <trkpt lat="42.95651" lon="1.86458">
        <ele>469.9</ele>
        <time>2022-07-25T08:14:28.000Z</time>
        <extensions>
          <gpxtpx:TrackPointExtension xmlns:gpxtpx="http://www.garmin.com/xmlschemas/TrackPointExtension/v1">
            <gpxtpx:hr>146</gpxtpx:hr>
          </gpxtpx:TrackPointExtension>
        </extensions>
      </trkpt>
      <trkpt lat="42.95651" lon="1.86466">
        <ele>469.9</ele>
        <time>2022-07-25T08:14:29.000Z</time>
        <extensions>
          <gpxtpx:TrackPointExtension xmlns:gpxtpx="http://www.garmin.com/xmlschemas/TrackPointExtension/v1">
            <gpxtpx:hr>147</gpxtpx:hr>
          </gpxtpx:TrackPointExtension>
        </extensions>
      </trkpt>
      <trkpt lat="42.95653" lon="1.86477">
        <ele>469.8</ele>
        <time>2022-07-25T08:14:30.000Z</time>
        <extensions>
          <gpxtpx:TrackPointExtension xmlns:gpxtpx="http://www.garmin.com/xmlschemas/TrackPointExtension/v1">
            <gpxtpx:hr>147</gpxtpx:hr>
          </gpxtpx:TrackPointExtension>
        </extensions>
      </trkpt>
      <trkpt lat="42.95657" lon="1.86483">
        <ele>469.8</ele>
        <time>2022-07-25T08:14:31.000Z</time>
        <extensions>
          <gpxtpx:TrackPointExtension xmlns:gpxtpx="http://www.garmin.com/xmlschemas/TrackPointExtension/v1">
            <gpxtpx:hr>148</gpxtpx:hr>
          </gpxtpx:TrackPointExtension>
        </extensions>
      </trkpt>
      <trkpt lat="42.95661" lon="1.8649">
        <ele>469.8</ele>
        <time>2022-07-25T08:14:32.000Z</time>
        <extensions>
          <gpxtpx:TrackPointExtension xmlns:gpxtpx="http://www.garmin.com/xmlschemas/TrackPointExtension/v1">
            <gpxtpx:hr>148</gpxtpx:hr>
          </gpxtpx:TrackPointExtension>
        </extensions>
      </trkpt>
      <trkpt lat="42.95666" lon="1.86497">
        <ele>469.7</ele>
        <time>2022-07-25T08:14:33.000Z</time>
        <extensions>
          <gpxtpx:TrackPointExtension xmlns:gpxtpx="http://www.garmin.com/xmlschemas/TrackPointExtension/v1">
            <gpxtpx:hr>149</gpxtpx:hr>
          </gpxtpx:TrackPointExtension>
        </extensions>
      </trkpt>
      <trkpt lat="42.9567" lon="1.86503">
        <ele>469.7</ele>
        <time>2022-07-25T08:14:34.000Z</time>
        <extensions>
          <gpxtpx:TrackPointExtension xmlns:gpxtpx="http://www.garmin.com/xmlschemas/TrackPointExtension/v1">
            <gpxtpx:hr>149</gpxtpx:hr>
          </gpxtpx:TrackPointExtension>
        </extensions>
      </trkpt>
      <trkpt lat="42.95675" lon="1.86509">
        <ele>469.7</ele>
        <time>2022-07-25T08:14:35.000Z</time>
        <extensions>
          <gpxtpx:TrackPointExtension xmlns:gpxtpx="http://www.garmin.com/xmlschemas/TrackPointExtension/v1">
            <gpxtpx:hr>150</gpxtpx:hr>
          </gpxtpx:TrackPointExtension>
        </extensions>
      </trkpt>
      <trkpt lat="42.9568" lon="1.86515">
        <ele>469.6</ele>
        <time>2022-07-25T08:14:36.000Z</time>
        <extensions>
          <gpxtpx:TrackPointExtension xmlns:gpxtpx="http://www.garmin.com/xmlschemas/TrackPointExtension/v1">
            <gpxtpx:hr>150</gpxtpx:hr>
          </gpxtpx:TrackPointExtension>
        </extensions>
      </trkpt>
      <trkpt lat="42.95683" lon="1.86521">
        <ele>469.6</ele>
        <time>2022-07-25T08:14:37.000Z</time>
        <extensions>
          <gpxtpx:TrackPointExtension xmlns:gpxtpx="http://www.garmin.com/xmlschemas/TrackPointExtension/v1">
            <gpxtpx:hr>151</gpxtpx:hr>
          </gpxtpx:TrackPointExtension>
        </extensions>
      </trkpt>
      <trkpt lat="42.95688" lon="1.86528">
        <ele>469.6</ele>
        <time>2022-07-25T08:14:38.000Z</time>
        <extensions>
          <gpxtpx:TrackPointExtension xmlns:gpxtpx="http://www.garmin.com/xmlschemas/TrackPointExtension/v1">
            <gpxtpx:hr>151</gpxtpx:hr>
          </gpxtpx:TrackPointExtension>
        </extensions>
      </trkpt>
      <trkpt lat="42.95692" lon="1.86533">
        <ele>469.5</ele>
        <time>2022-07-25T08:14:39.000Z</time>
        <extensions>
          <gpxtpx:TrackPointExtension xmlns:gpxtpx="http://www.garmin.com/xmlschemas/TrackPointExtension/v1">
            <gpxtpx:hr>151</gpxtpx:hr>
          </gpxtpx:TrackPointExtension>
        </extensions>
      </trkpt>
      <trkpt lat="42.95697" lon="1.86538">
        <ele>469.4</ele>
        <time>2022-07-25T08:14:40.000Z</time>
        <extensions>
          <gpxtpx:TrackPointExtension xmlns:gpxtpx="http://www.garmin.com/xmlschemas/TrackPointExtension/v1">
            <gpxtpx:hr>151</gpxtpx:hr>
          </gpxtpx:TrackPointExtension>
        </extensions>
      </trkpt>
      <trkpt lat="42.95702" lon="1.86543">
        <ele>469.3</ele>
        <time>2022-07-25T08:14:41.000Z</time>
        <extensions>
          <gpxtpx:TrackPointExtension xmlns:gpxtpx="http://www.garmin.com/xmlschemas/TrackPointExtension/v1">
            <gpxtpx:hr>151</gpxtpx:hr>
          </gpxtpx:TrackPointExtension>
        </extensions>
      </trkpt>
      <trkpt lat="42.95706" lon="1.86548">
        <ele>469.3</ele>
        <time>2022-07-25T08:14:42.000Z</time>
        <extensions>
          <gpxtpx:TrackPointExtension xmlns:gpxtpx="http://www.garmin.com/xmlschemas/TrackPointExtension/v1">
            <gpxtpx:hr>151</gpxtpx:hr>
          </gpxtpx:TrackPointExtension>
        </extensions>
      </trkpt>
      <trkpt lat="42.9571" lon="1.86552">
        <ele>469.2</ele>
        <time>2022-07-25T08:14:43.000Z</time>
        <extensions>
          <gpxtpx:TrackPointExtension xmlns:gpxtpx="http://www.garmin.com/xmlschemas/TrackPointExtension/v1">
            <gpxtpx:hr>152</gpxtpx:hr>
          </gpxtpx:TrackPointExtension>
        </extensions>
      </trkpt>
      <trkpt lat="42.95714" lon="1.86556">
        <ele>469.1</ele>
        <time>2022-07-25T08:14:44.000Z</time>
        <extensions>
          <gpxtpx:TrackPointExtension xmlns:gpxtpx="http://www.garmin.com/xmlschemas/TrackPointExtension/v1">
            <gpxtpx:hr>152</gpxtpx:hr>
          </gpxtpx:TrackPointExtension>
        </extensions>
      </trkpt>
      <trkpt lat="42.95721" lon="1.86564">
        <ele>469</ele>
        <time>2022-07-25T08:14:46.000Z</time>
        <extensions>
          <gpxtpx:TrackPointExtension xmlns:gpxtpx="http://www.garmin.com/xmlschemas/TrackPointExtension/v1">
            <gpxtpx:hr>152</gpxtpx:hr>
          </gpxtpx:TrackPointExtension>
        </extensions>
      </trkpt>
      <trkpt lat="42.95728" lon="1.86571">
        <ele>469</ele>
        <time>2022-07-25T08:14:48.000Z</time>
        <extensions>
          <gpxtpx:TrackPointExtension xmlns:gpxtpx="http://www.garmin.com/xmlschemas/TrackPointExtension/v1">
            <gpxtpx:hr>153</gpxtpx:hr>
          </gpxtpx:TrackPointExtension>
        </extensions>
      </trkpt>
      <trkpt lat="42.95732" lon="1.86576">
        <ele>469</ele>
        <time>2022-07-25T08:14:49.000Z</time>
        <extensions>
          <gpxtpx:TrackPointExtension xmlns:gpxtpx="http://www.garmin.com/xmlschemas/TrackPointExtension/v1">
            <gpxtpx:hr>153</gpxtpx:hr>
          </gpxtpx:TrackPointExtension>
        </extensions>
      </trkpt>
      <trkpt lat="42.95736" lon="1.86581">
        <ele>468.9</ele>
        <time>2022-07-25T08:14:50.000Z</time>
        <extensions>
          <gpxtpx:TrackPointExtension xmlns:gpxtpx="http://www.garmin.com/xmlschemas/TrackPointExtension/v1">
            <gpxtpx:hr>153</gpxtpx:hr>
          </gpxtpx:TrackPointExtension>
        </extensions>
      </trkpt>
      <trkpt lat="42.95739" lon="1.86585">
        <ele>468.9</ele>
        <time>2022-07-25T08:14:51.000Z</time>
        <extensions>
          <gpxtpx:TrackPointExtension xmlns:gpxtpx="http://www.garmin.com/xmlschemas/TrackPointExtension/v1">
            <gpxtpx:hr>153</gpxtpx:hr>
          </gpxtpx:TrackPointExtension>
        </extensions>
      </trkpt>
      <trkpt lat="42.95743" lon="1.8659">
        <ele>468.9</ele>
        <time>2022-07-25T08:14:52.000Z</time>
        <extensions>
          <gpxtpx:TrackPointExtension xmlns:gpxtpx="http://www.garmin.com/xmlschemas/TrackPointExtension/v1">
            <gpxtpx:hr>153</gpxtpx:hr>
          </gpxtpx:TrackPointExtension>
        </extensions>
      </trkpt>
      <trkpt lat="42.95747" lon="1.86595">
        <ele>468.9</ele>
        <time>2022-07-25T08:14:53.000Z</time>
        <extensions>
          <gpxtpx:TrackPointExtension xmlns:gpxtpx="http://www.garmin.com/xmlschemas/TrackPointExtension/v1">
            <gpxtpx:hr>153</gpxtpx:hr>
          </gpxtpx:TrackPointExtension>
        </extensions>
      </trkpt>
      <trkpt lat="42.95751" lon="1.86599">
        <ele>468.8</ele>
        <time>2022-07-25T08:14:54.000Z</time>
        <extensions>
          <gpxtpx:TrackPointExtension xmlns:gpxtpx="http://www.garmin.com/xmlschemas/TrackPointExtension/v1">
            <gpxtpx:hr>153</gpxtpx:hr>
          </gpxtpx:TrackPointExtension>
        </extensions>
      </trkpt>
      <trkpt lat="42.95755" lon="1.86608">
        <ele>468.8</ele>
        <time>2022-07-25T08:14:56.000Z</time>
        <extensions>
          <gpxtpx:TrackPointExtension xmlns:gpxtpx="http://www.garmin.com/xmlschemas/TrackPointExtension/v1">
            <gpxtpx:hr>153</gpxtpx:hr>
          </gpxtpx:TrackPointExtension>
        </extensions>
      </trkpt>
      <trkpt lat="42.95757" lon="1.86619">
        <ele>468.8</ele>
        <time>2022-07-25T08:14:58.000Z</time>
        <extensions>
          <gpxtpx:TrackPointExtension xmlns:gpxtpx="http://www.garmin.com/xmlschemas/TrackPointExtension/v1">
            <gpxtpx:hr>154</gpxtpx:hr>
          </gpxtpx:TrackPointExtension>
        </extensions>
      </trkpt>
      <trkpt lat="42.95759" lon="1.86629">
        <ele>468.8</ele>
        <time>2022-07-25T08:15:00.000Z</time>
        <extensions>
          <gpxtpx:TrackPointExtension xmlns:gpxtpx="http://www.garmin.com/xmlschemas/TrackPointExtension/v1">
            <gpxtpx:hr>154</gpxtpx:hr>
          </gpxtpx:TrackPointExtension>
        </extensions>
      </trkpt>
      <trkpt lat="42.9576" lon="1.86639">
        <ele>468.8</ele>
        <time>2022-07-25T08:15:02.000Z</time>
        <extensions>
          <gpxtpx:TrackPointExtension xmlns:gpxtpx="http://www.garmin.com/xmlschemas/TrackPointExtension/v1">
            <gpxtpx:hr>154</gpxtpx:hr>
          </gpxtpx:TrackPointExtension>
        </extensions>
      </trkpt>
      <trkpt lat="42.95759" lon="1.86647">
        <ele>468.9</ele>
        <time>2022-07-25T08:15:04.000Z</time>
        <extensions>
          <gpxtpx:TrackPointExtension xmlns:gpxtpx="http://www.garmin.com/xmlschemas/TrackPointExtension/v1">
            <gpxtpx:hr>154</gpxtpx:hr>
          </gpxtpx:TrackPointExtension>
        </extensions>
      </trkpt>
      <trkpt lat="42.95756" lon="1.86655">
        <ele>469</ele>
        <time>2022-07-25T08:15:06.000Z</time>
        <extensions>
          <gpxtpx:TrackPointExtension xmlns:gpxtpx="http://www.garmin.com/xmlschemas/TrackPointExtension/v1">
            <gpxtpx:hr>153</gpxtpx:hr>
          </gpxtpx:TrackPointExtension>
        </extensions>
      </trkpt>
      <trkpt lat="42.95753" lon="1.86662">
        <ele>469.1</ele>
        <time>2022-07-25T08:15:08.000Z</time>
        <extensions>
          <gpxtpx:TrackPointExtension xmlns:gpxtpx="http://www.garmin.com/xmlschemas/TrackPointExtension/v1">
            <gpxtpx:hr>153</gpxtpx:hr>
          </gpxtpx:TrackPointExtension>
        </extensions>
      </trkpt>
      <trkpt lat="42.95749" lon="1.86666">
        <ele>469.2</ele>
        <time>2022-07-25T08:15:10.000Z</time>
        <extensions>
          <gpxtpx:TrackPointExtension xmlns:gpxtpx="http://www.garmin.com/xmlschemas/TrackPointExtension/v1">
            <gpxtpx:hr>153</gpxtpx:hr>
          </gpxtpx:TrackPointExtension>
        </extensions>
      </trkpt>
      <trkpt lat="42.95744" lon="1.86663">
        <ele>469.4</ele>
        <time>2022-07-25T08:15:13.000Z</time>
        <extensions>
          <gpxtpx:TrackPointExtension xmlns:gpxtpx="http://www.garmin.com/xmlschemas/TrackPointExtension/v1">
            <gpxtpx:hr>153</gpxtpx:hr>
          </gpxtpx:TrackPointExtension>
        </extensions>
      </trkpt>
      <trkpt lat="42.95741" lon="1.86657">
        <ele>469.8</ele>
        <time>2022-07-25T08:15:17.000Z</time>
        <extensions>
          <gpxtpx:TrackPointExtension xmlns:gpxtpx="http://www.garmin.com/xmlschemas/TrackPointExtension/v1">
            <gpxtpx:hr>152</gpxtpx:hr>
          </gpxtpx:TrackPointExtension>
        </extensions>
      </trkpt>
      <trkpt lat="42.95736" lon="1.86652">
        <ele>470.3</ele>
        <time>2022-07-25T08:15:23.000Z</time>
        <extensions>
          <gpxtpx:TrackPointExtension xmlns:gpxtpx="http://www.garmin.com/xmlschemas/TrackPointExtension/v1">
            <gpxtpx:hr>151</gpxtpx:hr>
          </gpxtpx:TrackPointExtension>
        </extensions>
      </trkpt>
      <trkpt lat="42.95733" lon="1.86646">
        <ele>470.6</ele>
        <time>2022-07-25T08:15:25.000Z</time>
        <extensions>
          <gpxtpx:TrackPointExtension xmlns:gpxtpx="http://www.garmin.com/xmlschemas/TrackPointExtension/v1">
            <gpxtpx:hr>151</gpxtpx:hr>
          </gpxtpx:TrackPointExtension>
        </extensions>
      </trkpt>
      <trkpt lat="42.9573" lon="1.8664">
        <ele>470.9</ele>
        <time>2022-07-25T08:15:27.000Z</time>
        <extensions>
          <gpxtpx:TrackPointExtension xmlns:gpxtpx="http://www.garmin.com/xmlschemas/TrackPointExtension/v1">
            <gpxtpx:hr>151</gpxtpx:hr>
          </gpxtpx:TrackPointExtension>
        </extensions>
      </trkpt>
      <trkpt lat="42.95729" lon="1.86633">
        <ele>471.2</ele>
        <time>2022-07-25T08:15:29.000Z</time>
        <extensions>
          <gpxtpx:TrackPointExtension xmlns:gpxtpx="http://www.garmin.com/xmlschemas/TrackPointExtension/v1">
            <gpxtpx:hr>151</gpxtpx:hr>
          </gpxtpx:TrackPointExtension>
        </extensions>
      </trkpt>
      <trkpt lat="42.95733" lon="1.86633">
        <ele>472.2</ele>
        <time>2022-07-25T08:15:36.000Z</time>
        <extensions>
          <gpxtpx:TrackPointExtension xmlns:gpxtpx="http://www.garmin.com/xmlschemas/TrackPointExtension/v1">
            <gpxtpx:hr>152</gpxtpx:hr>
          </gpxtpx:TrackPointExtension>
        </extensions>
      </trkpt>
      <trkpt lat="42.95737" lon="1.86636">
        <ele>472.6</ele>
        <time>2022-07-25T08:15:39.000Z</time>
        <extensions>
          <gpxtpx:TrackPointExtension xmlns:gpxtpx="http://www.garmin.com/xmlschemas/TrackPointExtension/v1">
            <gpxtpx:hr>153</gpxtpx:hr>
          </gpxtpx:TrackPointExtension>
        </extensions>
      </trkpt>
      <trkpt lat="42.95741" lon="1.8664">
        <ele>472.9</ele>
        <time>2022-07-25T08:15:42.000Z</time>
        <extensions>
          <gpxtpx:TrackPointExtension xmlns:gpxtpx="http://www.garmin.com/xmlschemas/TrackPointExtension/v1">
            <gpxtpx:hr>154</gpxtpx:hr>
          </gpxtpx:TrackPointExtension>
        </extensions>
      </trkpt>
      <trkpt lat="42.95745" lon="1.86645">
        <ele>473.1</ele>
        <time>2022-07-25T08:15:45.000Z</time>
        <extensions>
          <gpxtpx:TrackPointExtension xmlns:gpxtpx="http://www.garmin.com/xmlschemas/TrackPointExtension/v1">
            <gpxtpx:hr>154</gpxtpx:hr>
          </gpxtpx:TrackPointExtension>
        </extensions>
      </trkpt>
      <trkpt lat="42.95748" lon="1.8665">
        <ele>473.3</ele>
        <time>2022-07-25T08:15:48.000Z</time>
        <extensions>
          <gpxtpx:TrackPointExtension xmlns:gpxtpx="http://www.garmin.com/xmlschemas/TrackPointExtension/v1">
            <gpxtpx:hr>154</gpxtpx:hr>
          </gpxtpx:TrackPointExtension>
        </extensions>
      </trkpt>
      <trkpt lat="42.95751" lon="1.86655">
        <ele>473.5</ele>
        <time>2022-07-25T08:15:51.000Z</time>
        <extensions>
          <gpxtpx:TrackPointExtension xmlns:gpxtpx="http://www.garmin.com/xmlschemas/TrackPointExtension/v1">
            <gpxtpx:hr>153</gpxtpx:hr>
          </gpxtpx:TrackPointExtension>
        </extensions>
      </trkpt>
      <trkpt lat="42.95756" lon="1.86661">
        <ele>473.7</ele>
        <time>2022-07-25T08:15:55.000Z</time>
        <extensions>
          <gpxtpx:TrackPointExtension xmlns:gpxtpx="http://www.garmin.com/xmlschemas/TrackPointExtension/v1">
            <gpxtpx:hr>152</gpxtpx:hr>
          </gpxtpx:TrackPointExtension>
        </extensions>
      </trkpt>
      <trkpt lat="42.9576" lon="1.86665">
        <ele>473.8</ele>
        <time>2022-07-25T08:15:57.000Z</time>
        <extensions>
          <gpxtpx:TrackPointExtension xmlns:gpxtpx="http://www.garmin.com/xmlschemas/TrackPointExtension/v1">
            <gpxtpx:hr>152</gpxtpx:hr>
          </gpxtpx:TrackPointExtension>
        </extensions>
      </trkpt>
      <trkpt lat="42.95764" lon="1.86671">
        <ele>473.9</ele>
        <time>2022-07-25T08:15:59.000Z</time>
        <extensions>
          <gpxtpx:TrackPointExtension xmlns:gpxtpx="http://www.garmin.com/xmlschemas/TrackPointExtension/v1">
            <gpxtpx:hr>152</gpxtpx:hr>
          </gpxtpx:TrackPointExtension>
        </extensions>
      </trkpt>
      <trkpt lat="42.95768" lon="1.86677">
        <ele>473.9</ele>
        <time>2022-07-25T08:16:01.000Z</time>
        <extensions>
          <gpxtpx:TrackPointExtension xmlns:gpxtpx="http://www.garmin.com/xmlschemas/TrackPointExtension/v1">
            <gpxtpx:hr>152</gpxtpx:hr>
          </gpxtpx:TrackPointExtension>
        </extensions>
      </trkpt>
      <trkpt lat="42.95772" lon="1.86682">
        <ele>474</ele>
        <time>2022-07-25T08:16:03.000Z</time>
        <extensions>
          <gpxtpx:TrackPointExtension xmlns:gpxtpx="http://www.garmin.com/xmlschemas/TrackPointExtension/v1">
            <gpxtpx:hr>151</gpxtpx:hr>
          </gpxtpx:TrackPointExtension>
        </extensions>
      </trkpt>
      <trkpt lat="42.95777" lon="1.86689">
        <ele>474</ele>
        <time>2022-07-25T08:16:05.000Z</time>
        <extensions>
          <gpxtpx:TrackPointExtension xmlns:gpxtpx="http://www.garmin.com/xmlschemas/TrackPointExtension/v1">
            <gpxtpx:hr>151</gpxtpx:hr>
          </gpxtpx:TrackPointExtension>
        </extensions>
      </trkpt>
      <trkpt lat="42.95782" lon="1.86697">
        <ele>474</ele>
        <time>2022-07-25T08:16:07.000Z</time>
        <extensions>
          <gpxtpx:TrackPointExtension xmlns:gpxtpx="http://www.garmin.com/xmlschemas/TrackPointExtension/v1">
            <gpxtpx:hr>151</gpxtpx:hr>
          </gpxtpx:TrackPointExtension>
        </extensions>
      </trkpt>
      <trkpt lat="42.95788" lon="1.86705">
        <ele>474</ele>
        <time>2022-07-25T08:16:09.000Z</time>
        <extensions>
          <gpxtpx:TrackPointExtension xmlns:gpxtpx="http://www.garmin.com/xmlschemas/TrackPointExtension/v1">
            <gpxtpx:hr>151</gpxtpx:hr>
          </gpxtpx:TrackPointExtension>
        </extensions>
      </trkpt>
      <trkpt lat="42.95793" lon="1.86713">
        <ele>474</ele>
        <time>2022-07-25T08:16:11.000Z</time>
        <extensions>
          <gpxtpx:TrackPointExtension xmlns:gpxtpx="http://www.garmin.com/xmlschemas/TrackPointExtension/v1">
            <gpxtpx:hr>150</gpxtpx:hr>
          </gpxtpx:TrackPointExtension>
        </extensions>
      </trkpt>
      <trkpt lat="42.95798" lon="1.8672">
        <ele>474</ele>
        <time>2022-07-25T08:16:13.000Z</time>
        <extensions>
          <gpxtpx:TrackPointExtension xmlns:gpxtpx="http://www.garmin.com/xmlschemas/TrackPointExtension/v1">
            <gpxtpx:hr>150</gpxtpx:hr>
          </gpxtpx:TrackPointExtension>
        </extensions>
      </trkpt>
      <trkpt lat="42.95803" lon="1.86727">
        <ele>473.9</ele>
        <time>2022-07-25T08:16:15.000Z</time>
        <extensions>
          <gpxtpx:TrackPointExtension xmlns:gpxtpx="http://www.garmin.com/xmlschemas/TrackPointExtension/v1">
            <gpxtpx:hr>149</gpxtpx:hr>
          </gpxtpx:TrackPointExtension>
        </extensions>
      </trkpt>
      <trkpt lat="42.95809" lon="1.86735">
        <ele>473.9</ele>
        <time>2022-07-25T08:16:17.000Z</time>
        <extensions>
          <gpxtpx:TrackPointExtension xmlns:gpxtpx="http://www.garmin.com/xmlschemas/TrackPointExtension/v1">
            <gpxtpx:hr>148</gpxtpx:hr>
          </gpxtpx:TrackPointExtension>
        </extensions>
      </trkpt>
      <trkpt lat="42.95812" lon="1.8674">
        <ele>473.9</ele>
        <time>2022-07-25T08:16:18.000Z</time>
        <extensions>
          <gpxtpx:TrackPointExtension xmlns:gpxtpx="http://www.garmin.com/xmlschemas/TrackPointExtension/v1">
            <gpxtpx:hr>147</gpxtpx:hr>
          </gpxtpx:TrackPointExtension>
        </extensions>
      </trkpt>
      <trkpt lat="42.95815" lon="1.86745">
        <ele>473.9</ele>
        <time>2022-07-25T08:16:19.000Z</time>
        <extensions>
          <gpxtpx:TrackPointExtension xmlns:gpxtpx="http://www.garmin.com/xmlschemas/TrackPointExtension/v1">
            <gpxtpx:hr>147</gpxtpx:hr>
          </gpxtpx:TrackPointExtension>
        </extensions>
      </trkpt>
      <trkpt lat="42.95818" lon="1.86751">
        <ele>473.8</ele>
        <time>2022-07-25T08:16:20.000Z</time>
        <extensions>
          <gpxtpx:TrackPointExtension xmlns:gpxtpx="http://www.garmin.com/xmlschemas/TrackPointExtension/v1">
            <gpxtpx:hr>147</gpxtpx:hr>
          </gpxtpx:TrackPointExtension>
        </extensions>
      </trkpt>
      <trkpt lat="42.95822" lon="1.86757">
        <ele>473.8</ele>
        <time>2022-07-25T08:16:21.000Z</time>
        <extensions>
          <gpxtpx:TrackPointExtension xmlns:gpxtpx="http://www.garmin.com/xmlschemas/TrackPointExtension/v1">
            <gpxtpx:hr>146</gpxtpx:hr>
          </gpxtpx:TrackPointExtension>
        </extensions>
      </trkpt>
      <trkpt lat="42.95826" lon="1.86762">
        <ele>473.7</ele>
        <time>2022-07-25T08:16:22.000Z</time>
        <extensions>
          <gpxtpx:TrackPointExtension xmlns:gpxtpx="http://www.garmin.com/xmlschemas/TrackPointExtension/v1">
            <gpxtpx:hr>146</gpxtpx:hr>
          </gpxtpx:TrackPointExtension>
        </extensions>
      </trkpt>
      <trkpt lat="42.95829" lon="1.86768">
        <ele>473.7</ele>
        <time>2022-07-25T08:16:23.000Z</time>
        <extensions>
          <gpxtpx:TrackPointExtension xmlns:gpxtpx="http://www.garmin.com/xmlschemas/TrackPointExtension/v1">
            <gpxtpx:hr>145</gpxtpx:hr>
          </gpxtpx:TrackPointExtension>
        </extensions>
      </trkpt>
      <trkpt lat="42.95833" lon="1.86775">
        <ele>473.7</ele>
        <time>2022-07-25T08:16:24.000Z</time>
        <extensions>
          <gpxtpx:TrackPointExtension xmlns:gpxtpx="http://www.garmin.com/xmlschemas/TrackPointExtension/v1">
            <gpxtpx:hr>145</gpxtpx:hr>
          </gpxtpx:TrackPointExtension>
        </extensions>
      </trkpt>
      <trkpt lat="42.95837" lon="1.86781">
        <ele>473.6</ele>
        <time>2022-07-25T08:16:25.000Z</time>
        <extensions>
          <gpxtpx:TrackPointExtension xmlns:gpxtpx="http://www.garmin.com/xmlschemas/TrackPointExtension/v1">
            <gpxtpx:hr>145</gpxtpx:hr>
          </gpxtpx:TrackPointExtension>
        </extensions>
      </trkpt>
      <trkpt lat="42.95842" lon="1.86786">
        <ele>473.6</ele>
        <time>2022-07-25T08:16:26.000Z</time>
        <extensions>
          <gpxtpx:TrackPointExtension xmlns:gpxtpx="http://www.garmin.com/xmlschemas/TrackPointExtension/v1">
            <gpxtpx:hr>145</gpxtpx:hr>
          </gpxtpx:TrackPointExtension>
        </extensions>
      </trkpt>
      <trkpt lat="42.95845" lon="1.86792">
        <ele>473.6</ele>
        <time>2022-07-25T08:16:27.000Z</time>
        <extensions>
          <gpxtpx:TrackPointExtension xmlns:gpxtpx="http://www.garmin.com/xmlschemas/TrackPointExtension/v1">
            <gpxtpx:hr>145</gpxtpx:hr>
          </gpxtpx:TrackPointExtension>
        </extensions>
      </trkpt>
      <trkpt lat="42.95849" lon="1.86798">
        <ele>473.5</ele>
        <time>2022-07-25T08:16:28.000Z</time>
        <extensions>
          <gpxtpx:TrackPointExtension xmlns:gpxtpx="http://www.garmin.com/xmlschemas/TrackPointExtension/v1">
            <gpxtpx:hr>145</gpxtpx:hr>
          </gpxtpx:TrackPointExtension>
        </extensions>
      </trkpt>
      <trkpt lat="42.95853" lon="1.86804">
        <ele>473.5</ele>
        <time>2022-07-25T08:16:29.000Z</time>
        <extensions>
          <gpxtpx:TrackPointExtension xmlns:gpxtpx="http://www.garmin.com/xmlschemas/TrackPointExtension/v1">
            <gpxtpx:hr>145</gpxtpx:hr>
          </gpxtpx:TrackPointExtension>
        </extensions>
      </trkpt>
      <trkpt lat="42.95856" lon="1.8681">
        <ele>473.4</ele>
        <time>2022-07-25T08:16:30.000Z</time>
        <extensions>
          <gpxtpx:TrackPointExtension xmlns:gpxtpx="http://www.garmin.com/xmlschemas/TrackPointExtension/v1">
            <gpxtpx:hr>145</gpxtpx:hr>
          </gpxtpx:TrackPointExtension>
        </extensions>
      </trkpt>
      <trkpt lat="42.9586" lon="1.86816">
        <ele>473.4</ele>
        <time>2022-07-25T08:16:31.000Z</time>
        <extensions>
          <gpxtpx:TrackPointExtension xmlns:gpxtpx="http://www.garmin.com/xmlschemas/TrackPointExtension/v1">
            <gpxtpx:hr>145</gpxtpx:hr>
          </gpxtpx:TrackPointExtension>
        </extensions>
      </trkpt>
      <trkpt lat="42.95864" lon="1.86823">
        <ele>473.3</ele>
        <time>2022-07-25T08:16:32.000Z</time>
        <extensions>
          <gpxtpx:TrackPointExtension xmlns:gpxtpx="http://www.garmin.com/xmlschemas/TrackPointExtension/v1">
            <gpxtpx:hr>145</gpxtpx:hr>
          </gpxtpx:TrackPointExtension>
        </extensions>
      </trkpt>
      <trkpt lat="42.95868" lon="1.86831">
        <ele>473.3</ele>
        <time>2022-07-25T08:16:33.000Z</time>
        <extensions>
          <gpxtpx:TrackPointExtension xmlns:gpxtpx="http://www.garmin.com/xmlschemas/TrackPointExtension/v1">
            <gpxtpx:hr>145</gpxtpx:hr>
          </gpxtpx:TrackPointExtension>
        </extensions>
      </trkpt>
      <trkpt lat="42.95872" lon="1.86838">
        <ele>473.2</ele>
        <time>2022-07-25T08:16:34.000Z</time>
        <extensions>
          <gpxtpx:TrackPointExtension xmlns:gpxtpx="http://www.garmin.com/xmlschemas/TrackPointExtension/v1">
            <gpxtpx:hr>146</gpxtpx:hr>
          </gpxtpx:TrackPointExtension>
        </extensions>
      </trkpt>
      <trkpt lat="42.95876" lon="1.86845">
        <ele>473.2</ele>
        <time>2022-07-25T08:16:35.000Z</time>
        <extensions>
          <gpxtpx:TrackPointExtension xmlns:gpxtpx="http://www.garmin.com/xmlschemas/TrackPointExtension/v1">
            <gpxtpx:hr>146</gpxtpx:hr>
          </gpxtpx:TrackPointExtension>
        </extensions>
      </trkpt>
      <trkpt lat="42.9588" lon="1.86852">
        <ele>473.1</ele>
        <time>2022-07-25T08:16:36.000Z</time>
        <extensions>
          <gpxtpx:TrackPointExtension xmlns:gpxtpx="http://www.garmin.com/xmlschemas/TrackPointExtension/v1">
            <gpxtpx:hr>146</gpxtpx:hr>
          </gpxtpx:TrackPointExtension>
        </extensions>
      </trkpt>
      <trkpt lat="42.95884" lon="1.86859">
        <ele>473.1</ele>
        <time>2022-07-25T08:16:37.000Z</time>
        <extensions>
          <gpxtpx:TrackPointExtension xmlns:gpxtpx="http://www.garmin.com/xmlschemas/TrackPointExtension/v1">
            <gpxtpx:hr>146</gpxtpx:hr>
          </gpxtpx:TrackPointExtension>
        </extensions>
      </trkpt>
      <trkpt lat="42.95888" lon="1.86867">
        <ele>473</ele>
        <time>2022-07-25T08:16:38.000Z</time>
        <extensions>
          <gpxtpx:TrackPointExtension xmlns:gpxtpx="http://www.garmin.com/xmlschemas/TrackPointExtension/v1">
            <gpxtpx:hr>146</gpxtpx:hr>
          </gpxtpx:TrackPointExtension>
        </extensions>
      </trkpt>
      <trkpt lat="42.95892" lon="1.86875">
        <ele>472.9</ele>
        <time>2022-07-25T08:16:39.000Z</time>
        <extensions>
          <gpxtpx:TrackPointExtension xmlns:gpxtpx="http://www.garmin.com/xmlschemas/TrackPointExtension/v1">
            <gpxtpx:hr>145</gpxtpx:hr>
          </gpxtpx:TrackPointExtension>
        </extensions>
      </trkpt>
      <trkpt lat="42.95895" lon="1.86882">
        <ele>472.9</ele>
        <time>2022-07-25T08:16:40.000Z</time>
        <extensions>
          <gpxtpx:TrackPointExtension xmlns:gpxtpx="http://www.garmin.com/xmlschemas/TrackPointExtension/v1">
            <gpxtpx:hr>145</gpxtpx:hr>
          </gpxtpx:TrackPointExtension>
        </extensions>
      </trkpt>
      <trkpt lat="42.95899" lon="1.8689">
        <ele>472.8</ele>
        <time>2022-07-25T08:16:41.000Z</time>
        <extensions>
          <gpxtpx:TrackPointExtension xmlns:gpxtpx="http://www.garmin.com/xmlschemas/TrackPointExtension/v1">
            <gpxtpx:hr>145</gpxtpx:hr>
          </gpxtpx:TrackPointExtension>
        </extensions>
      </trkpt>
      <trkpt lat="42.95902" lon="1.86897">
        <ele>472.7</ele>
        <time>2022-07-25T08:16:42.000Z</time>
        <extensions>
          <gpxtpx:TrackPointExtension xmlns:gpxtpx="http://www.garmin.com/xmlschemas/TrackPointExtension/v1">
            <gpxtpx:hr>145</gpxtpx:hr>
          </gpxtpx:TrackPointExtension>
        </extensions>
      </trkpt>
      <trkpt lat="42.95905" lon="1.86904">
        <ele>472.6</ele>
        <time>2022-07-25T08:16:43.000Z</time>
        <extensions>
          <gpxtpx:TrackPointExtension xmlns:gpxtpx="http://www.garmin.com/xmlschemas/TrackPointExtension/v1">
            <gpxtpx:hr>145</gpxtpx:hr>
          </gpxtpx:TrackPointExtension>
        </extensions>
      </trkpt>
      <trkpt lat="42.95908" lon="1.86912">
        <ele>472.6</ele>
        <time>2022-07-25T08:16:44.000Z</time>
        <extensions>
          <gpxtpx:TrackPointExtension xmlns:gpxtpx="http://www.garmin.com/xmlschemas/TrackPointExtension/v1">
            <gpxtpx:hr>145</gpxtpx:hr>
          </gpxtpx:TrackPointExtension>
        </extensions>
      </trkpt>
      <trkpt lat="42.95912" lon="1.8692">
        <ele>472.5</ele>
        <time>2022-07-25T08:16:45.000Z</time>
        <extensions>
          <gpxtpx:TrackPointExtension xmlns:gpxtpx="http://www.garmin.com/xmlschemas/TrackPointExtension/v1">
            <gpxtpx:hr>145</gpxtpx:hr>
          </gpxtpx:TrackPointExtension>
        </extensions>
      </trkpt>
      <trkpt lat="42.95915" lon="1.86927">
        <ele>472.5</ele>
        <time>2022-07-25T08:16:46.000Z</time>
        <extensions>
          <gpxtpx:TrackPointExtension xmlns:gpxtpx="http://www.garmin.com/xmlschemas/TrackPointExtension/v1">
            <gpxtpx:hr>145</gpxtpx:hr>
          </gpxtpx:TrackPointExtension>
        </extensions>
      </trkpt>
      <trkpt lat="42.95918" lon="1.86935">
        <ele>472.4</ele>
        <time>2022-07-25T08:16:47.000Z</time>
        <extensions>
          <gpxtpx:TrackPointExtension xmlns:gpxtpx="http://www.garmin.com/xmlschemas/TrackPointExtension/v1">
            <gpxtpx:hr>145</gpxtpx:hr>
          </gpxtpx:TrackPointExtension>
        </extensions>
      </trkpt>
      <trkpt lat="42.95922" lon="1.86943">
        <ele>472.3</ele>
        <time>2022-07-25T08:16:48.000Z</time>
        <extensions>
          <gpxtpx:TrackPointExtension xmlns:gpxtpx="http://www.garmin.com/xmlschemas/TrackPointExtension/v1">
            <gpxtpx:hr>145</gpxtpx:hr>
          </gpxtpx:TrackPointExtension>
        </extensions>
      </trkpt>
      <trkpt lat="42.95925" lon="1.86951">
        <ele>472.3</ele>
        <time>2022-07-25T08:16:49.000Z</time>
        <extensions>
          <gpxtpx:TrackPointExtension xmlns:gpxtpx="http://www.garmin.com/xmlschemas/TrackPointExtension/v1">
            <gpxtpx:hr>146</gpxtpx:hr>
          </gpxtpx:TrackPointExtension>
        </extensions>
      </trkpt>
      <trkpt lat="42.95928" lon="1.86959">
        <ele>472.2</ele>
        <time>2022-07-25T08:16:50.000Z</time>
        <extensions>
          <gpxtpx:TrackPointExtension xmlns:gpxtpx="http://www.garmin.com/xmlschemas/TrackPointExtension/v1">
            <gpxtpx:hr>146</gpxtpx:hr>
          </gpxtpx:TrackPointExtension>
        </extensions>
      </trkpt>
      <trkpt lat="42.95932" lon="1.86967">
        <ele>472.2</ele>
        <time>2022-07-25T08:16:51.000Z</time>
        <extensions>
          <gpxtpx:TrackPointExtension xmlns:gpxtpx="http://www.garmin.com/xmlschemas/TrackPointExtension/v1">
            <gpxtpx:hr>146</gpxtpx:hr>
          </gpxtpx:TrackPointExtension>
        </extensions>
      </trkpt>
      <trkpt lat="42.95935" lon="1.86974">
        <ele>472.1</ele>
        <time>2022-07-25T08:16:52.000Z</time>
        <extensions>
          <gpxtpx:TrackPointExtension xmlns:gpxtpx="http://www.garmin.com/xmlschemas/TrackPointExtension/v1">
            <gpxtpx:hr>146</gpxtpx:hr>
          </gpxtpx:TrackPointExtension>
        </extensions>
      </trkpt>
      <trkpt lat="42.95938" lon="1.86982">
        <ele>472</ele>
        <time>2022-07-25T08:16:53.000Z</time>
        <extensions>
          <gpxtpx:TrackPointExtension xmlns:gpxtpx="http://www.garmin.com/xmlschemas/TrackPointExtension/v1">
            <gpxtpx:hr>146</gpxtpx:hr>
          </gpxtpx:TrackPointExtension>
        </extensions>
      </trkpt>
      <trkpt lat="42.95942" lon="1.86991">
        <ele>472</ele>
        <time>2022-07-25T08:16:54.000Z</time>
        <extensions>
          <gpxtpx:TrackPointExtension xmlns:gpxtpx="http://www.garmin.com/xmlschemas/TrackPointExtension/v1">
            <gpxtpx:hr>146</gpxtpx:hr>
          </gpxtpx:TrackPointExtension>
        </extensions>
      </trkpt>
      <trkpt lat="42.95947" lon="1.86999">
        <ele>471.9</ele>
        <time>2022-07-25T08:16:55.000Z</time>
        <extensions>
          <gpxtpx:TrackPointExtension xmlns:gpxtpx="http://www.garmin.com/xmlschemas/TrackPointExtension/v1">
            <gpxtpx:hr>146</gpxtpx:hr>
          </gpxtpx:TrackPointExtension>
        </extensions>
      </trkpt>
      <trkpt lat="42.9595" lon="1.87007">
        <ele>471.9</ele>
        <time>2022-07-25T08:16:56.000Z</time>
        <extensions>
          <gpxtpx:TrackPointExtension xmlns:gpxtpx="http://www.garmin.com/xmlschemas/TrackPointExtension/v1">
            <gpxtpx:hr>146</gpxtpx:hr>
          </gpxtpx:TrackPointExtension>
        </extensions>
      </trkpt>
      <trkpt lat="42.95953" lon="1.87015">
        <ele>471.8</ele>
        <time>2022-07-25T08:16:57.000Z</time>
        <extensions>
          <gpxtpx:TrackPointExtension xmlns:gpxtpx="http://www.garmin.com/xmlschemas/TrackPointExtension/v1">
            <gpxtpx:hr>146</gpxtpx:hr>
          </gpxtpx:TrackPointExtension>
        </extensions>
      </trkpt>
      <trkpt lat="42.95956" lon="1.87023">
        <ele>471.7</ele>
        <time>2022-07-25T08:16:58.000Z</time>
        <extensions>
          <gpxtpx:TrackPointExtension xmlns:gpxtpx="http://www.garmin.com/xmlschemas/TrackPointExtension/v1">
            <gpxtpx:hr>146</gpxtpx:hr>
          </gpxtpx:TrackPointExtension>
        </extensions>
      </trkpt>
      <trkpt lat="42.95959" lon="1.87032">
        <ele>471.7</ele>
        <time>2022-07-25T08:16:59.000Z</time>
        <extensions>
          <gpxtpx:TrackPointExtension xmlns:gpxtpx="http://www.garmin.com/xmlschemas/TrackPointExtension/v1">
            <gpxtpx:hr>146</gpxtpx:hr>
          </gpxtpx:TrackPointExtension>
        </extensions>
      </trkpt>
      <trkpt lat="42.95961" lon="1.8704">
        <ele>471.6</ele>
        <time>2022-07-25T08:17:00.000Z</time>
        <extensions>
          <gpxtpx:TrackPointExtension xmlns:gpxtpx="http://www.garmin.com/xmlschemas/TrackPointExtension/v1">
            <gpxtpx:hr>146</gpxtpx:hr>
          </gpxtpx:TrackPointExtension>
        </extensions>
      </trkpt>
      <trkpt lat="42.95963" lon="1.87048">
        <ele>471.6</ele>
        <time>2022-07-25T08:17:01.000Z</time>
        <extensions>
          <gpxtpx:TrackPointExtension xmlns:gpxtpx="http://www.garmin.com/xmlschemas/TrackPointExtension/v1">
            <gpxtpx:hr>146</gpxtpx:hr>
          </gpxtpx:TrackPointExtension>
        </extensions>
      </trkpt>
      <trkpt lat="42.95967" lon="1.87056">
        <ele>471.5</ele>
        <time>2022-07-25T08:17:02.000Z</time>
        <extensions>
          <gpxtpx:TrackPointExtension xmlns:gpxtpx="http://www.garmin.com/xmlschemas/TrackPointExtension/v1">
            <gpxtpx:hr>146</gpxtpx:hr>
          </gpxtpx:TrackPointExtension>
        </extensions>
      </trkpt>
      <trkpt lat="42.9597" lon="1.87063">
        <ele>471.5</ele>
        <time>2022-07-25T08:17:03.000Z</time>
        <extensions>
          <gpxtpx:TrackPointExtension xmlns:gpxtpx="http://www.garmin.com/xmlschemas/TrackPointExtension/v1">
            <gpxtpx:hr>145</gpxtpx:hr>
          </gpxtpx:TrackPointExtension>
        </extensions>
      </trkpt>
      <trkpt lat="42.95972" lon="1.8707">
        <ele>471.4</ele>
        <time>2022-07-25T08:17:04.000Z</time>
        <extensions>
          <gpxtpx:TrackPointExtension xmlns:gpxtpx="http://www.garmin.com/xmlschemas/TrackPointExtension/v1">
            <gpxtpx:hr>144</gpxtpx:hr>
          </gpxtpx:TrackPointExtension>
        </extensions>
      </trkpt>
      <trkpt lat="42.95975" lon="1.87077">
        <ele>471.4</ele>
        <time>2022-07-25T08:17:05.000Z</time>
        <extensions>
          <gpxtpx:TrackPointExtension xmlns:gpxtpx="http://www.garmin.com/xmlschemas/TrackPointExtension/v1">
            <gpxtpx:hr>144</gpxtpx:hr>
          </gpxtpx:TrackPointExtension>
        </extensions>
      </trkpt>
      <trkpt lat="42.95979" lon="1.87085">
        <ele>471.3</ele>
        <time>2022-07-25T08:17:06.000Z</time>
        <extensions>
          <gpxtpx:TrackPointExtension xmlns:gpxtpx="http://www.garmin.com/xmlschemas/TrackPointExtension/v1">
            <gpxtpx:hr>143</gpxtpx:hr>
          </gpxtpx:TrackPointExtension>
        </extensions>
      </trkpt>
      <trkpt lat="42.95982" lon="1.87092">
        <ele>471.2</ele>
        <time>2022-07-25T08:17:07.000Z</time>
        <extensions>
          <gpxtpx:TrackPointExtension xmlns:gpxtpx="http://www.garmin.com/xmlschemas/TrackPointExtension/v1">
            <gpxtpx:hr>142</gpxtpx:hr>
          </gpxtpx:TrackPointExtension>
        </extensions>
      </trkpt>
      <trkpt lat="42.95985" lon="1.871">
        <ele>471.2</ele>
        <time>2022-07-25T08:17:08.000Z</time>
        <extensions>
          <gpxtpx:TrackPointExtension xmlns:gpxtpx="http://www.garmin.com/xmlschemas/TrackPointExtension/v1">
            <gpxtpx:hr>141</gpxtpx:hr>
          </gpxtpx:TrackPointExtension>
        </extensions>
      </trkpt>
      <trkpt lat="42.95988" lon="1.87108">
        <ele>471.1</ele>
        <time>2022-07-25T08:17:09.000Z</time>
        <extensions>
          <gpxtpx:TrackPointExtension xmlns:gpxtpx="http://www.garmin.com/xmlschemas/TrackPointExtension/v1">
            <gpxtpx:hr>140</gpxtpx:hr>
          </gpxtpx:TrackPointExtension>
        </extensions>
      </trkpt>
      <trkpt lat="42.95991" lon="1.87116">
        <ele>471.1</ele>
        <time>2022-07-25T08:17:10.000Z</time>
        <extensions>
          <gpxtpx:TrackPointExtension xmlns:gpxtpx="http://www.garmin.com/xmlschemas/TrackPointExtension/v1">
            <gpxtpx:hr>140</gpxtpx:hr>
          </gpxtpx:TrackPointExtension>
        </extensions>
      </trkpt>
      <trkpt lat="42.95994" lon="1.87123">
        <ele>471</ele>
        <time>2022-07-25T08:17:11.000Z</time>
        <extensions>
          <gpxtpx:TrackPointExtension xmlns:gpxtpx="http://www.garmin.com/xmlschemas/TrackPointExtension/v1">
            <gpxtpx:hr>139</gpxtpx:hr>
          </gpxtpx:TrackPointExtension>
        </extensions>
      </trkpt>
      <trkpt lat="42.95997" lon="1.87131">
        <ele>470.9</ele>
        <time>2022-07-25T08:17:12.000Z</time>
        <extensions>
          <gpxtpx:TrackPointExtension xmlns:gpxtpx="http://www.garmin.com/xmlschemas/TrackPointExtension/v1">
            <gpxtpx:hr>139</gpxtpx:hr>
          </gpxtpx:TrackPointExtension>
        </extensions>
      </trkpt>
      <trkpt lat="42.96" lon="1.87139">
        <ele>470.8</ele>
        <time>2022-07-25T08:17:13.000Z</time>
        <extensions>
          <gpxtpx:TrackPointExtension xmlns:gpxtpx="http://www.garmin.com/xmlschemas/TrackPointExtension/v1">
            <gpxtpx:hr>139</gpxtpx:hr>
          </gpxtpx:TrackPointExtension>
        </extensions>
      </trkpt>
      <trkpt lat="42.96003" lon="1.87147">
        <ele>470.7</ele>
        <time>2022-07-25T08:17:14.000Z</time>
        <extensions>
          <gpxtpx:TrackPointExtension xmlns:gpxtpx="http://www.garmin.com/xmlschemas/TrackPointExtension/v1">
            <gpxtpx:hr>138</gpxtpx:hr>
          </gpxtpx:TrackPointExtension>
        </extensions>
      </trkpt>
      <trkpt lat="42.96006" lon="1.87155">
        <ele>470.7</ele>
        <time>2022-07-25T08:17:15.000Z</time>
        <extensions>
          <gpxtpx:TrackPointExtension xmlns:gpxtpx="http://www.garmin.com/xmlschemas/TrackPointExtension/v1">
            <gpxtpx:hr>138</gpxtpx:hr>
          </gpxtpx:TrackPointExtension>
        </extensions>
      </trkpt>
      <trkpt lat="42.96008" lon="1.87162">
        <ele>470.6</ele>
        <time>2022-07-25T08:17:16.000Z</time>
        <extensions>
          <gpxtpx:TrackPointExtension xmlns:gpxtpx="http://www.garmin.com/xmlschemas/TrackPointExtension/v1">
            <gpxtpx:hr>138</gpxtpx:hr>
          </gpxtpx:TrackPointExtension>
        </extensions>
      </trkpt>
      <trkpt lat="42.96012" lon="1.8717">
        <ele>470.5</ele>
        <time>2022-07-25T08:17:17.000Z</time>
        <extensions>
          <gpxtpx:TrackPointExtension xmlns:gpxtpx="http://www.garmin.com/xmlschemas/TrackPointExtension/v1">
            <gpxtpx:hr>138</gpxtpx:hr>
          </gpxtpx:TrackPointExtension>
        </extensions>
      </trkpt>
      <trkpt lat="42.96015" lon="1.87178">
        <ele>470.4</ele>
        <time>2022-07-25T08:17:18.000Z</time>
        <extensions>
          <gpxtpx:TrackPointExtension xmlns:gpxtpx="http://www.garmin.com/xmlschemas/TrackPointExtension/v1">
            <gpxtpx:hr>137</gpxtpx:hr>
          </gpxtpx:TrackPointExtension>
        </extensions>
      </trkpt>
      <trkpt lat="42.96017" lon="1.87186">
        <ele>470.4</ele>
        <time>2022-07-25T08:17:19.000Z</time>
        <extensions>
          <gpxtpx:TrackPointExtension xmlns:gpxtpx="http://www.garmin.com/xmlschemas/TrackPointExtension/v1">
            <gpxtpx:hr>137</gpxtpx:hr>
          </gpxtpx:TrackPointExtension>
        </extensions>
      </trkpt>
      <trkpt lat="42.96021" lon="1.87194">
        <ele>470.3</ele>
        <time>2022-07-25T08:17:20.000Z</time>
        <extensions>
          <gpxtpx:TrackPointExtension xmlns:gpxtpx="http://www.garmin.com/xmlschemas/TrackPointExtension/v1">
            <gpxtpx:hr>137</gpxtpx:hr>
          </gpxtpx:TrackPointExtension>
        </extensions>
      </trkpt>
      <trkpt lat="42.96024" lon="1.87203">
        <ele>470.2</ele>
        <time>2022-07-25T08:17:21.000Z</time>
        <extensions>
          <gpxtpx:TrackPointExtension xmlns:gpxtpx="http://www.garmin.com/xmlschemas/TrackPointExtension/v1">
            <gpxtpx:hr>137</gpxtpx:hr>
          </gpxtpx:TrackPointExtension>
        </extensions>
      </trkpt>
      <trkpt lat="42.96027" lon="1.87214">
        <ele>470.2</ele>
        <time>2022-07-25T08:17:22.000Z</time>
        <extensions>
          <gpxtpx:TrackPointExtension xmlns:gpxtpx="http://www.garmin.com/xmlschemas/TrackPointExtension/v1">
            <gpxtpx:hr>137</gpxtpx:hr>
          </gpxtpx:TrackPointExtension>
        </extensions>
      </trkpt>
      <trkpt lat="42.9603" lon="1.87223">
        <ele>470.1</ele>
        <time>2022-07-25T08:17:23.000Z</time>
        <extensions>
          <gpxtpx:TrackPointExtension xmlns:gpxtpx="http://www.garmin.com/xmlschemas/TrackPointExtension/v1">
            <gpxtpx:hr>137</gpxtpx:hr>
          </gpxtpx:TrackPointExtension>
        </extensions>
      </trkpt>
      <trkpt lat="42.96034" lon="1.87232">
        <ele>470.1</ele>
        <time>2022-07-25T08:17:24.000Z</time>
        <extensions>
          <gpxtpx:TrackPointExtension xmlns:gpxtpx="http://www.garmin.com/xmlschemas/TrackPointExtension/v1">
            <gpxtpx:hr>137</gpxtpx:hr>
          </gpxtpx:TrackPointExtension>
        </extensions>
      </trkpt>
      <trkpt lat="42.96037" lon="1.8724">
        <ele>470</ele>
        <time>2022-07-25T08:17:25.000Z</time>
        <extensions>
          <gpxtpx:TrackPointExtension xmlns:gpxtpx="http://www.garmin.com/xmlschemas/TrackPointExtension/v1">
            <gpxtpx:hr>136</gpxtpx:hr>
          </gpxtpx:TrackPointExtension>
        </extensions>
      </trkpt>
      <trkpt lat="42.9604" lon="1.87249">
        <ele>469.9</ele>
        <time>2022-07-25T08:17:26.000Z</time>
        <extensions>
          <gpxtpx:TrackPointExtension xmlns:gpxtpx="http://www.garmin.com/xmlschemas/TrackPointExtension/v1">
            <gpxtpx:hr>136</gpxtpx:hr>
          </gpxtpx:TrackPointExtension>
        </extensions>
      </trkpt>
      <trkpt lat="42.96043" lon="1.87257">
        <ele>469.8</ele>
        <time>2022-07-25T08:17:27.000Z</time>
        <extensions>
          <gpxtpx:TrackPointExtension xmlns:gpxtpx="http://www.garmin.com/xmlschemas/TrackPointExtension/v1">
            <gpxtpx:hr>136</gpxtpx:hr>
          </gpxtpx:TrackPointExtension>
        </extensions>
      </trkpt>
      <trkpt lat="42.96046" lon="1.87265">
        <ele>469.8</ele>
        <time>2022-07-25T08:17:28.000Z</time>
        <extensions>
          <gpxtpx:TrackPointExtension xmlns:gpxtpx="http://www.garmin.com/xmlschemas/TrackPointExtension/v1">
            <gpxtpx:hr>136</gpxtpx:hr>
          </gpxtpx:TrackPointExtension>
        </extensions>
      </trkpt>
      <trkpt lat="42.96049" lon="1.87273">
        <ele>469.7</ele>
        <time>2022-07-25T08:17:29.000Z</time>
        <extensions>
          <gpxtpx:TrackPointExtension xmlns:gpxtpx="http://www.garmin.com/xmlschemas/TrackPointExtension/v1">
            <gpxtpx:hr>136</gpxtpx:hr>
          </gpxtpx:TrackPointExtension>
        </extensions>
      </trkpt>
      <trkpt lat="42.96052" lon="1.87281">
        <ele>469.7</ele>
        <time>2022-07-25T08:17:30.000Z</time>
        <extensions>
          <gpxtpx:TrackPointExtension xmlns:gpxtpx="http://www.garmin.com/xmlschemas/TrackPointExtension/v1">
            <gpxtpx:hr>135</gpxtpx:hr>
          </gpxtpx:TrackPointExtension>
        </extensions>
      </trkpt>
      <trkpt lat="42.96055" lon="1.8729">
        <ele>469.6</ele>
        <time>2022-07-25T08:17:31.000Z</time>
        <extensions>
          <gpxtpx:TrackPointExtension xmlns:gpxtpx="http://www.garmin.com/xmlschemas/TrackPointExtension/v1">
            <gpxtpx:hr>135</gpxtpx:hr>
          </gpxtpx:TrackPointExtension>
        </extensions>
      </trkpt>
      <trkpt lat="42.96057" lon="1.87298">
        <ele>469.5</ele>
        <time>2022-07-25T08:17:32.000Z</time>
        <extensions>
          <gpxtpx:TrackPointExtension xmlns:gpxtpx="http://www.garmin.com/xmlschemas/TrackPointExtension/v1">
            <gpxtpx:hr>134</gpxtpx:hr>
          </gpxtpx:TrackPointExtension>
        </extensions>
      </trkpt>
      <trkpt lat="42.96059" lon="1.87306">
        <ele>469.5</ele>
        <time>2022-07-25T08:17:33.000Z</time>
        <extensions>
          <gpxtpx:TrackPointExtension xmlns:gpxtpx="http://www.garmin.com/xmlschemas/TrackPointExtension/v1">
            <gpxtpx:hr>133</gpxtpx:hr>
          </gpxtpx:TrackPointExtension>
        </extensions>
      </trkpt>
      <trkpt lat="42.96061" lon="1.87314">
        <ele>469.4</ele>
        <time>2022-07-25T08:17:34.000Z</time>
        <extensions>
          <gpxtpx:TrackPointExtension xmlns:gpxtpx="http://www.garmin.com/xmlschemas/TrackPointExtension/v1">
            <gpxtpx:hr>132</gpxtpx:hr>
          </gpxtpx:TrackPointExtension>
        </extensions>
      </trkpt>
      <trkpt lat="42.96063" lon="1.87321">
        <ele>469.3</ele>
        <time>2022-07-25T08:17:35.000Z</time>
        <extensions>
          <gpxtpx:TrackPointExtension xmlns:gpxtpx="http://www.garmin.com/xmlschemas/TrackPointExtension/v1">
            <gpxtpx:hr>131</gpxtpx:hr>
          </gpxtpx:TrackPointExtension>
        </extensions>
      </trkpt>
      <trkpt lat="42.96066" lon="1.87329">
        <ele>469.3</ele>
        <time>2022-07-25T08:17:36.000Z</time>
        <extensions>
          <gpxtpx:TrackPointExtension xmlns:gpxtpx="http://www.garmin.com/xmlschemas/TrackPointExtension/v1">
            <gpxtpx:hr>130</gpxtpx:hr>
          </gpxtpx:TrackPointExtension>
        </extensions>
      </trkpt>
      <trkpt lat="42.96068" lon="1.87337">
        <ele>469.2</ele>
        <time>2022-07-25T08:17:37.000Z</time>
        <extensions>
          <gpxtpx:TrackPointExtension xmlns:gpxtpx="http://www.garmin.com/xmlschemas/TrackPointExtension/v1">
            <gpxtpx:hr>129</gpxtpx:hr>
          </gpxtpx:TrackPointExtension>
        </extensions>
      </trkpt>
      <trkpt lat="42.9607" lon="1.87345">
        <ele>469.1</ele>
        <time>2022-07-25T08:17:38.000Z</time>
        <extensions>
          <gpxtpx:TrackPointExtension xmlns:gpxtpx="http://www.garmin.com/xmlschemas/TrackPointExtension/v1">
            <gpxtpx:hr>129</gpxtpx:hr>
          </gpxtpx:TrackPointExtension>
        </extensions>
      </trkpt>
      <trkpt lat="42.96072" lon="1.87353">
        <ele>469</ele>
        <time>2022-07-25T08:17:39.000Z</time>
        <extensions>
          <gpxtpx:TrackPointExtension xmlns:gpxtpx="http://www.garmin.com/xmlschemas/TrackPointExtension/v1">
            <gpxtpx:hr>129</gpxtpx:hr>
          </gpxtpx:TrackPointExtension>
        </extensions>
      </trkpt>
      <trkpt lat="42.96073" lon="1.87361">
        <ele>468.9</ele>
        <time>2022-07-25T08:17:40.000Z</time>
        <extensions>
          <gpxtpx:TrackPointExtension xmlns:gpxtpx="http://www.garmin.com/xmlschemas/TrackPointExtension/v1">
            <gpxtpx:hr>129</gpxtpx:hr>
          </gpxtpx:TrackPointExtension>
        </extensions>
      </trkpt>
      <trkpt lat="42.96075" lon="1.8737">
        <ele>468.8</ele>
        <time>2022-07-25T08:17:41.000Z</time>
        <extensions>
          <gpxtpx:TrackPointExtension xmlns:gpxtpx="http://www.garmin.com/xmlschemas/TrackPointExtension/v1">
            <gpxtpx:hr>128</gpxtpx:hr>
          </gpxtpx:TrackPointExtension>
        </extensions>
      </trkpt>
      <trkpt lat="42.96076" lon="1.87379">
        <ele>468.6</ele>
        <time>2022-07-25T08:17:42.000Z</time>
        <extensions>
          <gpxtpx:TrackPointExtension xmlns:gpxtpx="http://www.garmin.com/xmlschemas/TrackPointExtension/v1">
            <gpxtpx:hr>128</gpxtpx:hr>
          </gpxtpx:TrackPointExtension>
        </extensions>
      </trkpt>
      <trkpt lat="42.96078" lon="1.87388">
        <ele>468.5</ele>
        <time>2022-07-25T08:17:43.000Z</time>
        <extensions>
          <gpxtpx:TrackPointExtension xmlns:gpxtpx="http://www.garmin.com/xmlschemas/TrackPointExtension/v1">
            <gpxtpx:hr>128</gpxtpx:hr>
          </gpxtpx:TrackPointExtension>
        </extensions>
      </trkpt>
      <trkpt lat="42.9608" lon="1.87397">
        <ele>468.3</ele>
        <time>2022-07-25T08:17:44.000Z</time>
        <extensions>
          <gpxtpx:TrackPointExtension xmlns:gpxtpx="http://www.garmin.com/xmlschemas/TrackPointExtension/v1">
            <gpxtpx:hr>128</gpxtpx:hr>
          </gpxtpx:TrackPointExtension>
        </extensions>
      </trkpt>
      <trkpt lat="42.96081" lon="1.87406">
        <ele>468.2</ele>
        <time>2022-07-25T08:17:45.000Z</time>
        <extensions>
          <gpxtpx:TrackPointExtension xmlns:gpxtpx="http://www.garmin.com/xmlschemas/TrackPointExtension/v1">
            <gpxtpx:hr>128</gpxtpx:hr>
          </gpxtpx:TrackPointExtension>
        </extensions>
      </trkpt>
      <trkpt lat="42.96083" lon="1.87415">
        <ele>468</ele>
        <time>2022-07-25T08:17:46.000Z</time>
        <extensions>
          <gpxtpx:TrackPointExtension xmlns:gpxtpx="http://www.garmin.com/xmlschemas/TrackPointExtension/v1">
            <gpxtpx:hr>128</gpxtpx:hr>
          </gpxtpx:TrackPointExtension>
        </extensions>
      </trkpt>
      <trkpt lat="42.96085" lon="1.87423">
        <ele>467.9</ele>
        <time>2022-07-25T08:17:47.000Z</time>
        <extensions>
          <gpxtpx:TrackPointExtension xmlns:gpxtpx="http://www.garmin.com/xmlschemas/TrackPointExtension/v1">
            <gpxtpx:hr>128</gpxtpx:hr>
          </gpxtpx:TrackPointExtension>
        </extensions>
      </trkpt>
      <trkpt lat="42.96086" lon="1.87431">
        <ele>467.8</ele>
        <time>2022-07-25T08:17:48.000Z</time>
        <extensions>
          <gpxtpx:TrackPointExtension xmlns:gpxtpx="http://www.garmin.com/xmlschemas/TrackPointExtension/v1">
            <gpxtpx:hr>128</gpxtpx:hr>
          </gpxtpx:TrackPointExtension>
        </extensions>
      </trkpt>
      <trkpt lat="42.96087" lon="1.87439">
        <ele>467.7</ele>
        <time>2022-07-25T08:17:49.000Z</time>
        <extensions>
          <gpxtpx:TrackPointExtension xmlns:gpxtpx="http://www.garmin.com/xmlschemas/TrackPointExtension/v1">
            <gpxtpx:hr>128</gpxtpx:hr>
          </gpxtpx:TrackPointExtension>
        </extensions>
      </trkpt>
      <trkpt lat="42.96088" lon="1.87447">
        <ele>467.6</ele>
        <time>2022-07-25T08:17:50.000Z</time>
        <extensions>
          <gpxtpx:TrackPointExtension xmlns:gpxtpx="http://www.garmin.com/xmlschemas/TrackPointExtension/v1">
            <gpxtpx:hr>128</gpxtpx:hr>
          </gpxtpx:TrackPointExtension>
        </extensions>
      </trkpt>
      <trkpt lat="42.96089" lon="1.87455">
        <ele>467.5</ele>
        <time>2022-07-25T08:17:51.000Z</time>
        <extensions>
          <gpxtpx:TrackPointExtension xmlns:gpxtpx="http://www.garmin.com/xmlschemas/TrackPointExtension/v1">
            <gpxtpx:hr>127</gpxtpx:hr>
          </gpxtpx:TrackPointExtension>
        </extensions>
      </trkpt>
      <trkpt lat="42.9609" lon="1.87463">
        <ele>467.4</ele>
        <time>2022-07-25T08:17:52.000Z</time>
        <extensions>
          <gpxtpx:TrackPointExtension xmlns:gpxtpx="http://www.garmin.com/xmlschemas/TrackPointExtension/v1">
            <gpxtpx:hr>127</gpxtpx:hr>
          </gpxtpx:TrackPointExtension>
        </extensions>
      </trkpt>
      <trkpt lat="42.9609" lon="1.87471">
        <ele>467.3</ele>
        <time>2022-07-25T08:17:53.000Z</time>
        <extensions>
          <gpxtpx:TrackPointExtension xmlns:gpxtpx="http://www.garmin.com/xmlschemas/TrackPointExtension/v1">
            <gpxtpx:hr>126</gpxtpx:hr>
          </gpxtpx:TrackPointExtension>
        </extensions>
      </trkpt>
      <trkpt lat="42.9609" lon="1.87478">
        <ele>467.2</ele>
        <time>2022-07-25T08:17:54.000Z</time>
        <extensions>
          <gpxtpx:TrackPointExtension xmlns:gpxtpx="http://www.garmin.com/xmlschemas/TrackPointExtension/v1">
            <gpxtpx:hr>125</gpxtpx:hr>
          </gpxtpx:TrackPointExtension>
        </extensions>
      </trkpt>
      <trkpt lat="42.9609" lon="1.87485">
        <ele>467.1</ele>
        <time>2022-07-25T08:17:55.000Z</time>
        <extensions>
          <gpxtpx:TrackPointExtension xmlns:gpxtpx="http://www.garmin.com/xmlschemas/TrackPointExtension/v1">
            <gpxtpx:hr>124</gpxtpx:hr>
          </gpxtpx:TrackPointExtension>
        </extensions>
      </trkpt>
      <trkpt lat="42.96089" lon="1.87493">
        <ele>467.1</ele>
        <time>2022-07-25T08:17:56.000Z</time>
        <extensions>
          <gpxtpx:TrackPointExtension xmlns:gpxtpx="http://www.garmin.com/xmlschemas/TrackPointExtension/v1">
            <gpxtpx:hr>124</gpxtpx:hr>
          </gpxtpx:TrackPointExtension>
        </extensions>
      </trkpt>
      <trkpt lat="42.96089" lon="1.87501">
        <ele>467</ele>
        <time>2022-07-25T08:17:57.000Z</time>
        <extensions>
          <gpxtpx:TrackPointExtension xmlns:gpxtpx="http://www.garmin.com/xmlschemas/TrackPointExtension/v1">
            <gpxtpx:hr>124</gpxtpx:hr>
          </gpxtpx:TrackPointExtension>
        </extensions>
      </trkpt>
      <trkpt lat="42.96088" lon="1.87509">
        <ele>466.9</ele>
        <time>2022-07-25T08:17:58.000Z</time>
        <extensions>
          <gpxtpx:TrackPointExtension xmlns:gpxtpx="http://www.garmin.com/xmlschemas/TrackPointExtension/v1">
            <gpxtpx:hr>123</gpxtpx:hr>
          </gpxtpx:TrackPointExtension>
        </extensions>
      </trkpt>
      <trkpt lat="42.96087" lon="1.87517">
        <ele>466.8</ele>
        <time>2022-07-25T08:17:59.000Z</time>
        <extensions>
          <gpxtpx:TrackPointExtension xmlns:gpxtpx="http://www.garmin.com/xmlschemas/TrackPointExtension/v1">
            <gpxtpx:hr>123</gpxtpx:hr>
          </gpxtpx:TrackPointExtension>
        </extensions>
      </trkpt>
      <trkpt lat="42.96087" lon="1.87525">
        <ele>466.8</ele>
        <time>2022-07-25T08:18:00.000Z</time>
        <extensions>
          <gpxtpx:TrackPointExtension xmlns:gpxtpx="http://www.garmin.com/xmlschemas/TrackPointExtension/v1">
            <gpxtpx:hr>123</gpxtpx:hr>
          </gpxtpx:TrackPointExtension>
        </extensions>
      </trkpt>
      <trkpt lat="42.96087" lon="1.87532">
        <ele>466.7</ele>
        <time>2022-07-25T08:18:01.000Z</time>
        <extensions>
          <gpxtpx:TrackPointExtension xmlns:gpxtpx="http://www.garmin.com/xmlschemas/TrackPointExtension/v1">
            <gpxtpx:hr>123</gpxtpx:hr>
          </gpxtpx:TrackPointExtension>
        </extensions>
      </trkpt>
      <trkpt lat="42.96086" lon="1.8754">
        <ele>466.6</ele>
        <time>2022-07-25T08:18:02.000Z</time>
        <extensions>
          <gpxtpx:TrackPointExtension xmlns:gpxtpx="http://www.garmin.com/xmlschemas/TrackPointExtension/v1">
            <gpxtpx:hr>123</gpxtpx:hr>
          </gpxtpx:TrackPointExtension>
        </extensions>
      </trkpt>
      <trkpt lat="42.96086" lon="1.87548">
        <ele>466.6</ele>
        <time>2022-07-25T08:18:03.000Z</time>
        <extensions>
          <gpxtpx:TrackPointExtension xmlns:gpxtpx="http://www.garmin.com/xmlschemas/TrackPointExtension/v1">
            <gpxtpx:hr>123</gpxtpx:hr>
          </gpxtpx:TrackPointExtension>
        </extensions>
      </trkpt>
      <trkpt lat="42.96085" lon="1.87556">
        <ele>466.5</ele>
        <time>2022-07-25T08:18:04.000Z</time>
        <extensions>
          <gpxtpx:TrackPointExtension xmlns:gpxtpx="http://www.garmin.com/xmlschemas/TrackPointExtension/v1">
            <gpxtpx:hr>124</gpxtpx:hr>
          </gpxtpx:TrackPointExtension>
        </extensions>
      </trkpt>
      <trkpt lat="42.96084" lon="1.87563">
        <ele>466.5</ele>
        <time>2022-07-25T08:18:05.000Z</time>
        <extensions>
          <gpxtpx:TrackPointExtension xmlns:gpxtpx="http://www.garmin.com/xmlschemas/TrackPointExtension/v1">
            <gpxtpx:hr>124</gpxtpx:hr>
          </gpxtpx:TrackPointExtension>
        </extensions>
      </trkpt>
      <trkpt lat="42.96083" lon="1.87572">
        <ele>466.4</ele>
        <time>2022-07-25T08:18:06.000Z</time>
        <extensions>
          <gpxtpx:TrackPointExtension xmlns:gpxtpx="http://www.garmin.com/xmlschemas/TrackPointExtension/v1">
            <gpxtpx:hr>125</gpxtpx:hr>
          </gpxtpx:TrackPointExtension>
        </extensions>
      </trkpt>
      <trkpt lat="42.96081" lon="1.87581">
        <ele>466.4</ele>
        <time>2022-07-25T08:18:07.000Z</time>
        <extensions>
          <gpxtpx:TrackPointExtension xmlns:gpxtpx="http://www.garmin.com/xmlschemas/TrackPointExtension/v1">
            <gpxtpx:hr>125</gpxtpx:hr>
          </gpxtpx:TrackPointExtension>
        </extensions>
      </trkpt>
      <trkpt lat="42.9608" lon="1.8759">
        <ele>466.3</ele>
        <time>2022-07-25T08:18:08.000Z</time>
        <extensions>
          <gpxtpx:TrackPointExtension xmlns:gpxtpx="http://www.garmin.com/xmlschemas/TrackPointExtension/v1">
            <gpxtpx:hr>125</gpxtpx:hr>
          </gpxtpx:TrackPointExtension>
        </extensions>
      </trkpt>
      <trkpt lat="42.96079" lon="1.87599">
        <ele>466.3</ele>
        <time>2022-07-25T08:18:09.000Z</time>
        <extensions>
          <gpxtpx:TrackPointExtension xmlns:gpxtpx="http://www.garmin.com/xmlschemas/TrackPointExtension/v1">
            <gpxtpx:hr>125</gpxtpx:hr>
          </gpxtpx:TrackPointExtension>
        </extensions>
      </trkpt>
      <trkpt lat="42.96078" lon="1.87607">
        <ele>466.2</ele>
        <time>2022-07-25T08:18:10.000Z</time>
        <extensions>
          <gpxtpx:TrackPointExtension xmlns:gpxtpx="http://www.garmin.com/xmlschemas/TrackPointExtension/v1">
            <gpxtpx:hr>125</gpxtpx:hr>
          </gpxtpx:TrackPointExtension>
        </extensions>
      </trkpt>
      <trkpt lat="42.96076" lon="1.87615">
        <ele>466.2</ele>
        <time>2022-07-25T08:18:11.000Z</time>
        <extensions>
          <gpxtpx:TrackPointExtension xmlns:gpxtpx="http://www.garmin.com/xmlschemas/TrackPointExtension/v1">
            <gpxtpx:hr>126</gpxtpx:hr>
          </gpxtpx:TrackPointExtension>
        </extensions>
      </trkpt>
      <trkpt lat="42.96074" lon="1.87623">
        <ele>466.2</ele>
        <time>2022-07-25T08:18:12.000Z</time>
        <extensions>
          <gpxtpx:TrackPointExtension xmlns:gpxtpx="http://www.garmin.com/xmlschemas/TrackPointExtension/v1">
            <gpxtpx:hr>126</gpxtpx:hr>
          </gpxtpx:TrackPointExtension>
        </extensions>
      </trkpt>
      <trkpt lat="42.96072" lon="1.87631">
        <ele>466.1</ele>
        <time>2022-07-25T08:18:13.000Z</time>
        <extensions>
          <gpxtpx:TrackPointExtension xmlns:gpxtpx="http://www.garmin.com/xmlschemas/TrackPointExtension/v1">
            <gpxtpx:hr>126</gpxtpx:hr>
          </gpxtpx:TrackPointExtension>
        </extensions>
      </trkpt>
      <trkpt lat="42.96071" lon="1.87639">
        <ele>466.1</ele>
        <time>2022-07-25T08:18:14.000Z</time>
        <extensions>
          <gpxtpx:TrackPointExtension xmlns:gpxtpx="http://www.garmin.com/xmlschemas/TrackPointExtension/v1">
            <gpxtpx:hr>126</gpxtpx:hr>
          </gpxtpx:TrackPointExtension>
        </extensions>
      </trkpt>
      <trkpt lat="42.96068" lon="1.87647">
        <ele>466.1</ele>
        <time>2022-07-25T08:18:15.000Z</time>
        <extensions>
          <gpxtpx:TrackPointExtension xmlns:gpxtpx="http://www.garmin.com/xmlschemas/TrackPointExtension/v1">
            <gpxtpx:hr>126</gpxtpx:hr>
          </gpxtpx:TrackPointExtension>
        </extensions>
      </trkpt>
      <trkpt lat="42.96066" lon="1.87655">
        <ele>466</ele>
        <time>2022-07-25T08:18:16.000Z</time>
        <extensions>
          <gpxtpx:TrackPointExtension xmlns:gpxtpx="http://www.garmin.com/xmlschemas/TrackPointExtension/v1">
            <gpxtpx:hr>126</gpxtpx:hr>
          </gpxtpx:TrackPointExtension>
        </extensions>
      </trkpt>
      <trkpt lat="42.96064" lon="1.87664">
        <ele>466</ele>
        <time>2022-07-25T08:18:17.000Z</time>
        <extensions>
          <gpxtpx:TrackPointExtension xmlns:gpxtpx="http://www.garmin.com/xmlschemas/TrackPointExtension/v1">
            <gpxtpx:hr>126</gpxtpx:hr>
          </gpxtpx:TrackPointExtension>
        </extensions>
      </trkpt>
      <trkpt lat="42.96062" lon="1.87673">
        <ele>466</ele>
        <time>2022-07-25T08:18:18.000Z</time>
        <extensions>
          <gpxtpx:TrackPointExtension xmlns:gpxtpx="http://www.garmin.com/xmlschemas/TrackPointExtension/v1">
            <gpxtpx:hr>126</gpxtpx:hr>
          </gpxtpx:TrackPointExtension>
        </extensions>
      </trkpt>
      <trkpt lat="42.9606" lon="1.87681">
        <ele>466</ele>
        <time>2022-07-25T08:18:19.000Z</time>
        <extensions>
          <gpxtpx:TrackPointExtension xmlns:gpxtpx="http://www.garmin.com/xmlschemas/TrackPointExtension/v1">
            <gpxtpx:hr>126</gpxtpx:hr>
          </gpxtpx:TrackPointExtension>
        </extensions>
      </trkpt>
      <trkpt lat="42.96057" lon="1.8769">
        <ele>465.9</ele>
        <time>2022-07-25T08:18:20.000Z</time>
        <extensions>
          <gpxtpx:TrackPointExtension xmlns:gpxtpx="http://www.garmin.com/xmlschemas/TrackPointExtension/v1">
            <gpxtpx:hr>127</gpxtpx:hr>
          </gpxtpx:TrackPointExtension>
        </extensions>
      </trkpt>
      <trkpt lat="42.96055" lon="1.87697">
        <ele>465.9</ele>
        <time>2022-07-25T08:18:21.000Z</time>
        <extensions>
          <gpxtpx:TrackPointExtension xmlns:gpxtpx="http://www.garmin.com/xmlschemas/TrackPointExtension/v1">
            <gpxtpx:hr>127</gpxtpx:hr>
          </gpxtpx:TrackPointExtension>
        </extensions>
      </trkpt>
      <trkpt lat="42.96053" lon="1.87705">
        <ele>465.9</ele>
        <time>2022-07-25T08:18:22.000Z</time>
        <extensions>
          <gpxtpx:TrackPointExtension xmlns:gpxtpx="http://www.garmin.com/xmlschemas/TrackPointExtension/v1">
            <gpxtpx:hr>128</gpxtpx:hr>
          </gpxtpx:TrackPointExtension>
        </extensions>
      </trkpt>
      <trkpt lat="42.9605" lon="1.87713">
        <ele>465.9</ele>
        <time>2022-07-25T08:18:23.000Z</time>
        <extensions>
          <gpxtpx:TrackPointExtension xmlns:gpxtpx="http://www.garmin.com/xmlschemas/TrackPointExtension/v1">
            <gpxtpx:hr>128</gpxtpx:hr>
          </gpxtpx:TrackPointExtension>
        </extensions>
      </trkpt>
      <trkpt lat="42.96048" lon="1.87721">
        <ele>465.9</ele>
        <time>2022-07-25T08:18:24.000Z</time>
        <extensions>
          <gpxtpx:TrackPointExtension xmlns:gpxtpx="http://www.garmin.com/xmlschemas/TrackPointExtension/v1">
            <gpxtpx:hr>128</gpxtpx:hr>
          </gpxtpx:TrackPointExtension>
        </extensions>
      </trkpt>
      <trkpt lat="42.96046" lon="1.87729">
        <ele>465.8</ele>
        <time>2022-07-25T08:18:25.000Z</time>
        <extensions>
          <gpxtpx:TrackPointExtension xmlns:gpxtpx="http://www.garmin.com/xmlschemas/TrackPointExtension/v1">
            <gpxtpx:hr>129</gpxtpx:hr>
          </gpxtpx:TrackPointExtension>
        </extensions>
      </trkpt>
      <trkpt lat="42.96044" lon="1.87737">
        <ele>465.8</ele>
        <time>2022-07-25T08:18:26.000Z</time>
        <extensions>
          <gpxtpx:TrackPointExtension xmlns:gpxtpx="http://www.garmin.com/xmlschemas/TrackPointExtension/v1">
            <gpxtpx:hr>129</gpxtpx:hr>
          </gpxtpx:TrackPointExtension>
        </extensions>
      </trkpt>
      <trkpt lat="42.96042" lon="1.87745">
        <ele>465.8</ele>
        <time>2022-07-25T08:18:27.000Z</time>
        <extensions>
          <gpxtpx:TrackPointExtension xmlns:gpxtpx="http://www.garmin.com/xmlschemas/TrackPointExtension/v1">
            <gpxtpx:hr>130</gpxtpx:hr>
          </gpxtpx:TrackPointExtension>
        </extensions>
      </trkpt>
      <trkpt lat="42.96039" lon="1.87753">
        <ele>465.8</ele>
        <time>2022-07-25T08:18:28.000Z</time>
        <extensions>
          <gpxtpx:TrackPointExtension xmlns:gpxtpx="http://www.garmin.com/xmlschemas/TrackPointExtension/v1">
            <gpxtpx:hr>130</gpxtpx:hr>
          </gpxtpx:TrackPointExtension>
        </extensions>
      </trkpt>
      <trkpt lat="42.96037" lon="1.87761">
        <ele>465.8</ele>
        <time>2022-07-25T08:18:29.000Z</time>
        <extensions>
          <gpxtpx:TrackPointExtension xmlns:gpxtpx="http://www.garmin.com/xmlschemas/TrackPointExtension/v1">
            <gpxtpx:hr>130</gpxtpx:hr>
          </gpxtpx:TrackPointExtension>
        </extensions>
      </trkpt>
      <trkpt lat="42.96034" lon="1.87768">
        <ele>465.8</ele>
        <time>2022-07-25T08:18:30.000Z</time>
        <extensions>
          <gpxtpx:TrackPointExtension xmlns:gpxtpx="http://www.garmin.com/xmlschemas/TrackPointExtension/v1">
            <gpxtpx:hr>130</gpxtpx:hr>
          </gpxtpx:TrackPointExtension>
        </extensions>
      </trkpt>
      <trkpt lat="42.96031" lon="1.87775">
        <ele>465.8</ele>
        <time>2022-07-25T08:18:31.000Z</time>
        <extensions>
          <gpxtpx:TrackPointExtension xmlns:gpxtpx="http://www.garmin.com/xmlschemas/TrackPointExtension/v1">
            <gpxtpx:hr>131</gpxtpx:hr>
          </gpxtpx:TrackPointExtension>
        </extensions>
      </trkpt>
      <trkpt lat="42.96028" lon="1.87783">
        <ele>465.8</ele>
        <time>2022-07-25T08:18:32.000Z</time>
        <extensions>
          <gpxtpx:TrackPointExtension xmlns:gpxtpx="http://www.garmin.com/xmlschemas/TrackPointExtension/v1">
            <gpxtpx:hr>131</gpxtpx:hr>
          </gpxtpx:TrackPointExtension>
        </extensions>
      </trkpt>
      <trkpt lat="42.96025" lon="1.87791">
        <ele>465.7</ele>
        <time>2022-07-25T08:18:33.000Z</time>
        <extensions>
          <gpxtpx:TrackPointExtension xmlns:gpxtpx="http://www.garmin.com/xmlschemas/TrackPointExtension/v1">
            <gpxtpx:hr>131</gpxtpx:hr>
          </gpxtpx:TrackPointExtension>
        </extensions>
      </trkpt>
      <trkpt lat="42.96022" lon="1.87799">
        <ele>465.7</ele>
        <time>2022-07-25T08:18:34.000Z</time>
        <extensions>
          <gpxtpx:TrackPointExtension xmlns:gpxtpx="http://www.garmin.com/xmlschemas/TrackPointExtension/v1">
            <gpxtpx:hr>131</gpxtpx:hr>
          </gpxtpx:TrackPointExtension>
        </extensions>
      </trkpt>
      <trkpt lat="42.9602" lon="1.87806">
        <ele>465.7</ele>
        <time>2022-07-25T08:18:35.000Z</time>
        <extensions>
          <gpxtpx:TrackPointExtension xmlns:gpxtpx="http://www.garmin.com/xmlschemas/TrackPointExtension/v1">
            <gpxtpx:hr>132</gpxtpx:hr>
          </gpxtpx:TrackPointExtension>
        </extensions>
      </trkpt>
      <trkpt lat="42.96018" lon="1.87814">
        <ele>465.7</ele>
        <time>2022-07-25T08:18:36.000Z</time>
        <extensions>
          <gpxtpx:TrackPointExtension xmlns:gpxtpx="http://www.garmin.com/xmlschemas/TrackPointExtension/v1">
            <gpxtpx:hr>132</gpxtpx:hr>
          </gpxtpx:TrackPointExtension>
        </extensions>
      </trkpt>
      <trkpt lat="42.96015" lon="1.87821">
        <ele>465.7</ele>
        <time>2022-07-25T08:18:37.000Z</time>
        <extensions>
          <gpxtpx:TrackPointExtension xmlns:gpxtpx="http://www.garmin.com/xmlschemas/TrackPointExtension/v1">
            <gpxtpx:hr>132</gpxtpx:hr>
          </gpxtpx:TrackPointExtension>
        </extensions>
      </trkpt>
      <trkpt lat="42.96012" lon="1.87828">
        <ele>465.7</ele>
        <time>2022-07-25T08:18:38.000Z</time>
        <extensions>
          <gpxtpx:TrackPointExtension xmlns:gpxtpx="http://www.garmin.com/xmlschemas/TrackPointExtension/v1">
            <gpxtpx:hr>133</gpxtpx:hr>
          </gpxtpx:TrackPointExtension>
        </extensions>
      </trkpt>
      <trkpt lat="42.96009" lon="1.87836">
        <ele>465.6</ele>
        <time>2022-07-25T08:18:39.000Z</time>
        <extensions>
          <gpxtpx:TrackPointExtension xmlns:gpxtpx="http://www.garmin.com/xmlschemas/TrackPointExtension/v1">
            <gpxtpx:hr>133</gpxtpx:hr>
          </gpxtpx:TrackPointExtension>
        </extensions>
      </trkpt>
      <trkpt lat="42.96007" lon="1.87844">
        <ele>465.6</ele>
        <time>2022-07-25T08:18:40.000Z</time>
        <extensions>
          <gpxtpx:TrackPointExtension xmlns:gpxtpx="http://www.garmin.com/xmlschemas/TrackPointExtension/v1">
            <gpxtpx:hr>134</gpxtpx:hr>
          </gpxtpx:TrackPointExtension>
        </extensions>
      </trkpt>
      <trkpt lat="42.96005" lon="1.87852">
        <ele>465.5</ele>
        <time>2022-07-25T08:18:41.000Z</time>
        <extensions>
          <gpxtpx:TrackPointExtension xmlns:gpxtpx="http://www.garmin.com/xmlschemas/TrackPointExtension/v1">
            <gpxtpx:hr>134</gpxtpx:hr>
          </gpxtpx:TrackPointExtension>
        </extensions>
      </trkpt>
      <trkpt lat="42.96003" lon="1.87861">
        <ele>465.5</ele>
        <time>2022-07-25T08:18:42.000Z</time>
        <extensions>
          <gpxtpx:TrackPointExtension xmlns:gpxtpx="http://www.garmin.com/xmlschemas/TrackPointExtension/v1">
            <gpxtpx:hr>135</gpxtpx:hr>
          </gpxtpx:TrackPointExtension>
        </extensions>
      </trkpt>
      <trkpt lat="42.96" lon="1.87869">
        <ele>465.5</ele>
        <time>2022-07-25T08:18:43.000Z</time>
        <extensions>
          <gpxtpx:TrackPointExtension xmlns:gpxtpx="http://www.garmin.com/xmlschemas/TrackPointExtension/v1">
            <gpxtpx:hr>135</gpxtpx:hr>
          </gpxtpx:TrackPointExtension>
        </extensions>
      </trkpt>
      <trkpt lat="42.95998" lon="1.87878">
        <ele>465.4</ele>
        <time>2022-07-25T08:18:44.000Z</time>
        <extensions>
          <gpxtpx:TrackPointExtension xmlns:gpxtpx="http://www.garmin.com/xmlschemas/TrackPointExtension/v1">
            <gpxtpx:hr>135</gpxtpx:hr>
          </gpxtpx:TrackPointExtension>
        </extensions>
      </trkpt>
      <trkpt lat="42.95996" lon="1.87886">
        <ele>465.4</ele>
        <time>2022-07-25T08:18:45.000Z</time>
        <extensions>
          <gpxtpx:TrackPointExtension xmlns:gpxtpx="http://www.garmin.com/xmlschemas/TrackPointExtension/v1">
            <gpxtpx:hr>135</gpxtpx:hr>
          </gpxtpx:TrackPointExtension>
        </extensions>
      </trkpt>
      <trkpt lat="42.95994" lon="1.87893">
        <ele>465.3</ele>
        <time>2022-07-25T08:18:46.000Z</time>
        <extensions>
          <gpxtpx:TrackPointExtension xmlns:gpxtpx="http://www.garmin.com/xmlschemas/TrackPointExtension/v1">
            <gpxtpx:hr>136</gpxtpx:hr>
          </gpxtpx:TrackPointExtension>
        </extensions>
      </trkpt>
      <trkpt lat="42.95992" lon="1.87901">
        <ele>465.3</ele>
        <time>2022-07-25T08:18:47.000Z</time>
        <extensions>
          <gpxtpx:TrackPointExtension xmlns:gpxtpx="http://www.garmin.com/xmlschemas/TrackPointExtension/v1">
            <gpxtpx:hr>136</gpxtpx:hr>
          </gpxtpx:TrackPointExtension>
        </extensions>
      </trkpt>
      <trkpt lat="42.95991" lon="1.87908">
        <ele>465.3</ele>
        <time>2022-07-25T08:18:48.000Z</time>
        <extensions>
          <gpxtpx:TrackPointExtension xmlns:gpxtpx="http://www.garmin.com/xmlschemas/TrackPointExtension/v1">
            <gpxtpx:hr>136</gpxtpx:hr>
          </gpxtpx:TrackPointExtension>
        </extensions>
      </trkpt>
      <trkpt lat="42.95989" lon="1.87916">
        <ele>465.2</ele>
        <time>2022-07-25T08:18:49.000Z</time>
        <extensions>
          <gpxtpx:TrackPointExtension xmlns:gpxtpx="http://www.garmin.com/xmlschemas/TrackPointExtension/v1">
            <gpxtpx:hr>136</gpxtpx:hr>
          </gpxtpx:TrackPointExtension>
        </extensions>
      </trkpt>
      <trkpt lat="42.95987" lon="1.87923">
        <ele>465.2</ele>
        <time>2022-07-25T08:18:50.000Z</time>
        <extensions>
          <gpxtpx:TrackPointExtension xmlns:gpxtpx="http://www.garmin.com/xmlschemas/TrackPointExtension/v1">
            <gpxtpx:hr>136</gpxtpx:hr>
          </gpxtpx:TrackPointExtension>
        </extensions>
      </trkpt>
      <trkpt lat="42.95985" lon="1.87931">
        <ele>465.2</ele>
        <time>2022-07-25T08:18:51.000Z</time>
        <extensions>
          <gpxtpx:TrackPointExtension xmlns:gpxtpx="http://www.garmin.com/xmlschemas/TrackPointExtension/v1">
            <gpxtpx:hr>136</gpxtpx:hr>
          </gpxtpx:TrackPointExtension>
        </extensions>
      </trkpt>
      <trkpt lat="42.95983" lon="1.87938">
        <ele>465.2</ele>
        <time>2022-07-25T08:18:52.000Z</time>
        <extensions>
          <gpxtpx:TrackPointExtension xmlns:gpxtpx="http://www.garmin.com/xmlschemas/TrackPointExtension/v1">
            <gpxtpx:hr>136</gpxtpx:hr>
          </gpxtpx:TrackPointExtension>
        </extensions>
      </trkpt>
      <trkpt lat="42.95981" lon="1.87945">
        <ele>465.2</ele>
        <time>2022-07-25T08:18:53.000Z</time>
        <extensions>
          <gpxtpx:TrackPointExtension xmlns:gpxtpx="http://www.garmin.com/xmlschemas/TrackPointExtension/v1">
            <gpxtpx:hr>136</gpxtpx:hr>
          </gpxtpx:TrackPointExtension>
        </extensions>
      </trkpt>
      <trkpt lat="42.9598" lon="1.87952">
        <ele>465.2</ele>
        <time>2022-07-25T08:18:54.000Z</time>
        <extensions>
          <gpxtpx:TrackPointExtension xmlns:gpxtpx="http://www.garmin.com/xmlschemas/TrackPointExtension/v1">
            <gpxtpx:hr>136</gpxtpx:hr>
          </gpxtpx:TrackPointExtension>
        </extensions>
      </trkpt>
      <trkpt lat="42.95978" lon="1.8796">
        <ele>465.2</ele>
        <time>2022-07-25T08:18:55.000Z</time>
        <extensions>
          <gpxtpx:TrackPointExtension xmlns:gpxtpx="http://www.garmin.com/xmlschemas/TrackPointExtension/v1">
            <gpxtpx:hr>136</gpxtpx:hr>
          </gpxtpx:TrackPointExtension>
        </extensions>
      </trkpt>
      <trkpt lat="42.95976" lon="1.87968">
        <ele>465.2</ele>
        <time>2022-07-25T08:18:56.000Z</time>
        <extensions>
          <gpxtpx:TrackPointExtension xmlns:gpxtpx="http://www.garmin.com/xmlschemas/TrackPointExtension/v1">
            <gpxtpx:hr>136</gpxtpx:hr>
          </gpxtpx:TrackPointExtension>
        </extensions>
      </trkpt>
      <trkpt lat="42.95975" lon="1.87976">
        <ele>465.2</ele>
        <time>2022-07-25T08:18:57.000Z</time>
        <extensions>
          <gpxtpx:TrackPointExtension xmlns:gpxtpx="http://www.garmin.com/xmlschemas/TrackPointExtension/v1">
            <gpxtpx:hr>136</gpxtpx:hr>
          </gpxtpx:TrackPointExtension>
        </extensions>
      </trkpt>
      <trkpt lat="42.95973" lon="1.87984">
        <ele>465.2</ele>
        <time>2022-07-25T08:18:58.000Z</time>
        <extensions>
          <gpxtpx:TrackPointExtension xmlns:gpxtpx="http://www.garmin.com/xmlschemas/TrackPointExtension/v1">
            <gpxtpx:hr>136</gpxtpx:hr>
          </gpxtpx:TrackPointExtension>
        </extensions>
      </trkpt>
      <trkpt lat="42.95971" lon="1.87992">
        <ele>465.2</ele>
        <time>2022-07-25T08:18:59.000Z</time>
        <extensions>
          <gpxtpx:TrackPointExtension xmlns:gpxtpx="http://www.garmin.com/xmlschemas/TrackPointExtension/v1">
            <gpxtpx:hr>136</gpxtpx:hr>
          </gpxtpx:TrackPointExtension>
        </extensions>
      </trkpt>
      <trkpt lat="42.95969" lon="1.87999">
        <ele>465.2</ele>
        <time>2022-07-25T08:19:00.000Z</time>
        <extensions>
          <gpxtpx:TrackPointExtension xmlns:gpxtpx="http://www.garmin.com/xmlschemas/TrackPointExtension/v1">
            <gpxtpx:hr>136</gpxtpx:hr>
          </gpxtpx:TrackPointExtension>
        </extensions>
      </trkpt>
      <trkpt lat="42.95967" lon="1.88007">
        <ele>465.2</ele>
        <time>2022-07-25T08:19:01.000Z</time>
        <extensions>
          <gpxtpx:TrackPointExtension xmlns:gpxtpx="http://www.garmin.com/xmlschemas/TrackPointExtension/v1">
            <gpxtpx:hr>136</gpxtpx:hr>
          </gpxtpx:TrackPointExtension>
        </extensions>
      </trkpt>
      <trkpt lat="42.95964" lon="1.88014">
        <ele>465.2</ele>
        <time>2022-07-25T08:19:02.000Z</time>
        <extensions>
          <gpxtpx:TrackPointExtension xmlns:gpxtpx="http://www.garmin.com/xmlschemas/TrackPointExtension/v1">
            <gpxtpx:hr>136</gpxtpx:hr>
          </gpxtpx:TrackPointExtension>
        </extensions>
      </trkpt>
      <trkpt lat="42.95961" lon="1.88021">
        <ele>465.2</ele>
        <time>2022-07-25T08:19:03.000Z</time>
        <extensions>
          <gpxtpx:TrackPointExtension xmlns:gpxtpx="http://www.garmin.com/xmlschemas/TrackPointExtension/v1">
            <gpxtpx:hr>136</gpxtpx:hr>
          </gpxtpx:TrackPointExtension>
        </extensions>
      </trkpt>
      <trkpt lat="42.95958" lon="1.88028">
        <ele>465.2</ele>
        <time>2022-07-25T08:19:04.000Z</time>
        <extensions>
          <gpxtpx:TrackPointExtension xmlns:gpxtpx="http://www.garmin.com/xmlschemas/TrackPointExtension/v1">
            <gpxtpx:hr>136</gpxtpx:hr>
          </gpxtpx:TrackPointExtension>
        </extensions>
      </trkpt>
      <trkpt lat="42.95956" lon="1.88035">
        <ele>465.2</ele>
        <time>2022-07-25T08:19:05.000Z</time>
        <extensions>
          <gpxtpx:TrackPointExtension xmlns:gpxtpx="http://www.garmin.com/xmlschemas/TrackPointExtension/v1">
            <gpxtpx:hr>137</gpxtpx:hr>
          </gpxtpx:TrackPointExtension>
        </extensions>
      </trkpt>
      <trkpt lat="42.95953" lon="1.88043">
        <ele>465.2</ele>
        <time>2022-07-25T08:19:06.000Z</time>
        <extensions>
          <gpxtpx:TrackPointExtension xmlns:gpxtpx="http://www.garmin.com/xmlschemas/TrackPointExtension/v1">
            <gpxtpx:hr>137</gpxtpx:hr>
          </gpxtpx:TrackPointExtension>
        </extensions>
      </trkpt>
      <trkpt lat="42.9595" lon="1.8805">
        <ele>465.3</ele>
        <time>2022-07-25T08:19:07.000Z</time>
        <extensions>
          <gpxtpx:TrackPointExtension xmlns:gpxtpx="http://www.garmin.com/xmlschemas/TrackPointExtension/v1">
            <gpxtpx:hr>137</gpxtpx:hr>
          </gpxtpx:TrackPointExtension>
        </extensions>
      </trkpt>
      <trkpt lat="42.95947" lon="1.88058">
        <ele>465.3</ele>
        <time>2022-07-25T08:19:08.000Z</time>
        <extensions>
          <gpxtpx:TrackPointExtension xmlns:gpxtpx="http://www.garmin.com/xmlschemas/TrackPointExtension/v1">
            <gpxtpx:hr>137</gpxtpx:hr>
          </gpxtpx:TrackPointExtension>
        </extensions>
      </trkpt>
      <trkpt lat="42.95944" lon="1.88065">
        <ele>465.3</ele>
        <time>2022-07-25T08:19:09.000Z</time>
        <extensions>
          <gpxtpx:TrackPointExtension xmlns:gpxtpx="http://www.garmin.com/xmlschemas/TrackPointExtension/v1">
            <gpxtpx:hr>138</gpxtpx:hr>
          </gpxtpx:TrackPointExtension>
        </extensions>
      </trkpt>
      <trkpt lat="42.95941" lon="1.88073">
        <ele>465.3</ele>
        <time>2022-07-25T08:19:10.000Z</time>
        <extensions>
          <gpxtpx:TrackPointExtension xmlns:gpxtpx="http://www.garmin.com/xmlschemas/TrackPointExtension/v1">
            <gpxtpx:hr>138</gpxtpx:hr>
          </gpxtpx:TrackPointExtension>
        </extensions>
      </trkpt>
      <trkpt lat="42.95938" lon="1.88081">
        <ele>465.3</ele>
        <time>2022-07-25T08:19:11.000Z</time>
        <extensions>
          <gpxtpx:TrackPointExtension xmlns:gpxtpx="http://www.garmin.com/xmlschemas/TrackPointExtension/v1">
            <gpxtpx:hr>138</gpxtpx:hr>
          </gpxtpx:TrackPointExtension>
        </extensions>
      </trkpt>
      <trkpt lat="42.95936" lon="1.8809">
        <ele>465.3</ele>
        <time>2022-07-25T08:19:12.000Z</time>
        <extensions>
          <gpxtpx:TrackPointExtension xmlns:gpxtpx="http://www.garmin.com/xmlschemas/TrackPointExtension/v1">
            <gpxtpx:hr>139</gpxtpx:hr>
          </gpxtpx:TrackPointExtension>
        </extensions>
      </trkpt>
      <trkpt lat="42.95933" lon="1.88099">
        <ele>465.3</ele>
        <time>2022-07-25T08:19:13.000Z</time>
        <extensions>
          <gpxtpx:TrackPointExtension xmlns:gpxtpx="http://www.garmin.com/xmlschemas/TrackPointExtension/v1">
            <gpxtpx:hr>139</gpxtpx:hr>
          </gpxtpx:TrackPointExtension>
        </extensions>
      </trkpt>
      <trkpt lat="42.95931" lon="1.88107">
        <ele>465.3</ele>
        <time>2022-07-25T08:19:14.000Z</time>
        <extensions>
          <gpxtpx:TrackPointExtension xmlns:gpxtpx="http://www.garmin.com/xmlschemas/TrackPointExtension/v1">
            <gpxtpx:hr>139</gpxtpx:hr>
          </gpxtpx:TrackPointExtension>
        </extensions>
      </trkpt>
      <trkpt lat="42.95928" lon="1.88116">
        <ele>465.3</ele>
        <time>2022-07-25T08:19:15.000Z</time>
        <extensions>
          <gpxtpx:TrackPointExtension xmlns:gpxtpx="http://www.garmin.com/xmlschemas/TrackPointExtension/v1">
            <gpxtpx:hr>139</gpxtpx:hr>
          </gpxtpx:TrackPointExtension>
        </extensions>
      </trkpt>
      <trkpt lat="42.95925" lon="1.88124">
        <ele>465.3</ele>
        <time>2022-07-25T08:19:16.000Z</time>
        <extensions>
          <gpxtpx:TrackPointExtension xmlns:gpxtpx="http://www.garmin.com/xmlschemas/TrackPointExtension/v1">
            <gpxtpx:hr>139</gpxtpx:hr>
          </gpxtpx:TrackPointExtension>
        </extensions>
      </trkpt>
      <trkpt lat="42.95923" lon="1.88133">
        <ele>465.3</ele>
        <time>2022-07-25T08:19:17.000Z</time>
        <extensions>
          <gpxtpx:TrackPointExtension xmlns:gpxtpx="http://www.garmin.com/xmlschemas/TrackPointExtension/v1">
            <gpxtpx:hr>140</gpxtpx:hr>
          </gpxtpx:TrackPointExtension>
        </extensions>
      </trkpt>
      <trkpt lat="42.9592" lon="1.88142">
        <ele>465.3</ele>
        <time>2022-07-25T08:19:18.000Z</time>
        <extensions>
          <gpxtpx:TrackPointExtension xmlns:gpxtpx="http://www.garmin.com/xmlschemas/TrackPointExtension/v1">
            <gpxtpx:hr>140</gpxtpx:hr>
          </gpxtpx:TrackPointExtension>
        </extensions>
      </trkpt>
      <trkpt lat="42.95918" lon="1.8815">
        <ele>465.3</ele>
        <time>2022-07-25T08:19:19.000Z</time>
        <extensions>
          <gpxtpx:TrackPointExtension xmlns:gpxtpx="http://www.garmin.com/xmlschemas/TrackPointExtension/v1">
            <gpxtpx:hr>140</gpxtpx:hr>
          </gpxtpx:TrackPointExtension>
        </extensions>
      </trkpt>
      <trkpt lat="42.95915" lon="1.88159">
        <ele>465.3</ele>
        <time>2022-07-25T08:19:20.000Z</time>
        <extensions>
          <gpxtpx:TrackPointExtension xmlns:gpxtpx="http://www.garmin.com/xmlschemas/TrackPointExtension/v1">
            <gpxtpx:hr>141</gpxtpx:hr>
          </gpxtpx:TrackPointExtension>
        </extensions>
      </trkpt>
      <trkpt lat="42.95912" lon="1.88167">
        <ele>465.3</ele>
        <time>2022-07-25T08:19:21.000Z</time>
        <extensions>
          <gpxtpx:TrackPointExtension xmlns:gpxtpx="http://www.garmin.com/xmlschemas/TrackPointExtension/v1">
            <gpxtpx:hr>141</gpxtpx:hr>
          </gpxtpx:TrackPointExtension>
        </extensions>
      </trkpt>
      <trkpt lat="42.9591" lon="1.88176">
        <ele>465.3</ele>
        <time>2022-07-25T08:19:22.000Z</time>
        <extensions>
          <gpxtpx:TrackPointExtension xmlns:gpxtpx="http://www.garmin.com/xmlschemas/TrackPointExtension/v1">
            <gpxtpx:hr>141</gpxtpx:hr>
          </gpxtpx:TrackPointExtension>
        </extensions>
      </trkpt>
      <trkpt lat="42.95907" lon="1.88185">
        <ele>465.3</ele>
        <time>2022-07-25T08:19:23.000Z</time>
        <extensions>
          <gpxtpx:TrackPointExtension xmlns:gpxtpx="http://www.garmin.com/xmlschemas/TrackPointExtension/v1">
            <gpxtpx:hr>141</gpxtpx:hr>
          </gpxtpx:TrackPointExtension>
        </extensions>
      </trkpt>
      <trkpt lat="42.95905" lon="1.88194">
        <ele>465.3</ele>
        <time>2022-07-25T08:19:24.000Z</time>
        <extensions>
          <gpxtpx:TrackPointExtension xmlns:gpxtpx="http://www.garmin.com/xmlschemas/TrackPointExtension/v1">
            <gpxtpx:hr>142</gpxtpx:hr>
          </gpxtpx:TrackPointExtension>
        </extensions>
      </trkpt>
      <trkpt lat="42.95902" lon="1.88203">
        <ele>465.3</ele>
        <time>2022-07-25T08:19:25.000Z</time>
        <extensions>
          <gpxtpx:TrackPointExtension xmlns:gpxtpx="http://www.garmin.com/xmlschemas/TrackPointExtension/v1">
            <gpxtpx:hr>143</gpxtpx:hr>
          </gpxtpx:TrackPointExtension>
        </extensions>
      </trkpt>
      <trkpt lat="42.959" lon="1.88212">
        <ele>465.3</ele>
        <time>2022-07-25T08:19:26.000Z</time>
        <extensions>
          <gpxtpx:TrackPointExtension xmlns:gpxtpx="http://www.garmin.com/xmlschemas/TrackPointExtension/v1">
            <gpxtpx:hr>143</gpxtpx:hr>
          </gpxtpx:TrackPointExtension>
        </extensions>
      </trkpt>
      <trkpt lat="42.95897" lon="1.88221">
        <ele>465.3</ele>
        <time>2022-07-25T08:19:27.000Z</time>
        <extensions>
          <gpxtpx:TrackPointExtension xmlns:gpxtpx="http://www.garmin.com/xmlschemas/TrackPointExtension/v1">
            <gpxtpx:hr>143</gpxtpx:hr>
          </gpxtpx:TrackPointExtension>
        </extensions>
      </trkpt>
      <trkpt lat="42.95894" lon="1.88229">
        <ele>465.3</ele>
        <time>2022-07-25T08:19:28.000Z</time>
        <extensions>
          <gpxtpx:TrackPointExtension xmlns:gpxtpx="http://www.garmin.com/xmlschemas/TrackPointExtension/v1">
            <gpxtpx:hr>144</gpxtpx:hr>
          </gpxtpx:TrackPointExtension>
        </extensions>
      </trkpt>
      <trkpt lat="42.95891" lon="1.88237">
        <ele>465.3</ele>
        <time>2022-07-25T08:19:29.000Z</time>
        <extensions>
          <gpxtpx:TrackPointExtension xmlns:gpxtpx="http://www.garmin.com/xmlschemas/TrackPointExtension/v1">
            <gpxtpx:hr>145</gpxtpx:hr>
          </gpxtpx:TrackPointExtension>
        </extensions>
      </trkpt>
      <trkpt lat="42.95889" lon="1.88246">
        <ele>465.3</ele>
        <time>2022-07-25T08:19:30.000Z</time>
        <extensions>
          <gpxtpx:TrackPointExtension xmlns:gpxtpx="http://www.garmin.com/xmlschemas/TrackPointExtension/v1">
            <gpxtpx:hr>146</gpxtpx:hr>
          </gpxtpx:TrackPointExtension>
        </extensions>
      </trkpt>
      <trkpt lat="42.95886" lon="1.88254">
        <ele>465.3</ele>
        <time>2022-07-25T08:19:31.000Z</time>
        <extensions>
          <gpxtpx:TrackPointExtension xmlns:gpxtpx="http://www.garmin.com/xmlschemas/TrackPointExtension/v1">
            <gpxtpx:hr>147</gpxtpx:hr>
          </gpxtpx:TrackPointExtension>
        </extensions>
      </trkpt>
      <trkpt lat="42.95884" lon="1.88262">
        <ele>465.3</ele>
        <time>2022-07-25T08:19:32.000Z</time>
        <extensions>
          <gpxtpx:TrackPointExtension xmlns:gpxtpx="http://www.garmin.com/xmlschemas/TrackPointExtension/v1">
            <gpxtpx:hr>147</gpxtpx:hr>
          </gpxtpx:TrackPointExtension>
        </extensions>
      </trkpt>
      <trkpt lat="42.95881" lon="1.8827">
        <ele>465.3</ele>
        <time>2022-07-25T08:19:33.000Z</time>
        <extensions>
          <gpxtpx:TrackPointExtension xmlns:gpxtpx="http://www.garmin.com/xmlschemas/TrackPointExtension/v1">
            <gpxtpx:hr>148</gpxtpx:hr>
          </gpxtpx:TrackPointExtension>
        </extensions>
      </trkpt>
      <trkpt lat="42.95879" lon="1.88277">
        <ele>465.3</ele>
        <time>2022-07-25T08:19:34.000Z</time>
        <extensions>
          <gpxtpx:TrackPointExtension xmlns:gpxtpx="http://www.garmin.com/xmlschemas/TrackPointExtension/v1">
            <gpxtpx:hr>149</gpxtpx:hr>
          </gpxtpx:TrackPointExtension>
        </extensions>
      </trkpt>
      <trkpt lat="42.95877" lon="1.88285">
        <ele>465.3</ele>
        <time>2022-07-25T08:19:35.000Z</time>
        <extensions>
          <gpxtpx:TrackPointExtension xmlns:gpxtpx="http://www.garmin.com/xmlschemas/TrackPointExtension/v1">
            <gpxtpx:hr>149</gpxtpx:hr>
          </gpxtpx:TrackPointExtension>
        </extensions>
      </trkpt>
      <trkpt lat="42.95875" lon="1.88293">
        <ele>465.3</ele>
        <time>2022-07-25T08:19:36.000Z</time>
        <extensions>
          <gpxtpx:TrackPointExtension xmlns:gpxtpx="http://www.garmin.com/xmlschemas/TrackPointExtension/v1">
            <gpxtpx:hr>150</gpxtpx:hr>
          </gpxtpx:TrackPointExtension>
        </extensions>
      </trkpt>
      <trkpt lat="42.95872" lon="1.88302">
        <ele>465.3</ele>
        <time>2022-07-25T08:19:37.000Z</time>
        <extensions>
          <gpxtpx:TrackPointExtension xmlns:gpxtpx="http://www.garmin.com/xmlschemas/TrackPointExtension/v1">
            <gpxtpx:hr>150</gpxtpx:hr>
          </gpxtpx:TrackPointExtension>
        </extensions>
      </trkpt>
      <trkpt lat="42.9587" lon="1.8831">
        <ele>465.3</ele>
        <time>2022-07-25T08:19:38.000Z</time>
        <extensions>
          <gpxtpx:TrackPointExtension xmlns:gpxtpx="http://www.garmin.com/xmlschemas/TrackPointExtension/v1">
            <gpxtpx:hr>151</gpxtpx:hr>
          </gpxtpx:TrackPointExtension>
        </extensions>
      </trkpt>
      <trkpt lat="42.95867" lon="1.88318">
        <ele>465.3</ele>
        <time>2022-07-25T08:19:39.000Z</time>
        <extensions>
          <gpxtpx:TrackPointExtension xmlns:gpxtpx="http://www.garmin.com/xmlschemas/TrackPointExtension/v1">
            <gpxtpx:hr>151</gpxtpx:hr>
          </gpxtpx:TrackPointExtension>
        </extensions>
      </trkpt>
      <trkpt lat="42.95864" lon="1.88326">
        <ele>465.3</ele>
        <time>2022-07-25T08:19:40.000Z</time>
        <extensions>
          <gpxtpx:TrackPointExtension xmlns:gpxtpx="http://www.garmin.com/xmlschemas/TrackPointExtension/v1">
            <gpxtpx:hr>151</gpxtpx:hr>
          </gpxtpx:TrackPointExtension>
        </extensions>
      </trkpt>
      <trkpt lat="42.95861" lon="1.88333">
        <ele>465.3</ele>
        <time>2022-07-25T08:19:41.000Z</time>
        <extensions>
          <gpxtpx:TrackPointExtension xmlns:gpxtpx="http://www.garmin.com/xmlschemas/TrackPointExtension/v1">
            <gpxtpx:hr>151</gpxtpx:hr>
          </gpxtpx:TrackPointExtension>
        </extensions>
      </trkpt>
      <trkpt lat="42.95857" lon="1.88341">
        <ele>465.4</ele>
        <time>2022-07-25T08:19:42.000Z</time>
        <extensions>
          <gpxtpx:TrackPointExtension xmlns:gpxtpx="http://www.garmin.com/xmlschemas/TrackPointExtension/v1">
            <gpxtpx:hr>152</gpxtpx:hr>
          </gpxtpx:TrackPointExtension>
        </extensions>
      </trkpt>
      <trkpt lat="42.95854" lon="1.88349">
        <ele>465.4</ele>
        <time>2022-07-25T08:19:43.000Z</time>
        <extensions>
          <gpxtpx:TrackPointExtension xmlns:gpxtpx="http://www.garmin.com/xmlschemas/TrackPointExtension/v1">
            <gpxtpx:hr>152</gpxtpx:hr>
          </gpxtpx:TrackPointExtension>
        </extensions>
      </trkpt>
      <trkpt lat="42.95851" lon="1.88356">
        <ele>465.5</ele>
        <time>2022-07-25T08:19:44.000Z</time>
        <extensions>
          <gpxtpx:TrackPointExtension xmlns:gpxtpx="http://www.garmin.com/xmlschemas/TrackPointExtension/v1">
            <gpxtpx:hr>152</gpxtpx:hr>
          </gpxtpx:TrackPointExtension>
        </extensions>
      </trkpt>
      <trkpt lat="42.95849" lon="1.88364">
        <ele>465.5</ele>
        <time>2022-07-25T08:19:45.000Z</time>
        <extensions>
          <gpxtpx:TrackPointExtension xmlns:gpxtpx="http://www.garmin.com/xmlschemas/TrackPointExtension/v1">
            <gpxtpx:hr>152</gpxtpx:hr>
          </gpxtpx:TrackPointExtension>
        </extensions>
      </trkpt>
      <trkpt lat="42.95847" lon="1.88371">
        <ele>465.5</ele>
        <time>2022-07-25T08:19:46.000Z</time>
        <extensions>
          <gpxtpx:TrackPointExtension xmlns:gpxtpx="http://www.garmin.com/xmlschemas/TrackPointExtension/v1">
            <gpxtpx:hr>152</gpxtpx:hr>
          </gpxtpx:TrackPointExtension>
        </extensions>
      </trkpt>
      <trkpt lat="42.95845" lon="1.88378">
        <ele>465.6</ele>
        <time>2022-07-25T08:19:47.000Z</time>
        <extensions>
          <gpxtpx:TrackPointExtension xmlns:gpxtpx="http://www.garmin.com/xmlschemas/TrackPointExtension/v1">
            <gpxtpx:hr>152</gpxtpx:hr>
          </gpxtpx:TrackPointExtension>
        </extensions>
      </trkpt>
      <trkpt lat="42.95843" lon="1.88385">
        <ele>465.6</ele>
        <time>2022-07-25T08:19:48.000Z</time>
        <extensions>
          <gpxtpx:TrackPointExtension xmlns:gpxtpx="http://www.garmin.com/xmlschemas/TrackPointExtension/v1">
            <gpxtpx:hr>152</gpxtpx:hr>
          </gpxtpx:TrackPointExtension>
        </extensions>
      </trkpt>
      <trkpt lat="42.95842" lon="1.88392">
        <ele>465.6</ele>
        <time>2022-07-25T08:19:49.000Z</time>
        <extensions>
          <gpxtpx:TrackPointExtension xmlns:gpxtpx="http://www.garmin.com/xmlschemas/TrackPointExtension/v1">
            <gpxtpx:hr>152</gpxtpx:hr>
          </gpxtpx:TrackPointExtension>
        </extensions>
      </trkpt>
      <trkpt lat="42.9584" lon="1.88399">
        <ele>465.7</ele>
        <time>2022-07-25T08:19:50.000Z</time>
        <extensions>
          <gpxtpx:TrackPointExtension xmlns:gpxtpx="http://www.garmin.com/xmlschemas/TrackPointExtension/v1">
            <gpxtpx:hr>152</gpxtpx:hr>
          </gpxtpx:TrackPointExtension>
        </extensions>
      </trkpt>
      <trkpt lat="42.95838" lon="1.88406">
        <ele>465.7</ele>
        <time>2022-07-25T08:19:51.000Z</time>
        <extensions>
          <gpxtpx:TrackPointExtension xmlns:gpxtpx="http://www.garmin.com/xmlschemas/TrackPointExtension/v1">
            <gpxtpx:hr>152</gpxtpx:hr>
          </gpxtpx:TrackPointExtension>
        </extensions>
      </trkpt>
      <trkpt lat="42.95836" lon="1.88412">
        <ele>465.7</ele>
        <time>2022-07-25T08:19:52.000Z</time>
        <extensions>
          <gpxtpx:TrackPointExtension xmlns:gpxtpx="http://www.garmin.com/xmlschemas/TrackPointExtension/v1">
            <gpxtpx:hr>151</gpxtpx:hr>
          </gpxtpx:TrackPointExtension>
        </extensions>
      </trkpt>
      <trkpt lat="42.95835" lon="1.88419">
        <ele>465.8</ele>
        <time>2022-07-25T08:19:53.000Z</time>
        <extensions>
          <gpxtpx:TrackPointExtension xmlns:gpxtpx="http://www.garmin.com/xmlschemas/TrackPointExtension/v1">
            <gpxtpx:hr>151</gpxtpx:hr>
          </gpxtpx:TrackPointExtension>
        </extensions>
      </trkpt>
      <trkpt lat="42.95833" lon="1.88425">
        <ele>465.8</ele>
        <time>2022-07-25T08:19:54.000Z</time>
        <extensions>
          <gpxtpx:TrackPointExtension xmlns:gpxtpx="http://www.garmin.com/xmlschemas/TrackPointExtension/v1">
            <gpxtpx:hr>151</gpxtpx:hr>
          </gpxtpx:TrackPointExtension>
        </extensions>
      </trkpt>
      <trkpt lat="42.95831" lon="1.88432">
        <ele>465.8</ele>
        <time>2022-07-25T08:19:55.000Z</time>
        <extensions>
          <gpxtpx:TrackPointExtension xmlns:gpxtpx="http://www.garmin.com/xmlschemas/TrackPointExtension/v1">
            <gpxtpx:hr>151</gpxtpx:hr>
          </gpxtpx:TrackPointExtension>
        </extensions>
      </trkpt>
      <trkpt lat="42.9583" lon="1.88438">
        <ele>465.8</ele>
        <time>2022-07-25T08:19:56.000Z</time>
        <extensions>
          <gpxtpx:TrackPointExtension xmlns:gpxtpx="http://www.garmin.com/xmlschemas/TrackPointExtension/v1">
            <gpxtpx:hr>150</gpxtpx:hr>
          </gpxtpx:TrackPointExtension>
        </extensions>
      </trkpt>
      <trkpt lat="42.95828" lon="1.88446">
        <ele>465.8</ele>
        <time>2022-07-25T08:19:57.000Z</time>
        <extensions>
          <gpxtpx:TrackPointExtension xmlns:gpxtpx="http://www.garmin.com/xmlschemas/TrackPointExtension/v1">
            <gpxtpx:hr>150</gpxtpx:hr>
          </gpxtpx:TrackPointExtension>
        </extensions>
      </trkpt>
      <trkpt lat="42.95827" lon="1.88453">
        <ele>465.9</ele>
        <time>2022-07-25T08:19:58.000Z</time>
        <extensions>
          <gpxtpx:TrackPointExtension xmlns:gpxtpx="http://www.garmin.com/xmlschemas/TrackPointExtension/v1">
            <gpxtpx:hr>150</gpxtpx:hr>
          </gpxtpx:TrackPointExtension>
        </extensions>
      </trkpt>
      <trkpt lat="42.95825" lon="1.8846">
        <ele>465.9</ele>
        <time>2022-07-25T08:19:59.000Z</time>
        <extensions>
          <gpxtpx:TrackPointExtension xmlns:gpxtpx="http://www.garmin.com/xmlschemas/TrackPointExtension/v1">
            <gpxtpx:hr>150</gpxtpx:hr>
          </gpxtpx:TrackPointExtension>
        </extensions>
      </trkpt>
      <trkpt lat="42.95823" lon="1.88466">
        <ele>465.9</ele>
        <time>2022-07-25T08:20:00.000Z</time>
        <extensions>
          <gpxtpx:TrackPointExtension xmlns:gpxtpx="http://www.garmin.com/xmlschemas/TrackPointExtension/v1">
            <gpxtpx:hr>149</gpxtpx:hr>
          </gpxtpx:TrackPointExtension>
        </extensions>
      </trkpt>
      <trkpt lat="42.95822" lon="1.88473">
        <ele>465.9</ele>
        <time>2022-07-25T08:20:01.000Z</time>
        <extensions>
          <gpxtpx:TrackPointExtension xmlns:gpxtpx="http://www.garmin.com/xmlschemas/TrackPointExtension/v1">
            <gpxtpx:hr>149</gpxtpx:hr>
          </gpxtpx:TrackPointExtension>
        </extensions>
      </trkpt>
      <trkpt lat="42.95821" lon="1.8848">
        <ele>465.9</ele>
        <time>2022-07-25T08:20:02.000Z</time>
        <extensions>
          <gpxtpx:TrackPointExtension xmlns:gpxtpx="http://www.garmin.com/xmlschemas/TrackPointExtension/v1">
            <gpxtpx:hr>149</gpxtpx:hr>
          </gpxtpx:TrackPointExtension>
        </extensions>
      </trkpt>
      <trkpt lat="42.9582" lon="1.88488">
        <ele>465.9</ele>
        <time>2022-07-25T08:20:03.000Z</time>
        <extensions>
          <gpxtpx:TrackPointExtension xmlns:gpxtpx="http://www.garmin.com/xmlschemas/TrackPointExtension/v1">
            <gpxtpx:hr>149</gpxtpx:hr>
          </gpxtpx:TrackPointExtension>
        </extensions>
      </trkpt>
      <trkpt lat="42.95818" lon="1.88496">
        <ele>466</ele>
        <time>2022-07-25T08:20:04.000Z</time>
        <extensions>
          <gpxtpx:TrackPointExtension xmlns:gpxtpx="http://www.garmin.com/xmlschemas/TrackPointExtension/v1">
            <gpxtpx:hr>149</gpxtpx:hr>
          </gpxtpx:TrackPointExtension>
        </extensions>
      </trkpt>
      <trkpt lat="42.95817" lon="1.88505">
        <ele>466</ele>
        <time>2022-07-25T08:20:05.000Z</time>
        <extensions>
          <gpxtpx:TrackPointExtension xmlns:gpxtpx="http://www.garmin.com/xmlschemas/TrackPointExtension/v1">
            <gpxtpx:hr>149</gpxtpx:hr>
          </gpxtpx:TrackPointExtension>
        </extensions>
      </trkpt>
      <trkpt lat="42.95814" lon="1.88511">
        <ele>466</ele>
        <time>2022-07-25T08:20:06.000Z</time>
        <extensions>
          <gpxtpx:TrackPointExtension xmlns:gpxtpx="http://www.garmin.com/xmlschemas/TrackPointExtension/v1">
            <gpxtpx:hr>149</gpxtpx:hr>
          </gpxtpx:TrackPointExtension>
        </extensions>
      </trkpt>
      <trkpt lat="42.95812" lon="1.88518">
        <ele>466</ele>
        <time>2022-07-25T08:20:07.000Z</time>
        <extensions>
          <gpxtpx:TrackPointExtension xmlns:gpxtpx="http://www.garmin.com/xmlschemas/TrackPointExtension/v1">
            <gpxtpx:hr>149</gpxtpx:hr>
          </gpxtpx:TrackPointExtension>
        </extensions>
      </trkpt>
      <trkpt lat="42.9581" lon="1.88525">
        <ele>466</ele>
        <time>2022-07-25T08:20:08.000Z</time>
        <extensions>
          <gpxtpx:TrackPointExtension xmlns:gpxtpx="http://www.garmin.com/xmlschemas/TrackPointExtension/v1">
            <gpxtpx:hr>149</gpxtpx:hr>
          </gpxtpx:TrackPointExtension>
        </extensions>
      </trkpt>
      <trkpt lat="42.95808" lon="1.88533">
        <ele>466.1</ele>
        <time>2022-07-25T08:20:09.000Z</time>
        <extensions>
          <gpxtpx:TrackPointExtension xmlns:gpxtpx="http://www.garmin.com/xmlschemas/TrackPointExtension/v1">
            <gpxtpx:hr>149</gpxtpx:hr>
          </gpxtpx:TrackPointExtension>
        </extensions>
      </trkpt>
      <trkpt lat="42.95807" lon="1.8854">
        <ele>466.1</ele>
        <time>2022-07-25T08:20:10.000Z</time>
        <extensions>
          <gpxtpx:TrackPointExtension xmlns:gpxtpx="http://www.garmin.com/xmlschemas/TrackPointExtension/v1">
            <gpxtpx:hr>149</gpxtpx:hr>
          </gpxtpx:TrackPointExtension>
        </extensions>
      </trkpt>
      <trkpt lat="42.95805" lon="1.88549">
        <ele>466.1</ele>
        <time>2022-07-25T08:20:11.000Z</time>
        <extensions>
          <gpxtpx:TrackPointExtension xmlns:gpxtpx="http://www.garmin.com/xmlschemas/TrackPointExtension/v1">
            <gpxtpx:hr>149</gpxtpx:hr>
          </gpxtpx:TrackPointExtension>
        </extensions>
      </trkpt>
      <trkpt lat="42.95804" lon="1.88556">
        <ele>466.1</ele>
        <time>2022-07-25T08:20:12.000Z</time>
        <extensions>
          <gpxtpx:TrackPointExtension xmlns:gpxtpx="http://www.garmin.com/xmlschemas/TrackPointExtension/v1">
            <gpxtpx:hr>149</gpxtpx:hr>
          </gpxtpx:TrackPointExtension>
        </extensions>
      </trkpt>
      <trkpt lat="42.95802" lon="1.88563">
        <ele>466.1</ele>
        <time>2022-07-25T08:20:13.000Z</time>
        <extensions>
          <gpxtpx:TrackPointExtension xmlns:gpxtpx="http://www.garmin.com/xmlschemas/TrackPointExtension/v1">
            <gpxtpx:hr>149</gpxtpx:hr>
          </gpxtpx:TrackPointExtension>
        </extensions>
      </trkpt>
      <trkpt lat="42.95801" lon="1.88571">
        <ele>466.1</ele>
        <time>2022-07-25T08:20:14.000Z</time>
        <extensions>
          <gpxtpx:TrackPointExtension xmlns:gpxtpx="http://www.garmin.com/xmlschemas/TrackPointExtension/v1">
            <gpxtpx:hr>149</gpxtpx:hr>
          </gpxtpx:TrackPointExtension>
        </extensions>
      </trkpt>
      <trkpt lat="42.95801" lon="1.88579">
        <ele>466.1</ele>
        <time>2022-07-25T08:20:15.000Z</time>
        <extensions>
          <gpxtpx:TrackPointExtension xmlns:gpxtpx="http://www.garmin.com/xmlschemas/TrackPointExtension/v1">
            <gpxtpx:hr>149</gpxtpx:hr>
          </gpxtpx:TrackPointExtension>
        </extensions>
      </trkpt>
      <trkpt lat="42.958" lon="1.88586">
        <ele>466.1</ele>
        <time>2022-07-25T08:20:16.000Z</time>
        <extensions>
          <gpxtpx:TrackPointExtension xmlns:gpxtpx="http://www.garmin.com/xmlschemas/TrackPointExtension/v1">
            <gpxtpx:hr>149</gpxtpx:hr>
          </gpxtpx:TrackPointExtension>
        </extensions>
      </trkpt>
      <trkpt lat="42.95799" lon="1.88594">
        <ele>466.1</ele>
        <time>2022-07-25T08:20:17.000Z</time>
        <extensions>
          <gpxtpx:TrackPointExtension xmlns:gpxtpx="http://www.garmin.com/xmlschemas/TrackPointExtension/v1">
            <gpxtpx:hr>149</gpxtpx:hr>
          </gpxtpx:TrackPointExtension>
        </extensions>
      </trkpt>
      <trkpt lat="42.95799" lon="1.88602">
        <ele>466.2</ele>
        <time>2022-07-25T08:20:18.000Z</time>
        <extensions>
          <gpxtpx:TrackPointExtension xmlns:gpxtpx="http://www.garmin.com/xmlschemas/TrackPointExtension/v1">
            <gpxtpx:hr>149</gpxtpx:hr>
          </gpxtpx:TrackPointExtension>
        </extensions>
      </trkpt>
      <trkpt lat="42.95798" lon="1.88609">
        <ele>466.2</ele>
        <time>2022-07-25T08:20:19.000Z</time>
        <extensions>
          <gpxtpx:TrackPointExtension xmlns:gpxtpx="http://www.garmin.com/xmlschemas/TrackPointExtension/v1">
            <gpxtpx:hr>149</gpxtpx:hr>
          </gpxtpx:TrackPointExtension>
        </extensions>
      </trkpt>
      <trkpt lat="42.95797" lon="1.88617">
        <ele>466.2</ele>
        <time>2022-07-25T08:20:20.000Z</time>
        <extensions>
          <gpxtpx:TrackPointExtension xmlns:gpxtpx="http://www.garmin.com/xmlschemas/TrackPointExtension/v1">
            <gpxtpx:hr>149</gpxtpx:hr>
          </gpxtpx:TrackPointExtension>
        </extensions>
      </trkpt>
      <trkpt lat="42.95796" lon="1.88625">
        <ele>466.2</ele>
        <time>2022-07-25T08:20:21.000Z</time>
        <extensions>
          <gpxtpx:TrackPointExtension xmlns:gpxtpx="http://www.garmin.com/xmlschemas/TrackPointExtension/v1">
            <gpxtpx:hr>149</gpxtpx:hr>
          </gpxtpx:TrackPointExtension>
        </extensions>
      </trkpt>
      <trkpt lat="42.95796" lon="1.88633">
        <ele>466.2</ele>
        <time>2022-07-25T08:20:22.000Z</time>
        <extensions>
          <gpxtpx:TrackPointExtension xmlns:gpxtpx="http://www.garmin.com/xmlschemas/TrackPointExtension/v1">
            <gpxtpx:hr>149</gpxtpx:hr>
          </gpxtpx:TrackPointExtension>
        </extensions>
      </trkpt>
      <trkpt lat="42.95796" lon="1.8864">
        <ele>466.2</ele>
        <time>2022-07-25T08:20:23.000Z</time>
        <extensions>
          <gpxtpx:TrackPointExtension xmlns:gpxtpx="http://www.garmin.com/xmlschemas/TrackPointExtension/v1">
            <gpxtpx:hr>149</gpxtpx:hr>
          </gpxtpx:TrackPointExtension>
        </extensions>
      </trkpt>
      <trkpt lat="42.95795" lon="1.88648">
        <ele>466.2</ele>
        <time>2022-07-25T08:20:24.000Z</time>
        <extensions>
          <gpxtpx:TrackPointExtension xmlns:gpxtpx="http://www.garmin.com/xmlschemas/TrackPointExtension/v1">
            <gpxtpx:hr>149</gpxtpx:hr>
          </gpxtpx:TrackPointExtension>
        </extensions>
      </trkpt>
      <trkpt lat="42.95795" lon="1.88656">
        <ele>466.2</ele>
        <time>2022-07-25T08:20:25.000Z</time>
        <extensions>
          <gpxtpx:TrackPointExtension xmlns:gpxtpx="http://www.garmin.com/xmlschemas/TrackPointExtension/v1">
            <gpxtpx:hr>149</gpxtpx:hr>
          </gpxtpx:TrackPointExtension>
        </extensions>
      </trkpt>
      <trkpt lat="42.95795" lon="1.88663">
        <ele>466.2</ele>
        <time>2022-07-25T08:20:26.000Z</time>
        <extensions>
          <gpxtpx:TrackPointExtension xmlns:gpxtpx="http://www.garmin.com/xmlschemas/TrackPointExtension/v1">
            <gpxtpx:hr>149</gpxtpx:hr>
          </gpxtpx:TrackPointExtension>
        </extensions>
      </trkpt>
      <trkpt lat="42.95795" lon="1.8867">
        <ele>466.2</ele>
        <time>2022-07-25T08:20:27.000Z</time>
        <extensions>
          <gpxtpx:TrackPointExtension xmlns:gpxtpx="http://www.garmin.com/xmlschemas/TrackPointExtension/v1">
            <gpxtpx:hr>149</gpxtpx:hr>
          </gpxtpx:TrackPointExtension>
        </extensions>
      </trkpt>
      <trkpt lat="42.95793" lon="1.8868">
        <ele>466.2</ele>
        <time>2022-07-25T08:20:28.000Z</time>
        <extensions>
          <gpxtpx:TrackPointExtension xmlns:gpxtpx="http://www.garmin.com/xmlschemas/TrackPointExtension/v1">
            <gpxtpx:hr>149</gpxtpx:hr>
          </gpxtpx:TrackPointExtension>
        </extensions>
      </trkpt>
      <trkpt lat="42.95791" lon="1.8869">
        <ele>466.2</ele>
        <time>2022-07-25T08:20:29.000Z</time>
        <extensions>
          <gpxtpx:TrackPointExtension xmlns:gpxtpx="http://www.garmin.com/xmlschemas/TrackPointExtension/v1">
            <gpxtpx:hr>149</gpxtpx:hr>
          </gpxtpx:TrackPointExtension>
        </extensions>
      </trkpt>
      <trkpt lat="42.95791" lon="1.88697">
        <ele>466.2</ele>
        <time>2022-07-25T08:20:30.000Z</time>
        <extensions>
          <gpxtpx:TrackPointExtension xmlns:gpxtpx="http://www.garmin.com/xmlschemas/TrackPointExtension/v1">
            <gpxtpx:hr>149</gpxtpx:hr>
          </gpxtpx:TrackPointExtension>
        </extensions>
      </trkpt>
      <trkpt lat="42.9579" lon="1.88707">
        <ele>466.2</ele>
        <time>2022-07-25T08:20:31.000Z</time>
        <extensions>
          <gpxtpx:TrackPointExtension xmlns:gpxtpx="http://www.garmin.com/xmlschemas/TrackPointExtension/v1">
            <gpxtpx:hr>149</gpxtpx:hr>
          </gpxtpx:TrackPointExtension>
        </extensions>
      </trkpt>
      <trkpt lat="42.9579" lon="1.88714">
        <ele>466.2</ele>
        <time>2022-07-25T08:20:32.000Z</time>
        <extensions>
          <gpxtpx:TrackPointExtension xmlns:gpxtpx="http://www.garmin.com/xmlschemas/TrackPointExtension/v1">
            <gpxtpx:hr>149</gpxtpx:hr>
          </gpxtpx:TrackPointExtension>
        </extensions>
      </trkpt>
      <trkpt lat="42.95789" lon="1.88722">
        <ele>466.2</ele>
        <time>2022-07-25T08:20:33.000Z</time>
        <extensions>
          <gpxtpx:TrackPointExtension xmlns:gpxtpx="http://www.garmin.com/xmlschemas/TrackPointExtension/v1">
            <gpxtpx:hr>149</gpxtpx:hr>
          </gpxtpx:TrackPointExtension>
        </extensions>
      </trkpt>
      <trkpt lat="42.95789" lon="1.88731">
        <ele>466.2</ele>
        <time>2022-07-25T08:20:34.000Z</time>
        <extensions>
          <gpxtpx:TrackPointExtension xmlns:gpxtpx="http://www.garmin.com/xmlschemas/TrackPointExtension/v1">
            <gpxtpx:hr>149</gpxtpx:hr>
          </gpxtpx:TrackPointExtension>
        </extensions>
      </trkpt>
      <trkpt lat="42.95789" lon="1.88739">
        <ele>466.2</ele>
        <time>2022-07-25T08:20:35.000Z</time>
        <extensions>
          <gpxtpx:TrackPointExtension xmlns:gpxtpx="http://www.garmin.com/xmlschemas/TrackPointExtension/v1">
            <gpxtpx:hr>150</gpxtpx:hr>
          </gpxtpx:TrackPointExtension>
        </extensions>
      </trkpt>
      <trkpt lat="42.95788" lon="1.88748">
        <ele>466.2</ele>
        <time>2022-07-25T08:20:36.000Z</time>
        <extensions>
          <gpxtpx:TrackPointExtension xmlns:gpxtpx="http://www.garmin.com/xmlschemas/TrackPointExtension/v1">
            <gpxtpx:hr>150</gpxtpx:hr>
          </gpxtpx:TrackPointExtension>
        </extensions>
      </trkpt>
      <trkpt lat="42.95789" lon="1.88756">
        <ele>466.3</ele>
        <time>2022-07-25T08:20:37.000Z</time>
        <extensions>
          <gpxtpx:TrackPointExtension xmlns:gpxtpx="http://www.garmin.com/xmlschemas/TrackPointExtension/v1">
            <gpxtpx:hr>150</gpxtpx:hr>
          </gpxtpx:TrackPointExtension>
        </extensions>
      </trkpt>
      <trkpt lat="42.95789" lon="1.88764">
        <ele>466.3</ele>
        <time>2022-07-25T08:20:38.000Z</time>
        <extensions>
          <gpxtpx:TrackPointExtension xmlns:gpxtpx="http://www.garmin.com/xmlschemas/TrackPointExtension/v1">
            <gpxtpx:hr>150</gpxtpx:hr>
          </gpxtpx:TrackPointExtension>
        </extensions>
      </trkpt>
      <trkpt lat="42.95789" lon="1.88772">
        <ele>466.3</ele>
        <time>2022-07-25T08:20:39.000Z</time>
        <extensions>
          <gpxtpx:TrackPointExtension xmlns:gpxtpx="http://www.garmin.com/xmlschemas/TrackPointExtension/v1">
            <gpxtpx:hr>150</gpxtpx:hr>
          </gpxtpx:TrackPointExtension>
        </extensions>
      </trkpt>
      <trkpt lat="42.95789" lon="1.88781">
        <ele>466.3</ele>
        <time>2022-07-25T08:20:40.000Z</time>
        <extensions>
          <gpxtpx:TrackPointExtension xmlns:gpxtpx="http://www.garmin.com/xmlschemas/TrackPointExtension/v1">
            <gpxtpx:hr>150</gpxtpx:hr>
          </gpxtpx:TrackPointExtension>
        </extensions>
      </trkpt>
      <trkpt lat="42.95789" lon="1.88791">
        <ele>466.3</ele>
        <time>2022-07-25T08:20:41.000Z</time>
        <extensions>
          <gpxtpx:TrackPointExtension xmlns:gpxtpx="http://www.garmin.com/xmlschemas/TrackPointExtension/v1">
            <gpxtpx:hr>150</gpxtpx:hr>
          </gpxtpx:TrackPointExtension>
        </extensions>
      </trkpt>
      <trkpt lat="42.95789" lon="1.88801">
        <ele>466.3</ele>
        <time>2022-07-25T08:20:42.000Z</time>
        <extensions>
          <gpxtpx:TrackPointExtension xmlns:gpxtpx="http://www.garmin.com/xmlschemas/TrackPointExtension/v1">
            <gpxtpx:hr>150</gpxtpx:hr>
          </gpxtpx:TrackPointExtension>
        </extensions>
      </trkpt>
      <trkpt lat="42.95789" lon="1.8881">
        <ele>466.3</ele>
        <time>2022-07-25T08:20:43.000Z</time>
        <extensions>
          <gpxtpx:TrackPointExtension xmlns:gpxtpx="http://www.garmin.com/xmlschemas/TrackPointExtension/v1">
            <gpxtpx:hr>150</gpxtpx:hr>
          </gpxtpx:TrackPointExtension>
        </extensions>
      </trkpt>
      <trkpt lat="42.9579" lon="1.88818">
        <ele>466.3</ele>
        <time>2022-07-25T08:20:44.000Z</time>
        <extensions>
          <gpxtpx:TrackPointExtension xmlns:gpxtpx="http://www.garmin.com/xmlschemas/TrackPointExtension/v1">
            <gpxtpx:hr>150</gpxtpx:hr>
          </gpxtpx:TrackPointExtension>
        </extensions>
      </trkpt>
      <trkpt lat="42.9579" lon="1.88827">
        <ele>466.3</ele>
        <time>2022-07-25T08:20:45.000Z</time>
        <extensions>
          <gpxtpx:TrackPointExtension xmlns:gpxtpx="http://www.garmin.com/xmlschemas/TrackPointExtension/v1">
            <gpxtpx:hr>150</gpxtpx:hr>
          </gpxtpx:TrackPointExtension>
        </extensions>
      </trkpt>
      <trkpt lat="42.95791" lon="1.88836">
        <ele>466.3</ele>
        <time>2022-07-25T08:20:46.000Z</time>
        <extensions>
          <gpxtpx:TrackPointExtension xmlns:gpxtpx="http://www.garmin.com/xmlschemas/TrackPointExtension/v1">
            <gpxtpx:hr>150</gpxtpx:hr>
          </gpxtpx:TrackPointExtension>
        </extensions>
      </trkpt>
      <trkpt lat="42.95791" lon="1.88844">
        <ele>466.3</ele>
        <time>2022-07-25T08:20:47.000Z</time>
        <extensions>
          <gpxtpx:TrackPointExtension xmlns:gpxtpx="http://www.garmin.com/xmlschemas/TrackPointExtension/v1">
            <gpxtpx:hr>149</gpxtpx:hr>
          </gpxtpx:TrackPointExtension>
        </extensions>
      </trkpt>
      <trkpt lat="42.95791" lon="1.88853">
        <ele>466.3</ele>
        <time>2022-07-25T08:20:48.000Z</time>
        <extensions>
          <gpxtpx:TrackPointExtension xmlns:gpxtpx="http://www.garmin.com/xmlschemas/TrackPointExtension/v1">
            <gpxtpx:hr>149</gpxtpx:hr>
          </gpxtpx:TrackPointExtension>
        </extensions>
      </trkpt>
      <trkpt lat="42.95792" lon="1.88861">
        <ele>466.3</ele>
        <time>2022-07-25T08:20:49.000Z</time>
        <extensions>
          <gpxtpx:TrackPointExtension xmlns:gpxtpx="http://www.garmin.com/xmlschemas/TrackPointExtension/v1">
            <gpxtpx:hr>149</gpxtpx:hr>
          </gpxtpx:TrackPointExtension>
        </extensions>
      </trkpt>
      <trkpt lat="42.95792" lon="1.8887">
        <ele>466.3</ele>
        <time>2022-07-25T08:20:50.000Z</time>
        <extensions>
          <gpxtpx:TrackPointExtension xmlns:gpxtpx="http://www.garmin.com/xmlschemas/TrackPointExtension/v1">
            <gpxtpx:hr>149</gpxtpx:hr>
          </gpxtpx:TrackPointExtension>
        </extensions>
      </trkpt>
      <trkpt lat="42.95793" lon="1.88878">
        <ele>466.3</ele>
        <time>2022-07-25T08:20:51.000Z</time>
        <extensions>
          <gpxtpx:TrackPointExtension xmlns:gpxtpx="http://www.garmin.com/xmlschemas/TrackPointExtension/v1">
            <gpxtpx:hr>149</gpxtpx:hr>
          </gpxtpx:TrackPointExtension>
        </extensions>
      </trkpt>
      <trkpt lat="42.95794" lon="1.88887">
        <ele>466.3</ele>
        <time>2022-07-25T08:20:52.000Z</time>
        <extensions>
          <gpxtpx:TrackPointExtension xmlns:gpxtpx="http://www.garmin.com/xmlschemas/TrackPointExtension/v1">
            <gpxtpx:hr>149</gpxtpx:hr>
          </gpxtpx:TrackPointExtension>
        </extensions>
      </trkpt>
      <trkpt lat="42.95795" lon="1.88895">
        <ele>466.3</ele>
        <time>2022-07-25T08:20:53.000Z</time>
        <extensions>
          <gpxtpx:TrackPointExtension xmlns:gpxtpx="http://www.garmin.com/xmlschemas/TrackPointExtension/v1">
            <gpxtpx:hr>149</gpxtpx:hr>
          </gpxtpx:TrackPointExtension>
        </extensions>
      </trkpt>
      <trkpt lat="42.95796" lon="1.88903">
        <ele>466.3</ele>
        <time>2022-07-25T08:20:54.000Z</time>
        <extensions>
          <gpxtpx:TrackPointExtension xmlns:gpxtpx="http://www.garmin.com/xmlschemas/TrackPointExtension/v1">
            <gpxtpx:hr>148</gpxtpx:hr>
          </gpxtpx:TrackPointExtension>
        </extensions>
      </trkpt>
      <trkpt lat="42.95797" lon="1.88911">
        <ele>466.3</ele>
        <time>2022-07-25T08:20:55.000Z</time>
        <extensions>
          <gpxtpx:TrackPointExtension xmlns:gpxtpx="http://www.garmin.com/xmlschemas/TrackPointExtension/v1">
            <gpxtpx:hr>148</gpxtpx:hr>
          </gpxtpx:TrackPointExtension>
        </extensions>
      </trkpt>
      <trkpt lat="42.95798" lon="1.88919">
        <ele>466.2</ele>
        <time>2022-07-25T08:20:56.000Z</time>
        <extensions>
          <gpxtpx:TrackPointExtension xmlns:gpxtpx="http://www.garmin.com/xmlschemas/TrackPointExtension/v1">
            <gpxtpx:hr>148</gpxtpx:hr>
          </gpxtpx:TrackPointExtension>
        </extensions>
      </trkpt>
      <trkpt lat="42.95798" lon="1.88926">
        <ele>466.2</ele>
        <time>2022-07-25T08:20:57.000Z</time>
        <extensions>
          <gpxtpx:TrackPointExtension xmlns:gpxtpx="http://www.garmin.com/xmlschemas/TrackPointExtension/v1">
            <gpxtpx:hr>148</gpxtpx:hr>
          </gpxtpx:TrackPointExtension>
        </extensions>
      </trkpt>
      <trkpt lat="42.95799" lon="1.88934">
        <ele>466.2</ele>
        <time>2022-07-25T08:20:58.000Z</time>
        <extensions>
          <gpxtpx:TrackPointExtension xmlns:gpxtpx="http://www.garmin.com/xmlschemas/TrackPointExtension/v1">
            <gpxtpx:hr>147</gpxtpx:hr>
          </gpxtpx:TrackPointExtension>
        </extensions>
      </trkpt>
      <trkpt lat="42.95799" lon="1.88942">
        <ele>466.2</ele>
        <time>2022-07-25T08:20:59.000Z</time>
        <extensions>
          <gpxtpx:TrackPointExtension xmlns:gpxtpx="http://www.garmin.com/xmlschemas/TrackPointExtension/v1">
            <gpxtpx:hr>147</gpxtpx:hr>
          </gpxtpx:TrackPointExtension>
        </extensions>
      </trkpt>
      <trkpt lat="42.958" lon="1.88949">
        <ele>466.1</ele>
        <time>2022-07-25T08:21:00.000Z</time>
        <extensions>
          <gpxtpx:TrackPointExtension xmlns:gpxtpx="http://www.garmin.com/xmlschemas/TrackPointExtension/v1">
            <gpxtpx:hr>147</gpxtpx:hr>
          </gpxtpx:TrackPointExtension>
        </extensions>
      </trkpt>
      <trkpt lat="42.95801" lon="1.88957">
        <ele>466.1</ele>
        <time>2022-07-25T08:21:01.000Z</time>
        <extensions>
          <gpxtpx:TrackPointExtension xmlns:gpxtpx="http://www.garmin.com/xmlschemas/TrackPointExtension/v1">
            <gpxtpx:hr>147</gpxtpx:hr>
          </gpxtpx:TrackPointExtension>
        </extensions>
      </trkpt>
      <trkpt lat="42.95801" lon="1.88965">
        <ele>466</ele>
        <time>2022-07-25T08:21:02.000Z</time>
        <extensions>
          <gpxtpx:TrackPointExtension xmlns:gpxtpx="http://www.garmin.com/xmlschemas/TrackPointExtension/v1">
            <gpxtpx:hr>147</gpxtpx:hr>
          </gpxtpx:TrackPointExtension>
        </extensions>
      </trkpt>
      <trkpt lat="42.95802" lon="1.88972">
        <ele>466</ele>
        <time>2022-07-25T08:21:03.000Z</time>
        <extensions>
          <gpxtpx:TrackPointExtension xmlns:gpxtpx="http://www.garmin.com/xmlschemas/TrackPointExtension/v1">
            <gpxtpx:hr>147</gpxtpx:hr>
          </gpxtpx:TrackPointExtension>
        </extensions>
      </trkpt>
      <trkpt lat="42.95803" lon="1.8898">
        <ele>466</ele>
        <time>2022-07-25T08:21:04.000Z</time>
        <extensions>
          <gpxtpx:TrackPointExtension xmlns:gpxtpx="http://www.garmin.com/xmlschemas/TrackPointExtension/v1">
            <gpxtpx:hr>147</gpxtpx:hr>
          </gpxtpx:TrackPointExtension>
        </extensions>
      </trkpt>
      <trkpt lat="42.95803" lon="1.88988">
        <ele>465.9</ele>
        <time>2022-07-25T08:21:05.000Z</time>
        <extensions>
          <gpxtpx:TrackPointExtension xmlns:gpxtpx="http://www.garmin.com/xmlschemas/TrackPointExtension/v1">
            <gpxtpx:hr>147</gpxtpx:hr>
          </gpxtpx:TrackPointExtension>
        </extensions>
      </trkpt>
      <trkpt lat="42.95804" lon="1.88995">
        <ele>465.8</ele>
        <time>2022-07-25T08:21:06.000Z</time>
        <extensions>
          <gpxtpx:TrackPointExtension xmlns:gpxtpx="http://www.garmin.com/xmlschemas/TrackPointExtension/v1">
            <gpxtpx:hr>147</gpxtpx:hr>
          </gpxtpx:TrackPointExtension>
        </extensions>
      </trkpt>
      <trkpt lat="42.95805" lon="1.89003">
        <ele>465.7</ele>
        <time>2022-07-25T08:21:07.000Z</time>
        <extensions>
          <gpxtpx:TrackPointExtension xmlns:gpxtpx="http://www.garmin.com/xmlschemas/TrackPointExtension/v1">
            <gpxtpx:hr>147</gpxtpx:hr>
          </gpxtpx:TrackPointExtension>
        </extensions>
      </trkpt>
      <trkpt lat="42.95805" lon="1.8901">
        <ele>465.6</ele>
        <time>2022-07-25T08:21:08.000Z</time>
        <extensions>
          <gpxtpx:TrackPointExtension xmlns:gpxtpx="http://www.garmin.com/xmlschemas/TrackPointExtension/v1">
            <gpxtpx:hr>146</gpxtpx:hr>
          </gpxtpx:TrackPointExtension>
        </extensions>
      </trkpt>
      <trkpt lat="42.95855" lon="1.89254">
        <ele>464</ele>
        <time>2022-07-25T08:21:30.000Z</time>
        <extensions>
          <gpxtpx:TrackPointExtension xmlns:gpxtpx="http://www.garmin.com/xmlschemas/TrackPointExtension/v1">
            <gpxtpx:hr>140</gpxtpx:hr>
          </gpxtpx:TrackPointExtension>
        </extensions>
      </trkpt>
      <trkpt lat="42.95856" lon="1.89298">
        <ele>464.2</ele>
        <time>2022-07-25T08:21:35.000Z</time>
        <extensions>
          <gpxtpx:TrackPointExtension xmlns:gpxtpx="http://www.garmin.com/xmlschemas/TrackPointExtension/v1">
            <gpxtpx:hr>138</gpxtpx:hr>
          </gpxtpx:TrackPointExtension>
        </extensions>
      </trkpt>
      <trkpt lat="42.95857" lon="1.89308">
        <ele>464</ele>
        <time>2022-07-25T08:21:36.000Z</time>
        <extensions>
          <gpxtpx:TrackPointExtension xmlns:gpxtpx="http://www.garmin.com/xmlschemas/TrackPointExtension/v1">
            <gpxtpx:hr>138</gpxtpx:hr>
          </gpxtpx:TrackPointExtension>
        </extensions>
      </trkpt>
      <trkpt lat="42.95857" lon="1.89317">
        <ele>463.9</ele>
        <time>2022-07-25T08:21:37.000Z</time>
        <extensions>
          <gpxtpx:TrackPointExtension xmlns:gpxtpx="http://www.garmin.com/xmlschemas/TrackPointExtension/v1">
            <gpxtpx:hr>138</gpxtpx:hr>
          </gpxtpx:TrackPointExtension>
        </extensions>
      </trkpt>
      <trkpt lat="42.95858" lon="1.89327">
        <ele>463.7</ele>
        <time>2022-07-25T08:21:38.000Z</time>
        <extensions>
          <gpxtpx:TrackPointExtension xmlns:gpxtpx="http://www.garmin.com/xmlschemas/TrackPointExtension/v1">
            <gpxtpx:hr>137</gpxtpx:hr>
          </gpxtpx:TrackPointExtension>
        </extensions>
      </trkpt>
      <trkpt lat="42.95858" lon="1.89337">
        <ele>463.6</ele>
        <time>2022-07-25T08:21:39.000Z</time>
        <extensions>
          <gpxtpx:TrackPointExtension xmlns:gpxtpx="http://www.garmin.com/xmlschemas/TrackPointExtension/v1">
            <gpxtpx:hr>137</gpxtpx:hr>
          </gpxtpx:TrackPointExtension>
        </extensions>
      </trkpt>
      <trkpt lat="42.95857" lon="1.89347">
        <ele>463.4</ele>
        <time>2022-07-25T08:21:40.000Z</time>
        <extensions>
          <gpxtpx:TrackPointExtension xmlns:gpxtpx="http://www.garmin.com/xmlschemas/TrackPointExtension/v1">
            <gpxtpx:hr>136</gpxtpx:hr>
          </gpxtpx:TrackPointExtension>
        </extensions>
      </trkpt>
      <trkpt lat="42.95857" lon="1.89357">
        <ele>463.3</ele>
        <time>2022-07-25T08:21:41.000Z</time>
        <extensions>
          <gpxtpx:TrackPointExtension xmlns:gpxtpx="http://www.garmin.com/xmlschemas/TrackPointExtension/v1">
            <gpxtpx:hr>135</gpxtpx:hr>
          </gpxtpx:TrackPointExtension>
        </extensions>
      </trkpt>
      <trkpt lat="42.95856" lon="1.89367">
        <ele>463.1</ele>
        <time>2022-07-25T08:21:42.000Z</time>
        <extensions>
          <gpxtpx:TrackPointExtension xmlns:gpxtpx="http://www.garmin.com/xmlschemas/TrackPointExtension/v1">
            <gpxtpx:hr>134</gpxtpx:hr>
          </gpxtpx:TrackPointExtension>
        </extensions>
      </trkpt>
      <trkpt lat="42.95855" lon="1.89376">
        <ele>462.9</ele>
        <time>2022-07-25T08:21:43.000Z</time>
        <extensions>
          <gpxtpx:TrackPointExtension xmlns:gpxtpx="http://www.garmin.com/xmlschemas/TrackPointExtension/v1">
            <gpxtpx:hr>133</gpxtpx:hr>
          </gpxtpx:TrackPointExtension>
        </extensions>
      </trkpt>
      <trkpt lat="42.95855" lon="1.89385">
        <ele>462.8</ele>
        <time>2022-07-25T08:21:44.000Z</time>
        <extensions>
          <gpxtpx:TrackPointExtension xmlns:gpxtpx="http://www.garmin.com/xmlschemas/TrackPointExtension/v1">
            <gpxtpx:hr>133</gpxtpx:hr>
          </gpxtpx:TrackPointExtension>
        </extensions>
      </trkpt>
      <trkpt lat="42.95854" lon="1.89394">
        <ele>462.6</ele>
        <time>2022-07-25T08:21:45.000Z</time>
        <extensions>
          <gpxtpx:TrackPointExtension xmlns:gpxtpx="http://www.garmin.com/xmlschemas/TrackPointExtension/v1">
            <gpxtpx:hr>133</gpxtpx:hr>
          </gpxtpx:TrackPointExtension>
        </extensions>
      </trkpt>
      <trkpt lat="42.95854" lon="1.89403">
        <ele>462.5</ele>
        <time>2022-07-25T08:21:46.000Z</time>
        <extensions>
          <gpxtpx:TrackPointExtension xmlns:gpxtpx="http://www.garmin.com/xmlschemas/TrackPointExtension/v1">
            <gpxtpx:hr>132</gpxtpx:hr>
          </gpxtpx:TrackPointExtension>
        </extensions>
      </trkpt>
      <trkpt lat="42.95852" lon="1.89413">
        <ele>462.3</ele>
        <time>2022-07-25T08:21:47.000Z</time>
        <extensions>
          <gpxtpx:TrackPointExtension xmlns:gpxtpx="http://www.garmin.com/xmlschemas/TrackPointExtension/v1">
            <gpxtpx:hr>132</gpxtpx:hr>
          </gpxtpx:TrackPointExtension>
        </extensions>
      </trkpt>
      <trkpt lat="42.95851" lon="1.89422">
        <ele>462.2</ele>
        <time>2022-07-25T08:21:48.000Z</time>
        <extensions>
          <gpxtpx:TrackPointExtension xmlns:gpxtpx="http://www.garmin.com/xmlschemas/TrackPointExtension/v1">
            <gpxtpx:hr>132</gpxtpx:hr>
          </gpxtpx:TrackPointExtension>
        </extensions>
      </trkpt>
      <trkpt lat="42.9585" lon="1.8943">
        <ele>462.1</ele>
        <time>2022-07-25T08:21:49.000Z</time>
        <extensions>
          <gpxtpx:TrackPointExtension xmlns:gpxtpx="http://www.garmin.com/xmlschemas/TrackPointExtension/v1">
            <gpxtpx:hr>131</gpxtpx:hr>
          </gpxtpx:TrackPointExtension>
        </extensions>
      </trkpt>
      <trkpt lat="42.9585" lon="1.89439">
        <ele>462</ele>
        <time>2022-07-25T08:21:50.000Z</time>
        <extensions>
          <gpxtpx:TrackPointExtension xmlns:gpxtpx="http://www.garmin.com/xmlschemas/TrackPointExtension/v1">
            <gpxtpx:hr>131</gpxtpx:hr>
          </gpxtpx:TrackPointExtension>
        </extensions>
      </trkpt>
      <trkpt lat="42.95849" lon="1.89448">
        <ele>461.9</ele>
        <time>2022-07-25T08:21:51.000Z</time>
        <extensions>
          <gpxtpx:TrackPointExtension xmlns:gpxtpx="http://www.garmin.com/xmlschemas/TrackPointExtension/v1">
            <gpxtpx:hr>131</gpxtpx:hr>
          </gpxtpx:TrackPointExtension>
        </extensions>
      </trkpt>
      <trkpt lat="42.95849" lon="1.89457">
        <ele>461.7</ele>
        <time>2022-07-25T08:21:52.000Z</time>
        <extensions>
          <gpxtpx:TrackPointExtension xmlns:gpxtpx="http://www.garmin.com/xmlschemas/TrackPointExtension/v1">
            <gpxtpx:hr>131</gpxtpx:hr>
          </gpxtpx:TrackPointExtension>
        </extensions>
      </trkpt>
      <trkpt lat="42.95848" lon="1.89466">
        <ele>461.6</ele>
        <time>2022-07-25T08:21:53.000Z</time>
        <extensions>
          <gpxtpx:TrackPointExtension xmlns:gpxtpx="http://www.garmin.com/xmlschemas/TrackPointExtension/v1">
            <gpxtpx:hr>131</gpxtpx:hr>
          </gpxtpx:TrackPointExtension>
        </extensions>
      </trkpt>
      <trkpt lat="42.95846" lon="1.89475">
        <ele>461.5</ele>
        <time>2022-07-25T08:21:54.000Z</time>
        <extensions>
          <gpxtpx:TrackPointExtension xmlns:gpxtpx="http://www.garmin.com/xmlschemas/TrackPointExtension/v1">
            <gpxtpx:hr>131</gpxtpx:hr>
          </gpxtpx:TrackPointExtension>
        </extensions>
      </trkpt>
      <trkpt lat="42.95845" lon="1.89485">
        <ele>461.3</ele>
        <time>2022-07-25T08:21:55.000Z</time>
        <extensions>
          <gpxtpx:TrackPointExtension xmlns:gpxtpx="http://www.garmin.com/xmlschemas/TrackPointExtension/v1">
            <gpxtpx:hr>131</gpxtpx:hr>
          </gpxtpx:TrackPointExtension>
        </extensions>
      </trkpt>
      <trkpt lat="42.95843" lon="1.89494">
        <ele>461.2</ele>
        <time>2022-07-25T08:21:56.000Z</time>
        <extensions>
          <gpxtpx:TrackPointExtension xmlns:gpxtpx="http://www.garmin.com/xmlschemas/TrackPointExtension/v1">
            <gpxtpx:hr>130</gpxtpx:hr>
          </gpxtpx:TrackPointExtension>
        </extensions>
      </trkpt>
      <trkpt lat="42.95842" lon="1.89504">
        <ele>461</ele>
        <time>2022-07-25T08:21:57.000Z</time>
        <extensions>
          <gpxtpx:TrackPointExtension xmlns:gpxtpx="http://www.garmin.com/xmlschemas/TrackPointExtension/v1">
            <gpxtpx:hr>130</gpxtpx:hr>
          </gpxtpx:TrackPointExtension>
        </extensions>
      </trkpt>
      <trkpt lat="42.95842" lon="1.89513">
        <ele>460.9</ele>
        <time>2022-07-25T08:21:58.000Z</time>
        <extensions>
          <gpxtpx:TrackPointExtension xmlns:gpxtpx="http://www.garmin.com/xmlschemas/TrackPointExtension/v1">
            <gpxtpx:hr>130</gpxtpx:hr>
          </gpxtpx:TrackPointExtension>
        </extensions>
      </trkpt>
      <trkpt lat="42.95842" lon="1.89522">
        <ele>460.7</ele>
        <time>2022-07-25T08:21:59.000Z</time>
        <extensions>
          <gpxtpx:TrackPointExtension xmlns:gpxtpx="http://www.garmin.com/xmlschemas/TrackPointExtension/v1">
            <gpxtpx:hr>130</gpxtpx:hr>
          </gpxtpx:TrackPointExtension>
        </extensions>
      </trkpt>
      <trkpt lat="42.95839" lon="1.89534">
        <ele>460.5</ele>
        <time>2022-07-25T08:22:00.000Z</time>
        <extensions>
          <gpxtpx:TrackPointExtension xmlns:gpxtpx="http://www.garmin.com/xmlschemas/TrackPointExtension/v1">
            <gpxtpx:hr>130</gpxtpx:hr>
          </gpxtpx:TrackPointExtension>
        </extensions>
      </trkpt>
      <trkpt lat="42.95837" lon="1.89544">
        <ele>460.3</ele>
        <time>2022-07-25T08:22:01.000Z</time>
        <extensions>
          <gpxtpx:TrackPointExtension xmlns:gpxtpx="http://www.garmin.com/xmlschemas/TrackPointExtension/v1">
            <gpxtpx:hr>130</gpxtpx:hr>
          </gpxtpx:TrackPointExtension>
        </extensions>
      </trkpt>
      <trkpt lat="42.95835" lon="1.89555">
        <ele>460.1</ele>
        <time>2022-07-25T08:22:02.000Z</time>
        <extensions>
          <gpxtpx:TrackPointExtension xmlns:gpxtpx="http://www.garmin.com/xmlschemas/TrackPointExtension/v1">
            <gpxtpx:hr>130</gpxtpx:hr>
          </gpxtpx:TrackPointExtension>
        </extensions>
      </trkpt>
      <trkpt lat="42.95833" lon="1.89565">
        <ele>460</ele>
        <time>2022-07-25T08:22:03.000Z</time>
        <extensions>
          <gpxtpx:TrackPointExtension xmlns:gpxtpx="http://www.garmin.com/xmlschemas/TrackPointExtension/v1">
            <gpxtpx:hr>130</gpxtpx:hr>
          </gpxtpx:TrackPointExtension>
        </extensions>
      </trkpt>
      <trkpt lat="42.9583" lon="1.89574">
        <ele>459.8</ele>
        <time>2022-07-25T08:22:04.000Z</time>
        <extensions>
          <gpxtpx:TrackPointExtension xmlns:gpxtpx="http://www.garmin.com/xmlschemas/TrackPointExtension/v1">
            <gpxtpx:hr>130</gpxtpx:hr>
          </gpxtpx:TrackPointExtension>
        </extensions>
      </trkpt>
      <trkpt lat="42.95826" lon="1.89583">
        <ele>459.7</ele>
        <time>2022-07-25T08:22:05.000Z</time>
        <extensions>
          <gpxtpx:TrackPointExtension xmlns:gpxtpx="http://www.garmin.com/xmlschemas/TrackPointExtension/v1">
            <gpxtpx:hr>130</gpxtpx:hr>
          </gpxtpx:TrackPointExtension>
        </extensions>
      </trkpt>
      <trkpt lat="42.95822" lon="1.89592">
        <ele>459.6</ele>
        <time>2022-07-25T08:22:06.000Z</time>
        <extensions>
          <gpxtpx:TrackPointExtension xmlns:gpxtpx="http://www.garmin.com/xmlschemas/TrackPointExtension/v1">
            <gpxtpx:hr>130</gpxtpx:hr>
          </gpxtpx:TrackPointExtension>
        </extensions>
      </trkpt>
      <trkpt lat="42.95819" lon="1.89601">
        <ele>459.5</ele>
        <time>2022-07-25T08:22:07.000Z</time>
        <extensions>
          <gpxtpx:TrackPointExtension xmlns:gpxtpx="http://www.garmin.com/xmlschemas/TrackPointExtension/v1">
            <gpxtpx:hr>130</gpxtpx:hr>
          </gpxtpx:TrackPointExtension>
        </extensions>
      </trkpt>
      <trkpt lat="42.95815" lon="1.8961">
        <ele>459.3</ele>
        <time>2022-07-25T08:22:08.000Z</time>
        <extensions>
          <gpxtpx:TrackPointExtension xmlns:gpxtpx="http://www.garmin.com/xmlschemas/TrackPointExtension/v1">
            <gpxtpx:hr>130</gpxtpx:hr>
          </gpxtpx:TrackPointExtension>
        </extensions>
      </trkpt>
      <trkpt lat="42.95811" lon="1.89619">
        <ele>459.2</ele>
        <time>2022-07-25T08:22:09.000Z</time>
        <extensions>
          <gpxtpx:TrackPointExtension xmlns:gpxtpx="http://www.garmin.com/xmlschemas/TrackPointExtension/v1">
            <gpxtpx:hr>130</gpxtpx:hr>
          </gpxtpx:TrackPointExtension>
        </extensions>
      </trkpt>
      <trkpt lat="42.95808" lon="1.89628">
        <ele>459.1</ele>
        <time>2022-07-25T08:22:10.000Z</time>
        <extensions>
          <gpxtpx:TrackPointExtension xmlns:gpxtpx="http://www.garmin.com/xmlschemas/TrackPointExtension/v1">
            <gpxtpx:hr>130</gpxtpx:hr>
          </gpxtpx:TrackPointExtension>
        </extensions>
      </trkpt>
      <trkpt lat="42.95804" lon="1.89636">
        <ele>459</ele>
        <time>2022-07-25T08:22:11.000Z</time>
        <extensions>
          <gpxtpx:TrackPointExtension xmlns:gpxtpx="http://www.garmin.com/xmlschemas/TrackPointExtension/v1">
            <gpxtpx:hr>130</gpxtpx:hr>
          </gpxtpx:TrackPointExtension>
        </extensions>
      </trkpt>
      <trkpt lat="42.958" lon="1.89645">
        <ele>458.9</ele>
        <time>2022-07-25T08:22:12.000Z</time>
        <extensions>
          <gpxtpx:TrackPointExtension xmlns:gpxtpx="http://www.garmin.com/xmlschemas/TrackPointExtension/v1">
            <gpxtpx:hr>130</gpxtpx:hr>
          </gpxtpx:TrackPointExtension>
        </extensions>
      </trkpt>
      <trkpt lat="42.95797" lon="1.89653">
        <ele>458.8</ele>
        <time>2022-07-25T08:22:13.000Z</time>
        <extensions>
          <gpxtpx:TrackPointExtension xmlns:gpxtpx="http://www.garmin.com/xmlschemas/TrackPointExtension/v1">
            <gpxtpx:hr>130</gpxtpx:hr>
          </gpxtpx:TrackPointExtension>
        </extensions>
      </trkpt>
      <trkpt lat="42.95793" lon="1.89661">
        <ele>458.7</ele>
        <time>2022-07-25T08:22:14.000Z</time>
        <extensions>
          <gpxtpx:TrackPointExtension xmlns:gpxtpx="http://www.garmin.com/xmlschemas/TrackPointExtension/v1">
            <gpxtpx:hr>129</gpxtpx:hr>
          </gpxtpx:TrackPointExtension>
        </extensions>
      </trkpt>
      <trkpt lat="42.9579" lon="1.89669">
        <ele>458.5</ele>
        <time>2022-07-25T08:22:15.000Z</time>
        <extensions>
          <gpxtpx:TrackPointExtension xmlns:gpxtpx="http://www.garmin.com/xmlschemas/TrackPointExtension/v1">
            <gpxtpx:hr>129</gpxtpx:hr>
          </gpxtpx:TrackPointExtension>
        </extensions>
      </trkpt>
      <trkpt lat="42.95786" lon="1.89678">
        <ele>458.4</ele>
        <time>2022-07-25T08:22:16.000Z</time>
        <extensions>
          <gpxtpx:TrackPointExtension xmlns:gpxtpx="http://www.garmin.com/xmlschemas/TrackPointExtension/v1">
            <gpxtpx:hr>128</gpxtpx:hr>
          </gpxtpx:TrackPointExtension>
        </extensions>
      </trkpt>
      <trkpt lat="42.95783" lon="1.89686">
        <ele>458.3</ele>
        <time>2022-07-25T08:22:17.000Z</time>
        <extensions>
          <gpxtpx:TrackPointExtension xmlns:gpxtpx="http://www.garmin.com/xmlschemas/TrackPointExtension/v1">
            <gpxtpx:hr>128</gpxtpx:hr>
          </gpxtpx:TrackPointExtension>
        </extensions>
      </trkpt>
      <trkpt lat="42.95779" lon="1.89695">
        <ele>458.2</ele>
        <time>2022-07-25T08:22:18.000Z</time>
        <extensions>
          <gpxtpx:TrackPointExtension xmlns:gpxtpx="http://www.garmin.com/xmlschemas/TrackPointExtension/v1">
            <gpxtpx:hr>127</gpxtpx:hr>
          </gpxtpx:TrackPointExtension>
        </extensions>
      </trkpt>
      <trkpt lat="42.95775" lon="1.89705">
        <ele>458.1</ele>
        <time>2022-07-25T08:22:19.000Z</time>
        <extensions>
          <gpxtpx:TrackPointExtension xmlns:gpxtpx="http://www.garmin.com/xmlschemas/TrackPointExtension/v1">
            <gpxtpx:hr>127</gpxtpx:hr>
          </gpxtpx:TrackPointExtension>
        </extensions>
      </trkpt>
      <trkpt lat="42.95771" lon="1.89715">
        <ele>458</ele>
        <time>2022-07-25T08:22:20.000Z</time>
        <extensions>
          <gpxtpx:TrackPointExtension xmlns:gpxtpx="http://www.garmin.com/xmlschemas/TrackPointExtension/v1">
            <gpxtpx:hr>127</gpxtpx:hr>
          </gpxtpx:TrackPointExtension>
        </extensions>
      </trkpt>
      <trkpt lat="42.95767" lon="1.89724">
        <ele>457.9</ele>
        <time>2022-07-25T08:22:21.000Z</time>
        <extensions>
          <gpxtpx:TrackPointExtension xmlns:gpxtpx="http://www.garmin.com/xmlschemas/TrackPointExtension/v1">
            <gpxtpx:hr>126</gpxtpx:hr>
          </gpxtpx:TrackPointExtension>
        </extensions>
      </trkpt>
      <trkpt lat="42.95763" lon="1.89733">
        <ele>457.8</ele>
        <time>2022-07-25T08:22:22.000Z</time>
        <extensions>
          <gpxtpx:TrackPointExtension xmlns:gpxtpx="http://www.garmin.com/xmlschemas/TrackPointExtension/v1">
            <gpxtpx:hr>126</gpxtpx:hr>
          </gpxtpx:TrackPointExtension>
        </extensions>
      </trkpt>
      <trkpt lat="42.95759" lon="1.89742">
        <ele>457.7</ele>
        <time>2022-07-25T08:22:23.000Z</time>
        <extensions>
          <gpxtpx:TrackPointExtension xmlns:gpxtpx="http://www.garmin.com/xmlschemas/TrackPointExtension/v1">
            <gpxtpx:hr>126</gpxtpx:hr>
          </gpxtpx:TrackPointExtension>
        </extensions>
      </trkpt>
      <trkpt lat="42.95755" lon="1.89752">
        <ele>457.5</ele>
        <time>2022-07-25T08:22:24.000Z</time>
        <extensions>
          <gpxtpx:TrackPointExtension xmlns:gpxtpx="http://www.garmin.com/xmlschemas/TrackPointExtension/v1">
            <gpxtpx:hr>126</gpxtpx:hr>
          </gpxtpx:TrackPointExtension>
        </extensions>
      </trkpt>
      <trkpt lat="42.95751" lon="1.89762">
        <ele>457.4</ele>
        <time>2022-07-25T08:22:25.000Z</time>
        <extensions>
          <gpxtpx:TrackPointExtension xmlns:gpxtpx="http://www.garmin.com/xmlschemas/TrackPointExtension/v1">
            <gpxtpx:hr>126</gpxtpx:hr>
          </gpxtpx:TrackPointExtension>
        </extensions>
      </trkpt>
      <trkpt lat="42.95747" lon="1.89772">
        <ele>457.3</ele>
        <time>2022-07-25T08:22:26.000Z</time>
        <extensions>
          <gpxtpx:TrackPointExtension xmlns:gpxtpx="http://www.garmin.com/xmlschemas/TrackPointExtension/v1">
            <gpxtpx:hr>126</gpxtpx:hr>
          </gpxtpx:TrackPointExtension>
        </extensions>
      </trkpt>
      <trkpt lat="42.95743" lon="1.89782">
        <ele>457.1</ele>
        <time>2022-07-25T08:22:27.000Z</time>
        <extensions>
          <gpxtpx:TrackPointExtension xmlns:gpxtpx="http://www.garmin.com/xmlschemas/TrackPointExtension/v1">
            <gpxtpx:hr>126</gpxtpx:hr>
          </gpxtpx:TrackPointExtension>
        </extensions>
      </trkpt>
      <trkpt lat="42.95739" lon="1.89792">
        <ele>457</ele>
        <time>2022-07-25T08:22:28.000Z</time>
        <extensions>
          <gpxtpx:TrackPointExtension xmlns:gpxtpx="http://www.garmin.com/xmlschemas/TrackPointExtension/v1">
            <gpxtpx:hr>127</gpxtpx:hr>
          </gpxtpx:TrackPointExtension>
        </extensions>
      </trkpt>
      <trkpt lat="42.95736" lon="1.89801">
        <ele>456.9</ele>
        <time>2022-07-25T08:22:29.000Z</time>
        <extensions>
          <gpxtpx:TrackPointExtension xmlns:gpxtpx="http://www.garmin.com/xmlschemas/TrackPointExtension/v1">
            <gpxtpx:hr>127</gpxtpx:hr>
          </gpxtpx:TrackPointExtension>
        </extensions>
      </trkpt>
      <trkpt lat="42.95732" lon="1.89811">
        <ele>456.8</ele>
        <time>2022-07-25T08:22:30.000Z</time>
        <extensions>
          <gpxtpx:TrackPointExtension xmlns:gpxtpx="http://www.garmin.com/xmlschemas/TrackPointExtension/v1">
            <gpxtpx:hr>127</gpxtpx:hr>
          </gpxtpx:TrackPointExtension>
        </extensions>
      </trkpt>
      <trkpt lat="42.95728" lon="1.8982">
        <ele>456.6</ele>
        <time>2022-07-25T08:22:31.000Z</time>
        <extensions>
          <gpxtpx:TrackPointExtension xmlns:gpxtpx="http://www.garmin.com/xmlschemas/TrackPointExtension/v1">
            <gpxtpx:hr>127</gpxtpx:hr>
          </gpxtpx:TrackPointExtension>
        </extensions>
      </trkpt>
      <trkpt lat="42.95724" lon="1.89829">
        <ele>456.5</ele>
        <time>2022-07-25T08:22:32.000Z</time>
        <extensions>
          <gpxtpx:TrackPointExtension xmlns:gpxtpx="http://www.garmin.com/xmlschemas/TrackPointExtension/v1">
            <gpxtpx:hr>127</gpxtpx:hr>
          </gpxtpx:TrackPointExtension>
        </extensions>
      </trkpt>
      <trkpt lat="42.95721" lon="1.89838">
        <ele>456.3</ele>
        <time>2022-07-25T08:22:33.000Z</time>
        <extensions>
          <gpxtpx:TrackPointExtension xmlns:gpxtpx="http://www.garmin.com/xmlschemas/TrackPointExtension/v1">
            <gpxtpx:hr>127</gpxtpx:hr>
          </gpxtpx:TrackPointExtension>
        </extensions>
      </trkpt>
      <trkpt lat="42.95717" lon="1.89847">
        <ele>456.2</ele>
        <time>2022-07-25T08:22:34.000Z</time>
        <extensions>
          <gpxtpx:TrackPointExtension xmlns:gpxtpx="http://www.garmin.com/xmlschemas/TrackPointExtension/v1">
            <gpxtpx:hr>127</gpxtpx:hr>
          </gpxtpx:TrackPointExtension>
        </extensions>
      </trkpt>
      <trkpt lat="42.95713" lon="1.89857">
        <ele>456</ele>
        <time>2022-07-25T08:22:35.000Z</time>
        <extensions>
          <gpxtpx:TrackPointExtension xmlns:gpxtpx="http://www.garmin.com/xmlschemas/TrackPointExtension/v1">
            <gpxtpx:hr>126</gpxtpx:hr>
          </gpxtpx:TrackPointExtension>
        </extensions>
      </trkpt>
      <trkpt lat="42.95709" lon="1.89867">
        <ele>455.9</ele>
        <time>2022-07-25T08:22:36.000Z</time>
        <extensions>
          <gpxtpx:TrackPointExtension xmlns:gpxtpx="http://www.garmin.com/xmlschemas/TrackPointExtension/v1">
            <gpxtpx:hr>126</gpxtpx:hr>
          </gpxtpx:TrackPointExtension>
        </extensions>
      </trkpt>
      <trkpt lat="42.95705" lon="1.89877">
        <ele>455.8</ele>
        <time>2022-07-25T08:22:37.000Z</time>
        <extensions>
          <gpxtpx:TrackPointExtension xmlns:gpxtpx="http://www.garmin.com/xmlschemas/TrackPointExtension/v1">
            <gpxtpx:hr>126</gpxtpx:hr>
          </gpxtpx:TrackPointExtension>
        </extensions>
      </trkpt>
      <trkpt lat="42.95702" lon="1.89886">
        <ele>455.6</ele>
        <time>2022-07-25T08:22:38.000Z</time>
        <extensions>
          <gpxtpx:TrackPointExtension xmlns:gpxtpx="http://www.garmin.com/xmlschemas/TrackPointExtension/v1">
            <gpxtpx:hr>125</gpxtpx:hr>
          </gpxtpx:TrackPointExtension>
        </extensions>
      </trkpt>
      <trkpt lat="42.95698" lon="1.89896">
        <ele>455.5</ele>
        <time>2022-07-25T08:22:39.000Z</time>
        <extensions>
          <gpxtpx:TrackPointExtension xmlns:gpxtpx="http://www.garmin.com/xmlschemas/TrackPointExtension/v1">
            <gpxtpx:hr>125</gpxtpx:hr>
          </gpxtpx:TrackPointExtension>
        </extensions>
      </trkpt>
      <trkpt lat="42.95694" lon="1.89905">
        <ele>455.4</ele>
        <time>2022-07-25T08:22:40.000Z</time>
        <extensions>
          <gpxtpx:TrackPointExtension xmlns:gpxtpx="http://www.garmin.com/xmlschemas/TrackPointExtension/v1">
            <gpxtpx:hr>125</gpxtpx:hr>
          </gpxtpx:TrackPointExtension>
        </extensions>
      </trkpt>
      <trkpt lat="42.9569" lon="1.89915">
        <ele>455.2</ele>
        <time>2022-07-25T08:22:41.000Z</time>
        <extensions>
          <gpxtpx:TrackPointExtension xmlns:gpxtpx="http://www.garmin.com/xmlschemas/TrackPointExtension/v1">
            <gpxtpx:hr>125</gpxtpx:hr>
          </gpxtpx:TrackPointExtension>
        </extensions>
      </trkpt>
      <trkpt lat="42.95686" lon="1.89924">
        <ele>455</ele>
        <time>2022-07-25T08:22:42.000Z</time>
        <extensions>
          <gpxtpx:TrackPointExtension xmlns:gpxtpx="http://www.garmin.com/xmlschemas/TrackPointExtension/v1">
            <gpxtpx:hr>125</gpxtpx:hr>
          </gpxtpx:TrackPointExtension>
        </extensions>
      </trkpt>
      <trkpt lat="42.95683" lon="1.89934">
        <ele>454.8</ele>
        <time>2022-07-25T08:22:43.000Z</time>
        <extensions>
          <gpxtpx:TrackPointExtension xmlns:gpxtpx="http://www.garmin.com/xmlschemas/TrackPointExtension/v1">
            <gpxtpx:hr>125</gpxtpx:hr>
          </gpxtpx:TrackPointExtension>
        </extensions>
      </trkpt>
      <trkpt lat="42.95679" lon="1.89943">
        <ele>454.7</ele>
        <time>2022-07-25T08:22:44.000Z</time>
        <extensions>
          <gpxtpx:TrackPointExtension xmlns:gpxtpx="http://www.garmin.com/xmlschemas/TrackPointExtension/v1">
            <gpxtpx:hr>125</gpxtpx:hr>
          </gpxtpx:TrackPointExtension>
        </extensions>
      </trkpt>
      <trkpt lat="42.95675" lon="1.89953">
        <ele>454.5</ele>
        <time>2022-07-25T08:22:45.000Z</time>
        <extensions>
          <gpxtpx:TrackPointExtension xmlns:gpxtpx="http://www.garmin.com/xmlschemas/TrackPointExtension/v1">
            <gpxtpx:hr>125</gpxtpx:hr>
          </gpxtpx:TrackPointExtension>
        </extensions>
      </trkpt>
      <trkpt lat="42.95671" lon="1.89963">
        <ele>454.3</ele>
        <time>2022-07-25T08:22:46.000Z</time>
        <extensions>
          <gpxtpx:TrackPointExtension xmlns:gpxtpx="http://www.garmin.com/xmlschemas/TrackPointExtension/v1">
            <gpxtpx:hr>125</gpxtpx:hr>
          </gpxtpx:TrackPointExtension>
        </extensions>
      </trkpt>
      <trkpt lat="42.95667" lon="1.89974">
        <ele>454.1</ele>
        <time>2022-07-25T08:22:47.000Z</time>
        <extensions>
          <gpxtpx:TrackPointExtension xmlns:gpxtpx="http://www.garmin.com/xmlschemas/TrackPointExtension/v1">
            <gpxtpx:hr>125</gpxtpx:hr>
          </gpxtpx:TrackPointExtension>
        </extensions>
      </trkpt>
      <trkpt lat="42.95663" lon="1.89984">
        <ele>454</ele>
        <time>2022-07-25T08:22:48.000Z</time>
        <extensions>
          <gpxtpx:TrackPointExtension xmlns:gpxtpx="http://www.garmin.com/xmlschemas/TrackPointExtension/v1">
            <gpxtpx:hr>125</gpxtpx:hr>
          </gpxtpx:TrackPointExtension>
        </extensions>
      </trkpt>
      <trkpt lat="42.9566" lon="1.89993">
        <ele>453.8</ele>
        <time>2022-07-25T08:22:49.000Z</time>
        <extensions>
          <gpxtpx:TrackPointExtension xmlns:gpxtpx="http://www.garmin.com/xmlschemas/TrackPointExtension/v1">
            <gpxtpx:hr>125</gpxtpx:hr>
          </gpxtpx:TrackPointExtension>
        </extensions>
      </trkpt>
      <trkpt lat="42.95656" lon="1.90003">
        <ele>453.7</ele>
        <time>2022-07-25T08:22:50.000Z</time>
        <extensions>
          <gpxtpx:TrackPointExtension xmlns:gpxtpx="http://www.garmin.com/xmlschemas/TrackPointExtension/v1">
            <gpxtpx:hr>126</gpxtpx:hr>
          </gpxtpx:TrackPointExtension>
        </extensions>
      </trkpt>
      <trkpt lat="42.95652" lon="1.90013">
        <ele>453.5</ele>
        <time>2022-07-25T08:22:51.000Z</time>
        <extensions>
          <gpxtpx:TrackPointExtension xmlns:gpxtpx="http://www.garmin.com/xmlschemas/TrackPointExtension/v1">
            <gpxtpx:hr>126</gpxtpx:hr>
          </gpxtpx:TrackPointExtension>
        </extensions>
      </trkpt>
      <trkpt lat="42.95648" lon="1.90023">
        <ele>453.4</ele>
        <time>2022-07-25T08:22:52.000Z</time>
        <extensions>
          <gpxtpx:TrackPointExtension xmlns:gpxtpx="http://www.garmin.com/xmlschemas/TrackPointExtension/v1">
            <gpxtpx:hr>126</gpxtpx:hr>
          </gpxtpx:TrackPointExtension>
        </extensions>
      </trkpt>
      <trkpt lat="42.95644" lon="1.90032">
        <ele>453.3</ele>
        <time>2022-07-25T08:22:53.000Z</time>
        <extensions>
          <gpxtpx:TrackPointExtension xmlns:gpxtpx="http://www.garmin.com/xmlschemas/TrackPointExtension/v1">
            <gpxtpx:hr>127</gpxtpx:hr>
          </gpxtpx:TrackPointExtension>
        </extensions>
      </trkpt>
      <trkpt lat="42.9564" lon="1.90042">
        <ele>453.1</ele>
        <time>2022-07-25T08:22:54.000Z</time>
        <extensions>
          <gpxtpx:TrackPointExtension xmlns:gpxtpx="http://www.garmin.com/xmlschemas/TrackPointExtension/v1">
            <gpxtpx:hr>127</gpxtpx:hr>
          </gpxtpx:TrackPointExtension>
        </extensions>
      </trkpt>
      <trkpt lat="42.95637" lon="1.90051">
        <ele>453</ele>
        <time>2022-07-25T08:22:55.000Z</time>
        <extensions>
          <gpxtpx:TrackPointExtension xmlns:gpxtpx="http://www.garmin.com/xmlschemas/TrackPointExtension/v1">
            <gpxtpx:hr>127</gpxtpx:hr>
          </gpxtpx:TrackPointExtension>
        </extensions>
      </trkpt>
      <trkpt lat="42.95633" lon="1.9006">
        <ele>452.9</ele>
        <time>2022-07-25T08:22:56.000Z</time>
        <extensions>
          <gpxtpx:TrackPointExtension xmlns:gpxtpx="http://www.garmin.com/xmlschemas/TrackPointExtension/v1">
            <gpxtpx:hr>127</gpxtpx:hr>
          </gpxtpx:TrackPointExtension>
        </extensions>
      </trkpt>
      <trkpt lat="42.9563" lon="1.90068">
        <ele>452.8</ele>
        <time>2022-07-25T08:22:57.000Z</time>
        <extensions>
          <gpxtpx:TrackPointExtension xmlns:gpxtpx="http://www.garmin.com/xmlschemas/TrackPointExtension/v1">
            <gpxtpx:hr>127</gpxtpx:hr>
          </gpxtpx:TrackPointExtension>
        </extensions>
      </trkpt>
      <trkpt lat="42.95626" lon="1.90078">
        <ele>452.7</ele>
        <time>2022-07-25T08:22:58.000Z</time>
        <extensions>
          <gpxtpx:TrackPointExtension xmlns:gpxtpx="http://www.garmin.com/xmlschemas/TrackPointExtension/v1">
            <gpxtpx:hr>127</gpxtpx:hr>
          </gpxtpx:TrackPointExtension>
        </extensions>
      </trkpt>
      <trkpt lat="42.95622" lon="1.90086">
        <ele>452.6</ele>
        <time>2022-07-25T08:22:59.000Z</time>
        <extensions>
          <gpxtpx:TrackPointExtension xmlns:gpxtpx="http://www.garmin.com/xmlschemas/TrackPointExtension/v1">
            <gpxtpx:hr>127</gpxtpx:hr>
          </gpxtpx:TrackPointExtension>
        </extensions>
      </trkpt>
      <trkpt lat="42.95619" lon="1.90096">
        <ele>452.4</ele>
        <time>2022-07-25T08:23:00.000Z</time>
        <extensions>
          <gpxtpx:TrackPointExtension xmlns:gpxtpx="http://www.garmin.com/xmlschemas/TrackPointExtension/v1">
            <gpxtpx:hr>126</gpxtpx:hr>
          </gpxtpx:TrackPointExtension>
        </extensions>
      </trkpt>
      <trkpt lat="42.95615" lon="1.90105">
        <ele>452.3</ele>
        <time>2022-07-25T08:23:01.000Z</time>
        <extensions>
          <gpxtpx:TrackPointExtension xmlns:gpxtpx="http://www.garmin.com/xmlschemas/TrackPointExtension/v1">
            <gpxtpx:hr>126</gpxtpx:hr>
          </gpxtpx:TrackPointExtension>
        </extensions>
      </trkpt>
      <trkpt lat="42.95612" lon="1.90113">
        <ele>452.2</ele>
        <time>2022-07-25T08:23:02.000Z</time>
        <extensions>
          <gpxtpx:TrackPointExtension xmlns:gpxtpx="http://www.garmin.com/xmlschemas/TrackPointExtension/v1">
            <gpxtpx:hr>126</gpxtpx:hr>
          </gpxtpx:TrackPointExtension>
        </extensions>
      </trkpt>
      <trkpt lat="42.95608" lon="1.90122">
        <ele>452</ele>
        <time>2022-07-25T08:23:03.000Z</time>
        <extensions>
          <gpxtpx:TrackPointExtension xmlns:gpxtpx="http://www.garmin.com/xmlschemas/TrackPointExtension/v1">
            <gpxtpx:hr>125</gpxtpx:hr>
          </gpxtpx:TrackPointExtension>
        </extensions>
      </trkpt>
      <trkpt lat="42.95605" lon="1.9013">
        <ele>451.9</ele>
        <time>2022-07-25T08:23:04.000Z</time>
        <extensions>
          <gpxtpx:TrackPointExtension xmlns:gpxtpx="http://www.garmin.com/xmlschemas/TrackPointExtension/v1">
            <gpxtpx:hr>125</gpxtpx:hr>
          </gpxtpx:TrackPointExtension>
        </extensions>
      </trkpt>
      <trkpt lat="42.95602" lon="1.90138">
        <ele>451.7</ele>
        <time>2022-07-25T08:23:05.000Z</time>
        <extensions>
          <gpxtpx:TrackPointExtension xmlns:gpxtpx="http://www.garmin.com/xmlschemas/TrackPointExtension/v1">
            <gpxtpx:hr>125</gpxtpx:hr>
          </gpxtpx:TrackPointExtension>
        </extensions>
      </trkpt>
      <trkpt lat="42.95599" lon="1.90146">
        <ele>451.6</ele>
        <time>2022-07-25T08:23:06.000Z</time>
        <extensions>
          <gpxtpx:TrackPointExtension xmlns:gpxtpx="http://www.garmin.com/xmlschemas/TrackPointExtension/v1">
            <gpxtpx:hr>124</gpxtpx:hr>
          </gpxtpx:TrackPointExtension>
        </extensions>
      </trkpt>
      <trkpt lat="42.95596" lon="1.90155">
        <ele>451.5</ele>
        <time>2022-07-25T08:23:07.000Z</time>
        <extensions>
          <gpxtpx:TrackPointExtension xmlns:gpxtpx="http://www.garmin.com/xmlschemas/TrackPointExtension/v1">
            <gpxtpx:hr>124</gpxtpx:hr>
          </gpxtpx:TrackPointExtension>
        </extensions>
      </trkpt>
      <trkpt lat="42.95593" lon="1.90163">
        <ele>451.3</ele>
        <time>2022-07-25T08:23:08.000Z</time>
        <extensions>
          <gpxtpx:TrackPointExtension xmlns:gpxtpx="http://www.garmin.com/xmlschemas/TrackPointExtension/v1">
            <gpxtpx:hr>124</gpxtpx:hr>
          </gpxtpx:TrackPointExtension>
        </extensions>
      </trkpt>
      <trkpt lat="42.95589" lon="1.90171">
        <ele>451.2</ele>
        <time>2022-07-25T08:23:09.000Z</time>
        <extensions>
          <gpxtpx:TrackPointExtension xmlns:gpxtpx="http://www.garmin.com/xmlschemas/TrackPointExtension/v1">
            <gpxtpx:hr>124</gpxtpx:hr>
          </gpxtpx:TrackPointExtension>
        </extensions>
      </trkpt>
      <trkpt lat="42.95586" lon="1.9018">
        <ele>451.1</ele>
        <time>2022-07-25T08:23:10.000Z</time>
        <extensions>
          <gpxtpx:TrackPointExtension xmlns:gpxtpx="http://www.garmin.com/xmlschemas/TrackPointExtension/v1">
            <gpxtpx:hr>124</gpxtpx:hr>
          </gpxtpx:TrackPointExtension>
        </extensions>
      </trkpt>
      <trkpt lat="42.95583" lon="1.90188">
        <ele>451</ele>
        <time>2022-07-25T08:23:11.000Z</time>
        <extensions>
          <gpxtpx:TrackPointExtension xmlns:gpxtpx="http://www.garmin.com/xmlschemas/TrackPointExtension/v1">
            <gpxtpx:hr>123</gpxtpx:hr>
          </gpxtpx:TrackPointExtension>
        </extensions>
      </trkpt>
      <trkpt lat="42.9558" lon="1.90196">
        <ele>450.9</ele>
        <time>2022-07-25T08:23:12.000Z</time>
        <extensions>
          <gpxtpx:TrackPointExtension xmlns:gpxtpx="http://www.garmin.com/xmlschemas/TrackPointExtension/v1">
            <gpxtpx:hr>123</gpxtpx:hr>
          </gpxtpx:TrackPointExtension>
        </extensions>
      </trkpt>
      <trkpt lat="42.95577" lon="1.90204">
        <ele>450.8</ele>
        <time>2022-07-25T08:23:13.000Z</time>
        <extensions>
          <gpxtpx:TrackPointExtension xmlns:gpxtpx="http://www.garmin.com/xmlschemas/TrackPointExtension/v1">
            <gpxtpx:hr>123</gpxtpx:hr>
          </gpxtpx:TrackPointExtension>
        </extensions>
      </trkpt>
      <trkpt lat="42.95574" lon="1.90213">
        <ele>450.7</ele>
        <time>2022-07-25T08:23:14.000Z</time>
        <extensions>
          <gpxtpx:TrackPointExtension xmlns:gpxtpx="http://www.garmin.com/xmlschemas/TrackPointExtension/v1">
            <gpxtpx:hr>123</gpxtpx:hr>
          </gpxtpx:TrackPointExtension>
        </extensions>
      </trkpt>
      <trkpt lat="42.95571" lon="1.90221">
        <ele>450.5</ele>
        <time>2022-07-25T08:23:15.000Z</time>
        <extensions>
          <gpxtpx:TrackPointExtension xmlns:gpxtpx="http://www.garmin.com/xmlschemas/TrackPointExtension/v1">
            <gpxtpx:hr>123</gpxtpx:hr>
          </gpxtpx:TrackPointExtension>
        </extensions>
      </trkpt>
      <trkpt lat="42.95568" lon="1.90229">
        <ele>450.4</ele>
        <time>2022-07-25T08:23:16.000Z</time>
        <extensions>
          <gpxtpx:TrackPointExtension xmlns:gpxtpx="http://www.garmin.com/xmlschemas/TrackPointExtension/v1">
            <gpxtpx:hr>123</gpxtpx:hr>
          </gpxtpx:TrackPointExtension>
        </extensions>
      </trkpt>
      <trkpt lat="42.95565" lon="1.90238">
        <ele>450.3</ele>
        <time>2022-07-25T08:23:17.000Z</time>
        <extensions>
          <gpxtpx:TrackPointExtension xmlns:gpxtpx="http://www.garmin.com/xmlschemas/TrackPointExtension/v1">
            <gpxtpx:hr>123</gpxtpx:hr>
          </gpxtpx:TrackPointExtension>
        </extensions>
      </trkpt>
      <trkpt lat="42.95562" lon="1.90248">
        <ele>450.1</ele>
        <time>2022-07-25T08:23:18.000Z</time>
        <extensions>
          <gpxtpx:TrackPointExtension xmlns:gpxtpx="http://www.garmin.com/xmlschemas/TrackPointExtension/v1">
            <gpxtpx:hr>124</gpxtpx:hr>
          </gpxtpx:TrackPointExtension>
        </extensions>
      </trkpt>
      <trkpt lat="42.9556" lon="1.90258">
        <ele>450</ele>
        <time>2022-07-25T08:23:19.000Z</time>
        <extensions>
          <gpxtpx:TrackPointExtension xmlns:gpxtpx="http://www.garmin.com/xmlschemas/TrackPointExtension/v1">
            <gpxtpx:hr>124</gpxtpx:hr>
          </gpxtpx:TrackPointExtension>
        </extensions>
      </trkpt>
      <trkpt lat="42.95558" lon="1.90266">
        <ele>449.9</ele>
        <time>2022-07-25T08:23:20.000Z</time>
        <extensions>
          <gpxtpx:TrackPointExtension xmlns:gpxtpx="http://www.garmin.com/xmlschemas/TrackPointExtension/v1">
            <gpxtpx:hr>124</gpxtpx:hr>
          </gpxtpx:TrackPointExtension>
        </extensions>
      </trkpt>
      <trkpt lat="42.95556" lon="1.90276">
        <ele>449.7</ele>
        <time>2022-07-25T08:23:21.000Z</time>
        <extensions>
          <gpxtpx:TrackPointExtension xmlns:gpxtpx="http://www.garmin.com/xmlschemas/TrackPointExtension/v1">
            <gpxtpx:hr>124</gpxtpx:hr>
          </gpxtpx:TrackPointExtension>
        </extensions>
      </trkpt>
      <trkpt lat="42.95554" lon="1.90285">
        <ele>449.6</ele>
        <time>2022-07-25T08:23:22.000Z</time>
        <extensions>
          <gpxtpx:TrackPointExtension xmlns:gpxtpx="http://www.garmin.com/xmlschemas/TrackPointExtension/v1">
            <gpxtpx:hr>124</gpxtpx:hr>
          </gpxtpx:TrackPointExtension>
        </extensions>
      </trkpt>
      <trkpt lat="42.95552" lon="1.90295">
        <ele>449.5</ele>
        <time>2022-07-25T08:23:23.000Z</time>
        <extensions>
          <gpxtpx:TrackPointExtension xmlns:gpxtpx="http://www.garmin.com/xmlschemas/TrackPointExtension/v1">
            <gpxtpx:hr>124</gpxtpx:hr>
          </gpxtpx:TrackPointExtension>
        </extensions>
      </trkpt>
      <trkpt lat="42.9555" lon="1.90306">
        <ele>449.4</ele>
        <time>2022-07-25T08:23:24.000Z</time>
        <extensions>
          <gpxtpx:TrackPointExtension xmlns:gpxtpx="http://www.garmin.com/xmlschemas/TrackPointExtension/v1">
            <gpxtpx:hr>124</gpxtpx:hr>
          </gpxtpx:TrackPointExtension>
        </extensions>
      </trkpt>
      <trkpt lat="42.95548" lon="1.90317">
        <ele>449.3</ele>
        <time>2022-07-25T08:23:25.000Z</time>
        <extensions>
          <gpxtpx:TrackPointExtension xmlns:gpxtpx="http://www.garmin.com/xmlschemas/TrackPointExtension/v1">
            <gpxtpx:hr>124</gpxtpx:hr>
          </gpxtpx:TrackPointExtension>
        </extensions>
      </trkpt>
      <trkpt lat="42.95546" lon="1.90327">
        <ele>449.2</ele>
        <time>2022-07-25T08:23:26.000Z</time>
        <extensions>
          <gpxtpx:TrackPointExtension xmlns:gpxtpx="http://www.garmin.com/xmlschemas/TrackPointExtension/v1">
            <gpxtpx:hr>124</gpxtpx:hr>
          </gpxtpx:TrackPointExtension>
        </extensions>
      </trkpt>
      <trkpt lat="42.95544" lon="1.90337">
        <ele>449</ele>
        <time>2022-07-25T08:23:27.000Z</time>
        <extensions>
          <gpxtpx:TrackPointExtension xmlns:gpxtpx="http://www.garmin.com/xmlschemas/TrackPointExtension/v1">
            <gpxtpx:hr>124</gpxtpx:hr>
          </gpxtpx:TrackPointExtension>
        </extensions>
      </trkpt>
      <trkpt lat="42.95543" lon="1.90347">
        <ele>448.9</ele>
        <time>2022-07-25T08:23:28.000Z</time>
        <extensions>
          <gpxtpx:TrackPointExtension xmlns:gpxtpx="http://www.garmin.com/xmlschemas/TrackPointExtension/v1">
            <gpxtpx:hr>124</gpxtpx:hr>
          </gpxtpx:TrackPointExtension>
        </extensions>
      </trkpt>
      <trkpt lat="42.95542" lon="1.90357">
        <ele>448.8</ele>
        <time>2022-07-25T08:23:29.000Z</time>
        <extensions>
          <gpxtpx:TrackPointExtension xmlns:gpxtpx="http://www.garmin.com/xmlschemas/TrackPointExtension/v1">
            <gpxtpx:hr>124</gpxtpx:hr>
          </gpxtpx:TrackPointExtension>
        </extensions>
      </trkpt>
      <trkpt lat="42.95541" lon="1.90367">
        <ele>448.7</ele>
        <time>2022-07-25T08:23:30.000Z</time>
        <extensions>
          <gpxtpx:TrackPointExtension xmlns:gpxtpx="http://www.garmin.com/xmlschemas/TrackPointExtension/v1">
            <gpxtpx:hr>124</gpxtpx:hr>
          </gpxtpx:TrackPointExtension>
        </extensions>
      </trkpt>
      <trkpt lat="42.9554" lon="1.90379">
        <ele>448.6</ele>
        <time>2022-07-25T08:23:31.000Z</time>
        <extensions>
          <gpxtpx:TrackPointExtension xmlns:gpxtpx="http://www.garmin.com/xmlschemas/TrackPointExtension/v1">
            <gpxtpx:hr>124</gpxtpx:hr>
          </gpxtpx:TrackPointExtension>
        </extensions>
      </trkpt>
      <trkpt lat="42.95539" lon="1.90391">
        <ele>448.4</ele>
        <time>2022-07-25T08:23:32.000Z</time>
        <extensions>
          <gpxtpx:TrackPointExtension xmlns:gpxtpx="http://www.garmin.com/xmlschemas/TrackPointExtension/v1">
            <gpxtpx:hr>124</gpxtpx:hr>
          </gpxtpx:TrackPointExtension>
        </extensions>
      </trkpt>
      <trkpt lat="42.95538" lon="1.90402">
        <ele>448.2</ele>
        <time>2022-07-25T08:23:33.000Z</time>
        <extensions>
          <gpxtpx:TrackPointExtension xmlns:gpxtpx="http://www.garmin.com/xmlschemas/TrackPointExtension/v1">
            <gpxtpx:hr>124</gpxtpx:hr>
          </gpxtpx:TrackPointExtension>
        </extensions>
      </trkpt>
      <trkpt lat="42.95537" lon="1.90413">
        <ele>448.1</ele>
        <time>2022-07-25T08:23:34.000Z</time>
        <extensions>
          <gpxtpx:TrackPointExtension xmlns:gpxtpx="http://www.garmin.com/xmlschemas/TrackPointExtension/v1">
            <gpxtpx:hr>124</gpxtpx:hr>
          </gpxtpx:TrackPointExtension>
        </extensions>
      </trkpt>
      <trkpt lat="42.95537" lon="1.90424">
        <ele>447.9</ele>
        <time>2022-07-25T08:23:35.000Z</time>
        <extensions>
          <gpxtpx:TrackPointExtension xmlns:gpxtpx="http://www.garmin.com/xmlschemas/TrackPointExtension/v1">
            <gpxtpx:hr>124</gpxtpx:hr>
          </gpxtpx:TrackPointExtension>
        </extensions>
      </trkpt>
      <trkpt lat="42.95538" lon="1.90434">
        <ele>447.8</ele>
        <time>2022-07-25T08:23:36.000Z</time>
        <extensions>
          <gpxtpx:TrackPointExtension xmlns:gpxtpx="http://www.garmin.com/xmlschemas/TrackPointExtension/v1">
            <gpxtpx:hr>124</gpxtpx:hr>
          </gpxtpx:TrackPointExtension>
        </extensions>
      </trkpt>
      <trkpt lat="42.95537" lon="1.90444">
        <ele>447.6</ele>
        <time>2022-07-25T08:23:37.000Z</time>
        <extensions>
          <gpxtpx:TrackPointExtension xmlns:gpxtpx="http://www.garmin.com/xmlschemas/TrackPointExtension/v1">
            <gpxtpx:hr>124</gpxtpx:hr>
          </gpxtpx:TrackPointExtension>
        </extensions>
      </trkpt>
      <trkpt lat="42.95537" lon="1.90455">
        <ele>447.5</ele>
        <time>2022-07-25T08:23:38.000Z</time>
        <extensions>
          <gpxtpx:TrackPointExtension xmlns:gpxtpx="http://www.garmin.com/xmlschemas/TrackPointExtension/v1">
            <gpxtpx:hr>124</gpxtpx:hr>
          </gpxtpx:TrackPointExtension>
        </extensions>
      </trkpt>
      <trkpt lat="42.95537" lon="1.90465">
        <ele>447.4</ele>
        <time>2022-07-25T08:23:39.000Z</time>
        <extensions>
          <gpxtpx:TrackPointExtension xmlns:gpxtpx="http://www.garmin.com/xmlschemas/TrackPointExtension/v1">
            <gpxtpx:hr>124</gpxtpx:hr>
          </gpxtpx:TrackPointExtension>
        </extensions>
      </trkpt>
      <trkpt lat="42.95538" lon="1.90476">
        <ele>447.2</ele>
        <time>2022-07-25T08:23:40.000Z</time>
        <extensions>
          <gpxtpx:TrackPointExtension xmlns:gpxtpx="http://www.garmin.com/xmlschemas/TrackPointExtension/v1">
            <gpxtpx:hr>124</gpxtpx:hr>
          </gpxtpx:TrackPointExtension>
        </extensions>
      </trkpt>
      <trkpt lat="42.95538" lon="1.90485">
        <ele>447.1</ele>
        <time>2022-07-25T08:23:41.000Z</time>
        <extensions>
          <gpxtpx:TrackPointExtension xmlns:gpxtpx="http://www.garmin.com/xmlschemas/TrackPointExtension/v1">
            <gpxtpx:hr>124</gpxtpx:hr>
          </gpxtpx:TrackPointExtension>
        </extensions>
      </trkpt>
      <trkpt lat="42.95539" lon="1.90493">
        <ele>447</ele>
        <time>2022-07-25T08:23:42.000Z</time>
        <extensions>
          <gpxtpx:TrackPointExtension xmlns:gpxtpx="http://www.garmin.com/xmlschemas/TrackPointExtension/v1">
            <gpxtpx:hr>124</gpxtpx:hr>
          </gpxtpx:TrackPointExtension>
        </extensions>
      </trkpt>
      <trkpt lat="42.95538" lon="1.905">
        <ele>446.9</ele>
        <time>2022-07-25T08:23:43.000Z</time>
        <extensions>
          <gpxtpx:TrackPointExtension xmlns:gpxtpx="http://www.garmin.com/xmlschemas/TrackPointExtension/v1">
            <gpxtpx:hr>124</gpxtpx:hr>
          </gpxtpx:TrackPointExtension>
        </extensions>
      </trkpt>
      <trkpt lat="42.95532" lon="1.90507">
        <ele>446.7</ele>
        <time>2022-07-25T08:23:45.000Z</time>
        <extensions>
          <gpxtpx:TrackPointExtension xmlns:gpxtpx="http://www.garmin.com/xmlschemas/TrackPointExtension/v1">
            <gpxtpx:hr>124</gpxtpx:hr>
          </gpxtpx:TrackPointExtension>
        </extensions>
      </trkpt>
      <trkpt lat="42.95528" lon="1.9051">
        <ele>446.6</ele>
        <time>2022-07-25T08:23:46.000Z</time>
        <extensions>
          <gpxtpx:TrackPointExtension xmlns:gpxtpx="http://www.garmin.com/xmlschemas/TrackPointExtension/v1">
            <gpxtpx:hr>124</gpxtpx:hr>
          </gpxtpx:TrackPointExtension>
        </extensions>
      </trkpt>
      <trkpt lat="42.95522" lon="1.90514">
        <ele>446.6</ele>
        <time>2022-07-25T08:23:47.000Z</time>
        <extensions>
          <gpxtpx:TrackPointExtension xmlns:gpxtpx="http://www.garmin.com/xmlschemas/TrackPointExtension/v1">
            <gpxtpx:hr>124</gpxtpx:hr>
          </gpxtpx:TrackPointExtension>
        </extensions>
      </trkpt>
      <trkpt lat="42.95517" lon="1.90519">
        <ele>446.4</ele>
        <time>2022-07-25T08:23:48.000Z</time>
        <extensions>
          <gpxtpx:TrackPointExtension xmlns:gpxtpx="http://www.garmin.com/xmlschemas/TrackPointExtension/v1">
            <gpxtpx:hr>124</gpxtpx:hr>
          </gpxtpx:TrackPointExtension>
        </extensions>
      </trkpt>
      <trkpt lat="42.9551" lon="1.90525">
        <ele>446.3</ele>
        <time>2022-07-25T08:23:49.000Z</time>
        <extensions>
          <gpxtpx:TrackPointExtension xmlns:gpxtpx="http://www.garmin.com/xmlschemas/TrackPointExtension/v1">
            <gpxtpx:hr>124</gpxtpx:hr>
          </gpxtpx:TrackPointExtension>
        </extensions>
      </trkpt>
      <trkpt lat="42.95504" lon="1.90533">
        <ele>446.2</ele>
        <time>2022-07-25T08:23:50.000Z</time>
        <extensions>
          <gpxtpx:TrackPointExtension xmlns:gpxtpx="http://www.garmin.com/xmlschemas/TrackPointExtension/v1">
            <gpxtpx:hr>124</gpxtpx:hr>
          </gpxtpx:TrackPointExtension>
        </extensions>
      </trkpt>
      <trkpt lat="42.95498" lon="1.90543">
        <ele>446.1</ele>
        <time>2022-07-25T08:23:51.000Z</time>
        <extensions>
          <gpxtpx:TrackPointExtension xmlns:gpxtpx="http://www.garmin.com/xmlschemas/TrackPointExtension/v1">
            <gpxtpx:hr>125</gpxtpx:hr>
          </gpxtpx:TrackPointExtension>
        </extensions>
      </trkpt>
      <trkpt lat="42.95493" lon="1.90555">
        <ele>445.9</ele>
        <time>2022-07-25T08:23:52.000Z</time>
        <extensions>
          <gpxtpx:TrackPointExtension xmlns:gpxtpx="http://www.garmin.com/xmlschemas/TrackPointExtension/v1">
            <gpxtpx:hr>125</gpxtpx:hr>
          </gpxtpx:TrackPointExtension>
        </extensions>
      </trkpt>
      <trkpt lat="42.9549" lon="1.90567">
        <ele>445.8</ele>
        <time>2022-07-25T08:23:53.000Z</time>
        <extensions>
          <gpxtpx:TrackPointExtension xmlns:gpxtpx="http://www.garmin.com/xmlschemas/TrackPointExtension/v1">
            <gpxtpx:hr>126</gpxtpx:hr>
          </gpxtpx:TrackPointExtension>
        </extensions>
      </trkpt>
      <trkpt lat="42.95489" lon="1.90581">
        <ele>445.5</ele>
        <time>2022-07-25T08:23:54.000Z</time>
        <extensions>
          <gpxtpx:TrackPointExtension xmlns:gpxtpx="http://www.garmin.com/xmlschemas/TrackPointExtension/v1">
            <gpxtpx:hr>127</gpxtpx:hr>
          </gpxtpx:TrackPointExtension>
        </extensions>
      </trkpt>
      <trkpt lat="42.9549" lon="1.90595">
        <ele>445.3</ele>
        <time>2022-07-25T08:23:55.000Z</time>
        <extensions>
          <gpxtpx:TrackPointExtension xmlns:gpxtpx="http://www.garmin.com/xmlschemas/TrackPointExtension/v1">
            <gpxtpx:hr>127</gpxtpx:hr>
          </gpxtpx:TrackPointExtension>
        </extensions>
      </trkpt>
      <trkpt lat="42.95492" lon="1.90609">
        <ele>445.1</ele>
        <time>2022-07-25T08:23:56.000Z</time>
        <extensions>
          <gpxtpx:TrackPointExtension xmlns:gpxtpx="http://www.garmin.com/xmlschemas/TrackPointExtension/v1">
            <gpxtpx:hr>128</gpxtpx:hr>
          </gpxtpx:TrackPointExtension>
        </extensions>
      </trkpt>
      <trkpt lat="42.95497" lon="1.90623">
        <ele>444.8</ele>
        <time>2022-07-25T08:23:57.000Z</time>
        <extensions>
          <gpxtpx:TrackPointExtension xmlns:gpxtpx="http://www.garmin.com/xmlschemas/TrackPointExtension/v1">
            <gpxtpx:hr>129</gpxtpx:hr>
          </gpxtpx:TrackPointExtension>
        </extensions>
      </trkpt>
      <trkpt lat="42.95503" lon="1.90637">
        <ele>444.5</ele>
        <time>2022-07-25T08:23:58.000Z</time>
        <extensions>
          <gpxtpx:TrackPointExtension xmlns:gpxtpx="http://www.garmin.com/xmlschemas/TrackPointExtension/v1">
            <gpxtpx:hr>130</gpxtpx:hr>
          </gpxtpx:TrackPointExtension>
        </extensions>
      </trkpt>
      <trkpt lat="42.95509" lon="1.90651">
        <ele>444.2</ele>
        <time>2022-07-25T08:23:59.000Z</time>
        <extensions>
          <gpxtpx:TrackPointExtension xmlns:gpxtpx="http://www.garmin.com/xmlschemas/TrackPointExtension/v1">
            <gpxtpx:hr>131</gpxtpx:hr>
          </gpxtpx:TrackPointExtension>
        </extensions>
      </trkpt>
      <trkpt lat="42.95515" lon="1.90665">
        <ele>443.9</ele>
        <time>2022-07-25T08:24:00.000Z</time>
        <extensions>
          <gpxtpx:TrackPointExtension xmlns:gpxtpx="http://www.garmin.com/xmlschemas/TrackPointExtension/v1">
            <gpxtpx:hr>131</gpxtpx:hr>
          </gpxtpx:TrackPointExtension>
        </extensions>
      </trkpt>
      <trkpt lat="42.95521" lon="1.90679">
        <ele>443.5</ele>
        <time>2022-07-25T08:24:01.000Z</time>
        <extensions>
          <gpxtpx:TrackPointExtension xmlns:gpxtpx="http://www.garmin.com/xmlschemas/TrackPointExtension/v1">
            <gpxtpx:hr>131</gpxtpx:hr>
          </gpxtpx:TrackPointExtension>
        </extensions>
      </trkpt>
      <trkpt lat="42.95526" lon="1.90694">
        <ele>443.3</ele>
        <time>2022-07-25T08:24:02.000Z</time>
        <extensions>
          <gpxtpx:TrackPointExtension xmlns:gpxtpx="http://www.garmin.com/xmlschemas/TrackPointExtension/v1">
            <gpxtpx:hr>133</gpxtpx:hr>
          </gpxtpx:TrackPointExtension>
        </extensions>
      </trkpt>
      <trkpt lat="42.95532" lon="1.90709">
        <ele>442.9</ele>
        <time>2022-07-25T08:24:03.000Z</time>
        <extensions>
          <gpxtpx:TrackPointExtension xmlns:gpxtpx="http://www.garmin.com/xmlschemas/TrackPointExtension/v1">
            <gpxtpx:hr>134</gpxtpx:hr>
          </gpxtpx:TrackPointExtension>
        </extensions>
      </trkpt>
      <trkpt lat="42.95537" lon="1.90724">
        <ele>442.6</ele>
        <time>2022-07-25T08:24:04.000Z</time>
        <extensions>
          <gpxtpx:TrackPointExtension xmlns:gpxtpx="http://www.garmin.com/xmlschemas/TrackPointExtension/v1">
            <gpxtpx:hr>136</gpxtpx:hr>
          </gpxtpx:TrackPointExtension>
        </extensions>
      </trkpt>
      <trkpt lat="42.95543" lon="1.90739">
        <ele>442.2</ele>
        <time>2022-07-25T08:24:05.000Z</time>
        <extensions>
          <gpxtpx:TrackPointExtension xmlns:gpxtpx="http://www.garmin.com/xmlschemas/TrackPointExtension/v1">
            <gpxtpx:hr>136</gpxtpx:hr>
          </gpxtpx:TrackPointExtension>
        </extensions>
      </trkpt>
      <trkpt lat="42.95549" lon="1.90755">
        <ele>441.8</ele>
        <time>2022-07-25T08:24:06.000Z</time>
        <extensions>
          <gpxtpx:TrackPointExtension xmlns:gpxtpx="http://www.garmin.com/xmlschemas/TrackPointExtension/v1">
            <gpxtpx:hr>138</gpxtpx:hr>
          </gpxtpx:TrackPointExtension>
        </extensions>
      </trkpt>
      <trkpt lat="42.95555" lon="1.9077">
        <ele>441.4</ele>
        <time>2022-07-25T08:24:07.000Z</time>
        <extensions>
          <gpxtpx:TrackPointExtension xmlns:gpxtpx="http://www.garmin.com/xmlschemas/TrackPointExtension/v1">
            <gpxtpx:hr>140</gpxtpx:hr>
          </gpxtpx:TrackPointExtension>
        </extensions>
      </trkpt>
      <trkpt lat="42.9556" lon="1.90786">
        <ele>441</ele>
        <time>2022-07-25T08:24:08.000Z</time>
        <extensions>
          <gpxtpx:TrackPointExtension xmlns:gpxtpx="http://www.garmin.com/xmlschemas/TrackPointExtension/v1">
            <gpxtpx:hr>141</gpxtpx:hr>
          </gpxtpx:TrackPointExtension>
        </extensions>
      </trkpt>
      <trkpt lat="42.95565" lon="1.90801">
        <ele>440.6</ele>
        <time>2022-07-25T08:24:09.000Z</time>
        <extensions>
          <gpxtpx:TrackPointExtension xmlns:gpxtpx="http://www.garmin.com/xmlschemas/TrackPointExtension/v1">
            <gpxtpx:hr>141</gpxtpx:hr>
          </gpxtpx:TrackPointExtension>
        </extensions>
      </trkpt>
      <trkpt lat="42.9557" lon="1.90817">
        <ele>440.1</ele>
        <time>2022-07-25T08:24:10.000Z</time>
        <extensions>
          <gpxtpx:TrackPointExtension xmlns:gpxtpx="http://www.garmin.com/xmlschemas/TrackPointExtension/v1">
            <gpxtpx:hr>143</gpxtpx:hr>
          </gpxtpx:TrackPointExtension>
        </extensions>
      </trkpt>
      <trkpt lat="42.95575" lon="1.90832">
        <ele>439.7</ele>
        <time>2022-07-25T08:24:11.000Z</time>
        <extensions>
          <gpxtpx:TrackPointExtension xmlns:gpxtpx="http://www.garmin.com/xmlschemas/TrackPointExtension/v1">
            <gpxtpx:hr>145</gpxtpx:hr>
          </gpxtpx:TrackPointExtension>
        </extensions>
      </trkpt>
      <trkpt lat="42.9558" lon="1.90847">
        <ele>439.3</ele>
        <time>2022-07-25T08:24:12.000Z</time>
        <extensions>
          <gpxtpx:TrackPointExtension xmlns:gpxtpx="http://www.garmin.com/xmlschemas/TrackPointExtension/v1">
            <gpxtpx:hr>145</gpxtpx:hr>
          </gpxtpx:TrackPointExtension>
        </extensions>
      </trkpt>
      <trkpt lat="42.95586" lon="1.90862">
        <ele>438.9</ele>
        <time>2022-07-25T08:24:13.000Z</time>
        <extensions>
          <gpxtpx:TrackPointExtension xmlns:gpxtpx="http://www.garmin.com/xmlschemas/TrackPointExtension/v1">
            <gpxtpx:hr>147</gpxtpx:hr>
          </gpxtpx:TrackPointExtension>
        </extensions>
      </trkpt>
      <trkpt lat="42.95589" lon="1.90876">
        <ele>438.4</ele>
        <time>2022-07-25T08:24:14.000Z</time>
        <extensions>
          <gpxtpx:TrackPointExtension xmlns:gpxtpx="http://www.garmin.com/xmlschemas/TrackPointExtension/v1">
            <gpxtpx:hr>148</gpxtpx:hr>
          </gpxtpx:TrackPointExtension>
        </extensions>
      </trkpt>
      <trkpt lat="42.95589" lon="1.90891">
        <ele>438</ele>
        <time>2022-07-25T08:24:15.000Z</time>
        <extensions>
          <gpxtpx:TrackPointExtension xmlns:gpxtpx="http://www.garmin.com/xmlschemas/TrackPointExtension/v1">
            <gpxtpx:hr>149</gpxtpx:hr>
          </gpxtpx:TrackPointExtension>
        </extensions>
      </trkpt>
      <trkpt lat="42.95588" lon="1.90906">
        <ele>437.5</ele>
        <time>2022-07-25T08:24:16.000Z</time>
        <extensions>
          <gpxtpx:TrackPointExtension xmlns:gpxtpx="http://www.garmin.com/xmlschemas/TrackPointExtension/v1">
            <gpxtpx:hr>151</gpxtpx:hr>
          </gpxtpx:TrackPointExtension>
        </extensions>
      </trkpt>
      <trkpt lat="42.95585" lon="1.9092">
        <ele>437.1</ele>
        <time>2022-07-25T08:24:17.000Z</time>
        <extensions>
          <gpxtpx:TrackPointExtension xmlns:gpxtpx="http://www.garmin.com/xmlschemas/TrackPointExtension/v1">
            <gpxtpx:hr>151</gpxtpx:hr>
          </gpxtpx:TrackPointExtension>
        </extensions>
      </trkpt>
      <trkpt lat="42.95582" lon="1.90933">
        <ele>436.7</ele>
        <time>2022-07-25T08:24:18.000Z</time>
        <extensions>
          <gpxtpx:TrackPointExtension xmlns:gpxtpx="http://www.garmin.com/xmlschemas/TrackPointExtension/v1">
            <gpxtpx:hr>152</gpxtpx:hr>
          </gpxtpx:TrackPointExtension>
        </extensions>
      </trkpt>
      <trkpt lat="42.95579" lon="1.90943">
        <ele>436.3</ele>
        <time>2022-07-25T08:24:19.000Z</time>
        <extensions>
          <gpxtpx:TrackPointExtension xmlns:gpxtpx="http://www.garmin.com/xmlschemas/TrackPointExtension/v1">
            <gpxtpx:hr>153</gpxtpx:hr>
          </gpxtpx:TrackPointExtension>
        </extensions>
      </trkpt>
      <trkpt lat="42.95577" lon="1.90952">
        <ele>435.9</ele>
        <time>2022-07-25T08:24:20.000Z</time>
        <extensions>
          <gpxtpx:TrackPointExtension xmlns:gpxtpx="http://www.garmin.com/xmlschemas/TrackPointExtension/v1">
            <gpxtpx:hr>153</gpxtpx:hr>
          </gpxtpx:TrackPointExtension>
        </extensions>
      </trkpt>
      <trkpt lat="42.95574" lon="1.90957">
        <ele>435.5</ele>
        <time>2022-07-25T08:24:21.000Z</time>
        <extensions>
          <gpxtpx:TrackPointExtension xmlns:gpxtpx="http://www.garmin.com/xmlschemas/TrackPointExtension/v1">
            <gpxtpx:hr>154</gpxtpx:hr>
          </gpxtpx:TrackPointExtension>
        </extensions>
      </trkpt>
      <trkpt lat="42.95568" lon="1.90963">
        <ele>434.8</ele>
        <time>2022-07-25T08:24:23.000Z</time>
        <extensions>
          <gpxtpx:TrackPointExtension xmlns:gpxtpx="http://www.garmin.com/xmlschemas/TrackPointExtension/v1">
            <gpxtpx:hr>155</gpxtpx:hr>
          </gpxtpx:TrackPointExtension>
        </extensions>
      </trkpt>
      <trkpt lat="42.9556" lon="1.90961">
        <ele>434.1</ele>
        <time>2022-07-25T08:24:25.000Z</time>
        <extensions>
          <gpxtpx:TrackPointExtension xmlns:gpxtpx="http://www.garmin.com/xmlschemas/TrackPointExtension/v1">
            <gpxtpx:hr>155</gpxtpx:hr>
          </gpxtpx:TrackPointExtension>
        </extensions>
      </trkpt>
      <trkpt lat="42.95555" lon="1.9096">
        <ele>433.8</ele>
        <time>2022-07-25T08:24:26.000Z</time>
        <extensions>
          <gpxtpx:TrackPointExtension xmlns:gpxtpx="http://www.garmin.com/xmlschemas/TrackPointExtension/v1">
            <gpxtpx:hr>156</gpxtpx:hr>
          </gpxtpx:TrackPointExtension>
        </extensions>
      </trkpt>
      <trkpt lat="42.95546" lon="1.90959">
        <ele>433.3</ele>
        <time>2022-07-25T08:24:28.000Z</time>
        <extensions>
          <gpxtpx:TrackPointExtension xmlns:gpxtpx="http://www.garmin.com/xmlschemas/TrackPointExtension/v1">
            <gpxtpx:hr>156</gpxtpx:hr>
          </gpxtpx:TrackPointExtension>
        </extensions>
      </trkpt>
      <trkpt lat="42.9554" lon="1.90966">
        <ele>432.8</ele>
        <time>2022-07-25T08:24:30.000Z</time>
        <extensions>
          <gpxtpx:TrackPointExtension xmlns:gpxtpx="http://www.garmin.com/xmlschemas/TrackPointExtension/v1">
            <gpxtpx:hr>156</gpxtpx:hr>
          </gpxtpx:TrackPointExtension>
        </extensions>
      </trkpt>
      <trkpt lat="42.95537" lon="1.90971">
        <ele>432.6</ele>
        <time>2022-07-25T08:24:31.000Z</time>
        <extensions>
          <gpxtpx:TrackPointExtension xmlns:gpxtpx="http://www.garmin.com/xmlschemas/TrackPointExtension/v1">
            <gpxtpx:hr>155</gpxtpx:hr>
          </gpxtpx:TrackPointExtension>
        </extensions>
      </trkpt>
      <trkpt lat="42.95533" lon="1.90975">
        <ele>432.4</ele>
        <time>2022-07-25T08:24:32.000Z</time>
        <extensions>
          <gpxtpx:TrackPointExtension xmlns:gpxtpx="http://www.garmin.com/xmlschemas/TrackPointExtension/v1">
            <gpxtpx:hr>155</gpxtpx:hr>
          </gpxtpx:TrackPointExtension>
        </extensions>
      </trkpt>
      <trkpt lat="42.95528" lon="1.90982">
        <ele>432</ele>
        <time>2022-07-25T08:24:34.000Z</time>
        <extensions>
          <gpxtpx:TrackPointExtension xmlns:gpxtpx="http://www.garmin.com/xmlschemas/TrackPointExtension/v1">
            <gpxtpx:hr>155</gpxtpx:hr>
          </gpxtpx:TrackPointExtension>
        </extensions>
      </trkpt>
      <trkpt lat="42.95523" lon="1.90988">
        <ele>431.7</ele>
        <time>2022-07-25T08:24:36.000Z</time>
        <extensions>
          <gpxtpx:TrackPointExtension xmlns:gpxtpx="http://www.garmin.com/xmlschemas/TrackPointExtension/v1">
            <gpxtpx:hr>154</gpxtpx:hr>
          </gpxtpx:TrackPointExtension>
        </extensions>
      </trkpt>
      <trkpt lat="42.95518" lon="1.9099">
        <ele>431.4</ele>
        <time>2022-07-25T08:24:38.000Z</time>
        <extensions>
          <gpxtpx:TrackPointExtension xmlns:gpxtpx="http://www.garmin.com/xmlschemas/TrackPointExtension/v1">
            <gpxtpx:hr>153</gpxtpx:hr>
          </gpxtpx:TrackPointExtension>
        </extensions>
      </trkpt>
      <trkpt lat="42.95512" lon="1.90981">
        <ele>431.2</ele>
        <time>2022-07-25T08:24:40.000Z</time>
        <extensions>
          <gpxtpx:TrackPointExtension xmlns:gpxtpx="http://www.garmin.com/xmlschemas/TrackPointExtension/v1">
            <gpxtpx:hr>153</gpxtpx:hr>
          </gpxtpx:TrackPointExtension>
        </extensions>
      </trkpt>
      <trkpt lat="42.95509" lon="1.90977">
        <ele>431</ele>
        <time>2022-07-25T08:24:41.000Z</time>
        <extensions>
          <gpxtpx:TrackPointExtension xmlns:gpxtpx="http://www.garmin.com/xmlschemas/TrackPointExtension/v1">
            <gpxtpx:hr>152</gpxtpx:hr>
          </gpxtpx:TrackPointExtension>
        </extensions>
      </trkpt>
      <trkpt lat="42.95504" lon="1.90969">
        <ele>430.8</ele>
        <time>2022-07-25T08:24:43.000Z</time>
        <extensions>
          <gpxtpx:TrackPointExtension xmlns:gpxtpx="http://www.garmin.com/xmlschemas/TrackPointExtension/v1">
            <gpxtpx:hr>152</gpxtpx:hr>
          </gpxtpx:TrackPointExtension>
        </extensions>
      </trkpt>
      <trkpt lat="42.955" lon="1.90964">
        <ele>430.7</ele>
        <time>2022-07-25T08:24:44.000Z</time>
        <extensions>
          <gpxtpx:TrackPointExtension xmlns:gpxtpx="http://www.garmin.com/xmlschemas/TrackPointExtension/v1">
            <gpxtpx:hr>151</gpxtpx:hr>
          </gpxtpx:TrackPointExtension>
        </extensions>
      </trkpt>
      <trkpt lat="42.95496" lon="1.9096">
        <ele>430.7</ele>
        <time>2022-07-25T08:24:45.000Z</time>
        <extensions>
          <gpxtpx:TrackPointExtension xmlns:gpxtpx="http://www.garmin.com/xmlschemas/TrackPointExtension/v1">
            <gpxtpx:hr>150</gpxtpx:hr>
          </gpxtpx:TrackPointExtension>
        </extensions>
      </trkpt>
      <trkpt lat="42.95492" lon="1.90956">
        <ele>430.6</ele>
        <time>2022-07-25T08:24:46.000Z</time>
        <extensions>
          <gpxtpx:TrackPointExtension xmlns:gpxtpx="http://www.garmin.com/xmlschemas/TrackPointExtension/v1">
            <gpxtpx:hr>150</gpxtpx:hr>
          </gpxtpx:TrackPointExtension>
        </extensions>
      </trkpt>
      <trkpt lat="42.95487" lon="1.90952">
        <ele>430.5</ele>
        <time>2022-07-25T08:24:47.000Z</time>
        <extensions>
          <gpxtpx:TrackPointExtension xmlns:gpxtpx="http://www.garmin.com/xmlschemas/TrackPointExtension/v1">
            <gpxtpx:hr>149</gpxtpx:hr>
          </gpxtpx:TrackPointExtension>
        </extensions>
      </trkpt>
      <trkpt lat="42.95483" lon="1.90948">
        <ele>430.4</ele>
        <time>2022-07-25T08:24:48.000Z</time>
        <extensions>
          <gpxtpx:TrackPointExtension xmlns:gpxtpx="http://www.garmin.com/xmlschemas/TrackPointExtension/v1">
            <gpxtpx:hr>149</gpxtpx:hr>
          </gpxtpx:TrackPointExtension>
        </extensions>
      </trkpt>
      <trkpt lat="42.95479" lon="1.90945">
        <ele>430.3</ele>
        <time>2022-07-25T08:24:49.000Z</time>
        <extensions>
          <gpxtpx:TrackPointExtension xmlns:gpxtpx="http://www.garmin.com/xmlschemas/TrackPointExtension/v1">
            <gpxtpx:hr>148</gpxtpx:hr>
          </gpxtpx:TrackPointExtension>
        </extensions>
      </trkpt>
      <trkpt lat="42.95474" lon="1.90942">
        <ele>430.3</ele>
        <time>2022-07-25T08:24:50.000Z</time>
        <extensions>
          <gpxtpx:TrackPointExtension xmlns:gpxtpx="http://www.garmin.com/xmlschemas/TrackPointExtension/v1">
            <gpxtpx:hr>148</gpxtpx:hr>
          </gpxtpx:TrackPointExtension>
        </extensions>
      </trkpt>
      <trkpt lat="42.95469" lon="1.9094">
        <ele>430.2</ele>
        <time>2022-07-25T08:24:51.000Z</time>
        <extensions>
          <gpxtpx:TrackPointExtension xmlns:gpxtpx="http://www.garmin.com/xmlschemas/TrackPointExtension/v1">
            <gpxtpx:hr>147</gpxtpx:hr>
          </gpxtpx:TrackPointExtension>
        </extensions>
      </trkpt>
      <trkpt lat="42.95461" lon="1.90937">
        <ele>430.1</ele>
        <time>2022-07-25T08:24:53.000Z</time>
        <extensions>
          <gpxtpx:TrackPointExtension xmlns:gpxtpx="http://www.garmin.com/xmlschemas/TrackPointExtension/v1">
            <gpxtpx:hr>147</gpxtpx:hr>
          </gpxtpx:TrackPointExtension>
        </extensions>
      </trkpt>
      <trkpt lat="42.95456" lon="1.90935">
        <ele>430</ele>
        <time>2022-07-25T08:24:54.000Z</time>
        <extensions>
          <gpxtpx:TrackPointExtension xmlns:gpxtpx="http://www.garmin.com/xmlschemas/TrackPointExtension/v1">
            <gpxtpx:hr>147</gpxtpx:hr>
          </gpxtpx:TrackPointExtension>
        </extensions>
      </trkpt>
      <trkpt lat="42.95447" lon="1.90933">
        <ele>429.9</ele>
        <time>2022-07-25T08:24:56.000Z</time>
        <extensions>
          <gpxtpx:TrackPointExtension xmlns:gpxtpx="http://www.garmin.com/xmlschemas/TrackPointExtension/v1">
            <gpxtpx:hr>147</gpxtpx:hr>
          </gpxtpx:TrackPointExtension>
        </extensions>
      </trkpt>
      <trkpt lat="42.95442" lon="1.90932">
        <ele>429.8</ele>
        <time>2022-07-25T08:24:57.000Z</time>
        <extensions>
          <gpxtpx:TrackPointExtension xmlns:gpxtpx="http://www.garmin.com/xmlschemas/TrackPointExtension/v1">
            <gpxtpx:hr>147</gpxtpx:hr>
          </gpxtpx:TrackPointExtension>
        </extensions>
      </trkpt>
      <trkpt lat="42.95437" lon="1.90931">
        <ele>429.8</ele>
        <time>2022-07-25T08:24:58.000Z</time>
        <extensions>
          <gpxtpx:TrackPointExtension xmlns:gpxtpx="http://www.garmin.com/xmlschemas/TrackPointExtension/v1">
            <gpxtpx:hr>147</gpxtpx:hr>
          </gpxtpx:TrackPointExtension>
        </extensions>
      </trkpt>
      <trkpt lat="42.95429" lon="1.9093">
        <ele>429.7</ele>
        <time>2022-07-25T08:25:00.000Z</time>
        <extensions>
          <gpxtpx:TrackPointExtension xmlns:gpxtpx="http://www.garmin.com/xmlschemas/TrackPointExtension/v1">
            <gpxtpx:hr>147</gpxtpx:hr>
          </gpxtpx:TrackPointExtension>
        </extensions>
      </trkpt>
      <trkpt lat="42.95424" lon="1.9093">
        <ele>429.6</ele>
        <time>2022-07-25T08:25:01.000Z</time>
        <extensions>
          <gpxtpx:TrackPointExtension xmlns:gpxtpx="http://www.garmin.com/xmlschemas/TrackPointExtension/v1">
            <gpxtpx:hr>147</gpxtpx:hr>
          </gpxtpx:TrackPointExtension>
        </extensions>
      </trkpt>
      <trkpt lat="42.95419" lon="1.90931">
        <ele>429.6</ele>
        <time>2022-07-25T08:25:02.000Z</time>
        <extensions>
          <gpxtpx:TrackPointExtension xmlns:gpxtpx="http://www.garmin.com/xmlschemas/TrackPointExtension/v1">
            <gpxtpx:hr>147</gpxtpx:hr>
          </gpxtpx:TrackPointExtension>
        </extensions>
      </trkpt>
      <trkpt lat="42.95414" lon="1.90931">
        <ele>429.5</ele>
        <time>2022-07-25T08:25:03.000Z</time>
        <extensions>
          <gpxtpx:TrackPointExtension xmlns:gpxtpx="http://www.garmin.com/xmlschemas/TrackPointExtension/v1">
            <gpxtpx:hr>147</gpxtpx:hr>
          </gpxtpx:TrackPointExtension>
        </extensions>
      </trkpt>
      <trkpt lat="42.95409" lon="1.9093">
        <ele>429.5</ele>
        <time>2022-07-25T08:25:04.000Z</time>
        <extensions>
          <gpxtpx:TrackPointExtension xmlns:gpxtpx="http://www.garmin.com/xmlschemas/TrackPointExtension/v1">
            <gpxtpx:hr>146</gpxtpx:hr>
          </gpxtpx:TrackPointExtension>
        </extensions>
      </trkpt>
      <trkpt lat="42.95403" lon="1.90929">
        <ele>429.5</ele>
        <time>2022-07-25T08:25:05.000Z</time>
        <extensions>
          <gpxtpx:TrackPointExtension xmlns:gpxtpx="http://www.garmin.com/xmlschemas/TrackPointExtension/v1">
            <gpxtpx:hr>146</gpxtpx:hr>
          </gpxtpx:TrackPointExtension>
        </extensions>
      </trkpt>
      <trkpt lat="42.95398" lon="1.90929">
        <ele>429.4</ele>
        <time>2022-07-25T08:25:06.000Z</time>
        <extensions>
          <gpxtpx:TrackPointExtension xmlns:gpxtpx="http://www.garmin.com/xmlschemas/TrackPointExtension/v1">
            <gpxtpx:hr>146</gpxtpx:hr>
          </gpxtpx:TrackPointExtension>
        </extensions>
      </trkpt>
      <trkpt lat="42.95392" lon="1.90928">
        <ele>429.4</ele>
        <time>2022-07-25T08:25:07.000Z</time>
        <extensions>
          <gpxtpx:TrackPointExtension xmlns:gpxtpx="http://www.garmin.com/xmlschemas/TrackPointExtension/v1">
            <gpxtpx:hr>146</gpxtpx:hr>
          </gpxtpx:TrackPointExtension>
        </extensions>
      </trkpt>
      <trkpt lat="42.95386" lon="1.90929">
        <ele>429.4</ele>
        <time>2022-07-25T08:25:08.000Z</time>
        <extensions>
          <gpxtpx:TrackPointExtension xmlns:gpxtpx="http://www.garmin.com/xmlschemas/TrackPointExtension/v1">
            <gpxtpx:hr>146</gpxtpx:hr>
          </gpxtpx:TrackPointExtension>
        </extensions>
      </trkpt>
      <trkpt lat="42.95381" lon="1.90929">
        <ele>429.4</ele>
        <time>2022-07-25T08:25:09.000Z</time>
        <extensions>
          <gpxtpx:TrackPointExtension xmlns:gpxtpx="http://www.garmin.com/xmlschemas/TrackPointExtension/v1">
            <gpxtpx:hr>146</gpxtpx:hr>
          </gpxtpx:TrackPointExtension>
        </extensions>
      </trkpt>
      <trkpt lat="42.95375" lon="1.90929">
        <ele>429.3</ele>
        <time>2022-07-25T08:25:10.000Z</time>
        <extensions>
          <gpxtpx:TrackPointExtension xmlns:gpxtpx="http://www.garmin.com/xmlschemas/TrackPointExtension/v1">
            <gpxtpx:hr>146</gpxtpx:hr>
          </gpxtpx:TrackPointExtension>
        </extensions>
      </trkpt>
      <trkpt lat="42.95369" lon="1.90929">
        <ele>429.3</ele>
        <time>2022-07-25T08:25:11.000Z</time>
        <extensions>
          <gpxtpx:TrackPointExtension xmlns:gpxtpx="http://www.garmin.com/xmlschemas/TrackPointExtension/v1">
            <gpxtpx:hr>146</gpxtpx:hr>
          </gpxtpx:TrackPointExtension>
        </extensions>
      </trkpt>
      <trkpt lat="42.95363" lon="1.9093">
        <ele>429.3</ele>
        <time>2022-07-25T08:25:12.000Z</time>
        <extensions>
          <gpxtpx:TrackPointExtension xmlns:gpxtpx="http://www.garmin.com/xmlschemas/TrackPointExtension/v1">
            <gpxtpx:hr>146</gpxtpx:hr>
          </gpxtpx:TrackPointExtension>
        </extensions>
      </trkpt>
      <trkpt lat="42.95358" lon="1.90932">
        <ele>429.3</ele>
        <time>2022-07-25T08:25:13.000Z</time>
        <extensions>
          <gpxtpx:TrackPointExtension xmlns:gpxtpx="http://www.garmin.com/xmlschemas/TrackPointExtension/v1">
            <gpxtpx:hr>146</gpxtpx:hr>
          </gpxtpx:TrackPointExtension>
        </extensions>
      </trkpt>
      <trkpt lat="42.95352" lon="1.90933">
        <ele>429.3</ele>
        <time>2022-07-25T08:25:14.000Z</time>
        <extensions>
          <gpxtpx:TrackPointExtension xmlns:gpxtpx="http://www.garmin.com/xmlschemas/TrackPointExtension/v1">
            <gpxtpx:hr>146</gpxtpx:hr>
          </gpxtpx:TrackPointExtension>
        </extensions>
      </trkpt>
      <trkpt lat="42.95346" lon="1.90936">
        <ele>429.2</ele>
        <time>2022-07-25T08:25:15.000Z</time>
        <extensions>
          <gpxtpx:TrackPointExtension xmlns:gpxtpx="http://www.garmin.com/xmlschemas/TrackPointExtension/v1">
            <gpxtpx:hr>146</gpxtpx:hr>
          </gpxtpx:TrackPointExtension>
        </extensions>
      </trkpt>
      <trkpt lat="42.95341" lon="1.90939">
        <ele>429.2</ele>
        <time>2022-07-25T08:25:16.000Z</time>
        <extensions>
          <gpxtpx:TrackPointExtension xmlns:gpxtpx="http://www.garmin.com/xmlschemas/TrackPointExtension/v1">
            <gpxtpx:hr>146</gpxtpx:hr>
          </gpxtpx:TrackPointExtension>
        </extensions>
      </trkpt>
      <trkpt lat="42.95335" lon="1.90943">
        <ele>429.2</ele>
        <time>2022-07-25T08:25:17.000Z</time>
        <extensions>
          <gpxtpx:TrackPointExtension xmlns:gpxtpx="http://www.garmin.com/xmlschemas/TrackPointExtension/v1">
            <gpxtpx:hr>146</gpxtpx:hr>
          </gpxtpx:TrackPointExtension>
        </extensions>
      </trkpt>
      <trkpt lat="42.9533" lon="1.90947">
        <ele>429.2</ele>
        <time>2022-07-25T08:25:18.000Z</time>
        <extensions>
          <gpxtpx:TrackPointExtension xmlns:gpxtpx="http://www.garmin.com/xmlschemas/TrackPointExtension/v1">
            <gpxtpx:hr>146</gpxtpx:hr>
          </gpxtpx:TrackPointExtension>
        </extensions>
      </trkpt>
      <trkpt lat="42.95326" lon="1.90952">
        <ele>429.2</ele>
        <time>2022-07-25T08:25:19.000Z</time>
        <extensions>
          <gpxtpx:TrackPointExtension xmlns:gpxtpx="http://www.garmin.com/xmlschemas/TrackPointExtension/v1">
            <gpxtpx:hr>146</gpxtpx:hr>
          </gpxtpx:TrackPointExtension>
        </extensions>
      </trkpt>
      <trkpt lat="42.95323" lon="1.90958">
        <ele>429.3</ele>
        <time>2022-07-25T08:25:20.000Z</time>
        <extensions>
          <gpxtpx:TrackPointExtension xmlns:gpxtpx="http://www.garmin.com/xmlschemas/TrackPointExtension/v1">
            <gpxtpx:hr>147</gpxtpx:hr>
          </gpxtpx:TrackPointExtension>
        </extensions>
      </trkpt>
      <trkpt lat="42.9532" lon="1.90964">
        <ele>429.3</ele>
        <time>2022-07-25T08:25:21.000Z</time>
        <extensions>
          <gpxtpx:TrackPointExtension xmlns:gpxtpx="http://www.garmin.com/xmlschemas/TrackPointExtension/v1">
            <gpxtpx:hr>147</gpxtpx:hr>
          </gpxtpx:TrackPointExtension>
        </extensions>
      </trkpt>
      <trkpt lat="42.95319" lon="1.90971">
        <ele>429.3</ele>
        <time>2022-07-25T08:25:22.000Z</time>
        <extensions>
          <gpxtpx:TrackPointExtension xmlns:gpxtpx="http://www.garmin.com/xmlschemas/TrackPointExtension/v1">
            <gpxtpx:hr>147</gpxtpx:hr>
          </gpxtpx:TrackPointExtension>
        </extensions>
      </trkpt>
      <trkpt lat="42.95318" lon="1.90977">
        <ele>429.3</ele>
        <time>2022-07-25T08:25:23.000Z</time>
        <extensions>
          <gpxtpx:TrackPointExtension xmlns:gpxtpx="http://www.garmin.com/xmlschemas/TrackPointExtension/v1">
            <gpxtpx:hr>147</gpxtpx:hr>
          </gpxtpx:TrackPointExtension>
        </extensions>
      </trkpt>
      <trkpt lat="42.95317" lon="1.90984">
        <ele>429.3</ele>
        <time>2022-07-25T08:25:24.000Z</time>
        <extensions>
          <gpxtpx:TrackPointExtension xmlns:gpxtpx="http://www.garmin.com/xmlschemas/TrackPointExtension/v1">
            <gpxtpx:hr>148</gpxtpx:hr>
          </gpxtpx:TrackPointExtension>
        </extensions>
      </trkpt>
      <trkpt lat="42.95315" lon="1.90996">
        <ele>429.4</ele>
        <time>2022-07-25T08:25:26.000Z</time>
        <extensions>
          <gpxtpx:TrackPointExtension xmlns:gpxtpx="http://www.garmin.com/xmlschemas/TrackPointExtension/v1">
            <gpxtpx:hr>148</gpxtpx:hr>
          </gpxtpx:TrackPointExtension>
        </extensions>
      </trkpt>
      <trkpt lat="42.95307" lon="1.91003">
        <ele>429.4</ele>
        <time>2022-07-25T08:25:28.000Z</time>
        <extensions>
          <gpxtpx:TrackPointExtension xmlns:gpxtpx="http://www.garmin.com/xmlschemas/TrackPointExtension/v1">
            <gpxtpx:hr>149</gpxtpx:hr>
          </gpxtpx:TrackPointExtension>
        </extensions>
      </trkpt>
      <trkpt lat="42.95302" lon="1.91003">
        <ele>429.4</ele>
        <time>2022-07-25T08:25:29.000Z</time>
        <extensions>
          <gpxtpx:TrackPointExtension xmlns:gpxtpx="http://www.garmin.com/xmlschemas/TrackPointExtension/v1">
            <gpxtpx:hr>149</gpxtpx:hr>
          </gpxtpx:TrackPointExtension>
        </extensions>
      </trkpt>
      <trkpt lat="42.95297" lon="1.91002">
        <ele>429.5</ele>
        <time>2022-07-25T08:25:30.000Z</time>
        <extensions>
          <gpxtpx:TrackPointExtension xmlns:gpxtpx="http://www.garmin.com/xmlschemas/TrackPointExtension/v1">
            <gpxtpx:hr>149</gpxtpx:hr>
          </gpxtpx:TrackPointExtension>
        </extensions>
      </trkpt>
      <trkpt lat="42.95291" lon="1.91">
        <ele>429.5</ele>
        <time>2022-07-25T08:25:31.000Z</time>
        <extensions>
          <gpxtpx:TrackPointExtension xmlns:gpxtpx="http://www.garmin.com/xmlschemas/TrackPointExtension/v1">
            <gpxtpx:hr>149</gpxtpx:hr>
          </gpxtpx:TrackPointExtension>
        </extensions>
      </trkpt>
      <trkpt lat="42.95286" lon="1.90998">
        <ele>429.5</ele>
        <time>2022-07-25T08:25:32.000Z</time>
        <extensions>
          <gpxtpx:TrackPointExtension xmlns:gpxtpx="http://www.garmin.com/xmlschemas/TrackPointExtension/v1">
            <gpxtpx:hr>149</gpxtpx:hr>
          </gpxtpx:TrackPointExtension>
        </extensions>
      </trkpt>
      <trkpt lat="42.9528" lon="1.90995">
        <ele>429.5</ele>
        <time>2022-07-25T08:25:33.000Z</time>
        <extensions>
          <gpxtpx:TrackPointExtension xmlns:gpxtpx="http://www.garmin.com/xmlschemas/TrackPointExtension/v1">
            <gpxtpx:hr>149</gpxtpx:hr>
          </gpxtpx:TrackPointExtension>
        </extensions>
      </trkpt>
      <trkpt lat="42.95275" lon="1.90992">
        <ele>429.5</ele>
        <time>2022-07-25T08:25:34.000Z</time>
        <extensions>
          <gpxtpx:TrackPointExtension xmlns:gpxtpx="http://www.garmin.com/xmlschemas/TrackPointExtension/v1">
            <gpxtpx:hr>149</gpxtpx:hr>
          </gpxtpx:TrackPointExtension>
        </extensions>
      </trkpt>
      <trkpt lat="42.95269" lon="1.9099">
        <ele>429.5</ele>
        <time>2022-07-25T08:25:35.000Z</time>
        <extensions>
          <gpxtpx:TrackPointExtension xmlns:gpxtpx="http://www.garmin.com/xmlschemas/TrackPointExtension/v1">
            <gpxtpx:hr>149</gpxtpx:hr>
          </gpxtpx:TrackPointExtension>
        </extensions>
      </trkpt>
      <trkpt lat="42.95263" lon="1.90988">
        <ele>429.6</ele>
        <time>2022-07-25T08:25:36.000Z</time>
        <extensions>
          <gpxtpx:TrackPointExtension xmlns:gpxtpx="http://www.garmin.com/xmlschemas/TrackPointExtension/v1">
            <gpxtpx:hr>149</gpxtpx:hr>
          </gpxtpx:TrackPointExtension>
        </extensions>
      </trkpt>
      <trkpt lat="42.95258" lon="1.90986">
        <ele>429.6</ele>
        <time>2022-07-25T08:25:37.000Z</time>
        <extensions>
          <gpxtpx:TrackPointExtension xmlns:gpxtpx="http://www.garmin.com/xmlschemas/TrackPointExtension/v1">
            <gpxtpx:hr>149</gpxtpx:hr>
          </gpxtpx:TrackPointExtension>
        </extensions>
      </trkpt>
      <trkpt lat="42.95252" lon="1.90984">
        <ele>429.6</ele>
        <time>2022-07-25T08:25:38.000Z</time>
        <extensions>
          <gpxtpx:TrackPointExtension xmlns:gpxtpx="http://www.garmin.com/xmlschemas/TrackPointExtension/v1">
            <gpxtpx:hr>149</gpxtpx:hr>
          </gpxtpx:TrackPointExtension>
        </extensions>
      </trkpt>
      <trkpt lat="42.95246" lon="1.90982">
        <ele>429.6</ele>
        <time>2022-07-25T08:25:39.000Z</time>
        <extensions>
          <gpxtpx:TrackPointExtension xmlns:gpxtpx="http://www.garmin.com/xmlschemas/TrackPointExtension/v1">
            <gpxtpx:hr>150</gpxtpx:hr>
          </gpxtpx:TrackPointExtension>
        </extensions>
      </trkpt>
      <trkpt lat="42.9524" lon="1.9098">
        <ele>429.6</ele>
        <time>2022-07-25T08:25:40.000Z</time>
        <extensions>
          <gpxtpx:TrackPointExtension xmlns:gpxtpx="http://www.garmin.com/xmlschemas/TrackPointExtension/v1">
            <gpxtpx:hr>150</gpxtpx:hr>
          </gpxtpx:TrackPointExtension>
        </extensions>
      </trkpt>
      <trkpt lat="42.95235" lon="1.90977">
        <ele>429.6</ele>
        <time>2022-07-25T08:25:41.000Z</time>
        <extensions>
          <gpxtpx:TrackPointExtension xmlns:gpxtpx="http://www.garmin.com/xmlschemas/TrackPointExtension/v1">
            <gpxtpx:hr>150</gpxtpx:hr>
          </gpxtpx:TrackPointExtension>
        </extensions>
      </trkpt>
      <trkpt lat="42.95229" lon="1.90974">
        <ele>429.6</ele>
        <time>2022-07-25T08:25:42.000Z</time>
        <extensions>
          <gpxtpx:TrackPointExtension xmlns:gpxtpx="http://www.garmin.com/xmlschemas/TrackPointExtension/v1">
            <gpxtpx:hr>150</gpxtpx:hr>
          </gpxtpx:TrackPointExtension>
        </extensions>
      </trkpt>
      <trkpt lat="42.95223" lon="1.90972">
        <ele>429.6</ele>
        <time>2022-07-25T08:25:43.000Z</time>
        <extensions>
          <gpxtpx:TrackPointExtension xmlns:gpxtpx="http://www.garmin.com/xmlschemas/TrackPointExtension/v1">
            <gpxtpx:hr>150</gpxtpx:hr>
          </gpxtpx:TrackPointExtension>
        </extensions>
      </trkpt>
      <trkpt lat="42.95217" lon="1.90969">
        <ele>429.6</ele>
        <time>2022-07-25T08:25:44.000Z</time>
        <extensions>
          <gpxtpx:TrackPointExtension xmlns:gpxtpx="http://www.garmin.com/xmlschemas/TrackPointExtension/v1">
            <gpxtpx:hr>150</gpxtpx:hr>
          </gpxtpx:TrackPointExtension>
        </extensions>
      </trkpt>
      <trkpt lat="42.95212" lon="1.90966">
        <ele>429.6</ele>
        <time>2022-07-25T08:25:45.000Z</time>
        <extensions>
          <gpxtpx:TrackPointExtension xmlns:gpxtpx="http://www.garmin.com/xmlschemas/TrackPointExtension/v1">
            <gpxtpx:hr>150</gpxtpx:hr>
          </gpxtpx:TrackPointExtension>
        </extensions>
      </trkpt>
      <trkpt lat="42.95206" lon="1.90964">
        <ele>429.7</ele>
        <time>2022-07-25T08:25:46.000Z</time>
        <extensions>
          <gpxtpx:TrackPointExtension xmlns:gpxtpx="http://www.garmin.com/xmlschemas/TrackPointExtension/v1">
            <gpxtpx:hr>150</gpxtpx:hr>
          </gpxtpx:TrackPointExtension>
        </extensions>
      </trkpt>
      <trkpt lat="42.95201" lon="1.90961">
        <ele>429.7</ele>
        <time>2022-07-25T08:25:47.000Z</time>
        <extensions>
          <gpxtpx:TrackPointExtension xmlns:gpxtpx="http://www.garmin.com/xmlschemas/TrackPointExtension/v1">
            <gpxtpx:hr>150</gpxtpx:hr>
          </gpxtpx:TrackPointExtension>
        </extensions>
      </trkpt>
      <trkpt lat="42.95195" lon="1.90958">
        <ele>429.7</ele>
        <time>2022-07-25T08:25:48.000Z</time>
        <extensions>
          <gpxtpx:TrackPointExtension xmlns:gpxtpx="http://www.garmin.com/xmlschemas/TrackPointExtension/v1">
            <gpxtpx:hr>150</gpxtpx:hr>
          </gpxtpx:TrackPointExtension>
        </extensions>
      </trkpt>
      <trkpt lat="42.9519" lon="1.90955">
        <ele>429.7</ele>
        <time>2022-07-25T08:25:49.000Z</time>
        <extensions>
          <gpxtpx:TrackPointExtension xmlns:gpxtpx="http://www.garmin.com/xmlschemas/TrackPointExtension/v1">
            <gpxtpx:hr>150</gpxtpx:hr>
          </gpxtpx:TrackPointExtension>
        </extensions>
      </trkpt>
      <trkpt lat="42.95185" lon="1.90952">
        <ele>429.7</ele>
        <time>2022-07-25T08:25:50.000Z</time>
        <extensions>
          <gpxtpx:TrackPointExtension xmlns:gpxtpx="http://www.garmin.com/xmlschemas/TrackPointExtension/v1">
            <gpxtpx:hr>150</gpxtpx:hr>
          </gpxtpx:TrackPointExtension>
        </extensions>
      </trkpt>
      <trkpt lat="42.9518" lon="1.90949">
        <ele>429.7</ele>
        <time>2022-07-25T08:25:51.000Z</time>
        <extensions>
          <gpxtpx:TrackPointExtension xmlns:gpxtpx="http://www.garmin.com/xmlschemas/TrackPointExtension/v1">
            <gpxtpx:hr>150</gpxtpx:hr>
          </gpxtpx:TrackPointExtension>
        </extensions>
      </trkpt>
      <trkpt lat="42.95175" lon="1.90945">
        <ele>429.8</ele>
        <time>2022-07-25T08:25:52.000Z</time>
        <extensions>
          <gpxtpx:TrackPointExtension xmlns:gpxtpx="http://www.garmin.com/xmlschemas/TrackPointExtension/v1">
            <gpxtpx:hr>150</gpxtpx:hr>
          </gpxtpx:TrackPointExtension>
        </extensions>
      </trkpt>
      <trkpt lat="42.9517" lon="1.9094">
        <ele>429.8</ele>
        <time>2022-07-25T08:25:53.000Z</time>
        <extensions>
          <gpxtpx:TrackPointExtension xmlns:gpxtpx="http://www.garmin.com/xmlschemas/TrackPointExtension/v1">
            <gpxtpx:hr>150</gpxtpx:hr>
          </gpxtpx:TrackPointExtension>
        </extensions>
      </trkpt>
      <trkpt lat="42.95165" lon="1.90935">
        <ele>429.8</ele>
        <time>2022-07-25T08:25:54.000Z</time>
        <extensions>
          <gpxtpx:TrackPointExtension xmlns:gpxtpx="http://www.garmin.com/xmlschemas/TrackPointExtension/v1">
            <gpxtpx:hr>150</gpxtpx:hr>
          </gpxtpx:TrackPointExtension>
        </extensions>
      </trkpt>
      <trkpt lat="42.95162" lon="1.9093">
        <ele>429.8</ele>
        <time>2022-07-25T08:25:55.000Z</time>
        <extensions>
          <gpxtpx:TrackPointExtension xmlns:gpxtpx="http://www.garmin.com/xmlschemas/TrackPointExtension/v1">
            <gpxtpx:hr>150</gpxtpx:hr>
          </gpxtpx:TrackPointExtension>
        </extensions>
      </trkpt>
      <trkpt lat="42.95157" lon="1.90924">
        <ele>429.9</ele>
        <time>2022-07-25T08:25:56.000Z</time>
        <extensions>
          <gpxtpx:TrackPointExtension xmlns:gpxtpx="http://www.garmin.com/xmlschemas/TrackPointExtension/v1">
            <gpxtpx:hr>151</gpxtpx:hr>
          </gpxtpx:TrackPointExtension>
        </extensions>
      </trkpt>
      <trkpt lat="42.95152" lon="1.90918">
        <ele>429.9</ele>
        <time>2022-07-25T08:25:57.000Z</time>
        <extensions>
          <gpxtpx:TrackPointExtension xmlns:gpxtpx="http://www.garmin.com/xmlschemas/TrackPointExtension/v1">
            <gpxtpx:hr>151</gpxtpx:hr>
          </gpxtpx:TrackPointExtension>
        </extensions>
      </trkpt>
      <trkpt lat="42.95146" lon="1.90913">
        <ele>429.9</ele>
        <time>2022-07-25T08:25:58.000Z</time>
        <extensions>
          <gpxtpx:TrackPointExtension xmlns:gpxtpx="http://www.garmin.com/xmlschemas/TrackPointExtension/v1">
            <gpxtpx:hr>151</gpxtpx:hr>
          </gpxtpx:TrackPointExtension>
        </extensions>
      </trkpt>
      <trkpt lat="42.95141" lon="1.90909">
        <ele>429.9</ele>
        <time>2022-07-25T08:25:59.000Z</time>
        <extensions>
          <gpxtpx:TrackPointExtension xmlns:gpxtpx="http://www.garmin.com/xmlschemas/TrackPointExtension/v1">
            <gpxtpx:hr>151</gpxtpx:hr>
          </gpxtpx:TrackPointExtension>
        </extensions>
      </trkpt>
      <trkpt lat="42.95136" lon="1.90906">
        <ele>430</ele>
        <time>2022-07-25T08:26:00.000Z</time>
        <extensions>
          <gpxtpx:TrackPointExtension xmlns:gpxtpx="http://www.garmin.com/xmlschemas/TrackPointExtension/v1">
            <gpxtpx:hr>151</gpxtpx:hr>
          </gpxtpx:TrackPointExtension>
        </extensions>
      </trkpt>
      <trkpt lat="42.9513" lon="1.90903">
        <ele>430</ele>
        <time>2022-07-25T08:26:01.000Z</time>
        <extensions>
          <gpxtpx:TrackPointExtension xmlns:gpxtpx="http://www.garmin.com/xmlschemas/TrackPointExtension/v1">
            <gpxtpx:hr>151</gpxtpx:hr>
          </gpxtpx:TrackPointExtension>
        </extensions>
      </trkpt>
      <trkpt lat="42.95125" lon="1.909">
        <ele>430</ele>
        <time>2022-07-25T08:26:02.000Z</time>
        <extensions>
          <gpxtpx:TrackPointExtension xmlns:gpxtpx="http://www.garmin.com/xmlschemas/TrackPointExtension/v1">
            <gpxtpx:hr>151</gpxtpx:hr>
          </gpxtpx:TrackPointExtension>
        </extensions>
      </trkpt>
      <trkpt lat="42.95119" lon="1.90897">
        <ele>430.1</ele>
        <time>2022-07-25T08:26:03.000Z</time>
        <extensions>
          <gpxtpx:TrackPointExtension xmlns:gpxtpx="http://www.garmin.com/xmlschemas/TrackPointExtension/v1">
            <gpxtpx:hr>151</gpxtpx:hr>
          </gpxtpx:TrackPointExtension>
        </extensions>
      </trkpt>
      <trkpt lat="42.95114" lon="1.90893">
        <ele>430.1</ele>
        <time>2022-07-25T08:26:04.000Z</time>
        <extensions>
          <gpxtpx:TrackPointExtension xmlns:gpxtpx="http://www.garmin.com/xmlschemas/TrackPointExtension/v1">
            <gpxtpx:hr>151</gpxtpx:hr>
          </gpxtpx:TrackPointExtension>
        </extensions>
      </trkpt>
      <trkpt lat="42.95109" lon="1.90889">
        <ele>430.2</ele>
        <time>2022-07-25T08:26:05.000Z</time>
        <extensions>
          <gpxtpx:TrackPointExtension xmlns:gpxtpx="http://www.garmin.com/xmlschemas/TrackPointExtension/v1">
            <gpxtpx:hr>151</gpxtpx:hr>
          </gpxtpx:TrackPointExtension>
        </extensions>
      </trkpt>
      <trkpt lat="42.95104" lon="1.90886">
        <ele>430.2</ele>
        <time>2022-07-25T08:26:06.000Z</time>
        <extensions>
          <gpxtpx:TrackPointExtension xmlns:gpxtpx="http://www.garmin.com/xmlschemas/TrackPointExtension/v1">
            <gpxtpx:hr>151</gpxtpx:hr>
          </gpxtpx:TrackPointExtension>
        </extensions>
      </trkpt>
      <trkpt lat="42.95099" lon="1.90882">
        <ele>430.2</ele>
        <time>2022-07-25T08:26:07.000Z</time>
        <extensions>
          <gpxtpx:TrackPointExtension xmlns:gpxtpx="http://www.garmin.com/xmlschemas/TrackPointExtension/v1">
            <gpxtpx:hr>151</gpxtpx:hr>
          </gpxtpx:TrackPointExtension>
        </extensions>
      </trkpt>
      <trkpt lat="42.95094" lon="1.90877">
        <ele>430.3</ele>
        <time>2022-07-25T08:26:08.000Z</time>
        <extensions>
          <gpxtpx:TrackPointExtension xmlns:gpxtpx="http://www.garmin.com/xmlschemas/TrackPointExtension/v1">
            <gpxtpx:hr>152</gpxtpx:hr>
          </gpxtpx:TrackPointExtension>
        </extensions>
      </trkpt>
      <trkpt lat="42.95089" lon="1.90873">
        <ele>430.3</ele>
        <time>2022-07-25T08:26:09.000Z</time>
        <extensions>
          <gpxtpx:TrackPointExtension xmlns:gpxtpx="http://www.garmin.com/xmlschemas/TrackPointExtension/v1">
            <gpxtpx:hr>152</gpxtpx:hr>
          </gpxtpx:TrackPointExtension>
        </extensions>
      </trkpt>
      <trkpt lat="42.95084" lon="1.90869">
        <ele>430.4</ele>
        <time>2022-07-25T08:26:10.000Z</time>
        <extensions>
          <gpxtpx:TrackPointExtension xmlns:gpxtpx="http://www.garmin.com/xmlschemas/TrackPointExtension/v1">
            <gpxtpx:hr>152</gpxtpx:hr>
          </gpxtpx:TrackPointExtension>
        </extensions>
      </trkpt>
      <trkpt lat="42.9508" lon="1.90865">
        <ele>430.4</ele>
        <time>2022-07-25T08:26:11.000Z</time>
        <extensions>
          <gpxtpx:TrackPointExtension xmlns:gpxtpx="http://www.garmin.com/xmlschemas/TrackPointExtension/v1">
            <gpxtpx:hr>152</gpxtpx:hr>
          </gpxtpx:TrackPointExtension>
        </extensions>
      </trkpt>
      <trkpt lat="42.95076" lon="1.9086">
        <ele>430.5</ele>
        <time>2022-07-25T08:26:12.000Z</time>
        <extensions>
          <gpxtpx:TrackPointExtension xmlns:gpxtpx="http://www.garmin.com/xmlschemas/TrackPointExtension/v1">
            <gpxtpx:hr>152</gpxtpx:hr>
          </gpxtpx:TrackPointExtension>
        </extensions>
      </trkpt>
      <trkpt lat="42.95071" lon="1.90856">
        <ele>430.6</ele>
        <time>2022-07-25T08:26:13.000Z</time>
        <extensions>
          <gpxtpx:TrackPointExtension xmlns:gpxtpx="http://www.garmin.com/xmlschemas/TrackPointExtension/v1">
            <gpxtpx:hr>152</gpxtpx:hr>
          </gpxtpx:TrackPointExtension>
        </extensions>
      </trkpt>
      <trkpt lat="42.95067" lon="1.90851">
        <ele>430.6</ele>
        <time>2022-07-25T08:26:14.000Z</time>
        <extensions>
          <gpxtpx:TrackPointExtension xmlns:gpxtpx="http://www.garmin.com/xmlschemas/TrackPointExtension/v1">
            <gpxtpx:hr>152</gpxtpx:hr>
          </gpxtpx:TrackPointExtension>
        </extensions>
      </trkpt>
      <trkpt lat="42.95062" lon="1.90846">
        <ele>430.7</ele>
        <time>2022-07-25T08:26:15.000Z</time>
        <extensions>
          <gpxtpx:TrackPointExtension xmlns:gpxtpx="http://www.garmin.com/xmlschemas/TrackPointExtension/v1">
            <gpxtpx:hr>153</gpxtpx:hr>
          </gpxtpx:TrackPointExtension>
        </extensions>
      </trkpt>
      <trkpt lat="42.95058" lon="1.90841">
        <ele>430.7</ele>
        <time>2022-07-25T08:26:16.000Z</time>
        <extensions>
          <gpxtpx:TrackPointExtension xmlns:gpxtpx="http://www.garmin.com/xmlschemas/TrackPointExtension/v1">
            <gpxtpx:hr>153</gpxtpx:hr>
          </gpxtpx:TrackPointExtension>
        </extensions>
      </trkpt>
      <trkpt lat="42.95053" lon="1.90836">
        <ele>430.8</ele>
        <time>2022-07-25T08:26:17.000Z</time>
        <extensions>
          <gpxtpx:TrackPointExtension xmlns:gpxtpx="http://www.garmin.com/xmlschemas/TrackPointExtension/v1">
            <gpxtpx:hr>153</gpxtpx:hr>
          </gpxtpx:TrackPointExtension>
        </extensions>
      </trkpt>
      <trkpt lat="42.95048" lon="1.90831">
        <ele>430.9</ele>
        <time>2022-07-25T08:26:18.000Z</time>
        <extensions>
          <gpxtpx:TrackPointExtension xmlns:gpxtpx="http://www.garmin.com/xmlschemas/TrackPointExtension/v1">
            <gpxtpx:hr>153</gpxtpx:hr>
          </gpxtpx:TrackPointExtension>
        </extensions>
      </trkpt>
      <trkpt lat="42.95043" lon="1.90826">
        <ele>431</ele>
        <time>2022-07-25T08:26:19.000Z</time>
        <extensions>
          <gpxtpx:TrackPointExtension xmlns:gpxtpx="http://www.garmin.com/xmlschemas/TrackPointExtension/v1">
            <gpxtpx:hr>153</gpxtpx:hr>
          </gpxtpx:TrackPointExtension>
        </extensions>
      </trkpt>
      <trkpt lat="42.95039" lon="1.9082">
        <ele>431.1</ele>
        <time>2022-07-25T08:26:20.000Z</time>
        <extensions>
          <gpxtpx:TrackPointExtension xmlns:gpxtpx="http://www.garmin.com/xmlschemas/TrackPointExtension/v1">
            <gpxtpx:hr>154</gpxtpx:hr>
          </gpxtpx:TrackPointExtension>
        </extensions>
      </trkpt>
      <trkpt lat="42.95034" lon="1.90815">
        <ele>431.1</ele>
        <time>2022-07-25T08:26:21.000Z</time>
        <extensions>
          <gpxtpx:TrackPointExtension xmlns:gpxtpx="http://www.garmin.com/xmlschemas/TrackPointExtension/v1">
            <gpxtpx:hr>154</gpxtpx:hr>
          </gpxtpx:TrackPointExtension>
        </extensions>
      </trkpt>
      <trkpt lat="42.9503" lon="1.90811">
        <ele>431.2</ele>
        <time>2022-07-25T08:26:22.000Z</time>
        <extensions>
          <gpxtpx:TrackPointExtension xmlns:gpxtpx="http://www.garmin.com/xmlschemas/TrackPointExtension/v1">
            <gpxtpx:hr>154</gpxtpx:hr>
          </gpxtpx:TrackPointExtension>
        </extensions>
      </trkpt>
      <trkpt lat="42.95025" lon="1.90806">
        <ele>431.3</ele>
        <time>2022-07-25T08:26:23.000Z</time>
        <extensions>
          <gpxtpx:TrackPointExtension xmlns:gpxtpx="http://www.garmin.com/xmlschemas/TrackPointExtension/v1">
            <gpxtpx:hr>154</gpxtpx:hr>
          </gpxtpx:TrackPointExtension>
        </extensions>
      </trkpt>
      <trkpt lat="42.9502" lon="1.90802">
        <ele>431.3</ele>
        <time>2022-07-25T08:26:24.000Z</time>
        <extensions>
          <gpxtpx:TrackPointExtension xmlns:gpxtpx="http://www.garmin.com/xmlschemas/TrackPointExtension/v1">
            <gpxtpx:hr>154</gpxtpx:hr>
          </gpxtpx:TrackPointExtension>
        </extensions>
      </trkpt>
      <trkpt lat="42.95015" lon="1.90799">
        <ele>431.4</ele>
        <time>2022-07-25T08:26:25.000Z</time>
        <extensions>
          <gpxtpx:TrackPointExtension xmlns:gpxtpx="http://www.garmin.com/xmlschemas/TrackPointExtension/v1">
            <gpxtpx:hr>154</gpxtpx:hr>
          </gpxtpx:TrackPointExtension>
        </extensions>
      </trkpt>
      <trkpt lat="42.95009" lon="1.90798">
        <ele>431.4</ele>
        <time>2022-07-25T08:26:26.000Z</time>
        <extensions>
          <gpxtpx:TrackPointExtension xmlns:gpxtpx="http://www.garmin.com/xmlschemas/TrackPointExtension/v1">
            <gpxtpx:hr>154</gpxtpx:hr>
          </gpxtpx:TrackPointExtension>
        </extensions>
      </trkpt>
      <trkpt lat="42.95003" lon="1.90796">
        <ele>431.5</ele>
        <time>2022-07-25T08:26:27.000Z</time>
        <extensions>
          <gpxtpx:TrackPointExtension xmlns:gpxtpx="http://www.garmin.com/xmlschemas/TrackPointExtension/v1">
            <gpxtpx:hr>154</gpxtpx:hr>
          </gpxtpx:TrackPointExtension>
        </extensions>
      </trkpt>
      <trkpt lat="42.94997" lon="1.90796">
        <ele>431.5</ele>
        <time>2022-07-25T08:26:28.000Z</time>
        <extensions>
          <gpxtpx:TrackPointExtension xmlns:gpxtpx="http://www.garmin.com/xmlschemas/TrackPointExtension/v1">
            <gpxtpx:hr>154</gpxtpx:hr>
          </gpxtpx:TrackPointExtension>
        </extensions>
      </trkpt>
      <trkpt lat="42.94992" lon="1.90795">
        <ele>431.5</ele>
        <time>2022-07-25T08:26:29.000Z</time>
        <extensions>
          <gpxtpx:TrackPointExtension xmlns:gpxtpx="http://www.garmin.com/xmlschemas/TrackPointExtension/v1">
            <gpxtpx:hr>154</gpxtpx:hr>
          </gpxtpx:TrackPointExtension>
        </extensions>
      </trkpt>
      <trkpt lat="42.94987" lon="1.90793">
        <ele>431.6</ele>
        <time>2022-07-25T08:26:30.000Z</time>
        <extensions>
          <gpxtpx:TrackPointExtension xmlns:gpxtpx="http://www.garmin.com/xmlschemas/TrackPointExtension/v1">
            <gpxtpx:hr>154</gpxtpx:hr>
          </gpxtpx:TrackPointExtension>
        </extensions>
      </trkpt>
      <trkpt lat="42.94982" lon="1.90792">
        <ele>431.6</ele>
        <time>2022-07-25T08:26:31.000Z</time>
        <extensions>
          <gpxtpx:TrackPointExtension xmlns:gpxtpx="http://www.garmin.com/xmlschemas/TrackPointExtension/v1">
            <gpxtpx:hr>154</gpxtpx:hr>
          </gpxtpx:TrackPointExtension>
        </extensions>
      </trkpt>
      <trkpt lat="42.94977" lon="1.9079">
        <ele>431.7</ele>
        <time>2022-07-25T08:26:32.000Z</time>
        <extensions>
          <gpxtpx:TrackPointExtension xmlns:gpxtpx="http://www.garmin.com/xmlschemas/TrackPointExtension/v1">
            <gpxtpx:hr>154</gpxtpx:hr>
          </gpxtpx:TrackPointExtension>
        </extensions>
      </trkpt>
      <trkpt lat="42.94972" lon="1.90789">
        <ele>431.7</ele>
        <time>2022-07-25T08:26:33.000Z</time>
        <extensions>
          <gpxtpx:TrackPointExtension xmlns:gpxtpx="http://www.garmin.com/xmlschemas/TrackPointExtension/v1">
            <gpxtpx:hr>154</gpxtpx:hr>
          </gpxtpx:TrackPointExtension>
        </extensions>
      </trkpt>
      <trkpt lat="42.94968" lon="1.90787">
        <ele>431.8</ele>
        <time>2022-07-25T08:26:34.000Z</time>
        <extensions>
          <gpxtpx:TrackPointExtension xmlns:gpxtpx="http://www.garmin.com/xmlschemas/TrackPointExtension/v1">
            <gpxtpx:hr>154</gpxtpx:hr>
          </gpxtpx:TrackPointExtension>
        </extensions>
      </trkpt>
      <trkpt lat="42.94964" lon="1.90785">
        <ele>431.8</ele>
        <time>2022-07-25T08:26:35.000Z</time>
        <extensions>
          <gpxtpx:TrackPointExtension xmlns:gpxtpx="http://www.garmin.com/xmlschemas/TrackPointExtension/v1">
            <gpxtpx:hr>154</gpxtpx:hr>
          </gpxtpx:TrackPointExtension>
        </extensions>
      </trkpt>
      <trkpt lat="42.94956" lon="1.90782">
        <ele>432</ele>
        <time>2022-07-25T08:26:37.000Z</time>
        <extensions>
          <gpxtpx:TrackPointExtension xmlns:gpxtpx="http://www.garmin.com/xmlschemas/TrackPointExtension/v1">
            <gpxtpx:hr>154</gpxtpx:hr>
          </gpxtpx:TrackPointExtension>
        </extensions>
      </trkpt>
      <trkpt lat="42.94947" lon="1.90779">
        <ele>432.1</ele>
        <time>2022-07-25T08:26:39.000Z</time>
        <extensions>
          <gpxtpx:TrackPointExtension xmlns:gpxtpx="http://www.garmin.com/xmlschemas/TrackPointExtension/v1">
            <gpxtpx:hr>154</gpxtpx:hr>
          </gpxtpx:TrackPointExtension>
        </extensions>
      </trkpt>
      <trkpt lat="42.94939" lon="1.90776">
        <ele>432.3</ele>
        <time>2022-07-25T08:26:41.000Z</time>
        <extensions>
          <gpxtpx:TrackPointExtension xmlns:gpxtpx="http://www.garmin.com/xmlschemas/TrackPointExtension/v1">
            <gpxtpx:hr>154</gpxtpx:hr>
          </gpxtpx:TrackPointExtension>
        </extensions>
      </trkpt>
      <trkpt lat="42.94931" lon="1.90773">
        <ele>432.6</ele>
        <time>2022-07-25T08:26:43.000Z</time>
        <extensions>
          <gpxtpx:TrackPointExtension xmlns:gpxtpx="http://www.garmin.com/xmlschemas/TrackPointExtension/v1">
            <gpxtpx:hr>153</gpxtpx:hr>
          </gpxtpx:TrackPointExtension>
        </extensions>
      </trkpt>
      <trkpt lat="42.94923" lon="1.90771">
        <ele>432.8</ele>
        <time>2022-07-25T08:26:45.000Z</time>
        <extensions>
          <gpxtpx:TrackPointExtension xmlns:gpxtpx="http://www.garmin.com/xmlschemas/TrackPointExtension/v1">
            <gpxtpx:hr>153</gpxtpx:hr>
          </gpxtpx:TrackPointExtension>
        </extensions>
      </trkpt>
      <trkpt lat="42.94917" lon="1.90767">
        <ele>433.1</ele>
        <time>2022-07-25T08:26:47.000Z</time>
        <extensions>
          <gpxtpx:TrackPointExtension xmlns:gpxtpx="http://www.garmin.com/xmlschemas/TrackPointExtension/v1">
            <gpxtpx:hr>153</gpxtpx:hr>
          </gpxtpx:TrackPointExtension>
        </extensions>
      </trkpt>
      <trkpt lat="42.94909" lon="1.90763">
        <ele>433.5</ele>
        <time>2022-07-25T08:26:49.000Z</time>
        <extensions>
          <gpxtpx:TrackPointExtension xmlns:gpxtpx="http://www.garmin.com/xmlschemas/TrackPointExtension/v1">
            <gpxtpx:hr>153</gpxtpx:hr>
          </gpxtpx:TrackPointExtension>
        </extensions>
      </trkpt>
      <trkpt lat="42.94902" lon="1.90756">
        <ele>433.8</ele>
        <time>2022-07-25T08:26:51.000Z</time>
        <extensions>
          <gpxtpx:TrackPointExtension xmlns:gpxtpx="http://www.garmin.com/xmlschemas/TrackPointExtension/v1">
            <gpxtpx:hr>153</gpxtpx:hr>
          </gpxtpx:TrackPointExtension>
        </extensions>
      </trkpt>
      <trkpt lat="42.94895" lon="1.90749">
        <ele>434</ele>
        <time>2022-07-25T08:26:53.000Z</time>
        <extensions>
          <gpxtpx:TrackPointExtension xmlns:gpxtpx="http://www.garmin.com/xmlschemas/TrackPointExtension/v1">
            <gpxtpx:hr>154</gpxtpx:hr>
          </gpxtpx:TrackPointExtension>
        </extensions>
      </trkpt>
      <trkpt lat="42.94888" lon="1.90743">
        <ele>434.3</ele>
        <time>2022-07-25T08:26:55.000Z</time>
        <extensions>
          <gpxtpx:TrackPointExtension xmlns:gpxtpx="http://www.garmin.com/xmlschemas/TrackPointExtension/v1">
            <gpxtpx:hr>154</gpxtpx:hr>
          </gpxtpx:TrackPointExtension>
        </extensions>
      </trkpt>
      <trkpt lat="42.94881" lon="1.90735">
        <ele>434.6</ele>
        <time>2022-07-25T08:26:57.000Z</time>
        <extensions>
          <gpxtpx:TrackPointExtension xmlns:gpxtpx="http://www.garmin.com/xmlschemas/TrackPointExtension/v1">
            <gpxtpx:hr>155</gpxtpx:hr>
          </gpxtpx:TrackPointExtension>
        </extensions>
      </trkpt>
      <trkpt lat="42.94876" lon="1.90731">
        <ele>434.7</ele>
        <time>2022-07-25T08:26:58.000Z</time>
        <extensions>
          <gpxtpx:TrackPointExtension xmlns:gpxtpx="http://www.garmin.com/xmlschemas/TrackPointExtension/v1">
            <gpxtpx:hr>155</gpxtpx:hr>
          </gpxtpx:TrackPointExtension>
        </extensions>
      </trkpt>
      <trkpt lat="42.94872" lon="1.90728">
        <ele>434.9</ele>
        <time>2022-07-25T08:26:59.000Z</time>
        <extensions>
          <gpxtpx:TrackPointExtension xmlns:gpxtpx="http://www.garmin.com/xmlschemas/TrackPointExtension/v1">
            <gpxtpx:hr>155</gpxtpx:hr>
          </gpxtpx:TrackPointExtension>
        </extensions>
      </trkpt>
      <trkpt lat="42.94868" lon="1.90725">
        <ele>435</ele>
        <time>2022-07-25T08:27:00.000Z</time>
        <extensions>
          <gpxtpx:TrackPointExtension xmlns:gpxtpx="http://www.garmin.com/xmlschemas/TrackPointExtension/v1">
            <gpxtpx:hr>156</gpxtpx:hr>
          </gpxtpx:TrackPointExtension>
        </extensions>
      </trkpt>
      <trkpt lat="42.9486" lon="1.90718">
        <ele>435.2</ele>
        <time>2022-07-25T08:27:02.000Z</time>
        <extensions>
          <gpxtpx:TrackPointExtension xmlns:gpxtpx="http://www.garmin.com/xmlschemas/TrackPointExtension/v1">
            <gpxtpx:hr>156</gpxtpx:hr>
          </gpxtpx:TrackPointExtension>
        </extensions>
      </trkpt>
      <trkpt lat="42.94855" lon="1.90715">
        <ele>435.3</ele>
        <time>2022-07-25T08:27:03.000Z</time>
        <extensions>
          <gpxtpx:TrackPointExtension xmlns:gpxtpx="http://www.garmin.com/xmlschemas/TrackPointExtension/v1">
            <gpxtpx:hr>156</gpxtpx:hr>
          </gpxtpx:TrackPointExtension>
        </extensions>
      </trkpt>
      <trkpt lat="42.9485" lon="1.90713">
        <ele>435.4</ele>
        <time>2022-07-25T08:27:04.000Z</time>
        <extensions>
          <gpxtpx:TrackPointExtension xmlns:gpxtpx="http://www.garmin.com/xmlschemas/TrackPointExtension/v1">
            <gpxtpx:hr>156</gpxtpx:hr>
          </gpxtpx:TrackPointExtension>
        </extensions>
      </trkpt>
      <trkpt lat="42.94844" lon="1.9071">
        <ele>435.5</ele>
        <time>2022-07-25T08:27:05.000Z</time>
        <extensions>
          <gpxtpx:TrackPointExtension xmlns:gpxtpx="http://www.garmin.com/xmlschemas/TrackPointExtension/v1">
            <gpxtpx:hr>157</gpxtpx:hr>
          </gpxtpx:TrackPointExtension>
        </extensions>
      </trkpt>
      <trkpt lat="42.94838" lon="1.90708">
        <ele>435.6</ele>
        <time>2022-07-25T08:27:06.000Z</time>
        <extensions>
          <gpxtpx:TrackPointExtension xmlns:gpxtpx="http://www.garmin.com/xmlschemas/TrackPointExtension/v1">
            <gpxtpx:hr>157</gpxtpx:hr>
          </gpxtpx:TrackPointExtension>
        </extensions>
      </trkpt>
      <trkpt lat="42.94833" lon="1.90706">
        <ele>435.6</ele>
        <time>2022-07-25T08:27:07.000Z</time>
        <extensions>
          <gpxtpx:TrackPointExtension xmlns:gpxtpx="http://www.garmin.com/xmlschemas/TrackPointExtension/v1">
            <gpxtpx:hr>157</gpxtpx:hr>
          </gpxtpx:TrackPointExtension>
        </extensions>
      </trkpt>
      <trkpt lat="42.94828" lon="1.90703">
        <ele>435.6</ele>
        <time>2022-07-25T08:27:08.000Z</time>
        <extensions>
          <gpxtpx:TrackPointExtension xmlns:gpxtpx="http://www.garmin.com/xmlschemas/TrackPointExtension/v1">
            <gpxtpx:hr>157</gpxtpx:hr>
          </gpxtpx:TrackPointExtension>
        </extensions>
      </trkpt>
      <trkpt lat="42.94823" lon="1.90701">
        <ele>435.7</ele>
        <time>2022-07-25T08:27:09.000Z</time>
        <extensions>
          <gpxtpx:TrackPointExtension xmlns:gpxtpx="http://www.garmin.com/xmlschemas/TrackPointExtension/v1">
            <gpxtpx:hr>157</gpxtpx:hr>
          </gpxtpx:TrackPointExtension>
        </extensions>
      </trkpt>
      <trkpt lat="42.94815" lon="1.90697">
        <ele>435.7</ele>
        <time>2022-07-25T08:27:11.000Z</time>
        <extensions>
          <gpxtpx:TrackPointExtension xmlns:gpxtpx="http://www.garmin.com/xmlschemas/TrackPointExtension/v1">
            <gpxtpx:hr>157</gpxtpx:hr>
          </gpxtpx:TrackPointExtension>
        </extensions>
      </trkpt>
      <trkpt lat="42.94809" lon="1.90692">
        <ele>435.8</ele>
        <time>2022-07-25T08:27:13.000Z</time>
        <extensions>
          <gpxtpx:TrackPointExtension xmlns:gpxtpx="http://www.garmin.com/xmlschemas/TrackPointExtension/v1">
            <gpxtpx:hr>157</gpxtpx:hr>
          </gpxtpx:TrackPointExtension>
        </extensions>
      </trkpt>
      <trkpt lat="42.94803" lon="1.90686">
        <ele>435.9</ele>
        <time>2022-07-25T08:27:15.000Z</time>
        <extensions>
          <gpxtpx:TrackPointExtension xmlns:gpxtpx="http://www.garmin.com/xmlschemas/TrackPointExtension/v1">
            <gpxtpx:hr>157</gpxtpx:hr>
          </gpxtpx:TrackPointExtension>
        </extensions>
      </trkpt>
      <trkpt lat="42.94796" lon="1.90681">
        <ele>435.9</ele>
        <time>2022-07-25T08:27:17.000Z</time>
        <extensions>
          <gpxtpx:TrackPointExtension xmlns:gpxtpx="http://www.garmin.com/xmlschemas/TrackPointExtension/v1">
            <gpxtpx:hr>157</gpxtpx:hr>
          </gpxtpx:TrackPointExtension>
        </extensions>
      </trkpt>
      <trkpt lat="42.94789" lon="1.90676">
        <ele>435.9</ele>
        <time>2022-07-25T08:27:19.000Z</time>
        <extensions>
          <gpxtpx:TrackPointExtension xmlns:gpxtpx="http://www.garmin.com/xmlschemas/TrackPointExtension/v1">
            <gpxtpx:hr>157</gpxtpx:hr>
          </gpxtpx:TrackPointExtension>
        </extensions>
      </trkpt>
      <trkpt lat="42.94785" lon="1.90673">
        <ele>436</ele>
        <time>2022-07-25T08:27:20.000Z</time>
        <extensions>
          <gpxtpx:TrackPointExtension xmlns:gpxtpx="http://www.garmin.com/xmlschemas/TrackPointExtension/v1">
            <gpxtpx:hr>157</gpxtpx:hr>
          </gpxtpx:TrackPointExtension>
        </extensions>
      </trkpt>
      <trkpt lat="42.94778" lon="1.90667">
        <ele>436</ele>
        <time>2022-07-25T08:27:22.000Z</time>
        <extensions>
          <gpxtpx:TrackPointExtension xmlns:gpxtpx="http://www.garmin.com/xmlschemas/TrackPointExtension/v1">
            <gpxtpx:hr>157</gpxtpx:hr>
          </gpxtpx:TrackPointExtension>
        </extensions>
      </trkpt>
      <trkpt lat="42.94771" lon="1.90663">
        <ele>436</ele>
        <time>2022-07-25T08:27:24.000Z</time>
        <extensions>
          <gpxtpx:TrackPointExtension xmlns:gpxtpx="http://www.garmin.com/xmlschemas/TrackPointExtension/v1">
            <gpxtpx:hr>156</gpxtpx:hr>
          </gpxtpx:TrackPointExtension>
        </extensions>
      </trkpt>
      <trkpt lat="42.94765" lon="1.90658">
        <ele>436</ele>
        <time>2022-07-25T08:27:26.000Z</time>
        <extensions>
          <gpxtpx:TrackPointExtension xmlns:gpxtpx="http://www.garmin.com/xmlschemas/TrackPointExtension/v1">
            <gpxtpx:hr>155</gpxtpx:hr>
          </gpxtpx:TrackPointExtension>
        </extensions>
      </trkpt>
      <trkpt lat="42.94761" lon="1.90653">
        <ele>436.1</ele>
        <time>2022-07-25T08:27:27.000Z</time>
        <extensions>
          <gpxtpx:TrackPointExtension xmlns:gpxtpx="http://www.garmin.com/xmlschemas/TrackPointExtension/v1">
            <gpxtpx:hr>155</gpxtpx:hr>
          </gpxtpx:TrackPointExtension>
        </extensions>
      </trkpt>
      <trkpt lat="42.94758" lon="1.90648">
        <ele>436.1</ele>
        <time>2022-07-25T08:27:28.000Z</time>
        <extensions>
          <gpxtpx:TrackPointExtension xmlns:gpxtpx="http://www.garmin.com/xmlschemas/TrackPointExtension/v1">
            <gpxtpx:hr>155</gpxtpx:hr>
          </gpxtpx:TrackPointExtension>
        </extensions>
      </trkpt>
      <trkpt lat="42.94754" lon="1.90643">
        <ele>436.1</ele>
        <time>2022-07-25T08:27:29.000Z</time>
        <extensions>
          <gpxtpx:TrackPointExtension xmlns:gpxtpx="http://www.garmin.com/xmlschemas/TrackPointExtension/v1">
            <gpxtpx:hr>154</gpxtpx:hr>
          </gpxtpx:TrackPointExtension>
        </extensions>
      </trkpt>
      <trkpt lat="42.9475" lon="1.90638">
        <ele>436.1</ele>
        <time>2022-07-25T08:27:30.000Z</time>
        <extensions>
          <gpxtpx:TrackPointExtension xmlns:gpxtpx="http://www.garmin.com/xmlschemas/TrackPointExtension/v1">
            <gpxtpx:hr>154</gpxtpx:hr>
          </gpxtpx:TrackPointExtension>
        </extensions>
      </trkpt>
      <trkpt lat="42.94746" lon="1.90632">
        <ele>436.1</ele>
        <time>2022-07-25T08:27:31.000Z</time>
        <extensions>
          <gpxtpx:TrackPointExtension xmlns:gpxtpx="http://www.garmin.com/xmlschemas/TrackPointExtension/v1">
            <gpxtpx:hr>154</gpxtpx:hr>
          </gpxtpx:TrackPointExtension>
        </extensions>
      </trkpt>
      <trkpt lat="42.94742" lon="1.90627">
        <ele>436.1</ele>
        <time>2022-07-25T08:27:32.000Z</time>
        <extensions>
          <gpxtpx:TrackPointExtension xmlns:gpxtpx="http://www.garmin.com/xmlschemas/TrackPointExtension/v1">
            <gpxtpx:hr>154</gpxtpx:hr>
          </gpxtpx:TrackPointExtension>
        </extensions>
      </trkpt>
      <trkpt lat="42.94738" lon="1.90623">
        <ele>436.1</ele>
        <time>2022-07-25T08:27:33.000Z</time>
        <extensions>
          <gpxtpx:TrackPointExtension xmlns:gpxtpx="http://www.garmin.com/xmlschemas/TrackPointExtension/v1">
            <gpxtpx:hr>154</gpxtpx:hr>
          </gpxtpx:TrackPointExtension>
        </extensions>
      </trkpt>
      <trkpt lat="42.94731" lon="1.90618">
        <ele>436.1</ele>
        <time>2022-07-25T08:27:35.000Z</time>
        <extensions>
          <gpxtpx:TrackPointExtension xmlns:gpxtpx="http://www.garmin.com/xmlschemas/TrackPointExtension/v1">
            <gpxtpx:hr>154</gpxtpx:hr>
          </gpxtpx:TrackPointExtension>
        </extensions>
      </trkpt>
      <trkpt lat="42.94725" lon="1.90612">
        <ele>436.1</ele>
        <time>2022-07-25T08:27:37.000Z</time>
        <extensions>
          <gpxtpx:TrackPointExtension xmlns:gpxtpx="http://www.garmin.com/xmlschemas/TrackPointExtension/v1">
            <gpxtpx:hr>153</gpxtpx:hr>
          </gpxtpx:TrackPointExtension>
        </extensions>
      </trkpt>
      <trkpt lat="42.94722" lon="1.90603">
        <ele>436.2</ele>
        <time>2022-07-25T08:27:39.000Z</time>
        <extensions>
          <gpxtpx:TrackPointExtension xmlns:gpxtpx="http://www.garmin.com/xmlschemas/TrackPointExtension/v1">
            <gpxtpx:hr>153</gpxtpx:hr>
          </gpxtpx:TrackPointExtension>
        </extensions>
      </trkpt>
      <trkpt lat="42.94722" lon="1.90594">
        <ele>436.2</ele>
        <time>2022-07-25T08:27:41.000Z</time>
        <extensions>
          <gpxtpx:TrackPointExtension xmlns:gpxtpx="http://www.garmin.com/xmlschemas/TrackPointExtension/v1">
            <gpxtpx:hr>153</gpxtpx:hr>
          </gpxtpx:TrackPointExtension>
        </extensions>
      </trkpt>
      <trkpt lat="42.94723" lon="1.90583">
        <ele>436.2</ele>
        <time>2022-07-25T08:27:43.000Z</time>
        <extensions>
          <gpxtpx:TrackPointExtension xmlns:gpxtpx="http://www.garmin.com/xmlschemas/TrackPointExtension/v1">
            <gpxtpx:hr>153</gpxtpx:hr>
          </gpxtpx:TrackPointExtension>
        </extensions>
      </trkpt>
      <trkpt lat="42.94722" lon="1.90573">
        <ele>436.3</ele>
        <time>2022-07-25T08:27:45.000Z</time>
        <extensions>
          <gpxtpx:TrackPointExtension xmlns:gpxtpx="http://www.garmin.com/xmlschemas/TrackPointExtension/v1">
            <gpxtpx:hr>153</gpxtpx:hr>
          </gpxtpx:TrackPointExtension>
        </extensions>
      </trkpt>
      <trkpt lat="42.94721" lon="1.90563">
        <ele>436.4</ele>
        <time>2022-07-25T08:27:47.000Z</time>
        <extensions>
          <gpxtpx:TrackPointExtension xmlns:gpxtpx="http://www.garmin.com/xmlschemas/TrackPointExtension/v1">
            <gpxtpx:hr>153</gpxtpx:hr>
          </gpxtpx:TrackPointExtension>
        </extensions>
      </trkpt>
      <trkpt lat="42.94719" lon="1.90552">
        <ele>436.5</ele>
        <time>2022-07-25T08:27:49.000Z</time>
        <extensions>
          <gpxtpx:TrackPointExtension xmlns:gpxtpx="http://www.garmin.com/xmlschemas/TrackPointExtension/v1">
            <gpxtpx:hr>153</gpxtpx:hr>
          </gpxtpx:TrackPointExtension>
        </extensions>
      </trkpt>
      <trkpt lat="42.94718" lon="1.90542">
        <ele>436.6</ele>
        <time>2022-07-25T08:27:51.000Z</time>
        <extensions>
          <gpxtpx:TrackPointExtension xmlns:gpxtpx="http://www.garmin.com/xmlschemas/TrackPointExtension/v1">
            <gpxtpx:hr>152</gpxtpx:hr>
          </gpxtpx:TrackPointExtension>
        </extensions>
      </trkpt>
      <trkpt lat="42.94718" lon="1.90533">
        <ele>436.8</ele>
        <time>2022-07-25T08:27:53.000Z</time>
        <extensions>
          <gpxtpx:TrackPointExtension xmlns:gpxtpx="http://www.garmin.com/xmlschemas/TrackPointExtension/v1">
            <gpxtpx:hr>152</gpxtpx:hr>
          </gpxtpx:TrackPointExtension>
        </extensions>
      </trkpt>
      <trkpt lat="42.94719" lon="1.90526">
        <ele>437.1</ele>
        <time>2022-07-25T08:27:55.000Z</time>
        <extensions>
          <gpxtpx:TrackPointExtension xmlns:gpxtpx="http://www.garmin.com/xmlschemas/TrackPointExtension/v1">
            <gpxtpx:hr>152</gpxtpx:hr>
          </gpxtpx:TrackPointExtension>
        </extensions>
      </trkpt>
      <trkpt lat="42.94719" lon="1.90517">
        <ele>437.4</ele>
        <time>2022-07-25T08:27:57.000Z</time>
        <extensions>
          <gpxtpx:TrackPointExtension xmlns:gpxtpx="http://www.garmin.com/xmlschemas/TrackPointExtension/v1">
            <gpxtpx:hr>152</gpxtpx:hr>
          </gpxtpx:TrackPointExtension>
        </extensions>
      </trkpt>
      <trkpt lat="42.94718" lon="1.90509">
        <ele>437.5</ele>
        <time>2022-07-25T08:27:58.000Z</time>
        <extensions>
          <gpxtpx:TrackPointExtension xmlns:gpxtpx="http://www.garmin.com/xmlschemas/TrackPointExtension/v1">
            <gpxtpx:hr>152</gpxtpx:hr>
          </gpxtpx:TrackPointExtension>
        </extensions>
      </trkpt>
      <trkpt lat="42.94717" lon="1.905">
        <ele>437.8</ele>
        <time>2022-07-25T08:28:00.000Z</time>
        <extensions>
          <gpxtpx:TrackPointExtension xmlns:gpxtpx="http://www.garmin.com/xmlschemas/TrackPointExtension/v1">
            <gpxtpx:hr>152</gpxtpx:hr>
          </gpxtpx:TrackPointExtension>
        </extensions>
      </trkpt>
      <trkpt lat="42.94716" lon="1.90492">
        <ele>438.1</ele>
        <time>2022-07-25T08:28:02.000Z</time>
        <extensions>
          <gpxtpx:TrackPointExtension xmlns:gpxtpx="http://www.garmin.com/xmlschemas/TrackPointExtension/v1">
            <gpxtpx:hr>152</gpxtpx:hr>
          </gpxtpx:TrackPointExtension>
        </extensions>
      </trkpt>
      <trkpt lat="42.94716" lon="1.90484">
        <ele>438.4</ele>
        <time>2022-07-25T08:28:04.000Z</time>
        <extensions>
          <gpxtpx:TrackPointExtension xmlns:gpxtpx="http://www.garmin.com/xmlschemas/TrackPointExtension/v1">
            <gpxtpx:hr>153</gpxtpx:hr>
          </gpxtpx:TrackPointExtension>
        </extensions>
      </trkpt>
      <trkpt lat="42.94719" lon="1.90477">
        <ele>438.6</ele>
        <time>2022-07-25T08:28:06.000Z</time>
        <extensions>
          <gpxtpx:TrackPointExtension xmlns:gpxtpx="http://www.garmin.com/xmlschemas/TrackPointExtension/v1">
            <gpxtpx:hr>154</gpxtpx:hr>
          </gpxtpx:TrackPointExtension>
        </extensions>
      </trkpt>
      <trkpt lat="42.94722" lon="1.9047">
        <ele>438.8</ele>
        <time>2022-07-25T08:28:08.000Z</time>
        <extensions>
          <gpxtpx:TrackPointExtension xmlns:gpxtpx="http://www.garmin.com/xmlschemas/TrackPointExtension/v1">
            <gpxtpx:hr>154</gpxtpx:hr>
          </gpxtpx:TrackPointExtension>
        </extensions>
      </trkpt>
      <trkpt lat="42.94725" lon="1.90464">
        <ele>439</ele>
        <time>2022-07-25T08:28:10.000Z</time>
        <extensions>
          <gpxtpx:TrackPointExtension xmlns:gpxtpx="http://www.garmin.com/xmlschemas/TrackPointExtension/v1">
            <gpxtpx:hr>155</gpxtpx:hr>
          </gpxtpx:TrackPointExtension>
        </extensions>
      </trkpt>
      <trkpt lat="42.94728" lon="1.90456">
        <ele>439.3</ele>
        <time>2022-07-25T08:28:13.000Z</time>
        <extensions>
          <gpxtpx:TrackPointExtension xmlns:gpxtpx="http://www.garmin.com/xmlschemas/TrackPointExtension/v1">
            <gpxtpx:hr>156</gpxtpx:hr>
          </gpxtpx:TrackPointExtension>
        </extensions>
      </trkpt>
      <trkpt lat="42.94728" lon="1.90447">
        <ele>439.7</ele>
        <time>2022-07-25T08:28:16.000Z</time>
        <extensions>
          <gpxtpx:TrackPointExtension xmlns:gpxtpx="http://www.garmin.com/xmlschemas/TrackPointExtension/v1">
            <gpxtpx:hr>158</gpxtpx:hr>
          </gpxtpx:TrackPointExtension>
        </extensions>
      </trkpt>
      <trkpt lat="42.94728" lon="1.90438">
        <ele>440.1</ele>
        <time>2022-07-25T08:28:19.000Z</time>
        <extensions>
          <gpxtpx:TrackPointExtension xmlns:gpxtpx="http://www.garmin.com/xmlschemas/TrackPointExtension/v1">
            <gpxtpx:hr>159</gpxtpx:hr>
          </gpxtpx:TrackPointExtension>
        </extensions>
      </trkpt>
      <trkpt lat="42.9473" lon="1.90429">
        <ele>440.4</ele>
        <time>2022-07-25T08:28:21.000Z</time>
        <extensions>
          <gpxtpx:TrackPointExtension xmlns:gpxtpx="http://www.garmin.com/xmlschemas/TrackPointExtension/v1">
            <gpxtpx:hr>159</gpxtpx:hr>
          </gpxtpx:TrackPointExtension>
        </extensions>
      </trkpt>
      <trkpt lat="42.9473" lon="1.90421">
        <ele>440.6</ele>
        <time>2022-07-25T08:28:23.000Z</time>
        <extensions>
          <gpxtpx:TrackPointExtension xmlns:gpxtpx="http://www.garmin.com/xmlschemas/TrackPointExtension/v1">
            <gpxtpx:hr>160</gpxtpx:hr>
          </gpxtpx:TrackPointExtension>
        </extensions>
      </trkpt>
      <trkpt lat="42.94729" lon="1.90412">
        <ele>440.8</ele>
        <time>2022-07-25T08:28:25.000Z</time>
        <extensions>
          <gpxtpx:TrackPointExtension xmlns:gpxtpx="http://www.garmin.com/xmlschemas/TrackPointExtension/v1">
            <gpxtpx:hr>160</gpxtpx:hr>
          </gpxtpx:TrackPointExtension>
        </extensions>
      </trkpt>
      <trkpt lat="42.94728" lon="1.90404">
        <ele>440.9</ele>
        <time>2022-07-25T08:28:27.000Z</time>
        <extensions>
          <gpxtpx:TrackPointExtension xmlns:gpxtpx="http://www.garmin.com/xmlschemas/TrackPointExtension/v1">
            <gpxtpx:hr>160</gpxtpx:hr>
          </gpxtpx:TrackPointExtension>
        </extensions>
      </trkpt>
      <trkpt lat="42.94728" lon="1.90394">
        <ele>441.1</ele>
        <time>2022-07-25T08:28:29.000Z</time>
        <extensions>
          <gpxtpx:TrackPointExtension xmlns:gpxtpx="http://www.garmin.com/xmlschemas/TrackPointExtension/v1">
            <gpxtpx:hr>160</gpxtpx:hr>
          </gpxtpx:TrackPointExtension>
        </extensions>
      </trkpt>
      <trkpt lat="42.94728" lon="1.90386">
        <ele>441.2</ele>
        <time>2022-07-25T08:28:31.000Z</time>
        <extensions>
          <gpxtpx:TrackPointExtension xmlns:gpxtpx="http://www.garmin.com/xmlschemas/TrackPointExtension/v1">
            <gpxtpx:hr>160</gpxtpx:hr>
          </gpxtpx:TrackPointExtension>
        </extensions>
      </trkpt>
      <trkpt lat="42.94725" lon="1.90375">
        <ele>441.3</ele>
        <time>2022-07-25T08:28:33.000Z</time>
        <extensions>
          <gpxtpx:TrackPointExtension xmlns:gpxtpx="http://www.garmin.com/xmlschemas/TrackPointExtension/v1">
            <gpxtpx:hr>160</gpxtpx:hr>
          </gpxtpx:TrackPointExtension>
        </extensions>
      </trkpt>
      <trkpt lat="42.94722" lon="1.90365">
        <ele>441.3</ele>
        <time>2022-07-25T08:28:35.000Z</time>
        <extensions>
          <gpxtpx:TrackPointExtension xmlns:gpxtpx="http://www.garmin.com/xmlschemas/TrackPointExtension/v1">
            <gpxtpx:hr>160</gpxtpx:hr>
          </gpxtpx:TrackPointExtension>
        </extensions>
      </trkpt>
      <trkpt lat="42.94721" lon="1.90359">
        <ele>441.3</ele>
        <time>2022-07-25T08:28:36.000Z</time>
        <extensions>
          <gpxtpx:TrackPointExtension xmlns:gpxtpx="http://www.garmin.com/xmlschemas/TrackPointExtension/v1">
            <gpxtpx:hr>160</gpxtpx:hr>
          </gpxtpx:TrackPointExtension>
        </extensions>
      </trkpt>
      <trkpt lat="42.9472" lon="1.90349">
        <ele>441.4</ele>
        <time>2022-07-25T08:28:38.000Z</time>
        <extensions>
          <gpxtpx:TrackPointExtension xmlns:gpxtpx="http://www.garmin.com/xmlschemas/TrackPointExtension/v1">
            <gpxtpx:hr>160</gpxtpx:hr>
          </gpxtpx:TrackPointExtension>
        </extensions>
      </trkpt>
      <trkpt lat="42.94719" lon="1.90341">
        <ele>441.4</ele>
        <time>2022-07-25T08:28:40.000Z</time>
        <extensions>
          <gpxtpx:TrackPointExtension xmlns:gpxtpx="http://www.garmin.com/xmlschemas/TrackPointExtension/v1">
            <gpxtpx:hr>160</gpxtpx:hr>
          </gpxtpx:TrackPointExtension>
        </extensions>
      </trkpt>
      <trkpt lat="42.94716" lon="1.90334">
        <ele>441.3</ele>
        <time>2022-07-25T08:28:42.000Z</time>
        <extensions>
          <gpxtpx:TrackPointExtension xmlns:gpxtpx="http://www.garmin.com/xmlschemas/TrackPointExtension/v1">
            <gpxtpx:hr>160</gpxtpx:hr>
          </gpxtpx:TrackPointExtension>
        </extensions>
      </trkpt>
      <trkpt lat="42.94714" lon="1.90328">
        <ele>441.3</ele>
        <time>2022-07-25T08:28:44.000Z</time>
        <extensions>
          <gpxtpx:TrackPointExtension xmlns:gpxtpx="http://www.garmin.com/xmlschemas/TrackPointExtension/v1">
            <gpxtpx:hr>160</gpxtpx:hr>
          </gpxtpx:TrackPointExtension>
        </extensions>
      </trkpt>
      <trkpt lat="42.9471" lon="1.90324">
        <ele>441.1</ele>
        <time>2022-07-25T08:28:46.000Z</time>
        <extensions>
          <gpxtpx:TrackPointExtension xmlns:gpxtpx="http://www.garmin.com/xmlschemas/TrackPointExtension/v1">
            <gpxtpx:hr>159</gpxtpx:hr>
          </gpxtpx:TrackPointExtension>
        </extensions>
      </trkpt>
      <trkpt lat="42.94702" lon="1.90321">
        <ele>440.9</ele>
        <time>2022-07-25T08:28:48.000Z</time>
        <extensions>
          <gpxtpx:TrackPointExtension xmlns:gpxtpx="http://www.garmin.com/xmlschemas/TrackPointExtension/v1">
            <gpxtpx:hr>158</gpxtpx:hr>
          </gpxtpx:TrackPointExtension>
        </extensions>
      </trkpt>
      <trkpt lat="42.94694" lon="1.9032">
        <ele>440.7</ele>
        <time>2022-07-25T08:28:50.000Z</time>
        <extensions>
          <gpxtpx:TrackPointExtension xmlns:gpxtpx="http://www.garmin.com/xmlschemas/TrackPointExtension/v1">
            <gpxtpx:hr>158</gpxtpx:hr>
          </gpxtpx:TrackPointExtension>
        </extensions>
      </trkpt>
      <trkpt lat="42.94688" lon="1.90318">
        <ele>440.6</ele>
        <time>2022-07-25T08:28:52.000Z</time>
        <extensions>
          <gpxtpx:TrackPointExtension xmlns:gpxtpx="http://www.garmin.com/xmlschemas/TrackPointExtension/v1">
            <gpxtpx:hr>157</gpxtpx:hr>
          </gpxtpx:TrackPointExtension>
        </extensions>
      </trkpt>
      <trkpt lat="42.94682" lon="1.90316">
        <ele>440.5</ele>
        <time>2022-07-25T08:28:54.000Z</time>
        <extensions>
          <gpxtpx:TrackPointExtension xmlns:gpxtpx="http://www.garmin.com/xmlschemas/TrackPointExtension/v1">
            <gpxtpx:hr>157</gpxtpx:hr>
          </gpxtpx:TrackPointExtension>
        </extensions>
      </trkpt>
      <trkpt lat="42.94677" lon="1.90313">
        <ele>440.4</ele>
        <time>2022-07-25T08:28:56.000Z</time>
        <extensions>
          <gpxtpx:TrackPointExtension xmlns:gpxtpx="http://www.garmin.com/xmlschemas/TrackPointExtension/v1">
            <gpxtpx:hr>157</gpxtpx:hr>
          </gpxtpx:TrackPointExtension>
        </extensions>
      </trkpt>
      <trkpt lat="42.9467" lon="1.90313">
        <ele>440.3</ele>
        <time>2022-07-25T08:28:58.000Z</time>
        <extensions>
          <gpxtpx:TrackPointExtension xmlns:gpxtpx="http://www.garmin.com/xmlschemas/TrackPointExtension/v1">
            <gpxtpx:hr>157</gpxtpx:hr>
          </gpxtpx:TrackPointExtension>
        </extensions>
      </trkpt>
      <trkpt lat="42.94663" lon="1.90313">
        <ele>440.2</ele>
        <time>2022-07-25T08:29:00.000Z</time>
        <extensions>
          <gpxtpx:TrackPointExtension xmlns:gpxtpx="http://www.garmin.com/xmlschemas/TrackPointExtension/v1">
            <gpxtpx:hr>157</gpxtpx:hr>
          </gpxtpx:TrackPointExtension>
        </extensions>
      </trkpt>
      <trkpt lat="42.94657" lon="1.9031">
        <ele>440.1</ele>
        <time>2022-07-25T08:29:02.000Z</time>
        <extensions>
          <gpxtpx:TrackPointExtension xmlns:gpxtpx="http://www.garmin.com/xmlschemas/TrackPointExtension/v1">
            <gpxtpx:hr>157</gpxtpx:hr>
          </gpxtpx:TrackPointExtension>
        </extensions>
      </trkpt>
      <trkpt lat="42.94651" lon="1.90302">
        <ele>440.1</ele>
        <time>2022-07-25T08:29:04.000Z</time>
        <extensions>
          <gpxtpx:TrackPointExtension xmlns:gpxtpx="http://www.garmin.com/xmlschemas/TrackPointExtension/v1">
            <gpxtpx:hr>157</gpxtpx:hr>
          </gpxtpx:TrackPointExtension>
        </extensions>
      </trkpt>
      <trkpt lat="42.94648" lon="1.90297">
        <ele>440.1</ele>
        <time>2022-07-25T08:29:05.000Z</time>
        <extensions>
          <gpxtpx:TrackPointExtension xmlns:gpxtpx="http://www.garmin.com/xmlschemas/TrackPointExtension/v1">
            <gpxtpx:hr>157</gpxtpx:hr>
          </gpxtpx:TrackPointExtension>
        </extensions>
      </trkpt>
      <trkpt lat="42.94645" lon="1.90291">
        <ele>440.1</ele>
        <time>2022-07-25T08:29:06.000Z</time>
        <extensions>
          <gpxtpx:TrackPointExtension xmlns:gpxtpx="http://www.garmin.com/xmlschemas/TrackPointExtension/v1">
            <gpxtpx:hr>157</gpxtpx:hr>
          </gpxtpx:TrackPointExtension>
        </extensions>
      </trkpt>
      <trkpt lat="42.94639" lon="1.90285">
        <ele>440.2</ele>
        <time>2022-07-25T08:29:08.000Z</time>
        <extensions>
          <gpxtpx:TrackPointExtension xmlns:gpxtpx="http://www.garmin.com/xmlschemas/TrackPointExtension/v1">
            <gpxtpx:hr>157</gpxtpx:hr>
          </gpxtpx:TrackPointExtension>
        </extensions>
      </trkpt>
      <trkpt lat="42.94635" lon="1.9028">
        <ele>440.2</ele>
        <time>2022-07-25T08:29:09.000Z</time>
        <extensions>
          <gpxtpx:TrackPointExtension xmlns:gpxtpx="http://www.garmin.com/xmlschemas/TrackPointExtension/v1">
            <gpxtpx:hr>156</gpxtpx:hr>
          </gpxtpx:TrackPointExtension>
        </extensions>
      </trkpt>
      <trkpt lat="42.94631" lon="1.90276">
        <ele>440.2</ele>
        <time>2022-07-25T08:29:10.000Z</time>
        <extensions>
          <gpxtpx:TrackPointExtension xmlns:gpxtpx="http://www.garmin.com/xmlschemas/TrackPointExtension/v1">
            <gpxtpx:hr>156</gpxtpx:hr>
          </gpxtpx:TrackPointExtension>
        </extensions>
      </trkpt>
      <trkpt lat="42.94625" lon="1.90275">
        <ele>440.2</ele>
        <time>2022-07-25T08:29:11.000Z</time>
        <extensions>
          <gpxtpx:TrackPointExtension xmlns:gpxtpx="http://www.garmin.com/xmlschemas/TrackPointExtension/v1">
            <gpxtpx:hr>156</gpxtpx:hr>
          </gpxtpx:TrackPointExtension>
        </extensions>
      </trkpt>
      <trkpt lat="42.94621" lon="1.90274">
        <ele>440.2</ele>
        <time>2022-07-25T08:29:12.000Z</time>
        <extensions>
          <gpxtpx:TrackPointExtension xmlns:gpxtpx="http://www.garmin.com/xmlschemas/TrackPointExtension/v1">
            <gpxtpx:hr>156</gpxtpx:hr>
          </gpxtpx:TrackPointExtension>
        </extensions>
      </trkpt>
      <trkpt lat="42.94614" lon="1.90275">
        <ele>440.2</ele>
        <time>2022-07-25T08:29:14.000Z</time>
        <extensions>
          <gpxtpx:TrackPointExtension xmlns:gpxtpx="http://www.garmin.com/xmlschemas/TrackPointExtension/v1">
            <gpxtpx:hr>156</gpxtpx:hr>
          </gpxtpx:TrackPointExtension>
        </extensions>
      </trkpt>
      <trkpt lat="42.94609" lon="1.90275">
        <ele>440.2</ele>
        <time>2022-07-25T08:29:18.000Z</time>
        <extensions>
          <gpxtpx:TrackPointExtension xmlns:gpxtpx="http://www.garmin.com/xmlschemas/TrackPointExtension/v1">
            <gpxtpx:hr>156</gpxtpx:hr>
          </gpxtpx:TrackPointExtension>
        </extensions>
      </trkpt>
      <trkpt lat="42.94602" lon="1.90277">
        <ele>440.2</ele>
        <time>2022-07-25T08:29:21.000Z</time>
        <extensions>
          <gpxtpx:TrackPointExtension xmlns:gpxtpx="http://www.garmin.com/xmlschemas/TrackPointExtension/v1">
            <gpxtpx:hr>155</gpxtpx:hr>
          </gpxtpx:TrackPointExtension>
        </extensions>
      </trkpt>
      <trkpt lat="42.94598" lon="1.90279">
        <ele>440.2</ele>
        <time>2022-07-25T08:29:23.000Z</time>
        <extensions>
          <gpxtpx:TrackPointExtension xmlns:gpxtpx="http://www.garmin.com/xmlschemas/TrackPointExtension/v1">
            <gpxtpx:hr>155</gpxtpx:hr>
          </gpxtpx:TrackPointExtension>
        </extensions>
      </trkpt>
      <trkpt lat="42.94593" lon="1.90284">
        <ele>440.2</ele>
        <time>2022-07-25T08:29:26.000Z</time>
        <extensions>
          <gpxtpx:TrackPointExtension xmlns:gpxtpx="http://www.garmin.com/xmlschemas/TrackPointExtension/v1">
            <gpxtpx:hr>156</gpxtpx:hr>
          </gpxtpx:TrackPointExtension>
        </extensions>
      </trkpt>
      <trkpt lat="42.94588" lon="1.90288">
        <ele>440.4</ele>
        <time>2022-07-25T08:29:29.000Z</time>
        <extensions>
          <gpxtpx:TrackPointExtension xmlns:gpxtpx="http://www.garmin.com/xmlschemas/TrackPointExtension/v1">
            <gpxtpx:hr>156</gpxtpx:hr>
          </gpxtpx:TrackPointExtension>
        </extensions>
      </trkpt>
      <trkpt lat="42.94584" lon="1.90293">
        <ele>440.8</ele>
        <time>2022-07-25T08:29:32.000Z</time>
        <extensions>
          <gpxtpx:TrackPointExtension xmlns:gpxtpx="http://www.garmin.com/xmlschemas/TrackPointExtension/v1">
            <gpxtpx:hr>157</gpxtpx:hr>
          </gpxtpx:TrackPointExtension>
        </extensions>
      </trkpt>
      <trkpt lat="42.94581" lon="1.90298">
        <ele>441.1</ele>
        <time>2022-07-25T08:29:35.000Z</time>
        <extensions>
          <gpxtpx:TrackPointExtension xmlns:gpxtpx="http://www.garmin.com/xmlschemas/TrackPointExtension/v1">
            <gpxtpx:hr>158</gpxtpx:hr>
          </gpxtpx:TrackPointExtension>
        </extensions>
      </trkpt>
      <trkpt lat="42.94577" lon="1.90303">
        <ele>441.7</ele>
        <time>2022-07-25T08:29:39.000Z</time>
        <extensions>
          <gpxtpx:TrackPointExtension xmlns:gpxtpx="http://www.garmin.com/xmlschemas/TrackPointExtension/v1">
            <gpxtpx:hr>160</gpxtpx:hr>
          </gpxtpx:TrackPointExtension>
        </extensions>
      </trkpt>
      <trkpt lat="42.94572" lon="1.90305">
        <ele>442.4</ele>
        <time>2022-07-25T08:29:43.000Z</time>
        <extensions>
          <gpxtpx:TrackPointExtension xmlns:gpxtpx="http://www.garmin.com/xmlschemas/TrackPointExtension/v1">
            <gpxtpx:hr>161</gpxtpx:hr>
          </gpxtpx:TrackPointExtension>
        </extensions>
      </trkpt>
      <trkpt lat="42.94567" lon="1.9031">
        <ele>443.4</ele>
        <time>2022-07-25T08:29:48.000Z</time>
        <extensions>
          <gpxtpx:TrackPointExtension xmlns:gpxtpx="http://www.garmin.com/xmlschemas/TrackPointExtension/v1">
            <gpxtpx:hr>164</gpxtpx:hr>
          </gpxtpx:TrackPointExtension>
        </extensions>
      </trkpt>
      <trkpt lat="42.94565" lon="1.90316">
        <ele>444.2</ele>
        <time>2022-07-25T08:29:52.000Z</time>
        <extensions>
          <gpxtpx:TrackPointExtension xmlns:gpxtpx="http://www.garmin.com/xmlschemas/TrackPointExtension/v1">
            <gpxtpx:hr>165</gpxtpx:hr>
          </gpxtpx:TrackPointExtension>
        </extensions>
      </trkpt>
      <trkpt lat="42.94561" lon="1.9032">
        <ele>445.4</ele>
        <time>2022-07-25T08:29:58.000Z</time>
        <extensions>
          <gpxtpx:TrackPointExtension xmlns:gpxtpx="http://www.garmin.com/xmlschemas/TrackPointExtension/v1">
            <gpxtpx:hr>169</gpxtpx:hr>
          </gpxtpx:TrackPointExtension>
        </extensions>
      </trkpt>
      <trkpt lat="42.94559" lon="1.90326">
        <ele>447.2</ele>
        <time>2022-07-25T08:30:09.000Z</time>
        <extensions>
          <gpxtpx:TrackPointExtension xmlns:gpxtpx="http://www.garmin.com/xmlschemas/TrackPointExtension/v1">
            <gpxtpx:hr>170</gpxtpx:hr>
          </gpxtpx:TrackPointExtension>
        </extensions>
      </trkpt>
      <trkpt lat="42.94556" lon="1.90331">
        <ele>448.3</ele>
        <time>2022-07-25T08:30:18.000Z</time>
        <extensions>
          <gpxtpx:TrackPointExtension xmlns:gpxtpx="http://www.garmin.com/xmlschemas/TrackPointExtension/v1">
            <gpxtpx:hr>169</gpxtpx:hr>
          </gpxtpx:TrackPointExtension>
        </extensions>
      </trkpt>
      <trkpt lat="42.94552" lon="1.90337">
        <ele>450</ele>
        <time>2022-07-25T08:30:42.000Z</time>
        <extensions>
          <gpxtpx:TrackPointExtension xmlns:gpxtpx="http://www.garmin.com/xmlschemas/TrackPointExtension/v1">
            <gpxtpx:hr>166</gpxtpx:hr>
          </gpxtpx:TrackPointExtension>
        </extensions>
      </trkpt>
      <trkpt lat="42.94548" lon="1.90342">
        <ele>450.2</ele>
        <time>2022-07-25T08:30:45.000Z</time>
        <extensions>
          <gpxtpx:TrackPointExtension xmlns:gpxtpx="http://www.garmin.com/xmlschemas/TrackPointExtension/v1">
            <gpxtpx:hr>165</gpxtpx:hr>
          </gpxtpx:TrackPointExtension>
        </extensions>
      </trkpt>
      <trkpt lat="42.94544" lon="1.90345">
        <ele>450.4</ele>
        <time>2022-07-25T08:30:48.000Z</time>
        <extensions>
          <gpxtpx:TrackPointExtension xmlns:gpxtpx="http://www.garmin.com/xmlschemas/TrackPointExtension/v1">
            <gpxtpx:hr>165</gpxtpx:hr>
          </gpxtpx:TrackPointExtension>
        </extensions>
      </trkpt>
      <trkpt lat="42.9454" lon="1.90349">
        <ele>450.7</ele>
        <time>2022-07-25T08:30:51.000Z</time>
        <extensions>
          <gpxtpx:TrackPointExtension xmlns:gpxtpx="http://www.garmin.com/xmlschemas/TrackPointExtension/v1">
            <gpxtpx:hr>165</gpxtpx:hr>
          </gpxtpx:TrackPointExtension>
        </extensions>
      </trkpt>
      <trkpt lat="42.94537" lon="1.90354">
        <ele>450.9</ele>
        <time>2022-07-25T08:30:54.000Z</time>
        <extensions>
          <gpxtpx:TrackPointExtension xmlns:gpxtpx="http://www.garmin.com/xmlschemas/TrackPointExtension/v1">
            <gpxtpx:hr>165</gpxtpx:hr>
          </gpxtpx:TrackPointExtension>
        </extensions>
      </trkpt>
      <trkpt lat="42.94532" lon="1.9036">
        <ele>451.1</ele>
        <time>2022-07-25T08:30:57.000Z</time>
        <extensions>
          <gpxtpx:TrackPointExtension xmlns:gpxtpx="http://www.garmin.com/xmlschemas/TrackPointExtension/v1">
            <gpxtpx:hr>164</gpxtpx:hr>
          </gpxtpx:TrackPointExtension>
        </extensions>
      </trkpt>
      <trkpt lat="42.94527" lon="1.90364">
        <ele>451.2</ele>
        <time>2022-07-25T08:31:00.000Z</time>
        <extensions>
          <gpxtpx:TrackPointExtension xmlns:gpxtpx="http://www.garmin.com/xmlschemas/TrackPointExtension/v1">
            <gpxtpx:hr>164</gpxtpx:hr>
          </gpxtpx:TrackPointExtension>
        </extensions>
      </trkpt>
      <trkpt lat="42.94523" lon="1.90369">
        <ele>451.5</ele>
        <time>2022-07-25T08:31:03.000Z</time>
        <extensions>
          <gpxtpx:TrackPointExtension xmlns:gpxtpx="http://www.garmin.com/xmlschemas/TrackPointExtension/v1">
            <gpxtpx:hr>164</gpxtpx:hr>
          </gpxtpx:TrackPointExtension>
        </extensions>
      </trkpt>
      <trkpt lat="42.94517" lon="1.90371">
        <ele>451.8</ele>
        <time>2022-07-25T08:31:06.000Z</time>
        <extensions>
          <gpxtpx:TrackPointExtension xmlns:gpxtpx="http://www.garmin.com/xmlschemas/TrackPointExtension/v1">
            <gpxtpx:hr>164</gpxtpx:hr>
          </gpxtpx:TrackPointExtension>
        </extensions>
      </trkpt>
      <trkpt lat="42.94512" lon="1.90375">
        <ele>452.1</ele>
        <time>2022-07-25T08:31:09.000Z</time>
        <extensions>
          <gpxtpx:TrackPointExtension xmlns:gpxtpx="http://www.garmin.com/xmlschemas/TrackPointExtension/v1">
            <gpxtpx:hr>164</gpxtpx:hr>
          </gpxtpx:TrackPointExtension>
        </extensions>
      </trkpt>
      <trkpt lat="42.94507" lon="1.90378">
        <ele>452.5</ele>
        <time>2022-07-25T08:31:12.000Z</time>
        <extensions>
          <gpxtpx:TrackPointExtension xmlns:gpxtpx="http://www.garmin.com/xmlschemas/TrackPointExtension/v1">
            <gpxtpx:hr>164</gpxtpx:hr>
          </gpxtpx:TrackPointExtension>
        </extensions>
      </trkpt>
      <trkpt lat="42.94501" lon="1.90382">
        <ele>452.8</ele>
        <time>2022-07-25T08:31:15.000Z</time>
        <extensions>
          <gpxtpx:TrackPointExtension xmlns:gpxtpx="http://www.garmin.com/xmlschemas/TrackPointExtension/v1">
            <gpxtpx:hr>164</gpxtpx:hr>
          </gpxtpx:TrackPointExtension>
        </extensions>
      </trkpt>
      <trkpt lat="42.94496" lon="1.90383">
        <ele>453</ele>
        <time>2022-07-25T08:31:17.000Z</time>
        <extensions>
          <gpxtpx:TrackPointExtension xmlns:gpxtpx="http://www.garmin.com/xmlschemas/TrackPointExtension/v1">
            <gpxtpx:hr>164</gpxtpx:hr>
          </gpxtpx:TrackPointExtension>
        </extensions>
      </trkpt>
      <trkpt lat="42.94492" lon="1.90385">
        <ele>453.1</ele>
        <time>2022-07-25T08:31:19.000Z</time>
        <extensions>
          <gpxtpx:TrackPointExtension xmlns:gpxtpx="http://www.garmin.com/xmlschemas/TrackPointExtension/v1">
            <gpxtpx:hr>164</gpxtpx:hr>
          </gpxtpx:TrackPointExtension>
        </extensions>
      </trkpt>
      <trkpt lat="42.94487" lon="1.9039">
        <ele>453.4</ele>
        <time>2022-07-25T08:31:22.000Z</time>
        <extensions>
          <gpxtpx:TrackPointExtension xmlns:gpxtpx="http://www.garmin.com/xmlschemas/TrackPointExtension/v1">
            <gpxtpx:hr>165</gpxtpx:hr>
          </gpxtpx:TrackPointExtension>
        </extensions>
      </trkpt>
      <trkpt lat="42.94484" lon="1.90397">
        <ele>453.8</ele>
        <time>2022-07-25T08:31:25.000Z</time>
        <extensions>
          <gpxtpx:TrackPointExtension xmlns:gpxtpx="http://www.garmin.com/xmlschemas/TrackPointExtension/v1">
            <gpxtpx:hr>165</gpxtpx:hr>
          </gpxtpx:TrackPointExtension>
        </extensions>
      </trkpt>
      <trkpt lat="42.94481" lon="1.90402">
        <ele>454.2</ele>
        <time>2022-07-25T08:31:27.000Z</time>
        <extensions>
          <gpxtpx:TrackPointExtension xmlns:gpxtpx="http://www.garmin.com/xmlschemas/TrackPointExtension/v1">
            <gpxtpx:hr>165</gpxtpx:hr>
          </gpxtpx:TrackPointExtension>
        </extensions>
      </trkpt>
      <trkpt lat="42.94475" lon="1.90403">
        <ele>457.9</ele>
        <time>2022-07-25T08:32:48.000Z</time>
        <extensions>
          <gpxtpx:TrackPointExtension xmlns:gpxtpx="http://www.garmin.com/xmlschemas/TrackPointExtension/v1">
            <gpxtpx:hr>140</gpxtpx:hr>
          </gpxtpx:TrackPointExtension>
        </extensions>
      </trkpt>
      <trkpt lat="42.94469" lon="1.90403">
        <ele>457.9</ele>
        <time>2022-07-25T08:32:51.000Z</time>
        <extensions>
          <gpxtpx:TrackPointExtension xmlns:gpxtpx="http://www.garmin.com/xmlschemas/TrackPointExtension/v1">
            <gpxtpx:hr>139</gpxtpx:hr>
          </gpxtpx:TrackPointExtension>
        </extensions>
      </trkpt>
      <trkpt lat="42.94463" lon="1.90404">
        <ele>457.7</ele>
        <time>2022-07-25T08:32:53.000Z</time>
        <extensions>
          <gpxtpx:TrackPointExtension xmlns:gpxtpx="http://www.garmin.com/xmlschemas/TrackPointExtension/v1">
            <gpxtpx:hr>139</gpxtpx:hr>
          </gpxtpx:TrackPointExtension>
        </extensions>
      </trkpt>
      <trkpt lat="42.94458" lon="1.90406">
        <ele>457.6</ele>
        <time>2022-07-25T08:32:54.000Z</time>
        <extensions>
          <gpxtpx:TrackPointExtension xmlns:gpxtpx="http://www.garmin.com/xmlschemas/TrackPointExtension/v1">
            <gpxtpx:hr>138</gpxtpx:hr>
          </gpxtpx:TrackPointExtension>
        </extensions>
      </trkpt>
      <trkpt lat="42.94452" lon="1.90407">
        <ele>457.5</ele>
        <time>2022-07-25T08:32:55.000Z</time>
        <extensions>
          <gpxtpx:TrackPointExtension xmlns:gpxtpx="http://www.garmin.com/xmlschemas/TrackPointExtension/v1">
            <gpxtpx:hr>138</gpxtpx:hr>
          </gpxtpx:TrackPointExtension>
        </extensions>
      </trkpt>
      <trkpt lat="42.94448" lon="1.90409">
        <ele>457.3</ele>
        <time>2022-07-25T08:32:56.000Z</time>
        <extensions>
          <gpxtpx:TrackPointExtension xmlns:gpxtpx="http://www.garmin.com/xmlschemas/TrackPointExtension/v1">
            <gpxtpx:hr>138</gpxtpx:hr>
          </gpxtpx:TrackPointExtension>
        </extensions>
      </trkpt>
      <trkpt lat="42.94443" lon="1.90411">
        <ele>457.1</ele>
        <time>2022-07-25T08:32:57.000Z</time>
        <extensions>
          <gpxtpx:TrackPointExtension xmlns:gpxtpx="http://www.garmin.com/xmlschemas/TrackPointExtension/v1">
            <gpxtpx:hr>138</gpxtpx:hr>
          </gpxtpx:TrackPointExtension>
        </extensions>
      </trkpt>
      <trkpt lat="42.94438" lon="1.90414">
        <ele>457</ele>
        <time>2022-07-25T08:32:58.000Z</time>
        <extensions>
          <gpxtpx:TrackPointExtension xmlns:gpxtpx="http://www.garmin.com/xmlschemas/TrackPointExtension/v1">
            <gpxtpx:hr>138</gpxtpx:hr>
          </gpxtpx:TrackPointExtension>
        </extensions>
      </trkpt>
      <trkpt lat="42.94431" lon="1.90417">
        <ele>456.4</ele>
        <time>2022-07-25T08:33:00.000Z</time>
        <extensions>
          <gpxtpx:TrackPointExtension xmlns:gpxtpx="http://www.garmin.com/xmlschemas/TrackPointExtension/v1">
            <gpxtpx:hr>138</gpxtpx:hr>
          </gpxtpx:TrackPointExtension>
        </extensions>
      </trkpt>
      <trkpt lat="42.94423" lon="1.90416">
        <ele>455.9</ele>
        <time>2022-07-25T08:33:02.000Z</time>
        <extensions>
          <gpxtpx:TrackPointExtension xmlns:gpxtpx="http://www.garmin.com/xmlschemas/TrackPointExtension/v1">
            <gpxtpx:hr>138</gpxtpx:hr>
          </gpxtpx:TrackPointExtension>
        </extensions>
      </trkpt>
      <trkpt lat="42.94416" lon="1.90415">
        <ele>455.4</ele>
        <time>2022-07-25T08:33:04.000Z</time>
        <extensions>
          <gpxtpx:TrackPointExtension xmlns:gpxtpx="http://www.garmin.com/xmlschemas/TrackPointExtension/v1">
            <gpxtpx:hr>138</gpxtpx:hr>
          </gpxtpx:TrackPointExtension>
        </extensions>
      </trkpt>
      <trkpt lat="42.9441" lon="1.90414">
        <ele>455</ele>
        <time>2022-07-25T08:33:06.000Z</time>
        <extensions>
          <gpxtpx:TrackPointExtension xmlns:gpxtpx="http://www.garmin.com/xmlschemas/TrackPointExtension/v1">
            <gpxtpx:hr>139</gpxtpx:hr>
          </gpxtpx:TrackPointExtension>
        </extensions>
      </trkpt>
      <trkpt lat="42.94405" lon="1.90414">
        <ele>454.7</ele>
        <time>2022-07-25T08:33:08.000Z</time>
        <extensions>
          <gpxtpx:TrackPointExtension xmlns:gpxtpx="http://www.garmin.com/xmlschemas/TrackPointExtension/v1">
            <gpxtpx:hr>139</gpxtpx:hr>
          </gpxtpx:TrackPointExtension>
        </extensions>
      </trkpt>
      <trkpt lat="42.94398" lon="1.90413">
        <ele>454.6</ele>
        <time>2022-07-25T08:33:10.000Z</time>
        <extensions>
          <gpxtpx:TrackPointExtension xmlns:gpxtpx="http://www.garmin.com/xmlschemas/TrackPointExtension/v1">
            <gpxtpx:hr>140</gpxtpx:hr>
          </gpxtpx:TrackPointExtension>
        </extensions>
      </trkpt>
      <trkpt lat="42.94393" lon="1.90411">
        <ele>454.7</ele>
        <time>2022-07-25T08:33:12.000Z</time>
        <extensions>
          <gpxtpx:TrackPointExtension xmlns:gpxtpx="http://www.garmin.com/xmlschemas/TrackPointExtension/v1">
            <gpxtpx:hr>141</gpxtpx:hr>
          </gpxtpx:TrackPointExtension>
        </extensions>
      </trkpt>
      <trkpt lat="42.94387" lon="1.9041">
        <ele>454.8</ele>
        <time>2022-07-25T08:33:14.000Z</time>
        <extensions>
          <gpxtpx:TrackPointExtension xmlns:gpxtpx="http://www.garmin.com/xmlschemas/TrackPointExtension/v1">
            <gpxtpx:hr>142</gpxtpx:hr>
          </gpxtpx:TrackPointExtension>
        </extensions>
      </trkpt>
      <trkpt lat="42.94382" lon="1.90409">
        <ele>454.9</ele>
        <time>2022-07-25T08:33:16.000Z</time>
        <extensions>
          <gpxtpx:TrackPointExtension xmlns:gpxtpx="http://www.garmin.com/xmlschemas/TrackPointExtension/v1">
            <gpxtpx:hr>143</gpxtpx:hr>
          </gpxtpx:TrackPointExtension>
        </extensions>
      </trkpt>
      <trkpt lat="42.94377" lon="1.90404">
        <ele>455.3</ele>
        <time>2022-07-25T08:33:19.000Z</time>
        <extensions>
          <gpxtpx:TrackPointExtension xmlns:gpxtpx="http://www.garmin.com/xmlschemas/TrackPointExtension/v1">
            <gpxtpx:hr>145</gpxtpx:hr>
          </gpxtpx:TrackPointExtension>
        </extensions>
      </trkpt>
      <trkpt lat="42.94371" lon="1.90402">
        <ele>455.6</ele>
        <time>2022-07-25T08:33:22.000Z</time>
        <extensions>
          <gpxtpx:TrackPointExtension xmlns:gpxtpx="http://www.garmin.com/xmlschemas/TrackPointExtension/v1">
            <gpxtpx:hr>147</gpxtpx:hr>
          </gpxtpx:TrackPointExtension>
        </extensions>
      </trkpt>
      <trkpt lat="42.94366" lon="1.90399">
        <ele>455.8</ele>
        <time>2022-07-25T08:33:24.000Z</time>
        <extensions>
          <gpxtpx:TrackPointExtension xmlns:gpxtpx="http://www.garmin.com/xmlschemas/TrackPointExtension/v1">
            <gpxtpx:hr>149</gpxtpx:hr>
          </gpxtpx:TrackPointExtension>
        </extensions>
      </trkpt>
      <trkpt lat="42.9436" lon="1.90396">
        <ele>456.2</ele>
        <time>2022-07-25T08:33:27.000Z</time>
        <extensions>
          <gpxtpx:TrackPointExtension xmlns:gpxtpx="http://www.garmin.com/xmlschemas/TrackPointExtension/v1">
            <gpxtpx:hr>151</gpxtpx:hr>
          </gpxtpx:TrackPointExtension>
        </extensions>
      </trkpt>
      <trkpt lat="42.94357" lon="1.90391">
        <ele>456.9</ele>
        <time>2022-07-25T08:33:32.000Z</time>
        <extensions>
          <gpxtpx:TrackPointExtension xmlns:gpxtpx="http://www.garmin.com/xmlschemas/TrackPointExtension/v1">
            <gpxtpx:hr>157</gpxtpx:hr>
          </gpxtpx:TrackPointExtension>
        </extensions>
      </trkpt>
      <trkpt lat="42.94352" lon="1.90391">
        <ele>457.5</ele>
        <time>2022-07-25T08:33:36.000Z</time>
        <extensions>
          <gpxtpx:TrackPointExtension xmlns:gpxtpx="http://www.garmin.com/xmlschemas/TrackPointExtension/v1">
            <gpxtpx:hr>160</gpxtpx:hr>
          </gpxtpx:TrackPointExtension>
        </extensions>
      </trkpt>
      <trkpt lat="42.94348" lon="1.9039">
        <ele>458.8</ele>
        <time>2022-07-25T08:33:45.000Z</time>
        <extensions>
          <gpxtpx:TrackPointExtension xmlns:gpxtpx="http://www.garmin.com/xmlschemas/TrackPointExtension/v1">
            <gpxtpx:hr>163</gpxtpx:hr>
          </gpxtpx:TrackPointExtension>
        </extensions>
      </trkpt>
      <trkpt lat="42.94343" lon="1.90391">
        <ele>460.3</ele>
        <time>2022-07-25T08:34:15.000Z</time>
        <extensions>
          <gpxtpx:TrackPointExtension xmlns:gpxtpx="http://www.garmin.com/xmlschemas/TrackPointExtension/v1">
            <gpxtpx:hr>158</gpxtpx:hr>
          </gpxtpx:TrackPointExtension>
        </extensions>
      </trkpt>
      <trkpt lat="42.94339" lon="1.90391">
        <ele>460.4</ele>
        <time>2022-07-25T08:34:22.000Z</time>
        <extensions>
          <gpxtpx:TrackPointExtension xmlns:gpxtpx="http://www.garmin.com/xmlschemas/TrackPointExtension/v1">
            <gpxtpx:hr>156</gpxtpx:hr>
          </gpxtpx:TrackPointExtension>
        </extensions>
      </trkpt>
      <trkpt lat="42.94334" lon="1.90391">
        <ele>460.5</ele>
        <time>2022-07-25T08:34:26.000Z</time>
        <extensions>
          <gpxtpx:TrackPointExtension xmlns:gpxtpx="http://www.garmin.com/xmlschemas/TrackPointExtension/v1">
            <gpxtpx:hr>155</gpxtpx:hr>
          </gpxtpx:TrackPointExtension>
        </extensions>
      </trkpt>
      <trkpt lat="42.94329" lon="1.90392">
        <ele>460.5</ele>
        <time>2022-07-25T08:34:29.000Z</time>
        <extensions>
          <gpxtpx:TrackPointExtension xmlns:gpxtpx="http://www.garmin.com/xmlschemas/TrackPointExtension/v1">
            <gpxtpx:hr>154</gpxtpx:hr>
          </gpxtpx:TrackPointExtension>
        </extensions>
      </trkpt>
      <trkpt lat="42.94324" lon="1.90391">
        <ele>460.6</ele>
        <time>2022-07-25T08:34:33.000Z</time>
        <extensions>
          <gpxtpx:TrackPointExtension xmlns:gpxtpx="http://www.garmin.com/xmlschemas/TrackPointExtension/v1">
            <gpxtpx:hr>153</gpxtpx:hr>
          </gpxtpx:TrackPointExtension>
        </extensions>
      </trkpt>
      <trkpt lat="42.94319" lon="1.90392">
        <ele>460.8</ele>
        <time>2022-07-25T08:34:38.000Z</time>
        <extensions>
          <gpxtpx:TrackPointExtension xmlns:gpxtpx="http://www.garmin.com/xmlschemas/TrackPointExtension/v1">
            <gpxtpx:hr>153</gpxtpx:hr>
          </gpxtpx:TrackPointExtension>
        </extensions>
      </trkpt>
      <trkpt lat="42.94314" lon="1.90393">
        <ele>461.4</ele>
        <time>2022-07-25T08:34:45.000Z</time>
        <extensions>
          <gpxtpx:TrackPointExtension xmlns:gpxtpx="http://www.garmin.com/xmlschemas/TrackPointExtension/v1">
            <gpxtpx:hr>153</gpxtpx:hr>
          </gpxtpx:TrackPointExtension>
        </extensions>
      </trkpt>
      <trkpt lat="42.94309" lon="1.90396">
        <ele>462.2</ele>
        <time>2022-07-25T08:34:54.000Z</time>
        <extensions>
          <gpxtpx:TrackPointExtension xmlns:gpxtpx="http://www.garmin.com/xmlschemas/TrackPointExtension/v1">
            <gpxtpx:hr>154</gpxtpx:hr>
          </gpxtpx:TrackPointExtension>
        </extensions>
      </trkpt>
      <trkpt lat="42.94305" lon="1.90399">
        <ele>463</ele>
        <time>2022-07-25T08:35:02.000Z</time>
        <extensions>
          <gpxtpx:TrackPointExtension xmlns:gpxtpx="http://www.garmin.com/xmlschemas/TrackPointExtension/v1">
            <gpxtpx:hr>153</gpxtpx:hr>
          </gpxtpx:TrackPointExtension>
        </extensions>
      </trkpt>
      <trkpt lat="42.943" lon="1.904">
        <ele>463.7</ele>
        <time>2022-07-25T08:35:09.000Z</time>
        <extensions>
          <gpxtpx:TrackPointExtension xmlns:gpxtpx="http://www.garmin.com/xmlschemas/TrackPointExtension/v1">
            <gpxtpx:hr>153</gpxtpx:hr>
          </gpxtpx:TrackPointExtension>
        </extensions>
      </trkpt>
      <trkpt lat="42.94297" lon="1.90405">
        <ele>464.6</ele>
        <time>2022-07-25T08:35:19.000Z</time>
        <extensions>
          <gpxtpx:TrackPointExtension xmlns:gpxtpx="http://www.garmin.com/xmlschemas/TrackPointExtension/v1">
            <gpxtpx:hr>152</gpxtpx:hr>
          </gpxtpx:TrackPointExtension>
        </extensions>
      </trkpt>
      <trkpt lat="42.94293" lon="1.90408">
        <ele>465.3</ele>
        <time>2022-07-25T08:35:26.000Z</time>
        <extensions>
          <gpxtpx:TrackPointExtension xmlns:gpxtpx="http://www.garmin.com/xmlschemas/TrackPointExtension/v1">
            <gpxtpx:hr>152</gpxtpx:hr>
          </gpxtpx:TrackPointExtension>
        </extensions>
      </trkpt>
      <trkpt lat="42.94289" lon="1.90413">
        <ele>465.8</ele>
        <time>2022-07-25T08:35:32.000Z</time>
        <extensions>
          <gpxtpx:TrackPointExtension xmlns:gpxtpx="http://www.garmin.com/xmlschemas/TrackPointExtension/v1">
            <gpxtpx:hr>151</gpxtpx:hr>
          </gpxtpx:TrackPointExtension>
        </extensions>
      </trkpt>
      <trkpt lat="42.94286" lon="1.9042">
        <ele>466.4</ele>
        <time>2022-07-25T08:35:43.000Z</time>
        <extensions>
          <gpxtpx:TrackPointExtension xmlns:gpxtpx="http://www.garmin.com/xmlschemas/TrackPointExtension/v1">
            <gpxtpx:hr>150</gpxtpx:hr>
          </gpxtpx:TrackPointExtension>
        </extensions>
      </trkpt>
      <trkpt lat="42.94282" lon="1.90425">
        <ele>466.6</ele>
        <time>2022-07-25T08:35:46.000Z</time>
        <extensions>
          <gpxtpx:TrackPointExtension xmlns:gpxtpx="http://www.garmin.com/xmlschemas/TrackPointExtension/v1">
            <gpxtpx:hr>150</gpxtpx:hr>
          </gpxtpx:TrackPointExtension>
        </extensions>
      </trkpt>
      <trkpt lat="42.94278" lon="1.90429">
        <ele>466.7</ele>
        <time>2022-07-25T08:35:49.000Z</time>
        <extensions>
          <gpxtpx:TrackPointExtension xmlns:gpxtpx="http://www.garmin.com/xmlschemas/TrackPointExtension/v1">
            <gpxtpx:hr>150</gpxtpx:hr>
          </gpxtpx:TrackPointExtension>
        </extensions>
      </trkpt>
      <trkpt lat="42.94274" lon="1.90435">
        <ele>467</ele>
        <time>2022-07-25T08:35:53.000Z</time>
        <extensions>
          <gpxtpx:TrackPointExtension xmlns:gpxtpx="http://www.garmin.com/xmlschemas/TrackPointExtension/v1">
            <gpxtpx:hr>150</gpxtpx:hr>
          </gpxtpx:TrackPointExtension>
        </extensions>
      </trkpt>
      <trkpt lat="42.9427" lon="1.90439">
        <ele>467.2</ele>
        <time>2022-07-25T08:35:56.000Z</time>
        <extensions>
          <gpxtpx:TrackPointExtension xmlns:gpxtpx="http://www.garmin.com/xmlschemas/TrackPointExtension/v1">
            <gpxtpx:hr>150</gpxtpx:hr>
          </gpxtpx:TrackPointExtension>
        </extensions>
      </trkpt>
      <trkpt lat="42.94265" lon="1.90442">
        <ele>469.2</ele>
        <time>2022-07-25T08:36:23.000Z</time>
        <extensions>
          <gpxtpx:TrackPointExtension xmlns:gpxtpx="http://www.garmin.com/xmlschemas/TrackPointExtension/v1">
            <gpxtpx:hr>144</gpxtpx:hr>
          </gpxtpx:TrackPointExtension>
        </extensions>
      </trkpt>
      <trkpt lat="42.94261" lon="1.90447">
        <ele>469.3</ele>
        <time>2022-07-25T08:36:28.000Z</time>
        <extensions>
          <gpxtpx:TrackPointExtension xmlns:gpxtpx="http://www.garmin.com/xmlschemas/TrackPointExtension/v1">
            <gpxtpx:hr>144</gpxtpx:hr>
          </gpxtpx:TrackPointExtension>
        </extensions>
      </trkpt>
      <trkpt lat="42.94257" lon="1.90451">
        <ele>469.4</ele>
        <time>2022-07-25T08:36:32.000Z</time>
        <extensions>
          <gpxtpx:TrackPointExtension xmlns:gpxtpx="http://www.garmin.com/xmlschemas/TrackPointExtension/v1">
            <gpxtpx:hr>144</gpxtpx:hr>
          </gpxtpx:TrackPointExtension>
        </extensions>
      </trkpt>
      <trkpt lat="42.94253" lon="1.90453">
        <ele>469.8</ele>
        <time>2022-07-25T08:36:41.000Z</time>
        <extensions>
          <gpxtpx:TrackPointExtension xmlns:gpxtpx="http://www.garmin.com/xmlschemas/TrackPointExtension/v1">
            <gpxtpx:hr>141</gpxtpx:hr>
          </gpxtpx:TrackPointExtension>
        </extensions>
      </trkpt>
      <trkpt lat="42.9425" lon="1.90459">
        <ele>470.1</ele>
        <time>2022-07-25T08:36:46.000Z</time>
        <extensions>
          <gpxtpx:TrackPointExtension xmlns:gpxtpx="http://www.garmin.com/xmlschemas/TrackPointExtension/v1">
            <gpxtpx:hr>139</gpxtpx:hr>
          </gpxtpx:TrackPointExtension>
        </extensions>
      </trkpt>
      <trkpt lat="42.94247" lon="1.90465">
        <ele>470.4</ele>
        <time>2022-07-25T08:36:52.000Z</time>
        <extensions>
          <gpxtpx:TrackPointExtension xmlns:gpxtpx="http://www.garmin.com/xmlschemas/TrackPointExtension/v1">
            <gpxtpx:hr>139</gpxtpx:hr>
          </gpxtpx:TrackPointExtension>
        </extensions>
      </trkpt>
      <trkpt lat="42.94245" lon="1.9047">
        <ele>470.8</ele>
        <time>2022-07-25T08:36:57.000Z</time>
        <extensions>
          <gpxtpx:TrackPointExtension xmlns:gpxtpx="http://www.garmin.com/xmlschemas/TrackPointExtension/v1">
            <gpxtpx:hr>139</gpxtpx:hr>
          </gpxtpx:TrackPointExtension>
        </extensions>
      </trkpt>
      <trkpt lat="42.94241" lon="1.90474">
        <ele>471.3</ele>
        <time>2022-07-25T08:37:02.000Z</time>
        <extensions>
          <gpxtpx:TrackPointExtension xmlns:gpxtpx="http://www.garmin.com/xmlschemas/TrackPointExtension/v1">
            <gpxtpx:hr>139</gpxtpx:hr>
          </gpxtpx:TrackPointExtension>
        </extensions>
      </trkpt>
      <trkpt lat="42.94236" lon="1.90477">
        <ele>471.9</ele>
        <time>2022-07-25T08:37:07.000Z</time>
        <extensions>
          <gpxtpx:TrackPointExtension xmlns:gpxtpx="http://www.garmin.com/xmlschemas/TrackPointExtension/v1">
            <gpxtpx:hr>141</gpxtpx:hr>
          </gpxtpx:TrackPointExtension>
        </extensions>
      </trkpt>
      <trkpt lat="42.94231" lon="1.90481">
        <ele>472.6</ele>
        <time>2022-07-25T08:37:12.000Z</time>
        <extensions>
          <gpxtpx:TrackPointExtension xmlns:gpxtpx="http://www.garmin.com/xmlschemas/TrackPointExtension/v1">
            <gpxtpx:hr>142</gpxtpx:hr>
          </gpxtpx:TrackPointExtension>
        </extensions>
      </trkpt>
      <trkpt lat="42.94227" lon="1.90485">
        <ele>473.1</ele>
        <time>2022-07-25T08:37:17.000Z</time>
        <extensions>
          <gpxtpx:TrackPointExtension xmlns:gpxtpx="http://www.garmin.com/xmlschemas/TrackPointExtension/v1">
            <gpxtpx:hr>144</gpxtpx:hr>
          </gpxtpx:TrackPointExtension>
        </extensions>
      </trkpt>
      <trkpt lat="42.94223" lon="1.90488">
        <ele>473.9</ele>
        <time>2022-07-25T08:37:25.000Z</time>
        <extensions>
          <gpxtpx:TrackPointExtension xmlns:gpxtpx="http://www.garmin.com/xmlschemas/TrackPointExtension/v1">
            <gpxtpx:hr>146</gpxtpx:hr>
          </gpxtpx:TrackPointExtension>
        </extensions>
      </trkpt>
      <trkpt lat="42.94218" lon="1.9049">
        <ele>474.4</ele>
        <time>2022-07-25T08:37:30.000Z</time>
        <extensions>
          <gpxtpx:TrackPointExtension xmlns:gpxtpx="http://www.garmin.com/xmlschemas/TrackPointExtension/v1">
            <gpxtpx:hr>148</gpxtpx:hr>
          </gpxtpx:TrackPointExtension>
        </extensions>
      </trkpt>
      <trkpt lat="42.94213" lon="1.90491">
        <ele>474.9</ele>
        <time>2022-07-25T08:37:35.000Z</time>
        <extensions>
          <gpxtpx:TrackPointExtension xmlns:gpxtpx="http://www.garmin.com/xmlschemas/TrackPointExtension/v1">
            <gpxtpx:hr>149</gpxtpx:hr>
          </gpxtpx:TrackPointExtension>
        </extensions>
      </trkpt>
      <trkpt lat="42.94209" lon="1.9049">
        <ele>475.5</ele>
        <time>2022-07-25T08:37:40.000Z</time>
        <extensions>
          <gpxtpx:TrackPointExtension xmlns:gpxtpx="http://www.garmin.com/xmlschemas/TrackPointExtension/v1">
            <gpxtpx:hr>151</gpxtpx:hr>
          </gpxtpx:TrackPointExtension>
        </extensions>
      </trkpt>
      <trkpt lat="42.94204" lon="1.90488">
        <ele>476.3</ele>
        <time>2022-07-25T08:37:46.000Z</time>
        <extensions>
          <gpxtpx:TrackPointExtension xmlns:gpxtpx="http://www.garmin.com/xmlschemas/TrackPointExtension/v1">
            <gpxtpx:hr>152</gpxtpx:hr>
          </gpxtpx:TrackPointExtension>
        </extensions>
      </trkpt>
      <trkpt lat="42.942" lon="1.90487">
        <ele>477.3</ele>
        <time>2022-07-25T08:37:53.000Z</time>
        <extensions>
          <gpxtpx:TrackPointExtension xmlns:gpxtpx="http://www.garmin.com/xmlschemas/TrackPointExtension/v1">
            <gpxtpx:hr>154</gpxtpx:hr>
          </gpxtpx:TrackPointExtension>
        </extensions>
      </trkpt>
      <trkpt lat="42.94195" lon="1.90486">
        <ele>478.3</ele>
        <time>2022-07-25T08:38:00.000Z</time>
        <extensions>
          <gpxtpx:TrackPointExtension xmlns:gpxtpx="http://www.garmin.com/xmlschemas/TrackPointExtension/v1">
            <gpxtpx:hr>156</gpxtpx:hr>
          </gpxtpx:TrackPointExtension>
        </extensions>
      </trkpt>
      <trkpt lat="42.9419" lon="1.90485">
        <ele>479.2</ele>
        <time>2022-07-25T08:38:07.000Z</time>
        <extensions>
          <gpxtpx:TrackPointExtension xmlns:gpxtpx="http://www.garmin.com/xmlschemas/TrackPointExtension/v1">
            <gpxtpx:hr>157</gpxtpx:hr>
          </gpxtpx:TrackPointExtension>
        </extensions>
      </trkpt>
      <trkpt lat="42.94184" lon="1.90484">
        <ele>479.5</ele>
        <time>2022-07-25T08:38:11.000Z</time>
        <extensions>
          <gpxtpx:TrackPointExtension xmlns:gpxtpx="http://www.garmin.com/xmlschemas/TrackPointExtension/v1">
            <gpxtpx:hr>157</gpxtpx:hr>
          </gpxtpx:TrackPointExtension>
        </extensions>
      </trkpt>
      <trkpt lat="42.94178" lon="1.90485">
        <ele>479.7</ele>
        <time>2022-07-25T08:38:14.000Z</time>
        <extensions>
          <gpxtpx:TrackPointExtension xmlns:gpxtpx="http://www.garmin.com/xmlschemas/TrackPointExtension/v1">
            <gpxtpx:hr>156</gpxtpx:hr>
          </gpxtpx:TrackPointExtension>
        </extensions>
      </trkpt>
      <trkpt lat="42.94173" lon="1.90486">
        <ele>480</ele>
        <time>2022-07-25T08:38:18.000Z</time>
        <extensions>
          <gpxtpx:TrackPointExtension xmlns:gpxtpx="http://www.garmin.com/xmlschemas/TrackPointExtension/v1">
            <gpxtpx:hr>156</gpxtpx:hr>
          </gpxtpx:TrackPointExtension>
        </extensions>
      </trkpt>
      <trkpt lat="42.94167" lon="1.90486">
        <ele>480.2</ele>
        <time>2022-07-25T08:38:23.000Z</time>
        <extensions>
          <gpxtpx:TrackPointExtension xmlns:gpxtpx="http://www.garmin.com/xmlschemas/TrackPointExtension/v1">
            <gpxtpx:hr>155</gpxtpx:hr>
          </gpxtpx:TrackPointExtension>
        </extensions>
      </trkpt>
      <trkpt lat="42.94162" lon="1.90486">
        <ele>480.3</ele>
        <time>2022-07-25T08:38:25.000Z</time>
        <extensions>
          <gpxtpx:TrackPointExtension xmlns:gpxtpx="http://www.garmin.com/xmlschemas/TrackPointExtension/v1">
            <gpxtpx:hr>155</gpxtpx:hr>
          </gpxtpx:TrackPointExtension>
        </extensions>
      </trkpt>
      <trkpt lat="42.94155" lon="1.90487">
        <ele>480.3</ele>
        <time>2022-07-25T08:38:27.000Z</time>
        <extensions>
          <gpxtpx:TrackPointExtension xmlns:gpxtpx="http://www.garmin.com/xmlschemas/TrackPointExtension/v1">
            <gpxtpx:hr>155</gpxtpx:hr>
          </gpxtpx:TrackPointExtension>
        </extensions>
      </trkpt>
      <trkpt lat="42.94151" lon="1.90487">
        <ele>480.4</ele>
        <time>2022-07-25T08:38:29.000Z</time>
        <extensions>
          <gpxtpx:TrackPointExtension xmlns:gpxtpx="http://www.garmin.com/xmlschemas/TrackPointExtension/v1">
            <gpxtpx:hr>155</gpxtpx:hr>
          </gpxtpx:TrackPointExtension>
        </extensions>
      </trkpt>
      <trkpt lat="42.94146" lon="1.90486">
        <ele>480.4</ele>
        <time>2022-07-25T08:38:31.000Z</time>
        <extensions>
          <gpxtpx:TrackPointExtension xmlns:gpxtpx="http://www.garmin.com/xmlschemas/TrackPointExtension/v1">
            <gpxtpx:hr>155</gpxtpx:hr>
          </gpxtpx:TrackPointExtension>
        </extensions>
      </trkpt>
      <trkpt lat="42.9414" lon="1.90485">
        <ele>480.5</ele>
        <time>2022-07-25T08:38:33.000Z</time>
        <extensions>
          <gpxtpx:TrackPointExtension xmlns:gpxtpx="http://www.garmin.com/xmlschemas/TrackPointExtension/v1">
            <gpxtpx:hr>155</gpxtpx:hr>
          </gpxtpx:TrackPointExtension>
        </extensions>
      </trkpt>
      <trkpt lat="42.94135" lon="1.90485">
        <ele>480.4</ele>
        <time>2022-07-25T08:38:36.000Z</time>
        <extensions>
          <gpxtpx:TrackPointExtension xmlns:gpxtpx="http://www.garmin.com/xmlschemas/TrackPointExtension/v1">
            <gpxtpx:hr>155</gpxtpx:hr>
          </gpxtpx:TrackPointExtension>
        </extensions>
      </trkpt>
      <trkpt lat="42.9413" lon="1.90482">
        <ele>480.3</ele>
        <time>2022-07-25T08:38:39.000Z</time>
        <extensions>
          <gpxtpx:TrackPointExtension xmlns:gpxtpx="http://www.garmin.com/xmlschemas/TrackPointExtension/v1">
            <gpxtpx:hr>154</gpxtpx:hr>
          </gpxtpx:TrackPointExtension>
        </extensions>
      </trkpt>
      <trkpt lat="42.94133" lon="1.90476">
        <ele>480.2</ele>
        <time>2022-07-25T08:38:41.000Z</time>
        <extensions>
          <gpxtpx:TrackPointExtension xmlns:gpxtpx="http://www.garmin.com/xmlschemas/TrackPointExtension/v1">
            <gpxtpx:hr>154</gpxtpx:hr>
          </gpxtpx:TrackPointExtension>
        </extensions>
      </trkpt>
      <trkpt lat="42.94137" lon="1.90469">
        <ele>479.9</ele>
        <time>2022-07-25T08:38:43.000Z</time>
        <extensions>
          <gpxtpx:TrackPointExtension xmlns:gpxtpx="http://www.garmin.com/xmlschemas/TrackPointExtension/v1">
            <gpxtpx:hr>153</gpxtpx:hr>
          </gpxtpx:TrackPointExtension>
        </extensions>
      </trkpt>
      <trkpt lat="42.94143" lon="1.90458">
        <ele>479.6</ele>
        <time>2022-07-25T08:38:45.000Z</time>
        <extensions>
          <gpxtpx:TrackPointExtension xmlns:gpxtpx="http://www.garmin.com/xmlschemas/TrackPointExtension/v1">
            <gpxtpx:hr>153</gpxtpx:hr>
          </gpxtpx:TrackPointExtension>
        </extensions>
      </trkpt>
      <trkpt lat="42.94146" lon="1.90452">
        <ele>479.4</ele>
        <time>2022-07-25T08:38:46.000Z</time>
        <extensions>
          <gpxtpx:TrackPointExtension xmlns:gpxtpx="http://www.garmin.com/xmlschemas/TrackPointExtension/v1">
            <gpxtpx:hr>153</gpxtpx:hr>
          </gpxtpx:TrackPointExtension>
        </extensions>
      </trkpt>
      <trkpt lat="42.9415" lon="1.90445">
        <ele>479.2</ele>
        <time>2022-07-25T08:38:47.000Z</time>
        <extensions>
          <gpxtpx:TrackPointExtension xmlns:gpxtpx="http://www.garmin.com/xmlschemas/TrackPointExtension/v1">
            <gpxtpx:hr>152</gpxtpx:hr>
          </gpxtpx:TrackPointExtension>
        </extensions>
      </trkpt>
      <trkpt lat="42.94154" lon="1.90436">
        <ele>478.9</ele>
        <time>2022-07-25T08:38:48.000Z</time>
        <extensions>
          <gpxtpx:TrackPointExtension xmlns:gpxtpx="http://www.garmin.com/xmlschemas/TrackPointExtension/v1">
            <gpxtpx:hr>152</gpxtpx:hr>
          </gpxtpx:TrackPointExtension>
        </extensions>
      </trkpt>
      <trkpt lat="42.94158" lon="1.90427">
        <ele>478.6</ele>
        <time>2022-07-25T08:38:49.000Z</time>
        <extensions>
          <gpxtpx:TrackPointExtension xmlns:gpxtpx="http://www.garmin.com/xmlschemas/TrackPointExtension/v1">
            <gpxtpx:hr>151</gpxtpx:hr>
          </gpxtpx:TrackPointExtension>
        </extensions>
      </trkpt>
      <trkpt lat="42.94161" lon="1.90415">
        <ele>478.3</ele>
        <time>2022-07-25T08:38:50.000Z</time>
        <extensions>
          <gpxtpx:TrackPointExtension xmlns:gpxtpx="http://www.garmin.com/xmlschemas/TrackPointExtension/v1">
            <gpxtpx:hr>151</gpxtpx:hr>
          </gpxtpx:TrackPointExtension>
        </extensions>
      </trkpt>
      <trkpt lat="42.94163" lon="1.90404">
        <ele>477.9</ele>
        <time>2022-07-25T08:38:51.000Z</time>
        <extensions>
          <gpxtpx:TrackPointExtension xmlns:gpxtpx="http://www.garmin.com/xmlschemas/TrackPointExtension/v1">
            <gpxtpx:hr>151</gpxtpx:hr>
          </gpxtpx:TrackPointExtension>
        </extensions>
      </trkpt>
      <trkpt lat="42.94166" lon="1.90391">
        <ele>477.5</ele>
        <time>2022-07-25T08:38:52.000Z</time>
        <extensions>
          <gpxtpx:TrackPointExtension xmlns:gpxtpx="http://www.garmin.com/xmlschemas/TrackPointExtension/v1">
            <gpxtpx:hr>150</gpxtpx:hr>
          </gpxtpx:TrackPointExtension>
        </extensions>
      </trkpt>
      <trkpt lat="42.94167" lon="1.90378">
        <ele>477.1</ele>
        <time>2022-07-25T08:38:53.000Z</time>
        <extensions>
          <gpxtpx:TrackPointExtension xmlns:gpxtpx="http://www.garmin.com/xmlschemas/TrackPointExtension/v1">
            <gpxtpx:hr>150</gpxtpx:hr>
          </gpxtpx:TrackPointExtension>
        </extensions>
      </trkpt>
      <trkpt lat="42.94167" lon="1.90364">
        <ele>476.6</ele>
        <time>2022-07-25T08:38:54.000Z</time>
        <extensions>
          <gpxtpx:TrackPointExtension xmlns:gpxtpx="http://www.garmin.com/xmlschemas/TrackPointExtension/v1">
            <gpxtpx:hr>149</gpxtpx:hr>
          </gpxtpx:TrackPointExtension>
        </extensions>
      </trkpt>
      <trkpt lat="42.94166" lon="1.9035">
        <ele>476.1</ele>
        <time>2022-07-25T08:38:55.000Z</time>
        <extensions>
          <gpxtpx:TrackPointExtension xmlns:gpxtpx="http://www.garmin.com/xmlschemas/TrackPointExtension/v1">
            <gpxtpx:hr>148</gpxtpx:hr>
          </gpxtpx:TrackPointExtension>
        </extensions>
      </trkpt>
      <trkpt lat="42.94166" lon="1.90336">
        <ele>475.5</ele>
        <time>2022-07-25T08:38:56.000Z</time>
        <extensions>
          <gpxtpx:TrackPointExtension xmlns:gpxtpx="http://www.garmin.com/xmlschemas/TrackPointExtension/v1">
            <gpxtpx:hr>148</gpxtpx:hr>
          </gpxtpx:TrackPointExtension>
        </extensions>
      </trkpt>
      <trkpt lat="42.94168" lon="1.90322">
        <ele>475</ele>
        <time>2022-07-25T08:38:57.000Z</time>
        <extensions>
          <gpxtpx:TrackPointExtension xmlns:gpxtpx="http://www.garmin.com/xmlschemas/TrackPointExtension/v1">
            <gpxtpx:hr>148</gpxtpx:hr>
          </gpxtpx:TrackPointExtension>
        </extensions>
      </trkpt>
      <trkpt lat="42.94172" lon="1.90309">
        <ele>474.5</ele>
        <time>2022-07-25T08:38:58.000Z</time>
        <extensions>
          <gpxtpx:TrackPointExtension xmlns:gpxtpx="http://www.garmin.com/xmlschemas/TrackPointExtension/v1">
            <gpxtpx:hr>147</gpxtpx:hr>
          </gpxtpx:TrackPointExtension>
        </extensions>
      </trkpt>
      <trkpt lat="42.94177" lon="1.90299">
        <ele>473.9</ele>
        <time>2022-07-25T08:38:59.000Z</time>
        <extensions>
          <gpxtpx:TrackPointExtension xmlns:gpxtpx="http://www.garmin.com/xmlschemas/TrackPointExtension/v1">
            <gpxtpx:hr>147</gpxtpx:hr>
          </gpxtpx:TrackPointExtension>
        </extensions>
      </trkpt>
      <trkpt lat="42.94185" lon="1.9029">
        <ele>473.2</ele>
        <time>2022-07-25T08:39:00.000Z</time>
        <extensions>
          <gpxtpx:TrackPointExtension xmlns:gpxtpx="http://www.garmin.com/xmlschemas/TrackPointExtension/v1">
            <gpxtpx:hr>146</gpxtpx:hr>
          </gpxtpx:TrackPointExtension>
        </extensions>
      </trkpt>
      <trkpt lat="42.94193" lon="1.90283">
        <ele>472.7</ele>
        <time>2022-07-25T08:39:01.000Z</time>
        <extensions>
          <gpxtpx:TrackPointExtension xmlns:gpxtpx="http://www.garmin.com/xmlschemas/TrackPointExtension/v1">
            <gpxtpx:hr>146</gpxtpx:hr>
          </gpxtpx:TrackPointExtension>
        </extensions>
      </trkpt>
      <trkpt lat="42.942" lon="1.90278">
        <ele>472.1</ele>
        <time>2022-07-25T08:39:02.000Z</time>
        <extensions>
          <gpxtpx:TrackPointExtension xmlns:gpxtpx="http://www.garmin.com/xmlschemas/TrackPointExtension/v1">
            <gpxtpx:hr>146</gpxtpx:hr>
          </gpxtpx:TrackPointExtension>
        </extensions>
      </trkpt>
      <trkpt lat="42.94208" lon="1.90281">
        <ele>471.5</ele>
        <time>2022-07-25T08:39:03.000Z</time>
        <extensions>
          <gpxtpx:TrackPointExtension xmlns:gpxtpx="http://www.garmin.com/xmlschemas/TrackPointExtension/v1">
            <gpxtpx:hr>146</gpxtpx:hr>
          </gpxtpx:TrackPointExtension>
        </extensions>
      </trkpt>
      <trkpt lat="42.94213" lon="1.90285">
        <ele>471</ele>
        <time>2022-07-25T08:39:04.000Z</time>
        <extensions>
          <gpxtpx:TrackPointExtension xmlns:gpxtpx="http://www.garmin.com/xmlschemas/TrackPointExtension/v1">
            <gpxtpx:hr>145</gpxtpx:hr>
          </gpxtpx:TrackPointExtension>
        </extensions>
      </trkpt>
      <trkpt lat="42.94218" lon="1.90289">
        <ele>470.4</ele>
        <time>2022-07-25T08:39:05.000Z</time>
        <extensions>
          <gpxtpx:TrackPointExtension xmlns:gpxtpx="http://www.garmin.com/xmlschemas/TrackPointExtension/v1">
            <gpxtpx:hr>145</gpxtpx:hr>
          </gpxtpx:TrackPointExtension>
        </extensions>
      </trkpt>
      <trkpt lat="42.94223" lon="1.90292">
        <ele>469.8</ele>
        <time>2022-07-25T08:39:06.000Z</time>
        <extensions>
          <gpxtpx:TrackPointExtension xmlns:gpxtpx="http://www.garmin.com/xmlschemas/TrackPointExtension/v1">
            <gpxtpx:hr>145</gpxtpx:hr>
          </gpxtpx:TrackPointExtension>
        </extensions>
      </trkpt>
      <trkpt lat="42.9423" lon="1.9029">
        <ele>468.6</ele>
        <time>2022-07-25T08:39:08.000Z</time>
        <extensions>
          <gpxtpx:TrackPointExtension xmlns:gpxtpx="http://www.garmin.com/xmlschemas/TrackPointExtension/v1">
            <gpxtpx:hr>144</gpxtpx:hr>
          </gpxtpx:TrackPointExtension>
        </extensions>
      </trkpt>
      <trkpt lat="42.94228" lon="1.90278">
        <ele>467.3</ele>
        <time>2022-07-25T08:39:10.000Z</time>
        <extensions>
          <gpxtpx:TrackPointExtension xmlns:gpxtpx="http://www.garmin.com/xmlschemas/TrackPointExtension/v1">
            <gpxtpx:hr>144</gpxtpx:hr>
          </gpxtpx:TrackPointExtension>
        </extensions>
      </trkpt>
      <trkpt lat="42.94226" lon="1.90271">
        <ele>466.8</ele>
        <time>2022-07-25T08:39:11.000Z</time>
        <extensions>
          <gpxtpx:TrackPointExtension xmlns:gpxtpx="http://www.garmin.com/xmlschemas/TrackPointExtension/v1">
            <gpxtpx:hr>143</gpxtpx:hr>
          </gpxtpx:TrackPointExtension>
        </extensions>
      </trkpt>
      <trkpt lat="42.94221" lon="1.90262">
        <ele>466.2</ele>
        <time>2022-07-25T08:39:12.000Z</time>
        <extensions>
          <gpxtpx:TrackPointExtension xmlns:gpxtpx="http://www.garmin.com/xmlschemas/TrackPointExtension/v1">
            <gpxtpx:hr>142</gpxtpx:hr>
          </gpxtpx:TrackPointExtension>
        </extensions>
      </trkpt>
      <trkpt lat="42.94217" lon="1.90252">
        <ele>465.6</ele>
        <time>2022-07-25T08:39:13.000Z</time>
        <extensions>
          <gpxtpx:TrackPointExtension xmlns:gpxtpx="http://www.garmin.com/xmlschemas/TrackPointExtension/v1">
            <gpxtpx:hr>142</gpxtpx:hr>
          </gpxtpx:TrackPointExtension>
        </extensions>
      </trkpt>
      <trkpt lat="42.94214" lon="1.90241">
        <ele>464.9</ele>
        <time>2022-07-25T08:39:14.000Z</time>
        <extensions>
          <gpxtpx:TrackPointExtension xmlns:gpxtpx="http://www.garmin.com/xmlschemas/TrackPointExtension/v1">
            <gpxtpx:hr>141</gpxtpx:hr>
          </gpxtpx:TrackPointExtension>
        </extensions>
      </trkpt>
      <trkpt lat="42.94212" lon="1.9023">
        <ele>464.2</ele>
        <time>2022-07-25T08:39:15.000Z</time>
        <extensions>
          <gpxtpx:TrackPointExtension xmlns:gpxtpx="http://www.garmin.com/xmlschemas/TrackPointExtension/v1">
            <gpxtpx:hr>141</gpxtpx:hr>
          </gpxtpx:TrackPointExtension>
        </extensions>
      </trkpt>
      <trkpt lat="42.94212" lon="1.90217">
        <ele>463.5</ele>
        <time>2022-07-25T08:39:16.000Z</time>
        <extensions>
          <gpxtpx:TrackPointExtension xmlns:gpxtpx="http://www.garmin.com/xmlschemas/TrackPointExtension/v1">
            <gpxtpx:hr>140</gpxtpx:hr>
          </gpxtpx:TrackPointExtension>
        </extensions>
      </trkpt>
      <trkpt lat="42.9421" lon="1.90205">
        <ele>462.8</ele>
        <time>2022-07-25T08:39:17.000Z</time>
        <extensions>
          <gpxtpx:TrackPointExtension xmlns:gpxtpx="http://www.garmin.com/xmlschemas/TrackPointExtension/v1">
            <gpxtpx:hr>139</gpxtpx:hr>
          </gpxtpx:TrackPointExtension>
        </extensions>
      </trkpt>
      <trkpt lat="42.94209" lon="1.90193">
        <ele>462.1</ele>
        <time>2022-07-25T08:39:18.000Z</time>
        <extensions>
          <gpxtpx:TrackPointExtension xmlns:gpxtpx="http://www.garmin.com/xmlschemas/TrackPointExtension/v1">
            <gpxtpx:hr>138</gpxtpx:hr>
          </gpxtpx:TrackPointExtension>
        </extensions>
      </trkpt>
      <trkpt lat="42.94207" lon="1.90182">
        <ele>461.4</ele>
        <time>2022-07-25T08:39:19.000Z</time>
        <extensions>
          <gpxtpx:TrackPointExtension xmlns:gpxtpx="http://www.garmin.com/xmlschemas/TrackPointExtension/v1">
            <gpxtpx:hr>138</gpxtpx:hr>
          </gpxtpx:TrackPointExtension>
        </extensions>
      </trkpt>
      <trkpt lat="42.94205" lon="1.90171">
        <ele>460.7</ele>
        <time>2022-07-25T08:39:20.000Z</time>
        <extensions>
          <gpxtpx:TrackPointExtension xmlns:gpxtpx="http://www.garmin.com/xmlschemas/TrackPointExtension/v1">
            <gpxtpx:hr>137</gpxtpx:hr>
          </gpxtpx:TrackPointExtension>
        </extensions>
      </trkpt>
      <trkpt lat="42.94201" lon="1.90161">
        <ele>459.9</ele>
        <time>2022-07-25T08:39:21.000Z</time>
        <extensions>
          <gpxtpx:TrackPointExtension xmlns:gpxtpx="http://www.garmin.com/xmlschemas/TrackPointExtension/v1">
            <gpxtpx:hr>136</gpxtpx:hr>
          </gpxtpx:TrackPointExtension>
        </extensions>
      </trkpt>
      <trkpt lat="42.94194" lon="1.90152">
        <ele>459.2</ele>
        <time>2022-07-25T08:39:22.000Z</time>
        <extensions>
          <gpxtpx:TrackPointExtension xmlns:gpxtpx="http://www.garmin.com/xmlschemas/TrackPointExtension/v1">
            <gpxtpx:hr>135</gpxtpx:hr>
          </gpxtpx:TrackPointExtension>
        </extensions>
      </trkpt>
      <trkpt lat="42.94186" lon="1.90149">
        <ele>458.4</ele>
        <time>2022-07-25T08:39:23.000Z</time>
        <extensions>
          <gpxtpx:TrackPointExtension xmlns:gpxtpx="http://www.garmin.com/xmlschemas/TrackPointExtension/v1">
            <gpxtpx:hr>135</gpxtpx:hr>
          </gpxtpx:TrackPointExtension>
        </extensions>
      </trkpt>
      <trkpt lat="42.94177" lon="1.90147">
        <ele>457.7</ele>
        <time>2022-07-25T08:39:24.000Z</time>
        <extensions>
          <gpxtpx:TrackPointExtension xmlns:gpxtpx="http://www.garmin.com/xmlschemas/TrackPointExtension/v1">
            <gpxtpx:hr>134</gpxtpx:hr>
          </gpxtpx:TrackPointExtension>
        </extensions>
      </trkpt>
      <trkpt lat="42.9417" lon="1.90144">
        <ele>457</ele>
        <time>2022-07-25T08:39:25.000Z</time>
        <extensions>
          <gpxtpx:TrackPointExtension xmlns:gpxtpx="http://www.garmin.com/xmlschemas/TrackPointExtension/v1">
            <gpxtpx:hr>133</gpxtpx:hr>
          </gpxtpx:TrackPointExtension>
        </extensions>
      </trkpt>
      <trkpt lat="42.94165" lon="1.90142">
        <ele>456.3</ele>
        <time>2022-07-25T08:39:26.000Z</time>
        <extensions>
          <gpxtpx:TrackPointExtension xmlns:gpxtpx="http://www.garmin.com/xmlschemas/TrackPointExtension/v1">
            <gpxtpx:hr>132</gpxtpx:hr>
          </gpxtpx:TrackPointExtension>
        </extensions>
      </trkpt>
      <trkpt lat="42.94162" lon="1.90136">
        <ele>455</ele>
        <time>2022-07-25T08:39:28.000Z</time>
        <extensions>
          <gpxtpx:TrackPointExtension xmlns:gpxtpx="http://www.garmin.com/xmlschemas/TrackPointExtension/v1">
            <gpxtpx:hr>130</gpxtpx:hr>
          </gpxtpx:TrackPointExtension>
        </extensions>
      </trkpt>
      <trkpt lat="42.9416" lon="1.9013">
        <ele>453.8</ele>
        <time>2022-07-25T08:39:30.000Z</time>
        <extensions>
          <gpxtpx:TrackPointExtension xmlns:gpxtpx="http://www.garmin.com/xmlschemas/TrackPointExtension/v1">
            <gpxtpx:hr>129</gpxtpx:hr>
          </gpxtpx:TrackPointExtension>
        </extensions>
      </trkpt>
      <trkpt lat="42.9416" lon="1.90119">
        <ele>452.7</ele>
        <time>2022-07-25T08:39:32.000Z</time>
        <extensions>
          <gpxtpx:TrackPointExtension xmlns:gpxtpx="http://www.garmin.com/xmlschemas/TrackPointExtension/v1">
            <gpxtpx:hr>129</gpxtpx:hr>
          </gpxtpx:TrackPointExtension>
        </extensions>
      </trkpt>
      <trkpt lat="42.94161" lon="1.90113">
        <ele>452.2</ele>
        <time>2022-07-25T08:39:33.000Z</time>
        <extensions>
          <gpxtpx:TrackPointExtension xmlns:gpxtpx="http://www.garmin.com/xmlschemas/TrackPointExtension/v1">
            <gpxtpx:hr>129</gpxtpx:hr>
          </gpxtpx:TrackPointExtension>
        </extensions>
      </trkpt>
      <trkpt lat="42.94162" lon="1.90107">
        <ele>451.7</ele>
        <time>2022-07-25T08:39:34.000Z</time>
        <extensions>
          <gpxtpx:TrackPointExtension xmlns:gpxtpx="http://www.garmin.com/xmlschemas/TrackPointExtension/v1">
            <gpxtpx:hr>129</gpxtpx:hr>
          </gpxtpx:TrackPointExtension>
        </extensions>
      </trkpt>
      <trkpt lat="42.94163" lon="1.90101">
        <ele>451.2</ele>
        <time>2022-07-25T08:39:35.000Z</time>
        <extensions>
          <gpxtpx:TrackPointExtension xmlns:gpxtpx="http://www.garmin.com/xmlschemas/TrackPointExtension/v1">
            <gpxtpx:hr>129</gpxtpx:hr>
          </gpxtpx:TrackPointExtension>
        </extensions>
      </trkpt>
      <trkpt lat="42.94164" lon="1.90094">
        <ele>450.7</ele>
        <time>2022-07-25T08:39:36.000Z</time>
        <extensions>
          <gpxtpx:TrackPointExtension xmlns:gpxtpx="http://www.garmin.com/xmlschemas/TrackPointExtension/v1">
            <gpxtpx:hr>129</gpxtpx:hr>
          </gpxtpx:TrackPointExtension>
        </extensions>
      </trkpt>
      <trkpt lat="42.94165" lon="1.90083">
        <ele>449.9</ele>
        <time>2022-07-25T08:39:38.000Z</time>
        <extensions>
          <gpxtpx:TrackPointExtension xmlns:gpxtpx="http://www.garmin.com/xmlschemas/TrackPointExtension/v1">
            <gpxtpx:hr>129</gpxtpx:hr>
          </gpxtpx:TrackPointExtension>
        </extensions>
      </trkpt>
      <trkpt lat="42.94161" lon="1.90072">
        <ele>449.2</ele>
        <time>2022-07-25T08:39:40.000Z</time>
        <extensions>
          <gpxtpx:TrackPointExtension xmlns:gpxtpx="http://www.garmin.com/xmlschemas/TrackPointExtension/v1">
            <gpxtpx:hr>130</gpxtpx:hr>
          </gpxtpx:TrackPointExtension>
        </extensions>
      </trkpt>
      <trkpt lat="42.94157" lon="1.90068">
        <ele>448.5</ele>
        <time>2022-07-25T08:39:42.000Z</time>
        <extensions>
          <gpxtpx:TrackPointExtension xmlns:gpxtpx="http://www.garmin.com/xmlschemas/TrackPointExtension/v1">
            <gpxtpx:hr>131</gpxtpx:hr>
          </gpxtpx:TrackPointExtension>
        </extensions>
      </trkpt>
      <trkpt lat="42.94154" lon="1.90061">
        <ele>448</ele>
        <time>2022-07-25T08:39:44.000Z</time>
        <extensions>
          <gpxtpx:TrackPointExtension xmlns:gpxtpx="http://www.garmin.com/xmlschemas/TrackPointExtension/v1">
            <gpxtpx:hr>133</gpxtpx:hr>
          </gpxtpx:TrackPointExtension>
        </extensions>
      </trkpt>
      <trkpt lat="42.9415" lon="1.90054">
        <ele>447.5</ele>
        <time>2022-07-25T08:39:46.000Z</time>
        <extensions>
          <gpxtpx:TrackPointExtension xmlns:gpxtpx="http://www.garmin.com/xmlschemas/TrackPointExtension/v1">
            <gpxtpx:hr>135</gpxtpx:hr>
          </gpxtpx:TrackPointExtension>
        </extensions>
      </trkpt>
      <trkpt lat="42.94145" lon="1.90048">
        <ele>447.2</ele>
        <time>2022-07-25T08:39:48.000Z</time>
        <extensions>
          <gpxtpx:TrackPointExtension xmlns:gpxtpx="http://www.garmin.com/xmlschemas/TrackPointExtension/v1">
            <gpxtpx:hr>135</gpxtpx:hr>
          </gpxtpx:TrackPointExtension>
        </extensions>
      </trkpt>
      <trkpt lat="42.94141" lon="1.90041">
        <ele>446.9</ele>
        <time>2022-07-25T08:39:50.000Z</time>
        <extensions>
          <gpxtpx:TrackPointExtension xmlns:gpxtpx="http://www.garmin.com/xmlschemas/TrackPointExtension/v1">
            <gpxtpx:hr>137</gpxtpx:hr>
          </gpxtpx:TrackPointExtension>
        </extensions>
      </trkpt>
      <trkpt lat="42.94137" lon="1.90034">
        <ele>446.6</ele>
        <time>2022-07-25T08:39:52.000Z</time>
        <extensions>
          <gpxtpx:TrackPointExtension xmlns:gpxtpx="http://www.garmin.com/xmlschemas/TrackPointExtension/v1">
            <gpxtpx:hr>138</gpxtpx:hr>
          </gpxtpx:TrackPointExtension>
        </extensions>
      </trkpt>
      <trkpt lat="42.94133" lon="1.90026">
        <ele>446.3</ele>
        <time>2022-07-25T08:39:54.000Z</time>
        <extensions>
          <gpxtpx:TrackPointExtension xmlns:gpxtpx="http://www.garmin.com/xmlschemas/TrackPointExtension/v1">
            <gpxtpx:hr>139</gpxtpx:hr>
          </gpxtpx:TrackPointExtension>
        </extensions>
      </trkpt>
      <trkpt lat="42.94129" lon="1.9002">
        <ele>446.1</ele>
        <time>2022-07-25T08:39:56.000Z</time>
        <extensions>
          <gpxtpx:TrackPointExtension xmlns:gpxtpx="http://www.garmin.com/xmlschemas/TrackPointExtension/v1">
            <gpxtpx:hr>140</gpxtpx:hr>
          </gpxtpx:TrackPointExtension>
        </extensions>
      </trkpt>
      <trkpt lat="42.94124" lon="1.90014">
        <ele>445.9</ele>
        <time>2022-07-25T08:39:58.000Z</time>
        <extensions>
          <gpxtpx:TrackPointExtension xmlns:gpxtpx="http://www.garmin.com/xmlschemas/TrackPointExtension/v1">
            <gpxtpx:hr>140</gpxtpx:hr>
          </gpxtpx:TrackPointExtension>
        </extensions>
      </trkpt>
      <trkpt lat="42.94119" lon="1.90009">
        <ele>445.7</ele>
        <time>2022-07-25T08:40:00.000Z</time>
        <extensions>
          <gpxtpx:TrackPointExtension xmlns:gpxtpx="http://www.garmin.com/xmlschemas/TrackPointExtension/v1">
            <gpxtpx:hr>141</gpxtpx:hr>
          </gpxtpx:TrackPointExtension>
        </extensions>
      </trkpt>
      <trkpt lat="42.94113" lon="1.90003">
        <ele>445.6</ele>
        <time>2022-07-25T08:40:02.000Z</time>
        <extensions>
          <gpxtpx:TrackPointExtension xmlns:gpxtpx="http://www.garmin.com/xmlschemas/TrackPointExtension/v1">
            <gpxtpx:hr>141</gpxtpx:hr>
          </gpxtpx:TrackPointExtension>
        </extensions>
      </trkpt>
      <trkpt lat="42.94108" lon="1.89998">
        <ele>445.5</ele>
        <time>2022-07-25T08:40:04.000Z</time>
        <extensions>
          <gpxtpx:TrackPointExtension xmlns:gpxtpx="http://www.garmin.com/xmlschemas/TrackPointExtension/v1">
            <gpxtpx:hr>142</gpxtpx:hr>
          </gpxtpx:TrackPointExtension>
        </extensions>
      </trkpt>
      <trkpt lat="42.94102" lon="1.89993">
        <ele>445.3</ele>
        <time>2022-07-25T08:40:06.000Z</time>
        <extensions>
          <gpxtpx:TrackPointExtension xmlns:gpxtpx="http://www.garmin.com/xmlschemas/TrackPointExtension/v1">
            <gpxtpx:hr>143</gpxtpx:hr>
          </gpxtpx:TrackPointExtension>
        </extensions>
      </trkpt>
      <trkpt lat="42.94097" lon="1.89989">
        <ele>445.3</ele>
        <time>2022-07-25T08:40:08.000Z</time>
        <extensions>
          <gpxtpx:TrackPointExtension xmlns:gpxtpx="http://www.garmin.com/xmlschemas/TrackPointExtension/v1">
            <gpxtpx:hr>143</gpxtpx:hr>
          </gpxtpx:TrackPointExtension>
        </extensions>
      </trkpt>
      <trkpt lat="42.94091" lon="1.89986">
        <ele>445.2</ele>
        <time>2022-07-25T08:40:10.000Z</time>
        <extensions>
          <gpxtpx:TrackPointExtension xmlns:gpxtpx="http://www.garmin.com/xmlschemas/TrackPointExtension/v1">
            <gpxtpx:hr>144</gpxtpx:hr>
          </gpxtpx:TrackPointExtension>
        </extensions>
      </trkpt>
      <trkpt lat="42.94084" lon="1.89983">
        <ele>445.2</ele>
        <time>2022-07-25T08:40:12.000Z</time>
        <extensions>
          <gpxtpx:TrackPointExtension xmlns:gpxtpx="http://www.garmin.com/xmlschemas/TrackPointExtension/v1">
            <gpxtpx:hr>144</gpxtpx:hr>
          </gpxtpx:TrackPointExtension>
        </extensions>
      </trkpt>
      <trkpt lat="42.94077" lon="1.89982">
        <ele>445.3</ele>
        <time>2022-07-25T08:40:14.000Z</time>
        <extensions>
          <gpxtpx:TrackPointExtension xmlns:gpxtpx="http://www.garmin.com/xmlschemas/TrackPointExtension/v1">
            <gpxtpx:hr>144</gpxtpx:hr>
          </gpxtpx:TrackPointExtension>
        </extensions>
      </trkpt>
      <trkpt lat="42.94071" lon="1.8998">
        <ele>445.4</ele>
        <time>2022-07-25T08:40:16.000Z</time>
        <extensions>
          <gpxtpx:TrackPointExtension xmlns:gpxtpx="http://www.garmin.com/xmlschemas/TrackPointExtension/v1">
            <gpxtpx:hr>144</gpxtpx:hr>
          </gpxtpx:TrackPointExtension>
        </extensions>
      </trkpt>
      <trkpt lat="42.94063" lon="1.89979">
        <ele>445.6</ele>
        <time>2022-07-25T08:40:18.000Z</time>
        <extensions>
          <gpxtpx:TrackPointExtension xmlns:gpxtpx="http://www.garmin.com/xmlschemas/TrackPointExtension/v1">
            <gpxtpx:hr>144</gpxtpx:hr>
          </gpxtpx:TrackPointExtension>
        </extensions>
      </trkpt>
      <trkpt lat="42.94058" lon="1.89979">
        <ele>445.6</ele>
        <time>2022-07-25T08:40:19.000Z</time>
        <extensions>
          <gpxtpx:TrackPointExtension xmlns:gpxtpx="http://www.garmin.com/xmlschemas/TrackPointExtension/v1">
            <gpxtpx:hr>144</gpxtpx:hr>
          </gpxtpx:TrackPointExtension>
        </extensions>
      </trkpt>
      <trkpt lat="42.94053" lon="1.89979">
        <ele>445.7</ele>
        <time>2022-07-25T08:40:20.000Z</time>
        <extensions>
          <gpxtpx:TrackPointExtension xmlns:gpxtpx="http://www.garmin.com/xmlschemas/TrackPointExtension/v1">
            <gpxtpx:hr>144</gpxtpx:hr>
          </gpxtpx:TrackPointExtension>
        </extensions>
      </trkpt>
      <trkpt lat="42.94048" lon="1.89979">
        <ele>445.8</ele>
        <time>2022-07-25T08:40:21.000Z</time>
        <extensions>
          <gpxtpx:TrackPointExtension xmlns:gpxtpx="http://www.garmin.com/xmlschemas/TrackPointExtension/v1">
            <gpxtpx:hr>144</gpxtpx:hr>
          </gpxtpx:TrackPointExtension>
        </extensions>
      </trkpt>
      <trkpt lat="42.94043" lon="1.89979">
        <ele>445.8</ele>
        <time>2022-07-25T08:40:22.000Z</time>
        <extensions>
          <gpxtpx:TrackPointExtension xmlns:gpxtpx="http://www.garmin.com/xmlschemas/TrackPointExtension/v1">
            <gpxtpx:hr>144</gpxtpx:hr>
          </gpxtpx:TrackPointExtension>
        </extensions>
      </trkpt>
      <trkpt lat="42.94037" lon="1.89979">
        <ele>445.9</ele>
        <time>2022-07-25T08:40:23.000Z</time>
        <extensions>
          <gpxtpx:TrackPointExtension xmlns:gpxtpx="http://www.garmin.com/xmlschemas/TrackPointExtension/v1">
            <gpxtpx:hr>145</gpxtpx:hr>
          </gpxtpx:TrackPointExtension>
        </extensions>
      </trkpt>
      <trkpt lat="42.94031" lon="1.89978">
        <ele>446</ele>
        <time>2022-07-25T08:40:24.000Z</time>
        <extensions>
          <gpxtpx:TrackPointExtension xmlns:gpxtpx="http://www.garmin.com/xmlschemas/TrackPointExtension/v1">
            <gpxtpx:hr>145</gpxtpx:hr>
          </gpxtpx:TrackPointExtension>
        </extensions>
      </trkpt>
      <trkpt lat="42.94027" lon="1.89976">
        <ele>446</ele>
        <time>2022-07-25T08:40:25.000Z</time>
        <extensions>
          <gpxtpx:TrackPointExtension xmlns:gpxtpx="http://www.garmin.com/xmlschemas/TrackPointExtension/v1">
            <gpxtpx:hr>145</gpxtpx:hr>
          </gpxtpx:TrackPointExtension>
        </extensions>
      </trkpt>
      <trkpt lat="42.94018" lon="1.89975">
        <ele>446.1</ele>
        <time>2022-07-25T08:40:27.000Z</time>
        <extensions>
          <gpxtpx:TrackPointExtension xmlns:gpxtpx="http://www.garmin.com/xmlschemas/TrackPointExtension/v1">
            <gpxtpx:hr>145</gpxtpx:hr>
          </gpxtpx:TrackPointExtension>
        </extensions>
      </trkpt>
      <trkpt lat="42.94013" lon="1.89976">
        <ele>446.2</ele>
        <time>2022-07-25T08:40:28.000Z</time>
        <extensions>
          <gpxtpx:TrackPointExtension xmlns:gpxtpx="http://www.garmin.com/xmlschemas/TrackPointExtension/v1">
            <gpxtpx:hr>145</gpxtpx:hr>
          </gpxtpx:TrackPointExtension>
        </extensions>
      </trkpt>
      <trkpt lat="42.94006" lon="1.89981">
        <ele>446.2</ele>
        <time>2022-07-25T08:40:30.000Z</time>
        <extensions>
          <gpxtpx:TrackPointExtension xmlns:gpxtpx="http://www.garmin.com/xmlschemas/TrackPointExtension/v1">
            <gpxtpx:hr>146</gpxtpx:hr>
          </gpxtpx:TrackPointExtension>
        </extensions>
      </trkpt>
      <trkpt lat="42.93999" lon="1.89983">
        <ele>446.3</ele>
        <time>2022-07-25T08:40:32.000Z</time>
        <extensions>
          <gpxtpx:TrackPointExtension xmlns:gpxtpx="http://www.garmin.com/xmlschemas/TrackPointExtension/v1">
            <gpxtpx:hr>146</gpxtpx:hr>
          </gpxtpx:TrackPointExtension>
        </extensions>
      </trkpt>
      <trkpt lat="42.93992" lon="1.89984">
        <ele>446.4</ele>
        <time>2022-07-25T08:40:34.000Z</time>
        <extensions>
          <gpxtpx:TrackPointExtension xmlns:gpxtpx="http://www.garmin.com/xmlschemas/TrackPointExtension/v1">
            <gpxtpx:hr>146</gpxtpx:hr>
          </gpxtpx:TrackPointExtension>
        </extensions>
      </trkpt>
      <trkpt lat="42.93983" lon="1.89984">
        <ele>446.5</ele>
        <time>2022-07-25T08:40:36.000Z</time>
        <extensions>
          <gpxtpx:TrackPointExtension xmlns:gpxtpx="http://www.garmin.com/xmlschemas/TrackPointExtension/v1">
            <gpxtpx:hr>145</gpxtpx:hr>
          </gpxtpx:TrackPointExtension>
        </extensions>
      </trkpt>
      <trkpt lat="42.93975" lon="1.89985">
        <ele>446.5</ele>
        <time>2022-07-25T08:40:38.000Z</time>
        <extensions>
          <gpxtpx:TrackPointExtension xmlns:gpxtpx="http://www.garmin.com/xmlschemas/TrackPointExtension/v1">
            <gpxtpx:hr>145</gpxtpx:hr>
          </gpxtpx:TrackPointExtension>
        </extensions>
      </trkpt>
      <trkpt lat="42.93966" lon="1.89985">
        <ele>446.6</ele>
        <time>2022-07-25T08:40:40.000Z</time>
        <extensions>
          <gpxtpx:TrackPointExtension xmlns:gpxtpx="http://www.garmin.com/xmlschemas/TrackPointExtension/v1">
            <gpxtpx:hr>145</gpxtpx:hr>
          </gpxtpx:TrackPointExtension>
        </extensions>
      </trkpt>
      <trkpt lat="42.93959" lon="1.89987">
        <ele>446.7</ele>
        <time>2022-07-25T08:40:42.000Z</time>
        <extensions>
          <gpxtpx:TrackPointExtension xmlns:gpxtpx="http://www.garmin.com/xmlschemas/TrackPointExtension/v1">
            <gpxtpx:hr>145</gpxtpx:hr>
          </gpxtpx:TrackPointExtension>
        </extensions>
      </trkpt>
      <trkpt lat="42.93951" lon="1.89987">
        <ele>446.8</ele>
        <time>2022-07-25T08:40:44.000Z</time>
        <extensions>
          <gpxtpx:TrackPointExtension xmlns:gpxtpx="http://www.garmin.com/xmlschemas/TrackPointExtension/v1">
            <gpxtpx:hr>145</gpxtpx:hr>
          </gpxtpx:TrackPointExtension>
        </extensions>
      </trkpt>
      <trkpt lat="42.93946" lon="1.89987">
        <ele>446.8</ele>
        <time>2022-07-25T08:40:45.000Z</time>
        <extensions>
          <gpxtpx:TrackPointExtension xmlns:gpxtpx="http://www.garmin.com/xmlschemas/TrackPointExtension/v1">
            <gpxtpx:hr>146</gpxtpx:hr>
          </gpxtpx:TrackPointExtension>
        </extensions>
      </trkpt>
      <trkpt lat="42.93941" lon="1.89987">
        <ele>446.9</ele>
        <time>2022-07-25T08:40:46.000Z</time>
        <extensions>
          <gpxtpx:TrackPointExtension xmlns:gpxtpx="http://www.garmin.com/xmlschemas/TrackPointExtension/v1">
            <gpxtpx:hr>146</gpxtpx:hr>
          </gpxtpx:TrackPointExtension>
        </extensions>
      </trkpt>
      <trkpt lat="42.93936" lon="1.89986">
        <ele>446.9</ele>
        <time>2022-07-25T08:40:47.000Z</time>
        <extensions>
          <gpxtpx:TrackPointExtension xmlns:gpxtpx="http://www.garmin.com/xmlschemas/TrackPointExtension/v1">
            <gpxtpx:hr>146</gpxtpx:hr>
          </gpxtpx:TrackPointExtension>
        </extensions>
      </trkpt>
      <trkpt lat="42.93931" lon="1.89985">
        <ele>447</ele>
        <time>2022-07-25T08:40:48.000Z</time>
        <extensions>
          <gpxtpx:TrackPointExtension xmlns:gpxtpx="http://www.garmin.com/xmlschemas/TrackPointExtension/v1">
            <gpxtpx:hr>146</gpxtpx:hr>
          </gpxtpx:TrackPointExtension>
        </extensions>
      </trkpt>
      <trkpt lat="42.93926" lon="1.89983">
        <ele>447</ele>
        <time>2022-07-25T08:40:49.000Z</time>
        <extensions>
          <gpxtpx:TrackPointExtension xmlns:gpxtpx="http://www.garmin.com/xmlschemas/TrackPointExtension/v1">
            <gpxtpx:hr>146</gpxtpx:hr>
          </gpxtpx:TrackPointExtension>
        </extensions>
      </trkpt>
      <trkpt lat="42.9392" lon="1.8998">
        <ele>447</ele>
        <time>2022-07-25T08:40:50.000Z</time>
        <extensions>
          <gpxtpx:TrackPointExtension xmlns:gpxtpx="http://www.garmin.com/xmlschemas/TrackPointExtension/v1">
            <gpxtpx:hr>146</gpxtpx:hr>
          </gpxtpx:TrackPointExtension>
        </extensions>
      </trkpt>
      <trkpt lat="42.93915" lon="1.89976">
        <ele>447</ele>
        <time>2022-07-25T08:40:51.000Z</time>
        <extensions>
          <gpxtpx:TrackPointExtension xmlns:gpxtpx="http://www.garmin.com/xmlschemas/TrackPointExtension/v1">
            <gpxtpx:hr>146</gpxtpx:hr>
          </gpxtpx:TrackPointExtension>
        </extensions>
      </trkpt>
      <trkpt lat="42.9391" lon="1.89973">
        <ele>447</ele>
        <time>2022-07-25T08:40:52.000Z</time>
        <extensions>
          <gpxtpx:TrackPointExtension xmlns:gpxtpx="http://www.garmin.com/xmlschemas/TrackPointExtension/v1">
            <gpxtpx:hr>146</gpxtpx:hr>
          </gpxtpx:TrackPointExtension>
        </extensions>
      </trkpt>
      <trkpt lat="42.93904" lon="1.8997">
        <ele>447</ele>
        <time>2022-07-25T08:40:53.000Z</time>
        <extensions>
          <gpxtpx:TrackPointExtension xmlns:gpxtpx="http://www.garmin.com/xmlschemas/TrackPointExtension/v1">
            <gpxtpx:hr>146</gpxtpx:hr>
          </gpxtpx:TrackPointExtension>
        </extensions>
      </trkpt>
      <trkpt lat="42.93897" lon="1.89969">
        <ele>447</ele>
        <time>2022-07-25T08:40:54.000Z</time>
        <extensions>
          <gpxtpx:TrackPointExtension xmlns:gpxtpx="http://www.garmin.com/xmlschemas/TrackPointExtension/v1">
            <gpxtpx:hr>146</gpxtpx:hr>
          </gpxtpx:TrackPointExtension>
        </extensions>
      </trkpt>
      <trkpt lat="42.93891" lon="1.89969">
        <ele>446.9</ele>
        <time>2022-07-25T08:40:55.000Z</time>
        <extensions>
          <gpxtpx:TrackPointExtension xmlns:gpxtpx="http://www.garmin.com/xmlschemas/TrackPointExtension/v1">
            <gpxtpx:hr>145</gpxtpx:hr>
          </gpxtpx:TrackPointExtension>
        </extensions>
      </trkpt>
      <trkpt lat="42.93884" lon="1.89967">
        <ele>446.9</ele>
        <time>2022-07-25T08:40:56.000Z</time>
        <extensions>
          <gpxtpx:TrackPointExtension xmlns:gpxtpx="http://www.garmin.com/xmlschemas/TrackPointExtension/v1">
            <gpxtpx:hr>145</gpxtpx:hr>
          </gpxtpx:TrackPointExtension>
        </extensions>
      </trkpt>
      <trkpt lat="42.93877" lon="1.89966">
        <ele>446.9</ele>
        <time>2022-07-25T08:40:57.000Z</time>
        <extensions>
          <gpxtpx:TrackPointExtension xmlns:gpxtpx="http://www.garmin.com/xmlschemas/TrackPointExtension/v1">
            <gpxtpx:hr>145</gpxtpx:hr>
          </gpxtpx:TrackPointExtension>
        </extensions>
      </trkpt>
      <trkpt lat="42.9387" lon="1.89966">
        <ele>446.8</ele>
        <time>2022-07-25T08:40:58.000Z</time>
        <extensions>
          <gpxtpx:TrackPointExtension xmlns:gpxtpx="http://www.garmin.com/xmlschemas/TrackPointExtension/v1">
            <gpxtpx:hr>145</gpxtpx:hr>
          </gpxtpx:TrackPointExtension>
        </extensions>
      </trkpt>
      <trkpt lat="42.93864" lon="1.89966">
        <ele>446.8</ele>
        <time>2022-07-25T08:40:59.000Z</time>
        <extensions>
          <gpxtpx:TrackPointExtension xmlns:gpxtpx="http://www.garmin.com/xmlschemas/TrackPointExtension/v1">
            <gpxtpx:hr>144</gpxtpx:hr>
          </gpxtpx:TrackPointExtension>
        </extensions>
      </trkpt>
      <trkpt lat="42.93858" lon="1.89967">
        <ele>446.7</ele>
        <time>2022-07-25T08:41:00.000Z</time>
        <extensions>
          <gpxtpx:TrackPointExtension xmlns:gpxtpx="http://www.garmin.com/xmlschemas/TrackPointExtension/v1">
            <gpxtpx:hr>144</gpxtpx:hr>
          </gpxtpx:TrackPointExtension>
        </extensions>
      </trkpt>
      <trkpt lat="42.93853" lon="1.89968">
        <ele>446.7</ele>
        <time>2022-07-25T08:41:01.000Z</time>
        <extensions>
          <gpxtpx:TrackPointExtension xmlns:gpxtpx="http://www.garmin.com/xmlschemas/TrackPointExtension/v1">
            <gpxtpx:hr>144</gpxtpx:hr>
          </gpxtpx:TrackPointExtension>
        </extensions>
      </trkpt>
      <trkpt lat="42.93847" lon="1.8997">
        <ele>446.6</ele>
        <time>2022-07-25T08:41:02.000Z</time>
        <extensions>
          <gpxtpx:TrackPointExtension xmlns:gpxtpx="http://www.garmin.com/xmlschemas/TrackPointExtension/v1">
            <gpxtpx:hr>143</gpxtpx:hr>
          </gpxtpx:TrackPointExtension>
        </extensions>
      </trkpt>
      <trkpt lat="42.93842" lon="1.89971">
        <ele>446.5</ele>
        <time>2022-07-25T08:41:03.000Z</time>
        <extensions>
          <gpxtpx:TrackPointExtension xmlns:gpxtpx="http://www.garmin.com/xmlschemas/TrackPointExtension/v1">
            <gpxtpx:hr>142</gpxtpx:hr>
          </gpxtpx:TrackPointExtension>
        </extensions>
      </trkpt>
      <trkpt lat="42.93837" lon="1.89972">
        <ele>446.5</ele>
        <time>2022-07-25T08:41:04.000Z</time>
        <extensions>
          <gpxtpx:TrackPointExtension xmlns:gpxtpx="http://www.garmin.com/xmlschemas/TrackPointExtension/v1">
            <gpxtpx:hr>142</gpxtpx:hr>
          </gpxtpx:TrackPointExtension>
        </extensions>
      </trkpt>
      <trkpt lat="42.93832" lon="1.89973">
        <ele>446.4</ele>
        <time>2022-07-25T08:41:05.000Z</time>
        <extensions>
          <gpxtpx:TrackPointExtension xmlns:gpxtpx="http://www.garmin.com/xmlschemas/TrackPointExtension/v1">
            <gpxtpx:hr>141</gpxtpx:hr>
          </gpxtpx:TrackPointExtension>
        </extensions>
      </trkpt>
      <trkpt lat="42.93827" lon="1.89973">
        <ele>446.4</ele>
        <time>2022-07-25T08:41:06.000Z</time>
        <extensions>
          <gpxtpx:TrackPointExtension xmlns:gpxtpx="http://www.garmin.com/xmlschemas/TrackPointExtension/v1">
            <gpxtpx:hr>141</gpxtpx:hr>
          </gpxtpx:TrackPointExtension>
        </extensions>
      </trkpt>
      <trkpt lat="42.93821" lon="1.89973">
        <ele>446.3</ele>
        <time>2022-07-25T08:41:07.000Z</time>
        <extensions>
          <gpxtpx:TrackPointExtension xmlns:gpxtpx="http://www.garmin.com/xmlschemas/TrackPointExtension/v1">
            <gpxtpx:hr>141</gpxtpx:hr>
          </gpxtpx:TrackPointExtension>
        </extensions>
      </trkpt>
      <trkpt lat="42.93816" lon="1.89973">
        <ele>446.3</ele>
        <time>2022-07-25T08:41:08.000Z</time>
        <extensions>
          <gpxtpx:TrackPointExtension xmlns:gpxtpx="http://www.garmin.com/xmlschemas/TrackPointExtension/v1">
            <gpxtpx:hr>140</gpxtpx:hr>
          </gpxtpx:TrackPointExtension>
        </extensions>
      </trkpt>
      <trkpt lat="42.93811" lon="1.89974">
        <ele>446.2</ele>
        <time>2022-07-25T08:41:09.000Z</time>
        <extensions>
          <gpxtpx:TrackPointExtension xmlns:gpxtpx="http://www.garmin.com/xmlschemas/TrackPointExtension/v1">
            <gpxtpx:hr>140</gpxtpx:hr>
          </gpxtpx:TrackPointExtension>
        </extensions>
      </trkpt>
      <trkpt lat="42.93806" lon="1.89973">
        <ele>446.2</ele>
        <time>2022-07-25T08:41:10.000Z</time>
        <extensions>
          <gpxtpx:TrackPointExtension xmlns:gpxtpx="http://www.garmin.com/xmlschemas/TrackPointExtension/v1">
            <gpxtpx:hr>140</gpxtpx:hr>
          </gpxtpx:TrackPointExtension>
        </extensions>
      </trkpt>
      <trkpt lat="42.93797" lon="1.89974">
        <ele>446.1</ele>
        <time>2022-07-25T08:41:12.000Z</time>
        <extensions>
          <gpxtpx:TrackPointExtension xmlns:gpxtpx="http://www.garmin.com/xmlschemas/TrackPointExtension/v1">
            <gpxtpx:hr>139</gpxtpx:hr>
          </gpxtpx:TrackPointExtension>
        </extensions>
      </trkpt>
      <trkpt lat="42.9379" lon="1.89976">
        <ele>446</ele>
        <time>2022-07-25T08:41:14.000Z</time>
        <extensions>
          <gpxtpx:TrackPointExtension xmlns:gpxtpx="http://www.garmin.com/xmlschemas/TrackPointExtension/v1">
            <gpxtpx:hr>139</gpxtpx:hr>
          </gpxtpx:TrackPointExtension>
        </extensions>
      </trkpt>
      <trkpt lat="42.93781" lon="1.89976">
        <ele>445.9</ele>
        <time>2022-07-25T08:41:16.000Z</time>
        <extensions>
          <gpxtpx:TrackPointExtension xmlns:gpxtpx="http://www.garmin.com/xmlschemas/TrackPointExtension/v1">
            <gpxtpx:hr>139</gpxtpx:hr>
          </gpxtpx:TrackPointExtension>
        </extensions>
      </trkpt>
      <trkpt lat="42.93777" lon="1.89977">
        <ele>445.8</ele>
        <time>2022-07-25T08:41:17.000Z</time>
        <extensions>
          <gpxtpx:TrackPointExtension xmlns:gpxtpx="http://www.garmin.com/xmlschemas/TrackPointExtension/v1">
            <gpxtpx:hr>139</gpxtpx:hr>
          </gpxtpx:TrackPointExtension>
        </extensions>
      </trkpt>
      <trkpt lat="42.93769" lon="1.89978">
        <ele>445.8</ele>
        <time>2022-07-25T08:41:19.000Z</time>
        <extensions>
          <gpxtpx:TrackPointExtension xmlns:gpxtpx="http://www.garmin.com/xmlschemas/TrackPointExtension/v1">
            <gpxtpx:hr>139</gpxtpx:hr>
          </gpxtpx:TrackPointExtension>
        </extensions>
      </trkpt>
      <trkpt lat="42.9376" lon="1.89978">
        <ele>445.7</ele>
        <time>2022-07-25T08:41:21.000Z</time>
        <extensions>
          <gpxtpx:TrackPointExtension xmlns:gpxtpx="http://www.garmin.com/xmlschemas/TrackPointExtension/v1">
            <gpxtpx:hr>140</gpxtpx:hr>
          </gpxtpx:TrackPointExtension>
        </extensions>
      </trkpt>
      <trkpt lat="42.93752" lon="1.89979">
        <ele>445.7</ele>
        <time>2022-07-25T08:41:23.000Z</time>
        <extensions>
          <gpxtpx:TrackPointExtension xmlns:gpxtpx="http://www.garmin.com/xmlschemas/TrackPointExtension/v1">
            <gpxtpx:hr>140</gpxtpx:hr>
          </gpxtpx:TrackPointExtension>
        </extensions>
      </trkpt>
      <trkpt lat="42.93741" lon="1.8998">
        <ele>445.7</ele>
        <time>2022-07-25T08:41:25.000Z</time>
        <extensions>
          <gpxtpx:TrackPointExtension xmlns:gpxtpx="http://www.garmin.com/xmlschemas/TrackPointExtension/v1">
            <gpxtpx:hr>140</gpxtpx:hr>
          </gpxtpx:TrackPointExtension>
        </extensions>
      </trkpt>
      <trkpt lat="42.93736" lon="1.89981">
        <ele>445.7</ele>
        <time>2022-07-25T08:41:26.000Z</time>
        <extensions>
          <gpxtpx:TrackPointExtension xmlns:gpxtpx="http://www.garmin.com/xmlschemas/TrackPointExtension/v1">
            <gpxtpx:hr>141</gpxtpx:hr>
          </gpxtpx:TrackPointExtension>
        </extensions>
      </trkpt>
      <trkpt lat="42.93731" lon="1.89981">
        <ele>445.7</ele>
        <time>2022-07-25T08:41:27.000Z</time>
        <extensions>
          <gpxtpx:TrackPointExtension xmlns:gpxtpx="http://www.garmin.com/xmlschemas/TrackPointExtension/v1">
            <gpxtpx:hr>141</gpxtpx:hr>
          </gpxtpx:TrackPointExtension>
        </extensions>
      </trkpt>
      <trkpt lat="42.93722" lon="1.89983">
        <ele>445.9</ele>
        <time>2022-07-25T08:41:29.000Z</time>
        <extensions>
          <gpxtpx:TrackPointExtension xmlns:gpxtpx="http://www.garmin.com/xmlschemas/TrackPointExtension/v1">
            <gpxtpx:hr>141</gpxtpx:hr>
          </gpxtpx:TrackPointExtension>
        </extensions>
      </trkpt>
      <trkpt lat="42.93714" lon="1.89984">
        <ele>446.1</ele>
        <time>2022-07-25T08:41:31.000Z</time>
        <extensions>
          <gpxtpx:TrackPointExtension xmlns:gpxtpx="http://www.garmin.com/xmlschemas/TrackPointExtension/v1">
            <gpxtpx:hr>141</gpxtpx:hr>
          </gpxtpx:TrackPointExtension>
        </extensions>
      </trkpt>
      <trkpt lat="42.93707" lon="1.89983">
        <ele>446.3</ele>
        <time>2022-07-25T08:41:33.000Z</time>
        <extensions>
          <gpxtpx:TrackPointExtension xmlns:gpxtpx="http://www.garmin.com/xmlschemas/TrackPointExtension/v1">
            <gpxtpx:hr>142</gpxtpx:hr>
          </gpxtpx:TrackPointExtension>
        </extensions>
      </trkpt>
      <trkpt lat="42.93699" lon="1.89981">
        <ele>446.5</ele>
        <time>2022-07-25T08:41:35.000Z</time>
        <extensions>
          <gpxtpx:TrackPointExtension xmlns:gpxtpx="http://www.garmin.com/xmlschemas/TrackPointExtension/v1">
            <gpxtpx:hr>142</gpxtpx:hr>
          </gpxtpx:TrackPointExtension>
        </extensions>
      </trkpt>
      <trkpt lat="42.93695" lon="1.89981">
        <ele>446.6</ele>
        <time>2022-07-25T08:41:36.000Z</time>
        <extensions>
          <gpxtpx:TrackPointExtension xmlns:gpxtpx="http://www.garmin.com/xmlschemas/TrackPointExtension/v1">
            <gpxtpx:hr>143</gpxtpx:hr>
          </gpxtpx:TrackPointExtension>
        </extensions>
      </trkpt>
      <trkpt lat="42.93689" lon="1.89981">
        <ele>446.7</ele>
        <time>2022-07-25T08:41:37.000Z</time>
        <extensions>
          <gpxtpx:TrackPointExtension xmlns:gpxtpx="http://www.garmin.com/xmlschemas/TrackPointExtension/v1">
            <gpxtpx:hr>143</gpxtpx:hr>
          </gpxtpx:TrackPointExtension>
        </extensions>
      </trkpt>
      <trkpt lat="42.93683" lon="1.89982">
        <ele>446.8</ele>
        <time>2022-07-25T08:41:38.000Z</time>
        <extensions>
          <gpxtpx:TrackPointExtension xmlns:gpxtpx="http://www.garmin.com/xmlschemas/TrackPointExtension/v1">
            <gpxtpx:hr>143</gpxtpx:hr>
          </gpxtpx:TrackPointExtension>
        </extensions>
      </trkpt>
      <trkpt lat="42.93677" lon="1.89983">
        <ele>446.9</ele>
        <time>2022-07-25T08:41:39.000Z</time>
        <extensions>
          <gpxtpx:TrackPointExtension xmlns:gpxtpx="http://www.garmin.com/xmlschemas/TrackPointExtension/v1">
            <gpxtpx:hr>144</gpxtpx:hr>
          </gpxtpx:TrackPointExtension>
        </extensions>
      </trkpt>
      <trkpt lat="42.93671" lon="1.89983">
        <ele>447</ele>
        <time>2022-07-25T08:41:40.000Z</time>
        <extensions>
          <gpxtpx:TrackPointExtension xmlns:gpxtpx="http://www.garmin.com/xmlschemas/TrackPointExtension/v1">
            <gpxtpx:hr>144</gpxtpx:hr>
          </gpxtpx:TrackPointExtension>
        </extensions>
      </trkpt>
      <trkpt lat="42.93666" lon="1.89983">
        <ele>447.1</ele>
        <time>2022-07-25T08:41:41.000Z</time>
        <extensions>
          <gpxtpx:TrackPointExtension xmlns:gpxtpx="http://www.garmin.com/xmlschemas/TrackPointExtension/v1">
            <gpxtpx:hr>145</gpxtpx:hr>
          </gpxtpx:TrackPointExtension>
        </extensions>
      </trkpt>
      <trkpt lat="42.93661" lon="1.89983">
        <ele>447.1</ele>
        <time>2022-07-25T08:41:42.000Z</time>
        <extensions>
          <gpxtpx:TrackPointExtension xmlns:gpxtpx="http://www.garmin.com/xmlschemas/TrackPointExtension/v1">
            <gpxtpx:hr>145</gpxtpx:hr>
          </gpxtpx:TrackPointExtension>
        </extensions>
      </trkpt>
      <trkpt lat="42.93656" lon="1.89983">
        <ele>447.2</ele>
        <time>2022-07-25T08:41:43.000Z</time>
        <extensions>
          <gpxtpx:TrackPointExtension xmlns:gpxtpx="http://www.garmin.com/xmlschemas/TrackPointExtension/v1">
            <gpxtpx:hr>145</gpxtpx:hr>
          </gpxtpx:TrackPointExtension>
        </extensions>
      </trkpt>
      <trkpt lat="42.93651" lon="1.89983">
        <ele>447.2</ele>
        <time>2022-07-25T08:41:44.000Z</time>
        <extensions>
          <gpxtpx:TrackPointExtension xmlns:gpxtpx="http://www.garmin.com/xmlschemas/TrackPointExtension/v1">
            <gpxtpx:hr>146</gpxtpx:hr>
          </gpxtpx:TrackPointExtension>
        </extensions>
      </trkpt>
      <trkpt lat="42.93646" lon="1.89981">
        <ele>447.3</ele>
        <time>2022-07-25T08:41:45.000Z</time>
        <extensions>
          <gpxtpx:TrackPointExtension xmlns:gpxtpx="http://www.garmin.com/xmlschemas/TrackPointExtension/v1">
            <gpxtpx:hr>146</gpxtpx:hr>
          </gpxtpx:TrackPointExtension>
        </extensions>
      </trkpt>
      <trkpt lat="42.9364" lon="1.89979">
        <ele>447.3</ele>
        <time>2022-07-25T08:41:46.000Z</time>
        <extensions>
          <gpxtpx:TrackPointExtension xmlns:gpxtpx="http://www.garmin.com/xmlschemas/TrackPointExtension/v1">
            <gpxtpx:hr>146</gpxtpx:hr>
          </gpxtpx:TrackPointExtension>
        </extensions>
      </trkpt>
      <trkpt lat="42.93635" lon="1.89976">
        <ele>447.3</ele>
        <time>2022-07-25T08:41:47.000Z</time>
        <extensions>
          <gpxtpx:TrackPointExtension xmlns:gpxtpx="http://www.garmin.com/xmlschemas/TrackPointExtension/v1">
            <gpxtpx:hr>146</gpxtpx:hr>
          </gpxtpx:TrackPointExtension>
        </extensions>
      </trkpt>
      <trkpt lat="42.93629" lon="1.89974">
        <ele>447.4</ele>
        <time>2022-07-25T08:41:48.000Z</time>
        <extensions>
          <gpxtpx:TrackPointExtension xmlns:gpxtpx="http://www.garmin.com/xmlschemas/TrackPointExtension/v1">
            <gpxtpx:hr>146</gpxtpx:hr>
          </gpxtpx:TrackPointExtension>
        </extensions>
      </trkpt>
      <trkpt lat="42.93625" lon="1.89972">
        <ele>447.4</ele>
        <time>2022-07-25T08:41:49.000Z</time>
        <extensions>
          <gpxtpx:TrackPointExtension xmlns:gpxtpx="http://www.garmin.com/xmlschemas/TrackPointExtension/v1">
            <gpxtpx:hr>146</gpxtpx:hr>
          </gpxtpx:TrackPointExtension>
        </extensions>
      </trkpt>
      <trkpt lat="42.9362" lon="1.8997">
        <ele>447.4</ele>
        <time>2022-07-25T08:41:50.000Z</time>
        <extensions>
          <gpxtpx:TrackPointExtension xmlns:gpxtpx="http://www.garmin.com/xmlschemas/TrackPointExtension/v1">
            <gpxtpx:hr>146</gpxtpx:hr>
          </gpxtpx:TrackPointExtension>
        </extensions>
      </trkpt>
      <trkpt lat="42.93616" lon="1.89968">
        <ele>447.4</ele>
        <time>2022-07-25T08:41:51.000Z</time>
        <extensions>
          <gpxtpx:TrackPointExtension xmlns:gpxtpx="http://www.garmin.com/xmlschemas/TrackPointExtension/v1">
            <gpxtpx:hr>146</gpxtpx:hr>
          </gpxtpx:TrackPointExtension>
        </extensions>
      </trkpt>
      <trkpt lat="42.93611" lon="1.89966">
        <ele>447.3</ele>
        <time>2022-07-25T08:41:52.000Z</time>
        <extensions>
          <gpxtpx:TrackPointExtension xmlns:gpxtpx="http://www.garmin.com/xmlschemas/TrackPointExtension/v1">
            <gpxtpx:hr>146</gpxtpx:hr>
          </gpxtpx:TrackPointExtension>
        </extensions>
      </trkpt>
      <trkpt lat="42.93607" lon="1.89964">
        <ele>447.3</ele>
        <time>2022-07-25T08:41:53.000Z</time>
        <extensions>
          <gpxtpx:TrackPointExtension xmlns:gpxtpx="http://www.garmin.com/xmlschemas/TrackPointExtension/v1">
            <gpxtpx:hr>146</gpxtpx:hr>
          </gpxtpx:TrackPointExtension>
        </extensions>
      </trkpt>
      <trkpt lat="42.93602" lon="1.89963">
        <ele>447.3</ele>
        <time>2022-07-25T08:41:54.000Z</time>
        <extensions>
          <gpxtpx:TrackPointExtension xmlns:gpxtpx="http://www.garmin.com/xmlschemas/TrackPointExtension/v1">
            <gpxtpx:hr>146</gpxtpx:hr>
          </gpxtpx:TrackPointExtension>
        </extensions>
      </trkpt>
      <trkpt lat="42.93597" lon="1.89961">
        <ele>447.3</ele>
        <time>2022-07-25T08:41:55.000Z</time>
        <extensions>
          <gpxtpx:TrackPointExtension xmlns:gpxtpx="http://www.garmin.com/xmlschemas/TrackPointExtension/v1">
            <gpxtpx:hr>146</gpxtpx:hr>
          </gpxtpx:TrackPointExtension>
        </extensions>
      </trkpt>
      <trkpt lat="42.93592" lon="1.89961">
        <ele>447.3</ele>
        <time>2022-07-25T08:41:56.000Z</time>
        <extensions>
          <gpxtpx:TrackPointExtension xmlns:gpxtpx="http://www.garmin.com/xmlschemas/TrackPointExtension/v1">
            <gpxtpx:hr>145</gpxtpx:hr>
          </gpxtpx:TrackPointExtension>
        </extensions>
      </trkpt>
      <trkpt lat="42.93584" lon="1.89955">
        <ele>447.2</ele>
        <time>2022-07-25T08:41:57.000Z</time>
        <extensions>
          <gpxtpx:TrackPointExtension xmlns:gpxtpx="http://www.garmin.com/xmlschemas/TrackPointExtension/v1">
            <gpxtpx:hr>145</gpxtpx:hr>
          </gpxtpx:TrackPointExtension>
        </extensions>
      </trkpt>
      <trkpt lat="42.93579" lon="1.8995">
        <ele>447.2</ele>
        <time>2022-07-25T08:41:58.000Z</time>
        <extensions>
          <gpxtpx:TrackPointExtension xmlns:gpxtpx="http://www.garmin.com/xmlschemas/TrackPointExtension/v1">
            <gpxtpx:hr>145</gpxtpx:hr>
          </gpxtpx:TrackPointExtension>
        </extensions>
      </trkpt>
      <trkpt lat="42.93574" lon="1.89946">
        <ele>447.1</ele>
        <time>2022-07-25T08:41:59.000Z</time>
        <extensions>
          <gpxtpx:TrackPointExtension xmlns:gpxtpx="http://www.garmin.com/xmlschemas/TrackPointExtension/v1">
            <gpxtpx:hr>145</gpxtpx:hr>
          </gpxtpx:TrackPointExtension>
        </extensions>
      </trkpt>
      <trkpt lat="42.9357" lon="1.89943">
        <ele>447.1</ele>
        <time>2022-07-25T08:42:00.000Z</time>
        <extensions>
          <gpxtpx:TrackPointExtension xmlns:gpxtpx="http://www.garmin.com/xmlschemas/TrackPointExtension/v1">
            <gpxtpx:hr>146</gpxtpx:hr>
          </gpxtpx:TrackPointExtension>
        </extensions>
      </trkpt>
      <trkpt lat="42.93566" lon="1.89939">
        <ele>447</ele>
        <time>2022-07-25T08:42:01.000Z</time>
        <extensions>
          <gpxtpx:TrackPointExtension xmlns:gpxtpx="http://www.garmin.com/xmlschemas/TrackPointExtension/v1">
            <gpxtpx:hr>146</gpxtpx:hr>
          </gpxtpx:TrackPointExtension>
        </extensions>
      </trkpt>
      <trkpt lat="42.93557" lon="1.89934">
        <ele>447</ele>
        <time>2022-07-25T08:42:03.000Z</time>
        <extensions>
          <gpxtpx:TrackPointExtension xmlns:gpxtpx="http://www.garmin.com/xmlschemas/TrackPointExtension/v1">
            <gpxtpx:hr>146</gpxtpx:hr>
          </gpxtpx:TrackPointExtension>
        </extensions>
      </trkpt>
      <trkpt lat="42.93553" lon="1.89931">
        <ele>446.9</ele>
        <time>2022-07-25T08:42:04.000Z</time>
        <extensions>
          <gpxtpx:TrackPointExtension xmlns:gpxtpx="http://www.garmin.com/xmlschemas/TrackPointExtension/v1">
            <gpxtpx:hr>146</gpxtpx:hr>
          </gpxtpx:TrackPointExtension>
        </extensions>
      </trkpt>
      <trkpt lat="42.93545" lon="1.89926">
        <ele>446.9</ele>
        <time>2022-07-25T08:42:06.000Z</time>
        <extensions>
          <gpxtpx:TrackPointExtension xmlns:gpxtpx="http://www.garmin.com/xmlschemas/TrackPointExtension/v1">
            <gpxtpx:hr>146</gpxtpx:hr>
          </gpxtpx:TrackPointExtension>
        </extensions>
      </trkpt>
      <trkpt lat="42.93536" lon="1.89923">
        <ele>446.7</ele>
        <time>2022-07-25T08:42:08.000Z</time>
        <extensions>
          <gpxtpx:TrackPointExtension xmlns:gpxtpx="http://www.garmin.com/xmlschemas/TrackPointExtension/v1">
            <gpxtpx:hr>147</gpxtpx:hr>
          </gpxtpx:TrackPointExtension>
        </extensions>
      </trkpt>
      <trkpt lat="42.93529" lon="1.8992">
        <ele>446.5</ele>
        <time>2022-07-25T08:42:10.000Z</time>
        <extensions>
          <gpxtpx:TrackPointExtension xmlns:gpxtpx="http://www.garmin.com/xmlschemas/TrackPointExtension/v1">
            <gpxtpx:hr>147</gpxtpx:hr>
          </gpxtpx:TrackPointExtension>
        </extensions>
      </trkpt>
      <trkpt lat="42.93521" lon="1.89917">
        <ele>446.4</ele>
        <time>2022-07-25T08:42:12.000Z</time>
        <extensions>
          <gpxtpx:TrackPointExtension xmlns:gpxtpx="http://www.garmin.com/xmlschemas/TrackPointExtension/v1">
            <gpxtpx:hr>146</gpxtpx:hr>
          </gpxtpx:TrackPointExtension>
        </extensions>
      </trkpt>
      <trkpt lat="42.93514" lon="1.8992">
        <ele>446.2</ele>
        <time>2022-07-25T08:42:14.000Z</time>
        <extensions>
          <gpxtpx:TrackPointExtension xmlns:gpxtpx="http://www.garmin.com/xmlschemas/TrackPointExtension/v1">
            <gpxtpx:hr>146</gpxtpx:hr>
          </gpxtpx:TrackPointExtension>
        </extensions>
      </trkpt>
      <trkpt lat="42.93505" lon="1.8992">
        <ele>446.2</ele>
        <time>2022-07-25T08:42:16.000Z</time>
        <extensions>
          <gpxtpx:TrackPointExtension xmlns:gpxtpx="http://www.garmin.com/xmlschemas/TrackPointExtension/v1">
            <gpxtpx:hr>146</gpxtpx:hr>
          </gpxtpx:TrackPointExtension>
        </extensions>
      </trkpt>
      <trkpt lat="42.93498" lon="1.89922">
        <ele>446.2</ele>
        <time>2022-07-25T08:42:18.000Z</time>
        <extensions>
          <gpxtpx:TrackPointExtension xmlns:gpxtpx="http://www.garmin.com/xmlschemas/TrackPointExtension/v1">
            <gpxtpx:hr>145</gpxtpx:hr>
          </gpxtpx:TrackPointExtension>
        </extensions>
      </trkpt>
      <trkpt lat="42.93491" lon="1.89929">
        <ele>446.3</ele>
        <time>2022-07-25T08:42:20.000Z</time>
        <extensions>
          <gpxtpx:TrackPointExtension xmlns:gpxtpx="http://www.garmin.com/xmlschemas/TrackPointExtension/v1">
            <gpxtpx:hr>145</gpxtpx:hr>
          </gpxtpx:TrackPointExtension>
        </extensions>
      </trkpt>
      <trkpt lat="42.93483" lon="1.89933">
        <ele>446.3</ele>
        <time>2022-07-25T08:42:22.000Z</time>
        <extensions>
          <gpxtpx:TrackPointExtension xmlns:gpxtpx="http://www.garmin.com/xmlschemas/TrackPointExtension/v1">
            <gpxtpx:hr>145</gpxtpx:hr>
          </gpxtpx:TrackPointExtension>
        </extensions>
      </trkpt>
      <trkpt lat="42.93479" lon="1.89936">
        <ele>446.3</ele>
        <time>2022-07-25T08:42:23.000Z</time>
        <extensions>
          <gpxtpx:TrackPointExtension xmlns:gpxtpx="http://www.garmin.com/xmlschemas/TrackPointExtension/v1">
            <gpxtpx:hr>145</gpxtpx:hr>
          </gpxtpx:TrackPointExtension>
        </extensions>
      </trkpt>
      <trkpt lat="42.93474" lon="1.89939">
        <ele>446.4</ele>
        <time>2022-07-25T08:42:24.000Z</time>
        <extensions>
          <gpxtpx:TrackPointExtension xmlns:gpxtpx="http://www.garmin.com/xmlschemas/TrackPointExtension/v1">
            <gpxtpx:hr>145</gpxtpx:hr>
          </gpxtpx:TrackPointExtension>
        </extensions>
      </trkpt>
      <trkpt lat="42.9347" lon="1.89941">
        <ele>446.4</ele>
        <time>2022-07-25T08:42:25.000Z</time>
        <extensions>
          <gpxtpx:TrackPointExtension xmlns:gpxtpx="http://www.garmin.com/xmlschemas/TrackPointExtension/v1">
            <gpxtpx:hr>145</gpxtpx:hr>
          </gpxtpx:TrackPointExtension>
        </extensions>
      </trkpt>
      <trkpt lat="42.93463" lon="1.89946">
        <ele>446.6</ele>
        <time>2022-07-25T08:42:27.000Z</time>
        <extensions>
          <gpxtpx:TrackPointExtension xmlns:gpxtpx="http://www.garmin.com/xmlschemas/TrackPointExtension/v1">
            <gpxtpx:hr>145</gpxtpx:hr>
          </gpxtpx:TrackPointExtension>
        </extensions>
      </trkpt>
      <trkpt lat="42.93457" lon="1.89948">
        <ele>446.6</ele>
        <time>2022-07-25T08:42:28.000Z</time>
        <extensions>
          <gpxtpx:TrackPointExtension xmlns:gpxtpx="http://www.garmin.com/xmlschemas/TrackPointExtension/v1">
            <gpxtpx:hr>145</gpxtpx:hr>
          </gpxtpx:TrackPointExtension>
        </extensions>
      </trkpt>
      <trkpt lat="42.93449" lon="1.89952">
        <ele>446.8</ele>
        <time>2022-07-25T08:42:30.000Z</time>
        <extensions>
          <gpxtpx:TrackPointExtension xmlns:gpxtpx="http://www.garmin.com/xmlschemas/TrackPointExtension/v1">
            <gpxtpx:hr>146</gpxtpx:hr>
          </gpxtpx:TrackPointExtension>
        </extensions>
      </trkpt>
      <trkpt lat="42.93445" lon="1.89953">
        <ele>446.8</ele>
        <time>2022-07-25T08:42:31.000Z</time>
        <extensions>
          <gpxtpx:TrackPointExtension xmlns:gpxtpx="http://www.garmin.com/xmlschemas/TrackPointExtension/v1">
            <gpxtpx:hr>146</gpxtpx:hr>
          </gpxtpx:TrackPointExtension>
        </extensions>
      </trkpt>
      <trkpt lat="42.9344" lon="1.89954">
        <ele>446.9</ele>
        <time>2022-07-25T08:42:32.000Z</time>
        <extensions>
          <gpxtpx:TrackPointExtension xmlns:gpxtpx="http://www.garmin.com/xmlschemas/TrackPointExtension/v1">
            <gpxtpx:hr>146</gpxtpx:hr>
          </gpxtpx:TrackPointExtension>
        </extensions>
      </trkpt>
      <trkpt lat="42.93432" lon="1.89956">
        <ele>447</ele>
        <time>2022-07-25T08:42:34.000Z</time>
        <extensions>
          <gpxtpx:TrackPointExtension xmlns:gpxtpx="http://www.garmin.com/xmlschemas/TrackPointExtension/v1">
            <gpxtpx:hr>147</gpxtpx:hr>
          </gpxtpx:TrackPointExtension>
        </extensions>
      </trkpt>
      <trkpt lat="42.93424" lon="1.8996">
        <ele>447.1</ele>
        <time>2022-07-25T08:42:36.000Z</time>
        <extensions>
          <gpxtpx:TrackPointExtension xmlns:gpxtpx="http://www.garmin.com/xmlschemas/TrackPointExtension/v1">
            <gpxtpx:hr>147</gpxtpx:hr>
          </gpxtpx:TrackPointExtension>
        </extensions>
      </trkpt>
      <trkpt lat="42.93416" lon="1.89964">
        <ele>447.2</ele>
        <time>2022-07-25T08:42:38.000Z</time>
        <extensions>
          <gpxtpx:TrackPointExtension xmlns:gpxtpx="http://www.garmin.com/xmlschemas/TrackPointExtension/v1">
            <gpxtpx:hr>148</gpxtpx:hr>
          </gpxtpx:TrackPointExtension>
        </extensions>
      </trkpt>
      <trkpt lat="42.93408" lon="1.89967">
        <ele>447.3</ele>
        <time>2022-07-25T08:42:40.000Z</time>
        <extensions>
          <gpxtpx:TrackPointExtension xmlns:gpxtpx="http://www.garmin.com/xmlschemas/TrackPointExtension/v1">
            <gpxtpx:hr>148</gpxtpx:hr>
          </gpxtpx:TrackPointExtension>
        </extensions>
      </trkpt>
      <trkpt lat="42.93399" lon="1.8997">
        <ele>447.5</ele>
        <time>2022-07-25T08:42:42.000Z</time>
        <extensions>
          <gpxtpx:TrackPointExtension xmlns:gpxtpx="http://www.garmin.com/xmlschemas/TrackPointExtension/v1">
            <gpxtpx:hr>149</gpxtpx:hr>
          </gpxtpx:TrackPointExtension>
        </extensions>
      </trkpt>
      <trkpt lat="42.93395" lon="1.89971">
        <ele>447.5</ele>
        <time>2022-07-25T08:42:43.000Z</time>
        <extensions>
          <gpxtpx:TrackPointExtension xmlns:gpxtpx="http://www.garmin.com/xmlschemas/TrackPointExtension/v1">
            <gpxtpx:hr>150</gpxtpx:hr>
          </gpxtpx:TrackPointExtension>
        </extensions>
      </trkpt>
      <trkpt lat="42.93386" lon="1.89971">
        <ele>447.7</ele>
        <time>2022-07-25T08:42:45.000Z</time>
        <extensions>
          <gpxtpx:TrackPointExtension xmlns:gpxtpx="http://www.garmin.com/xmlschemas/TrackPointExtension/v1">
            <gpxtpx:hr>150</gpxtpx:hr>
          </gpxtpx:TrackPointExtension>
        </extensions>
      </trkpt>
      <trkpt lat="42.93381" lon="1.8997">
        <ele>447.7</ele>
        <time>2022-07-25T08:42:46.000Z</time>
        <extensions>
          <gpxtpx:TrackPointExtension xmlns:gpxtpx="http://www.garmin.com/xmlschemas/TrackPointExtension/v1">
            <gpxtpx:hr>151</gpxtpx:hr>
          </gpxtpx:TrackPointExtension>
        </extensions>
      </trkpt>
      <trkpt lat="42.93377" lon="1.89969">
        <ele>447.8</ele>
        <time>2022-07-25T08:42:47.000Z</time>
        <extensions>
          <gpxtpx:TrackPointExtension xmlns:gpxtpx="http://www.garmin.com/xmlschemas/TrackPointExtension/v1">
            <gpxtpx:hr>151</gpxtpx:hr>
          </gpxtpx:TrackPointExtension>
        </extensions>
      </trkpt>
      <trkpt lat="42.93371" lon="1.89968">
        <ele>447.8</ele>
        <time>2022-07-25T08:42:48.000Z</time>
        <extensions>
          <gpxtpx:TrackPointExtension xmlns:gpxtpx="http://www.garmin.com/xmlschemas/TrackPointExtension/v1">
            <gpxtpx:hr>152</gpxtpx:hr>
          </gpxtpx:TrackPointExtension>
        </extensions>
      </trkpt>
      <trkpt lat="42.93366" lon="1.89966">
        <ele>447.9</ele>
        <time>2022-07-25T08:42:49.000Z</time>
        <extensions>
          <gpxtpx:TrackPointExtension xmlns:gpxtpx="http://www.garmin.com/xmlschemas/TrackPointExtension/v1">
            <gpxtpx:hr>152</gpxtpx:hr>
          </gpxtpx:TrackPointExtension>
        </extensions>
      </trkpt>
      <trkpt lat="42.93361" lon="1.89967">
        <ele>447.9</ele>
        <time>2022-07-25T08:42:50.000Z</time>
        <extensions>
          <gpxtpx:TrackPointExtension xmlns:gpxtpx="http://www.garmin.com/xmlschemas/TrackPointExtension/v1">
            <gpxtpx:hr>153</gpxtpx:hr>
          </gpxtpx:TrackPointExtension>
        </extensions>
      </trkpt>
      <trkpt lat="42.93356" lon="1.89968">
        <ele>448</ele>
        <time>2022-07-25T08:42:51.000Z</time>
        <extensions>
          <gpxtpx:TrackPointExtension xmlns:gpxtpx="http://www.garmin.com/xmlschemas/TrackPointExtension/v1">
            <gpxtpx:hr>153</gpxtpx:hr>
          </gpxtpx:TrackPointExtension>
        </extensions>
      </trkpt>
      <trkpt lat="42.93351" lon="1.8997">
        <ele>448</ele>
        <time>2022-07-25T08:42:52.000Z</time>
        <extensions>
          <gpxtpx:TrackPointExtension xmlns:gpxtpx="http://www.garmin.com/xmlschemas/TrackPointExtension/v1">
            <gpxtpx:hr>153</gpxtpx:hr>
          </gpxtpx:TrackPointExtension>
        </extensions>
      </trkpt>
      <trkpt lat="42.93344" lon="1.89977">
        <ele>448.1</ele>
        <time>2022-07-25T08:42:54.000Z</time>
        <extensions>
          <gpxtpx:TrackPointExtension xmlns:gpxtpx="http://www.garmin.com/xmlschemas/TrackPointExtension/v1">
            <gpxtpx:hr>154</gpxtpx:hr>
          </gpxtpx:TrackPointExtension>
        </extensions>
      </trkpt>
      <trkpt lat="42.9334" lon="1.89981">
        <ele>448.1</ele>
        <time>2022-07-25T08:42:55.000Z</time>
        <extensions>
          <gpxtpx:TrackPointExtension xmlns:gpxtpx="http://www.garmin.com/xmlschemas/TrackPointExtension/v1">
            <gpxtpx:hr>154</gpxtpx:hr>
          </gpxtpx:TrackPointExtension>
        </extensions>
      </trkpt>
      <trkpt lat="42.93333" lon="1.89988">
        <ele>448.2</ele>
        <time>2022-07-25T08:42:57.000Z</time>
        <extensions>
          <gpxtpx:TrackPointExtension xmlns:gpxtpx="http://www.garmin.com/xmlschemas/TrackPointExtension/v1">
            <gpxtpx:hr>154</gpxtpx:hr>
          </gpxtpx:TrackPointExtension>
        </extensions>
      </trkpt>
      <trkpt lat="42.93328" lon="1.89991">
        <ele>448.2</ele>
        <time>2022-07-25T08:42:58.000Z</time>
        <extensions>
          <gpxtpx:TrackPointExtension xmlns:gpxtpx="http://www.garmin.com/xmlschemas/TrackPointExtension/v1">
            <gpxtpx:hr>154</gpxtpx:hr>
          </gpxtpx:TrackPointExtension>
        </extensions>
      </trkpt>
      <trkpt lat="42.93322" lon="1.89996">
        <ele>448.3</ele>
        <time>2022-07-25T08:43:00.000Z</time>
        <extensions>
          <gpxtpx:TrackPointExtension xmlns:gpxtpx="http://www.garmin.com/xmlschemas/TrackPointExtension/v1">
            <gpxtpx:hr>154</gpxtpx:hr>
          </gpxtpx:TrackPointExtension>
        </extensions>
      </trkpt>
      <trkpt lat="42.93314" lon="1.90001">
        <ele>448.3</ele>
        <time>2022-07-25T08:43:02.000Z</time>
        <extensions>
          <gpxtpx:TrackPointExtension xmlns:gpxtpx="http://www.garmin.com/xmlschemas/TrackPointExtension/v1">
            <gpxtpx:hr>154</gpxtpx:hr>
          </gpxtpx:TrackPointExtension>
        </extensions>
      </trkpt>
      <trkpt lat="42.93306" lon="1.90005">
        <ele>448.4</ele>
        <time>2022-07-25T08:43:04.000Z</time>
        <extensions>
          <gpxtpx:TrackPointExtension xmlns:gpxtpx="http://www.garmin.com/xmlschemas/TrackPointExtension/v1">
            <gpxtpx:hr>153</gpxtpx:hr>
          </gpxtpx:TrackPointExtension>
        </extensions>
      </trkpt>
      <trkpt lat="42.93296" lon="1.90008">
        <ele>448.4</ele>
        <time>2022-07-25T08:43:06.000Z</time>
        <extensions>
          <gpxtpx:TrackPointExtension xmlns:gpxtpx="http://www.garmin.com/xmlschemas/TrackPointExtension/v1">
            <gpxtpx:hr>152</gpxtpx:hr>
          </gpxtpx:TrackPointExtension>
        </extensions>
      </trkpt>
      <trkpt lat="42.93292" lon="1.90009">
        <ele>448.4</ele>
        <time>2022-07-25T08:43:07.000Z</time>
        <extensions>
          <gpxtpx:TrackPointExtension xmlns:gpxtpx="http://www.garmin.com/xmlschemas/TrackPointExtension/v1">
            <gpxtpx:hr>152</gpxtpx:hr>
          </gpxtpx:TrackPointExtension>
        </extensions>
      </trkpt>
      <trkpt lat="42.93287" lon="1.90009">
        <ele>448.4</ele>
        <time>2022-07-25T08:43:08.000Z</time>
        <extensions>
          <gpxtpx:TrackPointExtension xmlns:gpxtpx="http://www.garmin.com/xmlschemas/TrackPointExtension/v1">
            <gpxtpx:hr>152</gpxtpx:hr>
          </gpxtpx:TrackPointExtension>
        </extensions>
      </trkpt>
      <trkpt lat="42.93282" lon="1.9001">
        <ele>448.4</ele>
        <time>2022-07-25T08:43:09.000Z</time>
        <extensions>
          <gpxtpx:TrackPointExtension xmlns:gpxtpx="http://www.garmin.com/xmlschemas/TrackPointExtension/v1">
            <gpxtpx:hr>152</gpxtpx:hr>
          </gpxtpx:TrackPointExtension>
        </extensions>
      </trkpt>
      <trkpt lat="42.93274" lon="1.90011">
        <ele>448.5</ele>
        <time>2022-07-25T08:43:11.000Z</time>
        <extensions>
          <gpxtpx:TrackPointExtension xmlns:gpxtpx="http://www.garmin.com/xmlschemas/TrackPointExtension/v1">
            <gpxtpx:hr>151</gpxtpx:hr>
          </gpxtpx:TrackPointExtension>
        </extensions>
      </trkpt>
      <trkpt lat="42.93268" lon="1.90013">
        <ele>448.5</ele>
        <time>2022-07-25T08:43:13.000Z</time>
        <extensions>
          <gpxtpx:TrackPointExtension xmlns:gpxtpx="http://www.garmin.com/xmlschemas/TrackPointExtension/v1">
            <gpxtpx:hr>150</gpxtpx:hr>
          </gpxtpx:TrackPointExtension>
        </extensions>
      </trkpt>
      <trkpt lat="42.93262" lon="1.90021">
        <ele>448.5</ele>
        <time>2022-07-25T08:43:15.000Z</time>
        <extensions>
          <gpxtpx:TrackPointExtension xmlns:gpxtpx="http://www.garmin.com/xmlschemas/TrackPointExtension/v1">
            <gpxtpx:hr>149</gpxtpx:hr>
          </gpxtpx:TrackPointExtension>
        </extensions>
      </trkpt>
      <trkpt lat="42.93258" lon="1.9003">
        <ele>448.5</ele>
        <time>2022-07-25T08:43:17.000Z</time>
        <extensions>
          <gpxtpx:TrackPointExtension xmlns:gpxtpx="http://www.garmin.com/xmlschemas/TrackPointExtension/v1">
            <gpxtpx:hr>148</gpxtpx:hr>
          </gpxtpx:TrackPointExtension>
        </extensions>
      </trkpt>
      <trkpt lat="42.93255" lon="1.90041">
        <ele>448.5</ele>
        <time>2022-07-25T08:43:19.000Z</time>
        <extensions>
          <gpxtpx:TrackPointExtension xmlns:gpxtpx="http://www.garmin.com/xmlschemas/TrackPointExtension/v1">
            <gpxtpx:hr>147</gpxtpx:hr>
          </gpxtpx:TrackPointExtension>
        </extensions>
      </trkpt>
      <trkpt lat="42.93252" lon="1.90051">
        <ele>448.5</ele>
        <time>2022-07-25T08:43:21.000Z</time>
        <extensions>
          <gpxtpx:TrackPointExtension xmlns:gpxtpx="http://www.garmin.com/xmlschemas/TrackPointExtension/v1">
            <gpxtpx:hr>147</gpxtpx:hr>
          </gpxtpx:TrackPointExtension>
        </extensions>
      </trkpt>
      <trkpt lat="42.93249" lon="1.90061">
        <ele>448.5</ele>
        <time>2022-07-25T08:43:23.000Z</time>
        <extensions>
          <gpxtpx:TrackPointExtension xmlns:gpxtpx="http://www.garmin.com/xmlschemas/TrackPointExtension/v1">
            <gpxtpx:hr>147</gpxtpx:hr>
          </gpxtpx:TrackPointExtension>
        </extensions>
      </trkpt>
      <trkpt lat="42.93246" lon="1.90072">
        <ele>448.6</ele>
        <time>2022-07-25T08:43:25.000Z</time>
        <extensions>
          <gpxtpx:TrackPointExtension xmlns:gpxtpx="http://www.garmin.com/xmlschemas/TrackPointExtension/v1">
            <gpxtpx:hr>147</gpxtpx:hr>
          </gpxtpx:TrackPointExtension>
        </extensions>
      </trkpt>
      <trkpt lat="42.93242" lon="1.90081">
        <ele>448.7</ele>
        <time>2022-07-25T08:43:27.000Z</time>
        <extensions>
          <gpxtpx:TrackPointExtension xmlns:gpxtpx="http://www.garmin.com/xmlschemas/TrackPointExtension/v1">
            <gpxtpx:hr>147</gpxtpx:hr>
          </gpxtpx:TrackPointExtension>
        </extensions>
      </trkpt>
      <trkpt lat="42.93236" lon="1.90089">
        <ele>448.7</ele>
        <time>2022-07-25T08:43:29.000Z</time>
        <extensions>
          <gpxtpx:TrackPointExtension xmlns:gpxtpx="http://www.garmin.com/xmlschemas/TrackPointExtension/v1">
            <gpxtpx:hr>147</gpxtpx:hr>
          </gpxtpx:TrackPointExtension>
        </extensions>
      </trkpt>
      <trkpt lat="42.9323" lon="1.90099">
        <ele>448.8</ele>
        <time>2022-07-25T08:43:31.000Z</time>
        <extensions>
          <gpxtpx:TrackPointExtension xmlns:gpxtpx="http://www.garmin.com/xmlschemas/TrackPointExtension/v1">
            <gpxtpx:hr>147</gpxtpx:hr>
          </gpxtpx:TrackPointExtension>
        </extensions>
      </trkpt>
      <trkpt lat="42.93227" lon="1.90103">
        <ele>448.8</ele>
        <time>2022-07-25T08:43:32.000Z</time>
        <extensions>
          <gpxtpx:TrackPointExtension xmlns:gpxtpx="http://www.garmin.com/xmlschemas/TrackPointExtension/v1">
            <gpxtpx:hr>147</gpxtpx:hr>
          </gpxtpx:TrackPointExtension>
        </extensions>
      </trkpt>
      <trkpt lat="42.93223" lon="1.90107">
        <ele>448.9</ele>
        <time>2022-07-25T08:43:33.000Z</time>
        <extensions>
          <gpxtpx:TrackPointExtension xmlns:gpxtpx="http://www.garmin.com/xmlschemas/TrackPointExtension/v1">
            <gpxtpx:hr>147</gpxtpx:hr>
          </gpxtpx:TrackPointExtension>
        </extensions>
      </trkpt>
      <trkpt lat="42.93219" lon="1.90111">
        <ele>448.9</ele>
        <time>2022-07-25T08:43:34.000Z</time>
        <extensions>
          <gpxtpx:TrackPointExtension xmlns:gpxtpx="http://www.garmin.com/xmlschemas/TrackPointExtension/v1">
            <gpxtpx:hr>147</gpxtpx:hr>
          </gpxtpx:TrackPointExtension>
        </extensions>
      </trkpt>
      <trkpt lat="42.93212" lon="1.90117">
        <ele>449.1</ele>
        <time>2022-07-25T08:43:36.000Z</time>
        <extensions>
          <gpxtpx:TrackPointExtension xmlns:gpxtpx="http://www.garmin.com/xmlschemas/TrackPointExtension/v1">
            <gpxtpx:hr>148</gpxtpx:hr>
          </gpxtpx:TrackPointExtension>
        </extensions>
      </trkpt>
      <trkpt lat="42.93205" lon="1.90124">
        <ele>449.2</ele>
        <time>2022-07-25T08:43:38.000Z</time>
        <extensions>
          <gpxtpx:TrackPointExtension xmlns:gpxtpx="http://www.garmin.com/xmlschemas/TrackPointExtension/v1">
            <gpxtpx:hr>148</gpxtpx:hr>
          </gpxtpx:TrackPointExtension>
        </extensions>
      </trkpt>
      <trkpt lat="42.93199" lon="1.90128">
        <ele>449.2</ele>
        <time>2022-07-25T08:43:40.000Z</time>
        <extensions>
          <gpxtpx:TrackPointExtension xmlns:gpxtpx="http://www.garmin.com/xmlschemas/TrackPointExtension/v1">
            <gpxtpx:hr>148</gpxtpx:hr>
          </gpxtpx:TrackPointExtension>
        </extensions>
      </trkpt>
      <trkpt lat="42.93194" lon="1.90133">
        <ele>449.4</ele>
        <time>2022-07-25T08:43:42.000Z</time>
        <extensions>
          <gpxtpx:TrackPointExtension xmlns:gpxtpx="http://www.garmin.com/xmlschemas/TrackPointExtension/v1">
            <gpxtpx:hr>148</gpxtpx:hr>
          </gpxtpx:TrackPointExtension>
        </extensions>
      </trkpt>
      <trkpt lat="42.93188" lon="1.90139">
        <ele>449.5</ele>
        <time>2022-07-25T08:43:44.000Z</time>
        <extensions>
          <gpxtpx:TrackPointExtension xmlns:gpxtpx="http://www.garmin.com/xmlschemas/TrackPointExtension/v1">
            <gpxtpx:hr>149</gpxtpx:hr>
          </gpxtpx:TrackPointExtension>
        </extensions>
      </trkpt>
      <trkpt lat="42.93184" lon="1.90143">
        <ele>449.6</ele>
        <time>2022-07-25T08:43:45.000Z</time>
        <extensions>
          <gpxtpx:TrackPointExtension xmlns:gpxtpx="http://www.garmin.com/xmlschemas/TrackPointExtension/v1">
            <gpxtpx:hr>150</gpxtpx:hr>
          </gpxtpx:TrackPointExtension>
        </extensions>
      </trkpt>
      <trkpt lat="42.93178" lon="1.90149">
        <ele>449.8</ele>
        <time>2022-07-25T08:43:47.000Z</time>
        <extensions>
          <gpxtpx:TrackPointExtension xmlns:gpxtpx="http://www.garmin.com/xmlschemas/TrackPointExtension/v1">
            <gpxtpx:hr>150</gpxtpx:hr>
          </gpxtpx:TrackPointExtension>
        </extensions>
      </trkpt>
      <trkpt lat="42.93171" lon="1.90155">
        <ele>450</ele>
        <time>2022-07-25T08:43:49.000Z</time>
        <extensions>
          <gpxtpx:TrackPointExtension xmlns:gpxtpx="http://www.garmin.com/xmlschemas/TrackPointExtension/v1">
            <gpxtpx:hr>151</gpxtpx:hr>
          </gpxtpx:TrackPointExtension>
        </extensions>
      </trkpt>
      <trkpt lat="42.93165" lon="1.90163">
        <ele>450.2</ele>
        <time>2022-07-25T08:43:51.000Z</time>
        <extensions>
          <gpxtpx:TrackPointExtension xmlns:gpxtpx="http://www.garmin.com/xmlschemas/TrackPointExtension/v1">
            <gpxtpx:hr>152</gpxtpx:hr>
          </gpxtpx:TrackPointExtension>
        </extensions>
      </trkpt>
      <trkpt lat="42.9316" lon="1.90172">
        <ele>450.4</ele>
        <time>2022-07-25T08:43:53.000Z</time>
        <extensions>
          <gpxtpx:TrackPointExtension xmlns:gpxtpx="http://www.garmin.com/xmlschemas/TrackPointExtension/v1">
            <gpxtpx:hr>153</gpxtpx:hr>
          </gpxtpx:TrackPointExtension>
        </extensions>
      </trkpt>
      <trkpt lat="42.93156" lon="1.90183">
        <ele>450.6</ele>
        <time>2022-07-25T08:43:55.000Z</time>
        <extensions>
          <gpxtpx:TrackPointExtension xmlns:gpxtpx="http://www.garmin.com/xmlschemas/TrackPointExtension/v1">
            <gpxtpx:hr>154</gpxtpx:hr>
          </gpxtpx:TrackPointExtension>
        </extensions>
      </trkpt>
      <trkpt lat="42.93153" lon="1.90189">
        <ele>450.7</ele>
        <time>2022-07-25T08:43:56.000Z</time>
        <extensions>
          <gpxtpx:TrackPointExtension xmlns:gpxtpx="http://www.garmin.com/xmlschemas/TrackPointExtension/v1">
            <gpxtpx:hr>154</gpxtpx:hr>
          </gpxtpx:TrackPointExtension>
        </extensions>
      </trkpt>
      <trkpt lat="42.93151" lon="1.90194">
        <ele>450.8</ele>
        <time>2022-07-25T08:43:57.000Z</time>
        <extensions>
          <gpxtpx:TrackPointExtension xmlns:gpxtpx="http://www.garmin.com/xmlschemas/TrackPointExtension/v1">
            <gpxtpx:hr>154</gpxtpx:hr>
          </gpxtpx:TrackPointExtension>
        </extensions>
      </trkpt>
      <trkpt lat="42.93147" lon="1.90201">
        <ele>450.8</ele>
        <time>2022-07-25T08:43:58.000Z</time>
        <extensions>
          <gpxtpx:TrackPointExtension xmlns:gpxtpx="http://www.garmin.com/xmlschemas/TrackPointExtension/v1">
            <gpxtpx:hr>155</gpxtpx:hr>
          </gpxtpx:TrackPointExtension>
        </extensions>
      </trkpt>
      <trkpt lat="42.93144" lon="1.90206">
        <ele>450.9</ele>
        <time>2022-07-25T08:43:59.000Z</time>
        <extensions>
          <gpxtpx:TrackPointExtension xmlns:gpxtpx="http://www.garmin.com/xmlschemas/TrackPointExtension/v1">
            <gpxtpx:hr>155</gpxtpx:hr>
          </gpxtpx:TrackPointExtension>
        </extensions>
      </trkpt>
      <trkpt lat="42.93138" lon="1.90213">
        <ele>451</ele>
        <time>2022-07-25T08:44:00.000Z</time>
        <extensions>
          <gpxtpx:TrackPointExtension xmlns:gpxtpx="http://www.garmin.com/xmlschemas/TrackPointExtension/v1">
            <gpxtpx:hr>155</gpxtpx:hr>
          </gpxtpx:TrackPointExtension>
        </extensions>
      </trkpt>
      <trkpt lat="42.93135" lon="1.90218">
        <ele>451</ele>
        <time>2022-07-25T08:44:01.000Z</time>
        <extensions>
          <gpxtpx:TrackPointExtension xmlns:gpxtpx="http://www.garmin.com/xmlschemas/TrackPointExtension/v1">
            <gpxtpx:hr>154</gpxtpx:hr>
          </gpxtpx:TrackPointExtension>
        </extensions>
      </trkpt>
      <trkpt lat="42.93132" lon="1.90224">
        <ele>451.1</ele>
        <time>2022-07-25T08:44:02.000Z</time>
        <extensions>
          <gpxtpx:TrackPointExtension xmlns:gpxtpx="http://www.garmin.com/xmlschemas/TrackPointExtension/v1">
            <gpxtpx:hr>154</gpxtpx:hr>
          </gpxtpx:TrackPointExtension>
        </extensions>
      </trkpt>
      <trkpt lat="42.93128" lon="1.9023">
        <ele>451.1</ele>
        <time>2022-07-25T08:44:03.000Z</time>
        <extensions>
          <gpxtpx:TrackPointExtension xmlns:gpxtpx="http://www.garmin.com/xmlschemas/TrackPointExtension/v1">
            <gpxtpx:hr>154</gpxtpx:hr>
          </gpxtpx:TrackPointExtension>
        </extensions>
      </trkpt>
      <trkpt lat="42.93124" lon="1.90234">
        <ele>451.2</ele>
        <time>2022-07-25T08:44:04.000Z</time>
        <extensions>
          <gpxtpx:TrackPointExtension xmlns:gpxtpx="http://www.garmin.com/xmlschemas/TrackPointExtension/v1">
            <gpxtpx:hr>154</gpxtpx:hr>
          </gpxtpx:TrackPointExtension>
        </extensions>
      </trkpt>
      <trkpt lat="42.93119" lon="1.90244">
        <ele>451.2</ele>
        <time>2022-07-25T08:44:06.000Z</time>
        <extensions>
          <gpxtpx:TrackPointExtension xmlns:gpxtpx="http://www.garmin.com/xmlschemas/TrackPointExtension/v1">
            <gpxtpx:hr>153</gpxtpx:hr>
          </gpxtpx:TrackPointExtension>
        </extensions>
      </trkpt>
      <trkpt lat="42.93115" lon="1.90254">
        <ele>451.3</ele>
        <time>2022-07-25T08:44:08.000Z</time>
        <extensions>
          <gpxtpx:TrackPointExtension xmlns:gpxtpx="http://www.garmin.com/xmlschemas/TrackPointExtension/v1">
            <gpxtpx:hr>153</gpxtpx:hr>
          </gpxtpx:TrackPointExtension>
        </extensions>
      </trkpt>
      <trkpt lat="42.93112" lon="1.90265">
        <ele>451.4</ele>
        <time>2022-07-25T08:44:10.000Z</time>
        <extensions>
          <gpxtpx:TrackPointExtension xmlns:gpxtpx="http://www.garmin.com/xmlschemas/TrackPointExtension/v1">
            <gpxtpx:hr>152</gpxtpx:hr>
          </gpxtpx:TrackPointExtension>
        </extensions>
      </trkpt>
      <trkpt lat="42.9311" lon="1.90276">
        <ele>451.6</ele>
        <time>2022-07-25T08:44:12.000Z</time>
        <extensions>
          <gpxtpx:TrackPointExtension xmlns:gpxtpx="http://www.garmin.com/xmlschemas/TrackPointExtension/v1">
            <gpxtpx:hr>152</gpxtpx:hr>
          </gpxtpx:TrackPointExtension>
        </extensions>
      </trkpt>
      <trkpt lat="42.93107" lon="1.90285">
        <ele>451.9</ele>
        <time>2022-07-25T08:44:14.000Z</time>
        <extensions>
          <gpxtpx:TrackPointExtension xmlns:gpxtpx="http://www.garmin.com/xmlschemas/TrackPointExtension/v1">
            <gpxtpx:hr>153</gpxtpx:hr>
          </gpxtpx:TrackPointExtension>
        </extensions>
      </trkpt>
      <trkpt lat="42.93105" lon="1.90295">
        <ele>452.1</ele>
        <time>2022-07-25T08:44:16.000Z</time>
        <extensions>
          <gpxtpx:TrackPointExtension xmlns:gpxtpx="http://www.garmin.com/xmlschemas/TrackPointExtension/v1">
            <gpxtpx:hr>153</gpxtpx:hr>
          </gpxtpx:TrackPointExtension>
        </extensions>
      </trkpt>
      <trkpt lat="42.93101" lon="1.90305">
        <ele>452.5</ele>
        <time>2022-07-25T08:44:18.000Z</time>
        <extensions>
          <gpxtpx:TrackPointExtension xmlns:gpxtpx="http://www.garmin.com/xmlschemas/TrackPointExtension/v1">
            <gpxtpx:hr>154</gpxtpx:hr>
          </gpxtpx:TrackPointExtension>
        </extensions>
      </trkpt>
      <trkpt lat="42.93098" lon="1.90316">
        <ele>453</ele>
        <time>2022-07-25T08:44:20.000Z</time>
        <extensions>
          <gpxtpx:TrackPointExtension xmlns:gpxtpx="http://www.garmin.com/xmlschemas/TrackPointExtension/v1">
            <gpxtpx:hr>154</gpxtpx:hr>
          </gpxtpx:TrackPointExtension>
        </extensions>
      </trkpt>
      <trkpt lat="42.93096" lon="1.90325">
        <ele>453.5</ele>
        <time>2022-07-25T08:44:22.000Z</time>
        <extensions>
          <gpxtpx:TrackPointExtension xmlns:gpxtpx="http://www.garmin.com/xmlschemas/TrackPointExtension/v1">
            <gpxtpx:hr>155</gpxtpx:hr>
          </gpxtpx:TrackPointExtension>
        </extensions>
      </trkpt>
      <trkpt lat="42.93094" lon="1.90335">
        <ele>454</ele>
        <time>2022-07-25T08:44:24.000Z</time>
        <extensions>
          <gpxtpx:TrackPointExtension xmlns:gpxtpx="http://www.garmin.com/xmlschemas/TrackPointExtension/v1">
            <gpxtpx:hr>156</gpxtpx:hr>
          </gpxtpx:TrackPointExtension>
        </extensions>
      </trkpt>
      <trkpt lat="42.93092" lon="1.90344">
        <ele>454.6</ele>
        <time>2022-07-25T08:44:26.000Z</time>
        <extensions>
          <gpxtpx:TrackPointExtension xmlns:gpxtpx="http://www.garmin.com/xmlschemas/TrackPointExtension/v1">
            <gpxtpx:hr>157</gpxtpx:hr>
          </gpxtpx:TrackPointExtension>
        </extensions>
      </trkpt>
      <trkpt lat="42.9309" lon="1.90352">
        <ele>455.1</ele>
        <time>2022-07-25T08:44:28.000Z</time>
        <extensions>
          <gpxtpx:TrackPointExtension xmlns:gpxtpx="http://www.garmin.com/xmlschemas/TrackPointExtension/v1">
            <gpxtpx:hr>158</gpxtpx:hr>
          </gpxtpx:TrackPointExtension>
        </extensions>
      </trkpt>
      <trkpt lat="42.93087" lon="1.90358">
        <ele>455.7</ele>
        <time>2022-07-25T08:44:30.000Z</time>
        <extensions>
          <gpxtpx:TrackPointExtension xmlns:gpxtpx="http://www.garmin.com/xmlschemas/TrackPointExtension/v1">
            <gpxtpx:hr>160</gpxtpx:hr>
          </gpxtpx:TrackPointExtension>
        </extensions>
      </trkpt>
      <trkpt lat="42.93083" lon="1.90362">
        <ele>456.3</ele>
        <time>2022-07-25T08:44:32.000Z</time>
        <extensions>
          <gpxtpx:TrackPointExtension xmlns:gpxtpx="http://www.garmin.com/xmlschemas/TrackPointExtension/v1">
            <gpxtpx:hr>162</gpxtpx:hr>
          </gpxtpx:TrackPointExtension>
        </extensions>
      </trkpt>
      <trkpt lat="42.93078" lon="1.90363">
        <ele>457.7</ele>
        <time>2022-07-25T08:44:38.000Z</time>
        <extensions>
          <gpxtpx:TrackPointExtension xmlns:gpxtpx="http://www.garmin.com/xmlschemas/TrackPointExtension/v1">
            <gpxtpx:hr>166</gpxtpx:hr>
          </gpxtpx:TrackPointExtension>
        </extensions>
      </trkpt>
      <trkpt lat="42.93072" lon="1.90362">
        <ele>458.4</ele>
        <time>2022-07-25T08:44:42.000Z</time>
        <extensions>
          <gpxtpx:TrackPointExtension xmlns:gpxtpx="http://www.garmin.com/xmlschemas/TrackPointExtension/v1">
            <gpxtpx:hr>168</gpxtpx:hr>
          </gpxtpx:TrackPointExtension>
        </extensions>
      </trkpt>
      <trkpt lat="42.93066" lon="1.90364">
        <ele>458.7</ele>
        <time>2022-07-25T08:44:44.000Z</time>
        <extensions>
          <gpxtpx:TrackPointExtension xmlns:gpxtpx="http://www.garmin.com/xmlschemas/TrackPointExtension/v1">
            <gpxtpx:hr>168</gpxtpx:hr>
          </gpxtpx:TrackPointExtension>
        </extensions>
      </trkpt>
      <trkpt lat="42.9306" lon="1.90366">
        <ele>458.9</ele>
        <time>2022-07-25T08:44:46.000Z</time>
        <extensions>
          <gpxtpx:TrackPointExtension xmlns:gpxtpx="http://www.garmin.com/xmlschemas/TrackPointExtension/v1">
            <gpxtpx:hr>168</gpxtpx:hr>
          </gpxtpx:TrackPointExtension>
        </extensions>
      </trkpt>
      <trkpt lat="42.93053" lon="1.9037">
        <ele>459.1</ele>
        <time>2022-07-25T08:44:48.000Z</time>
        <extensions>
          <gpxtpx:TrackPointExtension xmlns:gpxtpx="http://www.garmin.com/xmlschemas/TrackPointExtension/v1">
            <gpxtpx:hr>168</gpxtpx:hr>
          </gpxtpx:TrackPointExtension>
        </extensions>
      </trkpt>
      <trkpt lat="42.93048" lon="1.90373">
        <ele>459.2</ele>
        <time>2022-07-25T08:44:49.000Z</time>
        <extensions>
          <gpxtpx:TrackPointExtension xmlns:gpxtpx="http://www.garmin.com/xmlschemas/TrackPointExtension/v1">
            <gpxtpx:hr>167</gpxtpx:hr>
          </gpxtpx:TrackPointExtension>
        </extensions>
      </trkpt>
      <trkpt lat="42.93044" lon="1.90376">
        <ele>459.2</ele>
        <time>2022-07-25T08:44:50.000Z</time>
        <extensions>
          <gpxtpx:TrackPointExtension xmlns:gpxtpx="http://www.garmin.com/xmlschemas/TrackPointExtension/v1">
            <gpxtpx:hr>167</gpxtpx:hr>
          </gpxtpx:TrackPointExtension>
        </extensions>
      </trkpt>
      <trkpt lat="42.93039" lon="1.90379">
        <ele>459.2</ele>
        <time>2022-07-25T08:44:51.000Z</time>
        <extensions>
          <gpxtpx:TrackPointExtension xmlns:gpxtpx="http://www.garmin.com/xmlschemas/TrackPointExtension/v1">
            <gpxtpx:hr>167</gpxtpx:hr>
          </gpxtpx:TrackPointExtension>
        </extensions>
      </trkpt>
      <trkpt lat="42.93033" lon="1.90381">
        <ele>459.2</ele>
        <time>2022-07-25T08:44:52.000Z</time>
        <extensions>
          <gpxtpx:TrackPointExtension xmlns:gpxtpx="http://www.garmin.com/xmlschemas/TrackPointExtension/v1">
            <gpxtpx:hr>167</gpxtpx:hr>
          </gpxtpx:TrackPointExtension>
        </extensions>
      </trkpt>
      <trkpt lat="42.93028" lon="1.90384">
        <ele>459.1</ele>
        <time>2022-07-25T08:44:53.000Z</time>
        <extensions>
          <gpxtpx:TrackPointExtension xmlns:gpxtpx="http://www.garmin.com/xmlschemas/TrackPointExtension/v1">
            <gpxtpx:hr>166</gpxtpx:hr>
          </gpxtpx:TrackPointExtension>
        </extensions>
      </trkpt>
      <trkpt lat="42.93023" lon="1.90386">
        <ele>459.1</ele>
        <time>2022-07-25T08:44:54.000Z</time>
        <extensions>
          <gpxtpx:TrackPointExtension xmlns:gpxtpx="http://www.garmin.com/xmlschemas/TrackPointExtension/v1">
            <gpxtpx:hr>166</gpxtpx:hr>
          </gpxtpx:TrackPointExtension>
        </extensions>
      </trkpt>
      <trkpt lat="42.93018" lon="1.90388">
        <ele>459</ele>
        <time>2022-07-25T08:44:55.000Z</time>
        <extensions>
          <gpxtpx:TrackPointExtension xmlns:gpxtpx="http://www.garmin.com/xmlschemas/TrackPointExtension/v1">
            <gpxtpx:hr>166</gpxtpx:hr>
          </gpxtpx:TrackPointExtension>
        </extensions>
      </trkpt>
      <trkpt lat="42.9301" lon="1.90386">
        <ele>458.7</ele>
        <time>2022-07-25T08:44:57.000Z</time>
        <extensions>
          <gpxtpx:TrackPointExtension xmlns:gpxtpx="http://www.garmin.com/xmlschemas/TrackPointExtension/v1">
            <gpxtpx:hr>165</gpxtpx:hr>
          </gpxtpx:TrackPointExtension>
        </extensions>
      </trkpt>
      <trkpt lat="42.93006" lon="1.90382">
        <ele>458.6</ele>
        <time>2022-07-25T08:44:58.000Z</time>
        <extensions>
          <gpxtpx:TrackPointExtension xmlns:gpxtpx="http://www.garmin.com/xmlschemas/TrackPointExtension/v1">
            <gpxtpx:hr>165</gpxtpx:hr>
          </gpxtpx:TrackPointExtension>
        </extensions>
      </trkpt>
      <trkpt lat="42.93002" lon="1.90378">
        <ele>458.4</ele>
        <time>2022-07-25T08:44:59.000Z</time>
        <extensions>
          <gpxtpx:TrackPointExtension xmlns:gpxtpx="http://www.garmin.com/xmlschemas/TrackPointExtension/v1">
            <gpxtpx:hr>165</gpxtpx:hr>
          </gpxtpx:TrackPointExtension>
        </extensions>
      </trkpt>
      <trkpt lat="42.92998" lon="1.90373">
        <ele>458.2</ele>
        <time>2022-07-25T08:45:00.000Z</time>
        <extensions>
          <gpxtpx:TrackPointExtension xmlns:gpxtpx="http://www.garmin.com/xmlschemas/TrackPointExtension/v1">
            <gpxtpx:hr>165</gpxtpx:hr>
          </gpxtpx:TrackPointExtension>
        </extensions>
      </trkpt>
      <trkpt lat="42.92993" lon="1.90369">
        <ele>458</ele>
        <time>2022-07-25T08:45:01.000Z</time>
        <extensions>
          <gpxtpx:TrackPointExtension xmlns:gpxtpx="http://www.garmin.com/xmlschemas/TrackPointExtension/v1">
            <gpxtpx:hr>164</gpxtpx:hr>
          </gpxtpx:TrackPointExtension>
        </extensions>
      </trkpt>
      <trkpt lat="42.92989" lon="1.90365">
        <ele>457.7</ele>
        <time>2022-07-25T08:45:02.000Z</time>
        <extensions>
          <gpxtpx:TrackPointExtension xmlns:gpxtpx="http://www.garmin.com/xmlschemas/TrackPointExtension/v1">
            <gpxtpx:hr>164</gpxtpx:hr>
          </gpxtpx:TrackPointExtension>
        </extensions>
      </trkpt>
      <trkpt lat="42.92984" lon="1.90361">
        <ele>457.5</ele>
        <time>2022-07-25T08:45:03.000Z</time>
        <extensions>
          <gpxtpx:TrackPointExtension xmlns:gpxtpx="http://www.garmin.com/xmlschemas/TrackPointExtension/v1">
            <gpxtpx:hr>164</gpxtpx:hr>
          </gpxtpx:TrackPointExtension>
        </extensions>
      </trkpt>
      <trkpt lat="42.92979" lon="1.90357">
        <ele>457.3</ele>
        <time>2022-07-25T08:45:04.000Z</time>
        <extensions>
          <gpxtpx:TrackPointExtension xmlns:gpxtpx="http://www.garmin.com/xmlschemas/TrackPointExtension/v1">
            <gpxtpx:hr>163</gpxtpx:hr>
          </gpxtpx:TrackPointExtension>
        </extensions>
      </trkpt>
      <trkpt lat="42.92974" lon="1.90354">
        <ele>457.1</ele>
        <time>2022-07-25T08:45:05.000Z</time>
        <extensions>
          <gpxtpx:TrackPointExtension xmlns:gpxtpx="http://www.garmin.com/xmlschemas/TrackPointExtension/v1">
            <gpxtpx:hr>163</gpxtpx:hr>
          </gpxtpx:TrackPointExtension>
        </extensions>
      </trkpt>
      <trkpt lat="42.92968" lon="1.90351">
        <ele>456.9</ele>
        <time>2022-07-25T08:45:06.000Z</time>
        <extensions>
          <gpxtpx:TrackPointExtension xmlns:gpxtpx="http://www.garmin.com/xmlschemas/TrackPointExtension/v1">
            <gpxtpx:hr>162</gpxtpx:hr>
          </gpxtpx:TrackPointExtension>
        </extensions>
      </trkpt>
      <trkpt lat="42.92963" lon="1.90349">
        <ele>456.7</ele>
        <time>2022-07-25T08:45:07.000Z</time>
        <extensions>
          <gpxtpx:TrackPointExtension xmlns:gpxtpx="http://www.garmin.com/xmlschemas/TrackPointExtension/v1">
            <gpxtpx:hr>162</gpxtpx:hr>
          </gpxtpx:TrackPointExtension>
        </extensions>
      </trkpt>
      <trkpt lat="42.92957" lon="1.90347">
        <ele>456.5</ele>
        <time>2022-07-25T08:45:08.000Z</time>
        <extensions>
          <gpxtpx:TrackPointExtension xmlns:gpxtpx="http://www.garmin.com/xmlschemas/TrackPointExtension/v1">
            <gpxtpx:hr>162</gpxtpx:hr>
          </gpxtpx:TrackPointExtension>
        </extensions>
      </trkpt>
      <trkpt lat="42.92953" lon="1.90345">
        <ele>456.4</ele>
        <time>2022-07-25T08:45:09.000Z</time>
        <extensions>
          <gpxtpx:TrackPointExtension xmlns:gpxtpx="http://www.garmin.com/xmlschemas/TrackPointExtension/v1">
            <gpxtpx:hr>162</gpxtpx:hr>
          </gpxtpx:TrackPointExtension>
        </extensions>
      </trkpt>
      <trkpt lat="42.92948" lon="1.90342">
        <ele>456.2</ele>
        <time>2022-07-25T08:45:10.000Z</time>
        <extensions>
          <gpxtpx:TrackPointExtension xmlns:gpxtpx="http://www.garmin.com/xmlschemas/TrackPointExtension/v1">
            <gpxtpx:hr>162</gpxtpx:hr>
          </gpxtpx:TrackPointExtension>
        </extensions>
      </trkpt>
      <trkpt lat="42.92942" lon="1.9034">
        <ele>456.1</ele>
        <time>2022-07-25T08:45:11.000Z</time>
        <extensions>
          <gpxtpx:TrackPointExtension xmlns:gpxtpx="http://www.garmin.com/xmlschemas/TrackPointExtension/v1">
            <gpxtpx:hr>161</gpxtpx:hr>
          </gpxtpx:TrackPointExtension>
        </extensions>
      </trkpt>
      <trkpt lat="42.92938" lon="1.90336">
        <ele>455.9</ele>
        <time>2022-07-25T08:45:12.000Z</time>
        <extensions>
          <gpxtpx:TrackPointExtension xmlns:gpxtpx="http://www.garmin.com/xmlschemas/TrackPointExtension/v1">
            <gpxtpx:hr>161</gpxtpx:hr>
          </gpxtpx:TrackPointExtension>
        </extensions>
      </trkpt>
      <trkpt lat="42.92933" lon="1.90333">
        <ele>455.8</ele>
        <time>2022-07-25T08:45:13.000Z</time>
        <extensions>
          <gpxtpx:TrackPointExtension xmlns:gpxtpx="http://www.garmin.com/xmlschemas/TrackPointExtension/v1">
            <gpxtpx:hr>160</gpxtpx:hr>
          </gpxtpx:TrackPointExtension>
        </extensions>
      </trkpt>
      <trkpt lat="42.92928" lon="1.90329">
        <ele>455.6</ele>
        <time>2022-07-25T08:45:14.000Z</time>
        <extensions>
          <gpxtpx:TrackPointExtension xmlns:gpxtpx="http://www.garmin.com/xmlschemas/TrackPointExtension/v1">
            <gpxtpx:hr>160</gpxtpx:hr>
          </gpxtpx:TrackPointExtension>
        </extensions>
      </trkpt>
      <trkpt lat="42.92924" lon="1.90326">
        <ele>455.5</ele>
        <time>2022-07-25T08:45:15.000Z</time>
        <extensions>
          <gpxtpx:TrackPointExtension xmlns:gpxtpx="http://www.garmin.com/xmlschemas/TrackPointExtension/v1">
            <gpxtpx:hr>160</gpxtpx:hr>
          </gpxtpx:TrackPointExtension>
        </extensions>
      </trkpt>
      <trkpt lat="42.9292" lon="1.90322">
        <ele>455.3</ele>
        <time>2022-07-25T08:45:16.000Z</time>
        <extensions>
          <gpxtpx:TrackPointExtension xmlns:gpxtpx="http://www.garmin.com/xmlschemas/TrackPointExtension/v1">
            <gpxtpx:hr>159</gpxtpx:hr>
          </gpxtpx:TrackPointExtension>
        </extensions>
      </trkpt>
      <trkpt lat="42.92915" lon="1.90318">
        <ele>455.2</ele>
        <time>2022-07-25T08:45:17.000Z</time>
        <extensions>
          <gpxtpx:TrackPointExtension xmlns:gpxtpx="http://www.garmin.com/xmlschemas/TrackPointExtension/v1">
            <gpxtpx:hr>159</gpxtpx:hr>
          </gpxtpx:TrackPointExtension>
        </extensions>
      </trkpt>
      <trkpt lat="42.92911" lon="1.90315">
        <ele>455.1</ele>
        <time>2022-07-25T08:45:18.000Z</time>
        <extensions>
          <gpxtpx:TrackPointExtension xmlns:gpxtpx="http://www.garmin.com/xmlschemas/TrackPointExtension/v1">
            <gpxtpx:hr>159</gpxtpx:hr>
          </gpxtpx:TrackPointExtension>
        </extensions>
      </trkpt>
      <trkpt lat="42.92906" lon="1.90312">
        <ele>455</ele>
        <time>2022-07-25T08:45:19.000Z</time>
        <extensions>
          <gpxtpx:TrackPointExtension xmlns:gpxtpx="http://www.garmin.com/xmlschemas/TrackPointExtension/v1">
            <gpxtpx:hr>158</gpxtpx:hr>
          </gpxtpx:TrackPointExtension>
        </extensions>
      </trkpt>
      <trkpt lat="42.92902" lon="1.90308">
        <ele>454.9</ele>
        <time>2022-07-25T08:45:20.000Z</time>
        <extensions>
          <gpxtpx:TrackPointExtension xmlns:gpxtpx="http://www.garmin.com/xmlschemas/TrackPointExtension/v1">
            <gpxtpx:hr>158</gpxtpx:hr>
          </gpxtpx:TrackPointExtension>
        </extensions>
      </trkpt>
      <trkpt lat="42.92898" lon="1.90304">
        <ele>454.8</ele>
        <time>2022-07-25T08:45:21.000Z</time>
        <extensions>
          <gpxtpx:TrackPointExtension xmlns:gpxtpx="http://www.garmin.com/xmlschemas/TrackPointExtension/v1">
            <gpxtpx:hr>157</gpxtpx:hr>
          </gpxtpx:TrackPointExtension>
        </extensions>
      </trkpt>
      <trkpt lat="42.92896" lon="1.90299">
        <ele>454.7</ele>
        <time>2022-07-25T08:45:22.000Z</time>
        <extensions>
          <gpxtpx:TrackPointExtension xmlns:gpxtpx="http://www.garmin.com/xmlschemas/TrackPointExtension/v1">
            <gpxtpx:hr>157</gpxtpx:hr>
          </gpxtpx:TrackPointExtension>
        </extensions>
      </trkpt>
      <trkpt lat="42.92892" lon="1.90288">
        <ele>454.5</ele>
        <time>2022-07-25T08:45:24.000Z</time>
        <extensions>
          <gpxtpx:TrackPointExtension xmlns:gpxtpx="http://www.garmin.com/xmlschemas/TrackPointExtension/v1">
            <gpxtpx:hr>156</gpxtpx:hr>
          </gpxtpx:TrackPointExtension>
        </extensions>
      </trkpt>
      <trkpt lat="42.9289" lon="1.90282">
        <ele>454.4</ele>
        <time>2022-07-25T08:45:25.000Z</time>
        <extensions>
          <gpxtpx:TrackPointExtension xmlns:gpxtpx="http://www.garmin.com/xmlschemas/TrackPointExtension/v1">
            <gpxtpx:hr>156</gpxtpx:hr>
          </gpxtpx:TrackPointExtension>
        </extensions>
      </trkpt>
      <trkpt lat="42.92887" lon="1.90271">
        <ele>454.2</ele>
        <time>2022-07-25T08:45:27.000Z</time>
        <extensions>
          <gpxtpx:TrackPointExtension xmlns:gpxtpx="http://www.garmin.com/xmlschemas/TrackPointExtension/v1">
            <gpxtpx:hr>155</gpxtpx:hr>
          </gpxtpx:TrackPointExtension>
        </extensions>
      </trkpt>
      <trkpt lat="42.92882" lon="1.90261">
        <ele>453.9</ele>
        <time>2022-07-25T08:45:29.000Z</time>
        <extensions>
          <gpxtpx:TrackPointExtension xmlns:gpxtpx="http://www.garmin.com/xmlschemas/TrackPointExtension/v1">
            <gpxtpx:hr>154</gpxtpx:hr>
          </gpxtpx:TrackPointExtension>
        </extensions>
      </trkpt>
      <trkpt lat="42.92878" lon="1.90251">
        <ele>453.7</ele>
        <time>2022-07-25T08:45:31.000Z</time>
        <extensions>
          <gpxtpx:TrackPointExtension xmlns:gpxtpx="http://www.garmin.com/xmlschemas/TrackPointExtension/v1">
            <gpxtpx:hr>154</gpxtpx:hr>
          </gpxtpx:TrackPointExtension>
        </extensions>
      </trkpt>
      <trkpt lat="42.92872" lon="1.90242">
        <ele>453.6</ele>
        <time>2022-07-25T08:45:33.000Z</time>
        <extensions>
          <gpxtpx:TrackPointExtension xmlns:gpxtpx="http://www.garmin.com/xmlschemas/TrackPointExtension/v1">
            <gpxtpx:hr>153</gpxtpx:hr>
          </gpxtpx:TrackPointExtension>
        </extensions>
      </trkpt>
      <trkpt lat="42.92869" lon="1.90237">
        <ele>453.5</ele>
        <time>2022-07-25T08:45:34.000Z</time>
        <extensions>
          <gpxtpx:TrackPointExtension xmlns:gpxtpx="http://www.garmin.com/xmlschemas/TrackPointExtension/v1">
            <gpxtpx:hr>153</gpxtpx:hr>
          </gpxtpx:TrackPointExtension>
        </extensions>
      </trkpt>
      <trkpt lat="42.92865" lon="1.90227">
        <ele>453.3</ele>
        <time>2022-07-25T08:45:36.000Z</time>
        <extensions>
          <gpxtpx:TrackPointExtension xmlns:gpxtpx="http://www.garmin.com/xmlschemas/TrackPointExtension/v1">
            <gpxtpx:hr>153</gpxtpx:hr>
          </gpxtpx:TrackPointExtension>
        </extensions>
      </trkpt>
      <trkpt lat="42.92863" lon="1.90221">
        <ele>453.3</ele>
        <time>2022-07-25T08:45:37.000Z</time>
        <extensions>
          <gpxtpx:TrackPointExtension xmlns:gpxtpx="http://www.garmin.com/xmlschemas/TrackPointExtension/v1">
            <gpxtpx:hr>152</gpxtpx:hr>
          </gpxtpx:TrackPointExtension>
        </extensions>
      </trkpt>
      <trkpt lat="42.92859" lon="1.90209">
        <ele>453.2</ele>
        <time>2022-07-25T08:45:39.000Z</time>
        <extensions>
          <gpxtpx:TrackPointExtension xmlns:gpxtpx="http://www.garmin.com/xmlschemas/TrackPointExtension/v1">
            <gpxtpx:hr>152</gpxtpx:hr>
          </gpxtpx:TrackPointExtension>
        </extensions>
      </trkpt>
      <trkpt lat="42.92857" lon="1.90204">
        <ele>453.1</ele>
        <time>2022-07-25T08:45:40.000Z</time>
        <extensions>
          <gpxtpx:TrackPointExtension xmlns:gpxtpx="http://www.garmin.com/xmlschemas/TrackPointExtension/v1">
            <gpxtpx:hr>152</gpxtpx:hr>
          </gpxtpx:TrackPointExtension>
        </extensions>
      </trkpt>
      <trkpt lat="42.92855" lon="1.90198">
        <ele>453.1</ele>
        <time>2022-07-25T08:45:41.000Z</time>
        <extensions>
          <gpxtpx:TrackPointExtension xmlns:gpxtpx="http://www.garmin.com/xmlschemas/TrackPointExtension/v1">
            <gpxtpx:hr>151</gpxtpx:hr>
          </gpxtpx:TrackPointExtension>
        </extensions>
      </trkpt>
      <trkpt lat="42.92852" lon="1.90192">
        <ele>453</ele>
        <time>2022-07-25T08:45:42.000Z</time>
        <extensions>
          <gpxtpx:TrackPointExtension xmlns:gpxtpx="http://www.garmin.com/xmlschemas/TrackPointExtension/v1">
            <gpxtpx:hr>151</gpxtpx:hr>
          </gpxtpx:TrackPointExtension>
        </extensions>
      </trkpt>
      <trkpt lat="42.9285" lon="1.90186">
        <ele>453</ele>
        <time>2022-07-25T08:45:43.000Z</time>
        <extensions>
          <gpxtpx:TrackPointExtension xmlns:gpxtpx="http://www.garmin.com/xmlschemas/TrackPointExtension/v1">
            <gpxtpx:hr>151</gpxtpx:hr>
          </gpxtpx:TrackPointExtension>
        </extensions>
      </trkpt>
      <trkpt lat="42.92848" lon="1.90181">
        <ele>452.9</ele>
        <time>2022-07-25T08:45:44.000Z</time>
        <extensions>
          <gpxtpx:TrackPointExtension xmlns:gpxtpx="http://www.garmin.com/xmlschemas/TrackPointExtension/v1">
            <gpxtpx:hr>151</gpxtpx:hr>
          </gpxtpx:TrackPointExtension>
        </extensions>
      </trkpt>
      <trkpt lat="42.92845" lon="1.90175">
        <ele>452.9</ele>
        <time>2022-07-25T08:45:45.000Z</time>
        <extensions>
          <gpxtpx:TrackPointExtension xmlns:gpxtpx="http://www.garmin.com/xmlschemas/TrackPointExtension/v1">
            <gpxtpx:hr>151</gpxtpx:hr>
          </gpxtpx:TrackPointExtension>
        </extensions>
      </trkpt>
      <trkpt lat="42.92843" lon="1.90169">
        <ele>452.8</ele>
        <time>2022-07-25T08:45:46.000Z</time>
        <extensions>
          <gpxtpx:TrackPointExtension xmlns:gpxtpx="http://www.garmin.com/xmlschemas/TrackPointExtension/v1">
            <gpxtpx:hr>150</gpxtpx:hr>
          </gpxtpx:TrackPointExtension>
        </extensions>
      </trkpt>
      <trkpt lat="42.92841" lon="1.90163">
        <ele>452.8</ele>
        <time>2022-07-25T08:45:47.000Z</time>
        <extensions>
          <gpxtpx:TrackPointExtension xmlns:gpxtpx="http://www.garmin.com/xmlschemas/TrackPointExtension/v1">
            <gpxtpx:hr>150</gpxtpx:hr>
          </gpxtpx:TrackPointExtension>
        </extensions>
      </trkpt>
      <trkpt lat="42.92838" lon="1.90158">
        <ele>452.8</ele>
        <time>2022-07-25T08:45:48.000Z</time>
        <extensions>
          <gpxtpx:TrackPointExtension xmlns:gpxtpx="http://www.garmin.com/xmlschemas/TrackPointExtension/v1">
            <gpxtpx:hr>150</gpxtpx:hr>
          </gpxtpx:TrackPointExtension>
        </extensions>
      </trkpt>
      <trkpt lat="42.92836" lon="1.90152">
        <ele>452.7</ele>
        <time>2022-07-25T08:45:49.000Z</time>
        <extensions>
          <gpxtpx:TrackPointExtension xmlns:gpxtpx="http://www.garmin.com/xmlschemas/TrackPointExtension/v1">
            <gpxtpx:hr>150</gpxtpx:hr>
          </gpxtpx:TrackPointExtension>
        </extensions>
      </trkpt>
      <trkpt lat="42.92833" lon="1.90146">
        <ele>452.7</ele>
        <time>2022-07-25T08:45:50.000Z</time>
        <extensions>
          <gpxtpx:TrackPointExtension xmlns:gpxtpx="http://www.garmin.com/xmlschemas/TrackPointExtension/v1">
            <gpxtpx:hr>150</gpxtpx:hr>
          </gpxtpx:TrackPointExtension>
        </extensions>
      </trkpt>
      <trkpt lat="42.9283" lon="1.90141">
        <ele>452.7</ele>
        <time>2022-07-25T08:45:51.000Z</time>
        <extensions>
          <gpxtpx:TrackPointExtension xmlns:gpxtpx="http://www.garmin.com/xmlschemas/TrackPointExtension/v1">
            <gpxtpx:hr>150</gpxtpx:hr>
          </gpxtpx:TrackPointExtension>
        </extensions>
      </trkpt>
      <trkpt lat="42.92827" lon="1.90135">
        <ele>452.7</ele>
        <time>2022-07-25T08:45:52.000Z</time>
        <extensions>
          <gpxtpx:TrackPointExtension xmlns:gpxtpx="http://www.garmin.com/xmlschemas/TrackPointExtension/v1">
            <gpxtpx:hr>150</gpxtpx:hr>
          </gpxtpx:TrackPointExtension>
        </extensions>
      </trkpt>
      <trkpt lat="42.92825" lon="1.9013">
        <ele>452.6</ele>
        <time>2022-07-25T08:45:53.000Z</time>
        <extensions>
          <gpxtpx:TrackPointExtension xmlns:gpxtpx="http://www.garmin.com/xmlschemas/TrackPointExtension/v1">
            <gpxtpx:hr>150</gpxtpx:hr>
          </gpxtpx:TrackPointExtension>
        </extensions>
      </trkpt>
      <trkpt lat="42.92822" lon="1.90125">
        <ele>452.6</ele>
        <time>2022-07-25T08:45:54.000Z</time>
        <extensions>
          <gpxtpx:TrackPointExtension xmlns:gpxtpx="http://www.garmin.com/xmlschemas/TrackPointExtension/v1">
            <gpxtpx:hr>149</gpxtpx:hr>
          </gpxtpx:TrackPointExtension>
        </extensions>
      </trkpt>
      <trkpt lat="42.92819" lon="1.9012">
        <ele>452.6</ele>
        <time>2022-07-25T08:45:55.000Z</time>
        <extensions>
          <gpxtpx:TrackPointExtension xmlns:gpxtpx="http://www.garmin.com/xmlschemas/TrackPointExtension/v1">
            <gpxtpx:hr>149</gpxtpx:hr>
          </gpxtpx:TrackPointExtension>
        </extensions>
      </trkpt>
      <trkpt lat="42.92816" lon="1.90115">
        <ele>452.6</ele>
        <time>2022-07-25T08:45:56.000Z</time>
        <extensions>
          <gpxtpx:TrackPointExtension xmlns:gpxtpx="http://www.garmin.com/xmlschemas/TrackPointExtension/v1">
            <gpxtpx:hr>149</gpxtpx:hr>
          </gpxtpx:TrackPointExtension>
        </extensions>
      </trkpt>
      <trkpt lat="42.92813" lon="1.9011">
        <ele>452.5</ele>
        <time>2022-07-25T08:45:57.000Z</time>
        <extensions>
          <gpxtpx:TrackPointExtension xmlns:gpxtpx="http://www.garmin.com/xmlschemas/TrackPointExtension/v1">
            <gpxtpx:hr>149</gpxtpx:hr>
          </gpxtpx:TrackPointExtension>
        </extensions>
      </trkpt>
      <trkpt lat="42.92807" lon="1.90101">
        <ele>452.5</ele>
        <time>2022-07-25T08:45:59.000Z</time>
        <extensions>
          <gpxtpx:TrackPointExtension xmlns:gpxtpx="http://www.garmin.com/xmlschemas/TrackPointExtension/v1">
            <gpxtpx:hr>149</gpxtpx:hr>
          </gpxtpx:TrackPointExtension>
        </extensions>
      </trkpt>
      <trkpt lat="42.92804" lon="1.90096">
        <ele>452.5</ele>
        <time>2022-07-25T08:46:00.000Z</time>
        <extensions>
          <gpxtpx:TrackPointExtension xmlns:gpxtpx="http://www.garmin.com/xmlschemas/TrackPointExtension/v1">
            <gpxtpx:hr>149</gpxtpx:hr>
          </gpxtpx:TrackPointExtension>
        </extensions>
      </trkpt>
      <trkpt lat="42.92799" lon="1.90089">
        <ele>452.4</ele>
        <time>2022-07-25T08:46:02.000Z</time>
        <extensions>
          <gpxtpx:TrackPointExtension xmlns:gpxtpx="http://www.garmin.com/xmlschemas/TrackPointExtension/v1">
            <gpxtpx:hr>148</gpxtpx:hr>
          </gpxtpx:TrackPointExtension>
        </extensions>
      </trkpt>
      <trkpt lat="42.92792" lon="1.90084">
        <ele>452.4</ele>
        <time>2022-07-25T08:46:04.000Z</time>
        <extensions>
          <gpxtpx:TrackPointExtension xmlns:gpxtpx="http://www.garmin.com/xmlschemas/TrackPointExtension/v1">
            <gpxtpx:hr>148</gpxtpx:hr>
          </gpxtpx:TrackPointExtension>
        </extensions>
      </trkpt>
      <trkpt lat="42.92786" lon="1.9008">
        <ele>452.4</ele>
        <time>2022-07-25T08:46:06.000Z</time>
        <extensions>
          <gpxtpx:TrackPointExtension xmlns:gpxtpx="http://www.garmin.com/xmlschemas/TrackPointExtension/v1">
            <gpxtpx:hr>148</gpxtpx:hr>
          </gpxtpx:TrackPointExtension>
        </extensions>
      </trkpt>
      <trkpt lat="42.9278" lon="1.90076">
        <ele>452.4</ele>
        <time>2022-07-25T08:46:08.000Z</time>
        <extensions>
          <gpxtpx:TrackPointExtension xmlns:gpxtpx="http://www.garmin.com/xmlschemas/TrackPointExtension/v1">
            <gpxtpx:hr>147</gpxtpx:hr>
          </gpxtpx:TrackPointExtension>
        </extensions>
      </trkpt>
      <trkpt lat="42.92776" lon="1.90072">
        <ele>452.3</ele>
        <time>2022-07-25T08:46:10.000Z</time>
        <extensions>
          <gpxtpx:TrackPointExtension xmlns:gpxtpx="http://www.garmin.com/xmlschemas/TrackPointExtension/v1">
            <gpxtpx:hr>147</gpxtpx:hr>
          </gpxtpx:TrackPointExtension>
        </extensions>
      </trkpt>
      <trkpt lat="42.92772" lon="1.90069">
        <ele>452.3</ele>
        <time>2022-07-25T08:46:12.000Z</time>
        <extensions>
          <gpxtpx:TrackPointExtension xmlns:gpxtpx="http://www.garmin.com/xmlschemas/TrackPointExtension/v1">
            <gpxtpx:hr>146</gpxtpx:hr>
          </gpxtpx:TrackPointExtension>
        </extensions>
      </trkpt>
      <trkpt lat="42.92767" lon="1.90066">
        <ele>452.3</ele>
        <time>2022-07-25T08:46:14.000Z</time>
        <extensions>
          <gpxtpx:TrackPointExtension xmlns:gpxtpx="http://www.garmin.com/xmlschemas/TrackPointExtension/v1">
            <gpxtpx:hr>145</gpxtpx:hr>
          </gpxtpx:TrackPointExtension>
        </extensions>
      </trkpt>
      <trkpt lat="42.92761" lon="1.90063">
        <ele>452.3</ele>
        <time>2022-07-25T08:46:16.000Z</time>
        <extensions>
          <gpxtpx:TrackPointExtension xmlns:gpxtpx="http://www.garmin.com/xmlschemas/TrackPointExtension/v1">
            <gpxtpx:hr>145</gpxtpx:hr>
          </gpxtpx:TrackPointExtension>
        </extensions>
      </trkpt>
      <trkpt lat="42.92754" lon="1.90061">
        <ele>452.2</ele>
        <time>2022-07-25T08:46:18.000Z</time>
        <extensions>
          <gpxtpx:TrackPointExtension xmlns:gpxtpx="http://www.garmin.com/xmlschemas/TrackPointExtension/v1">
            <gpxtpx:hr>144</gpxtpx:hr>
          </gpxtpx:TrackPointExtension>
        </extensions>
      </trkpt>
      <trkpt lat="42.92746" lon="1.90058">
        <ele>452.1</ele>
        <time>2022-07-25T08:46:20.000Z</time>
        <extensions>
          <gpxtpx:TrackPointExtension xmlns:gpxtpx="http://www.garmin.com/xmlschemas/TrackPointExtension/v1">
            <gpxtpx:hr>143</gpxtpx:hr>
          </gpxtpx:TrackPointExtension>
        </extensions>
      </trkpt>
      <trkpt lat="42.92739" lon="1.90056">
        <ele>452</ele>
        <time>2022-07-25T08:46:22.000Z</time>
        <extensions>
          <gpxtpx:TrackPointExtension xmlns:gpxtpx="http://www.garmin.com/xmlschemas/TrackPointExtension/v1">
            <gpxtpx:hr>143</gpxtpx:hr>
          </gpxtpx:TrackPointExtension>
        </extensions>
      </trkpt>
      <trkpt lat="42.92734" lon="1.90053">
        <ele>451.9</ele>
        <time>2022-07-25T08:46:24.000Z</time>
        <extensions>
          <gpxtpx:TrackPointExtension xmlns:gpxtpx="http://www.garmin.com/xmlschemas/TrackPointExtension/v1">
            <gpxtpx:hr>143</gpxtpx:hr>
          </gpxtpx:TrackPointExtension>
        </extensions>
      </trkpt>
      <trkpt lat="42.92727" lon="1.9005">
        <ele>451.8</ele>
        <time>2022-07-25T08:46:26.000Z</time>
        <extensions>
          <gpxtpx:TrackPointExtension xmlns:gpxtpx="http://www.garmin.com/xmlschemas/TrackPointExtension/v1">
            <gpxtpx:hr>143</gpxtpx:hr>
          </gpxtpx:TrackPointExtension>
        </extensions>
      </trkpt>
      <trkpt lat="42.9272" lon="1.90048">
        <ele>451.8</ele>
        <time>2022-07-25T08:46:28.000Z</time>
        <extensions>
          <gpxtpx:TrackPointExtension xmlns:gpxtpx="http://www.garmin.com/xmlschemas/TrackPointExtension/v1">
            <gpxtpx:hr>143</gpxtpx:hr>
          </gpxtpx:TrackPointExtension>
        </extensions>
      </trkpt>
      <trkpt lat="42.92713" lon="1.90046">
        <ele>451.7</ele>
        <time>2022-07-25T08:46:30.000Z</time>
        <extensions>
          <gpxtpx:TrackPointExtension xmlns:gpxtpx="http://www.garmin.com/xmlschemas/TrackPointExtension/v1">
            <gpxtpx:hr>143</gpxtpx:hr>
          </gpxtpx:TrackPointExtension>
        </extensions>
      </trkpt>
      <trkpt lat="42.92706" lon="1.90044">
        <ele>451.7</ele>
        <time>2022-07-25T08:46:32.000Z</time>
        <extensions>
          <gpxtpx:TrackPointExtension xmlns:gpxtpx="http://www.garmin.com/xmlschemas/TrackPointExtension/v1">
            <gpxtpx:hr>143</gpxtpx:hr>
          </gpxtpx:TrackPointExtension>
        </extensions>
      </trkpt>
      <trkpt lat="42.92699" lon="1.9004">
        <ele>451.6</ele>
        <time>2022-07-25T08:46:34.000Z</time>
        <extensions>
          <gpxtpx:TrackPointExtension xmlns:gpxtpx="http://www.garmin.com/xmlschemas/TrackPointExtension/v1">
            <gpxtpx:hr>143</gpxtpx:hr>
          </gpxtpx:TrackPointExtension>
        </extensions>
      </trkpt>
      <trkpt lat="42.92692" lon="1.90036">
        <ele>451.6</ele>
        <time>2022-07-25T08:46:36.000Z</time>
        <extensions>
          <gpxtpx:TrackPointExtension xmlns:gpxtpx="http://www.garmin.com/xmlschemas/TrackPointExtension/v1">
            <gpxtpx:hr>143</gpxtpx:hr>
          </gpxtpx:TrackPointExtension>
        </extensions>
      </trkpt>
      <trkpt lat="42.92686" lon="1.90032">
        <ele>451.6</ele>
        <time>2022-07-25T08:46:38.000Z</time>
        <extensions>
          <gpxtpx:TrackPointExtension xmlns:gpxtpx="http://www.garmin.com/xmlschemas/TrackPointExtension/v1">
            <gpxtpx:hr>143</gpxtpx:hr>
          </gpxtpx:TrackPointExtension>
        </extensions>
      </trkpt>
      <trkpt lat="42.92678" lon="1.9003">
        <ele>451.5</ele>
        <time>2022-07-25T08:46:40.000Z</time>
        <extensions>
          <gpxtpx:TrackPointExtension xmlns:gpxtpx="http://www.garmin.com/xmlschemas/TrackPointExtension/v1">
            <gpxtpx:hr>143</gpxtpx:hr>
          </gpxtpx:TrackPointExtension>
        </extensions>
      </trkpt>
      <trkpt lat="42.9267" lon="1.90027">
        <ele>451.5</ele>
        <time>2022-07-25T08:46:42.000Z</time>
        <extensions>
          <gpxtpx:TrackPointExtension xmlns:gpxtpx="http://www.garmin.com/xmlschemas/TrackPointExtension/v1">
            <gpxtpx:hr>143</gpxtpx:hr>
          </gpxtpx:TrackPointExtension>
        </extensions>
      </trkpt>
      <trkpt lat="42.92663" lon="1.90024">
        <ele>451.5</ele>
        <time>2022-07-25T08:46:44.000Z</time>
        <extensions>
          <gpxtpx:TrackPointExtension xmlns:gpxtpx="http://www.garmin.com/xmlschemas/TrackPointExtension/v1">
            <gpxtpx:hr>144</gpxtpx:hr>
          </gpxtpx:TrackPointExtension>
        </extensions>
      </trkpt>
      <trkpt lat="42.92656" lon="1.90021">
        <ele>451.5</ele>
        <time>2022-07-25T08:46:46.000Z</time>
        <extensions>
          <gpxtpx:TrackPointExtension xmlns:gpxtpx="http://www.garmin.com/xmlschemas/TrackPointExtension/v1">
            <gpxtpx:hr>144</gpxtpx:hr>
          </gpxtpx:TrackPointExtension>
        </extensions>
      </trkpt>
      <trkpt lat="42.92647" lon="1.90017">
        <ele>451.4</ele>
        <time>2022-07-25T08:46:48.000Z</time>
        <extensions>
          <gpxtpx:TrackPointExtension xmlns:gpxtpx="http://www.garmin.com/xmlschemas/TrackPointExtension/v1">
            <gpxtpx:hr>144</gpxtpx:hr>
          </gpxtpx:TrackPointExtension>
        </extensions>
      </trkpt>
      <trkpt lat="42.92642" lon="1.90014">
        <ele>451.4</ele>
        <time>2022-07-25T08:46:49.000Z</time>
        <extensions>
          <gpxtpx:TrackPointExtension xmlns:gpxtpx="http://www.garmin.com/xmlschemas/TrackPointExtension/v1">
            <gpxtpx:hr>143</gpxtpx:hr>
          </gpxtpx:TrackPointExtension>
        </extensions>
      </trkpt>
      <trkpt lat="42.92637" lon="1.90012">
        <ele>451.4</ele>
        <time>2022-07-25T08:46:50.000Z</time>
        <extensions>
          <gpxtpx:TrackPointExtension xmlns:gpxtpx="http://www.garmin.com/xmlschemas/TrackPointExtension/v1">
            <gpxtpx:hr>143</gpxtpx:hr>
          </gpxtpx:TrackPointExtension>
        </extensions>
      </trkpt>
      <trkpt lat="42.92629" lon="1.90009">
        <ele>451.4</ele>
        <time>2022-07-25T08:46:52.000Z</time>
        <extensions>
          <gpxtpx:TrackPointExtension xmlns:gpxtpx="http://www.garmin.com/xmlschemas/TrackPointExtension/v1">
            <gpxtpx:hr>143</gpxtpx:hr>
          </gpxtpx:TrackPointExtension>
        </extensions>
      </trkpt>
      <trkpt lat="42.92621" lon="1.90006">
        <ele>451.4</ele>
        <time>2022-07-25T08:46:54.000Z</time>
        <extensions>
          <gpxtpx:TrackPointExtension xmlns:gpxtpx="http://www.garmin.com/xmlschemas/TrackPointExtension/v1">
            <gpxtpx:hr>142</gpxtpx:hr>
          </gpxtpx:TrackPointExtension>
        </extensions>
      </trkpt>
      <trkpt lat="42.92616" lon="1.90005">
        <ele>451.4</ele>
        <time>2022-07-25T08:46:55.000Z</time>
        <extensions>
          <gpxtpx:TrackPointExtension xmlns:gpxtpx="http://www.garmin.com/xmlschemas/TrackPointExtension/v1">
            <gpxtpx:hr>142</gpxtpx:hr>
          </gpxtpx:TrackPointExtension>
        </extensions>
      </trkpt>
      <trkpt lat="42.92608" lon="1.90004">
        <ele>451.4</ele>
        <time>2022-07-25T08:46:57.000Z</time>
        <extensions>
          <gpxtpx:TrackPointExtension xmlns:gpxtpx="http://www.garmin.com/xmlschemas/TrackPointExtension/v1">
            <gpxtpx:hr>142</gpxtpx:hr>
          </gpxtpx:TrackPointExtension>
        </extensions>
      </trkpt>
      <trkpt lat="42.92601" lon="1.90002">
        <ele>451.3</ele>
        <time>2022-07-25T08:46:59.000Z</time>
        <extensions>
          <gpxtpx:TrackPointExtension xmlns:gpxtpx="http://www.garmin.com/xmlschemas/TrackPointExtension/v1">
            <gpxtpx:hr>142</gpxtpx:hr>
          </gpxtpx:TrackPointExtension>
        </extensions>
      </trkpt>
      <trkpt lat="42.92594" lon="1.90001">
        <ele>451.3</ele>
        <time>2022-07-25T08:47:01.000Z</time>
        <extensions>
          <gpxtpx:TrackPointExtension xmlns:gpxtpx="http://www.garmin.com/xmlschemas/TrackPointExtension/v1">
            <gpxtpx:hr>142</gpxtpx:hr>
          </gpxtpx:TrackPointExtension>
        </extensions>
      </trkpt>
      <trkpt lat="42.92588" lon="1.9">
        <ele>451.3</ele>
        <time>2022-07-25T08:47:03.000Z</time>
        <extensions>
          <gpxtpx:TrackPointExtension xmlns:gpxtpx="http://www.garmin.com/xmlschemas/TrackPointExtension/v1">
            <gpxtpx:hr>142</gpxtpx:hr>
          </gpxtpx:TrackPointExtension>
        </extensions>
      </trkpt>
      <trkpt lat="42.92581" lon="1.89997">
        <ele>451.3</ele>
        <time>2022-07-25T08:47:05.000Z</time>
        <extensions>
          <gpxtpx:TrackPointExtension xmlns:gpxtpx="http://www.garmin.com/xmlschemas/TrackPointExtension/v1">
            <gpxtpx:hr>142</gpxtpx:hr>
          </gpxtpx:TrackPointExtension>
        </extensions>
      </trkpt>
      <trkpt lat="42.92575" lon="1.89995">
        <ele>451.3</ele>
        <time>2022-07-25T08:47:06.000Z</time>
        <extensions>
          <gpxtpx:TrackPointExtension xmlns:gpxtpx="http://www.garmin.com/xmlschemas/TrackPointExtension/v1">
            <gpxtpx:hr>142</gpxtpx:hr>
          </gpxtpx:TrackPointExtension>
        </extensions>
      </trkpt>
      <trkpt lat="42.9257" lon="1.89995">
        <ele>451.3</ele>
        <time>2022-07-25T08:47:07.000Z</time>
        <extensions>
          <gpxtpx:TrackPointExtension xmlns:gpxtpx="http://www.garmin.com/xmlschemas/TrackPointExtension/v1">
            <gpxtpx:hr>143</gpxtpx:hr>
          </gpxtpx:TrackPointExtension>
        </extensions>
      </trkpt>
      <trkpt lat="42.92563" lon="1.89992">
        <ele>451.3</ele>
        <time>2022-07-25T08:47:09.000Z</time>
        <extensions>
          <gpxtpx:TrackPointExtension xmlns:gpxtpx="http://www.garmin.com/xmlschemas/TrackPointExtension/v1">
            <gpxtpx:hr>143</gpxtpx:hr>
          </gpxtpx:TrackPointExtension>
        </extensions>
      </trkpt>
      <trkpt lat="42.92557" lon="1.89991">
        <ele>451.5</ele>
        <time>2022-07-25T08:47:11.000Z</time>
        <extensions>
          <gpxtpx:TrackPointExtension xmlns:gpxtpx="http://www.garmin.com/xmlschemas/TrackPointExtension/v1">
            <gpxtpx:hr>143</gpxtpx:hr>
          </gpxtpx:TrackPointExtension>
        </extensions>
      </trkpt>
      <trkpt lat="42.92551" lon="1.8999">
        <ele>451.6</ele>
        <time>2022-07-25T08:47:13.000Z</time>
        <extensions>
          <gpxtpx:TrackPointExtension xmlns:gpxtpx="http://www.garmin.com/xmlschemas/TrackPointExtension/v1">
            <gpxtpx:hr>143</gpxtpx:hr>
          </gpxtpx:TrackPointExtension>
        </extensions>
      </trkpt>
      <trkpt lat="42.92544" lon="1.89988">
        <ele>451.7</ele>
        <time>2022-07-25T08:47:15.000Z</time>
        <extensions>
          <gpxtpx:TrackPointExtension xmlns:gpxtpx="http://www.garmin.com/xmlschemas/TrackPointExtension/v1">
            <gpxtpx:hr>144</gpxtpx:hr>
          </gpxtpx:TrackPointExtension>
        </extensions>
      </trkpt>
      <trkpt lat="42.92537" lon="1.89985">
        <ele>451.9</ele>
        <time>2022-07-25T08:47:17.000Z</time>
        <extensions>
          <gpxtpx:TrackPointExtension xmlns:gpxtpx="http://www.garmin.com/xmlschemas/TrackPointExtension/v1">
            <gpxtpx:hr>145</gpxtpx:hr>
          </gpxtpx:TrackPointExtension>
        </extensions>
      </trkpt>
      <trkpt lat="42.92529" lon="1.89983">
        <ele>452.1</ele>
        <time>2022-07-25T08:47:19.000Z</time>
        <extensions>
          <gpxtpx:TrackPointExtension xmlns:gpxtpx="http://www.garmin.com/xmlschemas/TrackPointExtension/v1">
            <gpxtpx:hr>145</gpxtpx:hr>
          </gpxtpx:TrackPointExtension>
        </extensions>
      </trkpt>
      <trkpt lat="42.92521" lon="1.89981">
        <ele>452.2</ele>
        <time>2022-07-25T08:47:21.000Z</time>
        <extensions>
          <gpxtpx:TrackPointExtension xmlns:gpxtpx="http://www.garmin.com/xmlschemas/TrackPointExtension/v1">
            <gpxtpx:hr>146</gpxtpx:hr>
          </gpxtpx:TrackPointExtension>
        </extensions>
      </trkpt>
      <trkpt lat="42.92515" lon="1.8998">
        <ele>452.3</ele>
        <time>2022-07-25T08:47:23.000Z</time>
        <extensions>
          <gpxtpx:TrackPointExtension xmlns:gpxtpx="http://www.garmin.com/xmlschemas/TrackPointExtension/v1">
            <gpxtpx:hr>146</gpxtpx:hr>
          </gpxtpx:TrackPointExtension>
        </extensions>
      </trkpt>
      <trkpt lat="42.92508" lon="1.89978">
        <ele>452.4</ele>
        <time>2022-07-25T08:47:25.000Z</time>
        <extensions>
          <gpxtpx:TrackPointExtension xmlns:gpxtpx="http://www.garmin.com/xmlschemas/TrackPointExtension/v1">
            <gpxtpx:hr>147</gpxtpx:hr>
          </gpxtpx:TrackPointExtension>
        </extensions>
      </trkpt>
      <trkpt lat="42.92501" lon="1.89976">
        <ele>452.5</ele>
        <time>2022-07-25T08:47:27.000Z</time>
        <extensions>
          <gpxtpx:TrackPointExtension xmlns:gpxtpx="http://www.garmin.com/xmlschemas/TrackPointExtension/v1">
            <gpxtpx:hr>147</gpxtpx:hr>
          </gpxtpx:TrackPointExtension>
        </extensions>
      </trkpt>
      <trkpt lat="42.92493" lon="1.89974">
        <ele>452.6</ele>
        <time>2022-07-25T08:47:29.000Z</time>
        <extensions>
          <gpxtpx:TrackPointExtension xmlns:gpxtpx="http://www.garmin.com/xmlschemas/TrackPointExtension/v1">
            <gpxtpx:hr>148</gpxtpx:hr>
          </gpxtpx:TrackPointExtension>
        </extensions>
      </trkpt>
      <trkpt lat="42.92486" lon="1.89973">
        <ele>452.6</ele>
        <time>2022-07-25T08:47:31.000Z</time>
        <extensions>
          <gpxtpx:TrackPointExtension xmlns:gpxtpx="http://www.garmin.com/xmlschemas/TrackPointExtension/v1">
            <gpxtpx:hr>148</gpxtpx:hr>
          </gpxtpx:TrackPointExtension>
        </extensions>
      </trkpt>
      <trkpt lat="42.9248" lon="1.89972">
        <ele>452.7</ele>
        <time>2022-07-25T08:47:33.000Z</time>
        <extensions>
          <gpxtpx:TrackPointExtension xmlns:gpxtpx="http://www.garmin.com/xmlschemas/TrackPointExtension/v1">
            <gpxtpx:hr>148</gpxtpx:hr>
          </gpxtpx:TrackPointExtension>
        </extensions>
      </trkpt>
      <trkpt lat="42.92473" lon="1.89971">
        <ele>452.8</ele>
        <time>2022-07-25T08:47:35.000Z</time>
        <extensions>
          <gpxtpx:TrackPointExtension xmlns:gpxtpx="http://www.garmin.com/xmlschemas/TrackPointExtension/v1">
            <gpxtpx:hr>149</gpxtpx:hr>
          </gpxtpx:TrackPointExtension>
        </extensions>
      </trkpt>
      <trkpt lat="42.92464" lon="1.8997">
        <ele>452.8</ele>
        <time>2022-07-25T08:47:37.000Z</time>
        <extensions>
          <gpxtpx:TrackPointExtension xmlns:gpxtpx="http://www.garmin.com/xmlschemas/TrackPointExtension/v1">
            <gpxtpx:hr>148</gpxtpx:hr>
          </gpxtpx:TrackPointExtension>
        </extensions>
      </trkpt>
      <trkpt lat="42.92457" lon="1.89969">
        <ele>452.8</ele>
        <time>2022-07-25T08:47:39.000Z</time>
        <extensions>
          <gpxtpx:TrackPointExtension xmlns:gpxtpx="http://www.garmin.com/xmlschemas/TrackPointExtension/v1">
            <gpxtpx:hr>148</gpxtpx:hr>
          </gpxtpx:TrackPointExtension>
        </extensions>
      </trkpt>
      <trkpt lat="42.92451" lon="1.8997">
        <ele>452.9</ele>
        <time>2022-07-25T08:47:41.000Z</time>
        <extensions>
          <gpxtpx:TrackPointExtension xmlns:gpxtpx="http://www.garmin.com/xmlschemas/TrackPointExtension/v1">
            <gpxtpx:hr>148</gpxtpx:hr>
          </gpxtpx:TrackPointExtension>
        </extensions>
      </trkpt>
      <trkpt lat="42.92446" lon="1.89971">
        <ele>453</ele>
        <time>2022-07-25T08:47:43.000Z</time>
        <extensions>
          <gpxtpx:TrackPointExtension xmlns:gpxtpx="http://www.garmin.com/xmlschemas/TrackPointExtension/v1">
            <gpxtpx:hr>148</gpxtpx:hr>
          </gpxtpx:TrackPointExtension>
        </extensions>
      </trkpt>
      <trkpt lat="42.9244" lon="1.8997">
        <ele>453.2</ele>
        <time>2022-07-25T08:47:46.000Z</time>
        <extensions>
          <gpxtpx:TrackPointExtension xmlns:gpxtpx="http://www.garmin.com/xmlschemas/TrackPointExtension/v1">
            <gpxtpx:hr>148</gpxtpx:hr>
          </gpxtpx:TrackPointExtension>
        </extensions>
      </trkpt>
      <trkpt lat="42.92435" lon="1.89971">
        <ele>453.5</ele>
        <time>2022-07-25T08:47:49.000Z</time>
        <extensions>
          <gpxtpx:TrackPointExtension xmlns:gpxtpx="http://www.garmin.com/xmlschemas/TrackPointExtension/v1">
            <gpxtpx:hr>148</gpxtpx:hr>
          </gpxtpx:TrackPointExtension>
        </extensions>
      </trkpt>
      <trkpt lat="42.92429" lon="1.89969">
        <ele>453.8</ele>
        <time>2022-07-25T08:47:52.000Z</time>
        <extensions>
          <gpxtpx:TrackPointExtension xmlns:gpxtpx="http://www.garmin.com/xmlschemas/TrackPointExtension/v1">
            <gpxtpx:hr>148</gpxtpx:hr>
          </gpxtpx:TrackPointExtension>
        </extensions>
      </trkpt>
      <trkpt lat="42.92424" lon="1.89969">
        <ele>454.1</ele>
        <time>2022-07-25T08:47:55.000Z</time>
        <extensions>
          <gpxtpx:TrackPointExtension xmlns:gpxtpx="http://www.garmin.com/xmlschemas/TrackPointExtension/v1">
            <gpxtpx:hr>148</gpxtpx:hr>
          </gpxtpx:TrackPointExtension>
        </extensions>
      </trkpt>
      <trkpt lat="42.9242" lon="1.89971">
        <ele>454.5</ele>
        <time>2022-07-25T08:47:58.000Z</time>
        <extensions>
          <gpxtpx:TrackPointExtension xmlns:gpxtpx="http://www.garmin.com/xmlschemas/TrackPointExtension/v1">
            <gpxtpx:hr>148</gpxtpx:hr>
          </gpxtpx:TrackPointExtension>
        </extensions>
      </trkpt>
      <trkpt lat="42.92414" lon="1.8997">
        <ele>454.9</ele>
        <time>2022-07-25T08:48:01.000Z</time>
        <extensions>
          <gpxtpx:TrackPointExtension xmlns:gpxtpx="http://www.garmin.com/xmlschemas/TrackPointExtension/v1">
            <gpxtpx:hr>148</gpxtpx:hr>
          </gpxtpx:TrackPointExtension>
        </extensions>
      </trkpt>
      <trkpt lat="42.92409" lon="1.89971">
        <ele>455.3</ele>
        <time>2022-07-25T08:48:04.000Z</time>
        <extensions>
          <gpxtpx:TrackPointExtension xmlns:gpxtpx="http://www.garmin.com/xmlschemas/TrackPointExtension/v1">
            <gpxtpx:hr>149</gpxtpx:hr>
          </gpxtpx:TrackPointExtension>
        </extensions>
      </trkpt>
      <trkpt lat="42.92404" lon="1.89972">
        <ele>456.5</ele>
        <time>2022-07-25T08:48:12.000Z</time>
        <extensions>
          <gpxtpx:TrackPointExtension xmlns:gpxtpx="http://www.garmin.com/xmlschemas/TrackPointExtension/v1">
            <gpxtpx:hr>153</gpxtpx:hr>
          </gpxtpx:TrackPointExtension>
        </extensions>
      </trkpt>
      <trkpt lat="42.924" lon="1.89974">
        <ele>457.9</ele>
        <time>2022-07-25T08:48:23.000Z</time>
        <extensions>
          <gpxtpx:TrackPointExtension xmlns:gpxtpx="http://www.garmin.com/xmlschemas/TrackPointExtension/v1">
            <gpxtpx:hr>156</gpxtpx:hr>
          </gpxtpx:TrackPointExtension>
        </extensions>
      </trkpt>
      <trkpt lat="42.92395" lon="1.89975">
        <ele>459.7</ele>
        <time>2022-07-25T08:48:36.000Z</time>
        <extensions>
          <gpxtpx:TrackPointExtension xmlns:gpxtpx="http://www.garmin.com/xmlschemas/TrackPointExtension/v1">
            <gpxtpx:hr>156</gpxtpx:hr>
          </gpxtpx:TrackPointExtension>
        </extensions>
      </trkpt>
      <trkpt lat="42.92391" lon="1.89978">
        <ele>461.3</ele>
        <time>2022-07-25T08:48:47.000Z</time>
        <extensions>
          <gpxtpx:TrackPointExtension xmlns:gpxtpx="http://www.garmin.com/xmlschemas/TrackPointExtension/v1">
            <gpxtpx:hr>158</gpxtpx:hr>
          </gpxtpx:TrackPointExtension>
        </extensions>
      </trkpt>
      <trkpt lat="42.92386" lon="1.89981">
        <ele>464.2</ele>
        <time>2022-07-25T08:49:24.000Z</time>
        <extensions>
          <gpxtpx:TrackPointExtension xmlns:gpxtpx="http://www.garmin.com/xmlschemas/TrackPointExtension/v1">
            <gpxtpx:hr>154</gpxtpx:hr>
          </gpxtpx:TrackPointExtension>
        </extensions>
      </trkpt>
      <trkpt lat="42.9238" lon="1.89984">
        <ele>464.3</ele>
        <time>2022-07-25T08:49:26.000Z</time>
        <extensions>
          <gpxtpx:TrackPointExtension xmlns:gpxtpx="http://www.garmin.com/xmlschemas/TrackPointExtension/v1">
            <gpxtpx:hr>153</gpxtpx:hr>
          </gpxtpx:TrackPointExtension>
        </extensions>
      </trkpt>
      <trkpt lat="42.92374" lon="1.89989">
        <ele>464.4</ele>
        <time>2022-07-25T08:49:29.000Z</time>
        <extensions>
          <gpxtpx:TrackPointExtension xmlns:gpxtpx="http://www.garmin.com/xmlschemas/TrackPointExtension/v1">
            <gpxtpx:hr>153</gpxtpx:hr>
          </gpxtpx:TrackPointExtension>
        </extensions>
      </trkpt>
      <trkpt lat="42.92368" lon="1.89995">
        <ele>464.4</ele>
        <time>2022-07-25T08:49:32.000Z</time>
        <extensions>
          <gpxtpx:TrackPointExtension xmlns:gpxtpx="http://www.garmin.com/xmlschemas/TrackPointExtension/v1">
            <gpxtpx:hr>152</gpxtpx:hr>
          </gpxtpx:TrackPointExtension>
        </extensions>
      </trkpt>
      <trkpt lat="42.92364" lon="1.89998">
        <ele>464.5</ele>
        <time>2022-07-25T08:49:34.000Z</time>
        <extensions>
          <gpxtpx:TrackPointExtension xmlns:gpxtpx="http://www.garmin.com/xmlschemas/TrackPointExtension/v1">
            <gpxtpx:hr>152</gpxtpx:hr>
          </gpxtpx:TrackPointExtension>
        </extensions>
      </trkpt>
      <trkpt lat="42.9236" lon="1.90001">
        <ele>464.8</ele>
        <time>2022-07-25T08:49:37.000Z</time>
        <extensions>
          <gpxtpx:TrackPointExtension xmlns:gpxtpx="http://www.garmin.com/xmlschemas/TrackPointExtension/v1">
            <gpxtpx:hr>151</gpxtpx:hr>
          </gpxtpx:TrackPointExtension>
        </extensions>
      </trkpt>
      <trkpt lat="42.92355" lon="1.90004">
        <ele>465.1</ele>
        <time>2022-07-25T08:49:40.000Z</time>
        <extensions>
          <gpxtpx:TrackPointExtension xmlns:gpxtpx="http://www.garmin.com/xmlschemas/TrackPointExtension/v1">
            <gpxtpx:hr>151</gpxtpx:hr>
          </gpxtpx:TrackPointExtension>
        </extensions>
      </trkpt>
      <trkpt lat="42.92351" lon="1.90003">
        <ele>465.2</ele>
        <time>2022-07-25T08:49:42.000Z</time>
        <extensions>
          <gpxtpx:TrackPointExtension xmlns:gpxtpx="http://www.garmin.com/xmlschemas/TrackPointExtension/v1">
            <gpxtpx:hr>151</gpxtpx:hr>
          </gpxtpx:TrackPointExtension>
        </extensions>
      </trkpt>
      <trkpt lat="42.92345" lon="1.90001">
        <ele>465.3</ele>
        <time>2022-07-25T08:49:44.000Z</time>
        <extensions>
          <gpxtpx:TrackPointExtension xmlns:gpxtpx="http://www.garmin.com/xmlschemas/TrackPointExtension/v1">
            <gpxtpx:hr>151</gpxtpx:hr>
          </gpxtpx:TrackPointExtension>
        </extensions>
      </trkpt>
      <trkpt lat="42.92337" lon="1.89998">
        <ele>465.3</ele>
        <time>2022-07-25T08:49:46.000Z</time>
        <extensions>
          <gpxtpx:TrackPointExtension xmlns:gpxtpx="http://www.garmin.com/xmlschemas/TrackPointExtension/v1">
            <gpxtpx:hr>151</gpxtpx:hr>
          </gpxtpx:TrackPointExtension>
        </extensions>
      </trkpt>
      <trkpt lat="42.92332" lon="1.89996">
        <ele>465.3</ele>
        <time>2022-07-25T08:49:47.000Z</time>
        <extensions>
          <gpxtpx:TrackPointExtension xmlns:gpxtpx="http://www.garmin.com/xmlschemas/TrackPointExtension/v1">
            <gpxtpx:hr>151</gpxtpx:hr>
          </gpxtpx:TrackPointExtension>
        </extensions>
      </trkpt>
      <trkpt lat="42.92327" lon="1.89994">
        <ele>465.2</ele>
        <time>2022-07-25T08:49:48.000Z</time>
        <extensions>
          <gpxtpx:TrackPointExtension xmlns:gpxtpx="http://www.garmin.com/xmlschemas/TrackPointExtension/v1">
            <gpxtpx:hr>151</gpxtpx:hr>
          </gpxtpx:TrackPointExtension>
        </extensions>
      </trkpt>
      <trkpt lat="42.92323" lon="1.89992">
        <ele>465.1</ele>
        <time>2022-07-25T08:49:49.000Z</time>
        <extensions>
          <gpxtpx:TrackPointExtension xmlns:gpxtpx="http://www.garmin.com/xmlschemas/TrackPointExtension/v1">
            <gpxtpx:hr>151</gpxtpx:hr>
          </gpxtpx:TrackPointExtension>
        </extensions>
      </trkpt>
      <trkpt lat="42.92316" lon="1.89986">
        <ele>464.9</ele>
        <time>2022-07-25T08:49:51.000Z</time>
        <extensions>
          <gpxtpx:TrackPointExtension xmlns:gpxtpx="http://www.garmin.com/xmlschemas/TrackPointExtension/v1">
            <gpxtpx:hr>151</gpxtpx:hr>
          </gpxtpx:TrackPointExtension>
        </extensions>
      </trkpt>
      <trkpt lat="42.92309" lon="1.89982">
        <ele>464.6</ele>
        <time>2022-07-25T08:49:53.000Z</time>
        <extensions>
          <gpxtpx:TrackPointExtension xmlns:gpxtpx="http://www.garmin.com/xmlschemas/TrackPointExtension/v1">
            <gpxtpx:hr>150</gpxtpx:hr>
          </gpxtpx:TrackPointExtension>
        </extensions>
      </trkpt>
      <trkpt lat="42.92303" lon="1.8998">
        <ele>464.4</ele>
        <time>2022-07-25T08:49:55.000Z</time>
        <extensions>
          <gpxtpx:TrackPointExtension xmlns:gpxtpx="http://www.garmin.com/xmlschemas/TrackPointExtension/v1">
            <gpxtpx:hr>150</gpxtpx:hr>
          </gpxtpx:TrackPointExtension>
        </extensions>
      </trkpt>
      <trkpt lat="42.92298" lon="1.89977">
        <ele>464.2</ele>
        <time>2022-07-25T08:49:57.000Z</time>
        <extensions>
          <gpxtpx:TrackPointExtension xmlns:gpxtpx="http://www.garmin.com/xmlschemas/TrackPointExtension/v1">
            <gpxtpx:hr>150</gpxtpx:hr>
          </gpxtpx:TrackPointExtension>
        </extensions>
      </trkpt>
      <trkpt lat="42.92293" lon="1.89971">
        <ele>463.9</ele>
        <time>2022-07-25T08:49:59.000Z</time>
        <extensions>
          <gpxtpx:TrackPointExtension xmlns:gpxtpx="http://www.garmin.com/xmlschemas/TrackPointExtension/v1">
            <gpxtpx:hr>149</gpxtpx:hr>
          </gpxtpx:TrackPointExtension>
        </extensions>
      </trkpt>
      <trkpt lat="42.92288" lon="1.89968">
        <ele>463.7</ele>
        <time>2022-07-25T08:50:01.000Z</time>
        <extensions>
          <gpxtpx:TrackPointExtension xmlns:gpxtpx="http://www.garmin.com/xmlschemas/TrackPointExtension/v1">
            <gpxtpx:hr>149</gpxtpx:hr>
          </gpxtpx:TrackPointExtension>
        </extensions>
      </trkpt>
      <trkpt lat="42.92284" lon="1.89966">
        <ele>463.3</ele>
        <time>2022-07-25T08:50:03.000Z</time>
        <extensions>
          <gpxtpx:TrackPointExtension xmlns:gpxtpx="http://www.garmin.com/xmlschemas/TrackPointExtension/v1">
            <gpxtpx:hr>149</gpxtpx:hr>
          </gpxtpx:TrackPointExtension>
        </extensions>
      </trkpt>
      <trkpt lat="42.92279" lon="1.89964">
        <ele>462.1</ele>
        <time>2022-07-25T08:50:06.000Z</time>
        <extensions>
          <gpxtpx:TrackPointExtension xmlns:gpxtpx="http://www.garmin.com/xmlschemas/TrackPointExtension/v1">
            <gpxtpx:hr>148</gpxtpx:hr>
          </gpxtpx:TrackPointExtension>
        </extensions>
      </trkpt>
      <trkpt lat="42.92274" lon="1.89967">
        <ele>461</ele>
        <time>2022-07-25T08:50:27.000Z</time>
        <extensions>
          <gpxtpx:TrackPointExtension xmlns:gpxtpx="http://www.garmin.com/xmlschemas/TrackPointExtension/v1">
            <gpxtpx:hr>144</gpxtpx:hr>
          </gpxtpx:TrackPointExtension>
        </extensions>
      </trkpt>
      <trkpt lat="42.92269" lon="1.89965">
        <ele>460.7</ele>
        <time>2022-07-25T08:50:29.000Z</time>
        <extensions>
          <gpxtpx:TrackPointExtension xmlns:gpxtpx="http://www.garmin.com/xmlschemas/TrackPointExtension/v1">
            <gpxtpx:hr>144</gpxtpx:hr>
          </gpxtpx:TrackPointExtension>
        </extensions>
      </trkpt>
      <trkpt lat="42.92263" lon="1.89962">
        <ele>460.4</ele>
        <time>2022-07-25T08:50:31.000Z</time>
        <extensions>
          <gpxtpx:TrackPointExtension xmlns:gpxtpx="http://www.garmin.com/xmlschemas/TrackPointExtension/v1">
            <gpxtpx:hr>144</gpxtpx:hr>
          </gpxtpx:TrackPointExtension>
        </extensions>
      </trkpt>
      <trkpt lat="42.92257" lon="1.89956">
        <ele>460.2</ele>
        <time>2022-07-25T08:50:33.000Z</time>
        <extensions>
          <gpxtpx:TrackPointExtension xmlns:gpxtpx="http://www.garmin.com/xmlschemas/TrackPointExtension/v1">
            <gpxtpx:hr>144</gpxtpx:hr>
          </gpxtpx:TrackPointExtension>
        </extensions>
      </trkpt>
      <trkpt lat="42.92252" lon="1.89953">
        <ele>460</ele>
        <time>2022-07-25T08:50:34.000Z</time>
        <extensions>
          <gpxtpx:TrackPointExtension xmlns:gpxtpx="http://www.garmin.com/xmlschemas/TrackPointExtension/v1">
            <gpxtpx:hr>144</gpxtpx:hr>
          </gpxtpx:TrackPointExtension>
        </extensions>
      </trkpt>
      <trkpt lat="42.92248" lon="1.89948">
        <ele>459.8</ele>
        <time>2022-07-25T08:50:35.000Z</time>
        <extensions>
          <gpxtpx:TrackPointExtension xmlns:gpxtpx="http://www.garmin.com/xmlschemas/TrackPointExtension/v1">
            <gpxtpx:hr>144</gpxtpx:hr>
          </gpxtpx:TrackPointExtension>
        </extensions>
      </trkpt>
      <trkpt lat="42.92244" lon="1.89944">
        <ele>459.7</ele>
        <time>2022-07-25T08:50:36.000Z</time>
        <extensions>
          <gpxtpx:TrackPointExtension xmlns:gpxtpx="http://www.garmin.com/xmlschemas/TrackPointExtension/v1">
            <gpxtpx:hr>144</gpxtpx:hr>
          </gpxtpx:TrackPointExtension>
        </extensions>
      </trkpt>
      <trkpt lat="42.92238" lon="1.89938">
        <ele>459.4</ele>
        <time>2022-07-25T08:50:37.000Z</time>
        <extensions>
          <gpxtpx:TrackPointExtension xmlns:gpxtpx="http://www.garmin.com/xmlschemas/TrackPointExtension/v1">
            <gpxtpx:hr>143</gpxtpx:hr>
          </gpxtpx:TrackPointExtension>
        </extensions>
      </trkpt>
      <trkpt lat="42.92234" lon="1.89935">
        <ele>459.2</ele>
        <time>2022-07-25T08:50:38.000Z</time>
        <extensions>
          <gpxtpx:TrackPointExtension xmlns:gpxtpx="http://www.garmin.com/xmlschemas/TrackPointExtension/v1">
            <gpxtpx:hr>143</gpxtpx:hr>
          </gpxtpx:TrackPointExtension>
        </extensions>
      </trkpt>
      <trkpt lat="42.92231" lon="1.89927">
        <ele>459</ele>
        <time>2022-07-25T08:50:39.000Z</time>
        <extensions>
          <gpxtpx:TrackPointExtension xmlns:gpxtpx="http://www.garmin.com/xmlschemas/TrackPointExtension/v1">
            <gpxtpx:hr>143</gpxtpx:hr>
          </gpxtpx:TrackPointExtension>
        </extensions>
      </trkpt>
      <trkpt lat="42.92227" lon="1.89916">
        <ele>458.8</ele>
        <time>2022-07-25T08:50:40.000Z</time>
        <extensions>
          <gpxtpx:TrackPointExtension xmlns:gpxtpx="http://www.garmin.com/xmlschemas/TrackPointExtension/v1">
            <gpxtpx:hr>142</gpxtpx:hr>
          </gpxtpx:TrackPointExtension>
        </extensions>
      </trkpt>
      <trkpt lat="42.92223" lon="1.89911">
        <ele>458.4</ele>
        <time>2022-07-25T08:50:41.000Z</time>
        <extensions>
          <gpxtpx:TrackPointExtension xmlns:gpxtpx="http://www.garmin.com/xmlschemas/TrackPointExtension/v1">
            <gpxtpx:hr>142</gpxtpx:hr>
          </gpxtpx:TrackPointExtension>
        </extensions>
      </trkpt>
      <trkpt lat="42.92218" lon="1.89906">
        <ele>458.2</ele>
        <time>2022-07-25T08:50:42.000Z</time>
        <extensions>
          <gpxtpx:TrackPointExtension xmlns:gpxtpx="http://www.garmin.com/xmlschemas/TrackPointExtension/v1">
            <gpxtpx:hr>142</gpxtpx:hr>
          </gpxtpx:TrackPointExtension>
        </extensions>
      </trkpt>
      <trkpt lat="42.9221" lon="1.89902">
        <ele>457.9</ele>
        <time>2022-07-25T08:50:44.000Z</time>
        <extensions>
          <gpxtpx:TrackPointExtension xmlns:gpxtpx="http://www.garmin.com/xmlschemas/TrackPointExtension/v1">
            <gpxtpx:hr>142</gpxtpx:hr>
          </gpxtpx:TrackPointExtension>
        </extensions>
      </trkpt>
      <trkpt lat="42.92207" lon="1.89898">
        <ele>457.6</ele>
        <time>2022-07-25T08:50:46.000Z</time>
        <extensions>
          <gpxtpx:TrackPointExtension xmlns:gpxtpx="http://www.garmin.com/xmlschemas/TrackPointExtension/v1">
            <gpxtpx:hr>142</gpxtpx:hr>
          </gpxtpx:TrackPointExtension>
        </extensions>
      </trkpt>
      <trkpt lat="42.92203" lon="1.89893">
        <ele>457.4</ele>
        <time>2022-07-25T08:50:50.000Z</time>
        <extensions>
          <gpxtpx:TrackPointExtension xmlns:gpxtpx="http://www.garmin.com/xmlschemas/TrackPointExtension/v1">
            <gpxtpx:hr>142</gpxtpx:hr>
          </gpxtpx:TrackPointExtension>
        </extensions>
      </trkpt>
      <trkpt lat="42.922" lon="1.89886">
        <ele>457.3</ele>
        <time>2022-07-25T08:50:53.000Z</time>
        <extensions>
          <gpxtpx:TrackPointExtension xmlns:gpxtpx="http://www.garmin.com/xmlschemas/TrackPointExtension/v1">
            <gpxtpx:hr>143</gpxtpx:hr>
          </gpxtpx:TrackPointExtension>
        </extensions>
      </trkpt>
      <trkpt lat="42.92199" lon="1.89879">
        <ele>457.3</ele>
        <time>2022-07-25T08:50:55.000Z</time>
        <extensions>
          <gpxtpx:TrackPointExtension xmlns:gpxtpx="http://www.garmin.com/xmlschemas/TrackPointExtension/v1">
            <gpxtpx:hr>144</gpxtpx:hr>
          </gpxtpx:TrackPointExtension>
        </extensions>
      </trkpt>
      <trkpt lat="42.92196" lon="1.89874">
        <ele>457.2</ele>
        <time>2022-07-25T08:50:57.000Z</time>
        <extensions>
          <gpxtpx:TrackPointExtension xmlns:gpxtpx="http://www.garmin.com/xmlschemas/TrackPointExtension/v1">
            <gpxtpx:hr>144</gpxtpx:hr>
          </gpxtpx:TrackPointExtension>
        </extensions>
      </trkpt>
      <trkpt lat="42.92193" lon="1.8987">
        <ele>457.2</ele>
        <time>2022-07-25T08:50:59.000Z</time>
        <extensions>
          <gpxtpx:TrackPointExtension xmlns:gpxtpx="http://www.garmin.com/xmlschemas/TrackPointExtension/v1">
            <gpxtpx:hr>144</gpxtpx:hr>
          </gpxtpx:TrackPointExtension>
        </extensions>
      </trkpt>
      <trkpt lat="42.92189" lon="1.89864">
        <ele>457.1</ele>
        <time>2022-07-25T08:51:02.000Z</time>
        <extensions>
          <gpxtpx:TrackPointExtension xmlns:gpxtpx="http://www.garmin.com/xmlschemas/TrackPointExtension/v1">
            <gpxtpx:hr>143</gpxtpx:hr>
          </gpxtpx:TrackPointExtension>
        </extensions>
      </trkpt>
      <trkpt lat="42.92186" lon="1.89859">
        <ele>457.1</ele>
        <time>2022-07-25T08:51:04.000Z</time>
        <extensions>
          <gpxtpx:TrackPointExtension xmlns:gpxtpx="http://www.garmin.com/xmlschemas/TrackPointExtension/v1">
            <gpxtpx:hr>143</gpxtpx:hr>
          </gpxtpx:TrackPointExtension>
        </extensions>
      </trkpt>
      <trkpt lat="42.92181" lon="1.89854">
        <ele>457</ele>
        <time>2022-07-25T08:51:07.000Z</time>
        <extensions>
          <gpxtpx:TrackPointExtension xmlns:gpxtpx="http://www.garmin.com/xmlschemas/TrackPointExtension/v1">
            <gpxtpx:hr>142</gpxtpx:hr>
          </gpxtpx:TrackPointExtension>
        </extensions>
      </trkpt>
      <trkpt lat="42.92177" lon="1.89848">
        <ele>457</ele>
        <time>2022-07-25T08:51:10.000Z</time>
        <extensions>
          <gpxtpx:TrackPointExtension xmlns:gpxtpx="http://www.garmin.com/xmlschemas/TrackPointExtension/v1">
            <gpxtpx:hr>142</gpxtpx:hr>
          </gpxtpx:TrackPointExtension>
        </extensions>
      </trkpt>
      <trkpt lat="42.92171" lon="1.89846">
        <ele>457</ele>
        <time>2022-07-25T08:51:13.000Z</time>
        <extensions>
          <gpxtpx:TrackPointExtension xmlns:gpxtpx="http://www.garmin.com/xmlschemas/TrackPointExtension/v1">
            <gpxtpx:hr>142</gpxtpx:hr>
          </gpxtpx:TrackPointExtension>
        </extensions>
      </trkpt>
      <trkpt lat="42.92167" lon="1.89845">
        <ele>457</ele>
        <time>2022-07-25T08:51:16.000Z</time>
        <extensions>
          <gpxtpx:TrackPointExtension xmlns:gpxtpx="http://www.garmin.com/xmlschemas/TrackPointExtension/v1">
            <gpxtpx:hr>142</gpxtpx:hr>
          </gpxtpx:TrackPointExtension>
        </extensions>
      </trkpt>
      <trkpt lat="42.92162" lon="1.89843">
        <ele>456.9</ele>
        <time>2022-07-25T08:51:19.000Z</time>
        <extensions>
          <gpxtpx:TrackPointExtension xmlns:gpxtpx="http://www.garmin.com/xmlschemas/TrackPointExtension/v1">
            <gpxtpx:hr>142</gpxtpx:hr>
          </gpxtpx:TrackPointExtension>
        </extensions>
      </trkpt>
      <trkpt lat="42.92157" lon="1.89841">
        <ele>456.9</ele>
        <time>2022-07-25T08:51:22.000Z</time>
        <extensions>
          <gpxtpx:TrackPointExtension xmlns:gpxtpx="http://www.garmin.com/xmlschemas/TrackPointExtension/v1">
            <gpxtpx:hr>142</gpxtpx:hr>
          </gpxtpx:TrackPointExtension>
        </extensions>
      </trkpt>
      <trkpt lat="42.9215" lon="1.8984">
        <ele>456.9</ele>
        <time>2022-07-25T08:51:26.000Z</time>
        <extensions>
          <gpxtpx:TrackPointExtension xmlns:gpxtpx="http://www.garmin.com/xmlschemas/TrackPointExtension/v1">
            <gpxtpx:hr>142</gpxtpx:hr>
          </gpxtpx:TrackPointExtension>
        </extensions>
      </trkpt>
      <trkpt lat="42.92146" lon="1.89839">
        <ele>456.9</ele>
        <time>2022-07-25T08:51:28.000Z</time>
        <extensions>
          <gpxtpx:TrackPointExtension xmlns:gpxtpx="http://www.garmin.com/xmlschemas/TrackPointExtension/v1">
            <gpxtpx:hr>142</gpxtpx:hr>
          </gpxtpx:TrackPointExtension>
        </extensions>
      </trkpt>
      <trkpt lat="42.9214" lon="1.89837">
        <ele>456.9</ele>
        <time>2022-07-25T08:51:30.000Z</time>
        <extensions>
          <gpxtpx:TrackPointExtension xmlns:gpxtpx="http://www.garmin.com/xmlschemas/TrackPointExtension/v1">
            <gpxtpx:hr>142</gpxtpx:hr>
          </gpxtpx:TrackPointExtension>
        </extensions>
      </trkpt>
      <trkpt lat="42.92133" lon="1.89838">
        <ele>456.9</ele>
        <time>2022-07-25T08:51:33.000Z</time>
        <extensions>
          <gpxtpx:TrackPointExtension xmlns:gpxtpx="http://www.garmin.com/xmlschemas/TrackPointExtension/v1">
            <gpxtpx:hr>141</gpxtpx:hr>
          </gpxtpx:TrackPointExtension>
        </extensions>
      </trkpt>
      <trkpt lat="42.92128" lon="1.89837">
        <ele>456.9</ele>
        <time>2022-07-25T08:51:35.000Z</time>
        <extensions>
          <gpxtpx:TrackPointExtension xmlns:gpxtpx="http://www.garmin.com/xmlschemas/TrackPointExtension/v1">
            <gpxtpx:hr>141</gpxtpx:hr>
          </gpxtpx:TrackPointExtension>
        </extensions>
      </trkpt>
      <trkpt lat="42.92123" lon="1.89839">
        <ele>456.9</ele>
        <time>2022-07-25T08:51:37.000Z</time>
        <extensions>
          <gpxtpx:TrackPointExtension xmlns:gpxtpx="http://www.garmin.com/xmlschemas/TrackPointExtension/v1">
            <gpxtpx:hr>141</gpxtpx:hr>
          </gpxtpx:TrackPointExtension>
        </extensions>
      </trkpt>
      <trkpt lat="42.92118" lon="1.89839">
        <ele>456.9</ele>
        <time>2022-07-25T08:51:39.000Z</time>
        <extensions>
          <gpxtpx:TrackPointExtension xmlns:gpxtpx="http://www.garmin.com/xmlschemas/TrackPointExtension/v1">
            <gpxtpx:hr>141</gpxtpx:hr>
          </gpxtpx:TrackPointExtension>
        </extensions>
      </trkpt>
      <trkpt lat="42.92113" lon="1.89841">
        <ele>456.9</ele>
        <time>2022-07-25T08:51:41.000Z</time>
        <extensions>
          <gpxtpx:TrackPointExtension xmlns:gpxtpx="http://www.garmin.com/xmlschemas/TrackPointExtension/v1">
            <gpxtpx:hr>141</gpxtpx:hr>
          </gpxtpx:TrackPointExtension>
        </extensions>
      </trkpt>
      <trkpt lat="42.92108" lon="1.89843">
        <ele>456.9</ele>
        <time>2022-07-25T08:51:43.000Z</time>
        <extensions>
          <gpxtpx:TrackPointExtension xmlns:gpxtpx="http://www.garmin.com/xmlschemas/TrackPointExtension/v1">
            <gpxtpx:hr>141</gpxtpx:hr>
          </gpxtpx:TrackPointExtension>
        </extensions>
      </trkpt>
      <trkpt lat="42.92103" lon="1.89845">
        <ele>456.9</ele>
        <time>2022-07-25T08:51:45.000Z</time>
        <extensions>
          <gpxtpx:TrackPointExtension xmlns:gpxtpx="http://www.garmin.com/xmlschemas/TrackPointExtension/v1">
            <gpxtpx:hr>141</gpxtpx:hr>
          </gpxtpx:TrackPointExtension>
        </extensions>
      </trkpt>
      <trkpt lat="42.92097" lon="1.89847">
        <ele>456.9</ele>
        <time>2022-07-25T08:51:47.000Z</time>
        <extensions>
          <gpxtpx:TrackPointExtension xmlns:gpxtpx="http://www.garmin.com/xmlschemas/TrackPointExtension/v1">
            <gpxtpx:hr>141</gpxtpx:hr>
          </gpxtpx:TrackPointExtension>
        </extensions>
      </trkpt>
      <trkpt lat="42.9209" lon="1.89848">
        <ele>456.9</ele>
        <time>2022-07-25T08:51:49.000Z</time>
        <extensions>
          <gpxtpx:TrackPointExtension xmlns:gpxtpx="http://www.garmin.com/xmlschemas/TrackPointExtension/v1">
            <gpxtpx:hr>142</gpxtpx:hr>
          </gpxtpx:TrackPointExtension>
        </extensions>
      </trkpt>
      <trkpt lat="42.92083" lon="1.8985">
        <ele>456.9</ele>
        <time>2022-07-25T08:51:51.000Z</time>
        <extensions>
          <gpxtpx:TrackPointExtension xmlns:gpxtpx="http://www.garmin.com/xmlschemas/TrackPointExtension/v1">
            <gpxtpx:hr>142</gpxtpx:hr>
          </gpxtpx:TrackPointExtension>
        </extensions>
      </trkpt>
      <trkpt lat="42.92076" lon="1.89851">
        <ele>456.9</ele>
        <time>2022-07-25T08:51:53.000Z</time>
        <extensions>
          <gpxtpx:TrackPointExtension xmlns:gpxtpx="http://www.garmin.com/xmlschemas/TrackPointExtension/v1">
            <gpxtpx:hr>142</gpxtpx:hr>
          </gpxtpx:TrackPointExtension>
        </extensions>
      </trkpt>
      <trkpt lat="42.92067" lon="1.89854">
        <ele>456.9</ele>
        <time>2022-07-25T08:51:55.000Z</time>
        <extensions>
          <gpxtpx:TrackPointExtension xmlns:gpxtpx="http://www.garmin.com/xmlschemas/TrackPointExtension/v1">
            <gpxtpx:hr>142</gpxtpx:hr>
          </gpxtpx:TrackPointExtension>
        </extensions>
      </trkpt>
      <trkpt lat="42.92059" lon="1.89856">
        <ele>456.9</ele>
        <time>2022-07-25T08:51:57.000Z</time>
        <extensions>
          <gpxtpx:TrackPointExtension xmlns:gpxtpx="http://www.garmin.com/xmlschemas/TrackPointExtension/v1">
            <gpxtpx:hr>142</gpxtpx:hr>
          </gpxtpx:TrackPointExtension>
        </extensions>
      </trkpt>
      <trkpt lat="42.92055" lon="1.89858">
        <ele>456.9</ele>
        <time>2022-07-25T08:51:58.000Z</time>
        <extensions>
          <gpxtpx:TrackPointExtension xmlns:gpxtpx="http://www.garmin.com/xmlschemas/TrackPointExtension/v1">
            <gpxtpx:hr>142</gpxtpx:hr>
          </gpxtpx:TrackPointExtension>
        </extensions>
      </trkpt>
      <trkpt lat="42.9205" lon="1.8986">
        <ele>456.9</ele>
        <time>2022-07-25T08:51:59.000Z</time>
        <extensions>
          <gpxtpx:TrackPointExtension xmlns:gpxtpx="http://www.garmin.com/xmlschemas/TrackPointExtension/v1">
            <gpxtpx:hr>142</gpxtpx:hr>
          </gpxtpx:TrackPointExtension>
        </extensions>
      </trkpt>
      <trkpt lat="42.92046" lon="1.89862">
        <ele>456.9</ele>
        <time>2022-07-25T08:52:00.000Z</time>
        <extensions>
          <gpxtpx:TrackPointExtension xmlns:gpxtpx="http://www.garmin.com/xmlschemas/TrackPointExtension/v1">
            <gpxtpx:hr>142</gpxtpx:hr>
          </gpxtpx:TrackPointExtension>
        </extensions>
      </trkpt>
      <trkpt lat="42.92041" lon="1.89864">
        <ele>456.9</ele>
        <time>2022-07-25T08:52:01.000Z</time>
        <extensions>
          <gpxtpx:TrackPointExtension xmlns:gpxtpx="http://www.garmin.com/xmlschemas/TrackPointExtension/v1">
            <gpxtpx:hr>142</gpxtpx:hr>
          </gpxtpx:TrackPointExtension>
        </extensions>
      </trkpt>
      <trkpt lat="42.92037" lon="1.89866">
        <ele>456.9</ele>
        <time>2022-07-25T08:52:02.000Z</time>
        <extensions>
          <gpxtpx:TrackPointExtension xmlns:gpxtpx="http://www.garmin.com/xmlschemas/TrackPointExtension/v1">
            <gpxtpx:hr>143</gpxtpx:hr>
          </gpxtpx:TrackPointExtension>
        </extensions>
      </trkpt>
      <trkpt lat="42.92028" lon="1.89871">
        <ele>457</ele>
        <time>2022-07-25T08:52:04.000Z</time>
        <extensions>
          <gpxtpx:TrackPointExtension xmlns:gpxtpx="http://www.garmin.com/xmlschemas/TrackPointExtension/v1">
            <gpxtpx:hr>143</gpxtpx:hr>
          </gpxtpx:TrackPointExtension>
        </extensions>
      </trkpt>
      <trkpt lat="42.92021" lon="1.89876">
        <ele>457</ele>
        <time>2022-07-25T08:52:06.000Z</time>
        <extensions>
          <gpxtpx:TrackPointExtension xmlns:gpxtpx="http://www.garmin.com/xmlschemas/TrackPointExtension/v1">
            <gpxtpx:hr>143</gpxtpx:hr>
          </gpxtpx:TrackPointExtension>
        </extensions>
      </trkpt>
      <trkpt lat="42.92013" lon="1.89879">
        <ele>457.1</ele>
        <time>2022-07-25T08:52:08.000Z</time>
        <extensions>
          <gpxtpx:TrackPointExtension xmlns:gpxtpx="http://www.garmin.com/xmlschemas/TrackPointExtension/v1">
            <gpxtpx:hr>143</gpxtpx:hr>
          </gpxtpx:TrackPointExtension>
        </extensions>
      </trkpt>
      <trkpt lat="42.92006" lon="1.89884">
        <ele>457.1</ele>
        <time>2022-07-25T08:52:10.000Z</time>
        <extensions>
          <gpxtpx:TrackPointExtension xmlns:gpxtpx="http://www.garmin.com/xmlschemas/TrackPointExtension/v1">
            <gpxtpx:hr>143</gpxtpx:hr>
          </gpxtpx:TrackPointExtension>
        </extensions>
      </trkpt>
      <trkpt lat="42.91998" lon="1.8989">
        <ele>457.2</ele>
        <time>2022-07-25T08:52:12.000Z</time>
        <extensions>
          <gpxtpx:TrackPointExtension xmlns:gpxtpx="http://www.garmin.com/xmlschemas/TrackPointExtension/v1">
            <gpxtpx:hr>143</gpxtpx:hr>
          </gpxtpx:TrackPointExtension>
        </extensions>
      </trkpt>
      <trkpt lat="42.91992" lon="1.89896">
        <ele>457.2</ele>
        <time>2022-07-25T08:52:14.000Z</time>
        <extensions>
          <gpxtpx:TrackPointExtension xmlns:gpxtpx="http://www.garmin.com/xmlschemas/TrackPointExtension/v1">
            <gpxtpx:hr>143</gpxtpx:hr>
          </gpxtpx:TrackPointExtension>
        </extensions>
      </trkpt>
      <trkpt lat="42.91985" lon="1.899">
        <ele>457.3</ele>
        <time>2022-07-25T08:52:16.000Z</time>
        <extensions>
          <gpxtpx:TrackPointExtension xmlns:gpxtpx="http://www.garmin.com/xmlschemas/TrackPointExtension/v1">
            <gpxtpx:hr>142</gpxtpx:hr>
          </gpxtpx:TrackPointExtension>
        </extensions>
      </trkpt>
      <trkpt lat="42.91979" lon="1.89903">
        <ele>457.3</ele>
        <time>2022-07-25T08:52:18.000Z</time>
        <extensions>
          <gpxtpx:TrackPointExtension xmlns:gpxtpx="http://www.garmin.com/xmlschemas/TrackPointExtension/v1">
            <gpxtpx:hr>142</gpxtpx:hr>
          </gpxtpx:TrackPointExtension>
        </extensions>
      </trkpt>
      <trkpt lat="42.91972" lon="1.89907">
        <ele>457.3</ele>
        <time>2022-07-25T08:52:20.000Z</time>
        <extensions>
          <gpxtpx:TrackPointExtension xmlns:gpxtpx="http://www.garmin.com/xmlschemas/TrackPointExtension/v1">
            <gpxtpx:hr>142</gpxtpx:hr>
          </gpxtpx:TrackPointExtension>
        </extensions>
      </trkpt>
      <trkpt lat="42.91965" lon="1.8991">
        <ele>457.4</ele>
        <time>2022-07-25T08:52:22.000Z</time>
        <extensions>
          <gpxtpx:TrackPointExtension xmlns:gpxtpx="http://www.garmin.com/xmlschemas/TrackPointExtension/v1">
            <gpxtpx:hr>142</gpxtpx:hr>
          </gpxtpx:TrackPointExtension>
        </extensions>
      </trkpt>
      <trkpt lat="42.91957" lon="1.89912">
        <ele>457.4</ele>
        <time>2022-07-25T08:52:24.000Z</time>
        <extensions>
          <gpxtpx:TrackPointExtension xmlns:gpxtpx="http://www.garmin.com/xmlschemas/TrackPointExtension/v1">
            <gpxtpx:hr>142</gpxtpx:hr>
          </gpxtpx:TrackPointExtension>
        </extensions>
      </trkpt>
      <trkpt lat="42.91949" lon="1.89915">
        <ele>457.4</ele>
        <time>2022-07-25T08:52:26.000Z</time>
        <extensions>
          <gpxtpx:TrackPointExtension xmlns:gpxtpx="http://www.garmin.com/xmlschemas/TrackPointExtension/v1">
            <gpxtpx:hr>142</gpxtpx:hr>
          </gpxtpx:TrackPointExtension>
        </extensions>
      </trkpt>
      <trkpt lat="42.91945" lon="1.89916">
        <ele>457.4</ele>
        <time>2022-07-25T08:52:27.000Z</time>
        <extensions>
          <gpxtpx:TrackPointExtension xmlns:gpxtpx="http://www.garmin.com/xmlschemas/TrackPointExtension/v1">
            <gpxtpx:hr>142</gpxtpx:hr>
          </gpxtpx:TrackPointExtension>
        </extensions>
      </trkpt>
      <trkpt lat="42.91937" lon="1.89919">
        <ele>457.4</ele>
        <time>2022-07-25T08:52:29.000Z</time>
        <extensions>
          <gpxtpx:TrackPointExtension xmlns:gpxtpx="http://www.garmin.com/xmlschemas/TrackPointExtension/v1">
            <gpxtpx:hr>142</gpxtpx:hr>
          </gpxtpx:TrackPointExtension>
        </extensions>
      </trkpt>
      <trkpt lat="42.9193" lon="1.89922">
        <ele>457.5</ele>
        <time>2022-07-25T08:52:31.000Z</time>
        <extensions>
          <gpxtpx:TrackPointExtension xmlns:gpxtpx="http://www.garmin.com/xmlschemas/TrackPointExtension/v1">
            <gpxtpx:hr>142</gpxtpx:hr>
          </gpxtpx:TrackPointExtension>
        </extensions>
      </trkpt>
      <trkpt lat="42.91922" lon="1.89924">
        <ele>457.5</ele>
        <time>2022-07-25T08:52:33.000Z</time>
        <extensions>
          <gpxtpx:TrackPointExtension xmlns:gpxtpx="http://www.garmin.com/xmlschemas/TrackPointExtension/v1">
            <gpxtpx:hr>142</gpxtpx:hr>
          </gpxtpx:TrackPointExtension>
        </extensions>
      </trkpt>
      <trkpt lat="42.91913" lon="1.89929">
        <ele>457.5</ele>
        <time>2022-07-25T08:52:35.000Z</time>
        <extensions>
          <gpxtpx:TrackPointExtension xmlns:gpxtpx="http://www.garmin.com/xmlschemas/TrackPointExtension/v1">
            <gpxtpx:hr>141</gpxtpx:hr>
          </gpxtpx:TrackPointExtension>
        </extensions>
      </trkpt>
      <trkpt lat="42.91908" lon="1.8993">
        <ele>457.5</ele>
        <time>2022-07-25T08:52:36.000Z</time>
        <extensions>
          <gpxtpx:TrackPointExtension xmlns:gpxtpx="http://www.garmin.com/xmlschemas/TrackPointExtension/v1">
            <gpxtpx:hr>141</gpxtpx:hr>
          </gpxtpx:TrackPointExtension>
        </extensions>
      </trkpt>
      <trkpt lat="42.919" lon="1.89932">
        <ele>457.5</ele>
        <time>2022-07-25T08:52:38.000Z</time>
        <extensions>
          <gpxtpx:TrackPointExtension xmlns:gpxtpx="http://www.garmin.com/xmlschemas/TrackPointExtension/v1">
            <gpxtpx:hr>141</gpxtpx:hr>
          </gpxtpx:TrackPointExtension>
        </extensions>
      </trkpt>
      <trkpt lat="42.91895" lon="1.89938">
        <ele>457.5</ele>
        <time>2022-07-25T08:52:40.000Z</time>
        <extensions>
          <gpxtpx:TrackPointExtension xmlns:gpxtpx="http://www.garmin.com/xmlschemas/TrackPointExtension/v1">
            <gpxtpx:hr>140</gpxtpx:hr>
          </gpxtpx:TrackPointExtension>
        </extensions>
      </trkpt>
      <trkpt lat="42.91891" lon="1.89949">
        <ele>457.5</ele>
        <time>2022-07-25T08:52:42.000Z</time>
        <extensions>
          <gpxtpx:TrackPointExtension xmlns:gpxtpx="http://www.garmin.com/xmlschemas/TrackPointExtension/v1">
            <gpxtpx:hr>139</gpxtpx:hr>
          </gpxtpx:TrackPointExtension>
        </extensions>
      </trkpt>
      <trkpt lat="42.91886" lon="1.89959">
        <ele>457.5</ele>
        <time>2022-07-25T08:52:44.000Z</time>
        <extensions>
          <gpxtpx:TrackPointExtension xmlns:gpxtpx="http://www.garmin.com/xmlschemas/TrackPointExtension/v1">
            <gpxtpx:hr>138</gpxtpx:hr>
          </gpxtpx:TrackPointExtension>
        </extensions>
      </trkpt>
      <trkpt lat="42.91883" lon="1.89969">
        <ele>457.5</ele>
        <time>2022-07-25T08:52:46.000Z</time>
        <extensions>
          <gpxtpx:TrackPointExtension xmlns:gpxtpx="http://www.garmin.com/xmlschemas/TrackPointExtension/v1">
            <gpxtpx:hr>137</gpxtpx:hr>
          </gpxtpx:TrackPointExtension>
        </extensions>
      </trkpt>
      <trkpt lat="42.91879" lon="1.89979">
        <ele>457.5</ele>
        <time>2022-07-25T08:52:48.000Z</time>
        <extensions>
          <gpxtpx:TrackPointExtension xmlns:gpxtpx="http://www.garmin.com/xmlschemas/TrackPointExtension/v1">
            <gpxtpx:hr>137</gpxtpx:hr>
          </gpxtpx:TrackPointExtension>
        </extensions>
      </trkpt>
      <trkpt lat="42.91877" lon="1.89988">
        <ele>457.5</ele>
        <time>2022-07-25T08:52:50.000Z</time>
        <extensions>
          <gpxtpx:TrackPointExtension xmlns:gpxtpx="http://www.garmin.com/xmlschemas/TrackPointExtension/v1">
            <gpxtpx:hr>136</gpxtpx:hr>
          </gpxtpx:TrackPointExtension>
        </extensions>
      </trkpt>
      <trkpt lat="42.91874" lon="1.89998">
        <ele>457.6</ele>
        <time>2022-07-25T08:52:52.000Z</time>
        <extensions>
          <gpxtpx:TrackPointExtension xmlns:gpxtpx="http://www.garmin.com/xmlschemas/TrackPointExtension/v1">
            <gpxtpx:hr>136</gpxtpx:hr>
          </gpxtpx:TrackPointExtension>
        </extensions>
      </trkpt>
      <trkpt lat="42.91871" lon="1.90008">
        <ele>457.7</ele>
        <time>2022-07-25T08:52:54.000Z</time>
        <extensions>
          <gpxtpx:TrackPointExtension xmlns:gpxtpx="http://www.garmin.com/xmlschemas/TrackPointExtension/v1">
            <gpxtpx:hr>136</gpxtpx:hr>
          </gpxtpx:TrackPointExtension>
        </extensions>
      </trkpt>
      <trkpt lat="42.91868" lon="1.90018">
        <ele>457.7</ele>
        <time>2022-07-25T08:52:56.000Z</time>
        <extensions>
          <gpxtpx:TrackPointExtension xmlns:gpxtpx="http://www.garmin.com/xmlschemas/TrackPointExtension/v1">
            <gpxtpx:hr>136</gpxtpx:hr>
          </gpxtpx:TrackPointExtension>
        </extensions>
      </trkpt>
      <trkpt lat="42.91865" lon="1.90028">
        <ele>457.7</ele>
        <time>2022-07-25T08:52:58.000Z</time>
        <extensions>
          <gpxtpx:TrackPointExtension xmlns:gpxtpx="http://www.garmin.com/xmlschemas/TrackPointExtension/v1">
            <gpxtpx:hr>136</gpxtpx:hr>
          </gpxtpx:TrackPointExtension>
        </extensions>
      </trkpt>
      <trkpt lat="42.91862" lon="1.90037">
        <ele>457.8</ele>
        <time>2022-07-25T08:53:00.000Z</time>
        <extensions>
          <gpxtpx:TrackPointExtension xmlns:gpxtpx="http://www.garmin.com/xmlschemas/TrackPointExtension/v1">
            <gpxtpx:hr>135</gpxtpx:hr>
          </gpxtpx:TrackPointExtension>
        </extensions>
      </trkpt>
      <trkpt lat="42.9186" lon="1.90046">
        <ele>457.8</ele>
        <time>2022-07-25T08:53:02.000Z</time>
        <extensions>
          <gpxtpx:TrackPointExtension xmlns:gpxtpx="http://www.garmin.com/xmlschemas/TrackPointExtension/v1">
            <gpxtpx:hr>136</gpxtpx:hr>
          </gpxtpx:TrackPointExtension>
        </extensions>
      </trkpt>
      <trkpt lat="42.91857" lon="1.90056">
        <ele>457.8</ele>
        <time>2022-07-25T08:53:04.000Z</time>
        <extensions>
          <gpxtpx:TrackPointExtension xmlns:gpxtpx="http://www.garmin.com/xmlschemas/TrackPointExtension/v1">
            <gpxtpx:hr>136</gpxtpx:hr>
          </gpxtpx:TrackPointExtension>
        </extensions>
      </trkpt>
      <trkpt lat="42.91854" lon="1.90066">
        <ele>457.5</ele>
        <time>2022-07-25T08:53:06.000Z</time>
        <extensions>
          <gpxtpx:TrackPointExtension xmlns:gpxtpx="http://www.garmin.com/xmlschemas/TrackPointExtension/v1">
            <gpxtpx:hr>136</gpxtpx:hr>
          </gpxtpx:TrackPointExtension>
        </extensions>
      </trkpt>
      <trkpt lat="42.91853" lon="1.90075">
        <ele>457.4</ele>
        <time>2022-07-25T08:53:08.000Z</time>
        <extensions>
          <gpxtpx:TrackPointExtension xmlns:gpxtpx="http://www.garmin.com/xmlschemas/TrackPointExtension/v1">
            <gpxtpx:hr>137</gpxtpx:hr>
          </gpxtpx:TrackPointExtension>
        </extensions>
      </trkpt>
      <trkpt lat="42.9185" lon="1.90084">
        <ele>457.3</ele>
        <time>2022-07-25T08:53:10.000Z</time>
        <extensions>
          <gpxtpx:TrackPointExtension xmlns:gpxtpx="http://www.garmin.com/xmlschemas/TrackPointExtension/v1">
            <gpxtpx:hr>137</gpxtpx:hr>
          </gpxtpx:TrackPointExtension>
        </extensions>
      </trkpt>
      <trkpt lat="42.91847" lon="1.90094">
        <ele>457.3</ele>
        <time>2022-07-25T08:53:12.000Z</time>
        <extensions>
          <gpxtpx:TrackPointExtension xmlns:gpxtpx="http://www.garmin.com/xmlschemas/TrackPointExtension/v1">
            <gpxtpx:hr>138</gpxtpx:hr>
          </gpxtpx:TrackPointExtension>
        </extensions>
      </trkpt>
      <trkpt lat="42.91844" lon="1.90103">
        <ele>457.3</ele>
        <time>2022-07-25T08:53:14.000Z</time>
        <extensions>
          <gpxtpx:TrackPointExtension xmlns:gpxtpx="http://www.garmin.com/xmlschemas/TrackPointExtension/v1">
            <gpxtpx:hr>138</gpxtpx:hr>
          </gpxtpx:TrackPointExtension>
        </extensions>
      </trkpt>
      <trkpt lat="42.91844" lon="1.90111">
        <ele>457.3</ele>
        <time>2022-07-25T08:53:16.000Z</time>
        <extensions>
          <gpxtpx:TrackPointExtension xmlns:gpxtpx="http://www.garmin.com/xmlschemas/TrackPointExtension/v1">
            <gpxtpx:hr>138</gpxtpx:hr>
          </gpxtpx:TrackPointExtension>
        </extensions>
      </trkpt>
      <trkpt lat="42.91844" lon="1.9012">
        <ele>457.3</ele>
        <time>2022-07-25T08:53:18.000Z</time>
        <extensions>
          <gpxtpx:TrackPointExtension xmlns:gpxtpx="http://www.garmin.com/xmlschemas/TrackPointExtension/v1">
            <gpxtpx:hr>138</gpxtpx:hr>
          </gpxtpx:TrackPointExtension>
        </extensions>
      </trkpt>
      <trkpt lat="42.91842" lon="1.90131">
        <ele>457.4</ele>
        <time>2022-07-25T08:53:20.000Z</time>
        <extensions>
          <gpxtpx:TrackPointExtension xmlns:gpxtpx="http://www.garmin.com/xmlschemas/TrackPointExtension/v1">
            <gpxtpx:hr>138</gpxtpx:hr>
          </gpxtpx:TrackPointExtension>
        </extensions>
      </trkpt>
      <trkpt lat="42.91842" lon="1.90142">
        <ele>457.4</ele>
        <time>2022-07-25T08:53:22.000Z</time>
        <extensions>
          <gpxtpx:TrackPointExtension xmlns:gpxtpx="http://www.garmin.com/xmlschemas/TrackPointExtension/v1">
            <gpxtpx:hr>138</gpxtpx:hr>
          </gpxtpx:TrackPointExtension>
        </extensions>
      </trkpt>
      <trkpt lat="42.91841" lon="1.90154">
        <ele>457.5</ele>
        <time>2022-07-25T08:53:24.000Z</time>
        <extensions>
          <gpxtpx:TrackPointExtension xmlns:gpxtpx="http://www.garmin.com/xmlschemas/TrackPointExtension/v1">
            <gpxtpx:hr>138</gpxtpx:hr>
          </gpxtpx:TrackPointExtension>
        </extensions>
      </trkpt>
      <trkpt lat="42.9184" lon="1.90164">
        <ele>457.6</ele>
        <time>2022-07-25T08:53:26.000Z</time>
        <extensions>
          <gpxtpx:TrackPointExtension xmlns:gpxtpx="http://www.garmin.com/xmlschemas/TrackPointExtension/v1">
            <gpxtpx:hr>139</gpxtpx:hr>
          </gpxtpx:TrackPointExtension>
        </extensions>
      </trkpt>
      <trkpt lat="42.91836" lon="1.9017">
        <ele>457.7</ele>
        <time>2022-07-25T08:53:28.000Z</time>
        <extensions>
          <gpxtpx:TrackPointExtension xmlns:gpxtpx="http://www.garmin.com/xmlschemas/TrackPointExtension/v1">
            <gpxtpx:hr>139</gpxtpx:hr>
          </gpxtpx:TrackPointExtension>
        </extensions>
      </trkpt>
      <trkpt lat="42.91831" lon="1.90172">
        <ele>457.9</ele>
        <time>2022-07-25T08:53:30.000Z</time>
        <extensions>
          <gpxtpx:TrackPointExtension xmlns:gpxtpx="http://www.garmin.com/xmlschemas/TrackPointExtension/v1">
            <gpxtpx:hr>140</gpxtpx:hr>
          </gpxtpx:TrackPointExtension>
        </extensions>
      </trkpt>
      <trkpt lat="42.91825" lon="1.90172">
        <ele>458</ele>
        <time>2022-07-25T08:53:32.000Z</time>
        <extensions>
          <gpxtpx:TrackPointExtension xmlns:gpxtpx="http://www.garmin.com/xmlschemas/TrackPointExtension/v1">
            <gpxtpx:hr>140</gpxtpx:hr>
          </gpxtpx:TrackPointExtension>
        </extensions>
      </trkpt>
      <trkpt lat="42.91819" lon="1.90171">
        <ele>458.1</ele>
        <time>2022-07-25T08:53:34.000Z</time>
        <extensions>
          <gpxtpx:TrackPointExtension xmlns:gpxtpx="http://www.garmin.com/xmlschemas/TrackPointExtension/v1">
            <gpxtpx:hr>141</gpxtpx:hr>
          </gpxtpx:TrackPointExtension>
        </extensions>
      </trkpt>
      <trkpt lat="42.91811" lon="1.90168">
        <ele>458.2</ele>
        <time>2022-07-25T08:53:36.000Z</time>
        <extensions>
          <gpxtpx:TrackPointExtension xmlns:gpxtpx="http://www.garmin.com/xmlschemas/TrackPointExtension/v1">
            <gpxtpx:hr>141</gpxtpx:hr>
          </gpxtpx:TrackPointExtension>
        </extensions>
      </trkpt>
      <trkpt lat="42.91805" lon="1.9017">
        <ele>458.3</ele>
        <time>2022-07-25T08:53:37.000Z</time>
        <extensions>
          <gpxtpx:TrackPointExtension xmlns:gpxtpx="http://www.garmin.com/xmlschemas/TrackPointExtension/v1">
            <gpxtpx:hr>141</gpxtpx:hr>
          </gpxtpx:TrackPointExtension>
        </extensions>
      </trkpt>
      <trkpt lat="42.91799" lon="1.90171">
        <ele>458.3</ele>
        <time>2022-07-25T08:53:38.000Z</time>
        <extensions>
          <gpxtpx:TrackPointExtension xmlns:gpxtpx="http://www.garmin.com/xmlschemas/TrackPointExtension/v1">
            <gpxtpx:hr>142</gpxtpx:hr>
          </gpxtpx:TrackPointExtension>
        </extensions>
      </trkpt>
      <trkpt lat="42.91795" lon="1.9017">
        <ele>458.4</ele>
        <time>2022-07-25T08:53:39.000Z</time>
        <extensions>
          <gpxtpx:TrackPointExtension xmlns:gpxtpx="http://www.garmin.com/xmlschemas/TrackPointExtension/v1">
            <gpxtpx:hr>142</gpxtpx:hr>
          </gpxtpx:TrackPointExtension>
        </extensions>
      </trkpt>
      <trkpt lat="42.9179" lon="1.90169">
        <ele>458.4</ele>
        <time>2022-07-25T08:53:40.000Z</time>
        <extensions>
          <gpxtpx:TrackPointExtension xmlns:gpxtpx="http://www.garmin.com/xmlschemas/TrackPointExtension/v1">
            <gpxtpx:hr>142</gpxtpx:hr>
          </gpxtpx:TrackPointExtension>
        </extensions>
      </trkpt>
      <trkpt lat="42.91785" lon="1.90169">
        <ele>458.4</ele>
        <time>2022-07-25T08:53:41.000Z</time>
        <extensions>
          <gpxtpx:TrackPointExtension xmlns:gpxtpx="http://www.garmin.com/xmlschemas/TrackPointExtension/v1">
            <gpxtpx:hr>143</gpxtpx:hr>
          </gpxtpx:TrackPointExtension>
        </extensions>
      </trkpt>
      <trkpt lat="42.9178" lon="1.90168">
        <ele>458.5</ele>
        <time>2022-07-25T08:53:42.000Z</time>
        <extensions>
          <gpxtpx:TrackPointExtension xmlns:gpxtpx="http://www.garmin.com/xmlschemas/TrackPointExtension/v1">
            <gpxtpx:hr>143</gpxtpx:hr>
          </gpxtpx:TrackPointExtension>
        </extensions>
      </trkpt>
      <trkpt lat="42.91773" lon="1.90168">
        <ele>458.5</ele>
        <time>2022-07-25T08:53:44.000Z</time>
        <extensions>
          <gpxtpx:TrackPointExtension xmlns:gpxtpx="http://www.garmin.com/xmlschemas/TrackPointExtension/v1">
            <gpxtpx:hr>143</gpxtpx:hr>
          </gpxtpx:TrackPointExtension>
        </extensions>
      </trkpt>
      <trkpt lat="42.91765" lon="1.90167">
        <ele>458.6</ele>
        <time>2022-07-25T08:53:46.000Z</time>
        <extensions>
          <gpxtpx:TrackPointExtension xmlns:gpxtpx="http://www.garmin.com/xmlschemas/TrackPointExtension/v1">
            <gpxtpx:hr>143</gpxtpx:hr>
          </gpxtpx:TrackPointExtension>
        </extensions>
      </trkpt>
      <trkpt lat="42.91759" lon="1.90161">
        <ele>458.7</ele>
        <time>2022-07-25T08:53:48.000Z</time>
        <extensions>
          <gpxtpx:TrackPointExtension xmlns:gpxtpx="http://www.garmin.com/xmlschemas/TrackPointExtension/v1">
            <gpxtpx:hr>143</gpxtpx:hr>
          </gpxtpx:TrackPointExtension>
        </extensions>
      </trkpt>
      <trkpt lat="42.91757" lon="1.90154">
        <ele>458.7</ele>
        <time>2022-07-25T08:53:50.000Z</time>
        <extensions>
          <gpxtpx:TrackPointExtension xmlns:gpxtpx="http://www.garmin.com/xmlschemas/TrackPointExtension/v1">
            <gpxtpx:hr>143</gpxtpx:hr>
          </gpxtpx:TrackPointExtension>
        </extensions>
      </trkpt>
      <trkpt lat="42.9176" lon="1.90144">
        <ele>458.7</ele>
        <time>2022-07-25T08:53:52.000Z</time>
        <extensions>
          <gpxtpx:TrackPointExtension xmlns:gpxtpx="http://www.garmin.com/xmlschemas/TrackPointExtension/v1">
            <gpxtpx:hr>143</gpxtpx:hr>
          </gpxtpx:TrackPointExtension>
        </extensions>
      </trkpt>
      <trkpt lat="42.91766" lon="1.90139">
        <ele>458.8</ele>
        <time>2022-07-25T08:53:54.000Z</time>
        <extensions>
          <gpxtpx:TrackPointExtension xmlns:gpxtpx="http://www.garmin.com/xmlschemas/TrackPointExtension/v1">
            <gpxtpx:hr>142</gpxtpx:hr>
          </gpxtpx:TrackPointExtension>
        </extensions>
      </trkpt>
      <trkpt lat="42.91772" lon="1.90133">
        <ele>458.8</ele>
        <time>2022-07-25T08:53:56.000Z</time>
        <extensions>
          <gpxtpx:TrackPointExtension xmlns:gpxtpx="http://www.garmin.com/xmlschemas/TrackPointExtension/v1">
            <gpxtpx:hr>141</gpxtpx:hr>
          </gpxtpx:TrackPointExtension>
        </extensions>
      </trkpt>
      <trkpt lat="42.91779" lon="1.90125">
        <ele>458.7</ele>
        <time>2022-07-25T08:53:58.000Z</time>
        <extensions>
          <gpxtpx:TrackPointExtension xmlns:gpxtpx="http://www.garmin.com/xmlschemas/TrackPointExtension/v1">
            <gpxtpx:hr>140</gpxtpx:hr>
          </gpxtpx:TrackPointExtension>
        </extensions>
      </trkpt>
      <trkpt lat="42.91784" lon="1.90116">
        <ele>458.7</ele>
        <time>2022-07-25T08:54:00.000Z</time>
        <extensions>
          <gpxtpx:TrackPointExtension xmlns:gpxtpx="http://www.garmin.com/xmlschemas/TrackPointExtension/v1">
            <gpxtpx:hr>140</gpxtpx:hr>
          </gpxtpx:TrackPointExtension>
        </extensions>
      </trkpt>
      <trkpt lat="42.91789" lon="1.90107">
        <ele>458.7</ele>
        <time>2022-07-25T08:54:02.000Z</time>
        <extensions>
          <gpxtpx:TrackPointExtension xmlns:gpxtpx="http://www.garmin.com/xmlschemas/TrackPointExtension/v1">
            <gpxtpx:hr>140</gpxtpx:hr>
          </gpxtpx:TrackPointExtension>
        </extensions>
      </trkpt>
      <trkpt lat="42.91791" lon="1.90102">
        <ele>458.7</ele>
        <time>2022-07-25T08:54:03.000Z</time>
        <extensions>
          <gpxtpx:TrackPointExtension xmlns:gpxtpx="http://www.garmin.com/xmlschemas/TrackPointExtension/v1">
            <gpxtpx:hr>140</gpxtpx:hr>
          </gpxtpx:TrackPointExtension>
        </extensions>
      </trkpt>
      <trkpt lat="42.91794" lon="1.90097">
        <ele>458.7</ele>
        <time>2022-07-25T08:54:04.000Z</time>
        <extensions>
          <gpxtpx:TrackPointExtension xmlns:gpxtpx="http://www.garmin.com/xmlschemas/TrackPointExtension/v1">
            <gpxtpx:hr>140</gpxtpx:hr>
          </gpxtpx:TrackPointExtension>
        </extensions>
      </trkpt>
      <trkpt lat="42.91799" lon="1.90087">
        <ele>458.6</ele>
        <time>2022-07-25T08:54:06.000Z</time>
        <extensions>
          <gpxtpx:TrackPointExtension xmlns:gpxtpx="http://www.garmin.com/xmlschemas/TrackPointExtension/v1">
            <gpxtpx:hr>140</gpxtpx:hr>
          </gpxtpx:TrackPointExtension>
        </extensions>
      </trkpt>
      <trkpt lat="42.91803" lon="1.90077">
        <ele>458.6</ele>
        <time>2022-07-25T08:54:08.000Z</time>
        <extensions>
          <gpxtpx:TrackPointExtension xmlns:gpxtpx="http://www.garmin.com/xmlschemas/TrackPointExtension/v1">
            <gpxtpx:hr>140</gpxtpx:hr>
          </gpxtpx:TrackPointExtension>
        </extensions>
      </trkpt>
      <trkpt lat="42.91808" lon="1.90068">
        <ele>458.6</ele>
        <time>2022-07-25T08:54:10.000Z</time>
        <extensions>
          <gpxtpx:TrackPointExtension xmlns:gpxtpx="http://www.garmin.com/xmlschemas/TrackPointExtension/v1">
            <gpxtpx:hr>140</gpxtpx:hr>
          </gpxtpx:TrackPointExtension>
        </extensions>
      </trkpt>
      <trkpt lat="42.91813" lon="1.90059">
        <ele>458.6</ele>
        <time>2022-07-25T08:54:12.000Z</time>
        <extensions>
          <gpxtpx:TrackPointExtension xmlns:gpxtpx="http://www.garmin.com/xmlschemas/TrackPointExtension/v1">
            <gpxtpx:hr>139</gpxtpx:hr>
          </gpxtpx:TrackPointExtension>
        </extensions>
      </trkpt>
      <trkpt lat="42.91818" lon="1.9005">
        <ele>458.6</ele>
        <time>2022-07-25T08:54:14.000Z</time>
        <extensions>
          <gpxtpx:TrackPointExtension xmlns:gpxtpx="http://www.garmin.com/xmlschemas/TrackPointExtension/v1">
            <gpxtpx:hr>138</gpxtpx:hr>
          </gpxtpx:TrackPointExtension>
        </extensions>
      </trkpt>
      <trkpt lat="42.91821" lon="1.90045">
        <ele>458.6</ele>
        <time>2022-07-25T08:54:15.000Z</time>
        <extensions>
          <gpxtpx:TrackPointExtension xmlns:gpxtpx="http://www.garmin.com/xmlschemas/TrackPointExtension/v1">
            <gpxtpx:hr>137</gpxtpx:hr>
          </gpxtpx:TrackPointExtension>
        </extensions>
      </trkpt>
      <trkpt lat="42.91828" lon="1.90037">
        <ele>458.6</ele>
        <time>2022-07-25T08:54:17.000Z</time>
        <extensions>
          <gpxtpx:TrackPointExtension xmlns:gpxtpx="http://www.garmin.com/xmlschemas/TrackPointExtension/v1">
            <gpxtpx:hr>137</gpxtpx:hr>
          </gpxtpx:TrackPointExtension>
        </extensions>
      </trkpt>
      <trkpt lat="42.91832" lon="1.90033">
        <ele>458.6</ele>
        <time>2022-07-25T08:54:18.000Z</time>
        <extensions>
          <gpxtpx:TrackPointExtension xmlns:gpxtpx="http://www.garmin.com/xmlschemas/TrackPointExtension/v1">
            <gpxtpx:hr>136</gpxtpx:hr>
          </gpxtpx:TrackPointExtension>
        </extensions>
      </trkpt>
      <trkpt lat="42.91835" lon="1.9003">
        <ele>458.6</ele>
        <time>2022-07-25T08:54:19.000Z</time>
        <extensions>
          <gpxtpx:TrackPointExtension xmlns:gpxtpx="http://www.garmin.com/xmlschemas/TrackPointExtension/v1">
            <gpxtpx:hr>136</gpxtpx:hr>
          </gpxtpx:TrackPointExtension>
        </extensions>
      </trkpt>
      <trkpt lat="42.91839" lon="1.90025">
        <ele>458.6</ele>
        <time>2022-07-25T08:54:20.000Z</time>
        <extensions>
          <gpxtpx:TrackPointExtension xmlns:gpxtpx="http://www.garmin.com/xmlschemas/TrackPointExtension/v1">
            <gpxtpx:hr>136</gpxtpx:hr>
          </gpxtpx:TrackPointExtension>
        </extensions>
      </trkpt>
      <trkpt lat="42.91844" lon="1.90016">
        <ele>458.6</ele>
        <time>2022-07-25T08:54:22.000Z</time>
        <extensions>
          <gpxtpx:TrackPointExtension xmlns:gpxtpx="http://www.garmin.com/xmlschemas/TrackPointExtension/v1">
            <gpxtpx:hr>136</gpxtpx:hr>
          </gpxtpx:TrackPointExtension>
        </extensions>
      </trkpt>
      <trkpt lat="42.91849" lon="1.90006">
        <ele>458.6</ele>
        <time>2022-07-25T08:54:24.000Z</time>
        <extensions>
          <gpxtpx:TrackPointExtension xmlns:gpxtpx="http://www.garmin.com/xmlschemas/TrackPointExtension/v1">
            <gpxtpx:hr>136</gpxtpx:hr>
          </gpxtpx:TrackPointExtension>
        </extensions>
      </trkpt>
      <trkpt lat="42.91851" lon="1.9">
        <ele>458.5</ele>
        <time>2022-07-25T08:54:25.000Z</time>
        <extensions>
          <gpxtpx:TrackPointExtension xmlns:gpxtpx="http://www.garmin.com/xmlschemas/TrackPointExtension/v1">
            <gpxtpx:hr>137</gpxtpx:hr>
          </gpxtpx:TrackPointExtension>
        </extensions>
      </trkpt>
      <trkpt lat="42.91853" lon="1.89995">
        <ele>458.5</ele>
        <time>2022-07-25T08:54:26.000Z</time>
        <extensions>
          <gpxtpx:TrackPointExtension xmlns:gpxtpx="http://www.garmin.com/xmlschemas/TrackPointExtension/v1">
            <gpxtpx:hr>137</gpxtpx:hr>
          </gpxtpx:TrackPointExtension>
        </extensions>
      </trkpt>
      <trkpt lat="42.91855" lon="1.89989">
        <ele>458.5</ele>
        <time>2022-07-25T08:54:27.000Z</time>
        <extensions>
          <gpxtpx:TrackPointExtension xmlns:gpxtpx="http://www.garmin.com/xmlschemas/TrackPointExtension/v1">
            <gpxtpx:hr>137</gpxtpx:hr>
          </gpxtpx:TrackPointExtension>
        </extensions>
      </trkpt>
      <trkpt lat="42.91857" lon="1.89983">
        <ele>458.5</ele>
        <time>2022-07-25T08:54:28.000Z</time>
        <extensions>
          <gpxtpx:TrackPointExtension xmlns:gpxtpx="http://www.garmin.com/xmlschemas/TrackPointExtension/v1">
            <gpxtpx:hr>137</gpxtpx:hr>
          </gpxtpx:TrackPointExtension>
        </extensions>
      </trkpt>
      <trkpt lat="42.9186" lon="1.89972">
        <ele>458.5</ele>
        <time>2022-07-25T08:54:30.000Z</time>
        <extensions>
          <gpxtpx:TrackPointExtension xmlns:gpxtpx="http://www.garmin.com/xmlschemas/TrackPointExtension/v1">
            <gpxtpx:hr>137</gpxtpx:hr>
          </gpxtpx:TrackPointExtension>
        </extensions>
      </trkpt>
      <trkpt lat="42.91863" lon="1.89962">
        <ele>458.5</ele>
        <time>2022-07-25T08:54:32.000Z</time>
        <extensions>
          <gpxtpx:TrackPointExtension xmlns:gpxtpx="http://www.garmin.com/xmlschemas/TrackPointExtension/v1">
            <gpxtpx:hr>137</gpxtpx:hr>
          </gpxtpx:TrackPointExtension>
        </extensions>
      </trkpt>
      <trkpt lat="42.91863" lon="1.89952">
        <ele>458.5</ele>
        <time>2022-07-25T08:54:34.000Z</time>
        <extensions>
          <gpxtpx:TrackPointExtension xmlns:gpxtpx="http://www.garmin.com/xmlschemas/TrackPointExtension/v1">
            <gpxtpx:hr>137</gpxtpx:hr>
          </gpxtpx:TrackPointExtension>
        </extensions>
      </trkpt>
      <trkpt lat="42.91863" lon="1.89942">
        <ele>458.5</ele>
        <time>2022-07-25T08:54:36.000Z</time>
        <extensions>
          <gpxtpx:TrackPointExtension xmlns:gpxtpx="http://www.garmin.com/xmlschemas/TrackPointExtension/v1">
            <gpxtpx:hr>136</gpxtpx:hr>
          </gpxtpx:TrackPointExtension>
        </extensions>
      </trkpt>
      <trkpt lat="42.91863" lon="1.89934">
        <ele>458.5</ele>
        <time>2022-07-25T08:54:38.000Z</time>
        <extensions>
          <gpxtpx:TrackPointExtension xmlns:gpxtpx="http://www.garmin.com/xmlschemas/TrackPointExtension/v1">
            <gpxtpx:hr>135</gpxtpx:hr>
          </gpxtpx:TrackPointExtension>
        </extensions>
      </trkpt>
      <trkpt lat="42.91862" lon="1.89926">
        <ele>458.5</ele>
        <time>2022-07-25T08:54:40.000Z</time>
        <extensions>
          <gpxtpx:TrackPointExtension xmlns:gpxtpx="http://www.garmin.com/xmlschemas/TrackPointExtension/v1">
            <gpxtpx:hr>134</gpxtpx:hr>
          </gpxtpx:TrackPointExtension>
        </extensions>
      </trkpt>
      <trkpt lat="42.91862" lon="1.89919">
        <ele>458.5</ele>
        <time>2022-07-25T08:54:42.000Z</time>
        <extensions>
          <gpxtpx:TrackPointExtension xmlns:gpxtpx="http://www.garmin.com/xmlschemas/TrackPointExtension/v1">
            <gpxtpx:hr>133</gpxtpx:hr>
          </gpxtpx:TrackPointExtension>
        </extensions>
      </trkpt>
      <trkpt lat="42.9186" lon="1.89913">
        <ele>458.5</ele>
        <time>2022-07-25T08:54:44.000Z</time>
        <extensions>
          <gpxtpx:TrackPointExtension xmlns:gpxtpx="http://www.garmin.com/xmlschemas/TrackPointExtension/v1">
            <gpxtpx:hr>132</gpxtpx:hr>
          </gpxtpx:TrackPointExtension>
        </extensions>
      </trkpt>
      <trkpt lat="42.91854" lon="1.89911">
        <ele>458.5</ele>
        <time>2022-07-25T08:54:46.000Z</time>
        <extensions>
          <gpxtpx:TrackPointExtension xmlns:gpxtpx="http://www.garmin.com/xmlschemas/TrackPointExtension/v1">
            <gpxtpx:hr>132</gpxtpx:hr>
          </gpxtpx:TrackPointExtension>
        </extensions>
      </trkpt>
      <trkpt lat="42.91848" lon="1.89912">
        <ele>458.5</ele>
        <time>2022-07-25T08:54:48.000Z</time>
        <extensions>
          <gpxtpx:TrackPointExtension xmlns:gpxtpx="http://www.garmin.com/xmlschemas/TrackPointExtension/v1">
            <gpxtpx:hr>132</gpxtpx:hr>
          </gpxtpx:TrackPointExtension>
        </extensions>
      </trkpt>
      <trkpt lat="42.91842" lon="1.89913">
        <ele>458.5</ele>
        <time>2022-07-25T08:54:50.000Z</time>
        <extensions>
          <gpxtpx:TrackPointExtension xmlns:gpxtpx="http://www.garmin.com/xmlschemas/TrackPointExtension/v1">
            <gpxtpx:hr>132</gpxtpx:hr>
          </gpxtpx:TrackPointExtension>
        </extensions>
      </trkpt>
      <trkpt lat="42.91835" lon="1.89914">
        <ele>458.5</ele>
        <time>2022-07-25T08:54:52.000Z</time>
        <extensions>
          <gpxtpx:TrackPointExtension xmlns:gpxtpx="http://www.garmin.com/xmlschemas/TrackPointExtension/v1">
            <gpxtpx:hr>132</gpxtpx:hr>
          </gpxtpx:TrackPointExtension>
        </extensions>
      </trkpt>
      <trkpt lat="42.91829" lon="1.89914">
        <ele>458.5</ele>
        <time>2022-07-25T08:54:54.000Z</time>
        <extensions>
          <gpxtpx:TrackPointExtension xmlns:gpxtpx="http://www.garmin.com/xmlschemas/TrackPointExtension/v1">
            <gpxtpx:hr>132</gpxtpx:hr>
          </gpxtpx:TrackPointExtension>
        </extensions>
      </trkpt>
      <trkpt lat="42.91822" lon="1.89914">
        <ele>458.5</ele>
        <time>2022-07-25T08:54:56.000Z</time>
        <extensions>
          <gpxtpx:TrackPointExtension xmlns:gpxtpx="http://www.garmin.com/xmlschemas/TrackPointExtension/v1">
            <gpxtpx:hr>132</gpxtpx:hr>
          </gpxtpx:TrackPointExtension>
        </extensions>
      </trkpt>
      <trkpt lat="42.91815" lon="1.89915">
        <ele>458.5</ele>
        <time>2022-07-25T08:54:58.000Z</time>
        <extensions>
          <gpxtpx:TrackPointExtension xmlns:gpxtpx="http://www.garmin.com/xmlschemas/TrackPointExtension/v1">
            <gpxtpx:hr>133</gpxtpx:hr>
          </gpxtpx:TrackPointExtension>
        </extensions>
      </trkpt>
      <trkpt lat="42.91808" lon="1.89915">
        <ele>458.5</ele>
        <time>2022-07-25T08:55:00.000Z</time>
        <extensions>
          <gpxtpx:TrackPointExtension xmlns:gpxtpx="http://www.garmin.com/xmlschemas/TrackPointExtension/v1">
            <gpxtpx:hr>133</gpxtpx:hr>
          </gpxtpx:TrackPointExtension>
        </extensions>
      </trkpt>
      <trkpt lat="42.91801" lon="1.89916">
        <ele>458.5</ele>
        <time>2022-07-25T08:55:02.000Z</time>
        <extensions>
          <gpxtpx:TrackPointExtension xmlns:gpxtpx="http://www.garmin.com/xmlschemas/TrackPointExtension/v1">
            <gpxtpx:hr>134</gpxtpx:hr>
          </gpxtpx:TrackPointExtension>
        </extensions>
      </trkpt>
      <trkpt lat="42.91795" lon="1.89916">
        <ele>458.5</ele>
        <time>2022-07-25T08:55:04.000Z</time>
        <extensions>
          <gpxtpx:TrackPointExtension xmlns:gpxtpx="http://www.garmin.com/xmlschemas/TrackPointExtension/v1">
            <gpxtpx:hr>134</gpxtpx:hr>
          </gpxtpx:TrackPointExtension>
        </extensions>
      </trkpt>
      <trkpt lat="42.91788" lon="1.89918">
        <ele>458.5</ele>
        <time>2022-07-25T08:55:06.000Z</time>
        <extensions>
          <gpxtpx:TrackPointExtension xmlns:gpxtpx="http://www.garmin.com/xmlschemas/TrackPointExtension/v1">
            <gpxtpx:hr>134</gpxtpx:hr>
          </gpxtpx:TrackPointExtension>
        </extensions>
      </trkpt>
      <trkpt lat="42.9178" lon="1.89918">
        <ele>458.5</ele>
        <time>2022-07-25T08:55:08.000Z</time>
        <extensions>
          <gpxtpx:TrackPointExtension xmlns:gpxtpx="http://www.garmin.com/xmlschemas/TrackPointExtension/v1">
            <gpxtpx:hr>134</gpxtpx:hr>
          </gpxtpx:TrackPointExtension>
        </extensions>
      </trkpt>
      <trkpt lat="42.91773" lon="1.89918">
        <ele>458.5</ele>
        <time>2022-07-25T08:55:10.000Z</time>
        <extensions>
          <gpxtpx:TrackPointExtension xmlns:gpxtpx="http://www.garmin.com/xmlschemas/TrackPointExtension/v1">
            <gpxtpx:hr>134</gpxtpx:hr>
          </gpxtpx:TrackPointExtension>
        </extensions>
      </trkpt>
      <trkpt lat="42.91765" lon="1.89919">
        <ele>458.6</ele>
        <time>2022-07-25T08:55:12.000Z</time>
        <extensions>
          <gpxtpx:TrackPointExtension xmlns:gpxtpx="http://www.garmin.com/xmlschemas/TrackPointExtension/v1">
            <gpxtpx:hr>134</gpxtpx:hr>
          </gpxtpx:TrackPointExtension>
        </extensions>
      </trkpt>
      <trkpt lat="42.91757" lon="1.89918">
        <ele>458.7</ele>
        <time>2022-07-25T08:55:14.000Z</time>
        <extensions>
          <gpxtpx:TrackPointExtension xmlns:gpxtpx="http://www.garmin.com/xmlschemas/TrackPointExtension/v1">
            <gpxtpx:hr>135</gpxtpx:hr>
          </gpxtpx:TrackPointExtension>
        </extensions>
      </trkpt>
      <trkpt lat="42.91751" lon="1.89919">
        <ele>458.7</ele>
        <time>2022-07-25T08:55:16.000Z</time>
        <extensions>
          <gpxtpx:TrackPointExtension xmlns:gpxtpx="http://www.garmin.com/xmlschemas/TrackPointExtension/v1">
            <gpxtpx:hr>135</gpxtpx:hr>
          </gpxtpx:TrackPointExtension>
        </extensions>
      </trkpt>
      <trkpt lat="42.91745" lon="1.89919">
        <ele>458.8</ele>
        <time>2022-07-25T08:55:18.000Z</time>
        <extensions>
          <gpxtpx:TrackPointExtension xmlns:gpxtpx="http://www.garmin.com/xmlschemas/TrackPointExtension/v1">
            <gpxtpx:hr>136</gpxtpx:hr>
          </gpxtpx:TrackPointExtension>
        </extensions>
      </trkpt>
      <trkpt lat="42.9174" lon="1.89919">
        <ele>458.9</ele>
        <time>2022-07-25T08:55:20.000Z</time>
        <extensions>
          <gpxtpx:TrackPointExtension xmlns:gpxtpx="http://www.garmin.com/xmlschemas/TrackPointExtension/v1">
            <gpxtpx:hr>137</gpxtpx:hr>
          </gpxtpx:TrackPointExtension>
        </extensions>
      </trkpt>
      <trkpt lat="42.91735" lon="1.8992">
        <ele>459</ele>
        <time>2022-07-25T08:55:22.000Z</time>
        <extensions>
          <gpxtpx:TrackPointExtension xmlns:gpxtpx="http://www.garmin.com/xmlschemas/TrackPointExtension/v1">
            <gpxtpx:hr>138</gpxtpx:hr>
          </gpxtpx:TrackPointExtension>
        </extensions>
      </trkpt>
      <trkpt lat="42.9173" lon="1.89921">
        <ele>459</ele>
        <time>2022-07-25T08:55:24.000Z</time>
        <extensions>
          <gpxtpx:TrackPointExtension xmlns:gpxtpx="http://www.garmin.com/xmlschemas/TrackPointExtension/v1">
            <gpxtpx:hr>138</gpxtpx:hr>
          </gpxtpx:TrackPointExtension>
        </extensions>
      </trkpt>
      <trkpt lat="42.91725" lon="1.89922">
        <ele>459.7</ele>
        <time>2022-07-25T08:56:14.000Z</time>
        <extensions>
          <gpxtpx:TrackPointExtension xmlns:gpxtpx="http://www.garmin.com/xmlschemas/TrackPointExtension/v1">
            <gpxtpx:hr>128</gpxtpx:hr>
          </gpxtpx:TrackPointExtension>
        </extensions>
      </trkpt>
      <trkpt lat="42.91723" lon="1.89913">
        <ele>459.7</ele>
        <time>2022-07-25T08:56:17.000Z</time>
        <extensions>
          <gpxtpx:TrackPointExtension xmlns:gpxtpx="http://www.garmin.com/xmlschemas/TrackPointExtension/v1">
            <gpxtpx:hr>128</gpxtpx:hr>
          </gpxtpx:TrackPointExtension>
        </extensions>
      </trkpt>
      <trkpt lat="42.91722" lon="1.89906">
        <ele>459.7</ele>
        <time>2022-07-25T08:56:19.000Z</time>
        <extensions>
          <gpxtpx:TrackPointExtension xmlns:gpxtpx="http://www.garmin.com/xmlschemas/TrackPointExtension/v1">
            <gpxtpx:hr>129</gpxtpx:hr>
          </gpxtpx:TrackPointExtension>
        </extensions>
      </trkpt>
      <trkpt lat="42.91721" lon="1.89898">
        <ele>459.8</ele>
        <time>2022-07-25T08:56:21.000Z</time>
        <extensions>
          <gpxtpx:TrackPointExtension xmlns:gpxtpx="http://www.garmin.com/xmlschemas/TrackPointExtension/v1">
            <gpxtpx:hr>129</gpxtpx:hr>
          </gpxtpx:TrackPointExtension>
        </extensions>
      </trkpt>
      <trkpt lat="42.91721" lon="1.89889">
        <ele>459.8</ele>
        <time>2022-07-25T08:56:23.000Z</time>
        <extensions>
          <gpxtpx:TrackPointExtension xmlns:gpxtpx="http://www.garmin.com/xmlschemas/TrackPointExtension/v1">
            <gpxtpx:hr>130</gpxtpx:hr>
          </gpxtpx:TrackPointExtension>
        </extensions>
      </trkpt>
      <trkpt lat="42.9172" lon="1.8988">
        <ele>459.9</ele>
        <time>2022-07-25T08:56:25.000Z</time>
        <extensions>
          <gpxtpx:TrackPointExtension xmlns:gpxtpx="http://www.garmin.com/xmlschemas/TrackPointExtension/v1">
            <gpxtpx:hr>130</gpxtpx:hr>
          </gpxtpx:TrackPointExtension>
        </extensions>
      </trkpt>
      <trkpt lat="42.91719" lon="1.89871">
        <ele>460</ele>
        <time>2022-07-25T08:56:27.000Z</time>
        <extensions>
          <gpxtpx:TrackPointExtension xmlns:gpxtpx="http://www.garmin.com/xmlschemas/TrackPointExtension/v1">
            <gpxtpx:hr>131</gpxtpx:hr>
          </gpxtpx:TrackPointExtension>
        </extensions>
      </trkpt>
      <trkpt lat="42.91718" lon="1.89863">
        <ele>460.1</ele>
        <time>2022-07-25T08:56:29.000Z</time>
        <extensions>
          <gpxtpx:TrackPointExtension xmlns:gpxtpx="http://www.garmin.com/xmlschemas/TrackPointExtension/v1">
            <gpxtpx:hr>132</gpxtpx:hr>
          </gpxtpx:TrackPointExtension>
        </extensions>
      </trkpt>
      <trkpt lat="42.91717" lon="1.89854">
        <ele>460.3</ele>
        <time>2022-07-25T08:56:31.000Z</time>
        <extensions>
          <gpxtpx:TrackPointExtension xmlns:gpxtpx="http://www.garmin.com/xmlschemas/TrackPointExtension/v1">
            <gpxtpx:hr>133</gpxtpx:hr>
          </gpxtpx:TrackPointExtension>
        </extensions>
      </trkpt>
      <trkpt lat="42.91716" lon="1.89843">
        <ele>460.5</ele>
        <time>2022-07-25T08:56:33.000Z</time>
        <extensions>
          <gpxtpx:TrackPointExtension xmlns:gpxtpx="http://www.garmin.com/xmlschemas/TrackPointExtension/v1">
            <gpxtpx:hr>135</gpxtpx:hr>
          </gpxtpx:TrackPointExtension>
        </extensions>
      </trkpt>
      <trkpt lat="42.91715" lon="1.89834">
        <ele>460.6</ele>
        <time>2022-07-25T08:56:35.000Z</time>
        <extensions>
          <gpxtpx:TrackPointExtension xmlns:gpxtpx="http://www.garmin.com/xmlschemas/TrackPointExtension/v1">
            <gpxtpx:hr>136</gpxtpx:hr>
          </gpxtpx:TrackPointExtension>
        </extensions>
      </trkpt>
      <trkpt lat="42.91713" lon="1.89825">
        <ele>460.8</ele>
        <time>2022-07-25T08:56:37.000Z</time>
        <extensions>
          <gpxtpx:TrackPointExtension xmlns:gpxtpx="http://www.garmin.com/xmlschemas/TrackPointExtension/v1">
            <gpxtpx:hr>138</gpxtpx:hr>
          </gpxtpx:TrackPointExtension>
        </extensions>
      </trkpt>
      <trkpt lat="42.91713" lon="1.89816">
        <ele>461</ele>
        <time>2022-07-25T08:56:39.000Z</time>
        <extensions>
          <gpxtpx:TrackPointExtension xmlns:gpxtpx="http://www.garmin.com/xmlschemas/TrackPointExtension/v1">
            <gpxtpx:hr>139</gpxtpx:hr>
          </gpxtpx:TrackPointExtension>
        </extensions>
      </trkpt>
      <trkpt lat="42.91714" lon="1.89808">
        <ele>461.2</ele>
        <time>2022-07-25T08:56:41.000Z</time>
        <extensions>
          <gpxtpx:TrackPointExtension xmlns:gpxtpx="http://www.garmin.com/xmlschemas/TrackPointExtension/v1">
            <gpxtpx:hr>141</gpxtpx:hr>
          </gpxtpx:TrackPointExtension>
        </extensions>
      </trkpt>
      <trkpt lat="42.91712" lon="1.89797">
        <ele>461.4</ele>
        <time>2022-07-25T08:56:43.000Z</time>
        <extensions>
          <gpxtpx:TrackPointExtension xmlns:gpxtpx="http://www.garmin.com/xmlschemas/TrackPointExtension/v1">
            <gpxtpx:hr>142</gpxtpx:hr>
          </gpxtpx:TrackPointExtension>
        </extensions>
      </trkpt>
      <trkpt lat="42.91712" lon="1.89787">
        <ele>461.6</ele>
        <time>2022-07-25T08:56:45.000Z</time>
        <extensions>
          <gpxtpx:TrackPointExtension xmlns:gpxtpx="http://www.garmin.com/xmlschemas/TrackPointExtension/v1">
            <gpxtpx:hr>143</gpxtpx:hr>
          </gpxtpx:TrackPointExtension>
        </extensions>
      </trkpt>
      <trkpt lat="42.91712" lon="1.89779">
        <ele>461.8</ele>
        <time>2022-07-25T08:56:47.000Z</time>
        <extensions>
          <gpxtpx:TrackPointExtension xmlns:gpxtpx="http://www.garmin.com/xmlschemas/TrackPointExtension/v1">
            <gpxtpx:hr>144</gpxtpx:hr>
          </gpxtpx:TrackPointExtension>
        </extensions>
      </trkpt>
      <trkpt lat="42.91712" lon="1.89771">
        <ele>461.9</ele>
        <time>2022-07-25T08:56:49.000Z</time>
        <extensions>
          <gpxtpx:TrackPointExtension xmlns:gpxtpx="http://www.garmin.com/xmlschemas/TrackPointExtension/v1">
            <gpxtpx:hr>144</gpxtpx:hr>
          </gpxtpx:TrackPointExtension>
        </extensions>
      </trkpt>
      <trkpt lat="42.91713" lon="1.89762">
        <ele>462</ele>
        <time>2022-07-25T08:56:51.000Z</time>
        <extensions>
          <gpxtpx:TrackPointExtension xmlns:gpxtpx="http://www.garmin.com/xmlschemas/TrackPointExtension/v1">
            <gpxtpx:hr>145</gpxtpx:hr>
          </gpxtpx:TrackPointExtension>
        </extensions>
      </trkpt>
      <trkpt lat="42.91714" lon="1.89752">
        <ele>462.2</ele>
        <time>2022-07-25T08:56:53.000Z</time>
        <extensions>
          <gpxtpx:TrackPointExtension xmlns:gpxtpx="http://www.garmin.com/xmlschemas/TrackPointExtension/v1">
            <gpxtpx:hr>146</gpxtpx:hr>
          </gpxtpx:TrackPointExtension>
        </extensions>
      </trkpt>
      <trkpt lat="42.91714" lon="1.89741">
        <ele>462.3</ele>
        <time>2022-07-25T08:56:55.000Z</time>
        <extensions>
          <gpxtpx:TrackPointExtension xmlns:gpxtpx="http://www.garmin.com/xmlschemas/TrackPointExtension/v1">
            <gpxtpx:hr>146</gpxtpx:hr>
          </gpxtpx:TrackPointExtension>
        </extensions>
      </trkpt>
      <trkpt lat="42.91715" lon="1.89732">
        <ele>462.5</ele>
        <time>2022-07-25T08:56:57.000Z</time>
        <extensions>
          <gpxtpx:TrackPointExtension xmlns:gpxtpx="http://www.garmin.com/xmlschemas/TrackPointExtension/v1">
            <gpxtpx:hr>147</gpxtpx:hr>
          </gpxtpx:TrackPointExtension>
        </extensions>
      </trkpt>
      <trkpt lat="42.91717" lon="1.89722">
        <ele>462.8</ele>
        <time>2022-07-25T08:56:59.000Z</time>
        <extensions>
          <gpxtpx:TrackPointExtension xmlns:gpxtpx="http://www.garmin.com/xmlschemas/TrackPointExtension/v1">
            <gpxtpx:hr>148</gpxtpx:hr>
          </gpxtpx:TrackPointExtension>
        </extensions>
      </trkpt>
      <trkpt lat="42.9172" lon="1.89712">
        <ele>463</ele>
        <time>2022-07-25T08:57:01.000Z</time>
        <extensions>
          <gpxtpx:TrackPointExtension xmlns:gpxtpx="http://www.garmin.com/xmlschemas/TrackPointExtension/v1">
            <gpxtpx:hr>148</gpxtpx:hr>
          </gpxtpx:TrackPointExtension>
        </extensions>
      </trkpt>
      <trkpt lat="42.91722" lon="1.89703">
        <ele>463.3</ele>
        <time>2022-07-25T08:57:03.000Z</time>
        <extensions>
          <gpxtpx:TrackPointExtension xmlns:gpxtpx="http://www.garmin.com/xmlschemas/TrackPointExtension/v1">
            <gpxtpx:hr>149</gpxtpx:hr>
          </gpxtpx:TrackPointExtension>
        </extensions>
      </trkpt>
      <trkpt lat="42.91725" lon="1.89694">
        <ele>463.6</ele>
        <time>2022-07-25T08:57:05.000Z</time>
        <extensions>
          <gpxtpx:TrackPointExtension xmlns:gpxtpx="http://www.garmin.com/xmlschemas/TrackPointExtension/v1">
            <gpxtpx:hr>150</gpxtpx:hr>
          </gpxtpx:TrackPointExtension>
        </extensions>
      </trkpt>
      <trkpt lat="42.91727" lon="1.89685">
        <ele>463.9</ele>
        <time>2022-07-25T08:57:07.000Z</time>
        <extensions>
          <gpxtpx:TrackPointExtension xmlns:gpxtpx="http://www.garmin.com/xmlschemas/TrackPointExtension/v1">
            <gpxtpx:hr>150</gpxtpx:hr>
          </gpxtpx:TrackPointExtension>
        </extensions>
      </trkpt>
      <trkpt lat="42.91729" lon="1.89677">
        <ele>464.1</ele>
        <time>2022-07-25T08:57:09.000Z</time>
        <extensions>
          <gpxtpx:TrackPointExtension xmlns:gpxtpx="http://www.garmin.com/xmlschemas/TrackPointExtension/v1">
            <gpxtpx:hr>151</gpxtpx:hr>
          </gpxtpx:TrackPointExtension>
        </extensions>
      </trkpt>
      <trkpt lat="42.91732" lon="1.89669">
        <ele>464.3</ele>
        <time>2022-07-25T08:57:11.000Z</time>
        <extensions>
          <gpxtpx:TrackPointExtension xmlns:gpxtpx="http://www.garmin.com/xmlschemas/TrackPointExtension/v1">
            <gpxtpx:hr>152</gpxtpx:hr>
          </gpxtpx:TrackPointExtension>
        </extensions>
      </trkpt>
      <trkpt lat="42.91734" lon="1.89659">
        <ele>464.6</ele>
        <time>2022-07-25T08:57:13.000Z</time>
        <extensions>
          <gpxtpx:TrackPointExtension xmlns:gpxtpx="http://www.garmin.com/xmlschemas/TrackPointExtension/v1">
            <gpxtpx:hr>152</gpxtpx:hr>
          </gpxtpx:TrackPointExtension>
        </extensions>
      </trkpt>
      <trkpt lat="42.91737" lon="1.89651">
        <ele>464.8</ele>
        <time>2022-07-25T08:57:15.000Z</time>
        <extensions>
          <gpxtpx:TrackPointExtension xmlns:gpxtpx="http://www.garmin.com/xmlschemas/TrackPointExtension/v1">
            <gpxtpx:hr>153</gpxtpx:hr>
          </gpxtpx:TrackPointExtension>
        </extensions>
      </trkpt>
      <trkpt lat="42.9174" lon="1.89642">
        <ele>465</ele>
        <time>2022-07-25T08:57:17.000Z</time>
        <extensions>
          <gpxtpx:TrackPointExtension xmlns:gpxtpx="http://www.garmin.com/xmlschemas/TrackPointExtension/v1">
            <gpxtpx:hr>154</gpxtpx:hr>
          </gpxtpx:TrackPointExtension>
        </extensions>
      </trkpt>
      <trkpt lat="42.91742" lon="1.89633">
        <ele>465.2</ele>
        <time>2022-07-25T08:57:19.000Z</time>
        <extensions>
          <gpxtpx:TrackPointExtension xmlns:gpxtpx="http://www.garmin.com/xmlschemas/TrackPointExtension/v1">
            <gpxtpx:hr>154</gpxtpx:hr>
          </gpxtpx:TrackPointExtension>
        </extensions>
      </trkpt>
      <trkpt lat="42.91744" lon="1.89624">
        <ele>465.4</ele>
        <time>2022-07-25T08:57:21.000Z</time>
        <extensions>
          <gpxtpx:TrackPointExtension xmlns:gpxtpx="http://www.garmin.com/xmlschemas/TrackPointExtension/v1">
            <gpxtpx:hr>155</gpxtpx:hr>
          </gpxtpx:TrackPointExtension>
        </extensions>
      </trkpt>
      <trkpt lat="42.91747" lon="1.89615">
        <ele>465.6</ele>
        <time>2022-07-25T08:57:23.000Z</time>
        <extensions>
          <gpxtpx:TrackPointExtension xmlns:gpxtpx="http://www.garmin.com/xmlschemas/TrackPointExtension/v1">
            <gpxtpx:hr>155</gpxtpx:hr>
          </gpxtpx:TrackPointExtension>
        </extensions>
      </trkpt>
      <trkpt lat="42.9175" lon="1.89607">
        <ele>465.8</ele>
        <time>2022-07-25T08:57:25.000Z</time>
        <extensions>
          <gpxtpx:TrackPointExtension xmlns:gpxtpx="http://www.garmin.com/xmlschemas/TrackPointExtension/v1">
            <gpxtpx:hr>156</gpxtpx:hr>
          </gpxtpx:TrackPointExtension>
        </extensions>
      </trkpt>
      <trkpt lat="42.91753" lon="1.89599">
        <ele>466.1</ele>
        <time>2022-07-25T08:57:27.000Z</time>
        <extensions>
          <gpxtpx:TrackPointExtension xmlns:gpxtpx="http://www.garmin.com/xmlschemas/TrackPointExtension/v1">
            <gpxtpx:hr>156</gpxtpx:hr>
          </gpxtpx:TrackPointExtension>
        </extensions>
      </trkpt>
      <trkpt lat="42.91757" lon="1.8959">
        <ele>466.4</ele>
        <time>2022-07-25T08:57:29.000Z</time>
        <extensions>
          <gpxtpx:TrackPointExtension xmlns:gpxtpx="http://www.garmin.com/xmlschemas/TrackPointExtension/v1">
            <gpxtpx:hr>157</gpxtpx:hr>
          </gpxtpx:TrackPointExtension>
        </extensions>
      </trkpt>
      <trkpt lat="42.9176" lon="1.89581">
        <ele>466.6</ele>
        <time>2022-07-25T08:57:31.000Z</time>
        <extensions>
          <gpxtpx:TrackPointExtension xmlns:gpxtpx="http://www.garmin.com/xmlschemas/TrackPointExtension/v1">
            <gpxtpx:hr>157</gpxtpx:hr>
          </gpxtpx:TrackPointExtension>
        </extensions>
      </trkpt>
      <trkpt lat="42.91763" lon="1.89573">
        <ele>466.9</ele>
        <time>2022-07-25T08:57:33.000Z</time>
        <extensions>
          <gpxtpx:TrackPointExtension xmlns:gpxtpx="http://www.garmin.com/xmlschemas/TrackPointExtension/v1">
            <gpxtpx:hr>157</gpxtpx:hr>
          </gpxtpx:TrackPointExtension>
        </extensions>
      </trkpt>
      <trkpt lat="42.91766" lon="1.89567">
        <ele>467.2</ele>
        <time>2022-07-25T08:57:35.000Z</time>
        <extensions>
          <gpxtpx:TrackPointExtension xmlns:gpxtpx="http://www.garmin.com/xmlschemas/TrackPointExtension/v1">
            <gpxtpx:hr>157</gpxtpx:hr>
          </gpxtpx:TrackPointExtension>
        </extensions>
      </trkpt>
      <trkpt lat="42.91769" lon="1.8956">
        <ele>467.5</ele>
        <time>2022-07-25T08:57:37.000Z</time>
        <extensions>
          <gpxtpx:TrackPointExtension xmlns:gpxtpx="http://www.garmin.com/xmlschemas/TrackPointExtension/v1">
            <gpxtpx:hr>157</gpxtpx:hr>
          </gpxtpx:TrackPointExtension>
        </extensions>
      </trkpt>
      <trkpt lat="42.91773" lon="1.89553">
        <ele>467.8</ele>
        <time>2022-07-25T08:57:39.000Z</time>
        <extensions>
          <gpxtpx:TrackPointExtension xmlns:gpxtpx="http://www.garmin.com/xmlschemas/TrackPointExtension/v1">
            <gpxtpx:hr>157</gpxtpx:hr>
          </gpxtpx:TrackPointExtension>
        </extensions>
      </trkpt>
      <trkpt lat="42.91776" lon="1.89546">
        <ele>468.1</ele>
        <time>2022-07-25T08:57:41.000Z</time>
        <extensions>
          <gpxtpx:TrackPointExtension xmlns:gpxtpx="http://www.garmin.com/xmlschemas/TrackPointExtension/v1">
            <gpxtpx:hr>157</gpxtpx:hr>
          </gpxtpx:TrackPointExtension>
        </extensions>
      </trkpt>
      <trkpt lat="42.91778" lon="1.89539">
        <ele>468.3</ele>
        <time>2022-07-25T08:57:43.000Z</time>
        <extensions>
          <gpxtpx:TrackPointExtension xmlns:gpxtpx="http://www.garmin.com/xmlschemas/TrackPointExtension/v1">
            <gpxtpx:hr>157</gpxtpx:hr>
          </gpxtpx:TrackPointExtension>
        </extensions>
      </trkpt>
      <trkpt lat="42.91782" lon="1.89531">
        <ele>468.5</ele>
        <time>2022-07-25T08:57:45.000Z</time>
        <extensions>
          <gpxtpx:TrackPointExtension xmlns:gpxtpx="http://www.garmin.com/xmlschemas/TrackPointExtension/v1">
            <gpxtpx:hr>157</gpxtpx:hr>
          </gpxtpx:TrackPointExtension>
        </extensions>
      </trkpt>
      <trkpt lat="42.91784" lon="1.89523">
        <ele>468.7</ele>
        <time>2022-07-25T08:57:47.000Z</time>
        <extensions>
          <gpxtpx:TrackPointExtension xmlns:gpxtpx="http://www.garmin.com/xmlschemas/TrackPointExtension/v1">
            <gpxtpx:hr>157</gpxtpx:hr>
          </gpxtpx:TrackPointExtension>
        </extensions>
      </trkpt>
      <trkpt lat="42.91787" lon="1.89517">
        <ele>468.9</ele>
        <time>2022-07-25T08:57:49.000Z</time>
        <extensions>
          <gpxtpx:TrackPointExtension xmlns:gpxtpx="http://www.garmin.com/xmlschemas/TrackPointExtension/v1">
            <gpxtpx:hr>157</gpxtpx:hr>
          </gpxtpx:TrackPointExtension>
        </extensions>
      </trkpt>
      <trkpt lat="42.91792" lon="1.8951">
        <ele>469.2</ele>
        <time>2022-07-25T08:57:51.000Z</time>
        <extensions>
          <gpxtpx:TrackPointExtension xmlns:gpxtpx="http://www.garmin.com/xmlschemas/TrackPointExtension/v1">
            <gpxtpx:hr>158</gpxtpx:hr>
          </gpxtpx:TrackPointExtension>
        </extensions>
      </trkpt>
      <trkpt lat="42.91795" lon="1.89502">
        <ele>469.5</ele>
        <time>2022-07-25T08:57:53.000Z</time>
        <extensions>
          <gpxtpx:TrackPointExtension xmlns:gpxtpx="http://www.garmin.com/xmlschemas/TrackPointExtension/v1">
            <gpxtpx:hr>158</gpxtpx:hr>
          </gpxtpx:TrackPointExtension>
        </extensions>
      </trkpt>
      <trkpt lat="42.91798" lon="1.89496">
        <ele>469.7</ele>
        <time>2022-07-25T08:57:55.000Z</time>
        <extensions>
          <gpxtpx:TrackPointExtension xmlns:gpxtpx="http://www.garmin.com/xmlschemas/TrackPointExtension/v1">
            <gpxtpx:hr>158</gpxtpx:hr>
          </gpxtpx:TrackPointExtension>
        </extensions>
      </trkpt>
      <trkpt lat="42.91801" lon="1.89489">
        <ele>470</ele>
        <time>2022-07-25T08:57:57.000Z</time>
        <extensions>
          <gpxtpx:TrackPointExtension xmlns:gpxtpx="http://www.garmin.com/xmlschemas/TrackPointExtension/v1">
            <gpxtpx:hr>158</gpxtpx:hr>
          </gpxtpx:TrackPointExtension>
        </extensions>
      </trkpt>
      <trkpt lat="42.91805" lon="1.89483">
        <ele>470.2</ele>
        <time>2022-07-25T08:57:59.000Z</time>
        <extensions>
          <gpxtpx:TrackPointExtension xmlns:gpxtpx="http://www.garmin.com/xmlschemas/TrackPointExtension/v1">
            <gpxtpx:hr>158</gpxtpx:hr>
          </gpxtpx:TrackPointExtension>
        </extensions>
      </trkpt>
      <trkpt lat="42.91809" lon="1.89477">
        <ele>470.4</ele>
        <time>2022-07-25T08:58:01.000Z</time>
        <extensions>
          <gpxtpx:TrackPointExtension xmlns:gpxtpx="http://www.garmin.com/xmlschemas/TrackPointExtension/v1">
            <gpxtpx:hr>158</gpxtpx:hr>
          </gpxtpx:TrackPointExtension>
        </extensions>
      </trkpt>
      <trkpt lat="42.91813" lon="1.89471">
        <ele>470.6</ele>
        <time>2022-07-25T08:58:03.000Z</time>
        <extensions>
          <gpxtpx:TrackPointExtension xmlns:gpxtpx="http://www.garmin.com/xmlschemas/TrackPointExtension/v1">
            <gpxtpx:hr>158</gpxtpx:hr>
          </gpxtpx:TrackPointExtension>
        </extensions>
      </trkpt>
      <trkpt lat="42.91816" lon="1.89464">
        <ele>470.8</ele>
        <time>2022-07-25T08:58:05.000Z</time>
        <extensions>
          <gpxtpx:TrackPointExtension xmlns:gpxtpx="http://www.garmin.com/xmlschemas/TrackPointExtension/v1">
            <gpxtpx:hr>158</gpxtpx:hr>
          </gpxtpx:TrackPointExtension>
        </extensions>
      </trkpt>
      <trkpt lat="42.91819" lon="1.89458">
        <ele>471</ele>
        <time>2022-07-25T08:58:07.000Z</time>
        <extensions>
          <gpxtpx:TrackPointExtension xmlns:gpxtpx="http://www.garmin.com/xmlschemas/TrackPointExtension/v1">
            <gpxtpx:hr>158</gpxtpx:hr>
          </gpxtpx:TrackPointExtension>
        </extensions>
      </trkpt>
      <trkpt lat="42.91822" lon="1.89451">
        <ele>471.2</ele>
        <time>2022-07-25T08:58:09.000Z</time>
        <extensions>
          <gpxtpx:TrackPointExtension xmlns:gpxtpx="http://www.garmin.com/xmlschemas/TrackPointExtension/v1">
            <gpxtpx:hr>158</gpxtpx:hr>
          </gpxtpx:TrackPointExtension>
        </extensions>
      </trkpt>
      <trkpt lat="42.91826" lon="1.89445">
        <ele>471.4</ele>
        <time>2022-07-25T08:58:11.000Z</time>
        <extensions>
          <gpxtpx:TrackPointExtension xmlns:gpxtpx="http://www.garmin.com/xmlschemas/TrackPointExtension/v1">
            <gpxtpx:hr>158</gpxtpx:hr>
          </gpxtpx:TrackPointExtension>
        </extensions>
      </trkpt>
      <trkpt lat="42.9183" lon="1.89439">
        <ele>471.6</ele>
        <time>2022-07-25T08:58:13.000Z</time>
        <extensions>
          <gpxtpx:TrackPointExtension xmlns:gpxtpx="http://www.garmin.com/xmlschemas/TrackPointExtension/v1">
            <gpxtpx:hr>158</gpxtpx:hr>
          </gpxtpx:TrackPointExtension>
        </extensions>
      </trkpt>
      <trkpt lat="42.91833" lon="1.89432">
        <ele>471.8</ele>
        <time>2022-07-25T08:58:15.000Z</time>
        <extensions>
          <gpxtpx:TrackPointExtension xmlns:gpxtpx="http://www.garmin.com/xmlschemas/TrackPointExtension/v1">
            <gpxtpx:hr>158</gpxtpx:hr>
          </gpxtpx:TrackPointExtension>
        </extensions>
      </trkpt>
      <trkpt lat="42.91837" lon="1.89422">
        <ele>472.1</ele>
        <time>2022-07-25T08:58:17.000Z</time>
        <extensions>
          <gpxtpx:TrackPointExtension xmlns:gpxtpx="http://www.garmin.com/xmlschemas/TrackPointExtension/v1">
            <gpxtpx:hr>158</gpxtpx:hr>
          </gpxtpx:TrackPointExtension>
        </extensions>
      </trkpt>
      <trkpt lat="42.9184" lon="1.89414">
        <ele>472.3</ele>
        <time>2022-07-25T08:58:19.000Z</time>
        <extensions>
          <gpxtpx:TrackPointExtension xmlns:gpxtpx="http://www.garmin.com/xmlschemas/TrackPointExtension/v1">
            <gpxtpx:hr>158</gpxtpx:hr>
          </gpxtpx:TrackPointExtension>
        </extensions>
      </trkpt>
      <trkpt lat="42.91842" lon="1.89408">
        <ele>472.5</ele>
        <time>2022-07-25T08:58:21.000Z</time>
        <extensions>
          <gpxtpx:TrackPointExtension xmlns:gpxtpx="http://www.garmin.com/xmlschemas/TrackPointExtension/v1">
            <gpxtpx:hr>158</gpxtpx:hr>
          </gpxtpx:TrackPointExtension>
        </extensions>
      </trkpt>
      <trkpt lat="42.91845" lon="1.89402">
        <ele>472.7</ele>
        <time>2022-07-25T08:58:23.000Z</time>
        <extensions>
          <gpxtpx:TrackPointExtension xmlns:gpxtpx="http://www.garmin.com/xmlschemas/TrackPointExtension/v1">
            <gpxtpx:hr>158</gpxtpx:hr>
          </gpxtpx:TrackPointExtension>
        </extensions>
      </trkpt>
      <trkpt lat="42.91847" lon="1.89396">
        <ele>472.9</ele>
        <time>2022-07-25T08:58:25.000Z</time>
        <extensions>
          <gpxtpx:TrackPointExtension xmlns:gpxtpx="http://www.garmin.com/xmlschemas/TrackPointExtension/v1">
            <gpxtpx:hr>158</gpxtpx:hr>
          </gpxtpx:TrackPointExtension>
        </extensions>
      </trkpt>
      <trkpt lat="42.91849" lon="1.89389">
        <ele>473</ele>
        <time>2022-07-25T08:58:27.000Z</time>
        <extensions>
          <gpxtpx:TrackPointExtension xmlns:gpxtpx="http://www.garmin.com/xmlschemas/TrackPointExtension/v1">
            <gpxtpx:hr>158</gpxtpx:hr>
          </gpxtpx:TrackPointExtension>
        </extensions>
      </trkpt>
      <trkpt lat="42.91851" lon="1.89383">
        <ele>473.2</ele>
        <time>2022-07-25T08:58:29.000Z</time>
        <extensions>
          <gpxtpx:TrackPointExtension xmlns:gpxtpx="http://www.garmin.com/xmlschemas/TrackPointExtension/v1">
            <gpxtpx:hr>158</gpxtpx:hr>
          </gpxtpx:TrackPointExtension>
        </extensions>
      </trkpt>
      <trkpt lat="42.91853" lon="1.89377">
        <ele>473.4</ele>
        <time>2022-07-25T08:58:31.000Z</time>
        <extensions>
          <gpxtpx:TrackPointExtension xmlns:gpxtpx="http://www.garmin.com/xmlschemas/TrackPointExtension/v1">
            <gpxtpx:hr>158</gpxtpx:hr>
          </gpxtpx:TrackPointExtension>
        </extensions>
      </trkpt>
      <trkpt lat="42.91856" lon="1.89371">
        <ele>473.6</ele>
        <time>2022-07-25T08:58:33.000Z</time>
        <extensions>
          <gpxtpx:TrackPointExtension xmlns:gpxtpx="http://www.garmin.com/xmlschemas/TrackPointExtension/v1">
            <gpxtpx:hr>158</gpxtpx:hr>
          </gpxtpx:TrackPointExtension>
        </extensions>
      </trkpt>
      <trkpt lat="42.91858" lon="1.89364">
        <ele>473.8</ele>
        <time>2022-07-25T08:58:35.000Z</time>
        <extensions>
          <gpxtpx:TrackPointExtension xmlns:gpxtpx="http://www.garmin.com/xmlschemas/TrackPointExtension/v1">
            <gpxtpx:hr>158</gpxtpx:hr>
          </gpxtpx:TrackPointExtension>
        </extensions>
      </trkpt>
      <trkpt lat="42.91859" lon="1.89358">
        <ele>474</ele>
        <time>2022-07-25T08:58:37.000Z</time>
        <extensions>
          <gpxtpx:TrackPointExtension xmlns:gpxtpx="http://www.garmin.com/xmlschemas/TrackPointExtension/v1">
            <gpxtpx:hr>158</gpxtpx:hr>
          </gpxtpx:TrackPointExtension>
        </extensions>
      </trkpt>
      <trkpt lat="42.9186" lon="1.89351">
        <ele>474.2</ele>
        <time>2022-07-25T08:58:39.000Z</time>
        <extensions>
          <gpxtpx:TrackPointExtension xmlns:gpxtpx="http://www.garmin.com/xmlschemas/TrackPointExtension/v1">
            <gpxtpx:hr>158</gpxtpx:hr>
          </gpxtpx:TrackPointExtension>
        </extensions>
      </trkpt>
      <trkpt lat="42.91861" lon="1.89344">
        <ele>474.4</ele>
        <time>2022-07-25T08:58:41.000Z</time>
        <extensions>
          <gpxtpx:TrackPointExtension xmlns:gpxtpx="http://www.garmin.com/xmlschemas/TrackPointExtension/v1">
            <gpxtpx:hr>158</gpxtpx:hr>
          </gpxtpx:TrackPointExtension>
        </extensions>
      </trkpt>
      <trkpt lat="42.91862" lon="1.89336">
        <ele>474.6</ele>
        <time>2022-07-25T08:58:43.000Z</time>
        <extensions>
          <gpxtpx:TrackPointExtension xmlns:gpxtpx="http://www.garmin.com/xmlschemas/TrackPointExtension/v1">
            <gpxtpx:hr>158</gpxtpx:hr>
          </gpxtpx:TrackPointExtension>
        </extensions>
      </trkpt>
      <trkpt lat="42.91862" lon="1.89327">
        <ele>474.8</ele>
        <time>2022-07-25T08:58:45.000Z</time>
        <extensions>
          <gpxtpx:TrackPointExtension xmlns:gpxtpx="http://www.garmin.com/xmlschemas/TrackPointExtension/v1">
            <gpxtpx:hr>158</gpxtpx:hr>
          </gpxtpx:TrackPointExtension>
        </extensions>
      </trkpt>
      <trkpt lat="42.91863" lon="1.8932">
        <ele>475</ele>
        <time>2022-07-25T08:58:47.000Z</time>
        <extensions>
          <gpxtpx:TrackPointExtension xmlns:gpxtpx="http://www.garmin.com/xmlschemas/TrackPointExtension/v1">
            <gpxtpx:hr>158</gpxtpx:hr>
          </gpxtpx:TrackPointExtension>
        </extensions>
      </trkpt>
      <trkpt lat="42.91866" lon="1.89311">
        <ele>475.2</ele>
        <time>2022-07-25T08:58:49.000Z</time>
        <extensions>
          <gpxtpx:TrackPointExtension xmlns:gpxtpx="http://www.garmin.com/xmlschemas/TrackPointExtension/v1">
            <gpxtpx:hr>158</gpxtpx:hr>
          </gpxtpx:TrackPointExtension>
        </extensions>
      </trkpt>
      <trkpt lat="42.91868" lon="1.89303">
        <ele>475.4</ele>
        <time>2022-07-25T08:58:51.000Z</time>
        <extensions>
          <gpxtpx:TrackPointExtension xmlns:gpxtpx="http://www.garmin.com/xmlschemas/TrackPointExtension/v1">
            <gpxtpx:hr>158</gpxtpx:hr>
          </gpxtpx:TrackPointExtension>
        </extensions>
      </trkpt>
      <trkpt lat="42.9187" lon="1.89294">
        <ele>475.5</ele>
        <time>2022-07-25T08:58:53.000Z</time>
        <extensions>
          <gpxtpx:TrackPointExtension xmlns:gpxtpx="http://www.garmin.com/xmlschemas/TrackPointExtension/v1">
            <gpxtpx:hr>158</gpxtpx:hr>
          </gpxtpx:TrackPointExtension>
        </extensions>
      </trkpt>
      <trkpt lat="42.91872" lon="1.89285">
        <ele>475.7</ele>
        <time>2022-07-25T08:58:55.000Z</time>
        <extensions>
          <gpxtpx:TrackPointExtension xmlns:gpxtpx="http://www.garmin.com/xmlschemas/TrackPointExtension/v1">
            <gpxtpx:hr>158</gpxtpx:hr>
          </gpxtpx:TrackPointExtension>
        </extensions>
      </trkpt>
      <trkpt lat="42.91873" lon="1.89277">
        <ele>476</ele>
        <time>2022-07-25T08:58:57.000Z</time>
        <extensions>
          <gpxtpx:TrackPointExtension xmlns:gpxtpx="http://www.garmin.com/xmlschemas/TrackPointExtension/v1">
            <gpxtpx:hr>158</gpxtpx:hr>
          </gpxtpx:TrackPointExtension>
        </extensions>
      </trkpt>
      <trkpt lat="42.91875" lon="1.89269">
        <ele>476.2</ele>
        <time>2022-07-25T08:58:59.000Z</time>
        <extensions>
          <gpxtpx:TrackPointExtension xmlns:gpxtpx="http://www.garmin.com/xmlschemas/TrackPointExtension/v1">
            <gpxtpx:hr>158</gpxtpx:hr>
          </gpxtpx:TrackPointExtension>
        </extensions>
      </trkpt>
      <trkpt lat="42.91876" lon="1.89262">
        <ele>476.4</ele>
        <time>2022-07-25T08:59:01.000Z</time>
        <extensions>
          <gpxtpx:TrackPointExtension xmlns:gpxtpx="http://www.garmin.com/xmlschemas/TrackPointExtension/v1">
            <gpxtpx:hr>158</gpxtpx:hr>
          </gpxtpx:TrackPointExtension>
        </extensions>
      </trkpt>
      <trkpt lat="42.91878" lon="1.89253">
        <ele>476.7</ele>
        <time>2022-07-25T08:59:03.000Z</time>
        <extensions>
          <gpxtpx:TrackPointExtension xmlns:gpxtpx="http://www.garmin.com/xmlschemas/TrackPointExtension/v1">
            <gpxtpx:hr>158</gpxtpx:hr>
          </gpxtpx:TrackPointExtension>
        </extensions>
      </trkpt>
      <trkpt lat="42.9188" lon="1.89244">
        <ele>476.9</ele>
        <time>2022-07-25T08:59:05.000Z</time>
        <extensions>
          <gpxtpx:TrackPointExtension xmlns:gpxtpx="http://www.garmin.com/xmlschemas/TrackPointExtension/v1">
            <gpxtpx:hr>158</gpxtpx:hr>
          </gpxtpx:TrackPointExtension>
        </extensions>
      </trkpt>
      <trkpt lat="42.91883" lon="1.89235">
        <ele>477.1</ele>
        <time>2022-07-25T08:59:07.000Z</time>
        <extensions>
          <gpxtpx:TrackPointExtension xmlns:gpxtpx="http://www.garmin.com/xmlschemas/TrackPointExtension/v1">
            <gpxtpx:hr>157</gpxtpx:hr>
          </gpxtpx:TrackPointExtension>
        </extensions>
      </trkpt>
      <trkpt lat="42.91886" lon="1.89227">
        <ele>477.3</ele>
        <time>2022-07-25T08:59:09.000Z</time>
        <extensions>
          <gpxtpx:TrackPointExtension xmlns:gpxtpx="http://www.garmin.com/xmlschemas/TrackPointExtension/v1">
            <gpxtpx:hr>157</gpxtpx:hr>
          </gpxtpx:TrackPointExtension>
        </extensions>
      </trkpt>
      <trkpt lat="42.91889" lon="1.89219">
        <ele>477.5</ele>
        <time>2022-07-25T08:59:11.000Z</time>
        <extensions>
          <gpxtpx:TrackPointExtension xmlns:gpxtpx="http://www.garmin.com/xmlschemas/TrackPointExtension/v1">
            <gpxtpx:hr>157</gpxtpx:hr>
          </gpxtpx:TrackPointExtension>
        </extensions>
      </trkpt>
      <trkpt lat="42.91893" lon="1.89212">
        <ele>477.8</ele>
        <time>2022-07-25T08:59:13.000Z</time>
        <extensions>
          <gpxtpx:TrackPointExtension xmlns:gpxtpx="http://www.garmin.com/xmlschemas/TrackPointExtension/v1">
            <gpxtpx:hr>157</gpxtpx:hr>
          </gpxtpx:TrackPointExtension>
        </extensions>
      </trkpt>
      <trkpt lat="42.91897" lon="1.89204">
        <ele>478</ele>
        <time>2022-07-25T08:59:15.000Z</time>
        <extensions>
          <gpxtpx:TrackPointExtension xmlns:gpxtpx="http://www.garmin.com/xmlschemas/TrackPointExtension/v1">
            <gpxtpx:hr>157</gpxtpx:hr>
          </gpxtpx:TrackPointExtension>
        </extensions>
      </trkpt>
      <trkpt lat="42.919" lon="1.89198">
        <ele>478.2</ele>
        <time>2022-07-25T08:59:17.000Z</time>
        <extensions>
          <gpxtpx:TrackPointExtension xmlns:gpxtpx="http://www.garmin.com/xmlschemas/TrackPointExtension/v1">
            <gpxtpx:hr>157</gpxtpx:hr>
          </gpxtpx:TrackPointExtension>
        </extensions>
      </trkpt>
      <trkpt lat="42.91903" lon="1.89191">
        <ele>478.4</ele>
        <time>2022-07-25T08:59:19.000Z</time>
        <extensions>
          <gpxtpx:TrackPointExtension xmlns:gpxtpx="http://www.garmin.com/xmlschemas/TrackPointExtension/v1">
            <gpxtpx:hr>157</gpxtpx:hr>
          </gpxtpx:TrackPointExtension>
        </extensions>
      </trkpt>
      <trkpt lat="42.91907" lon="1.89186">
        <ele>478.7</ele>
        <time>2022-07-25T08:59:21.000Z</time>
        <extensions>
          <gpxtpx:TrackPointExtension xmlns:gpxtpx="http://www.garmin.com/xmlschemas/TrackPointExtension/v1">
            <gpxtpx:hr>157</gpxtpx:hr>
          </gpxtpx:TrackPointExtension>
        </extensions>
      </trkpt>
      <trkpt lat="42.9191" lon="1.8918">
        <ele>478.9</ele>
        <time>2022-07-25T08:59:23.000Z</time>
        <extensions>
          <gpxtpx:TrackPointExtension xmlns:gpxtpx="http://www.garmin.com/xmlschemas/TrackPointExtension/v1">
            <gpxtpx:hr>157</gpxtpx:hr>
          </gpxtpx:TrackPointExtension>
        </extensions>
      </trkpt>
      <trkpt lat="42.91913" lon="1.89175">
        <ele>479.2</ele>
        <time>2022-07-25T08:59:25.000Z</time>
        <extensions>
          <gpxtpx:TrackPointExtension xmlns:gpxtpx="http://www.garmin.com/xmlschemas/TrackPointExtension/v1">
            <gpxtpx:hr>157</gpxtpx:hr>
          </gpxtpx:TrackPointExtension>
        </extensions>
      </trkpt>
      <trkpt lat="42.91916" lon="1.8917">
        <ele>479.4</ele>
        <time>2022-07-25T08:59:27.000Z</time>
        <extensions>
          <gpxtpx:TrackPointExtension xmlns:gpxtpx="http://www.garmin.com/xmlschemas/TrackPointExtension/v1">
            <gpxtpx:hr>157</gpxtpx:hr>
          </gpxtpx:TrackPointExtension>
        </extensions>
      </trkpt>
      <trkpt lat="42.91919" lon="1.89165">
        <ele>479.7</ele>
        <time>2022-07-25T08:59:29.000Z</time>
        <extensions>
          <gpxtpx:TrackPointExtension xmlns:gpxtpx="http://www.garmin.com/xmlschemas/TrackPointExtension/v1">
            <gpxtpx:hr>157</gpxtpx:hr>
          </gpxtpx:TrackPointExtension>
        </extensions>
      </trkpt>
      <trkpt lat="42.91921" lon="1.89158">
        <ele>479.9</ele>
        <time>2022-07-25T08:59:31.000Z</time>
        <extensions>
          <gpxtpx:TrackPointExtension xmlns:gpxtpx="http://www.garmin.com/xmlschemas/TrackPointExtension/v1">
            <gpxtpx:hr>157</gpxtpx:hr>
          </gpxtpx:TrackPointExtension>
        </extensions>
      </trkpt>
      <trkpt lat="42.91924" lon="1.89151">
        <ele>480</ele>
        <time>2022-07-25T08:59:33.000Z</time>
        <extensions>
          <gpxtpx:TrackPointExtension xmlns:gpxtpx="http://www.garmin.com/xmlschemas/TrackPointExtension/v1">
            <gpxtpx:hr>157</gpxtpx:hr>
          </gpxtpx:TrackPointExtension>
        </extensions>
      </trkpt>
      <trkpt lat="42.91926" lon="1.89143">
        <ele>480.3</ele>
        <time>2022-07-25T08:59:35.000Z</time>
        <extensions>
          <gpxtpx:TrackPointExtension xmlns:gpxtpx="http://www.garmin.com/xmlschemas/TrackPointExtension/v1">
            <gpxtpx:hr>157</gpxtpx:hr>
          </gpxtpx:TrackPointExtension>
        </extensions>
      </trkpt>
      <trkpt lat="42.91927" lon="1.89136">
        <ele>480.5</ele>
        <time>2022-07-25T08:59:37.000Z</time>
        <extensions>
          <gpxtpx:TrackPointExtension xmlns:gpxtpx="http://www.garmin.com/xmlschemas/TrackPointExtension/v1">
            <gpxtpx:hr>157</gpxtpx:hr>
          </gpxtpx:TrackPointExtension>
        </extensions>
      </trkpt>
      <trkpt lat="42.9193" lon="1.89129">
        <ele>480.7</ele>
        <time>2022-07-25T08:59:39.000Z</time>
        <extensions>
          <gpxtpx:TrackPointExtension xmlns:gpxtpx="http://www.garmin.com/xmlschemas/TrackPointExtension/v1">
            <gpxtpx:hr>157</gpxtpx:hr>
          </gpxtpx:TrackPointExtension>
        </extensions>
      </trkpt>
      <trkpt lat="42.91932" lon="1.89121">
        <ele>480.9</ele>
        <time>2022-07-25T08:59:41.000Z</time>
        <extensions>
          <gpxtpx:TrackPointExtension xmlns:gpxtpx="http://www.garmin.com/xmlschemas/TrackPointExtension/v1">
            <gpxtpx:hr>157</gpxtpx:hr>
          </gpxtpx:TrackPointExtension>
        </extensions>
      </trkpt>
      <trkpt lat="42.91934" lon="1.89112">
        <ele>481</ele>
        <time>2022-07-25T08:59:43.000Z</time>
        <extensions>
          <gpxtpx:TrackPointExtension xmlns:gpxtpx="http://www.garmin.com/xmlschemas/TrackPointExtension/v1">
            <gpxtpx:hr>157</gpxtpx:hr>
          </gpxtpx:TrackPointExtension>
        </extensions>
      </trkpt>
      <trkpt lat="42.91936" lon="1.89104">
        <ele>481.2</ele>
        <time>2022-07-25T08:59:45.000Z</time>
        <extensions>
          <gpxtpx:TrackPointExtension xmlns:gpxtpx="http://www.garmin.com/xmlschemas/TrackPointExtension/v1">
            <gpxtpx:hr>157</gpxtpx:hr>
          </gpxtpx:TrackPointExtension>
        </extensions>
      </trkpt>
      <trkpt lat="42.91937" lon="1.89095">
        <ele>481.4</ele>
        <time>2022-07-25T08:59:47.000Z</time>
        <extensions>
          <gpxtpx:TrackPointExtension xmlns:gpxtpx="http://www.garmin.com/xmlschemas/TrackPointExtension/v1">
            <gpxtpx:hr>157</gpxtpx:hr>
          </gpxtpx:TrackPointExtension>
        </extensions>
      </trkpt>
      <trkpt lat="42.91939" lon="1.89085">
        <ele>481.6</ele>
        <time>2022-07-25T08:59:49.000Z</time>
        <extensions>
          <gpxtpx:TrackPointExtension xmlns:gpxtpx="http://www.garmin.com/xmlschemas/TrackPointExtension/v1">
            <gpxtpx:hr>157</gpxtpx:hr>
          </gpxtpx:TrackPointExtension>
        </extensions>
      </trkpt>
      <trkpt lat="42.91941" lon="1.89077">
        <ele>481.7</ele>
        <time>2022-07-25T08:59:51.000Z</time>
        <extensions>
          <gpxtpx:TrackPointExtension xmlns:gpxtpx="http://www.garmin.com/xmlschemas/TrackPointExtension/v1">
            <gpxtpx:hr>157</gpxtpx:hr>
          </gpxtpx:TrackPointExtension>
        </extensions>
      </trkpt>
      <trkpt lat="42.91943" lon="1.89068">
        <ele>481.9</ele>
        <time>2022-07-25T08:59:53.000Z</time>
        <extensions>
          <gpxtpx:TrackPointExtension xmlns:gpxtpx="http://www.garmin.com/xmlschemas/TrackPointExtension/v1">
            <gpxtpx:hr>157</gpxtpx:hr>
          </gpxtpx:TrackPointExtension>
        </extensions>
      </trkpt>
      <trkpt lat="42.91944" lon="1.89059">
        <ele>482</ele>
        <time>2022-07-25T08:59:55.000Z</time>
        <extensions>
          <gpxtpx:TrackPointExtension xmlns:gpxtpx="http://www.garmin.com/xmlschemas/TrackPointExtension/v1">
            <gpxtpx:hr>157</gpxtpx:hr>
          </gpxtpx:TrackPointExtension>
        </extensions>
      </trkpt>
      <trkpt lat="42.91944" lon="1.8905">
        <ele>482.2</ele>
        <time>2022-07-25T08:59:57.000Z</time>
        <extensions>
          <gpxtpx:TrackPointExtension xmlns:gpxtpx="http://www.garmin.com/xmlschemas/TrackPointExtension/v1">
            <gpxtpx:hr>157</gpxtpx:hr>
          </gpxtpx:TrackPointExtension>
        </extensions>
      </trkpt>
      <trkpt lat="42.91945" lon="1.8904">
        <ele>482.4</ele>
        <time>2022-07-25T08:59:59.000Z</time>
        <extensions>
          <gpxtpx:TrackPointExtension xmlns:gpxtpx="http://www.garmin.com/xmlschemas/TrackPointExtension/v1">
            <gpxtpx:hr>157</gpxtpx:hr>
          </gpxtpx:TrackPointExtension>
        </extensions>
      </trkpt>
      <trkpt lat="42.91946" lon="1.8903">
        <ele>482.6</ele>
        <time>2022-07-25T09:00:01.000Z</time>
        <extensions>
          <gpxtpx:TrackPointExtension xmlns:gpxtpx="http://www.garmin.com/xmlschemas/TrackPointExtension/v1">
            <gpxtpx:hr>157</gpxtpx:hr>
          </gpxtpx:TrackPointExtension>
        </extensions>
      </trkpt>
      <trkpt lat="42.91947" lon="1.89021">
        <ele>482.8</ele>
        <time>2022-07-25T09:00:03.000Z</time>
        <extensions>
          <gpxtpx:TrackPointExtension xmlns:gpxtpx="http://www.garmin.com/xmlschemas/TrackPointExtension/v1">
            <gpxtpx:hr>157</gpxtpx:hr>
          </gpxtpx:TrackPointExtension>
        </extensions>
      </trkpt>
      <trkpt lat="42.91948" lon="1.89013">
        <ele>483</ele>
        <time>2022-07-25T09:00:05.000Z</time>
        <extensions>
          <gpxtpx:TrackPointExtension xmlns:gpxtpx="http://www.garmin.com/xmlschemas/TrackPointExtension/v1">
            <gpxtpx:hr>157</gpxtpx:hr>
          </gpxtpx:TrackPointExtension>
        </extensions>
      </trkpt>
      <trkpt lat="42.91951" lon="1.89004">
        <ele>483.2</ele>
        <time>2022-07-25T09:00:07.000Z</time>
        <extensions>
          <gpxtpx:TrackPointExtension xmlns:gpxtpx="http://www.garmin.com/xmlschemas/TrackPointExtension/v1">
            <gpxtpx:hr>158</gpxtpx:hr>
          </gpxtpx:TrackPointExtension>
        </extensions>
      </trkpt>
      <trkpt lat="42.91952" lon="1.88996">
        <ele>483.4</ele>
        <time>2022-07-25T09:00:09.000Z</time>
        <extensions>
          <gpxtpx:TrackPointExtension xmlns:gpxtpx="http://www.garmin.com/xmlschemas/TrackPointExtension/v1">
            <gpxtpx:hr>158</gpxtpx:hr>
          </gpxtpx:TrackPointExtension>
        </extensions>
      </trkpt>
      <trkpt lat="42.91954" lon="1.88987">
        <ele>483.6</ele>
        <time>2022-07-25T09:00:11.000Z</time>
        <extensions>
          <gpxtpx:TrackPointExtension xmlns:gpxtpx="http://www.garmin.com/xmlschemas/TrackPointExtension/v1">
            <gpxtpx:hr>158</gpxtpx:hr>
          </gpxtpx:TrackPointExtension>
        </extensions>
      </trkpt>
      <trkpt lat="42.91956" lon="1.88977">
        <ele>483.8</ele>
        <time>2022-07-25T09:00:13.000Z</time>
        <extensions>
          <gpxtpx:TrackPointExtension xmlns:gpxtpx="http://www.garmin.com/xmlschemas/TrackPointExtension/v1">
            <gpxtpx:hr>158</gpxtpx:hr>
          </gpxtpx:TrackPointExtension>
        </extensions>
      </trkpt>
      <trkpt lat="42.91958" lon="1.88968">
        <ele>484</ele>
        <time>2022-07-25T09:00:15.000Z</time>
        <extensions>
          <gpxtpx:TrackPointExtension xmlns:gpxtpx="http://www.garmin.com/xmlschemas/TrackPointExtension/v1">
            <gpxtpx:hr>159</gpxtpx:hr>
          </gpxtpx:TrackPointExtension>
        </extensions>
      </trkpt>
      <trkpt lat="42.9196" lon="1.88959">
        <ele>484.2</ele>
        <time>2022-07-25T09:00:17.000Z</time>
        <extensions>
          <gpxtpx:TrackPointExtension xmlns:gpxtpx="http://www.garmin.com/xmlschemas/TrackPointExtension/v1">
            <gpxtpx:hr>159</gpxtpx:hr>
          </gpxtpx:TrackPointExtension>
        </extensions>
      </trkpt>
      <trkpt lat="42.91962" lon="1.88951">
        <ele>484.5</ele>
        <time>2022-07-25T09:00:19.000Z</time>
        <extensions>
          <gpxtpx:TrackPointExtension xmlns:gpxtpx="http://www.garmin.com/xmlschemas/TrackPointExtension/v1">
            <gpxtpx:hr>159</gpxtpx:hr>
          </gpxtpx:TrackPointExtension>
        </extensions>
      </trkpt>
      <trkpt lat="42.91965" lon="1.88942">
        <ele>484.8</ele>
        <time>2022-07-25T09:00:21.000Z</time>
        <extensions>
          <gpxtpx:TrackPointExtension xmlns:gpxtpx="http://www.garmin.com/xmlschemas/TrackPointExtension/v1">
            <gpxtpx:hr>160</gpxtpx:hr>
          </gpxtpx:TrackPointExtension>
        </extensions>
      </trkpt>
      <trkpt lat="42.91967" lon="1.88932">
        <ele>485</ele>
        <time>2022-07-25T09:00:23.000Z</time>
        <extensions>
          <gpxtpx:TrackPointExtension xmlns:gpxtpx="http://www.garmin.com/xmlschemas/TrackPointExtension/v1">
            <gpxtpx:hr>160</gpxtpx:hr>
          </gpxtpx:TrackPointExtension>
        </extensions>
      </trkpt>
      <trkpt lat="42.91969" lon="1.88923">
        <ele>485.3</ele>
        <time>2022-07-25T09:00:25.000Z</time>
        <extensions>
          <gpxtpx:TrackPointExtension xmlns:gpxtpx="http://www.garmin.com/xmlschemas/TrackPointExtension/v1">
            <gpxtpx:hr>160</gpxtpx:hr>
          </gpxtpx:TrackPointExtension>
        </extensions>
      </trkpt>
      <trkpt lat="42.9197" lon="1.88912">
        <ele>485.5</ele>
        <time>2022-07-25T09:00:27.000Z</time>
        <extensions>
          <gpxtpx:TrackPointExtension xmlns:gpxtpx="http://www.garmin.com/xmlschemas/TrackPointExtension/v1">
            <gpxtpx:hr>161</gpxtpx:hr>
          </gpxtpx:TrackPointExtension>
        </extensions>
      </trkpt>
      <trkpt lat="42.91971" lon="1.88903">
        <ele>485.8</ele>
        <time>2022-07-25T09:00:29.000Z</time>
        <extensions>
          <gpxtpx:TrackPointExtension xmlns:gpxtpx="http://www.garmin.com/xmlschemas/TrackPointExtension/v1">
            <gpxtpx:hr>161</gpxtpx:hr>
          </gpxtpx:TrackPointExtension>
        </extensions>
      </trkpt>
      <trkpt lat="42.91972" lon="1.88893">
        <ele>486.1</ele>
        <time>2022-07-25T09:00:31.000Z</time>
        <extensions>
          <gpxtpx:TrackPointExtension xmlns:gpxtpx="http://www.garmin.com/xmlschemas/TrackPointExtension/v1">
            <gpxtpx:hr>161</gpxtpx:hr>
          </gpxtpx:TrackPointExtension>
        </extensions>
      </trkpt>
      <trkpt lat="42.91973" lon="1.88882">
        <ele>486.4</ele>
        <time>2022-07-25T09:00:33.000Z</time>
        <extensions>
          <gpxtpx:TrackPointExtension xmlns:gpxtpx="http://www.garmin.com/xmlschemas/TrackPointExtension/v1">
            <gpxtpx:hr>161</gpxtpx:hr>
          </gpxtpx:TrackPointExtension>
        </extensions>
      </trkpt>
      <trkpt lat="42.91974" lon="1.88872">
        <ele>486.6</ele>
        <time>2022-07-25T09:00:35.000Z</time>
        <extensions>
          <gpxtpx:TrackPointExtension xmlns:gpxtpx="http://www.garmin.com/xmlschemas/TrackPointExtension/v1">
            <gpxtpx:hr>161</gpxtpx:hr>
          </gpxtpx:TrackPointExtension>
        </extensions>
      </trkpt>
      <trkpt lat="42.91975" lon="1.88863">
        <ele>486.8</ele>
        <time>2022-07-25T09:00:37.000Z</time>
        <extensions>
          <gpxtpx:TrackPointExtension xmlns:gpxtpx="http://www.garmin.com/xmlschemas/TrackPointExtension/v1">
            <gpxtpx:hr>161</gpxtpx:hr>
          </gpxtpx:TrackPointExtension>
        </extensions>
      </trkpt>
      <trkpt lat="42.91977" lon="1.88853">
        <ele>487.1</ele>
        <time>2022-07-25T09:00:39.000Z</time>
        <extensions>
          <gpxtpx:TrackPointExtension xmlns:gpxtpx="http://www.garmin.com/xmlschemas/TrackPointExtension/v1">
            <gpxtpx:hr>161</gpxtpx:hr>
          </gpxtpx:TrackPointExtension>
        </extensions>
      </trkpt>
      <trkpt lat="42.91978" lon="1.88843">
        <ele>487.4</ele>
        <time>2022-07-25T09:00:41.000Z</time>
        <extensions>
          <gpxtpx:TrackPointExtension xmlns:gpxtpx="http://www.garmin.com/xmlschemas/TrackPointExtension/v1">
            <gpxtpx:hr>162</gpxtpx:hr>
          </gpxtpx:TrackPointExtension>
        </extensions>
      </trkpt>
      <trkpt lat="42.91981" lon="1.88835">
        <ele>487.6</ele>
        <time>2022-07-25T09:00:43.000Z</time>
        <extensions>
          <gpxtpx:TrackPointExtension xmlns:gpxtpx="http://www.garmin.com/xmlschemas/TrackPointExtension/v1">
            <gpxtpx:hr>162</gpxtpx:hr>
          </gpxtpx:TrackPointExtension>
        </extensions>
      </trkpt>
      <trkpt lat="42.91983" lon="1.88826">
        <ele>487.8</ele>
        <time>2022-07-25T09:00:45.000Z</time>
        <extensions>
          <gpxtpx:TrackPointExtension xmlns:gpxtpx="http://www.garmin.com/xmlschemas/TrackPointExtension/v1">
            <gpxtpx:hr>162</gpxtpx:hr>
          </gpxtpx:TrackPointExtension>
        </extensions>
      </trkpt>
      <trkpt lat="42.91985" lon="1.88816">
        <ele>488.1</ele>
        <time>2022-07-25T09:00:47.000Z</time>
        <extensions>
          <gpxtpx:TrackPointExtension xmlns:gpxtpx="http://www.garmin.com/xmlschemas/TrackPointExtension/v1">
            <gpxtpx:hr>162</gpxtpx:hr>
          </gpxtpx:TrackPointExtension>
        </extensions>
      </trkpt>
      <trkpt lat="42.91988" lon="1.88808">
        <ele>488.3</ele>
        <time>2022-07-25T09:00:49.000Z</time>
        <extensions>
          <gpxtpx:TrackPointExtension xmlns:gpxtpx="http://www.garmin.com/xmlschemas/TrackPointExtension/v1">
            <gpxtpx:hr>162</gpxtpx:hr>
          </gpxtpx:TrackPointExtension>
        </extensions>
      </trkpt>
      <trkpt lat="42.91991" lon="1.88799">
        <ele>488.5</ele>
        <time>2022-07-25T09:00:51.000Z</time>
        <extensions>
          <gpxtpx:TrackPointExtension xmlns:gpxtpx="http://www.garmin.com/xmlschemas/TrackPointExtension/v1">
            <gpxtpx:hr>163</gpxtpx:hr>
          </gpxtpx:TrackPointExtension>
        </extensions>
      </trkpt>
      <trkpt lat="42.91993" lon="1.88789">
        <ele>488.8</ele>
        <time>2022-07-25T09:00:53.000Z</time>
        <extensions>
          <gpxtpx:TrackPointExtension xmlns:gpxtpx="http://www.garmin.com/xmlschemas/TrackPointExtension/v1">
            <gpxtpx:hr>163</gpxtpx:hr>
          </gpxtpx:TrackPointExtension>
        </extensions>
      </trkpt>
      <trkpt lat="42.91995" lon="1.8878">
        <ele>489.1</ele>
        <time>2022-07-25T09:00:55.000Z</time>
        <extensions>
          <gpxtpx:TrackPointExtension xmlns:gpxtpx="http://www.garmin.com/xmlschemas/TrackPointExtension/v1">
            <gpxtpx:hr>163</gpxtpx:hr>
          </gpxtpx:TrackPointExtension>
        </extensions>
      </trkpt>
      <trkpt lat="42.91998" lon="1.88771">
        <ele>489.3</ele>
        <time>2022-07-25T09:00:57.000Z</time>
        <extensions>
          <gpxtpx:TrackPointExtension xmlns:gpxtpx="http://www.garmin.com/xmlschemas/TrackPointExtension/v1">
            <gpxtpx:hr>163</gpxtpx:hr>
          </gpxtpx:TrackPointExtension>
        </extensions>
      </trkpt>
      <trkpt lat="42.92" lon="1.88761">
        <ele>489.6</ele>
        <time>2022-07-25T09:00:59.000Z</time>
        <extensions>
          <gpxtpx:TrackPointExtension xmlns:gpxtpx="http://www.garmin.com/xmlschemas/TrackPointExtension/v1">
            <gpxtpx:hr>163</gpxtpx:hr>
          </gpxtpx:TrackPointExtension>
        </extensions>
      </trkpt>
      <trkpt lat="42.92002" lon="1.88752">
        <ele>489.8</ele>
        <time>2022-07-25T09:01:01.000Z</time>
        <extensions>
          <gpxtpx:TrackPointExtension xmlns:gpxtpx="http://www.garmin.com/xmlschemas/TrackPointExtension/v1">
            <gpxtpx:hr>163</gpxtpx:hr>
          </gpxtpx:TrackPointExtension>
        </extensions>
      </trkpt>
      <trkpt lat="42.92004" lon="1.88744">
        <ele>490.1</ele>
        <time>2022-07-25T09:01:03.000Z</time>
        <extensions>
          <gpxtpx:TrackPointExtension xmlns:gpxtpx="http://www.garmin.com/xmlschemas/TrackPointExtension/v1">
            <gpxtpx:hr>163</gpxtpx:hr>
          </gpxtpx:TrackPointExtension>
        </extensions>
      </trkpt>
      <trkpt lat="42.92007" lon="1.88736">
        <ele>490.3</ele>
        <time>2022-07-25T09:01:05.000Z</time>
        <extensions>
          <gpxtpx:TrackPointExtension xmlns:gpxtpx="http://www.garmin.com/xmlschemas/TrackPointExtension/v1">
            <gpxtpx:hr>163</gpxtpx:hr>
          </gpxtpx:TrackPointExtension>
        </extensions>
      </trkpt>
      <trkpt lat="42.92008" lon="1.88727">
        <ele>490.5</ele>
        <time>2022-07-25T09:01:07.000Z</time>
        <extensions>
          <gpxtpx:TrackPointExtension xmlns:gpxtpx="http://www.garmin.com/xmlschemas/TrackPointExtension/v1">
            <gpxtpx:hr>163</gpxtpx:hr>
          </gpxtpx:TrackPointExtension>
        </extensions>
      </trkpt>
      <trkpt lat="42.9201" lon="1.88718">
        <ele>490.7</ele>
        <time>2022-07-25T09:01:09.000Z</time>
        <extensions>
          <gpxtpx:TrackPointExtension xmlns:gpxtpx="http://www.garmin.com/xmlschemas/TrackPointExtension/v1">
            <gpxtpx:hr>164</gpxtpx:hr>
          </gpxtpx:TrackPointExtension>
        </extensions>
      </trkpt>
      <trkpt lat="42.92011" lon="1.88709">
        <ele>490.9</ele>
        <time>2022-07-25T09:01:11.000Z</time>
        <extensions>
          <gpxtpx:TrackPointExtension xmlns:gpxtpx="http://www.garmin.com/xmlschemas/TrackPointExtension/v1">
            <gpxtpx:hr>164</gpxtpx:hr>
          </gpxtpx:TrackPointExtension>
        </extensions>
      </trkpt>
      <trkpt lat="42.92013" lon="1.88701">
        <ele>491.1</ele>
        <time>2022-07-25T09:01:13.000Z</time>
        <extensions>
          <gpxtpx:TrackPointExtension xmlns:gpxtpx="http://www.garmin.com/xmlschemas/TrackPointExtension/v1">
            <gpxtpx:hr>164</gpxtpx:hr>
          </gpxtpx:TrackPointExtension>
        </extensions>
      </trkpt>
      <trkpt lat="42.92015" lon="1.88692">
        <ele>491.3</ele>
        <time>2022-07-25T09:01:15.000Z</time>
        <extensions>
          <gpxtpx:TrackPointExtension xmlns:gpxtpx="http://www.garmin.com/xmlschemas/TrackPointExtension/v1">
            <gpxtpx:hr>164</gpxtpx:hr>
          </gpxtpx:TrackPointExtension>
        </extensions>
      </trkpt>
      <trkpt lat="42.92016" lon="1.88683">
        <ele>491.5</ele>
        <time>2022-07-25T09:01:17.000Z</time>
        <extensions>
          <gpxtpx:TrackPointExtension xmlns:gpxtpx="http://www.garmin.com/xmlschemas/TrackPointExtension/v1">
            <gpxtpx:hr>164</gpxtpx:hr>
          </gpxtpx:TrackPointExtension>
        </extensions>
      </trkpt>
      <trkpt lat="42.92018" lon="1.88675">
        <ele>491.7</ele>
        <time>2022-07-25T09:01:19.000Z</time>
        <extensions>
          <gpxtpx:TrackPointExtension xmlns:gpxtpx="http://www.garmin.com/xmlschemas/TrackPointExtension/v1">
            <gpxtpx:hr>165</gpxtpx:hr>
          </gpxtpx:TrackPointExtension>
        </extensions>
      </trkpt>
      <trkpt lat="42.92019" lon="1.88665">
        <ele>491.9</ele>
        <time>2022-07-25T09:01:21.000Z</time>
        <extensions>
          <gpxtpx:TrackPointExtension xmlns:gpxtpx="http://www.garmin.com/xmlschemas/TrackPointExtension/v1">
            <gpxtpx:hr>165</gpxtpx:hr>
          </gpxtpx:TrackPointExtension>
        </extensions>
      </trkpt>
      <trkpt lat="42.92021" lon="1.88658">
        <ele>492.1</ele>
        <time>2022-07-25T09:01:23.000Z</time>
        <extensions>
          <gpxtpx:TrackPointExtension xmlns:gpxtpx="http://www.garmin.com/xmlschemas/TrackPointExtension/v1">
            <gpxtpx:hr>165</gpxtpx:hr>
          </gpxtpx:TrackPointExtension>
        </extensions>
      </trkpt>
      <trkpt lat="42.92023" lon="1.8865">
        <ele>492.4</ele>
        <time>2022-07-25T09:01:25.000Z</time>
        <extensions>
          <gpxtpx:TrackPointExtension xmlns:gpxtpx="http://www.garmin.com/xmlschemas/TrackPointExtension/v1">
            <gpxtpx:hr>165</gpxtpx:hr>
          </gpxtpx:TrackPointExtension>
        </extensions>
      </trkpt>
      <trkpt lat="42.92025" lon="1.88642">
        <ele>492.7</ele>
        <time>2022-07-25T09:01:27.000Z</time>
        <extensions>
          <gpxtpx:TrackPointExtension xmlns:gpxtpx="http://www.garmin.com/xmlschemas/TrackPointExtension/v1">
            <gpxtpx:hr>165</gpxtpx:hr>
          </gpxtpx:TrackPointExtension>
        </extensions>
      </trkpt>
      <trkpt lat="42.92026" lon="1.88634">
        <ele>492.9</ele>
        <time>2022-07-25T09:01:29.000Z</time>
        <extensions>
          <gpxtpx:TrackPointExtension xmlns:gpxtpx="http://www.garmin.com/xmlschemas/TrackPointExtension/v1">
            <gpxtpx:hr>165</gpxtpx:hr>
          </gpxtpx:TrackPointExtension>
        </extensions>
      </trkpt>
      <trkpt lat="42.92028" lon="1.88626">
        <ele>493.2</ele>
        <time>2022-07-25T09:01:31.000Z</time>
        <extensions>
          <gpxtpx:TrackPointExtension xmlns:gpxtpx="http://www.garmin.com/xmlschemas/TrackPointExtension/v1">
            <gpxtpx:hr>164</gpxtpx:hr>
          </gpxtpx:TrackPointExtension>
        </extensions>
      </trkpt>
      <trkpt lat="42.92029" lon="1.88618">
        <ele>493.4</ele>
        <time>2022-07-25T09:01:33.000Z</time>
        <extensions>
          <gpxtpx:TrackPointExtension xmlns:gpxtpx="http://www.garmin.com/xmlschemas/TrackPointExtension/v1">
            <gpxtpx:hr>164</gpxtpx:hr>
          </gpxtpx:TrackPointExtension>
        </extensions>
      </trkpt>
      <trkpt lat="42.9203" lon="1.88612">
        <ele>493.7</ele>
        <time>2022-07-25T09:01:35.000Z</time>
        <extensions>
          <gpxtpx:TrackPointExtension xmlns:gpxtpx="http://www.garmin.com/xmlschemas/TrackPointExtension/v1">
            <gpxtpx:hr>164</gpxtpx:hr>
          </gpxtpx:TrackPointExtension>
        </extensions>
      </trkpt>
      <trkpt lat="42.92032" lon="1.88606">
        <ele>493.9</ele>
        <time>2022-07-25T09:01:37.000Z</time>
        <extensions>
          <gpxtpx:TrackPointExtension xmlns:gpxtpx="http://www.garmin.com/xmlschemas/TrackPointExtension/v1">
            <gpxtpx:hr>164</gpxtpx:hr>
          </gpxtpx:TrackPointExtension>
        </extensions>
      </trkpt>
      <trkpt lat="42.92033" lon="1.88598">
        <ele>494.2</ele>
        <time>2022-07-25T09:01:39.000Z</time>
        <extensions>
          <gpxtpx:TrackPointExtension xmlns:gpxtpx="http://www.garmin.com/xmlschemas/TrackPointExtension/v1">
            <gpxtpx:hr>164</gpxtpx:hr>
          </gpxtpx:TrackPointExtension>
        </extensions>
      </trkpt>
      <trkpt lat="42.92035" lon="1.8859">
        <ele>494.4</ele>
        <time>2022-07-25T09:01:41.000Z</time>
        <extensions>
          <gpxtpx:TrackPointExtension xmlns:gpxtpx="http://www.garmin.com/xmlschemas/TrackPointExtension/v1">
            <gpxtpx:hr>164</gpxtpx:hr>
          </gpxtpx:TrackPointExtension>
        </extensions>
      </trkpt>
      <trkpt lat="42.92037" lon="1.88582">
        <ele>494.6</ele>
        <time>2022-07-25T09:01:43.000Z</time>
        <extensions>
          <gpxtpx:TrackPointExtension xmlns:gpxtpx="http://www.garmin.com/xmlschemas/TrackPointExtension/v1">
            <gpxtpx:hr>163</gpxtpx:hr>
          </gpxtpx:TrackPointExtension>
        </extensions>
      </trkpt>
      <trkpt lat="42.92038" lon="1.88573">
        <ele>494.8</ele>
        <time>2022-07-25T09:01:45.000Z</time>
        <extensions>
          <gpxtpx:TrackPointExtension xmlns:gpxtpx="http://www.garmin.com/xmlschemas/TrackPointExtension/v1">
            <gpxtpx:hr>163</gpxtpx:hr>
          </gpxtpx:TrackPointExtension>
        </extensions>
      </trkpt>
      <trkpt lat="42.9204" lon="1.88566">
        <ele>495</ele>
        <time>2022-07-25T09:01:47.000Z</time>
        <extensions>
          <gpxtpx:TrackPointExtension xmlns:gpxtpx="http://www.garmin.com/xmlschemas/TrackPointExtension/v1">
            <gpxtpx:hr>163</gpxtpx:hr>
          </gpxtpx:TrackPointExtension>
        </extensions>
      </trkpt>
      <trkpt lat="42.92042" lon="1.88558">
        <ele>495.2</ele>
        <time>2022-07-25T09:01:49.000Z</time>
        <extensions>
          <gpxtpx:TrackPointExtension xmlns:gpxtpx="http://www.garmin.com/xmlschemas/TrackPointExtension/v1">
            <gpxtpx:hr>163</gpxtpx:hr>
          </gpxtpx:TrackPointExtension>
        </extensions>
      </trkpt>
      <trkpt lat="42.92044" lon="1.8855">
        <ele>495.4</ele>
        <time>2022-07-25T09:01:51.000Z</time>
        <extensions>
          <gpxtpx:TrackPointExtension xmlns:gpxtpx="http://www.garmin.com/xmlschemas/TrackPointExtension/v1">
            <gpxtpx:hr>162</gpxtpx:hr>
          </gpxtpx:TrackPointExtension>
        </extensions>
      </trkpt>
      <trkpt lat="42.92047" lon="1.88543">
        <ele>495.6</ele>
        <time>2022-07-25T09:01:53.000Z</time>
        <extensions>
          <gpxtpx:TrackPointExtension xmlns:gpxtpx="http://www.garmin.com/xmlschemas/TrackPointExtension/v1">
            <gpxtpx:hr>162</gpxtpx:hr>
          </gpxtpx:TrackPointExtension>
        </extensions>
      </trkpt>
      <trkpt lat="42.9205" lon="1.88535">
        <ele>495.7</ele>
        <time>2022-07-25T09:01:55.000Z</time>
        <extensions>
          <gpxtpx:TrackPointExtension xmlns:gpxtpx="http://www.garmin.com/xmlschemas/TrackPointExtension/v1">
            <gpxtpx:hr>162</gpxtpx:hr>
          </gpxtpx:TrackPointExtension>
        </extensions>
      </trkpt>
      <trkpt lat="42.92052" lon="1.88527">
        <ele>495.9</ele>
        <time>2022-07-25T09:01:57.000Z</time>
        <extensions>
          <gpxtpx:TrackPointExtension xmlns:gpxtpx="http://www.garmin.com/xmlschemas/TrackPointExtension/v1">
            <gpxtpx:hr>162</gpxtpx:hr>
          </gpxtpx:TrackPointExtension>
        </extensions>
      </trkpt>
      <trkpt lat="42.92055" lon="1.88519">
        <ele>496</ele>
        <time>2022-07-25T09:01:59.000Z</time>
        <extensions>
          <gpxtpx:TrackPointExtension xmlns:gpxtpx="http://www.garmin.com/xmlschemas/TrackPointExtension/v1">
            <gpxtpx:hr>162</gpxtpx:hr>
          </gpxtpx:TrackPointExtension>
        </extensions>
      </trkpt>
      <trkpt lat="42.92058" lon="1.88512">
        <ele>496.2</ele>
        <time>2022-07-25T09:02:01.000Z</time>
        <extensions>
          <gpxtpx:TrackPointExtension xmlns:gpxtpx="http://www.garmin.com/xmlschemas/TrackPointExtension/v1">
            <gpxtpx:hr>162</gpxtpx:hr>
          </gpxtpx:TrackPointExtension>
        </extensions>
      </trkpt>
      <trkpt lat="42.9206" lon="1.88505">
        <ele>496.3</ele>
        <time>2022-07-25T09:02:03.000Z</time>
        <extensions>
          <gpxtpx:TrackPointExtension xmlns:gpxtpx="http://www.garmin.com/xmlschemas/TrackPointExtension/v1">
            <gpxtpx:hr>162</gpxtpx:hr>
          </gpxtpx:TrackPointExtension>
        </extensions>
      </trkpt>
      <trkpt lat="42.92063" lon="1.88497">
        <ele>496.5</ele>
        <time>2022-07-25T09:02:05.000Z</time>
        <extensions>
          <gpxtpx:TrackPointExtension xmlns:gpxtpx="http://www.garmin.com/xmlschemas/TrackPointExtension/v1">
            <gpxtpx:hr>162</gpxtpx:hr>
          </gpxtpx:TrackPointExtension>
        </extensions>
      </trkpt>
      <trkpt lat="42.92064" lon="1.88488">
        <ele>496.6</ele>
        <time>2022-07-25T09:02:07.000Z</time>
        <extensions>
          <gpxtpx:TrackPointExtension xmlns:gpxtpx="http://www.garmin.com/xmlschemas/TrackPointExtension/v1">
            <gpxtpx:hr>161</gpxtpx:hr>
          </gpxtpx:TrackPointExtension>
        </extensions>
      </trkpt>
      <trkpt lat="42.92066" lon="1.88482">
        <ele>496.8</ele>
        <time>2022-07-25T09:02:09.000Z</time>
        <extensions>
          <gpxtpx:TrackPointExtension xmlns:gpxtpx="http://www.garmin.com/xmlschemas/TrackPointExtension/v1">
            <gpxtpx:hr>161</gpxtpx:hr>
          </gpxtpx:TrackPointExtension>
        </extensions>
      </trkpt>
      <trkpt lat="42.92068" lon="1.88474">
        <ele>496.9</ele>
        <time>2022-07-25T09:02:11.000Z</time>
        <extensions>
          <gpxtpx:TrackPointExtension xmlns:gpxtpx="http://www.garmin.com/xmlschemas/TrackPointExtension/v1">
            <gpxtpx:hr>161</gpxtpx:hr>
          </gpxtpx:TrackPointExtension>
        </extensions>
      </trkpt>
      <trkpt lat="42.9207" lon="1.88467">
        <ele>497.1</ele>
        <time>2022-07-25T09:02:13.000Z</time>
        <extensions>
          <gpxtpx:TrackPointExtension xmlns:gpxtpx="http://www.garmin.com/xmlschemas/TrackPointExtension/v1">
            <gpxtpx:hr>161</gpxtpx:hr>
          </gpxtpx:TrackPointExtension>
        </extensions>
      </trkpt>
      <trkpt lat="42.92073" lon="1.88461">
        <ele>497.3</ele>
        <time>2022-07-25T09:02:15.000Z</time>
        <extensions>
          <gpxtpx:TrackPointExtension xmlns:gpxtpx="http://www.garmin.com/xmlschemas/TrackPointExtension/v1">
            <gpxtpx:hr>161</gpxtpx:hr>
          </gpxtpx:TrackPointExtension>
        </extensions>
      </trkpt>
      <trkpt lat="42.92075" lon="1.88453">
        <ele>497.5</ele>
        <time>2022-07-25T09:02:17.000Z</time>
        <extensions>
          <gpxtpx:TrackPointExtension xmlns:gpxtpx="http://www.garmin.com/xmlschemas/TrackPointExtension/v1">
            <gpxtpx:hr>161</gpxtpx:hr>
          </gpxtpx:TrackPointExtension>
        </extensions>
      </trkpt>
      <trkpt lat="42.92077" lon="1.88445">
        <ele>497.7</ele>
        <time>2022-07-25T09:02:19.000Z</time>
        <extensions>
          <gpxtpx:TrackPointExtension xmlns:gpxtpx="http://www.garmin.com/xmlschemas/TrackPointExtension/v1">
            <gpxtpx:hr>162</gpxtpx:hr>
          </gpxtpx:TrackPointExtension>
        </extensions>
      </trkpt>
      <trkpt lat="42.9208" lon="1.88437">
        <ele>498</ele>
        <time>2022-07-25T09:02:21.000Z</time>
        <extensions>
          <gpxtpx:TrackPointExtension xmlns:gpxtpx="http://www.garmin.com/xmlschemas/TrackPointExtension/v1">
            <gpxtpx:hr>162</gpxtpx:hr>
          </gpxtpx:TrackPointExtension>
        </extensions>
      </trkpt>
      <trkpt lat="42.92081" lon="1.88429">
        <ele>498.2</ele>
        <time>2022-07-25T09:02:23.000Z</time>
        <extensions>
          <gpxtpx:TrackPointExtension xmlns:gpxtpx="http://www.garmin.com/xmlschemas/TrackPointExtension/v1">
            <gpxtpx:hr>162</gpxtpx:hr>
          </gpxtpx:TrackPointExtension>
        </extensions>
      </trkpt>
      <trkpt lat="42.92083" lon="1.88419">
        <ele>498.5</ele>
        <time>2022-07-25T09:02:25.000Z</time>
        <extensions>
          <gpxtpx:TrackPointExtension xmlns:gpxtpx="http://www.garmin.com/xmlschemas/TrackPointExtension/v1">
            <gpxtpx:hr>162</gpxtpx:hr>
          </gpxtpx:TrackPointExtension>
        </extensions>
      </trkpt>
      <trkpt lat="42.92086" lon="1.88409">
        <ele>498.8</ele>
        <time>2022-07-25T09:02:27.000Z</time>
        <extensions>
          <gpxtpx:TrackPointExtension xmlns:gpxtpx="http://www.garmin.com/xmlschemas/TrackPointExtension/v1">
            <gpxtpx:hr>162</gpxtpx:hr>
          </gpxtpx:TrackPointExtension>
        </extensions>
      </trkpt>
      <trkpt lat="42.92088" lon="1.88401">
        <ele>499.1</ele>
        <time>2022-07-25T09:02:29.000Z</time>
        <extensions>
          <gpxtpx:TrackPointExtension xmlns:gpxtpx="http://www.garmin.com/xmlschemas/TrackPointExtension/v1">
            <gpxtpx:hr>162</gpxtpx:hr>
          </gpxtpx:TrackPointExtension>
        </extensions>
      </trkpt>
      <trkpt lat="42.9209" lon="1.88394">
        <ele>499.3</ele>
        <time>2022-07-25T09:02:31.000Z</time>
        <extensions>
          <gpxtpx:TrackPointExtension xmlns:gpxtpx="http://www.garmin.com/xmlschemas/TrackPointExtension/v1">
            <gpxtpx:hr>162</gpxtpx:hr>
          </gpxtpx:TrackPointExtension>
        </extensions>
      </trkpt>
      <trkpt lat="42.92092" lon="1.88385">
        <ele>499.6</ele>
        <time>2022-07-25T09:02:33.000Z</time>
        <extensions>
          <gpxtpx:TrackPointExtension xmlns:gpxtpx="http://www.garmin.com/xmlschemas/TrackPointExtension/v1">
            <gpxtpx:hr>162</gpxtpx:hr>
          </gpxtpx:TrackPointExtension>
        </extensions>
      </trkpt>
      <trkpt lat="42.92094" lon="1.88377">
        <ele>499.8</ele>
        <time>2022-07-25T09:02:35.000Z</time>
        <extensions>
          <gpxtpx:TrackPointExtension xmlns:gpxtpx="http://www.garmin.com/xmlschemas/TrackPointExtension/v1">
            <gpxtpx:hr>162</gpxtpx:hr>
          </gpxtpx:TrackPointExtension>
        </extensions>
      </trkpt>
      <trkpt lat="42.92096" lon="1.88369">
        <ele>500</ele>
        <time>2022-07-25T09:02:37.000Z</time>
        <extensions>
          <gpxtpx:TrackPointExtension xmlns:gpxtpx="http://www.garmin.com/xmlschemas/TrackPointExtension/v1">
            <gpxtpx:hr>162</gpxtpx:hr>
          </gpxtpx:TrackPointExtension>
        </extensions>
      </trkpt>
      <trkpt lat="42.92099" lon="1.88361">
        <ele>500.2</ele>
        <time>2022-07-25T09:02:39.000Z</time>
        <extensions>
          <gpxtpx:TrackPointExtension xmlns:gpxtpx="http://www.garmin.com/xmlschemas/TrackPointExtension/v1">
            <gpxtpx:hr>162</gpxtpx:hr>
          </gpxtpx:TrackPointExtension>
        </extensions>
      </trkpt>
      <trkpt lat="42.92103" lon="1.88353">
        <ele>500.5</ele>
        <time>2022-07-25T09:02:41.000Z</time>
        <extensions>
          <gpxtpx:TrackPointExtension xmlns:gpxtpx="http://www.garmin.com/xmlschemas/TrackPointExtension/v1">
            <gpxtpx:hr>162</gpxtpx:hr>
          </gpxtpx:TrackPointExtension>
        </extensions>
      </trkpt>
      <trkpt lat="42.92105" lon="1.88345">
        <ele>500.7</ele>
        <time>2022-07-25T09:02:43.000Z</time>
        <extensions>
          <gpxtpx:TrackPointExtension xmlns:gpxtpx="http://www.garmin.com/xmlschemas/TrackPointExtension/v1">
            <gpxtpx:hr>162</gpxtpx:hr>
          </gpxtpx:TrackPointExtension>
        </extensions>
      </trkpt>
      <trkpt lat="42.92108" lon="1.88337">
        <ele>501</ele>
        <time>2022-07-25T09:02:45.000Z</time>
        <extensions>
          <gpxtpx:TrackPointExtension xmlns:gpxtpx="http://www.garmin.com/xmlschemas/TrackPointExtension/v1">
            <gpxtpx:hr>162</gpxtpx:hr>
          </gpxtpx:TrackPointExtension>
        </extensions>
      </trkpt>
      <trkpt lat="42.92111" lon="1.88329">
        <ele>501.3</ele>
        <time>2022-07-25T09:02:47.000Z</time>
        <extensions>
          <gpxtpx:TrackPointExtension xmlns:gpxtpx="http://www.garmin.com/xmlschemas/TrackPointExtension/v1">
            <gpxtpx:hr>163</gpxtpx:hr>
          </gpxtpx:TrackPointExtension>
        </extensions>
      </trkpt>
      <trkpt lat="42.92114" lon="1.88322">
        <ele>501.6</ele>
        <time>2022-07-25T09:02:49.000Z</time>
        <extensions>
          <gpxtpx:TrackPointExtension xmlns:gpxtpx="http://www.garmin.com/xmlschemas/TrackPointExtension/v1">
            <gpxtpx:hr>163</gpxtpx:hr>
          </gpxtpx:TrackPointExtension>
        </extensions>
      </trkpt>
      <trkpt lat="42.92117" lon="1.88315">
        <ele>501.8</ele>
        <time>2022-07-25T09:02:51.000Z</time>
        <extensions>
          <gpxtpx:TrackPointExtension xmlns:gpxtpx="http://www.garmin.com/xmlschemas/TrackPointExtension/v1">
            <gpxtpx:hr>163</gpxtpx:hr>
          </gpxtpx:TrackPointExtension>
        </extensions>
      </trkpt>
      <trkpt lat="42.9212" lon="1.88309">
        <ele>502</ele>
        <time>2022-07-25T09:02:53.000Z</time>
        <extensions>
          <gpxtpx:TrackPointExtension xmlns:gpxtpx="http://www.garmin.com/xmlschemas/TrackPointExtension/v1">
            <gpxtpx:hr>163</gpxtpx:hr>
          </gpxtpx:TrackPointExtension>
        </extensions>
      </trkpt>
      <trkpt lat="42.92125" lon="1.88301">
        <ele>502.2</ele>
        <time>2022-07-25T09:02:55.000Z</time>
        <extensions>
          <gpxtpx:TrackPointExtension xmlns:gpxtpx="http://www.garmin.com/xmlschemas/TrackPointExtension/v1">
            <gpxtpx:hr>163</gpxtpx:hr>
          </gpxtpx:TrackPointExtension>
        </extensions>
      </trkpt>
      <trkpt lat="42.92127" lon="1.88292">
        <ele>502.4</ele>
        <time>2022-07-25T09:02:57.000Z</time>
        <extensions>
          <gpxtpx:TrackPointExtension xmlns:gpxtpx="http://www.garmin.com/xmlschemas/TrackPointExtension/v1">
            <gpxtpx:hr>163</gpxtpx:hr>
          </gpxtpx:TrackPointExtension>
        </extensions>
      </trkpt>
      <trkpt lat="42.9213" lon="1.88284">
        <ele>502.6</ele>
        <time>2022-07-25T09:02:59.000Z</time>
        <extensions>
          <gpxtpx:TrackPointExtension xmlns:gpxtpx="http://www.garmin.com/xmlschemas/TrackPointExtension/v1">
            <gpxtpx:hr>163</gpxtpx:hr>
          </gpxtpx:TrackPointExtension>
        </extensions>
      </trkpt>
      <trkpt lat="42.92133" lon="1.88277">
        <ele>502.8</ele>
        <time>2022-07-25T09:03:01.000Z</time>
        <extensions>
          <gpxtpx:TrackPointExtension xmlns:gpxtpx="http://www.garmin.com/xmlschemas/TrackPointExtension/v1">
            <gpxtpx:hr>163</gpxtpx:hr>
          </gpxtpx:TrackPointExtension>
        </extensions>
      </trkpt>
      <trkpt lat="42.92138" lon="1.88269">
        <ele>503</ele>
        <time>2022-07-25T09:03:03.000Z</time>
        <extensions>
          <gpxtpx:TrackPointExtension xmlns:gpxtpx="http://www.garmin.com/xmlschemas/TrackPointExtension/v1">
            <gpxtpx:hr>163</gpxtpx:hr>
          </gpxtpx:TrackPointExtension>
        </extensions>
      </trkpt>
      <trkpt lat="42.92142" lon="1.88262">
        <ele>503.2</ele>
        <time>2022-07-25T09:03:05.000Z</time>
        <extensions>
          <gpxtpx:TrackPointExtension xmlns:gpxtpx="http://www.garmin.com/xmlschemas/TrackPointExtension/v1">
            <gpxtpx:hr>162</gpxtpx:hr>
          </gpxtpx:TrackPointExtension>
        </extensions>
      </trkpt>
      <trkpt lat="42.92146" lon="1.88255">
        <ele>503.4</ele>
        <time>2022-07-25T09:03:07.000Z</time>
        <extensions>
          <gpxtpx:TrackPointExtension xmlns:gpxtpx="http://www.garmin.com/xmlschemas/TrackPointExtension/v1">
            <gpxtpx:hr>162</gpxtpx:hr>
          </gpxtpx:TrackPointExtension>
        </extensions>
      </trkpt>
      <trkpt lat="42.9215" lon="1.88248">
        <ele>503.6</ele>
        <time>2022-07-25T09:03:09.000Z</time>
        <extensions>
          <gpxtpx:TrackPointExtension xmlns:gpxtpx="http://www.garmin.com/xmlschemas/TrackPointExtension/v1">
            <gpxtpx:hr>162</gpxtpx:hr>
          </gpxtpx:TrackPointExtension>
        </extensions>
      </trkpt>
      <trkpt lat="42.92154" lon="1.88242">
        <ele>503.8</ele>
        <time>2022-07-25T09:03:11.000Z</time>
        <extensions>
          <gpxtpx:TrackPointExtension xmlns:gpxtpx="http://www.garmin.com/xmlschemas/TrackPointExtension/v1">
            <gpxtpx:hr>162</gpxtpx:hr>
          </gpxtpx:TrackPointExtension>
        </extensions>
      </trkpt>
      <trkpt lat="42.92157" lon="1.88235">
        <ele>503.9</ele>
        <time>2022-07-25T09:03:13.000Z</time>
        <extensions>
          <gpxtpx:TrackPointExtension xmlns:gpxtpx="http://www.garmin.com/xmlschemas/TrackPointExtension/v1">
            <gpxtpx:hr>162</gpxtpx:hr>
          </gpxtpx:TrackPointExtension>
        </extensions>
      </trkpt>
      <trkpt lat="42.9216" lon="1.88229">
        <ele>504.1</ele>
        <time>2022-07-25T09:03:15.000Z</time>
        <extensions>
          <gpxtpx:TrackPointExtension xmlns:gpxtpx="http://www.garmin.com/xmlschemas/TrackPointExtension/v1">
            <gpxtpx:hr>162</gpxtpx:hr>
          </gpxtpx:TrackPointExtension>
        </extensions>
      </trkpt>
      <trkpt lat="42.92162" lon="1.88223">
        <ele>504.3</ele>
        <time>2022-07-25T09:03:17.000Z</time>
        <extensions>
          <gpxtpx:TrackPointExtension xmlns:gpxtpx="http://www.garmin.com/xmlschemas/TrackPointExtension/v1">
            <gpxtpx:hr>162</gpxtpx:hr>
          </gpxtpx:TrackPointExtension>
        </extensions>
      </trkpt>
      <trkpt lat="42.92164" lon="1.88216">
        <ele>504.6</ele>
        <time>2022-07-25T09:03:19.000Z</time>
        <extensions>
          <gpxtpx:TrackPointExtension xmlns:gpxtpx="http://www.garmin.com/xmlschemas/TrackPointExtension/v1">
            <gpxtpx:hr>163</gpxtpx:hr>
          </gpxtpx:TrackPointExtension>
        </extensions>
      </trkpt>
      <trkpt lat="42.92166" lon="1.88209">
        <ele>504.8</ele>
        <time>2022-07-25T09:03:21.000Z</time>
        <extensions>
          <gpxtpx:TrackPointExtension xmlns:gpxtpx="http://www.garmin.com/xmlschemas/TrackPointExtension/v1">
            <gpxtpx:hr>163</gpxtpx:hr>
          </gpxtpx:TrackPointExtension>
        </extensions>
      </trkpt>
      <trkpt lat="42.92168" lon="1.88201">
        <ele>505.1</ele>
        <time>2022-07-25T09:03:23.000Z</time>
        <extensions>
          <gpxtpx:TrackPointExtension xmlns:gpxtpx="http://www.garmin.com/xmlschemas/TrackPointExtension/v1">
            <gpxtpx:hr>163</gpxtpx:hr>
          </gpxtpx:TrackPointExtension>
        </extensions>
      </trkpt>
      <trkpt lat="42.9217" lon="1.88192">
        <ele>505.4</ele>
        <time>2022-07-25T09:03:25.000Z</time>
        <extensions>
          <gpxtpx:TrackPointExtension xmlns:gpxtpx="http://www.garmin.com/xmlschemas/TrackPointExtension/v1">
            <gpxtpx:hr>163</gpxtpx:hr>
          </gpxtpx:TrackPointExtension>
        </extensions>
      </trkpt>
      <trkpt lat="42.9217" lon="1.88183">
        <ele>505.7</ele>
        <time>2022-07-25T09:03:27.000Z</time>
        <extensions>
          <gpxtpx:TrackPointExtension xmlns:gpxtpx="http://www.garmin.com/xmlschemas/TrackPointExtension/v1">
            <gpxtpx:hr>163</gpxtpx:hr>
          </gpxtpx:TrackPointExtension>
        </extensions>
      </trkpt>
      <trkpt lat="42.92172" lon="1.88175">
        <ele>505.9</ele>
        <time>2022-07-25T09:03:29.000Z</time>
        <extensions>
          <gpxtpx:TrackPointExtension xmlns:gpxtpx="http://www.garmin.com/xmlschemas/TrackPointExtension/v1">
            <gpxtpx:hr>163</gpxtpx:hr>
          </gpxtpx:TrackPointExtension>
        </extensions>
      </trkpt>
      <trkpt lat="42.92172" lon="1.88166">
        <ele>506.1</ele>
        <time>2022-07-25T09:03:31.000Z</time>
        <extensions>
          <gpxtpx:TrackPointExtension xmlns:gpxtpx="http://www.garmin.com/xmlschemas/TrackPointExtension/v1">
            <gpxtpx:hr>163</gpxtpx:hr>
          </gpxtpx:TrackPointExtension>
        </extensions>
      </trkpt>
      <trkpt lat="42.92172" lon="1.88158">
        <ele>506.3</ele>
        <time>2022-07-25T09:03:33.000Z</time>
        <extensions>
          <gpxtpx:TrackPointExtension xmlns:gpxtpx="http://www.garmin.com/xmlschemas/TrackPointExtension/v1">
            <gpxtpx:hr>163</gpxtpx:hr>
          </gpxtpx:TrackPointExtension>
        </extensions>
      </trkpt>
      <trkpt lat="42.92172" lon="1.88149">
        <ele>506.6</ele>
        <time>2022-07-25T09:03:35.000Z</time>
        <extensions>
          <gpxtpx:TrackPointExtension xmlns:gpxtpx="http://www.garmin.com/xmlschemas/TrackPointExtension/v1">
            <gpxtpx:hr>163</gpxtpx:hr>
          </gpxtpx:TrackPointExtension>
        </extensions>
      </trkpt>
      <trkpt lat="42.92173" lon="1.88141">
        <ele>506.8</ele>
        <time>2022-07-25T09:03:37.000Z</time>
        <extensions>
          <gpxtpx:TrackPointExtension xmlns:gpxtpx="http://www.garmin.com/xmlschemas/TrackPointExtension/v1">
            <gpxtpx:hr>163</gpxtpx:hr>
          </gpxtpx:TrackPointExtension>
        </extensions>
      </trkpt>
      <trkpt lat="42.92173" lon="1.88132">
        <ele>507</ele>
        <time>2022-07-25T09:03:39.000Z</time>
        <extensions>
          <gpxtpx:TrackPointExtension xmlns:gpxtpx="http://www.garmin.com/xmlschemas/TrackPointExtension/v1">
            <gpxtpx:hr>163</gpxtpx:hr>
          </gpxtpx:TrackPointExtension>
        </extensions>
      </trkpt>
      <trkpt lat="42.92174" lon="1.88124">
        <ele>507.3</ele>
        <time>2022-07-25T09:03:41.000Z</time>
        <extensions>
          <gpxtpx:TrackPointExtension xmlns:gpxtpx="http://www.garmin.com/xmlschemas/TrackPointExtension/v1">
            <gpxtpx:hr>163</gpxtpx:hr>
          </gpxtpx:TrackPointExtension>
        </extensions>
      </trkpt>
      <trkpt lat="42.92174" lon="1.88115">
        <ele>507.5</ele>
        <time>2022-07-25T09:03:43.000Z</time>
        <extensions>
          <gpxtpx:TrackPointExtension xmlns:gpxtpx="http://www.garmin.com/xmlschemas/TrackPointExtension/v1">
            <gpxtpx:hr>164</gpxtpx:hr>
          </gpxtpx:TrackPointExtension>
        </extensions>
      </trkpt>
      <trkpt lat="42.92174" lon="1.88106">
        <ele>507.7</ele>
        <time>2022-07-25T09:03:45.000Z</time>
        <extensions>
          <gpxtpx:TrackPointExtension xmlns:gpxtpx="http://www.garmin.com/xmlschemas/TrackPointExtension/v1">
            <gpxtpx:hr>164</gpxtpx:hr>
          </gpxtpx:TrackPointExtension>
        </extensions>
      </trkpt>
      <trkpt lat="42.92175" lon="1.88098">
        <ele>507.9</ele>
        <time>2022-07-25T09:03:47.000Z</time>
        <extensions>
          <gpxtpx:TrackPointExtension xmlns:gpxtpx="http://www.garmin.com/xmlschemas/TrackPointExtension/v1">
            <gpxtpx:hr>164</gpxtpx:hr>
          </gpxtpx:TrackPointExtension>
        </extensions>
      </trkpt>
      <trkpt lat="42.92176" lon="1.8809">
        <ele>508.1</ele>
        <time>2022-07-25T09:03:49.000Z</time>
        <extensions>
          <gpxtpx:TrackPointExtension xmlns:gpxtpx="http://www.garmin.com/xmlschemas/TrackPointExtension/v1">
            <gpxtpx:hr>164</gpxtpx:hr>
          </gpxtpx:TrackPointExtension>
        </extensions>
      </trkpt>
      <trkpt lat="42.92177" lon="1.88082">
        <ele>508.3</ele>
        <time>2022-07-25T09:03:51.000Z</time>
        <extensions>
          <gpxtpx:TrackPointExtension xmlns:gpxtpx="http://www.garmin.com/xmlschemas/TrackPointExtension/v1">
            <gpxtpx:hr>164</gpxtpx:hr>
          </gpxtpx:TrackPointExtension>
        </extensions>
      </trkpt>
      <trkpt lat="42.92179" lon="1.88074">
        <ele>508.5</ele>
        <time>2022-07-25T09:03:53.000Z</time>
        <extensions>
          <gpxtpx:TrackPointExtension xmlns:gpxtpx="http://www.garmin.com/xmlschemas/TrackPointExtension/v1">
            <gpxtpx:hr>165</gpxtpx:hr>
          </gpxtpx:TrackPointExtension>
        </extensions>
      </trkpt>
      <trkpt lat="42.92181" lon="1.88064">
        <ele>508.7</ele>
        <time>2022-07-25T09:03:55.000Z</time>
        <extensions>
          <gpxtpx:TrackPointExtension xmlns:gpxtpx="http://www.garmin.com/xmlschemas/TrackPointExtension/v1">
            <gpxtpx:hr>165</gpxtpx:hr>
          </gpxtpx:TrackPointExtension>
        </extensions>
      </trkpt>
      <trkpt lat="42.92183" lon="1.88054">
        <ele>508.9</ele>
        <time>2022-07-25T09:03:57.000Z</time>
        <extensions>
          <gpxtpx:TrackPointExtension xmlns:gpxtpx="http://www.garmin.com/xmlschemas/TrackPointExtension/v1">
            <gpxtpx:hr>165</gpxtpx:hr>
          </gpxtpx:TrackPointExtension>
        </extensions>
      </trkpt>
      <trkpt lat="42.92186" lon="1.88044">
        <ele>509.1</ele>
        <time>2022-07-25T09:03:59.000Z</time>
        <extensions>
          <gpxtpx:TrackPointExtension xmlns:gpxtpx="http://www.garmin.com/xmlschemas/TrackPointExtension/v1">
            <gpxtpx:hr>165</gpxtpx:hr>
          </gpxtpx:TrackPointExtension>
        </extensions>
      </trkpt>
      <trkpt lat="42.92189" lon="1.88036">
        <ele>509.3</ele>
        <time>2022-07-25T09:04:01.000Z</time>
        <extensions>
          <gpxtpx:TrackPointExtension xmlns:gpxtpx="http://www.garmin.com/xmlschemas/TrackPointExtension/v1">
            <gpxtpx:hr>165</gpxtpx:hr>
          </gpxtpx:TrackPointExtension>
        </extensions>
      </trkpt>
      <trkpt lat="42.92191" lon="1.88027">
        <ele>509.5</ele>
        <time>2022-07-25T09:04:03.000Z</time>
        <extensions>
          <gpxtpx:TrackPointExtension xmlns:gpxtpx="http://www.garmin.com/xmlschemas/TrackPointExtension/v1">
            <gpxtpx:hr>165</gpxtpx:hr>
          </gpxtpx:TrackPointExtension>
        </extensions>
      </trkpt>
      <trkpt lat="42.92194" lon="1.88018">
        <ele>509.7</ele>
        <time>2022-07-25T09:04:05.000Z</time>
        <extensions>
          <gpxtpx:TrackPointExtension xmlns:gpxtpx="http://www.garmin.com/xmlschemas/TrackPointExtension/v1">
            <gpxtpx:hr>165</gpxtpx:hr>
          </gpxtpx:TrackPointExtension>
        </extensions>
      </trkpt>
      <trkpt lat="42.92197" lon="1.88008">
        <ele>509.9</ele>
        <time>2022-07-25T09:04:07.000Z</time>
        <extensions>
          <gpxtpx:TrackPointExtension xmlns:gpxtpx="http://www.garmin.com/xmlschemas/TrackPointExtension/v1">
            <gpxtpx:hr>165</gpxtpx:hr>
          </gpxtpx:TrackPointExtension>
        </extensions>
      </trkpt>
      <trkpt lat="42.922" lon="1.87999">
        <ele>510.1</ele>
        <time>2022-07-25T09:04:09.000Z</time>
        <extensions>
          <gpxtpx:TrackPointExtension xmlns:gpxtpx="http://www.garmin.com/xmlschemas/TrackPointExtension/v1">
            <gpxtpx:hr>165</gpxtpx:hr>
          </gpxtpx:TrackPointExtension>
        </extensions>
      </trkpt>
      <trkpt lat="42.92202" lon="1.8799">
        <ele>510.3</ele>
        <time>2022-07-25T09:04:11.000Z</time>
        <extensions>
          <gpxtpx:TrackPointExtension xmlns:gpxtpx="http://www.garmin.com/xmlschemas/TrackPointExtension/v1">
            <gpxtpx:hr>165</gpxtpx:hr>
          </gpxtpx:TrackPointExtension>
        </extensions>
      </trkpt>
      <trkpt lat="42.92205" lon="1.87981">
        <ele>510.5</ele>
        <time>2022-07-25T09:04:13.000Z</time>
        <extensions>
          <gpxtpx:TrackPointExtension xmlns:gpxtpx="http://www.garmin.com/xmlschemas/TrackPointExtension/v1">
            <gpxtpx:hr>165</gpxtpx:hr>
          </gpxtpx:TrackPointExtension>
        </extensions>
      </trkpt>
      <trkpt lat="42.92208" lon="1.87972">
        <ele>510.7</ele>
        <time>2022-07-25T09:04:15.000Z</time>
        <extensions>
          <gpxtpx:TrackPointExtension xmlns:gpxtpx="http://www.garmin.com/xmlschemas/TrackPointExtension/v1">
            <gpxtpx:hr>166</gpxtpx:hr>
          </gpxtpx:TrackPointExtension>
        </extensions>
      </trkpt>
      <trkpt lat="42.92211" lon="1.87963">
        <ele>510.9</ele>
        <time>2022-07-25T09:04:17.000Z</time>
        <extensions>
          <gpxtpx:TrackPointExtension xmlns:gpxtpx="http://www.garmin.com/xmlschemas/TrackPointExtension/v1">
            <gpxtpx:hr>166</gpxtpx:hr>
          </gpxtpx:TrackPointExtension>
        </extensions>
      </trkpt>
      <trkpt lat="42.92213" lon="1.87953">
        <ele>511.1</ele>
        <time>2022-07-25T09:04:19.000Z</time>
        <extensions>
          <gpxtpx:TrackPointExtension xmlns:gpxtpx="http://www.garmin.com/xmlschemas/TrackPointExtension/v1">
            <gpxtpx:hr>166</gpxtpx:hr>
          </gpxtpx:TrackPointExtension>
        </extensions>
      </trkpt>
      <trkpt lat="42.92216" lon="1.87944">
        <ele>511.4</ele>
        <time>2022-07-25T09:04:21.000Z</time>
        <extensions>
          <gpxtpx:TrackPointExtension xmlns:gpxtpx="http://www.garmin.com/xmlschemas/TrackPointExtension/v1">
            <gpxtpx:hr>166</gpxtpx:hr>
          </gpxtpx:TrackPointExtension>
        </extensions>
      </trkpt>
      <trkpt lat="42.92218" lon="1.87935">
        <ele>511.6</ele>
        <time>2022-07-25T09:04:23.000Z</time>
        <extensions>
          <gpxtpx:TrackPointExtension xmlns:gpxtpx="http://www.garmin.com/xmlschemas/TrackPointExtension/v1">
            <gpxtpx:hr>166</gpxtpx:hr>
          </gpxtpx:TrackPointExtension>
        </extensions>
      </trkpt>
      <trkpt lat="42.92221" lon="1.87925">
        <ele>511.8</ele>
        <time>2022-07-25T09:04:25.000Z</time>
        <extensions>
          <gpxtpx:TrackPointExtension xmlns:gpxtpx="http://www.garmin.com/xmlschemas/TrackPointExtension/v1">
            <gpxtpx:hr>166</gpxtpx:hr>
          </gpxtpx:TrackPointExtension>
        </extensions>
      </trkpt>
      <trkpt lat="42.92224" lon="1.87915">
        <ele>512</ele>
        <time>2022-07-25T09:04:27.000Z</time>
        <extensions>
          <gpxtpx:TrackPointExtension xmlns:gpxtpx="http://www.garmin.com/xmlschemas/TrackPointExtension/v1">
            <gpxtpx:hr>166</gpxtpx:hr>
          </gpxtpx:TrackPointExtension>
        </extensions>
      </trkpt>
      <trkpt lat="42.92226" lon="1.87906">
        <ele>512.3</ele>
        <time>2022-07-25T09:04:29.000Z</time>
        <extensions>
          <gpxtpx:TrackPointExtension xmlns:gpxtpx="http://www.garmin.com/xmlschemas/TrackPointExtension/v1">
            <gpxtpx:hr>166</gpxtpx:hr>
          </gpxtpx:TrackPointExtension>
        </extensions>
      </trkpt>
      <trkpt lat="42.92229" lon="1.87897">
        <ele>512.6</ele>
        <time>2022-07-25T09:04:31.000Z</time>
        <extensions>
          <gpxtpx:TrackPointExtension xmlns:gpxtpx="http://www.garmin.com/xmlschemas/TrackPointExtension/v1">
            <gpxtpx:hr>166</gpxtpx:hr>
          </gpxtpx:TrackPointExtension>
        </extensions>
      </trkpt>
      <trkpt lat="42.92231" lon="1.87888">
        <ele>512.9</ele>
        <time>2022-07-25T09:04:33.000Z</time>
        <extensions>
          <gpxtpx:TrackPointExtension xmlns:gpxtpx="http://www.garmin.com/xmlschemas/TrackPointExtension/v1">
            <gpxtpx:hr>166</gpxtpx:hr>
          </gpxtpx:TrackPointExtension>
        </extensions>
      </trkpt>
      <trkpt lat="42.92233" lon="1.8788">
        <ele>513.1</ele>
        <time>2022-07-25T09:04:35.000Z</time>
        <extensions>
          <gpxtpx:TrackPointExtension xmlns:gpxtpx="http://www.garmin.com/xmlschemas/TrackPointExtension/v1">
            <gpxtpx:hr>166</gpxtpx:hr>
          </gpxtpx:TrackPointExtension>
        </extensions>
      </trkpt>
      <trkpt lat="42.92236" lon="1.8787">
        <ele>513.3</ele>
        <time>2022-07-25T09:04:37.000Z</time>
        <extensions>
          <gpxtpx:TrackPointExtension xmlns:gpxtpx="http://www.garmin.com/xmlschemas/TrackPointExtension/v1">
            <gpxtpx:hr>167</gpxtpx:hr>
          </gpxtpx:TrackPointExtension>
        </extensions>
      </trkpt>
      <trkpt lat="42.92238" lon="1.87861">
        <ele>513.5</ele>
        <time>2022-07-25T09:04:39.000Z</time>
        <extensions>
          <gpxtpx:TrackPointExtension xmlns:gpxtpx="http://www.garmin.com/xmlschemas/TrackPointExtension/v1">
            <gpxtpx:hr>167</gpxtpx:hr>
          </gpxtpx:TrackPointExtension>
        </extensions>
      </trkpt>
      <trkpt lat="42.9224" lon="1.87853">
        <ele>513.7</ele>
        <time>2022-07-25T09:04:41.000Z</time>
        <extensions>
          <gpxtpx:TrackPointExtension xmlns:gpxtpx="http://www.garmin.com/xmlschemas/TrackPointExtension/v1">
            <gpxtpx:hr>167</gpxtpx:hr>
          </gpxtpx:TrackPointExtension>
        </extensions>
      </trkpt>
      <trkpt lat="42.92243" lon="1.87844">
        <ele>513.9</ele>
        <time>2022-07-25T09:04:43.000Z</time>
        <extensions>
          <gpxtpx:TrackPointExtension xmlns:gpxtpx="http://www.garmin.com/xmlschemas/TrackPointExtension/v1">
            <gpxtpx:hr>167</gpxtpx:hr>
          </gpxtpx:TrackPointExtension>
        </extensions>
      </trkpt>
      <trkpt lat="42.92245" lon="1.87835">
        <ele>514.2</ele>
        <time>2022-07-25T09:04:45.000Z</time>
        <extensions>
          <gpxtpx:TrackPointExtension xmlns:gpxtpx="http://www.garmin.com/xmlschemas/TrackPointExtension/v1">
            <gpxtpx:hr>167</gpxtpx:hr>
          </gpxtpx:TrackPointExtension>
        </extensions>
      </trkpt>
      <trkpt lat="42.92247" lon="1.87827">
        <ele>514.5</ele>
        <time>2022-07-25T09:04:47.000Z</time>
        <extensions>
          <gpxtpx:TrackPointExtension xmlns:gpxtpx="http://www.garmin.com/xmlschemas/TrackPointExtension/v1">
            <gpxtpx:hr>168</gpxtpx:hr>
          </gpxtpx:TrackPointExtension>
        </extensions>
      </trkpt>
      <trkpt lat="42.92249" lon="1.87819">
        <ele>514.7</ele>
        <time>2022-07-25T09:04:49.000Z</time>
        <extensions>
          <gpxtpx:TrackPointExtension xmlns:gpxtpx="http://www.garmin.com/xmlschemas/TrackPointExtension/v1">
            <gpxtpx:hr>168</gpxtpx:hr>
          </gpxtpx:TrackPointExtension>
        </extensions>
      </trkpt>
      <trkpt lat="42.92251" lon="1.87812">
        <ele>515</ele>
        <time>2022-07-25T09:04:51.000Z</time>
        <extensions>
          <gpxtpx:TrackPointExtension xmlns:gpxtpx="http://www.garmin.com/xmlschemas/TrackPointExtension/v1">
            <gpxtpx:hr>168</gpxtpx:hr>
          </gpxtpx:TrackPointExtension>
        </extensions>
      </trkpt>
      <trkpt lat="42.92253" lon="1.87804">
        <ele>515.2</ele>
        <time>2022-07-25T09:04:53.000Z</time>
        <extensions>
          <gpxtpx:TrackPointExtension xmlns:gpxtpx="http://www.garmin.com/xmlschemas/TrackPointExtension/v1">
            <gpxtpx:hr>168</gpxtpx:hr>
          </gpxtpx:TrackPointExtension>
        </extensions>
      </trkpt>
      <trkpt lat="42.92254" lon="1.87797">
        <ele>515.5</ele>
        <time>2022-07-25T09:04:55.000Z</time>
        <extensions>
          <gpxtpx:TrackPointExtension xmlns:gpxtpx="http://www.garmin.com/xmlschemas/TrackPointExtension/v1">
            <gpxtpx:hr>168</gpxtpx:hr>
          </gpxtpx:TrackPointExtension>
        </extensions>
      </trkpt>
      <trkpt lat="42.92255" lon="1.8779">
        <ele>515.9</ele>
        <time>2022-07-25T09:04:57.000Z</time>
        <extensions>
          <gpxtpx:TrackPointExtension xmlns:gpxtpx="http://www.garmin.com/xmlschemas/TrackPointExtension/v1">
            <gpxtpx:hr>168</gpxtpx:hr>
          </gpxtpx:TrackPointExtension>
        </extensions>
      </trkpt>
      <trkpt lat="42.92256" lon="1.87782">
        <ele>516.2</ele>
        <time>2022-07-25T09:04:59.000Z</time>
        <extensions>
          <gpxtpx:TrackPointExtension xmlns:gpxtpx="http://www.garmin.com/xmlschemas/TrackPointExtension/v1">
            <gpxtpx:hr>168</gpxtpx:hr>
          </gpxtpx:TrackPointExtension>
        </extensions>
      </trkpt>
      <trkpt lat="42.92257" lon="1.87774">
        <ele>516.4</ele>
        <time>2022-07-25T09:05:01.000Z</time>
        <extensions>
          <gpxtpx:TrackPointExtension xmlns:gpxtpx="http://www.garmin.com/xmlschemas/TrackPointExtension/v1">
            <gpxtpx:hr>167</gpxtpx:hr>
          </gpxtpx:TrackPointExtension>
        </extensions>
      </trkpt>
      <trkpt lat="42.92258" lon="1.87766">
        <ele>516.6</ele>
        <time>2022-07-25T09:05:03.000Z</time>
        <extensions>
          <gpxtpx:TrackPointExtension xmlns:gpxtpx="http://www.garmin.com/xmlschemas/TrackPointExtension/v1">
            <gpxtpx:hr>167</gpxtpx:hr>
          </gpxtpx:TrackPointExtension>
        </extensions>
      </trkpt>
      <trkpt lat="42.92259" lon="1.87759">
        <ele>516.9</ele>
        <time>2022-07-25T09:05:05.000Z</time>
        <extensions>
          <gpxtpx:TrackPointExtension xmlns:gpxtpx="http://www.garmin.com/xmlschemas/TrackPointExtension/v1">
            <gpxtpx:hr>167</gpxtpx:hr>
          </gpxtpx:TrackPointExtension>
        </extensions>
      </trkpt>
      <trkpt lat="42.9226" lon="1.87751">
        <ele>517.1</ele>
        <time>2022-07-25T09:05:07.000Z</time>
        <extensions>
          <gpxtpx:TrackPointExtension xmlns:gpxtpx="http://www.garmin.com/xmlschemas/TrackPointExtension/v1">
            <gpxtpx:hr>167</gpxtpx:hr>
          </gpxtpx:TrackPointExtension>
        </extensions>
      </trkpt>
      <trkpt lat="42.92261" lon="1.87743">
        <ele>517.3</ele>
        <time>2022-07-25T09:05:09.000Z</time>
        <extensions>
          <gpxtpx:TrackPointExtension xmlns:gpxtpx="http://www.garmin.com/xmlschemas/TrackPointExtension/v1">
            <gpxtpx:hr>167</gpxtpx:hr>
          </gpxtpx:TrackPointExtension>
        </extensions>
      </trkpt>
      <trkpt lat="42.92262" lon="1.87735">
        <ele>517.6</ele>
        <time>2022-07-25T09:05:11.000Z</time>
        <extensions>
          <gpxtpx:TrackPointExtension xmlns:gpxtpx="http://www.garmin.com/xmlschemas/TrackPointExtension/v1">
            <gpxtpx:hr>167</gpxtpx:hr>
          </gpxtpx:TrackPointExtension>
        </extensions>
      </trkpt>
      <trkpt lat="42.92263" lon="1.87727">
        <ele>517.8</ele>
        <time>2022-07-25T09:05:13.000Z</time>
        <extensions>
          <gpxtpx:TrackPointExtension xmlns:gpxtpx="http://www.garmin.com/xmlschemas/TrackPointExtension/v1">
            <gpxtpx:hr>167</gpxtpx:hr>
          </gpxtpx:TrackPointExtension>
        </extensions>
      </trkpt>
      <trkpt lat="42.92265" lon="1.87719">
        <ele>518.1</ele>
        <time>2022-07-25T09:05:15.000Z</time>
        <extensions>
          <gpxtpx:TrackPointExtension xmlns:gpxtpx="http://www.garmin.com/xmlschemas/TrackPointExtension/v1">
            <gpxtpx:hr>167</gpxtpx:hr>
          </gpxtpx:TrackPointExtension>
        </extensions>
      </trkpt>
      <trkpt lat="42.92266" lon="1.87711">
        <ele>518.2</ele>
        <time>2022-07-25T09:05:17.000Z</time>
        <extensions>
          <gpxtpx:TrackPointExtension xmlns:gpxtpx="http://www.garmin.com/xmlschemas/TrackPointExtension/v1">
            <gpxtpx:hr>167</gpxtpx:hr>
          </gpxtpx:TrackPointExtension>
        </extensions>
      </trkpt>
      <trkpt lat="42.92268" lon="1.87703">
        <ele>518.4</ele>
        <time>2022-07-25T09:05:19.000Z</time>
        <extensions>
          <gpxtpx:TrackPointExtension xmlns:gpxtpx="http://www.garmin.com/xmlschemas/TrackPointExtension/v1">
            <gpxtpx:hr>167</gpxtpx:hr>
          </gpxtpx:TrackPointExtension>
        </extensions>
      </trkpt>
      <trkpt lat="42.92269" lon="1.87694">
        <ele>518.6</ele>
        <time>2022-07-25T09:05:21.000Z</time>
        <extensions>
          <gpxtpx:TrackPointExtension xmlns:gpxtpx="http://www.garmin.com/xmlschemas/TrackPointExtension/v1">
            <gpxtpx:hr>167</gpxtpx:hr>
          </gpxtpx:TrackPointExtension>
        </extensions>
      </trkpt>
      <trkpt lat="42.92272" lon="1.87687">
        <ele>518.8</ele>
        <time>2022-07-25T09:05:23.000Z</time>
        <extensions>
          <gpxtpx:TrackPointExtension xmlns:gpxtpx="http://www.garmin.com/xmlschemas/TrackPointExtension/v1">
            <gpxtpx:hr>167</gpxtpx:hr>
          </gpxtpx:TrackPointExtension>
        </extensions>
      </trkpt>
      <trkpt lat="42.92274" lon="1.8768">
        <ele>519</ele>
        <time>2022-07-25T09:05:25.000Z</time>
        <extensions>
          <gpxtpx:TrackPointExtension xmlns:gpxtpx="http://www.garmin.com/xmlschemas/TrackPointExtension/v1">
            <gpxtpx:hr>167</gpxtpx:hr>
          </gpxtpx:TrackPointExtension>
        </extensions>
      </trkpt>
      <trkpt lat="42.92276" lon="1.87671">
        <ele>519.2</ele>
        <time>2022-07-25T09:05:27.000Z</time>
        <extensions>
          <gpxtpx:TrackPointExtension xmlns:gpxtpx="http://www.garmin.com/xmlschemas/TrackPointExtension/v1">
            <gpxtpx:hr>167</gpxtpx:hr>
          </gpxtpx:TrackPointExtension>
        </extensions>
      </trkpt>
      <trkpt lat="42.92279" lon="1.87663">
        <ele>519.5</ele>
        <time>2022-07-25T09:05:29.000Z</time>
        <extensions>
          <gpxtpx:TrackPointExtension xmlns:gpxtpx="http://www.garmin.com/xmlschemas/TrackPointExtension/v1">
            <gpxtpx:hr>167</gpxtpx:hr>
          </gpxtpx:TrackPointExtension>
        </extensions>
      </trkpt>
      <trkpt lat="42.92281" lon="1.87654">
        <ele>519.6</ele>
        <time>2022-07-25T09:05:31.000Z</time>
        <extensions>
          <gpxtpx:TrackPointExtension xmlns:gpxtpx="http://www.garmin.com/xmlschemas/TrackPointExtension/v1">
            <gpxtpx:hr>166</gpxtpx:hr>
          </gpxtpx:TrackPointExtension>
        </extensions>
      </trkpt>
      <trkpt lat="42.92284" lon="1.87645">
        <ele>519.8</ele>
        <time>2022-07-25T09:05:33.000Z</time>
        <extensions>
          <gpxtpx:TrackPointExtension xmlns:gpxtpx="http://www.garmin.com/xmlschemas/TrackPointExtension/v1">
            <gpxtpx:hr>166</gpxtpx:hr>
          </gpxtpx:TrackPointExtension>
        </extensions>
      </trkpt>
      <trkpt lat="42.92286" lon="1.87637">
        <ele>520</ele>
        <time>2022-07-25T09:05:35.000Z</time>
        <extensions>
          <gpxtpx:TrackPointExtension xmlns:gpxtpx="http://www.garmin.com/xmlschemas/TrackPointExtension/v1">
            <gpxtpx:hr>166</gpxtpx:hr>
          </gpxtpx:TrackPointExtension>
        </extensions>
      </trkpt>
      <trkpt lat="42.92289" lon="1.87629">
        <ele>520.1</ele>
        <time>2022-07-25T09:05:37.000Z</time>
        <extensions>
          <gpxtpx:TrackPointExtension xmlns:gpxtpx="http://www.garmin.com/xmlschemas/TrackPointExtension/v1">
            <gpxtpx:hr>166</gpxtpx:hr>
          </gpxtpx:TrackPointExtension>
        </extensions>
      </trkpt>
      <trkpt lat="42.92292" lon="1.87621">
        <ele>520.3</ele>
        <time>2022-07-25T09:05:39.000Z</time>
        <extensions>
          <gpxtpx:TrackPointExtension xmlns:gpxtpx="http://www.garmin.com/xmlschemas/TrackPointExtension/v1">
            <gpxtpx:hr>166</gpxtpx:hr>
          </gpxtpx:TrackPointExtension>
        </extensions>
      </trkpt>
      <trkpt lat="42.92294" lon="1.87613">
        <ele>520.5</ele>
        <time>2022-07-25T09:05:41.000Z</time>
        <extensions>
          <gpxtpx:TrackPointExtension xmlns:gpxtpx="http://www.garmin.com/xmlschemas/TrackPointExtension/v1">
            <gpxtpx:hr>166</gpxtpx:hr>
          </gpxtpx:TrackPointExtension>
        </extensions>
      </trkpt>
      <trkpt lat="42.92297" lon="1.87605">
        <ele>520.7</ele>
        <time>2022-07-25T09:05:43.000Z</time>
        <extensions>
          <gpxtpx:TrackPointExtension xmlns:gpxtpx="http://www.garmin.com/xmlschemas/TrackPointExtension/v1">
            <gpxtpx:hr>166</gpxtpx:hr>
          </gpxtpx:TrackPointExtension>
        </extensions>
      </trkpt>
      <trkpt lat="42.92299" lon="1.87598">
        <ele>521</ele>
        <time>2022-07-25T09:05:45.000Z</time>
        <extensions>
          <gpxtpx:TrackPointExtension xmlns:gpxtpx="http://www.garmin.com/xmlschemas/TrackPointExtension/v1">
            <gpxtpx:hr>166</gpxtpx:hr>
          </gpxtpx:TrackPointExtension>
        </extensions>
      </trkpt>
      <trkpt lat="42.92302" lon="1.87591">
        <ele>521.2</ele>
        <time>2022-07-25T09:05:47.000Z</time>
        <extensions>
          <gpxtpx:TrackPointExtension xmlns:gpxtpx="http://www.garmin.com/xmlschemas/TrackPointExtension/v1">
            <gpxtpx:hr>166</gpxtpx:hr>
          </gpxtpx:TrackPointExtension>
        </extensions>
      </trkpt>
      <trkpt lat="42.92304" lon="1.87582">
        <ele>521.4</ele>
        <time>2022-07-25T09:05:49.000Z</time>
        <extensions>
          <gpxtpx:TrackPointExtension xmlns:gpxtpx="http://www.garmin.com/xmlschemas/TrackPointExtension/v1">
            <gpxtpx:hr>166</gpxtpx:hr>
          </gpxtpx:TrackPointExtension>
        </extensions>
      </trkpt>
      <trkpt lat="42.92305" lon="1.87574">
        <ele>521.7</ele>
        <time>2022-07-25T09:05:51.000Z</time>
        <extensions>
          <gpxtpx:TrackPointExtension xmlns:gpxtpx="http://www.garmin.com/xmlschemas/TrackPointExtension/v1">
            <gpxtpx:hr>166</gpxtpx:hr>
          </gpxtpx:TrackPointExtension>
        </extensions>
      </trkpt>
      <trkpt lat="42.92307" lon="1.87567">
        <ele>521.9</ele>
        <time>2022-07-25T09:05:53.000Z</time>
        <extensions>
          <gpxtpx:TrackPointExtension xmlns:gpxtpx="http://www.garmin.com/xmlschemas/TrackPointExtension/v1">
            <gpxtpx:hr>166</gpxtpx:hr>
          </gpxtpx:TrackPointExtension>
        </extensions>
      </trkpt>
      <trkpt lat="42.92309" lon="1.87558">
        <ele>522.1</ele>
        <time>2022-07-25T09:05:55.000Z</time>
        <extensions>
          <gpxtpx:TrackPointExtension xmlns:gpxtpx="http://www.garmin.com/xmlschemas/TrackPointExtension/v1">
            <gpxtpx:hr>166</gpxtpx:hr>
          </gpxtpx:TrackPointExtension>
        </extensions>
      </trkpt>
      <trkpt lat="42.92311" lon="1.8755">
        <ele>522.4</ele>
        <time>2022-07-25T09:05:57.000Z</time>
        <extensions>
          <gpxtpx:TrackPointExtension xmlns:gpxtpx="http://www.garmin.com/xmlschemas/TrackPointExtension/v1">
            <gpxtpx:hr>166</gpxtpx:hr>
          </gpxtpx:TrackPointExtension>
        </extensions>
      </trkpt>
      <trkpt lat="42.92312" lon="1.87542">
        <ele>522.7</ele>
        <time>2022-07-25T09:05:59.000Z</time>
        <extensions>
          <gpxtpx:TrackPointExtension xmlns:gpxtpx="http://www.garmin.com/xmlschemas/TrackPointExtension/v1">
            <gpxtpx:hr>167</gpxtpx:hr>
          </gpxtpx:TrackPointExtension>
        </extensions>
      </trkpt>
      <trkpt lat="42.92314" lon="1.87535">
        <ele>522.9</ele>
        <time>2022-07-25T09:06:01.000Z</time>
        <extensions>
          <gpxtpx:TrackPointExtension xmlns:gpxtpx="http://www.garmin.com/xmlschemas/TrackPointExtension/v1">
            <gpxtpx:hr>167</gpxtpx:hr>
          </gpxtpx:TrackPointExtension>
        </extensions>
      </trkpt>
      <trkpt lat="42.92315" lon="1.87526">
        <ele>523.1</ele>
        <time>2022-07-25T09:06:03.000Z</time>
        <extensions>
          <gpxtpx:TrackPointExtension xmlns:gpxtpx="http://www.garmin.com/xmlschemas/TrackPointExtension/v1">
            <gpxtpx:hr>167</gpxtpx:hr>
          </gpxtpx:TrackPointExtension>
        </extensions>
      </trkpt>
      <trkpt lat="42.92314" lon="1.87516">
        <ele>523.4</ele>
        <time>2022-07-25T09:06:05.000Z</time>
        <extensions>
          <gpxtpx:TrackPointExtension xmlns:gpxtpx="http://www.garmin.com/xmlschemas/TrackPointExtension/v1">
            <gpxtpx:hr>167</gpxtpx:hr>
          </gpxtpx:TrackPointExtension>
        </extensions>
      </trkpt>
      <trkpt lat="42.92313" lon="1.87506">
        <ele>523.6</ele>
        <time>2022-07-25T09:06:07.000Z</time>
        <extensions>
          <gpxtpx:TrackPointExtension xmlns:gpxtpx="http://www.garmin.com/xmlschemas/TrackPointExtension/v1">
            <gpxtpx:hr>167</gpxtpx:hr>
          </gpxtpx:TrackPointExtension>
        </extensions>
      </trkpt>
      <trkpt lat="42.9231" lon="1.87496">
        <ele>523.9</ele>
        <time>2022-07-25T09:06:09.000Z</time>
        <extensions>
          <gpxtpx:TrackPointExtension xmlns:gpxtpx="http://www.garmin.com/xmlschemas/TrackPointExtension/v1">
            <gpxtpx:hr>167</gpxtpx:hr>
          </gpxtpx:TrackPointExtension>
        </extensions>
      </trkpt>
      <trkpt lat="42.92307" lon="1.87485">
        <ele>524.1</ele>
        <time>2022-07-25T09:06:11.000Z</time>
        <extensions>
          <gpxtpx:TrackPointExtension xmlns:gpxtpx="http://www.garmin.com/xmlschemas/TrackPointExtension/v1">
            <gpxtpx:hr>167</gpxtpx:hr>
          </gpxtpx:TrackPointExtension>
        </extensions>
      </trkpt>
      <trkpt lat="42.92305" lon="1.87475">
        <ele>524.3</ele>
        <time>2022-07-25T09:06:13.000Z</time>
        <extensions>
          <gpxtpx:TrackPointExtension xmlns:gpxtpx="http://www.garmin.com/xmlschemas/TrackPointExtension/v1">
            <gpxtpx:hr>167</gpxtpx:hr>
          </gpxtpx:TrackPointExtension>
        </extensions>
      </trkpt>
      <trkpt lat="42.92304" lon="1.87466">
        <ele>524.6</ele>
        <time>2022-07-25T09:06:15.000Z</time>
        <extensions>
          <gpxtpx:TrackPointExtension xmlns:gpxtpx="http://www.garmin.com/xmlschemas/TrackPointExtension/v1">
            <gpxtpx:hr>167</gpxtpx:hr>
          </gpxtpx:TrackPointExtension>
        </extensions>
      </trkpt>
      <trkpt lat="42.92302" lon="1.87457">
        <ele>524.8</ele>
        <time>2022-07-25T09:06:17.000Z</time>
        <extensions>
          <gpxtpx:TrackPointExtension xmlns:gpxtpx="http://www.garmin.com/xmlschemas/TrackPointExtension/v1">
            <gpxtpx:hr>167</gpxtpx:hr>
          </gpxtpx:TrackPointExtension>
        </extensions>
      </trkpt>
      <trkpt lat="42.923" lon="1.87447">
        <ele>525.1</ele>
        <time>2022-07-25T09:06:19.000Z</time>
        <extensions>
          <gpxtpx:TrackPointExtension xmlns:gpxtpx="http://www.garmin.com/xmlschemas/TrackPointExtension/v1">
            <gpxtpx:hr>167</gpxtpx:hr>
          </gpxtpx:TrackPointExtension>
        </extensions>
      </trkpt>
      <trkpt lat="42.92298" lon="1.87437">
        <ele>525.2</ele>
        <time>2022-07-25T09:06:21.000Z</time>
        <extensions>
          <gpxtpx:TrackPointExtension xmlns:gpxtpx="http://www.garmin.com/xmlschemas/TrackPointExtension/v1">
            <gpxtpx:hr>167</gpxtpx:hr>
          </gpxtpx:TrackPointExtension>
        </extensions>
      </trkpt>
      <trkpt lat="42.92297" lon="1.87427">
        <ele>525.4</ele>
        <time>2022-07-25T09:06:23.000Z</time>
        <extensions>
          <gpxtpx:TrackPointExtension xmlns:gpxtpx="http://www.garmin.com/xmlschemas/TrackPointExtension/v1">
            <gpxtpx:hr>167</gpxtpx:hr>
          </gpxtpx:TrackPointExtension>
        </extensions>
      </trkpt>
      <trkpt lat="42.92296" lon="1.87418">
        <ele>525.7</ele>
        <time>2022-07-25T09:06:25.000Z</time>
        <extensions>
          <gpxtpx:TrackPointExtension xmlns:gpxtpx="http://www.garmin.com/xmlschemas/TrackPointExtension/v1">
            <gpxtpx:hr>167</gpxtpx:hr>
          </gpxtpx:TrackPointExtension>
        </extensions>
      </trkpt>
      <trkpt lat="42.92295" lon="1.87408">
        <ele>525.9</ele>
        <time>2022-07-25T09:06:27.000Z</time>
        <extensions>
          <gpxtpx:TrackPointExtension xmlns:gpxtpx="http://www.garmin.com/xmlschemas/TrackPointExtension/v1">
            <gpxtpx:hr>167</gpxtpx:hr>
          </gpxtpx:TrackPointExtension>
        </extensions>
      </trkpt>
      <trkpt lat="42.92294" lon="1.87399">
        <ele>526.2</ele>
        <time>2022-07-25T09:06:29.000Z</time>
        <extensions>
          <gpxtpx:TrackPointExtension xmlns:gpxtpx="http://www.garmin.com/xmlschemas/TrackPointExtension/v1">
            <gpxtpx:hr>167</gpxtpx:hr>
          </gpxtpx:TrackPointExtension>
        </extensions>
      </trkpt>
      <trkpt lat="42.92292" lon="1.8739">
        <ele>526.4</ele>
        <time>2022-07-25T09:06:31.000Z</time>
        <extensions>
          <gpxtpx:TrackPointExtension xmlns:gpxtpx="http://www.garmin.com/xmlschemas/TrackPointExtension/v1">
            <gpxtpx:hr>167</gpxtpx:hr>
          </gpxtpx:TrackPointExtension>
        </extensions>
      </trkpt>
      <trkpt lat="42.92291" lon="1.87381">
        <ele>526.6</ele>
        <time>2022-07-25T09:06:33.000Z</time>
        <extensions>
          <gpxtpx:TrackPointExtension xmlns:gpxtpx="http://www.garmin.com/xmlschemas/TrackPointExtension/v1">
            <gpxtpx:hr>167</gpxtpx:hr>
          </gpxtpx:TrackPointExtension>
        </extensions>
      </trkpt>
      <trkpt lat="42.9229" lon="1.87373">
        <ele>526.7</ele>
        <time>2022-07-25T09:06:35.000Z</time>
        <extensions>
          <gpxtpx:TrackPointExtension xmlns:gpxtpx="http://www.garmin.com/xmlschemas/TrackPointExtension/v1">
            <gpxtpx:hr>167</gpxtpx:hr>
          </gpxtpx:TrackPointExtension>
        </extensions>
      </trkpt>
      <trkpt lat="42.92289" lon="1.87363">
        <ele>526.9</ele>
        <time>2022-07-25T09:06:37.000Z</time>
        <extensions>
          <gpxtpx:TrackPointExtension xmlns:gpxtpx="http://www.garmin.com/xmlschemas/TrackPointExtension/v1">
            <gpxtpx:hr>167</gpxtpx:hr>
          </gpxtpx:TrackPointExtension>
        </extensions>
      </trkpt>
      <trkpt lat="42.92289" lon="1.87353">
        <ele>527.1</ele>
        <time>2022-07-25T09:06:39.000Z</time>
        <extensions>
          <gpxtpx:TrackPointExtension xmlns:gpxtpx="http://www.garmin.com/xmlschemas/TrackPointExtension/v1">
            <gpxtpx:hr>167</gpxtpx:hr>
          </gpxtpx:TrackPointExtension>
        </extensions>
      </trkpt>
      <trkpt lat="42.92288" lon="1.87343">
        <ele>527.3</ele>
        <time>2022-07-25T09:06:41.000Z</time>
        <extensions>
          <gpxtpx:TrackPointExtension xmlns:gpxtpx="http://www.garmin.com/xmlschemas/TrackPointExtension/v1">
            <gpxtpx:hr>167</gpxtpx:hr>
          </gpxtpx:TrackPointExtension>
        </extensions>
      </trkpt>
      <trkpt lat="42.92287" lon="1.87335">
        <ele>527.5</ele>
        <time>2022-07-25T09:06:43.000Z</time>
        <extensions>
          <gpxtpx:TrackPointExtension xmlns:gpxtpx="http://www.garmin.com/xmlschemas/TrackPointExtension/v1">
            <gpxtpx:hr>167</gpxtpx:hr>
          </gpxtpx:TrackPointExtension>
        </extensions>
      </trkpt>
      <trkpt lat="42.92289" lon="1.87326">
        <ele>527.6</ele>
        <time>2022-07-25T09:06:45.000Z</time>
        <extensions>
          <gpxtpx:TrackPointExtension xmlns:gpxtpx="http://www.garmin.com/xmlschemas/TrackPointExtension/v1">
            <gpxtpx:hr>167</gpxtpx:hr>
          </gpxtpx:TrackPointExtension>
        </extensions>
      </trkpt>
      <trkpt lat="42.92289" lon="1.87317">
        <ele>527.8</ele>
        <time>2022-07-25T09:06:47.000Z</time>
        <extensions>
          <gpxtpx:TrackPointExtension xmlns:gpxtpx="http://www.garmin.com/xmlschemas/TrackPointExtension/v1">
            <gpxtpx:hr>166</gpxtpx:hr>
          </gpxtpx:TrackPointExtension>
        </extensions>
      </trkpt>
      <trkpt lat="42.9229" lon="1.87309">
        <ele>528</ele>
        <time>2022-07-25T09:06:49.000Z</time>
        <extensions>
          <gpxtpx:TrackPointExtension xmlns:gpxtpx="http://www.garmin.com/xmlschemas/TrackPointExtension/v1">
            <gpxtpx:hr>166</gpxtpx:hr>
          </gpxtpx:TrackPointExtension>
        </extensions>
      </trkpt>
      <trkpt lat="42.9229" lon="1.87302">
        <ele>528.2</ele>
        <time>2022-07-25T09:06:51.000Z</time>
        <extensions>
          <gpxtpx:TrackPointExtension xmlns:gpxtpx="http://www.garmin.com/xmlschemas/TrackPointExtension/v1">
            <gpxtpx:hr>166</gpxtpx:hr>
          </gpxtpx:TrackPointExtension>
        </extensions>
      </trkpt>
      <trkpt lat="42.9229" lon="1.87295">
        <ele>528.4</ele>
        <time>2022-07-25T09:06:53.000Z</time>
        <extensions>
          <gpxtpx:TrackPointExtension xmlns:gpxtpx="http://www.garmin.com/xmlschemas/TrackPointExtension/v1">
            <gpxtpx:hr>166</gpxtpx:hr>
          </gpxtpx:TrackPointExtension>
        </extensions>
      </trkpt>
      <trkpt lat="42.9229" lon="1.87287">
        <ele>528.7</ele>
        <time>2022-07-25T09:06:55.000Z</time>
        <extensions>
          <gpxtpx:TrackPointExtension xmlns:gpxtpx="http://www.garmin.com/xmlschemas/TrackPointExtension/v1">
            <gpxtpx:hr>166</gpxtpx:hr>
          </gpxtpx:TrackPointExtension>
        </extensions>
      </trkpt>
      <trkpt lat="42.92291" lon="1.87279">
        <ele>528.9</ele>
        <time>2022-07-25T09:06:57.000Z</time>
        <extensions>
          <gpxtpx:TrackPointExtension xmlns:gpxtpx="http://www.garmin.com/xmlschemas/TrackPointExtension/v1">
            <gpxtpx:hr>166</gpxtpx:hr>
          </gpxtpx:TrackPointExtension>
        </extensions>
      </trkpt>
      <trkpt lat="42.92293" lon="1.87271">
        <ele>529.1</ele>
        <time>2022-07-25T09:06:59.000Z</time>
        <extensions>
          <gpxtpx:TrackPointExtension xmlns:gpxtpx="http://www.garmin.com/xmlschemas/TrackPointExtension/v1">
            <gpxtpx:hr>166</gpxtpx:hr>
          </gpxtpx:TrackPointExtension>
        </extensions>
      </trkpt>
      <trkpt lat="42.92294" lon="1.87261">
        <ele>529.3</ele>
        <time>2022-07-25T09:07:01.000Z</time>
        <extensions>
          <gpxtpx:TrackPointExtension xmlns:gpxtpx="http://www.garmin.com/xmlschemas/TrackPointExtension/v1">
            <gpxtpx:hr>166</gpxtpx:hr>
          </gpxtpx:TrackPointExtension>
        </extensions>
      </trkpt>
      <trkpt lat="42.92295" lon="1.8725">
        <ele>529.5</ele>
        <time>2022-07-25T09:07:03.000Z</time>
        <extensions>
          <gpxtpx:TrackPointExtension xmlns:gpxtpx="http://www.garmin.com/xmlschemas/TrackPointExtension/v1">
            <gpxtpx:hr>165</gpxtpx:hr>
          </gpxtpx:TrackPointExtension>
        </extensions>
      </trkpt>
      <trkpt lat="42.92297" lon="1.87241">
        <ele>529.7</ele>
        <time>2022-07-25T09:07:05.000Z</time>
        <extensions>
          <gpxtpx:TrackPointExtension xmlns:gpxtpx="http://www.garmin.com/xmlschemas/TrackPointExtension/v1">
            <gpxtpx:hr>165</gpxtpx:hr>
          </gpxtpx:TrackPointExtension>
        </extensions>
      </trkpt>
      <trkpt lat="42.92299" lon="1.87231">
        <ele>529.8</ele>
        <time>2022-07-25T09:07:07.000Z</time>
        <extensions>
          <gpxtpx:TrackPointExtension xmlns:gpxtpx="http://www.garmin.com/xmlschemas/TrackPointExtension/v1">
            <gpxtpx:hr>165</gpxtpx:hr>
          </gpxtpx:TrackPointExtension>
        </extensions>
      </trkpt>
      <trkpt lat="42.923" lon="1.87222">
        <ele>530</ele>
        <time>2022-07-25T09:07:09.000Z</time>
        <extensions>
          <gpxtpx:TrackPointExtension xmlns:gpxtpx="http://www.garmin.com/xmlschemas/TrackPointExtension/v1">
            <gpxtpx:hr>165</gpxtpx:hr>
          </gpxtpx:TrackPointExtension>
        </extensions>
      </trkpt>
      <trkpt lat="42.92301" lon="1.87212">
        <ele>530.1</ele>
        <time>2022-07-25T09:07:11.000Z</time>
        <extensions>
          <gpxtpx:TrackPointExtension xmlns:gpxtpx="http://www.garmin.com/xmlschemas/TrackPointExtension/v1">
            <gpxtpx:hr>165</gpxtpx:hr>
          </gpxtpx:TrackPointExtension>
        </extensions>
      </trkpt>
      <trkpt lat="42.92301" lon="1.87202">
        <ele>530.3</ele>
        <time>2022-07-25T09:07:13.000Z</time>
        <extensions>
          <gpxtpx:TrackPointExtension xmlns:gpxtpx="http://www.garmin.com/xmlschemas/TrackPointExtension/v1">
            <gpxtpx:hr>164</gpxtpx:hr>
          </gpxtpx:TrackPointExtension>
        </extensions>
      </trkpt>
      <trkpt lat="42.92301" lon="1.87192">
        <ele>530.4</ele>
        <time>2022-07-25T09:07:15.000Z</time>
        <extensions>
          <gpxtpx:TrackPointExtension xmlns:gpxtpx="http://www.garmin.com/xmlschemas/TrackPointExtension/v1">
            <gpxtpx:hr>164</gpxtpx:hr>
          </gpxtpx:TrackPointExtension>
        </extensions>
      </trkpt>
      <trkpt lat="42.92302" lon="1.87182">
        <ele>530.5</ele>
        <time>2022-07-25T09:07:17.000Z</time>
        <extensions>
          <gpxtpx:TrackPointExtension xmlns:gpxtpx="http://www.garmin.com/xmlschemas/TrackPointExtension/v1">
            <gpxtpx:hr>164</gpxtpx:hr>
          </gpxtpx:TrackPointExtension>
        </extensions>
      </trkpt>
      <trkpt lat="42.92303" lon="1.87172">
        <ele>530.6</ele>
        <time>2022-07-25T09:07:19.000Z</time>
        <extensions>
          <gpxtpx:TrackPointExtension xmlns:gpxtpx="http://www.garmin.com/xmlschemas/TrackPointExtension/v1">
            <gpxtpx:hr>164</gpxtpx:hr>
          </gpxtpx:TrackPointExtension>
        </extensions>
      </trkpt>
      <trkpt lat="42.92303" lon="1.87161">
        <ele>530.7</ele>
        <time>2022-07-25T09:07:21.000Z</time>
        <extensions>
          <gpxtpx:TrackPointExtension xmlns:gpxtpx="http://www.garmin.com/xmlschemas/TrackPointExtension/v1">
            <gpxtpx:hr>164</gpxtpx:hr>
          </gpxtpx:TrackPointExtension>
        </extensions>
      </trkpt>
      <trkpt lat="42.92304" lon="1.87151">
        <ele>530.9</ele>
        <time>2022-07-25T09:07:23.000Z</time>
        <extensions>
          <gpxtpx:TrackPointExtension xmlns:gpxtpx="http://www.garmin.com/xmlschemas/TrackPointExtension/v1">
            <gpxtpx:hr>163</gpxtpx:hr>
          </gpxtpx:TrackPointExtension>
        </extensions>
      </trkpt>
      <trkpt lat="42.92304" lon="1.87141">
        <ele>531</ele>
        <time>2022-07-25T09:07:25.000Z</time>
        <extensions>
          <gpxtpx:TrackPointExtension xmlns:gpxtpx="http://www.garmin.com/xmlschemas/TrackPointExtension/v1">
            <gpxtpx:hr>163</gpxtpx:hr>
          </gpxtpx:TrackPointExtension>
        </extensions>
      </trkpt>
      <trkpt lat="42.92305" lon="1.87131">
        <ele>531.1</ele>
        <time>2022-07-25T09:07:27.000Z</time>
        <extensions>
          <gpxtpx:TrackPointExtension xmlns:gpxtpx="http://www.garmin.com/xmlschemas/TrackPointExtension/v1">
            <gpxtpx:hr>163</gpxtpx:hr>
          </gpxtpx:TrackPointExtension>
        </extensions>
      </trkpt>
      <trkpt lat="42.92305" lon="1.8712">
        <ele>531.2</ele>
        <time>2022-07-25T09:07:29.000Z</time>
        <extensions>
          <gpxtpx:TrackPointExtension xmlns:gpxtpx="http://www.garmin.com/xmlschemas/TrackPointExtension/v1">
            <gpxtpx:hr>163</gpxtpx:hr>
          </gpxtpx:TrackPointExtension>
        </extensions>
      </trkpt>
      <trkpt lat="42.92306" lon="1.87109">
        <ele>531.3</ele>
        <time>2022-07-25T09:07:31.000Z</time>
        <extensions>
          <gpxtpx:TrackPointExtension xmlns:gpxtpx="http://www.garmin.com/xmlschemas/TrackPointExtension/v1">
            <gpxtpx:hr>163</gpxtpx:hr>
          </gpxtpx:TrackPointExtension>
        </extensions>
      </trkpt>
      <trkpt lat="42.92305" lon="1.87103">
        <ele>531.4</ele>
        <time>2022-07-25T09:07:32.000Z</time>
        <extensions>
          <gpxtpx:TrackPointExtension xmlns:gpxtpx="http://www.garmin.com/xmlschemas/TrackPointExtension/v1">
            <gpxtpx:hr>162</gpxtpx:hr>
          </gpxtpx:TrackPointExtension>
        </extensions>
      </trkpt>
      <trkpt lat="42.92304" lon="1.87091">
        <ele>531.5</ele>
        <time>2022-07-25T09:07:34.000Z</time>
        <extensions>
          <gpxtpx:TrackPointExtension xmlns:gpxtpx="http://www.garmin.com/xmlschemas/TrackPointExtension/v1">
            <gpxtpx:hr>162</gpxtpx:hr>
          </gpxtpx:TrackPointExtension>
        </extensions>
      </trkpt>
      <trkpt lat="42.92304" lon="1.87085">
        <ele>531.5</ele>
        <time>2022-07-25T09:07:35.000Z</time>
        <extensions>
          <gpxtpx:TrackPointExtension xmlns:gpxtpx="http://www.garmin.com/xmlschemas/TrackPointExtension/v1">
            <gpxtpx:hr>162</gpxtpx:hr>
          </gpxtpx:TrackPointExtension>
        </extensions>
      </trkpt>
      <trkpt lat="42.92304" lon="1.87074">
        <ele>531.6</ele>
        <time>2022-07-25T09:07:37.000Z</time>
        <extensions>
          <gpxtpx:TrackPointExtension xmlns:gpxtpx="http://www.garmin.com/xmlschemas/TrackPointExtension/v1">
            <gpxtpx:hr>162</gpxtpx:hr>
          </gpxtpx:TrackPointExtension>
        </extensions>
      </trkpt>
      <trkpt lat="42.92304" lon="1.87064">
        <ele>531.6</ele>
        <time>2022-07-25T09:07:39.000Z</time>
        <extensions>
          <gpxtpx:TrackPointExtension xmlns:gpxtpx="http://www.garmin.com/xmlschemas/TrackPointExtension/v1">
            <gpxtpx:hr>161</gpxtpx:hr>
          </gpxtpx:TrackPointExtension>
        </extensions>
      </trkpt>
      <trkpt lat="42.92305" lon="1.87054">
        <ele>531.7</ele>
        <time>2022-07-25T09:07:41.000Z</time>
        <extensions>
          <gpxtpx:TrackPointExtension xmlns:gpxtpx="http://www.garmin.com/xmlschemas/TrackPointExtension/v1">
            <gpxtpx:hr>161</gpxtpx:hr>
          </gpxtpx:TrackPointExtension>
        </extensions>
      </trkpt>
      <trkpt lat="42.92306" lon="1.87044">
        <ele>531.8</ele>
        <time>2022-07-25T09:07:43.000Z</time>
        <extensions>
          <gpxtpx:TrackPointExtension xmlns:gpxtpx="http://www.garmin.com/xmlschemas/TrackPointExtension/v1">
            <gpxtpx:hr>160</gpxtpx:hr>
          </gpxtpx:TrackPointExtension>
        </extensions>
      </trkpt>
      <trkpt lat="42.92307" lon="1.87034">
        <ele>531.9</ele>
        <time>2022-07-25T09:07:45.000Z</time>
        <extensions>
          <gpxtpx:TrackPointExtension xmlns:gpxtpx="http://www.garmin.com/xmlschemas/TrackPointExtension/v1">
            <gpxtpx:hr>160</gpxtpx:hr>
          </gpxtpx:TrackPointExtension>
        </extensions>
      </trkpt>
      <trkpt lat="42.92308" lon="1.87023">
        <ele>532</ele>
        <time>2022-07-25T09:07:47.000Z</time>
        <extensions>
          <gpxtpx:TrackPointExtension xmlns:gpxtpx="http://www.garmin.com/xmlschemas/TrackPointExtension/v1">
            <gpxtpx:hr>160</gpxtpx:hr>
          </gpxtpx:TrackPointExtension>
        </extensions>
      </trkpt>
      <trkpt lat="42.9231" lon="1.87012">
        <ele>532.1</ele>
        <time>2022-07-25T09:07:49.000Z</time>
        <extensions>
          <gpxtpx:TrackPointExtension xmlns:gpxtpx="http://www.garmin.com/xmlschemas/TrackPointExtension/v1">
            <gpxtpx:hr>159</gpxtpx:hr>
          </gpxtpx:TrackPointExtension>
        </extensions>
      </trkpt>
      <trkpt lat="42.92311" lon="1.87001">
        <ele>532.1</ele>
        <time>2022-07-25T09:07:51.000Z</time>
        <extensions>
          <gpxtpx:TrackPointExtension xmlns:gpxtpx="http://www.garmin.com/xmlschemas/TrackPointExtension/v1">
            <gpxtpx:hr>159</gpxtpx:hr>
          </gpxtpx:TrackPointExtension>
        </extensions>
      </trkpt>
      <trkpt lat="42.92312" lon="1.86995">
        <ele>532.2</ele>
        <time>2022-07-25T09:07:52.000Z</time>
        <extensions>
          <gpxtpx:TrackPointExtension xmlns:gpxtpx="http://www.garmin.com/xmlschemas/TrackPointExtension/v1">
            <gpxtpx:hr>159</gpxtpx:hr>
          </gpxtpx:TrackPointExtension>
        </extensions>
      </trkpt>
      <trkpt lat="42.92313" lon="1.86989">
        <ele>532.2</ele>
        <time>2022-07-25T09:07:53.000Z</time>
        <extensions>
          <gpxtpx:TrackPointExtension xmlns:gpxtpx="http://www.garmin.com/xmlschemas/TrackPointExtension/v1">
            <gpxtpx:hr>159</gpxtpx:hr>
          </gpxtpx:TrackPointExtension>
        </extensions>
      </trkpt>
      <trkpt lat="42.92316" lon="1.86977">
        <ele>532.3</ele>
        <time>2022-07-25T09:07:55.000Z</time>
        <extensions>
          <gpxtpx:TrackPointExtension xmlns:gpxtpx="http://www.garmin.com/xmlschemas/TrackPointExtension/v1">
            <gpxtpx:hr>159</gpxtpx:hr>
          </gpxtpx:TrackPointExtension>
        </extensions>
      </trkpt>
      <trkpt lat="42.92317" lon="1.86971">
        <ele>532.3</ele>
        <time>2022-07-25T09:07:56.000Z</time>
        <extensions>
          <gpxtpx:TrackPointExtension xmlns:gpxtpx="http://www.garmin.com/xmlschemas/TrackPointExtension/v1">
            <gpxtpx:hr>159</gpxtpx:hr>
          </gpxtpx:TrackPointExtension>
        </extensions>
      </trkpt>
      <trkpt lat="42.92319" lon="1.86965">
        <ele>532.3</ele>
        <time>2022-07-25T09:07:57.000Z</time>
        <extensions>
          <gpxtpx:TrackPointExtension xmlns:gpxtpx="http://www.garmin.com/xmlschemas/TrackPointExtension/v1">
            <gpxtpx:hr>159</gpxtpx:hr>
          </gpxtpx:TrackPointExtension>
        </extensions>
      </trkpt>
      <trkpt lat="42.92321" lon="1.86958">
        <ele>532.3</ele>
        <time>2022-07-25T09:07:58.000Z</time>
        <extensions>
          <gpxtpx:TrackPointExtension xmlns:gpxtpx="http://www.garmin.com/xmlschemas/TrackPointExtension/v1">
            <gpxtpx:hr>159</gpxtpx:hr>
          </gpxtpx:TrackPointExtension>
        </extensions>
      </trkpt>
      <trkpt lat="42.92323" lon="1.86952">
        <ele>532.4</ele>
        <time>2022-07-25T09:07:59.000Z</time>
        <extensions>
          <gpxtpx:TrackPointExtension xmlns:gpxtpx="http://www.garmin.com/xmlschemas/TrackPointExtension/v1">
            <gpxtpx:hr>159</gpxtpx:hr>
          </gpxtpx:TrackPointExtension>
        </extensions>
      </trkpt>
      <trkpt lat="42.92325" lon="1.86945">
        <ele>532.4</ele>
        <time>2022-07-25T09:08:00.000Z</time>
        <extensions>
          <gpxtpx:TrackPointExtension xmlns:gpxtpx="http://www.garmin.com/xmlschemas/TrackPointExtension/v1">
            <gpxtpx:hr>159</gpxtpx:hr>
          </gpxtpx:TrackPointExtension>
        </extensions>
      </trkpt>
      <trkpt lat="42.92327" lon="1.86938">
        <ele>532.4</ele>
        <time>2022-07-25T09:08:01.000Z</time>
        <extensions>
          <gpxtpx:TrackPointExtension xmlns:gpxtpx="http://www.garmin.com/xmlschemas/TrackPointExtension/v1">
            <gpxtpx:hr>159</gpxtpx:hr>
          </gpxtpx:TrackPointExtension>
        </extensions>
      </trkpt>
      <trkpt lat="42.9233" lon="1.86931">
        <ele>532.4</ele>
        <time>2022-07-25T09:08:02.000Z</time>
        <extensions>
          <gpxtpx:TrackPointExtension xmlns:gpxtpx="http://www.garmin.com/xmlschemas/TrackPointExtension/v1">
            <gpxtpx:hr>159</gpxtpx:hr>
          </gpxtpx:TrackPointExtension>
        </extensions>
      </trkpt>
      <trkpt lat="42.92332" lon="1.86924">
        <ele>532.5</ele>
        <time>2022-07-25T09:08:03.000Z</time>
        <extensions>
          <gpxtpx:TrackPointExtension xmlns:gpxtpx="http://www.garmin.com/xmlschemas/TrackPointExtension/v1">
            <gpxtpx:hr>158</gpxtpx:hr>
          </gpxtpx:TrackPointExtension>
        </extensions>
      </trkpt>
      <trkpt lat="42.92335" lon="1.86917">
        <ele>532.5</ele>
        <time>2022-07-25T09:08:04.000Z</time>
        <extensions>
          <gpxtpx:TrackPointExtension xmlns:gpxtpx="http://www.garmin.com/xmlschemas/TrackPointExtension/v1">
            <gpxtpx:hr>158</gpxtpx:hr>
          </gpxtpx:TrackPointExtension>
        </extensions>
      </trkpt>
      <trkpt lat="42.92337" lon="1.86909">
        <ele>532.5</ele>
        <time>2022-07-25T09:08:05.000Z</time>
        <extensions>
          <gpxtpx:TrackPointExtension xmlns:gpxtpx="http://www.garmin.com/xmlschemas/TrackPointExtension/v1">
            <gpxtpx:hr>158</gpxtpx:hr>
          </gpxtpx:TrackPointExtension>
        </extensions>
      </trkpt>
      <trkpt lat="42.92339" lon="1.86902">
        <ele>532.5</ele>
        <time>2022-07-25T09:08:06.000Z</time>
        <extensions>
          <gpxtpx:TrackPointExtension xmlns:gpxtpx="http://www.garmin.com/xmlschemas/TrackPointExtension/v1">
            <gpxtpx:hr>158</gpxtpx:hr>
          </gpxtpx:TrackPointExtension>
        </extensions>
      </trkpt>
      <trkpt lat="42.92342" lon="1.86895">
        <ele>532.5</ele>
        <time>2022-07-25T09:08:07.000Z</time>
        <extensions>
          <gpxtpx:TrackPointExtension xmlns:gpxtpx="http://www.garmin.com/xmlschemas/TrackPointExtension/v1">
            <gpxtpx:hr>157</gpxtpx:hr>
          </gpxtpx:TrackPointExtension>
        </extensions>
      </trkpt>
      <trkpt lat="42.92345" lon="1.86889">
        <ele>532.6</ele>
        <time>2022-07-25T09:08:08.000Z</time>
        <extensions>
          <gpxtpx:TrackPointExtension xmlns:gpxtpx="http://www.garmin.com/xmlschemas/TrackPointExtension/v1">
            <gpxtpx:hr>157</gpxtpx:hr>
          </gpxtpx:TrackPointExtension>
        </extensions>
      </trkpt>
      <trkpt lat="42.92347" lon="1.86882">
        <ele>532.6</ele>
        <time>2022-07-25T09:08:09.000Z</time>
        <extensions>
          <gpxtpx:TrackPointExtension xmlns:gpxtpx="http://www.garmin.com/xmlschemas/TrackPointExtension/v1">
            <gpxtpx:hr>156</gpxtpx:hr>
          </gpxtpx:TrackPointExtension>
        </extensions>
      </trkpt>
      <trkpt lat="42.9235" lon="1.86876">
        <ele>532.6</ele>
        <time>2022-07-25T09:08:10.000Z</time>
        <extensions>
          <gpxtpx:TrackPointExtension xmlns:gpxtpx="http://www.garmin.com/xmlschemas/TrackPointExtension/v1">
            <gpxtpx:hr>155</gpxtpx:hr>
          </gpxtpx:TrackPointExtension>
        </extensions>
      </trkpt>
      <trkpt lat="42.92353" lon="1.8687">
        <ele>532.6</ele>
        <time>2022-07-25T09:08:11.000Z</time>
        <extensions>
          <gpxtpx:TrackPointExtension xmlns:gpxtpx="http://www.garmin.com/xmlschemas/TrackPointExtension/v1">
            <gpxtpx:hr>154</gpxtpx:hr>
          </gpxtpx:TrackPointExtension>
        </extensions>
      </trkpt>
      <trkpt lat="42.92355" lon="1.86864">
        <ele>532.6</ele>
        <time>2022-07-25T09:08:12.000Z</time>
        <extensions>
          <gpxtpx:TrackPointExtension xmlns:gpxtpx="http://www.garmin.com/xmlschemas/TrackPointExtension/v1">
            <gpxtpx:hr>154</gpxtpx:hr>
          </gpxtpx:TrackPointExtension>
        </extensions>
      </trkpt>
      <trkpt lat="42.92358" lon="1.86857">
        <ele>532.6</ele>
        <time>2022-07-25T09:08:13.000Z</time>
        <extensions>
          <gpxtpx:TrackPointExtension xmlns:gpxtpx="http://www.garmin.com/xmlschemas/TrackPointExtension/v1">
            <gpxtpx:hr>153</gpxtpx:hr>
          </gpxtpx:TrackPointExtension>
        </extensions>
      </trkpt>
      <trkpt lat="42.9236" lon="1.86851">
        <ele>532.6</ele>
        <time>2022-07-25T09:08:14.000Z</time>
        <extensions>
          <gpxtpx:TrackPointExtension xmlns:gpxtpx="http://www.garmin.com/xmlschemas/TrackPointExtension/v1">
            <gpxtpx:hr>152</gpxtpx:hr>
          </gpxtpx:TrackPointExtension>
        </extensions>
      </trkpt>
      <trkpt lat="42.92363" lon="1.86845">
        <ele>532.6</ele>
        <time>2022-07-25T09:08:15.000Z</time>
        <extensions>
          <gpxtpx:TrackPointExtension xmlns:gpxtpx="http://www.garmin.com/xmlschemas/TrackPointExtension/v1">
            <gpxtpx:hr>151</gpxtpx:hr>
          </gpxtpx:TrackPointExtension>
        </extensions>
      </trkpt>
      <trkpt lat="42.92366" lon="1.86839">
        <ele>532.6</ele>
        <time>2022-07-25T09:08:16.000Z</time>
        <extensions>
          <gpxtpx:TrackPointExtension xmlns:gpxtpx="http://www.garmin.com/xmlschemas/TrackPointExtension/v1">
            <gpxtpx:hr>150</gpxtpx:hr>
          </gpxtpx:TrackPointExtension>
        </extensions>
      </trkpt>
      <trkpt lat="42.92368" lon="1.86832">
        <ele>532.6</ele>
        <time>2022-07-25T09:08:17.000Z</time>
        <extensions>
          <gpxtpx:TrackPointExtension xmlns:gpxtpx="http://www.garmin.com/xmlschemas/TrackPointExtension/v1">
            <gpxtpx:hr>150</gpxtpx:hr>
          </gpxtpx:TrackPointExtension>
        </extensions>
      </trkpt>
      <trkpt lat="42.9237" lon="1.86826">
        <ele>532.6</ele>
        <time>2022-07-25T09:08:18.000Z</time>
        <extensions>
          <gpxtpx:TrackPointExtension xmlns:gpxtpx="http://www.garmin.com/xmlschemas/TrackPointExtension/v1">
            <gpxtpx:hr>150</gpxtpx:hr>
          </gpxtpx:TrackPointExtension>
        </extensions>
      </trkpt>
      <trkpt lat="42.92372" lon="1.8682">
        <ele>532.6</ele>
        <time>2022-07-25T09:08:19.000Z</time>
        <extensions>
          <gpxtpx:TrackPointExtension xmlns:gpxtpx="http://www.garmin.com/xmlschemas/TrackPointExtension/v1">
            <gpxtpx:hr>149</gpxtpx:hr>
          </gpxtpx:TrackPointExtension>
        </extensions>
      </trkpt>
      <trkpt lat="42.92375" lon="1.86814">
        <ele>532.5</ele>
        <time>2022-07-25T09:08:20.000Z</time>
        <extensions>
          <gpxtpx:TrackPointExtension xmlns:gpxtpx="http://www.garmin.com/xmlschemas/TrackPointExtension/v1">
            <gpxtpx:hr>148</gpxtpx:hr>
          </gpxtpx:TrackPointExtension>
        </extensions>
      </trkpt>
      <trkpt lat="42.92377" lon="1.86808">
        <ele>532.5</ele>
        <time>2022-07-25T09:08:21.000Z</time>
        <extensions>
          <gpxtpx:TrackPointExtension xmlns:gpxtpx="http://www.garmin.com/xmlschemas/TrackPointExtension/v1">
            <gpxtpx:hr>147</gpxtpx:hr>
          </gpxtpx:TrackPointExtension>
        </extensions>
      </trkpt>
      <trkpt lat="42.92379" lon="1.86802">
        <ele>532.5</ele>
        <time>2022-07-25T09:08:22.000Z</time>
        <extensions>
          <gpxtpx:TrackPointExtension xmlns:gpxtpx="http://www.garmin.com/xmlschemas/TrackPointExtension/v1">
            <gpxtpx:hr>147</gpxtpx:hr>
          </gpxtpx:TrackPointExtension>
        </extensions>
      </trkpt>
      <trkpt lat="42.92381" lon="1.86795">
        <ele>532.5</ele>
        <time>2022-07-25T09:08:23.000Z</time>
        <extensions>
          <gpxtpx:TrackPointExtension xmlns:gpxtpx="http://www.garmin.com/xmlschemas/TrackPointExtension/v1">
            <gpxtpx:hr>146</gpxtpx:hr>
          </gpxtpx:TrackPointExtension>
        </extensions>
      </trkpt>
      <trkpt lat="42.92384" lon="1.86789">
        <ele>532.4</ele>
        <time>2022-07-25T09:08:24.000Z</time>
        <extensions>
          <gpxtpx:TrackPointExtension xmlns:gpxtpx="http://www.garmin.com/xmlschemas/TrackPointExtension/v1">
            <gpxtpx:hr>146</gpxtpx:hr>
          </gpxtpx:TrackPointExtension>
        </extensions>
      </trkpt>
      <trkpt lat="42.92386" lon="1.86783">
        <ele>532.4</ele>
        <time>2022-07-25T09:08:25.000Z</time>
        <extensions>
          <gpxtpx:TrackPointExtension xmlns:gpxtpx="http://www.garmin.com/xmlschemas/TrackPointExtension/v1">
            <gpxtpx:hr>146</gpxtpx:hr>
          </gpxtpx:TrackPointExtension>
        </extensions>
      </trkpt>
      <trkpt lat="42.92389" lon="1.86776">
        <ele>532.4</ele>
        <time>2022-07-25T09:08:26.000Z</time>
        <extensions>
          <gpxtpx:TrackPointExtension xmlns:gpxtpx="http://www.garmin.com/xmlschemas/TrackPointExtension/v1">
            <gpxtpx:hr>145</gpxtpx:hr>
          </gpxtpx:TrackPointExtension>
        </extensions>
      </trkpt>
      <trkpt lat="42.92392" lon="1.8677">
        <ele>532.3</ele>
        <time>2022-07-25T09:08:27.000Z</time>
        <extensions>
          <gpxtpx:TrackPointExtension xmlns:gpxtpx="http://www.garmin.com/xmlschemas/TrackPointExtension/v1">
            <gpxtpx:hr>145</gpxtpx:hr>
          </gpxtpx:TrackPointExtension>
        </extensions>
      </trkpt>
      <trkpt lat="42.92394" lon="1.86763">
        <ele>532.3</ele>
        <time>2022-07-25T09:08:28.000Z</time>
        <extensions>
          <gpxtpx:TrackPointExtension xmlns:gpxtpx="http://www.garmin.com/xmlschemas/TrackPointExtension/v1">
            <gpxtpx:hr>145</gpxtpx:hr>
          </gpxtpx:TrackPointExtension>
        </extensions>
      </trkpt>
      <trkpt lat="42.92397" lon="1.86757">
        <ele>532.3</ele>
        <time>2022-07-25T09:08:29.000Z</time>
        <extensions>
          <gpxtpx:TrackPointExtension xmlns:gpxtpx="http://www.garmin.com/xmlschemas/TrackPointExtension/v1">
            <gpxtpx:hr>145</gpxtpx:hr>
          </gpxtpx:TrackPointExtension>
        </extensions>
      </trkpt>
      <trkpt lat="42.924" lon="1.86751">
        <ele>532.2</ele>
        <time>2022-07-25T09:08:30.000Z</time>
        <extensions>
          <gpxtpx:TrackPointExtension xmlns:gpxtpx="http://www.garmin.com/xmlschemas/TrackPointExtension/v1">
            <gpxtpx:hr>145</gpxtpx:hr>
          </gpxtpx:TrackPointExtension>
        </extensions>
      </trkpt>
      <trkpt lat="42.92403" lon="1.86745">
        <ele>532.1</ele>
        <time>2022-07-25T09:08:31.000Z</time>
        <extensions>
          <gpxtpx:TrackPointExtension xmlns:gpxtpx="http://www.garmin.com/xmlschemas/TrackPointExtension/v1">
            <gpxtpx:hr>145</gpxtpx:hr>
          </gpxtpx:TrackPointExtension>
        </extensions>
      </trkpt>
      <trkpt lat="42.92406" lon="1.86739">
        <ele>532</ele>
        <time>2022-07-25T09:08:32.000Z</time>
        <extensions>
          <gpxtpx:TrackPointExtension xmlns:gpxtpx="http://www.garmin.com/xmlschemas/TrackPointExtension/v1">
            <gpxtpx:hr>145</gpxtpx:hr>
          </gpxtpx:TrackPointExtension>
        </extensions>
      </trkpt>
      <trkpt lat="42.92409" lon="1.86732">
        <ele>531.9</ele>
        <time>2022-07-25T09:08:33.000Z</time>
        <extensions>
          <gpxtpx:TrackPointExtension xmlns:gpxtpx="http://www.garmin.com/xmlschemas/TrackPointExtension/v1">
            <gpxtpx:hr>145</gpxtpx:hr>
          </gpxtpx:TrackPointExtension>
        </extensions>
      </trkpt>
      <trkpt lat="42.92413" lon="1.86725">
        <ele>531.8</ele>
        <time>2022-07-25T09:08:34.000Z</time>
        <extensions>
          <gpxtpx:TrackPointExtension xmlns:gpxtpx="http://www.garmin.com/xmlschemas/TrackPointExtension/v1">
            <gpxtpx:hr>145</gpxtpx:hr>
          </gpxtpx:TrackPointExtension>
        </extensions>
      </trkpt>
      <trkpt lat="42.92416" lon="1.86717">
        <ele>531.7</ele>
        <time>2022-07-25T09:08:35.000Z</time>
        <extensions>
          <gpxtpx:TrackPointExtension xmlns:gpxtpx="http://www.garmin.com/xmlschemas/TrackPointExtension/v1">
            <gpxtpx:hr>145</gpxtpx:hr>
          </gpxtpx:TrackPointExtension>
        </extensions>
      </trkpt>
      <trkpt lat="42.9242" lon="1.86709">
        <ele>531.6</ele>
        <time>2022-07-25T09:08:36.000Z</time>
        <extensions>
          <gpxtpx:TrackPointExtension xmlns:gpxtpx="http://www.garmin.com/xmlschemas/TrackPointExtension/v1">
            <gpxtpx:hr>145</gpxtpx:hr>
          </gpxtpx:TrackPointExtension>
        </extensions>
      </trkpt>
      <trkpt lat="42.92424" lon="1.86701">
        <ele>531.5</ele>
        <time>2022-07-25T09:08:37.000Z</time>
        <extensions>
          <gpxtpx:TrackPointExtension xmlns:gpxtpx="http://www.garmin.com/xmlschemas/TrackPointExtension/v1">
            <gpxtpx:hr>145</gpxtpx:hr>
          </gpxtpx:TrackPointExtension>
        </extensions>
      </trkpt>
      <trkpt lat="42.92427" lon="1.86693">
        <ele>531.4</ele>
        <time>2022-07-25T09:08:38.000Z</time>
        <extensions>
          <gpxtpx:TrackPointExtension xmlns:gpxtpx="http://www.garmin.com/xmlschemas/TrackPointExtension/v1">
            <gpxtpx:hr>145</gpxtpx:hr>
          </gpxtpx:TrackPointExtension>
        </extensions>
      </trkpt>
      <trkpt lat="42.92431" lon="1.86685">
        <ele>531.3</ele>
        <time>2022-07-25T09:08:39.000Z</time>
        <extensions>
          <gpxtpx:TrackPointExtension xmlns:gpxtpx="http://www.garmin.com/xmlschemas/TrackPointExtension/v1">
            <gpxtpx:hr>145</gpxtpx:hr>
          </gpxtpx:TrackPointExtension>
        </extensions>
      </trkpt>
      <trkpt lat="42.92435" lon="1.86677">
        <ele>531.2</ele>
        <time>2022-07-25T09:08:40.000Z</time>
        <extensions>
          <gpxtpx:TrackPointExtension xmlns:gpxtpx="http://www.garmin.com/xmlschemas/TrackPointExtension/v1">
            <gpxtpx:hr>145</gpxtpx:hr>
          </gpxtpx:TrackPointExtension>
        </extensions>
      </trkpt>
      <trkpt lat="42.92438" lon="1.8667">
        <ele>531.1</ele>
        <time>2022-07-25T09:08:41.000Z</time>
        <extensions>
          <gpxtpx:TrackPointExtension xmlns:gpxtpx="http://www.garmin.com/xmlschemas/TrackPointExtension/v1">
            <gpxtpx:hr>145</gpxtpx:hr>
          </gpxtpx:TrackPointExtension>
        </extensions>
      </trkpt>
      <trkpt lat="42.92441" lon="1.86662">
        <ele>531</ele>
        <time>2022-07-25T09:08:42.000Z</time>
        <extensions>
          <gpxtpx:TrackPointExtension xmlns:gpxtpx="http://www.garmin.com/xmlschemas/TrackPointExtension/v1">
            <gpxtpx:hr>145</gpxtpx:hr>
          </gpxtpx:TrackPointExtension>
        </extensions>
      </trkpt>
      <trkpt lat="42.92444" lon="1.86653">
        <ele>530.9</ele>
        <time>2022-07-25T09:08:43.000Z</time>
        <extensions>
          <gpxtpx:TrackPointExtension xmlns:gpxtpx="http://www.garmin.com/xmlschemas/TrackPointExtension/v1">
            <gpxtpx:hr>145</gpxtpx:hr>
          </gpxtpx:TrackPointExtension>
        </extensions>
      </trkpt>
      <trkpt lat="42.92448" lon="1.86646">
        <ele>530.8</ele>
        <time>2022-07-25T09:08:44.000Z</time>
        <extensions>
          <gpxtpx:TrackPointExtension xmlns:gpxtpx="http://www.garmin.com/xmlschemas/TrackPointExtension/v1">
            <gpxtpx:hr>145</gpxtpx:hr>
          </gpxtpx:TrackPointExtension>
        </extensions>
      </trkpt>
      <trkpt lat="42.92451" lon="1.86638">
        <ele>530.8</ele>
        <time>2022-07-25T09:08:45.000Z</time>
        <extensions>
          <gpxtpx:TrackPointExtension xmlns:gpxtpx="http://www.garmin.com/xmlschemas/TrackPointExtension/v1">
            <gpxtpx:hr>145</gpxtpx:hr>
          </gpxtpx:TrackPointExtension>
        </extensions>
      </trkpt>
      <trkpt lat="42.92455" lon="1.86629">
        <ele>530.7</ele>
        <time>2022-07-25T09:08:46.000Z</time>
        <extensions>
          <gpxtpx:TrackPointExtension xmlns:gpxtpx="http://www.garmin.com/xmlschemas/TrackPointExtension/v1">
            <gpxtpx:hr>145</gpxtpx:hr>
          </gpxtpx:TrackPointExtension>
        </extensions>
      </trkpt>
      <trkpt lat="42.92459" lon="1.86621">
        <ele>530.6</ele>
        <time>2022-07-25T09:08:47.000Z</time>
        <extensions>
          <gpxtpx:TrackPointExtension xmlns:gpxtpx="http://www.garmin.com/xmlschemas/TrackPointExtension/v1">
            <gpxtpx:hr>145</gpxtpx:hr>
          </gpxtpx:TrackPointExtension>
        </extensions>
      </trkpt>
      <trkpt lat="42.92462" lon="1.86613">
        <ele>530.5</ele>
        <time>2022-07-25T09:08:48.000Z</time>
        <extensions>
          <gpxtpx:TrackPointExtension xmlns:gpxtpx="http://www.garmin.com/xmlschemas/TrackPointExtension/v1">
            <gpxtpx:hr>145</gpxtpx:hr>
          </gpxtpx:TrackPointExtension>
        </extensions>
      </trkpt>
      <trkpt lat="42.92466" lon="1.86605">
        <ele>530.4</ele>
        <time>2022-07-25T09:08:49.000Z</time>
        <extensions>
          <gpxtpx:TrackPointExtension xmlns:gpxtpx="http://www.garmin.com/xmlschemas/TrackPointExtension/v1">
            <gpxtpx:hr>145</gpxtpx:hr>
          </gpxtpx:TrackPointExtension>
        </extensions>
      </trkpt>
      <trkpt lat="42.92469" lon="1.86597">
        <ele>530.3</ele>
        <time>2022-07-25T09:08:50.000Z</time>
        <extensions>
          <gpxtpx:TrackPointExtension xmlns:gpxtpx="http://www.garmin.com/xmlschemas/TrackPointExtension/v1">
            <gpxtpx:hr>145</gpxtpx:hr>
          </gpxtpx:TrackPointExtension>
        </extensions>
      </trkpt>
      <trkpt lat="42.92472" lon="1.86589">
        <ele>530.2</ele>
        <time>2022-07-25T09:08:51.000Z</time>
        <extensions>
          <gpxtpx:TrackPointExtension xmlns:gpxtpx="http://www.garmin.com/xmlschemas/TrackPointExtension/v1">
            <gpxtpx:hr>145</gpxtpx:hr>
          </gpxtpx:TrackPointExtension>
        </extensions>
      </trkpt>
      <trkpt lat="42.92476" lon="1.8658">
        <ele>530.1</ele>
        <time>2022-07-25T09:08:52.000Z</time>
        <extensions>
          <gpxtpx:TrackPointExtension xmlns:gpxtpx="http://www.garmin.com/xmlschemas/TrackPointExtension/v1">
            <gpxtpx:hr>145</gpxtpx:hr>
          </gpxtpx:TrackPointExtension>
        </extensions>
      </trkpt>
      <trkpt lat="42.92479" lon="1.86572">
        <ele>530.1</ele>
        <time>2022-07-25T09:08:53.000Z</time>
        <extensions>
          <gpxtpx:TrackPointExtension xmlns:gpxtpx="http://www.garmin.com/xmlschemas/TrackPointExtension/v1">
            <gpxtpx:hr>145</gpxtpx:hr>
          </gpxtpx:TrackPointExtension>
        </extensions>
      </trkpt>
      <trkpt lat="42.92483" lon="1.86565">
        <ele>530</ele>
        <time>2022-07-25T09:08:54.000Z</time>
        <extensions>
          <gpxtpx:TrackPointExtension xmlns:gpxtpx="http://www.garmin.com/xmlschemas/TrackPointExtension/v1">
            <gpxtpx:hr>146</gpxtpx:hr>
          </gpxtpx:TrackPointExtension>
        </extensions>
      </trkpt>
      <trkpt lat="42.92486" lon="1.86557">
        <ele>529.9</ele>
        <time>2022-07-25T09:08:55.000Z</time>
        <extensions>
          <gpxtpx:TrackPointExtension xmlns:gpxtpx="http://www.garmin.com/xmlschemas/TrackPointExtension/v1">
            <gpxtpx:hr>146</gpxtpx:hr>
          </gpxtpx:TrackPointExtension>
        </extensions>
      </trkpt>
      <trkpt lat="42.92489" lon="1.86549">
        <ele>529.8</ele>
        <time>2022-07-25T09:08:56.000Z</time>
        <extensions>
          <gpxtpx:TrackPointExtension xmlns:gpxtpx="http://www.garmin.com/xmlschemas/TrackPointExtension/v1">
            <gpxtpx:hr>146</gpxtpx:hr>
          </gpxtpx:TrackPointExtension>
        </extensions>
      </trkpt>
      <trkpt lat="42.92493" lon="1.86541">
        <ele>529.8</ele>
        <time>2022-07-25T09:08:57.000Z</time>
        <extensions>
          <gpxtpx:TrackPointExtension xmlns:gpxtpx="http://www.garmin.com/xmlschemas/TrackPointExtension/v1">
            <gpxtpx:hr>146</gpxtpx:hr>
          </gpxtpx:TrackPointExtension>
        </extensions>
      </trkpt>
      <trkpt lat="42.92496" lon="1.86533">
        <ele>529.7</ele>
        <time>2022-07-25T09:08:58.000Z</time>
        <extensions>
          <gpxtpx:TrackPointExtension xmlns:gpxtpx="http://www.garmin.com/xmlschemas/TrackPointExtension/v1">
            <gpxtpx:hr>146</gpxtpx:hr>
          </gpxtpx:TrackPointExtension>
        </extensions>
      </trkpt>
      <trkpt lat="42.925" lon="1.86525">
        <ele>529.6</ele>
        <time>2022-07-25T09:08:59.000Z</time>
        <extensions>
          <gpxtpx:TrackPointExtension xmlns:gpxtpx="http://www.garmin.com/xmlschemas/TrackPointExtension/v1">
            <gpxtpx:hr>147</gpxtpx:hr>
          </gpxtpx:TrackPointExtension>
        </extensions>
      </trkpt>
      <trkpt lat="42.92503" lon="1.86517">
        <ele>529.6</ele>
        <time>2022-07-25T09:09:00.000Z</time>
        <extensions>
          <gpxtpx:TrackPointExtension xmlns:gpxtpx="http://www.garmin.com/xmlschemas/TrackPointExtension/v1">
            <gpxtpx:hr>147</gpxtpx:hr>
          </gpxtpx:TrackPointExtension>
        </extensions>
      </trkpt>
      <trkpt lat="42.92506" lon="1.86509">
        <ele>529.5</ele>
        <time>2022-07-25T09:09:01.000Z</time>
        <extensions>
          <gpxtpx:TrackPointExtension xmlns:gpxtpx="http://www.garmin.com/xmlschemas/TrackPointExtension/v1">
            <gpxtpx:hr>147</gpxtpx:hr>
          </gpxtpx:TrackPointExtension>
        </extensions>
      </trkpt>
      <trkpt lat="42.9251" lon="1.86502">
        <ele>529.5</ele>
        <time>2022-07-25T09:09:02.000Z</time>
        <extensions>
          <gpxtpx:TrackPointExtension xmlns:gpxtpx="http://www.garmin.com/xmlschemas/TrackPointExtension/v1">
            <gpxtpx:hr>147</gpxtpx:hr>
          </gpxtpx:TrackPointExtension>
        </extensions>
      </trkpt>
      <trkpt lat="42.92513" lon="1.86494">
        <ele>529.4</ele>
        <time>2022-07-25T09:09:03.000Z</time>
        <extensions>
          <gpxtpx:TrackPointExtension xmlns:gpxtpx="http://www.garmin.com/xmlschemas/TrackPointExtension/v1">
            <gpxtpx:hr>147</gpxtpx:hr>
          </gpxtpx:TrackPointExtension>
        </extensions>
      </trkpt>
      <trkpt lat="42.92516" lon="1.86486">
        <ele>529.4</ele>
        <time>2022-07-25T09:09:04.000Z</time>
        <extensions>
          <gpxtpx:TrackPointExtension xmlns:gpxtpx="http://www.garmin.com/xmlschemas/TrackPointExtension/v1">
            <gpxtpx:hr>147</gpxtpx:hr>
          </gpxtpx:TrackPointExtension>
        </extensions>
      </trkpt>
      <trkpt lat="42.9252" lon="1.86479">
        <ele>529.3</ele>
        <time>2022-07-25T09:09:05.000Z</time>
        <extensions>
          <gpxtpx:TrackPointExtension xmlns:gpxtpx="http://www.garmin.com/xmlschemas/TrackPointExtension/v1">
            <gpxtpx:hr>148</gpxtpx:hr>
          </gpxtpx:TrackPointExtension>
        </extensions>
      </trkpt>
      <trkpt lat="42.92523" lon="1.86471">
        <ele>529.3</ele>
        <time>2022-07-25T09:09:06.000Z</time>
        <extensions>
          <gpxtpx:TrackPointExtension xmlns:gpxtpx="http://www.garmin.com/xmlschemas/TrackPointExtension/v1">
            <gpxtpx:hr>148</gpxtpx:hr>
          </gpxtpx:TrackPointExtension>
        </extensions>
      </trkpt>
      <trkpt lat="42.92527" lon="1.86465">
        <ele>529.3</ele>
        <time>2022-07-25T09:09:07.000Z</time>
        <extensions>
          <gpxtpx:TrackPointExtension xmlns:gpxtpx="http://www.garmin.com/xmlschemas/TrackPointExtension/v1">
            <gpxtpx:hr>148</gpxtpx:hr>
          </gpxtpx:TrackPointExtension>
        </extensions>
      </trkpt>
      <trkpt lat="42.9253" lon="1.86458">
        <ele>529.2</ele>
        <time>2022-07-25T09:09:08.000Z</time>
        <extensions>
          <gpxtpx:TrackPointExtension xmlns:gpxtpx="http://www.garmin.com/xmlschemas/TrackPointExtension/v1">
            <gpxtpx:hr>148</gpxtpx:hr>
          </gpxtpx:TrackPointExtension>
        </extensions>
      </trkpt>
      <trkpt lat="42.92533" lon="1.8645">
        <ele>529.2</ele>
        <time>2022-07-25T09:09:09.000Z</time>
        <extensions>
          <gpxtpx:TrackPointExtension xmlns:gpxtpx="http://www.garmin.com/xmlschemas/TrackPointExtension/v1">
            <gpxtpx:hr>148</gpxtpx:hr>
          </gpxtpx:TrackPointExtension>
        </extensions>
      </trkpt>
      <trkpt lat="42.92535" lon="1.86442">
        <ele>529.1</ele>
        <time>2022-07-25T09:09:10.000Z</time>
        <extensions>
          <gpxtpx:TrackPointExtension xmlns:gpxtpx="http://www.garmin.com/xmlschemas/TrackPointExtension/v1">
            <gpxtpx:hr>148</gpxtpx:hr>
          </gpxtpx:TrackPointExtension>
        </extensions>
      </trkpt>
      <trkpt lat="42.92539" lon="1.86435">
        <ele>529.1</ele>
        <time>2022-07-25T09:09:11.000Z</time>
        <extensions>
          <gpxtpx:TrackPointExtension xmlns:gpxtpx="http://www.garmin.com/xmlschemas/TrackPointExtension/v1">
            <gpxtpx:hr>148</gpxtpx:hr>
          </gpxtpx:TrackPointExtension>
        </extensions>
      </trkpt>
      <trkpt lat="42.92542" lon="1.86428">
        <ele>529</ele>
        <time>2022-07-25T09:09:12.000Z</time>
        <extensions>
          <gpxtpx:TrackPointExtension xmlns:gpxtpx="http://www.garmin.com/xmlschemas/TrackPointExtension/v1">
            <gpxtpx:hr>148</gpxtpx:hr>
          </gpxtpx:TrackPointExtension>
        </extensions>
      </trkpt>
      <trkpt lat="42.92545" lon="1.86421">
        <ele>529</ele>
        <time>2022-07-25T09:09:13.000Z</time>
        <extensions>
          <gpxtpx:TrackPointExtension xmlns:gpxtpx="http://www.garmin.com/xmlschemas/TrackPointExtension/v1">
            <gpxtpx:hr>149</gpxtpx:hr>
          </gpxtpx:TrackPointExtension>
        </extensions>
      </trkpt>
      <trkpt lat="42.92548" lon="1.86413">
        <ele>529</ele>
        <time>2022-07-25T09:09:14.000Z</time>
        <extensions>
          <gpxtpx:TrackPointExtension xmlns:gpxtpx="http://www.garmin.com/xmlschemas/TrackPointExtension/v1">
            <gpxtpx:hr>149</gpxtpx:hr>
          </gpxtpx:TrackPointExtension>
        </extensions>
      </trkpt>
      <trkpt lat="42.92551" lon="1.86406">
        <ele>528.9</ele>
        <time>2022-07-25T09:09:15.000Z</time>
        <extensions>
          <gpxtpx:TrackPointExtension xmlns:gpxtpx="http://www.garmin.com/xmlschemas/TrackPointExtension/v1">
            <gpxtpx:hr>149</gpxtpx:hr>
          </gpxtpx:TrackPointExtension>
        </extensions>
      </trkpt>
      <trkpt lat="42.92554" lon="1.864">
        <ele>528.9</ele>
        <time>2022-07-25T09:09:16.000Z</time>
        <extensions>
          <gpxtpx:TrackPointExtension xmlns:gpxtpx="http://www.garmin.com/xmlschemas/TrackPointExtension/v1">
            <gpxtpx:hr>149</gpxtpx:hr>
          </gpxtpx:TrackPointExtension>
        </extensions>
      </trkpt>
      <trkpt lat="42.92557" lon="1.86393">
        <ele>528.9</ele>
        <time>2022-07-25T09:09:17.000Z</time>
        <extensions>
          <gpxtpx:TrackPointExtension xmlns:gpxtpx="http://www.garmin.com/xmlschemas/TrackPointExtension/v1">
            <gpxtpx:hr>149</gpxtpx:hr>
          </gpxtpx:TrackPointExtension>
        </extensions>
      </trkpt>
      <trkpt lat="42.9256" lon="1.86386">
        <ele>528.8</ele>
        <time>2022-07-25T09:09:18.000Z</time>
        <extensions>
          <gpxtpx:TrackPointExtension xmlns:gpxtpx="http://www.garmin.com/xmlschemas/TrackPointExtension/v1">
            <gpxtpx:hr>149</gpxtpx:hr>
          </gpxtpx:TrackPointExtension>
        </extensions>
      </trkpt>
      <trkpt lat="42.92563" lon="1.86379">
        <ele>528.8</ele>
        <time>2022-07-25T09:09:19.000Z</time>
        <extensions>
          <gpxtpx:TrackPointExtension xmlns:gpxtpx="http://www.garmin.com/xmlschemas/TrackPointExtension/v1">
            <gpxtpx:hr>150</gpxtpx:hr>
          </gpxtpx:TrackPointExtension>
        </extensions>
      </trkpt>
      <trkpt lat="42.92567" lon="1.86372">
        <ele>528.8</ele>
        <time>2022-07-25T09:09:20.000Z</time>
        <extensions>
          <gpxtpx:TrackPointExtension xmlns:gpxtpx="http://www.garmin.com/xmlschemas/TrackPointExtension/v1">
            <gpxtpx:hr>150</gpxtpx:hr>
          </gpxtpx:TrackPointExtension>
        </extensions>
      </trkpt>
      <trkpt lat="42.9257" lon="1.86365">
        <ele>528.8</ele>
        <time>2022-07-25T09:09:21.000Z</time>
        <extensions>
          <gpxtpx:TrackPointExtension xmlns:gpxtpx="http://www.garmin.com/xmlschemas/TrackPointExtension/v1">
            <gpxtpx:hr>150</gpxtpx:hr>
          </gpxtpx:TrackPointExtension>
        </extensions>
      </trkpt>
      <trkpt lat="42.92573" lon="1.86358">
        <ele>528.7</ele>
        <time>2022-07-25T09:09:22.000Z</time>
        <extensions>
          <gpxtpx:TrackPointExtension xmlns:gpxtpx="http://www.garmin.com/xmlschemas/TrackPointExtension/v1">
            <gpxtpx:hr>150</gpxtpx:hr>
          </gpxtpx:TrackPointExtension>
        </extensions>
      </trkpt>
      <trkpt lat="42.92576" lon="1.86351">
        <ele>528.7</ele>
        <time>2022-07-25T09:09:23.000Z</time>
        <extensions>
          <gpxtpx:TrackPointExtension xmlns:gpxtpx="http://www.garmin.com/xmlschemas/TrackPointExtension/v1">
            <gpxtpx:hr>150</gpxtpx:hr>
          </gpxtpx:TrackPointExtension>
        </extensions>
      </trkpt>
      <trkpt lat="42.92579" lon="1.86344">
        <ele>528.7</ele>
        <time>2022-07-25T09:09:24.000Z</time>
        <extensions>
          <gpxtpx:TrackPointExtension xmlns:gpxtpx="http://www.garmin.com/xmlschemas/TrackPointExtension/v1">
            <gpxtpx:hr>151</gpxtpx:hr>
          </gpxtpx:TrackPointExtension>
        </extensions>
      </trkpt>
      <trkpt lat="42.92583" lon="1.86337">
        <ele>528.7</ele>
        <time>2022-07-25T09:09:25.000Z</time>
        <extensions>
          <gpxtpx:TrackPointExtension xmlns:gpxtpx="http://www.garmin.com/xmlschemas/TrackPointExtension/v1">
            <gpxtpx:hr>151</gpxtpx:hr>
          </gpxtpx:TrackPointExtension>
        </extensions>
      </trkpt>
      <trkpt lat="42.92586" lon="1.8633">
        <ele>528.7</ele>
        <time>2022-07-25T09:09:26.000Z</time>
        <extensions>
          <gpxtpx:TrackPointExtension xmlns:gpxtpx="http://www.garmin.com/xmlschemas/TrackPointExtension/v1">
            <gpxtpx:hr>152</gpxtpx:hr>
          </gpxtpx:TrackPointExtension>
        </extensions>
      </trkpt>
      <trkpt lat="42.92589" lon="1.86323">
        <ele>528.7</ele>
        <time>2022-07-25T09:09:27.000Z</time>
        <extensions>
          <gpxtpx:TrackPointExtension xmlns:gpxtpx="http://www.garmin.com/xmlschemas/TrackPointExtension/v1">
            <gpxtpx:hr>152</gpxtpx:hr>
          </gpxtpx:TrackPointExtension>
        </extensions>
      </trkpt>
      <trkpt lat="42.92592" lon="1.86316">
        <ele>528.6</ele>
        <time>2022-07-25T09:09:28.000Z</time>
        <extensions>
          <gpxtpx:TrackPointExtension xmlns:gpxtpx="http://www.garmin.com/xmlschemas/TrackPointExtension/v1">
            <gpxtpx:hr>152</gpxtpx:hr>
          </gpxtpx:TrackPointExtension>
        </extensions>
      </trkpt>
      <trkpt lat="42.92596" lon="1.86309">
        <ele>528.6</ele>
        <time>2022-07-25T09:09:29.000Z</time>
        <extensions>
          <gpxtpx:TrackPointExtension xmlns:gpxtpx="http://www.garmin.com/xmlschemas/TrackPointExtension/v1">
            <gpxtpx:hr>152</gpxtpx:hr>
          </gpxtpx:TrackPointExtension>
        </extensions>
      </trkpt>
      <trkpt lat="42.92599" lon="1.86301">
        <ele>528.6</ele>
        <time>2022-07-25T09:09:30.000Z</time>
        <extensions>
          <gpxtpx:TrackPointExtension xmlns:gpxtpx="http://www.garmin.com/xmlschemas/TrackPointExtension/v1">
            <gpxtpx:hr>153</gpxtpx:hr>
          </gpxtpx:TrackPointExtension>
        </extensions>
      </trkpt>
      <trkpt lat="42.92602" lon="1.86294">
        <ele>528.6</ele>
        <time>2022-07-25T09:09:31.000Z</time>
        <extensions>
          <gpxtpx:TrackPointExtension xmlns:gpxtpx="http://www.garmin.com/xmlschemas/TrackPointExtension/v1">
            <gpxtpx:hr>153</gpxtpx:hr>
          </gpxtpx:TrackPointExtension>
        </extensions>
      </trkpt>
      <trkpt lat="42.92605" lon="1.86287">
        <ele>528.6</ele>
        <time>2022-07-25T09:09:32.000Z</time>
        <extensions>
          <gpxtpx:TrackPointExtension xmlns:gpxtpx="http://www.garmin.com/xmlschemas/TrackPointExtension/v1">
            <gpxtpx:hr>153</gpxtpx:hr>
          </gpxtpx:TrackPointExtension>
        </extensions>
      </trkpt>
      <trkpt lat="42.92608" lon="1.8628">
        <ele>528.6</ele>
        <time>2022-07-25T09:09:33.000Z</time>
        <extensions>
          <gpxtpx:TrackPointExtension xmlns:gpxtpx="http://www.garmin.com/xmlschemas/TrackPointExtension/v1">
            <gpxtpx:hr>153</gpxtpx:hr>
          </gpxtpx:TrackPointExtension>
        </extensions>
      </trkpt>
      <trkpt lat="42.92611" lon="1.86274">
        <ele>528.6</ele>
        <time>2022-07-25T09:09:34.000Z</time>
        <extensions>
          <gpxtpx:TrackPointExtension xmlns:gpxtpx="http://www.garmin.com/xmlschemas/TrackPointExtension/v1">
            <gpxtpx:hr>153</gpxtpx:hr>
          </gpxtpx:TrackPointExtension>
        </extensions>
      </trkpt>
      <trkpt lat="42.92614" lon="1.86267">
        <ele>528.6</ele>
        <time>2022-07-25T09:09:35.000Z</time>
        <extensions>
          <gpxtpx:TrackPointExtension xmlns:gpxtpx="http://www.garmin.com/xmlschemas/TrackPointExtension/v1">
            <gpxtpx:hr>154</gpxtpx:hr>
          </gpxtpx:TrackPointExtension>
        </extensions>
      </trkpt>
      <trkpt lat="42.92617" lon="1.8626">
        <ele>528.6</ele>
        <time>2022-07-25T09:09:36.000Z</time>
        <extensions>
          <gpxtpx:TrackPointExtension xmlns:gpxtpx="http://www.garmin.com/xmlschemas/TrackPointExtension/v1">
            <gpxtpx:hr>154</gpxtpx:hr>
          </gpxtpx:TrackPointExtension>
        </extensions>
      </trkpt>
      <trkpt lat="42.92619" lon="1.86253">
        <ele>528.5</ele>
        <time>2022-07-25T09:09:37.000Z</time>
        <extensions>
          <gpxtpx:TrackPointExtension xmlns:gpxtpx="http://www.garmin.com/xmlschemas/TrackPointExtension/v1">
            <gpxtpx:hr>154</gpxtpx:hr>
          </gpxtpx:TrackPointExtension>
        </extensions>
      </trkpt>
      <trkpt lat="42.92623" lon="1.86246">
        <ele>528.5</ele>
        <time>2022-07-25T09:09:38.000Z</time>
        <extensions>
          <gpxtpx:TrackPointExtension xmlns:gpxtpx="http://www.garmin.com/xmlschemas/TrackPointExtension/v1">
            <gpxtpx:hr>153</gpxtpx:hr>
          </gpxtpx:TrackPointExtension>
        </extensions>
      </trkpt>
      <trkpt lat="42.92626" lon="1.86239">
        <ele>528.5</ele>
        <time>2022-07-25T09:09:39.000Z</time>
        <extensions>
          <gpxtpx:TrackPointExtension xmlns:gpxtpx="http://www.garmin.com/xmlschemas/TrackPointExtension/v1">
            <gpxtpx:hr>153</gpxtpx:hr>
          </gpxtpx:TrackPointExtension>
        </extensions>
      </trkpt>
      <trkpt lat="42.92629" lon="1.86231">
        <ele>528.4</ele>
        <time>2022-07-25T09:09:40.000Z</time>
        <extensions>
          <gpxtpx:TrackPointExtension xmlns:gpxtpx="http://www.garmin.com/xmlschemas/TrackPointExtension/v1">
            <gpxtpx:hr>153</gpxtpx:hr>
          </gpxtpx:TrackPointExtension>
        </extensions>
      </trkpt>
      <trkpt lat="42.92633" lon="1.86224">
        <ele>528.4</ele>
        <time>2022-07-25T09:09:41.000Z</time>
        <extensions>
          <gpxtpx:TrackPointExtension xmlns:gpxtpx="http://www.garmin.com/xmlschemas/TrackPointExtension/v1">
            <gpxtpx:hr>153</gpxtpx:hr>
          </gpxtpx:TrackPointExtension>
        </extensions>
      </trkpt>
      <trkpt lat="42.92636" lon="1.86217">
        <ele>528.3</ele>
        <time>2022-07-25T09:09:42.000Z</time>
        <extensions>
          <gpxtpx:TrackPointExtension xmlns:gpxtpx="http://www.garmin.com/xmlschemas/TrackPointExtension/v1">
            <gpxtpx:hr>152</gpxtpx:hr>
          </gpxtpx:TrackPointExtension>
        </extensions>
      </trkpt>
      <trkpt lat="42.9264" lon="1.8621">
        <ele>528.3</ele>
        <time>2022-07-25T09:09:43.000Z</time>
        <extensions>
          <gpxtpx:TrackPointExtension xmlns:gpxtpx="http://www.garmin.com/xmlschemas/TrackPointExtension/v1">
            <gpxtpx:hr>152</gpxtpx:hr>
          </gpxtpx:TrackPointExtension>
        </extensions>
      </trkpt>
      <trkpt lat="42.92644" lon="1.86202">
        <ele>528.3</ele>
        <time>2022-07-25T09:09:44.000Z</time>
        <extensions>
          <gpxtpx:TrackPointExtension xmlns:gpxtpx="http://www.garmin.com/xmlschemas/TrackPointExtension/v1">
            <gpxtpx:hr>151</gpxtpx:hr>
          </gpxtpx:TrackPointExtension>
        </extensions>
      </trkpt>
      <trkpt lat="42.92647" lon="1.86194">
        <ele>528.2</ele>
        <time>2022-07-25T09:09:45.000Z</time>
        <extensions>
          <gpxtpx:TrackPointExtension xmlns:gpxtpx="http://www.garmin.com/xmlschemas/TrackPointExtension/v1">
            <gpxtpx:hr>151</gpxtpx:hr>
          </gpxtpx:TrackPointExtension>
        </extensions>
      </trkpt>
      <trkpt lat="42.9265" lon="1.86186">
        <ele>528.1</ele>
        <time>2022-07-25T09:09:46.000Z</time>
        <extensions>
          <gpxtpx:TrackPointExtension xmlns:gpxtpx="http://www.garmin.com/xmlschemas/TrackPointExtension/v1">
            <gpxtpx:hr>151</gpxtpx:hr>
          </gpxtpx:TrackPointExtension>
        </extensions>
      </trkpt>
      <trkpt lat="42.92654" lon="1.86177">
        <ele>528</ele>
        <time>2022-07-25T09:09:47.000Z</time>
        <extensions>
          <gpxtpx:TrackPointExtension xmlns:gpxtpx="http://www.garmin.com/xmlschemas/TrackPointExtension/v1">
            <gpxtpx:hr>150</gpxtpx:hr>
          </gpxtpx:TrackPointExtension>
        </extensions>
      </trkpt>
      <trkpt lat="42.92657" lon="1.86169">
        <ele>527.9</ele>
        <time>2022-07-25T09:09:48.000Z</time>
        <extensions>
          <gpxtpx:TrackPointExtension xmlns:gpxtpx="http://www.garmin.com/xmlschemas/TrackPointExtension/v1">
            <gpxtpx:hr>150</gpxtpx:hr>
          </gpxtpx:TrackPointExtension>
        </extensions>
      </trkpt>
      <trkpt lat="42.92661" lon="1.8616">
        <ele>527.8</ele>
        <time>2022-07-25T09:09:49.000Z</time>
        <extensions>
          <gpxtpx:TrackPointExtension xmlns:gpxtpx="http://www.garmin.com/xmlschemas/TrackPointExtension/v1">
            <gpxtpx:hr>150</gpxtpx:hr>
          </gpxtpx:TrackPointExtension>
        </extensions>
      </trkpt>
      <trkpt lat="42.92665" lon="1.86151">
        <ele>527.7</ele>
        <time>2022-07-25T09:09:50.000Z</time>
        <extensions>
          <gpxtpx:TrackPointExtension xmlns:gpxtpx="http://www.garmin.com/xmlschemas/TrackPointExtension/v1">
            <gpxtpx:hr>150</gpxtpx:hr>
          </gpxtpx:TrackPointExtension>
        </extensions>
      </trkpt>
      <trkpt lat="42.92669" lon="1.86142">
        <ele>527.6</ele>
        <time>2022-07-25T09:09:51.000Z</time>
        <extensions>
          <gpxtpx:TrackPointExtension xmlns:gpxtpx="http://www.garmin.com/xmlschemas/TrackPointExtension/v1">
            <gpxtpx:hr>150</gpxtpx:hr>
          </gpxtpx:TrackPointExtension>
        </extensions>
      </trkpt>
      <trkpt lat="42.92672" lon="1.86133">
        <ele>527.5</ele>
        <time>2022-07-25T09:09:52.000Z</time>
        <extensions>
          <gpxtpx:TrackPointExtension xmlns:gpxtpx="http://www.garmin.com/xmlschemas/TrackPointExtension/v1">
            <gpxtpx:hr>150</gpxtpx:hr>
          </gpxtpx:TrackPointExtension>
        </extensions>
      </trkpt>
      <trkpt lat="42.92676" lon="1.86123">
        <ele>527.3</ele>
        <time>2022-07-25T09:09:53.000Z</time>
        <extensions>
          <gpxtpx:TrackPointExtension xmlns:gpxtpx="http://www.garmin.com/xmlschemas/TrackPointExtension/v1">
            <gpxtpx:hr>150</gpxtpx:hr>
          </gpxtpx:TrackPointExtension>
        </extensions>
      </trkpt>
      <trkpt lat="42.9268" lon="1.86114">
        <ele>527.2</ele>
        <time>2022-07-25T09:09:54.000Z</time>
        <extensions>
          <gpxtpx:TrackPointExtension xmlns:gpxtpx="http://www.garmin.com/xmlschemas/TrackPointExtension/v1">
            <gpxtpx:hr>150</gpxtpx:hr>
          </gpxtpx:TrackPointExtension>
        </extensions>
      </trkpt>
      <trkpt lat="42.92684" lon="1.86105">
        <ele>527</ele>
        <time>2022-07-25T09:09:55.000Z</time>
        <extensions>
          <gpxtpx:TrackPointExtension xmlns:gpxtpx="http://www.garmin.com/xmlschemas/TrackPointExtension/v1">
            <gpxtpx:hr>150</gpxtpx:hr>
          </gpxtpx:TrackPointExtension>
        </extensions>
      </trkpt>
      <trkpt lat="42.92689" lon="1.86096">
        <ele>526.9</ele>
        <time>2022-07-25T09:09:56.000Z</time>
        <extensions>
          <gpxtpx:TrackPointExtension xmlns:gpxtpx="http://www.garmin.com/xmlschemas/TrackPointExtension/v1">
            <gpxtpx:hr>150</gpxtpx:hr>
          </gpxtpx:TrackPointExtension>
        </extensions>
      </trkpt>
      <trkpt lat="42.92693" lon="1.86088">
        <ele>526.8</ele>
        <time>2022-07-25T09:09:57.000Z</time>
        <extensions>
          <gpxtpx:TrackPointExtension xmlns:gpxtpx="http://www.garmin.com/xmlschemas/TrackPointExtension/v1">
            <gpxtpx:hr>150</gpxtpx:hr>
          </gpxtpx:TrackPointExtension>
        </extensions>
      </trkpt>
      <trkpt lat="42.92698" lon="1.86079">
        <ele>526.7</ele>
        <time>2022-07-25T09:09:58.000Z</time>
        <extensions>
          <gpxtpx:TrackPointExtension xmlns:gpxtpx="http://www.garmin.com/xmlschemas/TrackPointExtension/v1">
            <gpxtpx:hr>150</gpxtpx:hr>
          </gpxtpx:TrackPointExtension>
        </extensions>
      </trkpt>
      <trkpt lat="42.92703" lon="1.86071">
        <ele>526.6</ele>
        <time>2022-07-25T09:09:59.000Z</time>
        <extensions>
          <gpxtpx:TrackPointExtension xmlns:gpxtpx="http://www.garmin.com/xmlschemas/TrackPointExtension/v1">
            <gpxtpx:hr>150</gpxtpx:hr>
          </gpxtpx:TrackPointExtension>
        </extensions>
      </trkpt>
      <trkpt lat="42.92708" lon="1.86063">
        <ele>526.4</ele>
        <time>2022-07-25T09:10:00.000Z</time>
        <extensions>
          <gpxtpx:TrackPointExtension xmlns:gpxtpx="http://www.garmin.com/xmlschemas/TrackPointExtension/v1">
            <gpxtpx:hr>150</gpxtpx:hr>
          </gpxtpx:TrackPointExtension>
        </extensions>
      </trkpt>
      <trkpt lat="42.92713" lon="1.86054">
        <ele>526.3</ele>
        <time>2022-07-25T09:10:01.000Z</time>
        <extensions>
          <gpxtpx:TrackPointExtension xmlns:gpxtpx="http://www.garmin.com/xmlschemas/TrackPointExtension/v1">
            <gpxtpx:hr>151</gpxtpx:hr>
          </gpxtpx:TrackPointExtension>
        </extensions>
      </trkpt>
      <trkpt lat="42.92718" lon="1.86046">
        <ele>526.1</ele>
        <time>2022-07-25T09:10:02.000Z</time>
        <extensions>
          <gpxtpx:TrackPointExtension xmlns:gpxtpx="http://www.garmin.com/xmlschemas/TrackPointExtension/v1">
            <gpxtpx:hr>151</gpxtpx:hr>
          </gpxtpx:TrackPointExtension>
        </extensions>
      </trkpt>
      <trkpt lat="42.92724" lon="1.86038">
        <ele>525.9</ele>
        <time>2022-07-25T09:10:03.000Z</time>
        <extensions>
          <gpxtpx:TrackPointExtension xmlns:gpxtpx="http://www.garmin.com/xmlschemas/TrackPointExtension/v1">
            <gpxtpx:hr>151</gpxtpx:hr>
          </gpxtpx:TrackPointExtension>
        </extensions>
      </trkpt>
      <trkpt lat="42.92729" lon="1.8603">
        <ele>525.7</ele>
        <time>2022-07-25T09:10:04.000Z</time>
        <extensions>
          <gpxtpx:TrackPointExtension xmlns:gpxtpx="http://www.garmin.com/xmlschemas/TrackPointExtension/v1">
            <gpxtpx:hr>151</gpxtpx:hr>
          </gpxtpx:TrackPointExtension>
        </extensions>
      </trkpt>
      <trkpt lat="42.92734" lon="1.86022">
        <ele>525.6</ele>
        <time>2022-07-25T09:10:05.000Z</time>
        <extensions>
          <gpxtpx:TrackPointExtension xmlns:gpxtpx="http://www.garmin.com/xmlschemas/TrackPointExtension/v1">
            <gpxtpx:hr>151</gpxtpx:hr>
          </gpxtpx:TrackPointExtension>
        </extensions>
      </trkpt>
      <trkpt lat="42.92739" lon="1.86014">
        <ele>525.4</ele>
        <time>2022-07-25T09:10:06.000Z</time>
        <extensions>
          <gpxtpx:TrackPointExtension xmlns:gpxtpx="http://www.garmin.com/xmlschemas/TrackPointExtension/v1">
            <gpxtpx:hr>151</gpxtpx:hr>
          </gpxtpx:TrackPointExtension>
        </extensions>
      </trkpt>
      <trkpt lat="42.92745" lon="1.86006">
        <ele>525.2</ele>
        <time>2022-07-25T09:10:07.000Z</time>
        <extensions>
          <gpxtpx:TrackPointExtension xmlns:gpxtpx="http://www.garmin.com/xmlschemas/TrackPointExtension/v1">
            <gpxtpx:hr>151</gpxtpx:hr>
          </gpxtpx:TrackPointExtension>
        </extensions>
      </trkpt>
      <trkpt lat="42.92751" lon="1.85998">
        <ele>525.1</ele>
        <time>2022-07-25T09:10:08.000Z</time>
        <extensions>
          <gpxtpx:TrackPointExtension xmlns:gpxtpx="http://www.garmin.com/xmlschemas/TrackPointExtension/v1">
            <gpxtpx:hr>151</gpxtpx:hr>
          </gpxtpx:TrackPointExtension>
        </extensions>
      </trkpt>
      <trkpt lat="42.92757" lon="1.85992">
        <ele>524.9</ele>
        <time>2022-07-25T09:10:09.000Z</time>
        <extensions>
          <gpxtpx:TrackPointExtension xmlns:gpxtpx="http://www.garmin.com/xmlschemas/TrackPointExtension/v1">
            <gpxtpx:hr>151</gpxtpx:hr>
          </gpxtpx:TrackPointExtension>
        </extensions>
      </trkpt>
      <trkpt lat="42.92763" lon="1.85983">
        <ele>524.7</ele>
        <time>2022-07-25T09:10:10.000Z</time>
        <extensions>
          <gpxtpx:TrackPointExtension xmlns:gpxtpx="http://www.garmin.com/xmlschemas/TrackPointExtension/v1">
            <gpxtpx:hr>151</gpxtpx:hr>
          </gpxtpx:TrackPointExtension>
        </extensions>
      </trkpt>
      <trkpt lat="42.92768" lon="1.85976">
        <ele>524.6</ele>
        <time>2022-07-25T09:10:11.000Z</time>
        <extensions>
          <gpxtpx:TrackPointExtension xmlns:gpxtpx="http://www.garmin.com/xmlschemas/TrackPointExtension/v1">
            <gpxtpx:hr>151</gpxtpx:hr>
          </gpxtpx:TrackPointExtension>
        </extensions>
      </trkpt>
      <trkpt lat="42.92772" lon="1.85968">
        <ele>524.4</ele>
        <time>2022-07-25T09:10:12.000Z</time>
        <extensions>
          <gpxtpx:TrackPointExtension xmlns:gpxtpx="http://www.garmin.com/xmlschemas/TrackPointExtension/v1">
            <gpxtpx:hr>150</gpxtpx:hr>
          </gpxtpx:TrackPointExtension>
        </extensions>
      </trkpt>
      <trkpt lat="42.92778" lon="1.8596">
        <ele>524.2</ele>
        <time>2022-07-25T09:10:13.000Z</time>
        <extensions>
          <gpxtpx:TrackPointExtension xmlns:gpxtpx="http://www.garmin.com/xmlschemas/TrackPointExtension/v1">
            <gpxtpx:hr>150</gpxtpx:hr>
          </gpxtpx:TrackPointExtension>
        </extensions>
      </trkpt>
      <trkpt lat="42.92783" lon="1.85952">
        <ele>524</ele>
        <time>2022-07-25T09:10:14.000Z</time>
        <extensions>
          <gpxtpx:TrackPointExtension xmlns:gpxtpx="http://www.garmin.com/xmlschemas/TrackPointExtension/v1">
            <gpxtpx:hr>149</gpxtpx:hr>
          </gpxtpx:TrackPointExtension>
        </extensions>
      </trkpt>
      <trkpt lat="42.92787" lon="1.85944">
        <ele>523.7</ele>
        <time>2022-07-25T09:10:15.000Z</time>
        <extensions>
          <gpxtpx:TrackPointExtension xmlns:gpxtpx="http://www.garmin.com/xmlschemas/TrackPointExtension/v1">
            <gpxtpx:hr>149</gpxtpx:hr>
          </gpxtpx:TrackPointExtension>
        </extensions>
      </trkpt>
      <trkpt lat="42.92792" lon="1.85936">
        <ele>523.5</ele>
        <time>2022-07-25T09:10:16.000Z</time>
        <extensions>
          <gpxtpx:TrackPointExtension xmlns:gpxtpx="http://www.garmin.com/xmlschemas/TrackPointExtension/v1">
            <gpxtpx:hr>148</gpxtpx:hr>
          </gpxtpx:TrackPointExtension>
        </extensions>
      </trkpt>
      <trkpt lat="42.92797" lon="1.85927">
        <ele>523.3</ele>
        <time>2022-07-25T09:10:17.000Z</time>
        <extensions>
          <gpxtpx:TrackPointExtension xmlns:gpxtpx="http://www.garmin.com/xmlschemas/TrackPointExtension/v1">
            <gpxtpx:hr>147</gpxtpx:hr>
          </gpxtpx:TrackPointExtension>
        </extensions>
      </trkpt>
      <trkpt lat="42.92802" lon="1.85919">
        <ele>523.1</ele>
        <time>2022-07-25T09:10:18.000Z</time>
        <extensions>
          <gpxtpx:TrackPointExtension xmlns:gpxtpx="http://www.garmin.com/xmlschemas/TrackPointExtension/v1">
            <gpxtpx:hr>147</gpxtpx:hr>
          </gpxtpx:TrackPointExtension>
        </extensions>
      </trkpt>
      <trkpt lat="42.92806" lon="1.85911">
        <ele>523</ele>
        <time>2022-07-25T09:10:19.000Z</time>
        <extensions>
          <gpxtpx:TrackPointExtension xmlns:gpxtpx="http://www.garmin.com/xmlschemas/TrackPointExtension/v1">
            <gpxtpx:hr>146</gpxtpx:hr>
          </gpxtpx:TrackPointExtension>
        </extensions>
      </trkpt>
      <trkpt lat="42.92811" lon="1.85903">
        <ele>522.8</ele>
        <time>2022-07-25T09:10:20.000Z</time>
        <extensions>
          <gpxtpx:TrackPointExtension xmlns:gpxtpx="http://www.garmin.com/xmlschemas/TrackPointExtension/v1">
            <gpxtpx:hr>146</gpxtpx:hr>
          </gpxtpx:TrackPointExtension>
        </extensions>
      </trkpt>
      <trkpt lat="42.92816" lon="1.85894">
        <ele>522.6</ele>
        <time>2022-07-25T09:10:21.000Z</time>
        <extensions>
          <gpxtpx:TrackPointExtension xmlns:gpxtpx="http://www.garmin.com/xmlschemas/TrackPointExtension/v1">
            <gpxtpx:hr>146</gpxtpx:hr>
          </gpxtpx:TrackPointExtension>
        </extensions>
      </trkpt>
      <trkpt lat="42.92821" lon="1.85886">
        <ele>522.5</ele>
        <time>2022-07-25T09:10:22.000Z</time>
        <extensions>
          <gpxtpx:TrackPointExtension xmlns:gpxtpx="http://www.garmin.com/xmlschemas/TrackPointExtension/v1">
            <gpxtpx:hr>145</gpxtpx:hr>
          </gpxtpx:TrackPointExtension>
        </extensions>
      </trkpt>
      <trkpt lat="42.92825" lon="1.85879">
        <ele>522.4</ele>
        <time>2022-07-25T09:10:23.000Z</time>
        <extensions>
          <gpxtpx:TrackPointExtension xmlns:gpxtpx="http://www.garmin.com/xmlschemas/TrackPointExtension/v1">
            <gpxtpx:hr>145</gpxtpx:hr>
          </gpxtpx:TrackPointExtension>
        </extensions>
      </trkpt>
      <trkpt lat="42.9283" lon="1.85871">
        <ele>522.2</ele>
        <time>2022-07-25T09:10:24.000Z</time>
        <extensions>
          <gpxtpx:TrackPointExtension xmlns:gpxtpx="http://www.garmin.com/xmlschemas/TrackPointExtension/v1">
            <gpxtpx:hr>145</gpxtpx:hr>
          </gpxtpx:TrackPointExtension>
        </extensions>
      </trkpt>
      <trkpt lat="42.92835" lon="1.85863">
        <ele>522.1</ele>
        <time>2022-07-25T09:10:25.000Z</time>
        <extensions>
          <gpxtpx:TrackPointExtension xmlns:gpxtpx="http://www.garmin.com/xmlschemas/TrackPointExtension/v1">
            <gpxtpx:hr>145</gpxtpx:hr>
          </gpxtpx:TrackPointExtension>
        </extensions>
      </trkpt>
      <trkpt lat="42.9284" lon="1.85854">
        <ele>522</ele>
        <time>2022-07-25T09:10:26.000Z</time>
        <extensions>
          <gpxtpx:TrackPointExtension xmlns:gpxtpx="http://www.garmin.com/xmlschemas/TrackPointExtension/v1">
            <gpxtpx:hr>145</gpxtpx:hr>
          </gpxtpx:TrackPointExtension>
        </extensions>
      </trkpt>
      <trkpt lat="42.92845" lon="1.85845">
        <ele>521.9</ele>
        <time>2022-07-25T09:10:27.000Z</time>
        <extensions>
          <gpxtpx:TrackPointExtension xmlns:gpxtpx="http://www.garmin.com/xmlschemas/TrackPointExtension/v1">
            <gpxtpx:hr>146</gpxtpx:hr>
          </gpxtpx:TrackPointExtension>
        </extensions>
      </trkpt>
      <trkpt lat="42.9285" lon="1.85837">
        <ele>521.8</ele>
        <time>2022-07-25T09:10:28.000Z</time>
        <extensions>
          <gpxtpx:TrackPointExtension xmlns:gpxtpx="http://www.garmin.com/xmlschemas/TrackPointExtension/v1">
            <gpxtpx:hr>146</gpxtpx:hr>
          </gpxtpx:TrackPointExtension>
        </extensions>
      </trkpt>
      <trkpt lat="42.92855" lon="1.85828">
        <ele>521.6</ele>
        <time>2022-07-25T09:10:29.000Z</time>
        <extensions>
          <gpxtpx:TrackPointExtension xmlns:gpxtpx="http://www.garmin.com/xmlschemas/TrackPointExtension/v1">
            <gpxtpx:hr>146</gpxtpx:hr>
          </gpxtpx:TrackPointExtension>
        </extensions>
      </trkpt>
      <trkpt lat="42.92861" lon="1.8582">
        <ele>521.5</ele>
        <time>2022-07-25T09:10:30.000Z</time>
        <extensions>
          <gpxtpx:TrackPointExtension xmlns:gpxtpx="http://www.garmin.com/xmlschemas/TrackPointExtension/v1">
            <gpxtpx:hr>147</gpxtpx:hr>
          </gpxtpx:TrackPointExtension>
        </extensions>
      </trkpt>
      <trkpt lat="42.92866" lon="1.85811">
        <ele>521.3</ele>
        <time>2022-07-25T09:10:31.000Z</time>
        <extensions>
          <gpxtpx:TrackPointExtension xmlns:gpxtpx="http://www.garmin.com/xmlschemas/TrackPointExtension/v1">
            <gpxtpx:hr>147</gpxtpx:hr>
          </gpxtpx:TrackPointExtension>
        </extensions>
      </trkpt>
      <trkpt lat="42.92871" lon="1.85803">
        <ele>521.2</ele>
        <time>2022-07-25T09:10:32.000Z</time>
        <extensions>
          <gpxtpx:TrackPointExtension xmlns:gpxtpx="http://www.garmin.com/xmlschemas/TrackPointExtension/v1">
            <gpxtpx:hr>148</gpxtpx:hr>
          </gpxtpx:TrackPointExtension>
        </extensions>
      </trkpt>
      <trkpt lat="42.92876" lon="1.85794">
        <ele>521.1</ele>
        <time>2022-07-25T09:10:33.000Z</time>
        <extensions>
          <gpxtpx:TrackPointExtension xmlns:gpxtpx="http://www.garmin.com/xmlschemas/TrackPointExtension/v1">
            <gpxtpx:hr>148</gpxtpx:hr>
          </gpxtpx:TrackPointExtension>
        </extensions>
      </trkpt>
      <trkpt lat="42.92881" lon="1.85785">
        <ele>521</ele>
        <time>2022-07-25T09:10:34.000Z</time>
        <extensions>
          <gpxtpx:TrackPointExtension xmlns:gpxtpx="http://www.garmin.com/xmlschemas/TrackPointExtension/v1">
            <gpxtpx:hr>148</gpxtpx:hr>
          </gpxtpx:TrackPointExtension>
        </extensions>
      </trkpt>
      <trkpt lat="42.92886" lon="1.85777">
        <ele>520.9</ele>
        <time>2022-07-25T09:10:35.000Z</time>
        <extensions>
          <gpxtpx:TrackPointExtension xmlns:gpxtpx="http://www.garmin.com/xmlschemas/TrackPointExtension/v1">
            <gpxtpx:hr>148</gpxtpx:hr>
          </gpxtpx:TrackPointExtension>
        </extensions>
      </trkpt>
      <trkpt lat="42.92892" lon="1.85769">
        <ele>520.8</ele>
        <time>2022-07-25T09:10:36.000Z</time>
        <extensions>
          <gpxtpx:TrackPointExtension xmlns:gpxtpx="http://www.garmin.com/xmlschemas/TrackPointExtension/v1">
            <gpxtpx:hr>149</gpxtpx:hr>
          </gpxtpx:TrackPointExtension>
        </extensions>
      </trkpt>
      <trkpt lat="42.92897" lon="1.85761">
        <ele>520.7</ele>
        <time>2022-07-25T09:10:37.000Z</time>
        <extensions>
          <gpxtpx:TrackPointExtension xmlns:gpxtpx="http://www.garmin.com/xmlschemas/TrackPointExtension/v1">
            <gpxtpx:hr>149</gpxtpx:hr>
          </gpxtpx:TrackPointExtension>
        </extensions>
      </trkpt>
      <trkpt lat="42.92901" lon="1.85753">
        <ele>520.6</ele>
        <time>2022-07-25T09:10:38.000Z</time>
        <extensions>
          <gpxtpx:TrackPointExtension xmlns:gpxtpx="http://www.garmin.com/xmlschemas/TrackPointExtension/v1">
            <gpxtpx:hr>149</gpxtpx:hr>
          </gpxtpx:TrackPointExtension>
        </extensions>
      </trkpt>
      <trkpt lat="42.92906" lon="1.85745">
        <ele>520.6</ele>
        <time>2022-07-25T09:10:39.000Z</time>
        <extensions>
          <gpxtpx:TrackPointExtension xmlns:gpxtpx="http://www.garmin.com/xmlschemas/TrackPointExtension/v1">
            <gpxtpx:hr>149</gpxtpx:hr>
          </gpxtpx:TrackPointExtension>
        </extensions>
      </trkpt>
      <trkpt lat="42.92911" lon="1.85737">
        <ele>520.5</ele>
        <time>2022-07-25T09:10:40.000Z</time>
        <extensions>
          <gpxtpx:TrackPointExtension xmlns:gpxtpx="http://www.garmin.com/xmlschemas/TrackPointExtension/v1">
            <gpxtpx:hr>149</gpxtpx:hr>
          </gpxtpx:TrackPointExtension>
        </extensions>
      </trkpt>
      <trkpt lat="42.92915" lon="1.8573">
        <ele>520.4</ele>
        <time>2022-07-25T09:10:41.000Z</time>
        <extensions>
          <gpxtpx:TrackPointExtension xmlns:gpxtpx="http://www.garmin.com/xmlschemas/TrackPointExtension/v1">
            <gpxtpx:hr>149</gpxtpx:hr>
          </gpxtpx:TrackPointExtension>
        </extensions>
      </trkpt>
      <trkpt lat="42.9292" lon="1.85722">
        <ele>520.3</ele>
        <time>2022-07-25T09:10:42.000Z</time>
        <extensions>
          <gpxtpx:TrackPointExtension xmlns:gpxtpx="http://www.garmin.com/xmlschemas/TrackPointExtension/v1">
            <gpxtpx:hr>149</gpxtpx:hr>
          </gpxtpx:TrackPointExtension>
        </extensions>
      </trkpt>
      <trkpt lat="42.92924" lon="1.85715">
        <ele>520.3</ele>
        <time>2022-07-25T09:10:43.000Z</time>
        <extensions>
          <gpxtpx:TrackPointExtension xmlns:gpxtpx="http://www.garmin.com/xmlschemas/TrackPointExtension/v1">
            <gpxtpx:hr>149</gpxtpx:hr>
          </gpxtpx:TrackPointExtension>
        </extensions>
      </trkpt>
      <trkpt lat="42.92929" lon="1.85707">
        <ele>520.2</ele>
        <time>2022-07-25T09:10:44.000Z</time>
        <extensions>
          <gpxtpx:TrackPointExtension xmlns:gpxtpx="http://www.garmin.com/xmlschemas/TrackPointExtension/v1">
            <gpxtpx:hr>150</gpxtpx:hr>
          </gpxtpx:TrackPointExtension>
        </extensions>
      </trkpt>
      <trkpt lat="42.92933" lon="1.857">
        <ele>520.2</ele>
        <time>2022-07-25T09:10:45.000Z</time>
        <extensions>
          <gpxtpx:TrackPointExtension xmlns:gpxtpx="http://www.garmin.com/xmlschemas/TrackPointExtension/v1">
            <gpxtpx:hr>150</gpxtpx:hr>
          </gpxtpx:TrackPointExtension>
        </extensions>
      </trkpt>
      <trkpt lat="42.92937" lon="1.85691">
        <ele>520.1</ele>
        <time>2022-07-25T09:10:46.000Z</time>
        <extensions>
          <gpxtpx:TrackPointExtension xmlns:gpxtpx="http://www.garmin.com/xmlschemas/TrackPointExtension/v1">
            <gpxtpx:hr>150</gpxtpx:hr>
          </gpxtpx:TrackPointExtension>
        </extensions>
      </trkpt>
      <trkpt lat="42.92941" lon="1.85683">
        <ele>520</ele>
        <time>2022-07-25T09:10:47.000Z</time>
        <extensions>
          <gpxtpx:TrackPointExtension xmlns:gpxtpx="http://www.garmin.com/xmlschemas/TrackPointExtension/v1">
            <gpxtpx:hr>150</gpxtpx:hr>
          </gpxtpx:TrackPointExtension>
        </extensions>
      </trkpt>
      <trkpt lat="42.92945" lon="1.85675">
        <ele>519.9</ele>
        <time>2022-07-25T09:10:48.000Z</time>
        <extensions>
          <gpxtpx:TrackPointExtension xmlns:gpxtpx="http://www.garmin.com/xmlschemas/TrackPointExtension/v1">
            <gpxtpx:hr>150</gpxtpx:hr>
          </gpxtpx:TrackPointExtension>
        </extensions>
      </trkpt>
      <trkpt lat="42.9295" lon="1.85668">
        <ele>519.8</ele>
        <time>2022-07-25T09:10:49.000Z</time>
        <extensions>
          <gpxtpx:TrackPointExtension xmlns:gpxtpx="http://www.garmin.com/xmlschemas/TrackPointExtension/v1">
            <gpxtpx:hr>150</gpxtpx:hr>
          </gpxtpx:TrackPointExtension>
        </extensions>
      </trkpt>
      <trkpt lat="42.92954" lon="1.8566">
        <ele>519.7</ele>
        <time>2022-07-25T09:10:50.000Z</time>
        <extensions>
          <gpxtpx:TrackPointExtension xmlns:gpxtpx="http://www.garmin.com/xmlschemas/TrackPointExtension/v1">
            <gpxtpx:hr>150</gpxtpx:hr>
          </gpxtpx:TrackPointExtension>
        </extensions>
      </trkpt>
      <trkpt lat="42.92959" lon="1.85653">
        <ele>519.6</ele>
        <time>2022-07-25T09:10:51.000Z</time>
        <extensions>
          <gpxtpx:TrackPointExtension xmlns:gpxtpx="http://www.garmin.com/xmlschemas/TrackPointExtension/v1">
            <gpxtpx:hr>150</gpxtpx:hr>
          </gpxtpx:TrackPointExtension>
        </extensions>
      </trkpt>
      <trkpt lat="42.92963" lon="1.85645">
        <ele>519.6</ele>
        <time>2022-07-25T09:10:52.000Z</time>
        <extensions>
          <gpxtpx:TrackPointExtension xmlns:gpxtpx="http://www.garmin.com/xmlschemas/TrackPointExtension/v1">
            <gpxtpx:hr>150</gpxtpx:hr>
          </gpxtpx:TrackPointExtension>
        </extensions>
      </trkpt>
      <trkpt lat="42.92967" lon="1.85638">
        <ele>519.5</ele>
        <time>2022-07-25T09:10:53.000Z</time>
        <extensions>
          <gpxtpx:TrackPointExtension xmlns:gpxtpx="http://www.garmin.com/xmlschemas/TrackPointExtension/v1">
            <gpxtpx:hr>150</gpxtpx:hr>
          </gpxtpx:TrackPointExtension>
        </extensions>
      </trkpt>
      <trkpt lat="42.92971" lon="1.8563">
        <ele>519.4</ele>
        <time>2022-07-25T09:10:54.000Z</time>
        <extensions>
          <gpxtpx:TrackPointExtension xmlns:gpxtpx="http://www.garmin.com/xmlschemas/TrackPointExtension/v1">
            <gpxtpx:hr>150</gpxtpx:hr>
          </gpxtpx:TrackPointExtension>
        </extensions>
      </trkpt>
      <trkpt lat="42.92974" lon="1.85623">
        <ele>519.4</ele>
        <time>2022-07-25T09:10:55.000Z</time>
        <extensions>
          <gpxtpx:TrackPointExtension xmlns:gpxtpx="http://www.garmin.com/xmlschemas/TrackPointExtension/v1">
            <gpxtpx:hr>150</gpxtpx:hr>
          </gpxtpx:TrackPointExtension>
        </extensions>
      </trkpt>
      <trkpt lat="42.92977" lon="1.85615">
        <ele>519.3</ele>
        <time>2022-07-25T09:10:56.000Z</time>
        <extensions>
          <gpxtpx:TrackPointExtension xmlns:gpxtpx="http://www.garmin.com/xmlschemas/TrackPointExtension/v1">
            <gpxtpx:hr>150</gpxtpx:hr>
          </gpxtpx:TrackPointExtension>
        </extensions>
      </trkpt>
      <trkpt lat="42.92981" lon="1.85606">
        <ele>519.3</ele>
        <time>2022-07-25T09:10:57.000Z</time>
        <extensions>
          <gpxtpx:TrackPointExtension xmlns:gpxtpx="http://www.garmin.com/xmlschemas/TrackPointExtension/v1">
            <gpxtpx:hr>150</gpxtpx:hr>
          </gpxtpx:TrackPointExtension>
        </extensions>
      </trkpt>
      <trkpt lat="42.92984" lon="1.85597">
        <ele>519.2</ele>
        <time>2022-07-25T09:10:58.000Z</time>
        <extensions>
          <gpxtpx:TrackPointExtension xmlns:gpxtpx="http://www.garmin.com/xmlschemas/TrackPointExtension/v1">
            <gpxtpx:hr>150</gpxtpx:hr>
          </gpxtpx:TrackPointExtension>
        </extensions>
      </trkpt>
      <trkpt lat="42.92987" lon="1.85589">
        <ele>519.2</ele>
        <time>2022-07-25T09:10:59.000Z</time>
        <extensions>
          <gpxtpx:TrackPointExtension xmlns:gpxtpx="http://www.garmin.com/xmlschemas/TrackPointExtension/v1">
            <gpxtpx:hr>151</gpxtpx:hr>
          </gpxtpx:TrackPointExtension>
        </extensions>
      </trkpt>
      <trkpt lat="42.9299" lon="1.8558">
        <ele>519.1</ele>
        <time>2022-07-25T09:11:00.000Z</time>
        <extensions>
          <gpxtpx:TrackPointExtension xmlns:gpxtpx="http://www.garmin.com/xmlschemas/TrackPointExtension/v1">
            <gpxtpx:hr>151</gpxtpx:hr>
          </gpxtpx:TrackPointExtension>
        </extensions>
      </trkpt>
      <trkpt lat="42.92993" lon="1.85571">
        <ele>519.1</ele>
        <time>2022-07-25T09:11:01.000Z</time>
        <extensions>
          <gpxtpx:TrackPointExtension xmlns:gpxtpx="http://www.garmin.com/xmlschemas/TrackPointExtension/v1">
            <gpxtpx:hr>151</gpxtpx:hr>
          </gpxtpx:TrackPointExtension>
        </extensions>
      </trkpt>
      <trkpt lat="42.92996" lon="1.85562">
        <ele>519.1</ele>
        <time>2022-07-25T09:11:02.000Z</time>
        <extensions>
          <gpxtpx:TrackPointExtension xmlns:gpxtpx="http://www.garmin.com/xmlschemas/TrackPointExtension/v1">
            <gpxtpx:hr>151</gpxtpx:hr>
          </gpxtpx:TrackPointExtension>
        </extensions>
      </trkpt>
      <trkpt lat="42.92999" lon="1.85554">
        <ele>519</ele>
        <time>2022-07-25T09:11:03.000Z</time>
        <extensions>
          <gpxtpx:TrackPointExtension xmlns:gpxtpx="http://www.garmin.com/xmlschemas/TrackPointExtension/v1">
            <gpxtpx:hr>151</gpxtpx:hr>
          </gpxtpx:TrackPointExtension>
        </extensions>
      </trkpt>
      <trkpt lat="42.93002" lon="1.85546">
        <ele>519</ele>
        <time>2022-07-25T09:11:04.000Z</time>
        <extensions>
          <gpxtpx:TrackPointExtension xmlns:gpxtpx="http://www.garmin.com/xmlschemas/TrackPointExtension/v1">
            <gpxtpx:hr>151</gpxtpx:hr>
          </gpxtpx:TrackPointExtension>
        </extensions>
      </trkpt>
      <trkpt lat="42.93004" lon="1.85538">
        <ele>519</ele>
        <time>2022-07-25T09:11:05.000Z</time>
        <extensions>
          <gpxtpx:TrackPointExtension xmlns:gpxtpx="http://www.garmin.com/xmlschemas/TrackPointExtension/v1">
            <gpxtpx:hr>151</gpxtpx:hr>
          </gpxtpx:TrackPointExtension>
        </extensions>
      </trkpt>
      <trkpt lat="42.93006" lon="1.85531">
        <ele>518.9</ele>
        <time>2022-07-25T09:11:06.000Z</time>
        <extensions>
          <gpxtpx:TrackPointExtension xmlns:gpxtpx="http://www.garmin.com/xmlschemas/TrackPointExtension/v1">
            <gpxtpx:hr>151</gpxtpx:hr>
          </gpxtpx:TrackPointExtension>
        </extensions>
      </trkpt>
      <trkpt lat="42.93009" lon="1.85523">
        <ele>518.9</ele>
        <time>2022-07-25T09:11:07.000Z</time>
        <extensions>
          <gpxtpx:TrackPointExtension xmlns:gpxtpx="http://www.garmin.com/xmlschemas/TrackPointExtension/v1">
            <gpxtpx:hr>151</gpxtpx:hr>
          </gpxtpx:TrackPointExtension>
        </extensions>
      </trkpt>
      <trkpt lat="42.93011" lon="1.85516">
        <ele>518.9</ele>
        <time>2022-07-25T09:11:08.000Z</time>
        <extensions>
          <gpxtpx:TrackPointExtension xmlns:gpxtpx="http://www.garmin.com/xmlschemas/TrackPointExtension/v1">
            <gpxtpx:hr>151</gpxtpx:hr>
          </gpxtpx:TrackPointExtension>
        </extensions>
      </trkpt>
      <trkpt lat="42.93014" lon="1.85508">
        <ele>518.9</ele>
        <time>2022-07-25T09:11:09.000Z</time>
        <extensions>
          <gpxtpx:TrackPointExtension xmlns:gpxtpx="http://www.garmin.com/xmlschemas/TrackPointExtension/v1">
            <gpxtpx:hr>151</gpxtpx:hr>
          </gpxtpx:TrackPointExtension>
        </extensions>
      </trkpt>
      <trkpt lat="42.93017" lon="1.85501">
        <ele>518.8</ele>
        <time>2022-07-25T09:11:10.000Z</time>
        <extensions>
          <gpxtpx:TrackPointExtension xmlns:gpxtpx="http://www.garmin.com/xmlschemas/TrackPointExtension/v1">
            <gpxtpx:hr>151</gpxtpx:hr>
          </gpxtpx:TrackPointExtension>
        </extensions>
      </trkpt>
      <trkpt lat="42.9302" lon="1.85494">
        <ele>518.8</ele>
        <time>2022-07-25T09:11:11.000Z</time>
        <extensions>
          <gpxtpx:TrackPointExtension xmlns:gpxtpx="http://www.garmin.com/xmlschemas/TrackPointExtension/v1">
            <gpxtpx:hr>150</gpxtpx:hr>
          </gpxtpx:TrackPointExtension>
        </extensions>
      </trkpt>
      <trkpt lat="42.93022" lon="1.85487">
        <ele>518.8</ele>
        <time>2022-07-25T09:11:12.000Z</time>
        <extensions>
          <gpxtpx:TrackPointExtension xmlns:gpxtpx="http://www.garmin.com/xmlschemas/TrackPointExtension/v1">
            <gpxtpx:hr>150</gpxtpx:hr>
          </gpxtpx:TrackPointExtension>
        </extensions>
      </trkpt>
      <trkpt lat="42.93025" lon="1.85479">
        <ele>518.8</ele>
        <time>2022-07-25T09:11:13.000Z</time>
        <extensions>
          <gpxtpx:TrackPointExtension xmlns:gpxtpx="http://www.garmin.com/xmlschemas/TrackPointExtension/v1">
            <gpxtpx:hr>150</gpxtpx:hr>
          </gpxtpx:TrackPointExtension>
        </extensions>
      </trkpt>
      <trkpt lat="42.93027" lon="1.85472">
        <ele>518.8</ele>
        <time>2022-07-25T09:11:14.000Z</time>
        <extensions>
          <gpxtpx:TrackPointExtension xmlns:gpxtpx="http://www.garmin.com/xmlschemas/TrackPointExtension/v1">
            <gpxtpx:hr>150</gpxtpx:hr>
          </gpxtpx:TrackPointExtension>
        </extensions>
      </trkpt>
      <trkpt lat="42.93031" lon="1.85464">
        <ele>518.7</ele>
        <time>2022-07-25T09:11:15.000Z</time>
        <extensions>
          <gpxtpx:TrackPointExtension xmlns:gpxtpx="http://www.garmin.com/xmlschemas/TrackPointExtension/v1">
            <gpxtpx:hr>149</gpxtpx:hr>
          </gpxtpx:TrackPointExtension>
        </extensions>
      </trkpt>
      <trkpt lat="42.93035" lon="1.85457">
        <ele>518.7</ele>
        <time>2022-07-25T09:11:16.000Z</time>
        <extensions>
          <gpxtpx:TrackPointExtension xmlns:gpxtpx="http://www.garmin.com/xmlschemas/TrackPointExtension/v1">
            <gpxtpx:hr>149</gpxtpx:hr>
          </gpxtpx:TrackPointExtension>
        </extensions>
      </trkpt>
      <trkpt lat="42.93037" lon="1.85449">
        <ele>518.7</ele>
        <time>2022-07-25T09:11:17.000Z</time>
        <extensions>
          <gpxtpx:TrackPointExtension xmlns:gpxtpx="http://www.garmin.com/xmlschemas/TrackPointExtension/v1">
            <gpxtpx:hr>149</gpxtpx:hr>
          </gpxtpx:TrackPointExtension>
        </extensions>
      </trkpt>
      <trkpt lat="42.9304" lon="1.85441">
        <ele>518.7</ele>
        <time>2022-07-25T09:11:18.000Z</time>
        <extensions>
          <gpxtpx:TrackPointExtension xmlns:gpxtpx="http://www.garmin.com/xmlschemas/TrackPointExtension/v1">
            <gpxtpx:hr>149</gpxtpx:hr>
          </gpxtpx:TrackPointExtension>
        </extensions>
      </trkpt>
      <trkpt lat="42.93042" lon="1.85433">
        <ele>518.7</ele>
        <time>2022-07-25T09:11:19.000Z</time>
        <extensions>
          <gpxtpx:TrackPointExtension xmlns:gpxtpx="http://www.garmin.com/xmlschemas/TrackPointExtension/v1">
            <gpxtpx:hr>148</gpxtpx:hr>
          </gpxtpx:TrackPointExtension>
        </extensions>
      </trkpt>
      <trkpt lat="42.93045" lon="1.85426">
        <ele>518.7</ele>
        <time>2022-07-25T09:11:20.000Z</time>
        <extensions>
          <gpxtpx:TrackPointExtension xmlns:gpxtpx="http://www.garmin.com/xmlschemas/TrackPointExtension/v1">
            <gpxtpx:hr>148</gpxtpx:hr>
          </gpxtpx:TrackPointExtension>
        </extensions>
      </trkpt>
      <trkpt lat="42.93049" lon="1.85419">
        <ele>518.7</ele>
        <time>2022-07-25T09:11:21.000Z</time>
        <extensions>
          <gpxtpx:TrackPointExtension xmlns:gpxtpx="http://www.garmin.com/xmlschemas/TrackPointExtension/v1">
            <gpxtpx:hr>148</gpxtpx:hr>
          </gpxtpx:TrackPointExtension>
        </extensions>
      </trkpt>
      <trkpt lat="42.93054" lon="1.85412">
        <ele>518.7</ele>
        <time>2022-07-25T09:11:22.000Z</time>
        <extensions>
          <gpxtpx:TrackPointExtension xmlns:gpxtpx="http://www.garmin.com/xmlschemas/TrackPointExtension/v1">
            <gpxtpx:hr>148</gpxtpx:hr>
          </gpxtpx:TrackPointExtension>
        </extensions>
      </trkpt>
      <trkpt lat="42.93058" lon="1.85404">
        <ele>518.7</ele>
        <time>2022-07-25T09:11:23.000Z</time>
        <extensions>
          <gpxtpx:TrackPointExtension xmlns:gpxtpx="http://www.garmin.com/xmlschemas/TrackPointExtension/v1">
            <gpxtpx:hr>147</gpxtpx:hr>
          </gpxtpx:TrackPointExtension>
        </extensions>
      </trkpt>
      <trkpt lat="42.93062" lon="1.85394">
        <ele>518.6</ele>
        <time>2022-07-25T09:11:24.000Z</time>
        <extensions>
          <gpxtpx:TrackPointExtension xmlns:gpxtpx="http://www.garmin.com/xmlschemas/TrackPointExtension/v1">
            <gpxtpx:hr>147</gpxtpx:hr>
          </gpxtpx:TrackPointExtension>
        </extensions>
      </trkpt>
      <trkpt lat="42.93066" lon="1.85385">
        <ele>518.6</ele>
        <time>2022-07-25T09:11:25.000Z</time>
        <extensions>
          <gpxtpx:TrackPointExtension xmlns:gpxtpx="http://www.garmin.com/xmlschemas/TrackPointExtension/v1">
            <gpxtpx:hr>146</gpxtpx:hr>
          </gpxtpx:TrackPointExtension>
        </extensions>
      </trkpt>
      <trkpt lat="42.9307" lon="1.85375">
        <ele>518.6</ele>
        <time>2022-07-25T09:11:26.000Z</time>
        <extensions>
          <gpxtpx:TrackPointExtension xmlns:gpxtpx="http://www.garmin.com/xmlschemas/TrackPointExtension/v1">
            <gpxtpx:hr>146</gpxtpx:hr>
          </gpxtpx:TrackPointExtension>
        </extensions>
      </trkpt>
      <trkpt lat="42.93074" lon="1.85365">
        <ele>518.6</ele>
        <time>2022-07-25T09:11:27.000Z</time>
        <extensions>
          <gpxtpx:TrackPointExtension xmlns:gpxtpx="http://www.garmin.com/xmlschemas/TrackPointExtension/v1">
            <gpxtpx:hr>146</gpxtpx:hr>
          </gpxtpx:TrackPointExtension>
        </extensions>
      </trkpt>
      <trkpt lat="42.93079" lon="1.85355">
        <ele>518.6</ele>
        <time>2022-07-25T09:11:28.000Z</time>
        <extensions>
          <gpxtpx:TrackPointExtension xmlns:gpxtpx="http://www.garmin.com/xmlschemas/TrackPointExtension/v1">
            <gpxtpx:hr>146</gpxtpx:hr>
          </gpxtpx:TrackPointExtension>
        </extensions>
      </trkpt>
      <trkpt lat="42.93084" lon="1.85345">
        <ele>518.5</ele>
        <time>2022-07-25T09:11:29.000Z</time>
        <extensions>
          <gpxtpx:TrackPointExtension xmlns:gpxtpx="http://www.garmin.com/xmlschemas/TrackPointExtension/v1">
            <gpxtpx:hr>146</gpxtpx:hr>
          </gpxtpx:TrackPointExtension>
        </extensions>
      </trkpt>
      <trkpt lat="42.93088" lon="1.85335">
        <ele>518.4</ele>
        <time>2022-07-25T09:11:30.000Z</time>
        <extensions>
          <gpxtpx:TrackPointExtension xmlns:gpxtpx="http://www.garmin.com/xmlschemas/TrackPointExtension/v1">
            <gpxtpx:hr>146</gpxtpx:hr>
          </gpxtpx:TrackPointExtension>
        </extensions>
      </trkpt>
      <trkpt lat="42.93092" lon="1.85326">
        <ele>518.3</ele>
        <time>2022-07-25T09:11:31.000Z</time>
        <extensions>
          <gpxtpx:TrackPointExtension xmlns:gpxtpx="http://www.garmin.com/xmlschemas/TrackPointExtension/v1">
            <gpxtpx:hr>146</gpxtpx:hr>
          </gpxtpx:TrackPointExtension>
        </extensions>
      </trkpt>
      <trkpt lat="42.93096" lon="1.85316">
        <ele>518.2</ele>
        <time>2022-07-25T09:11:32.000Z</time>
        <extensions>
          <gpxtpx:TrackPointExtension xmlns:gpxtpx="http://www.garmin.com/xmlschemas/TrackPointExtension/v1">
            <gpxtpx:hr>146</gpxtpx:hr>
          </gpxtpx:TrackPointExtension>
        </extensions>
      </trkpt>
      <trkpt lat="42.931" lon="1.85307">
        <ele>518.1</ele>
        <time>2022-07-25T09:11:33.000Z</time>
        <extensions>
          <gpxtpx:TrackPointExtension xmlns:gpxtpx="http://www.garmin.com/xmlschemas/TrackPointExtension/v1">
            <gpxtpx:hr>147</gpxtpx:hr>
          </gpxtpx:TrackPointExtension>
        </extensions>
      </trkpt>
      <trkpt lat="42.93104" lon="1.85299">
        <ele>518</ele>
        <time>2022-07-25T09:11:34.000Z</time>
        <extensions>
          <gpxtpx:TrackPointExtension xmlns:gpxtpx="http://www.garmin.com/xmlschemas/TrackPointExtension/v1">
            <gpxtpx:hr>147</gpxtpx:hr>
          </gpxtpx:TrackPointExtension>
        </extensions>
      </trkpt>
      <trkpt lat="42.93108" lon="1.8529">
        <ele>517.9</ele>
        <time>2022-07-25T09:11:35.000Z</time>
        <extensions>
          <gpxtpx:TrackPointExtension xmlns:gpxtpx="http://www.garmin.com/xmlschemas/TrackPointExtension/v1">
            <gpxtpx:hr>147</gpxtpx:hr>
          </gpxtpx:TrackPointExtension>
        </extensions>
      </trkpt>
      <trkpt lat="42.93112" lon="1.85281">
        <ele>517.8</ele>
        <time>2022-07-25T09:11:36.000Z</time>
        <extensions>
          <gpxtpx:TrackPointExtension xmlns:gpxtpx="http://www.garmin.com/xmlschemas/TrackPointExtension/v1">
            <gpxtpx:hr>148</gpxtpx:hr>
          </gpxtpx:TrackPointExtension>
        </extensions>
      </trkpt>
      <trkpt lat="42.93116" lon="1.85273">
        <ele>517.7</ele>
        <time>2022-07-25T09:11:37.000Z</time>
        <extensions>
          <gpxtpx:TrackPointExtension xmlns:gpxtpx="http://www.garmin.com/xmlschemas/TrackPointExtension/v1">
            <gpxtpx:hr>149</gpxtpx:hr>
          </gpxtpx:TrackPointExtension>
        </extensions>
      </trkpt>
      <trkpt lat="42.93119" lon="1.85264">
        <ele>517.6</ele>
        <time>2022-07-25T09:11:38.000Z</time>
        <extensions>
          <gpxtpx:TrackPointExtension xmlns:gpxtpx="http://www.garmin.com/xmlschemas/TrackPointExtension/v1">
            <gpxtpx:hr>150</gpxtpx:hr>
          </gpxtpx:TrackPointExtension>
        </extensions>
      </trkpt>
      <trkpt lat="42.93123" lon="1.85256">
        <ele>517.5</ele>
        <time>2022-07-25T09:11:39.000Z</time>
        <extensions>
          <gpxtpx:TrackPointExtension xmlns:gpxtpx="http://www.garmin.com/xmlschemas/TrackPointExtension/v1">
            <gpxtpx:hr>150</gpxtpx:hr>
          </gpxtpx:TrackPointExtension>
        </extensions>
      </trkpt>
      <trkpt lat="42.93127" lon="1.85247">
        <ele>517.4</ele>
        <time>2022-07-25T09:11:40.000Z</time>
        <extensions>
          <gpxtpx:TrackPointExtension xmlns:gpxtpx="http://www.garmin.com/xmlschemas/TrackPointExtension/v1">
            <gpxtpx:hr>151</gpxtpx:hr>
          </gpxtpx:TrackPointExtension>
        </extensions>
      </trkpt>
      <trkpt lat="42.93131" lon="1.85238">
        <ele>517.3</ele>
        <time>2022-07-25T09:11:41.000Z</time>
        <extensions>
          <gpxtpx:TrackPointExtension xmlns:gpxtpx="http://www.garmin.com/xmlschemas/TrackPointExtension/v1">
            <gpxtpx:hr>152</gpxtpx:hr>
          </gpxtpx:TrackPointExtension>
        </extensions>
      </trkpt>
      <trkpt lat="42.93134" lon="1.85229">
        <ele>517.2</ele>
        <time>2022-07-25T09:11:42.000Z</time>
        <extensions>
          <gpxtpx:TrackPointExtension xmlns:gpxtpx="http://www.garmin.com/xmlschemas/TrackPointExtension/v1">
            <gpxtpx:hr>152</gpxtpx:hr>
          </gpxtpx:TrackPointExtension>
        </extensions>
      </trkpt>
      <trkpt lat="42.93138" lon="1.85219">
        <ele>517.1</ele>
        <time>2022-07-25T09:11:43.000Z</time>
        <extensions>
          <gpxtpx:TrackPointExtension xmlns:gpxtpx="http://www.garmin.com/xmlschemas/TrackPointExtension/v1">
            <gpxtpx:hr>152</gpxtpx:hr>
          </gpxtpx:TrackPointExtension>
        </extensions>
      </trkpt>
      <trkpt lat="42.93142" lon="1.8521">
        <ele>517</ele>
        <time>2022-07-25T09:11:44.000Z</time>
        <extensions>
          <gpxtpx:TrackPointExtension xmlns:gpxtpx="http://www.garmin.com/xmlschemas/TrackPointExtension/v1">
            <gpxtpx:hr>153</gpxtpx:hr>
          </gpxtpx:TrackPointExtension>
        </extensions>
      </trkpt>
      <trkpt lat="42.93146" lon="1.85201">
        <ele>516.9</ele>
        <time>2022-07-25T09:11:45.000Z</time>
        <extensions>
          <gpxtpx:TrackPointExtension xmlns:gpxtpx="http://www.garmin.com/xmlschemas/TrackPointExtension/v1">
            <gpxtpx:hr>153</gpxtpx:hr>
          </gpxtpx:TrackPointExtension>
        </extensions>
      </trkpt>
      <trkpt lat="42.9315" lon="1.85192">
        <ele>516.8</ele>
        <time>2022-07-25T09:11:46.000Z</time>
        <extensions>
          <gpxtpx:TrackPointExtension xmlns:gpxtpx="http://www.garmin.com/xmlschemas/TrackPointExtension/v1">
            <gpxtpx:hr>153</gpxtpx:hr>
          </gpxtpx:TrackPointExtension>
        </extensions>
      </trkpt>
      <trkpt lat="42.93153" lon="1.85182">
        <ele>516.7</ele>
        <time>2022-07-25T09:11:47.000Z</time>
        <extensions>
          <gpxtpx:TrackPointExtension xmlns:gpxtpx="http://www.garmin.com/xmlschemas/TrackPointExtension/v1">
            <gpxtpx:hr>154</gpxtpx:hr>
          </gpxtpx:TrackPointExtension>
        </extensions>
      </trkpt>
      <trkpt lat="42.93158" lon="1.85174">
        <ele>516.6</ele>
        <time>2022-07-25T09:11:48.000Z</time>
        <extensions>
          <gpxtpx:TrackPointExtension xmlns:gpxtpx="http://www.garmin.com/xmlschemas/TrackPointExtension/v1">
            <gpxtpx:hr>154</gpxtpx:hr>
          </gpxtpx:TrackPointExtension>
        </extensions>
      </trkpt>
      <trkpt lat="42.93162" lon="1.85166">
        <ele>516.5</ele>
        <time>2022-07-25T09:11:49.000Z</time>
        <extensions>
          <gpxtpx:TrackPointExtension xmlns:gpxtpx="http://www.garmin.com/xmlschemas/TrackPointExtension/v1">
            <gpxtpx:hr>154</gpxtpx:hr>
          </gpxtpx:TrackPointExtension>
        </extensions>
      </trkpt>
      <trkpt lat="42.93166" lon="1.85157">
        <ele>516.4</ele>
        <time>2022-07-25T09:11:50.000Z</time>
        <extensions>
          <gpxtpx:TrackPointExtension xmlns:gpxtpx="http://www.garmin.com/xmlschemas/TrackPointExtension/v1">
            <gpxtpx:hr>155</gpxtpx:hr>
          </gpxtpx:TrackPointExtension>
        </extensions>
      </trkpt>
      <trkpt lat="42.9317" lon="1.85149">
        <ele>516.3</ele>
        <time>2022-07-25T09:11:51.000Z</time>
        <extensions>
          <gpxtpx:TrackPointExtension xmlns:gpxtpx="http://www.garmin.com/xmlschemas/TrackPointExtension/v1">
            <gpxtpx:hr>155</gpxtpx:hr>
          </gpxtpx:TrackPointExtension>
        </extensions>
      </trkpt>
      <trkpt lat="42.93174" lon="1.8514">
        <ele>516.2</ele>
        <time>2022-07-25T09:11:52.000Z</time>
        <extensions>
          <gpxtpx:TrackPointExtension xmlns:gpxtpx="http://www.garmin.com/xmlschemas/TrackPointExtension/v1">
            <gpxtpx:hr>155</gpxtpx:hr>
          </gpxtpx:TrackPointExtension>
        </extensions>
      </trkpt>
      <trkpt lat="42.93177" lon="1.85132">
        <ele>516.1</ele>
        <time>2022-07-25T09:11:53.000Z</time>
        <extensions>
          <gpxtpx:TrackPointExtension xmlns:gpxtpx="http://www.garmin.com/xmlschemas/TrackPointExtension/v1">
            <gpxtpx:hr>155</gpxtpx:hr>
          </gpxtpx:TrackPointExtension>
        </extensions>
      </trkpt>
      <trkpt lat="42.9318" lon="1.85124">
        <ele>516.1</ele>
        <time>2022-07-25T09:11:54.000Z</time>
        <extensions>
          <gpxtpx:TrackPointExtension xmlns:gpxtpx="http://www.garmin.com/xmlschemas/TrackPointExtension/v1">
            <gpxtpx:hr>156</gpxtpx:hr>
          </gpxtpx:TrackPointExtension>
        </extensions>
      </trkpt>
      <trkpt lat="42.93182" lon="1.85115">
        <ele>516</ele>
        <time>2022-07-25T09:11:55.000Z</time>
        <extensions>
          <gpxtpx:TrackPointExtension xmlns:gpxtpx="http://www.garmin.com/xmlschemas/TrackPointExtension/v1">
            <gpxtpx:hr>156</gpxtpx:hr>
          </gpxtpx:TrackPointExtension>
        </extensions>
      </trkpt>
      <trkpt lat="42.93185" lon="1.85107">
        <ele>515.9</ele>
        <time>2022-07-25T09:11:56.000Z</time>
        <extensions>
          <gpxtpx:TrackPointExtension xmlns:gpxtpx="http://www.garmin.com/xmlschemas/TrackPointExtension/v1">
            <gpxtpx:hr>156</gpxtpx:hr>
          </gpxtpx:TrackPointExtension>
        </extensions>
      </trkpt>
      <trkpt lat="42.93188" lon="1.851">
        <ele>515.9</ele>
        <time>2022-07-25T09:11:57.000Z</time>
        <extensions>
          <gpxtpx:TrackPointExtension xmlns:gpxtpx="http://www.garmin.com/xmlschemas/TrackPointExtension/v1">
            <gpxtpx:hr>156</gpxtpx:hr>
          </gpxtpx:TrackPointExtension>
        </extensions>
      </trkpt>
      <trkpt lat="42.93191" lon="1.85093">
        <ele>515.8</ele>
        <time>2022-07-25T09:11:58.000Z</time>
        <extensions>
          <gpxtpx:TrackPointExtension xmlns:gpxtpx="http://www.garmin.com/xmlschemas/TrackPointExtension/v1">
            <gpxtpx:hr>157</gpxtpx:hr>
          </gpxtpx:TrackPointExtension>
        </extensions>
      </trkpt>
      <trkpt lat="42.93194" lon="1.85086">
        <ele>515.8</ele>
        <time>2022-07-25T09:11:59.000Z</time>
        <extensions>
          <gpxtpx:TrackPointExtension xmlns:gpxtpx="http://www.garmin.com/xmlschemas/TrackPointExtension/v1">
            <gpxtpx:hr>157</gpxtpx:hr>
          </gpxtpx:TrackPointExtension>
        </extensions>
      </trkpt>
      <trkpt lat="42.93197" lon="1.85079">
        <ele>515.7</ele>
        <time>2022-07-25T09:12:00.000Z</time>
        <extensions>
          <gpxtpx:TrackPointExtension xmlns:gpxtpx="http://www.garmin.com/xmlschemas/TrackPointExtension/v1">
            <gpxtpx:hr>157</gpxtpx:hr>
          </gpxtpx:TrackPointExtension>
        </extensions>
      </trkpt>
      <trkpt lat="42.932" lon="1.85072">
        <ele>515.7</ele>
        <time>2022-07-25T09:12:01.000Z</time>
        <extensions>
          <gpxtpx:TrackPointExtension xmlns:gpxtpx="http://www.garmin.com/xmlschemas/TrackPointExtension/v1">
            <gpxtpx:hr>157</gpxtpx:hr>
          </gpxtpx:TrackPointExtension>
        </extensions>
      </trkpt>
      <trkpt lat="42.93202" lon="1.85065">
        <ele>515.6</ele>
        <time>2022-07-25T09:12:02.000Z</time>
        <extensions>
          <gpxtpx:TrackPointExtension xmlns:gpxtpx="http://www.garmin.com/xmlschemas/TrackPointExtension/v1">
            <gpxtpx:hr>157</gpxtpx:hr>
          </gpxtpx:TrackPointExtension>
        </extensions>
      </trkpt>
      <trkpt lat="42.93205" lon="1.85059">
        <ele>515.6</ele>
        <time>2022-07-25T09:12:03.000Z</time>
        <extensions>
          <gpxtpx:TrackPointExtension xmlns:gpxtpx="http://www.garmin.com/xmlschemas/TrackPointExtension/v1">
            <gpxtpx:hr>157</gpxtpx:hr>
          </gpxtpx:TrackPointExtension>
        </extensions>
      </trkpt>
      <trkpt lat="42.93208" lon="1.85053">
        <ele>515.5</ele>
        <time>2022-07-25T09:12:04.000Z</time>
        <extensions>
          <gpxtpx:TrackPointExtension xmlns:gpxtpx="http://www.garmin.com/xmlschemas/TrackPointExtension/v1">
            <gpxtpx:hr>157</gpxtpx:hr>
          </gpxtpx:TrackPointExtension>
        </extensions>
      </trkpt>
      <trkpt lat="42.93211" lon="1.85046">
        <ele>515.5</ele>
        <time>2022-07-25T09:12:05.000Z</time>
        <extensions>
          <gpxtpx:TrackPointExtension xmlns:gpxtpx="http://www.garmin.com/xmlschemas/TrackPointExtension/v1">
            <gpxtpx:hr>158</gpxtpx:hr>
          </gpxtpx:TrackPointExtension>
        </extensions>
      </trkpt>
      <trkpt lat="42.93213" lon="1.8504">
        <ele>515.5</ele>
        <time>2022-07-25T09:12:06.000Z</time>
        <extensions>
          <gpxtpx:TrackPointExtension xmlns:gpxtpx="http://www.garmin.com/xmlschemas/TrackPointExtension/v1">
            <gpxtpx:hr>158</gpxtpx:hr>
          </gpxtpx:TrackPointExtension>
        </extensions>
      </trkpt>
      <trkpt lat="42.93216" lon="1.85033">
        <ele>515.4</ele>
        <time>2022-07-25T09:12:07.000Z</time>
        <extensions>
          <gpxtpx:TrackPointExtension xmlns:gpxtpx="http://www.garmin.com/xmlschemas/TrackPointExtension/v1">
            <gpxtpx:hr>158</gpxtpx:hr>
          </gpxtpx:TrackPointExtension>
        </extensions>
      </trkpt>
      <trkpt lat="42.93219" lon="1.85027">
        <ele>515.4</ele>
        <time>2022-07-25T09:12:08.000Z</time>
        <extensions>
          <gpxtpx:TrackPointExtension xmlns:gpxtpx="http://www.garmin.com/xmlschemas/TrackPointExtension/v1">
            <gpxtpx:hr>158</gpxtpx:hr>
          </gpxtpx:TrackPointExtension>
        </extensions>
      </trkpt>
      <trkpt lat="42.93222" lon="1.85021">
        <ele>515.4</ele>
        <time>2022-07-25T09:12:09.000Z</time>
        <extensions>
          <gpxtpx:TrackPointExtension xmlns:gpxtpx="http://www.garmin.com/xmlschemas/TrackPointExtension/v1">
            <gpxtpx:hr>158</gpxtpx:hr>
          </gpxtpx:TrackPointExtension>
        </extensions>
      </trkpt>
      <trkpt lat="42.93225" lon="1.85014">
        <ele>515.3</ele>
        <time>2022-07-25T09:12:10.000Z</time>
        <extensions>
          <gpxtpx:TrackPointExtension xmlns:gpxtpx="http://www.garmin.com/xmlschemas/TrackPointExtension/v1">
            <gpxtpx:hr>158</gpxtpx:hr>
          </gpxtpx:TrackPointExtension>
        </extensions>
      </trkpt>
      <trkpt lat="42.93228" lon="1.85008">
        <ele>515.3</ele>
        <time>2022-07-25T09:12:11.000Z</time>
        <extensions>
          <gpxtpx:TrackPointExtension xmlns:gpxtpx="http://www.garmin.com/xmlschemas/TrackPointExtension/v1">
            <gpxtpx:hr>158</gpxtpx:hr>
          </gpxtpx:TrackPointExtension>
        </extensions>
      </trkpt>
      <trkpt lat="42.93231" lon="1.85002">
        <ele>515.3</ele>
        <time>2022-07-25T09:12:12.000Z</time>
        <extensions>
          <gpxtpx:TrackPointExtension xmlns:gpxtpx="http://www.garmin.com/xmlschemas/TrackPointExtension/v1">
            <gpxtpx:hr>158</gpxtpx:hr>
          </gpxtpx:TrackPointExtension>
        </extensions>
      </trkpt>
      <trkpt lat="42.93233" lon="1.84996">
        <ele>515.3</ele>
        <time>2022-07-25T09:12:13.000Z</time>
        <extensions>
          <gpxtpx:TrackPointExtension xmlns:gpxtpx="http://www.garmin.com/xmlschemas/TrackPointExtension/v1">
            <gpxtpx:hr>158</gpxtpx:hr>
          </gpxtpx:TrackPointExtension>
        </extensions>
      </trkpt>
      <trkpt lat="42.93237" lon="1.84992">
        <ele>515.3</ele>
        <time>2022-07-25T09:12:14.000Z</time>
        <extensions>
          <gpxtpx:TrackPointExtension xmlns:gpxtpx="http://www.garmin.com/xmlschemas/TrackPointExtension/v1">
            <gpxtpx:hr>158</gpxtpx:hr>
          </gpxtpx:TrackPointExtension>
        </extensions>
      </trkpt>
      <trkpt lat="42.93242" lon="1.84981">
        <ele>515.3</ele>
        <time>2022-07-25T09:12:16.000Z</time>
        <extensions>
          <gpxtpx:TrackPointExtension xmlns:gpxtpx="http://www.garmin.com/xmlschemas/TrackPointExtension/v1">
            <gpxtpx:hr>157</gpxtpx:hr>
          </gpxtpx:TrackPointExtension>
        </extensions>
      </trkpt>
      <trkpt lat="42.93245" lon="1.8497">
        <ele>515.3</ele>
        <time>2022-07-25T09:12:18.000Z</time>
        <extensions>
          <gpxtpx:TrackPointExtension xmlns:gpxtpx="http://www.garmin.com/xmlschemas/TrackPointExtension/v1">
            <gpxtpx:hr>157</gpxtpx:hr>
          </gpxtpx:TrackPointExtension>
        </extensions>
      </trkpt>
      <trkpt lat="42.93247" lon="1.84964">
        <ele>515.3</ele>
        <time>2022-07-25T09:12:19.000Z</time>
        <extensions>
          <gpxtpx:TrackPointExtension xmlns:gpxtpx="http://www.garmin.com/xmlschemas/TrackPointExtension/v1">
            <gpxtpx:hr>157</gpxtpx:hr>
          </gpxtpx:TrackPointExtension>
        </extensions>
      </trkpt>
      <trkpt lat="42.93249" lon="1.84959">
        <ele>515.4</ele>
        <time>2022-07-25T09:12:20.000Z</time>
        <extensions>
          <gpxtpx:TrackPointExtension xmlns:gpxtpx="http://www.garmin.com/xmlschemas/TrackPointExtension/v1">
            <gpxtpx:hr>157</gpxtpx:hr>
          </gpxtpx:TrackPointExtension>
        </extensions>
      </trkpt>
      <trkpt lat="42.93251" lon="1.84953">
        <ele>515.4</ele>
        <time>2022-07-25T09:12:21.000Z</time>
        <extensions>
          <gpxtpx:TrackPointExtension xmlns:gpxtpx="http://www.garmin.com/xmlschemas/TrackPointExtension/v1">
            <gpxtpx:hr>157</gpxtpx:hr>
          </gpxtpx:TrackPointExtension>
        </extensions>
      </trkpt>
      <trkpt lat="42.93254" lon="1.84942">
        <ele>515.4</ele>
        <time>2022-07-25T09:12:23.000Z</time>
        <extensions>
          <gpxtpx:TrackPointExtension xmlns:gpxtpx="http://www.garmin.com/xmlschemas/TrackPointExtension/v1">
            <gpxtpx:hr>156</gpxtpx:hr>
          </gpxtpx:TrackPointExtension>
        </extensions>
      </trkpt>
      <trkpt lat="42.93256" lon="1.84936">
        <ele>515.5</ele>
        <time>2022-07-25T09:12:24.000Z</time>
        <extensions>
          <gpxtpx:TrackPointExtension xmlns:gpxtpx="http://www.garmin.com/xmlschemas/TrackPointExtension/v1">
            <gpxtpx:hr>156</gpxtpx:hr>
          </gpxtpx:TrackPointExtension>
        </extensions>
      </trkpt>
      <trkpt lat="42.93258" lon="1.84924">
        <ele>515.4</ele>
        <time>2022-07-25T09:12:26.000Z</time>
        <extensions>
          <gpxtpx:TrackPointExtension xmlns:gpxtpx="http://www.garmin.com/xmlschemas/TrackPointExtension/v1">
            <gpxtpx:hr>155</gpxtpx:hr>
          </gpxtpx:TrackPointExtension>
        </extensions>
      </trkpt>
      <trkpt lat="42.93259" lon="1.84917">
        <ele>515.4</ele>
        <time>2022-07-25T09:12:27.000Z</time>
        <extensions>
          <gpxtpx:TrackPointExtension xmlns:gpxtpx="http://www.garmin.com/xmlschemas/TrackPointExtension/v1">
            <gpxtpx:hr>154</gpxtpx:hr>
          </gpxtpx:TrackPointExtension>
        </extensions>
      </trkpt>
      <trkpt lat="42.9326" lon="1.84911">
        <ele>515.3</ele>
        <time>2022-07-25T09:12:28.000Z</time>
        <extensions>
          <gpxtpx:TrackPointExtension xmlns:gpxtpx="http://www.garmin.com/xmlschemas/TrackPointExtension/v1">
            <gpxtpx:hr>154</gpxtpx:hr>
          </gpxtpx:TrackPointExtension>
        </extensions>
      </trkpt>
      <trkpt lat="42.93263" lon="1.84904">
        <ele>515.3</ele>
        <time>2022-07-25T09:12:29.000Z</time>
        <extensions>
          <gpxtpx:TrackPointExtension xmlns:gpxtpx="http://www.garmin.com/xmlschemas/TrackPointExtension/v1">
            <gpxtpx:hr>153</gpxtpx:hr>
          </gpxtpx:TrackPointExtension>
        </extensions>
      </trkpt>
      <trkpt lat="42.93268" lon="1.84893">
        <ele>515.2</ele>
        <time>2022-07-25T09:12:31.000Z</time>
        <extensions>
          <gpxtpx:TrackPointExtension xmlns:gpxtpx="http://www.garmin.com/xmlschemas/TrackPointExtension/v1">
            <gpxtpx:hr>151</gpxtpx:hr>
          </gpxtpx:TrackPointExtension>
        </extensions>
      </trkpt>
      <trkpt lat="42.93271" lon="1.84888">
        <ele>515.2</ele>
        <time>2022-07-25T09:12:32.000Z</time>
        <extensions>
          <gpxtpx:TrackPointExtension xmlns:gpxtpx="http://www.garmin.com/xmlschemas/TrackPointExtension/v1">
            <gpxtpx:hr>151</gpxtpx:hr>
          </gpxtpx:TrackPointExtension>
        </extensions>
      </trkpt>
      <trkpt lat="42.93275" lon="1.84882">
        <ele>515.1</ele>
        <time>2022-07-25T09:12:33.000Z</time>
        <extensions>
          <gpxtpx:TrackPointExtension xmlns:gpxtpx="http://www.garmin.com/xmlschemas/TrackPointExtension/v1">
            <gpxtpx:hr>150</gpxtpx:hr>
          </gpxtpx:TrackPointExtension>
        </extensions>
      </trkpt>
      <trkpt lat="42.93277" lon="1.84875">
        <ele>515.1</ele>
        <time>2022-07-25T09:12:34.000Z</time>
        <extensions>
          <gpxtpx:TrackPointExtension xmlns:gpxtpx="http://www.garmin.com/xmlschemas/TrackPointExtension/v1">
            <gpxtpx:hr>149</gpxtpx:hr>
          </gpxtpx:TrackPointExtension>
        </extensions>
      </trkpt>
      <trkpt lat="42.93279" lon="1.84869">
        <ele>515.1</ele>
        <time>2022-07-25T09:12:35.000Z</time>
        <extensions>
          <gpxtpx:TrackPointExtension xmlns:gpxtpx="http://www.garmin.com/xmlschemas/TrackPointExtension/v1">
            <gpxtpx:hr>149</gpxtpx:hr>
          </gpxtpx:TrackPointExtension>
        </extensions>
      </trkpt>
      <trkpt lat="42.93279" lon="1.84862">
        <ele>515</ele>
        <time>2022-07-25T09:12:36.000Z</time>
        <extensions>
          <gpxtpx:TrackPointExtension xmlns:gpxtpx="http://www.garmin.com/xmlschemas/TrackPointExtension/v1">
            <gpxtpx:hr>148</gpxtpx:hr>
          </gpxtpx:TrackPointExtension>
        </extensions>
      </trkpt>
      <trkpt lat="42.93277" lon="1.84855">
        <ele>515</ele>
        <time>2022-07-25T09:12:37.000Z</time>
        <extensions>
          <gpxtpx:TrackPointExtension xmlns:gpxtpx="http://www.garmin.com/xmlschemas/TrackPointExtension/v1">
            <gpxtpx:hr>147</gpxtpx:hr>
          </gpxtpx:TrackPointExtension>
        </extensions>
      </trkpt>
      <trkpt lat="42.93274" lon="1.84849">
        <ele>515</ele>
        <time>2022-07-25T09:12:38.000Z</time>
        <extensions>
          <gpxtpx:TrackPointExtension xmlns:gpxtpx="http://www.garmin.com/xmlschemas/TrackPointExtension/v1">
            <gpxtpx:hr>147</gpxtpx:hr>
          </gpxtpx:TrackPointExtension>
        </extensions>
      </trkpt>
      <trkpt lat="42.9327" lon="1.84844">
        <ele>515</ele>
        <time>2022-07-25T09:12:39.000Z</time>
        <extensions>
          <gpxtpx:TrackPointExtension xmlns:gpxtpx="http://www.garmin.com/xmlschemas/TrackPointExtension/v1">
            <gpxtpx:hr>147</gpxtpx:hr>
          </gpxtpx:TrackPointExtension>
        </extensions>
      </trkpt>
      <trkpt lat="42.93266" lon="1.8484">
        <ele>514.9</ele>
        <time>2022-07-25T09:12:40.000Z</time>
        <extensions>
          <gpxtpx:TrackPointExtension xmlns:gpxtpx="http://www.garmin.com/xmlschemas/TrackPointExtension/v1">
            <gpxtpx:hr>147</gpxtpx:hr>
          </gpxtpx:TrackPointExtension>
        </extensions>
      </trkpt>
      <trkpt lat="42.93263" lon="1.84835">
        <ele>514.9</ele>
        <time>2022-07-25T09:12:41.000Z</time>
        <extensions>
          <gpxtpx:TrackPointExtension xmlns:gpxtpx="http://www.garmin.com/xmlschemas/TrackPointExtension/v1">
            <gpxtpx:hr>146</gpxtpx:hr>
          </gpxtpx:TrackPointExtension>
        </extensions>
      </trkpt>
      <trkpt lat="42.9326" lon="1.84829">
        <ele>514.9</ele>
        <time>2022-07-25T09:12:42.000Z</time>
        <extensions>
          <gpxtpx:TrackPointExtension xmlns:gpxtpx="http://www.garmin.com/xmlschemas/TrackPointExtension/v1">
            <gpxtpx:hr>146</gpxtpx:hr>
          </gpxtpx:TrackPointExtension>
        </extensions>
      </trkpt>
      <trkpt lat="42.93258" lon="1.84823">
        <ele>514.9</ele>
        <time>2022-07-25T09:12:43.000Z</time>
        <extensions>
          <gpxtpx:TrackPointExtension xmlns:gpxtpx="http://www.garmin.com/xmlschemas/TrackPointExtension/v1">
            <gpxtpx:hr>146</gpxtpx:hr>
          </gpxtpx:TrackPointExtension>
        </extensions>
      </trkpt>
      <trkpt lat="42.93258" lon="1.84812">
        <ele>514.9</ele>
        <time>2022-07-25T09:12:45.000Z</time>
        <extensions>
          <gpxtpx:TrackPointExtension xmlns:gpxtpx="http://www.garmin.com/xmlschemas/TrackPointExtension/v1">
            <gpxtpx:hr>146</gpxtpx:hr>
          </gpxtpx:TrackPointExtension>
        </extensions>
      </trkpt>
      <trkpt lat="42.93261" lon="1.848">
        <ele>514.9</ele>
        <time>2022-07-25T09:12:47.000Z</time>
        <extensions>
          <gpxtpx:TrackPointExtension xmlns:gpxtpx="http://www.garmin.com/xmlschemas/TrackPointExtension/v1">
            <gpxtpx:hr>147</gpxtpx:hr>
          </gpxtpx:TrackPointExtension>
        </extensions>
      </trkpt>
      <trkpt lat="42.93264" lon="1.84795">
        <ele>514.9</ele>
        <time>2022-07-25T09:12:48.000Z</time>
        <extensions>
          <gpxtpx:TrackPointExtension xmlns:gpxtpx="http://www.garmin.com/xmlschemas/TrackPointExtension/v1">
            <gpxtpx:hr>147</gpxtpx:hr>
          </gpxtpx:TrackPointExtension>
        </extensions>
      </trkpt>
      <trkpt lat="42.93267" lon="1.84789">
        <ele>514.9</ele>
        <time>2022-07-25T09:12:49.000Z</time>
        <extensions>
          <gpxtpx:TrackPointExtension xmlns:gpxtpx="http://www.garmin.com/xmlschemas/TrackPointExtension/v1">
            <gpxtpx:hr>147</gpxtpx:hr>
          </gpxtpx:TrackPointExtension>
        </extensions>
      </trkpt>
      <trkpt lat="42.93271" lon="1.84785">
        <ele>514.9</ele>
        <time>2022-07-25T09:12:50.000Z</time>
        <extensions>
          <gpxtpx:TrackPointExtension xmlns:gpxtpx="http://www.garmin.com/xmlschemas/TrackPointExtension/v1">
            <gpxtpx:hr>147</gpxtpx:hr>
          </gpxtpx:TrackPointExtension>
        </extensions>
      </trkpt>
      <trkpt lat="42.93273" lon="1.84778">
        <ele>514.9</ele>
        <time>2022-07-25T09:12:51.000Z</time>
        <extensions>
          <gpxtpx:TrackPointExtension xmlns:gpxtpx="http://www.garmin.com/xmlschemas/TrackPointExtension/v1">
            <gpxtpx:hr>147</gpxtpx:hr>
          </gpxtpx:TrackPointExtension>
        </extensions>
      </trkpt>
      <trkpt lat="42.93273" lon="1.84772">
        <ele>514.9</ele>
        <time>2022-07-25T09:12:52.000Z</time>
        <extensions>
          <gpxtpx:TrackPointExtension xmlns:gpxtpx="http://www.garmin.com/xmlschemas/TrackPointExtension/v1">
            <gpxtpx:hr>147</gpxtpx:hr>
          </gpxtpx:TrackPointExtension>
        </extensions>
      </trkpt>
      <trkpt lat="42.93271" lon="1.84762">
        <ele>514.9</ele>
        <time>2022-07-25T09:12:54.000Z</time>
        <extensions>
          <gpxtpx:TrackPointExtension xmlns:gpxtpx="http://www.garmin.com/xmlschemas/TrackPointExtension/v1">
            <gpxtpx:hr>147</gpxtpx:hr>
          </gpxtpx:TrackPointExtension>
        </extensions>
      </trkpt>
      <trkpt lat="42.93267" lon="1.84752">
        <ele>514.9</ele>
        <time>2022-07-25T09:12:56.000Z</time>
        <extensions>
          <gpxtpx:TrackPointExtension xmlns:gpxtpx="http://www.garmin.com/xmlschemas/TrackPointExtension/v1">
            <gpxtpx:hr>146</gpxtpx:hr>
          </gpxtpx:TrackPointExtension>
        </extensions>
      </trkpt>
      <trkpt lat="42.93265" lon="1.84743">
        <ele>514.9</ele>
        <time>2022-07-25T09:12:58.000Z</time>
        <extensions>
          <gpxtpx:TrackPointExtension xmlns:gpxtpx="http://www.garmin.com/xmlschemas/TrackPointExtension/v1">
            <gpxtpx:hr>146</gpxtpx:hr>
          </gpxtpx:TrackPointExtension>
        </extensions>
      </trkpt>
      <trkpt lat="42.9326" lon="1.84736">
        <ele>515</ele>
        <time>2022-07-25T09:13:00.000Z</time>
        <extensions>
          <gpxtpx:TrackPointExtension xmlns:gpxtpx="http://www.garmin.com/xmlschemas/TrackPointExtension/v1">
            <gpxtpx:hr>146</gpxtpx:hr>
          </gpxtpx:TrackPointExtension>
        </extensions>
      </trkpt>
      <trkpt lat="42.93257" lon="1.84727">
        <ele>515.1</ele>
        <time>2022-07-25T09:13:02.000Z</time>
        <extensions>
          <gpxtpx:TrackPointExtension xmlns:gpxtpx="http://www.garmin.com/xmlschemas/TrackPointExtension/v1">
            <gpxtpx:hr>146</gpxtpx:hr>
          </gpxtpx:TrackPointExtension>
        </extensions>
      </trkpt>
      <trkpt lat="42.93254" lon="1.84717">
        <ele>515.2</ele>
        <time>2022-07-25T09:13:04.000Z</time>
        <extensions>
          <gpxtpx:TrackPointExtension xmlns:gpxtpx="http://www.garmin.com/xmlschemas/TrackPointExtension/v1">
            <gpxtpx:hr>146</gpxtpx:hr>
          </gpxtpx:TrackPointExtension>
        </extensions>
      </trkpt>
      <trkpt lat="42.93253" lon="1.84707">
        <ele>515.3</ele>
        <time>2022-07-25T09:13:06.000Z</time>
        <extensions>
          <gpxtpx:TrackPointExtension xmlns:gpxtpx="http://www.garmin.com/xmlschemas/TrackPointExtension/v1">
            <gpxtpx:hr>145</gpxtpx:hr>
          </gpxtpx:TrackPointExtension>
        </extensions>
      </trkpt>
      <trkpt lat="42.93252" lon="1.84697">
        <ele>515.4</ele>
        <time>2022-07-25T09:13:08.000Z</time>
        <extensions>
          <gpxtpx:TrackPointExtension xmlns:gpxtpx="http://www.garmin.com/xmlschemas/TrackPointExtension/v1">
            <gpxtpx:hr>145</gpxtpx:hr>
          </gpxtpx:TrackPointExtension>
        </extensions>
      </trkpt>
      <trkpt lat="42.93253" lon="1.84686">
        <ele>515.4</ele>
        <time>2022-07-25T09:13:10.000Z</time>
        <extensions>
          <gpxtpx:TrackPointExtension xmlns:gpxtpx="http://www.garmin.com/xmlschemas/TrackPointExtension/v1">
            <gpxtpx:hr>145</gpxtpx:hr>
          </gpxtpx:TrackPointExtension>
        </extensions>
      </trkpt>
      <trkpt lat="42.93254" lon="1.84675">
        <ele>515.6</ele>
        <time>2022-07-25T09:13:12.000Z</time>
        <extensions>
          <gpxtpx:TrackPointExtension xmlns:gpxtpx="http://www.garmin.com/xmlschemas/TrackPointExtension/v1">
            <gpxtpx:hr>145</gpxtpx:hr>
          </gpxtpx:TrackPointExtension>
        </extensions>
      </trkpt>
      <trkpt lat="42.93253" lon="1.84665">
        <ele>515.7</ele>
        <time>2022-07-25T09:13:14.000Z</time>
        <extensions>
          <gpxtpx:TrackPointExtension xmlns:gpxtpx="http://www.garmin.com/xmlschemas/TrackPointExtension/v1">
            <gpxtpx:hr>145</gpxtpx:hr>
          </gpxtpx:TrackPointExtension>
        </extensions>
      </trkpt>
      <trkpt lat="42.93253" lon="1.84658">
        <ele>515.9</ele>
        <time>2022-07-25T09:13:16.000Z</time>
        <extensions>
          <gpxtpx:TrackPointExtension xmlns:gpxtpx="http://www.garmin.com/xmlschemas/TrackPointExtension/v1">
            <gpxtpx:hr>145</gpxtpx:hr>
          </gpxtpx:TrackPointExtension>
        </extensions>
      </trkpt>
      <trkpt lat="42.93253" lon="1.8465">
        <ele>516</ele>
        <time>2022-07-25T09:13:18.000Z</time>
        <extensions>
          <gpxtpx:TrackPointExtension xmlns:gpxtpx="http://www.garmin.com/xmlschemas/TrackPointExtension/v1">
            <gpxtpx:hr>145</gpxtpx:hr>
          </gpxtpx:TrackPointExtension>
        </extensions>
      </trkpt>
      <trkpt lat="42.93253" lon="1.84641">
        <ele>516.2</ele>
        <time>2022-07-25T09:13:20.000Z</time>
        <extensions>
          <gpxtpx:TrackPointExtension xmlns:gpxtpx="http://www.garmin.com/xmlschemas/TrackPointExtension/v1">
            <gpxtpx:hr>145</gpxtpx:hr>
          </gpxtpx:TrackPointExtension>
        </extensions>
      </trkpt>
      <trkpt lat="42.93252" lon="1.84631">
        <ele>516.4</ele>
        <time>2022-07-25T09:13:22.000Z</time>
        <extensions>
          <gpxtpx:TrackPointExtension xmlns:gpxtpx="http://www.garmin.com/xmlschemas/TrackPointExtension/v1">
            <gpxtpx:hr>145</gpxtpx:hr>
          </gpxtpx:TrackPointExtension>
        </extensions>
      </trkpt>
      <trkpt lat="42.93251" lon="1.84622">
        <ele>516.6</ele>
        <time>2022-07-25T09:13:24.000Z</time>
        <extensions>
          <gpxtpx:TrackPointExtension xmlns:gpxtpx="http://www.garmin.com/xmlschemas/TrackPointExtension/v1">
            <gpxtpx:hr>146</gpxtpx:hr>
          </gpxtpx:TrackPointExtension>
        </extensions>
      </trkpt>
      <trkpt lat="42.93249" lon="1.84613">
        <ele>516.7</ele>
        <time>2022-07-25T09:13:26.000Z</time>
        <extensions>
          <gpxtpx:TrackPointExtension xmlns:gpxtpx="http://www.garmin.com/xmlschemas/TrackPointExtension/v1">
            <gpxtpx:hr>146</gpxtpx:hr>
          </gpxtpx:TrackPointExtension>
        </extensions>
      </trkpt>
      <trkpt lat="42.93249" lon="1.84604">
        <ele>516.9</ele>
        <time>2022-07-25T09:13:28.000Z</time>
        <extensions>
          <gpxtpx:TrackPointExtension xmlns:gpxtpx="http://www.garmin.com/xmlschemas/TrackPointExtension/v1">
            <gpxtpx:hr>146</gpxtpx:hr>
          </gpxtpx:TrackPointExtension>
        </extensions>
      </trkpt>
      <trkpt lat="42.93249" lon="1.84593">
        <ele>517.1</ele>
        <time>2022-07-25T09:13:30.000Z</time>
        <extensions>
          <gpxtpx:TrackPointExtension xmlns:gpxtpx="http://www.garmin.com/xmlschemas/TrackPointExtension/v1">
            <gpxtpx:hr>146</gpxtpx:hr>
          </gpxtpx:TrackPointExtension>
        </extensions>
      </trkpt>
      <trkpt lat="42.93248" lon="1.84583">
        <ele>517.2</ele>
        <time>2022-07-25T09:13:32.000Z</time>
        <extensions>
          <gpxtpx:TrackPointExtension xmlns:gpxtpx="http://www.garmin.com/xmlschemas/TrackPointExtension/v1">
            <gpxtpx:hr>146</gpxtpx:hr>
          </gpxtpx:TrackPointExtension>
        </extensions>
      </trkpt>
      <trkpt lat="42.93248" lon="1.84574">
        <ele>517.3</ele>
        <time>2022-07-25T09:13:34.000Z</time>
        <extensions>
          <gpxtpx:TrackPointExtension xmlns:gpxtpx="http://www.garmin.com/xmlschemas/TrackPointExtension/v1">
            <gpxtpx:hr>147</gpxtpx:hr>
          </gpxtpx:TrackPointExtension>
        </extensions>
      </trkpt>
      <trkpt lat="42.93247" lon="1.84564">
        <ele>517.4</ele>
        <time>2022-07-25T09:13:36.000Z</time>
        <extensions>
          <gpxtpx:TrackPointExtension xmlns:gpxtpx="http://www.garmin.com/xmlschemas/TrackPointExtension/v1">
            <gpxtpx:hr>147</gpxtpx:hr>
          </gpxtpx:TrackPointExtension>
        </extensions>
      </trkpt>
      <trkpt lat="42.93246" lon="1.84554">
        <ele>517.6</ele>
        <time>2022-07-25T09:13:38.000Z</time>
        <extensions>
          <gpxtpx:TrackPointExtension xmlns:gpxtpx="http://www.garmin.com/xmlschemas/TrackPointExtension/v1">
            <gpxtpx:hr>147</gpxtpx:hr>
          </gpxtpx:TrackPointExtension>
        </extensions>
      </trkpt>
      <trkpt lat="42.93244" lon="1.84544">
        <ele>517.7</ele>
        <time>2022-07-25T09:13:40.000Z</time>
        <extensions>
          <gpxtpx:TrackPointExtension xmlns:gpxtpx="http://www.garmin.com/xmlschemas/TrackPointExtension/v1">
            <gpxtpx:hr>147</gpxtpx:hr>
          </gpxtpx:TrackPointExtension>
        </extensions>
      </trkpt>
      <trkpt lat="42.93242" lon="1.84534">
        <ele>517.9</ele>
        <time>2022-07-25T09:13:42.000Z</time>
        <extensions>
          <gpxtpx:TrackPointExtension xmlns:gpxtpx="http://www.garmin.com/xmlschemas/TrackPointExtension/v1">
            <gpxtpx:hr>147</gpxtpx:hr>
          </gpxtpx:TrackPointExtension>
        </extensions>
      </trkpt>
      <trkpt lat="42.9324" lon="1.84523">
        <ele>518</ele>
        <time>2022-07-25T09:13:44.000Z</time>
        <extensions>
          <gpxtpx:TrackPointExtension xmlns:gpxtpx="http://www.garmin.com/xmlschemas/TrackPointExtension/v1">
            <gpxtpx:hr>147</gpxtpx:hr>
          </gpxtpx:TrackPointExtension>
        </extensions>
      </trkpt>
      <trkpt lat="42.93241" lon="1.84511">
        <ele>518.1</ele>
        <time>2022-07-25T09:13:46.000Z</time>
        <extensions>
          <gpxtpx:TrackPointExtension xmlns:gpxtpx="http://www.garmin.com/xmlschemas/TrackPointExtension/v1">
            <gpxtpx:hr>147</gpxtpx:hr>
          </gpxtpx:TrackPointExtension>
        </extensions>
      </trkpt>
      <trkpt lat="42.93241" lon="1.84504">
        <ele>518.2</ele>
        <time>2022-07-25T09:13:47.000Z</time>
        <extensions>
          <gpxtpx:TrackPointExtension xmlns:gpxtpx="http://www.garmin.com/xmlschemas/TrackPointExtension/v1">
            <gpxtpx:hr>147</gpxtpx:hr>
          </gpxtpx:TrackPointExtension>
        </extensions>
      </trkpt>
      <trkpt lat="42.9324" lon="1.84492">
        <ele>518.3</ele>
        <time>2022-07-25T09:13:49.000Z</time>
        <extensions>
          <gpxtpx:TrackPointExtension xmlns:gpxtpx="http://www.garmin.com/xmlschemas/TrackPointExtension/v1">
            <gpxtpx:hr>147</gpxtpx:hr>
          </gpxtpx:TrackPointExtension>
        </extensions>
      </trkpt>
      <trkpt lat="42.93239" lon="1.84481">
        <ele>518.4</ele>
        <time>2022-07-25T09:13:51.000Z</time>
        <extensions>
          <gpxtpx:TrackPointExtension xmlns:gpxtpx="http://www.garmin.com/xmlschemas/TrackPointExtension/v1">
            <gpxtpx:hr>148</gpxtpx:hr>
          </gpxtpx:TrackPointExtension>
        </extensions>
      </trkpt>
      <trkpt lat="42.93237" lon="1.84471">
        <ele>518.5</ele>
        <time>2022-07-25T09:13:53.000Z</time>
        <extensions>
          <gpxtpx:TrackPointExtension xmlns:gpxtpx="http://www.garmin.com/xmlschemas/TrackPointExtension/v1">
            <gpxtpx:hr>148</gpxtpx:hr>
          </gpxtpx:TrackPointExtension>
        </extensions>
      </trkpt>
      <trkpt lat="42.93236" lon="1.84461">
        <ele>518.6</ele>
        <time>2022-07-25T09:13:55.000Z</time>
        <extensions>
          <gpxtpx:TrackPointExtension xmlns:gpxtpx="http://www.garmin.com/xmlschemas/TrackPointExtension/v1">
            <gpxtpx:hr>148</gpxtpx:hr>
          </gpxtpx:TrackPointExtension>
        </extensions>
      </trkpt>
      <trkpt lat="42.93234" lon="1.84451">
        <ele>518.7</ele>
        <time>2022-07-25T09:13:57.000Z</time>
        <extensions>
          <gpxtpx:TrackPointExtension xmlns:gpxtpx="http://www.garmin.com/xmlschemas/TrackPointExtension/v1">
            <gpxtpx:hr>148</gpxtpx:hr>
          </gpxtpx:TrackPointExtension>
        </extensions>
      </trkpt>
      <trkpt lat="42.93231" lon="1.8444">
        <ele>518.8</ele>
        <time>2022-07-25T09:13:59.000Z</time>
        <extensions>
          <gpxtpx:TrackPointExtension xmlns:gpxtpx="http://www.garmin.com/xmlschemas/TrackPointExtension/v1">
            <gpxtpx:hr>149</gpxtpx:hr>
          </gpxtpx:TrackPointExtension>
        </extensions>
      </trkpt>
      <trkpt lat="42.93229" lon="1.8443">
        <ele>518.9</ele>
        <time>2022-07-25T09:14:01.000Z</time>
        <extensions>
          <gpxtpx:TrackPointExtension xmlns:gpxtpx="http://www.garmin.com/xmlschemas/TrackPointExtension/v1">
            <gpxtpx:hr>149</gpxtpx:hr>
          </gpxtpx:TrackPointExtension>
        </extensions>
      </trkpt>
      <trkpt lat="42.93227" lon="1.8442">
        <ele>519</ele>
        <time>2022-07-25T09:14:03.000Z</time>
        <extensions>
          <gpxtpx:TrackPointExtension xmlns:gpxtpx="http://www.garmin.com/xmlschemas/TrackPointExtension/v1">
            <gpxtpx:hr>149</gpxtpx:hr>
          </gpxtpx:TrackPointExtension>
        </extensions>
      </trkpt>
      <trkpt lat="42.93226" lon="1.84409">
        <ele>519.2</ele>
        <time>2022-07-25T09:14:05.000Z</time>
        <extensions>
          <gpxtpx:TrackPointExtension xmlns:gpxtpx="http://www.garmin.com/xmlschemas/TrackPointExtension/v1">
            <gpxtpx:hr>149</gpxtpx:hr>
          </gpxtpx:TrackPointExtension>
        </extensions>
      </trkpt>
      <trkpt lat="42.93224" lon="1.84398">
        <ele>519.4</ele>
        <time>2022-07-25T09:14:07.000Z</time>
        <extensions>
          <gpxtpx:TrackPointExtension xmlns:gpxtpx="http://www.garmin.com/xmlschemas/TrackPointExtension/v1">
            <gpxtpx:hr>150</gpxtpx:hr>
          </gpxtpx:TrackPointExtension>
        </extensions>
      </trkpt>
      <trkpt lat="42.93223" lon="1.84388">
        <ele>519.6</ele>
        <time>2022-07-25T09:14:09.000Z</time>
        <extensions>
          <gpxtpx:TrackPointExtension xmlns:gpxtpx="http://www.garmin.com/xmlschemas/TrackPointExtension/v1">
            <gpxtpx:hr>150</gpxtpx:hr>
          </gpxtpx:TrackPointExtension>
        </extensions>
      </trkpt>
      <trkpt lat="42.93222" lon="1.84379">
        <ele>519.7</ele>
        <time>2022-07-25T09:14:11.000Z</time>
        <extensions>
          <gpxtpx:TrackPointExtension xmlns:gpxtpx="http://www.garmin.com/xmlschemas/TrackPointExtension/v1">
            <gpxtpx:hr>150</gpxtpx:hr>
          </gpxtpx:TrackPointExtension>
        </extensions>
      </trkpt>
      <trkpt lat="42.9322" lon="1.8437">
        <ele>519.8</ele>
        <time>2022-07-25T09:14:13.000Z</time>
        <extensions>
          <gpxtpx:TrackPointExtension xmlns:gpxtpx="http://www.garmin.com/xmlschemas/TrackPointExtension/v1">
            <gpxtpx:hr>151</gpxtpx:hr>
          </gpxtpx:TrackPointExtension>
        </extensions>
      </trkpt>
      <trkpt lat="42.93216" lon="1.84362">
        <ele>520</ele>
        <time>2022-07-25T09:14:15.000Z</time>
        <extensions>
          <gpxtpx:TrackPointExtension xmlns:gpxtpx="http://www.garmin.com/xmlschemas/TrackPointExtension/v1">
            <gpxtpx:hr>151</gpxtpx:hr>
          </gpxtpx:TrackPointExtension>
        </extensions>
      </trkpt>
      <trkpt lat="42.93211" lon="1.84359">
        <ele>520.2</ele>
        <time>2022-07-25T09:14:17.000Z</time>
        <extensions>
          <gpxtpx:TrackPointExtension xmlns:gpxtpx="http://www.garmin.com/xmlschemas/TrackPointExtension/v1">
            <gpxtpx:hr>151</gpxtpx:hr>
          </gpxtpx:TrackPointExtension>
        </extensions>
      </trkpt>
      <trkpt lat="42.93206" lon="1.84355">
        <ele>520.3</ele>
        <time>2022-07-25T09:14:19.000Z</time>
        <extensions>
          <gpxtpx:TrackPointExtension xmlns:gpxtpx="http://www.garmin.com/xmlschemas/TrackPointExtension/v1">
            <gpxtpx:hr>151</gpxtpx:hr>
          </gpxtpx:TrackPointExtension>
        </extensions>
      </trkpt>
      <trkpt lat="42.932" lon="1.8435">
        <ele>520.5</ele>
        <time>2022-07-25T09:14:21.000Z</time>
        <extensions>
          <gpxtpx:TrackPointExtension xmlns:gpxtpx="http://www.garmin.com/xmlschemas/TrackPointExtension/v1">
            <gpxtpx:hr>152</gpxtpx:hr>
          </gpxtpx:TrackPointExtension>
        </extensions>
      </trkpt>
      <trkpt lat="42.93195" lon="1.84345">
        <ele>520.7</ele>
        <time>2022-07-25T09:14:23.000Z</time>
        <extensions>
          <gpxtpx:TrackPointExtension xmlns:gpxtpx="http://www.garmin.com/xmlschemas/TrackPointExtension/v1">
            <gpxtpx:hr>152</gpxtpx:hr>
          </gpxtpx:TrackPointExtension>
        </extensions>
      </trkpt>
      <trkpt lat="42.9319" lon="1.8434">
        <ele>520.9</ele>
        <time>2022-07-25T09:14:25.000Z</time>
        <extensions>
          <gpxtpx:TrackPointExtension xmlns:gpxtpx="http://www.garmin.com/xmlschemas/TrackPointExtension/v1">
            <gpxtpx:hr>152</gpxtpx:hr>
          </gpxtpx:TrackPointExtension>
        </extensions>
      </trkpt>
      <trkpt lat="42.93184" lon="1.84335">
        <ele>521.1</ele>
        <time>2022-07-25T09:14:27.000Z</time>
        <extensions>
          <gpxtpx:TrackPointExtension xmlns:gpxtpx="http://www.garmin.com/xmlschemas/TrackPointExtension/v1">
            <gpxtpx:hr>152</gpxtpx:hr>
          </gpxtpx:TrackPointExtension>
        </extensions>
      </trkpt>
      <trkpt lat="42.93179" lon="1.84331">
        <ele>521.3</ele>
        <time>2022-07-25T09:14:29.000Z</time>
        <extensions>
          <gpxtpx:TrackPointExtension xmlns:gpxtpx="http://www.garmin.com/xmlschemas/TrackPointExtension/v1">
            <gpxtpx:hr>152</gpxtpx:hr>
          </gpxtpx:TrackPointExtension>
        </extensions>
      </trkpt>
      <trkpt lat="42.93174" lon="1.84326">
        <ele>521.5</ele>
        <time>2022-07-25T09:14:31.000Z</time>
        <extensions>
          <gpxtpx:TrackPointExtension xmlns:gpxtpx="http://www.garmin.com/xmlschemas/TrackPointExtension/v1">
            <gpxtpx:hr>152</gpxtpx:hr>
          </gpxtpx:TrackPointExtension>
        </extensions>
      </trkpt>
      <trkpt lat="42.93168" lon="1.84321">
        <ele>521.7</ele>
        <time>2022-07-25T09:14:33.000Z</time>
        <extensions>
          <gpxtpx:TrackPointExtension xmlns:gpxtpx="http://www.garmin.com/xmlschemas/TrackPointExtension/v1">
            <gpxtpx:hr>153</gpxtpx:hr>
          </gpxtpx:TrackPointExtension>
        </extensions>
      </trkpt>
      <trkpt lat="42.93163" lon="1.84316">
        <ele>521.9</ele>
        <time>2022-07-25T09:14:35.000Z</time>
        <extensions>
          <gpxtpx:TrackPointExtension xmlns:gpxtpx="http://www.garmin.com/xmlschemas/TrackPointExtension/v1">
            <gpxtpx:hr>153</gpxtpx:hr>
          </gpxtpx:TrackPointExtension>
        </extensions>
      </trkpt>
      <trkpt lat="42.93158" lon="1.84311">
        <ele>522.1</ele>
        <time>2022-07-25T09:14:37.000Z</time>
        <extensions>
          <gpxtpx:TrackPointExtension xmlns:gpxtpx="http://www.garmin.com/xmlschemas/TrackPointExtension/v1">
            <gpxtpx:hr>153</gpxtpx:hr>
          </gpxtpx:TrackPointExtension>
        </extensions>
      </trkpt>
      <trkpt lat="42.93153" lon="1.84306">
        <ele>522.2</ele>
        <time>2022-07-25T09:14:39.000Z</time>
        <extensions>
          <gpxtpx:TrackPointExtension xmlns:gpxtpx="http://www.garmin.com/xmlschemas/TrackPointExtension/v1">
            <gpxtpx:hr>154</gpxtpx:hr>
          </gpxtpx:TrackPointExtension>
        </extensions>
      </trkpt>
      <trkpt lat="42.93149" lon="1.84298">
        <ele>522.4</ele>
        <time>2022-07-25T09:14:41.000Z</time>
        <extensions>
          <gpxtpx:TrackPointExtension xmlns:gpxtpx="http://www.garmin.com/xmlschemas/TrackPointExtension/v1">
            <gpxtpx:hr>154</gpxtpx:hr>
          </gpxtpx:TrackPointExtension>
        </extensions>
      </trkpt>
      <trkpt lat="42.93144" lon="1.8429">
        <ele>522.6</ele>
        <time>2022-07-25T09:14:43.000Z</time>
        <extensions>
          <gpxtpx:TrackPointExtension xmlns:gpxtpx="http://www.garmin.com/xmlschemas/TrackPointExtension/v1">
            <gpxtpx:hr>154</gpxtpx:hr>
          </gpxtpx:TrackPointExtension>
        </extensions>
      </trkpt>
      <trkpt lat="42.9314" lon="1.84282">
        <ele>522.7</ele>
        <time>2022-07-25T09:14:45.000Z</time>
        <extensions>
          <gpxtpx:TrackPointExtension xmlns:gpxtpx="http://www.garmin.com/xmlschemas/TrackPointExtension/v1">
            <gpxtpx:hr>154</gpxtpx:hr>
          </gpxtpx:TrackPointExtension>
        </extensions>
      </trkpt>
      <trkpt lat="42.93135" lon="1.84274">
        <ele>522.9</ele>
        <time>2022-07-25T09:14:47.000Z</time>
        <extensions>
          <gpxtpx:TrackPointExtension xmlns:gpxtpx="http://www.garmin.com/xmlschemas/TrackPointExtension/v1">
            <gpxtpx:hr>154</gpxtpx:hr>
          </gpxtpx:TrackPointExtension>
        </extensions>
      </trkpt>
      <trkpt lat="42.93133" lon="1.84268">
        <ele>523</ele>
        <time>2022-07-25T09:14:48.000Z</time>
        <extensions>
          <gpxtpx:TrackPointExtension xmlns:gpxtpx="http://www.garmin.com/xmlschemas/TrackPointExtension/v1">
            <gpxtpx:hr>154</gpxtpx:hr>
          </gpxtpx:TrackPointExtension>
        </extensions>
      </trkpt>
      <trkpt lat="42.9313" lon="1.84259">
        <ele>523.3</ele>
        <time>2022-07-25T09:14:50.000Z</time>
        <extensions>
          <gpxtpx:TrackPointExtension xmlns:gpxtpx="http://www.garmin.com/xmlschemas/TrackPointExtension/v1">
            <gpxtpx:hr>154</gpxtpx:hr>
          </gpxtpx:TrackPointExtension>
        </extensions>
      </trkpt>
      <trkpt lat="42.93125" lon="1.8425">
        <ele>523.4</ele>
        <time>2022-07-25T09:14:52.000Z</time>
        <extensions>
          <gpxtpx:TrackPointExtension xmlns:gpxtpx="http://www.garmin.com/xmlschemas/TrackPointExtension/v1">
            <gpxtpx:hr>154</gpxtpx:hr>
          </gpxtpx:TrackPointExtension>
        </extensions>
      </trkpt>
      <trkpt lat="42.93121" lon="1.84242">
        <ele>523.6</ele>
        <time>2022-07-25T09:14:54.000Z</time>
        <extensions>
          <gpxtpx:TrackPointExtension xmlns:gpxtpx="http://www.garmin.com/xmlschemas/TrackPointExtension/v1">
            <gpxtpx:hr>154</gpxtpx:hr>
          </gpxtpx:TrackPointExtension>
        </extensions>
      </trkpt>
      <trkpt lat="42.93116" lon="1.84233">
        <ele>523.8</ele>
        <time>2022-07-25T09:14:56.000Z</time>
        <extensions>
          <gpxtpx:TrackPointExtension xmlns:gpxtpx="http://www.garmin.com/xmlschemas/TrackPointExtension/v1">
            <gpxtpx:hr>154</gpxtpx:hr>
          </gpxtpx:TrackPointExtension>
        </extensions>
      </trkpt>
      <trkpt lat="42.93113" lon="1.84225">
        <ele>524</ele>
        <time>2022-07-25T09:14:58.000Z</time>
        <extensions>
          <gpxtpx:TrackPointExtension xmlns:gpxtpx="http://www.garmin.com/xmlschemas/TrackPointExtension/v1">
            <gpxtpx:hr>154</gpxtpx:hr>
          </gpxtpx:TrackPointExtension>
        </extensions>
      </trkpt>
      <trkpt lat="42.93109" lon="1.84217">
        <ele>524.1</ele>
        <time>2022-07-25T09:15:00.000Z</time>
        <extensions>
          <gpxtpx:TrackPointExtension xmlns:gpxtpx="http://www.garmin.com/xmlschemas/TrackPointExtension/v1">
            <gpxtpx:hr>154</gpxtpx:hr>
          </gpxtpx:TrackPointExtension>
        </extensions>
      </trkpt>
      <trkpt lat="42.93105" lon="1.8421">
        <ele>524.3</ele>
        <time>2022-07-25T09:15:02.000Z</time>
        <extensions>
          <gpxtpx:TrackPointExtension xmlns:gpxtpx="http://www.garmin.com/xmlschemas/TrackPointExtension/v1">
            <gpxtpx:hr>154</gpxtpx:hr>
          </gpxtpx:TrackPointExtension>
        </extensions>
      </trkpt>
      <trkpt lat="42.93099" lon="1.84203">
        <ele>524.5</ele>
        <time>2022-07-25T09:15:04.000Z</time>
        <extensions>
          <gpxtpx:TrackPointExtension xmlns:gpxtpx="http://www.garmin.com/xmlschemas/TrackPointExtension/v1">
            <gpxtpx:hr>155</gpxtpx:hr>
          </gpxtpx:TrackPointExtension>
        </extensions>
      </trkpt>
      <trkpt lat="42.93095" lon="1.84197">
        <ele>524.7</ele>
        <time>2022-07-25T09:15:06.000Z</time>
        <extensions>
          <gpxtpx:TrackPointExtension xmlns:gpxtpx="http://www.garmin.com/xmlschemas/TrackPointExtension/v1">
            <gpxtpx:hr>155</gpxtpx:hr>
          </gpxtpx:TrackPointExtension>
        </extensions>
      </trkpt>
      <trkpt lat="42.93091" lon="1.84191">
        <ele>524.8</ele>
        <time>2022-07-25T09:15:08.000Z</time>
        <extensions>
          <gpxtpx:TrackPointExtension xmlns:gpxtpx="http://www.garmin.com/xmlschemas/TrackPointExtension/v1">
            <gpxtpx:hr>155</gpxtpx:hr>
          </gpxtpx:TrackPointExtension>
        </extensions>
      </trkpt>
      <trkpt lat="42.93087" lon="1.84184">
        <ele>525</ele>
        <time>2022-07-25T09:15:10.000Z</time>
        <extensions>
          <gpxtpx:TrackPointExtension xmlns:gpxtpx="http://www.garmin.com/xmlschemas/TrackPointExtension/v1">
            <gpxtpx:hr>155</gpxtpx:hr>
          </gpxtpx:TrackPointExtension>
        </extensions>
      </trkpt>
      <trkpt lat="42.93083" lon="1.84175">
        <ele>525.2</ele>
        <time>2022-07-25T09:15:12.000Z</time>
        <extensions>
          <gpxtpx:TrackPointExtension xmlns:gpxtpx="http://www.garmin.com/xmlschemas/TrackPointExtension/v1">
            <gpxtpx:hr>155</gpxtpx:hr>
          </gpxtpx:TrackPointExtension>
        </extensions>
      </trkpt>
      <trkpt lat="42.93079" lon="1.84169">
        <ele>525.5</ele>
        <time>2022-07-25T09:15:14.000Z</time>
        <extensions>
          <gpxtpx:TrackPointExtension xmlns:gpxtpx="http://www.garmin.com/xmlschemas/TrackPointExtension/v1">
            <gpxtpx:hr>155</gpxtpx:hr>
          </gpxtpx:TrackPointExtension>
        </extensions>
      </trkpt>
      <trkpt lat="42.93074" lon="1.84164">
        <ele>525.7</ele>
        <time>2022-07-25T09:15:16.000Z</time>
        <extensions>
          <gpxtpx:TrackPointExtension xmlns:gpxtpx="http://www.garmin.com/xmlschemas/TrackPointExtension/v1">
            <gpxtpx:hr>155</gpxtpx:hr>
          </gpxtpx:TrackPointExtension>
        </extensions>
      </trkpt>
      <trkpt lat="42.9307" lon="1.84161">
        <ele>525.8</ele>
        <time>2022-07-25T09:15:18.000Z</time>
        <extensions>
          <gpxtpx:TrackPointExtension xmlns:gpxtpx="http://www.garmin.com/xmlschemas/TrackPointExtension/v1">
            <gpxtpx:hr>155</gpxtpx:hr>
          </gpxtpx:TrackPointExtension>
        </extensions>
      </trkpt>
      <trkpt lat="42.93063" lon="1.84161">
        <ele>526</ele>
        <time>2022-07-25T09:15:20.000Z</time>
        <extensions>
          <gpxtpx:TrackPointExtension xmlns:gpxtpx="http://www.garmin.com/xmlschemas/TrackPointExtension/v1">
            <gpxtpx:hr>155</gpxtpx:hr>
          </gpxtpx:TrackPointExtension>
        </extensions>
      </trkpt>
      <trkpt lat="42.93056" lon="1.84159">
        <ele>526.2</ele>
        <time>2022-07-25T09:15:22.000Z</time>
        <extensions>
          <gpxtpx:TrackPointExtension xmlns:gpxtpx="http://www.garmin.com/xmlschemas/TrackPointExtension/v1">
            <gpxtpx:hr>155</gpxtpx:hr>
          </gpxtpx:TrackPointExtension>
        </extensions>
      </trkpt>
      <trkpt lat="42.9305" lon="1.84156">
        <ele>526.3</ele>
        <time>2022-07-25T09:15:24.000Z</time>
        <extensions>
          <gpxtpx:TrackPointExtension xmlns:gpxtpx="http://www.garmin.com/xmlschemas/TrackPointExtension/v1">
            <gpxtpx:hr>155</gpxtpx:hr>
          </gpxtpx:TrackPointExtension>
        </extensions>
      </trkpt>
      <trkpt lat="42.93045" lon="1.84153">
        <ele>526.4</ele>
        <time>2022-07-25T09:15:26.000Z</time>
        <extensions>
          <gpxtpx:TrackPointExtension xmlns:gpxtpx="http://www.garmin.com/xmlschemas/TrackPointExtension/v1">
            <gpxtpx:hr>155</gpxtpx:hr>
          </gpxtpx:TrackPointExtension>
        </extensions>
      </trkpt>
      <trkpt lat="42.93041" lon="1.84149">
        <ele>526.5</ele>
        <time>2022-07-25T09:15:28.000Z</time>
        <extensions>
          <gpxtpx:TrackPointExtension xmlns:gpxtpx="http://www.garmin.com/xmlschemas/TrackPointExtension/v1">
            <gpxtpx:hr>155</gpxtpx:hr>
          </gpxtpx:TrackPointExtension>
        </extensions>
      </trkpt>
      <trkpt lat="42.93037" lon="1.84146">
        <ele>526.6</ele>
        <time>2022-07-25T09:15:30.000Z</time>
        <extensions>
          <gpxtpx:TrackPointExtension xmlns:gpxtpx="http://www.garmin.com/xmlschemas/TrackPointExtension/v1">
            <gpxtpx:hr>155</gpxtpx:hr>
          </gpxtpx:TrackPointExtension>
        </extensions>
      </trkpt>
      <trkpt lat="42.93032" lon="1.84143">
        <ele>526.8</ele>
        <time>2022-07-25T09:15:32.000Z</time>
        <extensions>
          <gpxtpx:TrackPointExtension xmlns:gpxtpx="http://www.garmin.com/xmlschemas/TrackPointExtension/v1">
            <gpxtpx:hr>155</gpxtpx:hr>
          </gpxtpx:TrackPointExtension>
        </extensions>
      </trkpt>
      <trkpt lat="42.93028" lon="1.84139">
        <ele>526.9</ele>
        <time>2022-07-25T09:15:34.000Z</time>
        <extensions>
          <gpxtpx:TrackPointExtension xmlns:gpxtpx="http://www.garmin.com/xmlschemas/TrackPointExtension/v1">
            <gpxtpx:hr>155</gpxtpx:hr>
          </gpxtpx:TrackPointExtension>
        </extensions>
      </trkpt>
      <trkpt lat="42.93024" lon="1.84135">
        <ele>527</ele>
        <time>2022-07-25T09:15:36.000Z</time>
        <extensions>
          <gpxtpx:TrackPointExtension xmlns:gpxtpx="http://www.garmin.com/xmlschemas/TrackPointExtension/v1">
            <gpxtpx:hr>155</gpxtpx:hr>
          </gpxtpx:TrackPointExtension>
        </extensions>
      </trkpt>
      <trkpt lat="42.93018" lon="1.84132">
        <ele>527.2</ele>
        <time>2022-07-25T09:15:38.000Z</time>
        <extensions>
          <gpxtpx:TrackPointExtension xmlns:gpxtpx="http://www.garmin.com/xmlschemas/TrackPointExtension/v1">
            <gpxtpx:hr>155</gpxtpx:hr>
          </gpxtpx:TrackPointExtension>
        </extensions>
      </trkpt>
      <trkpt lat="42.93013" lon="1.84129">
        <ele>527.4</ele>
        <time>2022-07-25T09:15:40.000Z</time>
        <extensions>
          <gpxtpx:TrackPointExtension xmlns:gpxtpx="http://www.garmin.com/xmlschemas/TrackPointExtension/v1">
            <gpxtpx:hr>155</gpxtpx:hr>
          </gpxtpx:TrackPointExtension>
        </extensions>
      </trkpt>
      <trkpt lat="42.93007" lon="1.84127">
        <ele>527.6</ele>
        <time>2022-07-25T09:15:42.000Z</time>
        <extensions>
          <gpxtpx:TrackPointExtension xmlns:gpxtpx="http://www.garmin.com/xmlschemas/TrackPointExtension/v1">
            <gpxtpx:hr>155</gpxtpx:hr>
          </gpxtpx:TrackPointExtension>
        </extensions>
      </trkpt>
      <trkpt lat="42.93002" lon="1.84124">
        <ele>527.8</ele>
        <time>2022-07-25T09:15:44.000Z</time>
        <extensions>
          <gpxtpx:TrackPointExtension xmlns:gpxtpx="http://www.garmin.com/xmlschemas/TrackPointExtension/v1">
            <gpxtpx:hr>155</gpxtpx:hr>
          </gpxtpx:TrackPointExtension>
        </extensions>
      </trkpt>
      <trkpt lat="42.92997" lon="1.84121">
        <ele>528</ele>
        <time>2022-07-25T09:15:46.000Z</time>
        <extensions>
          <gpxtpx:TrackPointExtension xmlns:gpxtpx="http://www.garmin.com/xmlschemas/TrackPointExtension/v1">
            <gpxtpx:hr>155</gpxtpx:hr>
          </gpxtpx:TrackPointExtension>
        </extensions>
      </trkpt>
      <trkpt lat="42.92992" lon="1.84117">
        <ele>528.2</ele>
        <time>2022-07-25T09:15:48.000Z</time>
        <extensions>
          <gpxtpx:TrackPointExtension xmlns:gpxtpx="http://www.garmin.com/xmlschemas/TrackPointExtension/v1">
            <gpxtpx:hr>155</gpxtpx:hr>
          </gpxtpx:TrackPointExtension>
        </extensions>
      </trkpt>
      <trkpt lat="42.92987" lon="1.84113">
        <ele>528.3</ele>
        <time>2022-07-25T09:15:50.000Z</time>
        <extensions>
          <gpxtpx:TrackPointExtension xmlns:gpxtpx="http://www.garmin.com/xmlschemas/TrackPointExtension/v1">
            <gpxtpx:hr>155</gpxtpx:hr>
          </gpxtpx:TrackPointExtension>
        </extensions>
      </trkpt>
      <trkpt lat="42.92981" lon="1.8411">
        <ele>528.5</ele>
        <time>2022-07-25T09:15:52.000Z</time>
        <extensions>
          <gpxtpx:TrackPointExtension xmlns:gpxtpx="http://www.garmin.com/xmlschemas/TrackPointExtension/v1">
            <gpxtpx:hr>155</gpxtpx:hr>
          </gpxtpx:TrackPointExtension>
        </extensions>
      </trkpt>
      <trkpt lat="42.92976" lon="1.84108">
        <ele>528.6</ele>
        <time>2022-07-25T09:15:54.000Z</time>
        <extensions>
          <gpxtpx:TrackPointExtension xmlns:gpxtpx="http://www.garmin.com/xmlschemas/TrackPointExtension/v1">
            <gpxtpx:hr>155</gpxtpx:hr>
          </gpxtpx:TrackPointExtension>
        </extensions>
      </trkpt>
      <trkpt lat="42.9297" lon="1.84104">
        <ele>528.7</ele>
        <time>2022-07-25T09:15:56.000Z</time>
        <extensions>
          <gpxtpx:TrackPointExtension xmlns:gpxtpx="http://www.garmin.com/xmlschemas/TrackPointExtension/v1">
            <gpxtpx:hr>155</gpxtpx:hr>
          </gpxtpx:TrackPointExtension>
        </extensions>
      </trkpt>
      <trkpt lat="42.92966" lon="1.84101">
        <ele>528.9</ele>
        <time>2022-07-25T09:15:58.000Z</time>
        <extensions>
          <gpxtpx:TrackPointExtension xmlns:gpxtpx="http://www.garmin.com/xmlschemas/TrackPointExtension/v1">
            <gpxtpx:hr>155</gpxtpx:hr>
          </gpxtpx:TrackPointExtension>
        </extensions>
      </trkpt>
      <trkpt lat="42.9296" lon="1.84099">
        <ele>529.1</ele>
        <time>2022-07-25T09:16:00.000Z</time>
        <extensions>
          <gpxtpx:TrackPointExtension xmlns:gpxtpx="http://www.garmin.com/xmlschemas/TrackPointExtension/v1">
            <gpxtpx:hr>154</gpxtpx:hr>
          </gpxtpx:TrackPointExtension>
        </extensions>
      </trkpt>
      <trkpt lat="42.92954" lon="1.84096">
        <ele>529.2</ele>
        <time>2022-07-25T09:16:02.000Z</time>
        <extensions>
          <gpxtpx:TrackPointExtension xmlns:gpxtpx="http://www.garmin.com/xmlschemas/TrackPointExtension/v1">
            <gpxtpx:hr>154</gpxtpx:hr>
          </gpxtpx:TrackPointExtension>
        </extensions>
      </trkpt>
      <trkpt lat="42.92948" lon="1.84094">
        <ele>529.3</ele>
        <time>2022-07-25T09:16:04.000Z</time>
        <extensions>
          <gpxtpx:TrackPointExtension xmlns:gpxtpx="http://www.garmin.com/xmlschemas/TrackPointExtension/v1">
            <gpxtpx:hr>154</gpxtpx:hr>
          </gpxtpx:TrackPointExtension>
        </extensions>
      </trkpt>
      <trkpt lat="42.92943" lon="1.84092">
        <ele>529.5</ele>
        <time>2022-07-25T09:16:06.000Z</time>
        <extensions>
          <gpxtpx:TrackPointExtension xmlns:gpxtpx="http://www.garmin.com/xmlschemas/TrackPointExtension/v1">
            <gpxtpx:hr>154</gpxtpx:hr>
          </gpxtpx:TrackPointExtension>
        </extensions>
      </trkpt>
      <trkpt lat="42.92937" lon="1.8409">
        <ele>529.6</ele>
        <time>2022-07-25T09:16:08.000Z</time>
        <extensions>
          <gpxtpx:TrackPointExtension xmlns:gpxtpx="http://www.garmin.com/xmlschemas/TrackPointExtension/v1">
            <gpxtpx:hr>154</gpxtpx:hr>
          </gpxtpx:TrackPointExtension>
        </extensions>
      </trkpt>
      <trkpt lat="42.92932" lon="1.84087">
        <ele>529.7</ele>
        <time>2022-07-25T09:16:10.000Z</time>
        <extensions>
          <gpxtpx:TrackPointExtension xmlns:gpxtpx="http://www.garmin.com/xmlschemas/TrackPointExtension/v1">
            <gpxtpx:hr>154</gpxtpx:hr>
          </gpxtpx:TrackPointExtension>
        </extensions>
      </trkpt>
      <trkpt lat="42.92927" lon="1.84084">
        <ele>529.9</ele>
        <time>2022-07-25T09:16:12.000Z</time>
        <extensions>
          <gpxtpx:TrackPointExtension xmlns:gpxtpx="http://www.garmin.com/xmlschemas/TrackPointExtension/v1">
            <gpxtpx:hr>153</gpxtpx:hr>
          </gpxtpx:TrackPointExtension>
        </extensions>
      </trkpt>
      <trkpt lat="42.9292" lon="1.84083">
        <ele>530.1</ele>
        <time>2022-07-25T09:16:14.000Z</time>
        <extensions>
          <gpxtpx:TrackPointExtension xmlns:gpxtpx="http://www.garmin.com/xmlschemas/TrackPointExtension/v1">
            <gpxtpx:hr>153</gpxtpx:hr>
          </gpxtpx:TrackPointExtension>
        </extensions>
      </trkpt>
      <trkpt lat="42.92913" lon="1.84081">
        <ele>530.3</ele>
        <time>2022-07-25T09:16:16.000Z</time>
        <extensions>
          <gpxtpx:TrackPointExtension xmlns:gpxtpx="http://www.garmin.com/xmlschemas/TrackPointExtension/v1">
            <gpxtpx:hr>153</gpxtpx:hr>
          </gpxtpx:TrackPointExtension>
        </extensions>
      </trkpt>
      <trkpt lat="42.92906" lon="1.84079">
        <ele>530.4</ele>
        <time>2022-07-25T09:16:18.000Z</time>
        <extensions>
          <gpxtpx:TrackPointExtension xmlns:gpxtpx="http://www.garmin.com/xmlschemas/TrackPointExtension/v1">
            <gpxtpx:hr>153</gpxtpx:hr>
          </gpxtpx:TrackPointExtension>
        </extensions>
      </trkpt>
      <trkpt lat="42.92898" lon="1.84076">
        <ele>530.6</ele>
        <time>2022-07-25T09:16:20.000Z</time>
        <extensions>
          <gpxtpx:TrackPointExtension xmlns:gpxtpx="http://www.garmin.com/xmlschemas/TrackPointExtension/v1">
            <gpxtpx:hr>152</gpxtpx:hr>
          </gpxtpx:TrackPointExtension>
        </extensions>
      </trkpt>
      <trkpt lat="42.92894" lon="1.84073">
        <ele>530.6</ele>
        <time>2022-07-25T09:16:21.000Z</time>
        <extensions>
          <gpxtpx:TrackPointExtension xmlns:gpxtpx="http://www.garmin.com/xmlschemas/TrackPointExtension/v1">
            <gpxtpx:hr>152</gpxtpx:hr>
          </gpxtpx:TrackPointExtension>
        </extensions>
      </trkpt>
      <trkpt lat="42.92886" lon="1.8407">
        <ele>530.7</ele>
        <time>2022-07-25T09:16:23.000Z</time>
        <extensions>
          <gpxtpx:TrackPointExtension xmlns:gpxtpx="http://www.garmin.com/xmlschemas/TrackPointExtension/v1">
            <gpxtpx:hr>151</gpxtpx:hr>
          </gpxtpx:TrackPointExtension>
        </extensions>
      </trkpt>
      <trkpt lat="42.92877" lon="1.84068">
        <ele>530.8</ele>
        <time>2022-07-25T09:16:25.000Z</time>
        <extensions>
          <gpxtpx:TrackPointExtension xmlns:gpxtpx="http://www.garmin.com/xmlschemas/TrackPointExtension/v1">
            <gpxtpx:hr>150</gpxtpx:hr>
          </gpxtpx:TrackPointExtension>
        </extensions>
      </trkpt>
      <trkpt lat="42.92873" lon="1.84068">
        <ele>530.9</ele>
        <time>2022-07-25T09:16:26.000Z</time>
        <extensions>
          <gpxtpx:TrackPointExtension xmlns:gpxtpx="http://www.garmin.com/xmlschemas/TrackPointExtension/v1">
            <gpxtpx:hr>149</gpxtpx:hr>
          </gpxtpx:TrackPointExtension>
        </extensions>
      </trkpt>
      <trkpt lat="42.92868" lon="1.84066">
        <ele>530.9</ele>
        <time>2022-07-25T09:16:27.000Z</time>
        <extensions>
          <gpxtpx:TrackPointExtension xmlns:gpxtpx="http://www.garmin.com/xmlschemas/TrackPointExtension/v1">
            <gpxtpx:hr>149</gpxtpx:hr>
          </gpxtpx:TrackPointExtension>
        </extensions>
      </trkpt>
      <trkpt lat="42.92863" lon="1.84065">
        <ele>531</ele>
        <time>2022-07-25T09:16:28.000Z</time>
        <extensions>
          <gpxtpx:TrackPointExtension xmlns:gpxtpx="http://www.garmin.com/xmlschemas/TrackPointExtension/v1">
            <gpxtpx:hr>148</gpxtpx:hr>
          </gpxtpx:TrackPointExtension>
        </extensions>
      </trkpt>
      <trkpt lat="42.92855" lon="1.84063">
        <ele>531</ele>
        <time>2022-07-25T09:16:30.000Z</time>
        <extensions>
          <gpxtpx:TrackPointExtension xmlns:gpxtpx="http://www.garmin.com/xmlschemas/TrackPointExtension/v1">
            <gpxtpx:hr>148</gpxtpx:hr>
          </gpxtpx:TrackPointExtension>
        </extensions>
      </trkpt>
      <trkpt lat="42.92849" lon="1.84062">
        <ele>531.2</ele>
        <time>2022-07-25T09:16:32.000Z</time>
        <extensions>
          <gpxtpx:TrackPointExtension xmlns:gpxtpx="http://www.garmin.com/xmlschemas/TrackPointExtension/v1">
            <gpxtpx:hr>148</gpxtpx:hr>
          </gpxtpx:TrackPointExtension>
        </extensions>
      </trkpt>
      <trkpt lat="42.92844" lon="1.84061">
        <ele>531.3</ele>
        <time>2022-07-25T09:16:34.000Z</time>
        <extensions>
          <gpxtpx:TrackPointExtension xmlns:gpxtpx="http://www.garmin.com/xmlschemas/TrackPointExtension/v1">
            <gpxtpx:hr>148</gpxtpx:hr>
          </gpxtpx:TrackPointExtension>
        </extensions>
      </trkpt>
      <trkpt lat="42.92839" lon="1.84061">
        <ele>531.6</ele>
        <time>2022-07-25T09:16:36.000Z</time>
        <extensions>
          <gpxtpx:TrackPointExtension xmlns:gpxtpx="http://www.garmin.com/xmlschemas/TrackPointExtension/v1">
            <gpxtpx:hr>149</gpxtpx:hr>
          </gpxtpx:TrackPointExtension>
        </extensions>
      </trkpt>
      <trkpt lat="42.92834" lon="1.84061">
        <ele>531.8</ele>
        <time>2022-07-25T09:16:38.000Z</time>
        <extensions>
          <gpxtpx:TrackPointExtension xmlns:gpxtpx="http://www.garmin.com/xmlschemas/TrackPointExtension/v1">
            <gpxtpx:hr>150</gpxtpx:hr>
          </gpxtpx:TrackPointExtension>
        </extensions>
      </trkpt>
      <trkpt lat="42.92828" lon="1.84061">
        <ele>532.1</ele>
        <time>2022-07-25T09:16:40.000Z</time>
        <extensions>
          <gpxtpx:TrackPointExtension xmlns:gpxtpx="http://www.garmin.com/xmlschemas/TrackPointExtension/v1">
            <gpxtpx:hr>151</gpxtpx:hr>
          </gpxtpx:TrackPointExtension>
        </extensions>
      </trkpt>
      <trkpt lat="42.92823" lon="1.84059">
        <ele>532.4</ele>
        <time>2022-07-25T09:16:42.000Z</time>
        <extensions>
          <gpxtpx:TrackPointExtension xmlns:gpxtpx="http://www.garmin.com/xmlschemas/TrackPointExtension/v1">
            <gpxtpx:hr>151</gpxtpx:hr>
          </gpxtpx:TrackPointExtension>
        </extensions>
      </trkpt>
      <trkpt lat="42.92818" lon="1.84057">
        <ele>532.7</ele>
        <time>2022-07-25T09:16:44.000Z</time>
        <extensions>
          <gpxtpx:TrackPointExtension xmlns:gpxtpx="http://www.garmin.com/xmlschemas/TrackPointExtension/v1">
            <gpxtpx:hr>152</gpxtpx:hr>
          </gpxtpx:TrackPointExtension>
        </extensions>
      </trkpt>
      <trkpt lat="42.92813" lon="1.84056">
        <ele>533</ele>
        <time>2022-07-25T09:16:46.000Z</time>
        <extensions>
          <gpxtpx:TrackPointExtension xmlns:gpxtpx="http://www.garmin.com/xmlschemas/TrackPointExtension/v1">
            <gpxtpx:hr>152</gpxtpx:hr>
          </gpxtpx:TrackPointExtension>
        </extensions>
      </trkpt>
      <trkpt lat="42.92808" lon="1.84055">
        <ele>533.2</ele>
        <time>2022-07-25T09:16:48.000Z</time>
        <extensions>
          <gpxtpx:TrackPointExtension xmlns:gpxtpx="http://www.garmin.com/xmlschemas/TrackPointExtension/v1">
            <gpxtpx:hr>153</gpxtpx:hr>
          </gpxtpx:TrackPointExtension>
        </extensions>
      </trkpt>
      <trkpt lat="42.92804" lon="1.84053">
        <ele>533.5</ele>
        <time>2022-07-25T09:16:50.000Z</time>
        <extensions>
          <gpxtpx:TrackPointExtension xmlns:gpxtpx="http://www.garmin.com/xmlschemas/TrackPointExtension/v1">
            <gpxtpx:hr>153</gpxtpx:hr>
          </gpxtpx:TrackPointExtension>
        </extensions>
      </trkpt>
      <trkpt lat="42.92799" lon="1.84052">
        <ele>533.8</ele>
        <time>2022-07-25T09:16:52.000Z</time>
        <extensions>
          <gpxtpx:TrackPointExtension xmlns:gpxtpx="http://www.garmin.com/xmlschemas/TrackPointExtension/v1">
            <gpxtpx:hr>154</gpxtpx:hr>
          </gpxtpx:TrackPointExtension>
        </extensions>
      </trkpt>
      <trkpt lat="42.92794" lon="1.8405">
        <ele>534</ele>
        <time>2022-07-25T09:16:54.000Z</time>
        <extensions>
          <gpxtpx:TrackPointExtension xmlns:gpxtpx="http://www.garmin.com/xmlschemas/TrackPointExtension/v1">
            <gpxtpx:hr>154</gpxtpx:hr>
          </gpxtpx:TrackPointExtension>
        </extensions>
      </trkpt>
      <trkpt lat="42.92789" lon="1.84049">
        <ele>534.3</ele>
        <time>2022-07-25T09:16:56.000Z</time>
        <extensions>
          <gpxtpx:TrackPointExtension xmlns:gpxtpx="http://www.garmin.com/xmlschemas/TrackPointExtension/v1">
            <gpxtpx:hr>155</gpxtpx:hr>
          </gpxtpx:TrackPointExtension>
        </extensions>
      </trkpt>
      <trkpt lat="42.92784" lon="1.84047">
        <ele>534.5</ele>
        <time>2022-07-25T09:16:58.000Z</time>
        <extensions>
          <gpxtpx:TrackPointExtension xmlns:gpxtpx="http://www.garmin.com/xmlschemas/TrackPointExtension/v1">
            <gpxtpx:hr>156</gpxtpx:hr>
          </gpxtpx:TrackPointExtension>
        </extensions>
      </trkpt>
      <trkpt lat="42.9278" lon="1.84045">
        <ele>534.7</ele>
        <time>2022-07-25T09:17:00.000Z</time>
        <extensions>
          <gpxtpx:TrackPointExtension xmlns:gpxtpx="http://www.garmin.com/xmlschemas/TrackPointExtension/v1">
            <gpxtpx:hr>157</gpxtpx:hr>
          </gpxtpx:TrackPointExtension>
        </extensions>
      </trkpt>
      <trkpt lat="42.92775" lon="1.84044">
        <ele>534.9</ele>
        <time>2022-07-25T09:17:02.000Z</time>
        <extensions>
          <gpxtpx:TrackPointExtension xmlns:gpxtpx="http://www.garmin.com/xmlschemas/TrackPointExtension/v1">
            <gpxtpx:hr>157</gpxtpx:hr>
          </gpxtpx:TrackPointExtension>
        </extensions>
      </trkpt>
      <trkpt lat="42.92771" lon="1.84042">
        <ele>535.1</ele>
        <time>2022-07-25T09:17:04.000Z</time>
        <extensions>
          <gpxtpx:TrackPointExtension xmlns:gpxtpx="http://www.garmin.com/xmlschemas/TrackPointExtension/v1">
            <gpxtpx:hr>158</gpxtpx:hr>
          </gpxtpx:TrackPointExtension>
        </extensions>
      </trkpt>
      <trkpt lat="42.92764" lon="1.8404">
        <ele>535.5</ele>
        <time>2022-07-25T09:17:07.000Z</time>
        <extensions>
          <gpxtpx:TrackPointExtension xmlns:gpxtpx="http://www.garmin.com/xmlschemas/TrackPointExtension/v1">
            <gpxtpx:hr>158</gpxtpx:hr>
          </gpxtpx:TrackPointExtension>
        </extensions>
      </trkpt>
      <trkpt lat="42.9276" lon="1.84038">
        <ele>535.7</ele>
        <time>2022-07-25T09:17:09.000Z</time>
        <extensions>
          <gpxtpx:TrackPointExtension xmlns:gpxtpx="http://www.garmin.com/xmlschemas/TrackPointExtension/v1">
            <gpxtpx:hr>158</gpxtpx:hr>
          </gpxtpx:TrackPointExtension>
        </extensions>
      </trkpt>
      <trkpt lat="42.92755" lon="1.84037">
        <ele>535.8</ele>
        <time>2022-07-25T09:17:11.000Z</time>
        <extensions>
          <gpxtpx:TrackPointExtension xmlns:gpxtpx="http://www.garmin.com/xmlschemas/TrackPointExtension/v1">
            <gpxtpx:hr>158</gpxtpx:hr>
          </gpxtpx:TrackPointExtension>
        </extensions>
      </trkpt>
      <trkpt lat="42.9275" lon="1.84035">
        <ele>536</ele>
        <time>2022-07-25T09:17:13.000Z</time>
        <extensions>
          <gpxtpx:TrackPointExtension xmlns:gpxtpx="http://www.garmin.com/xmlschemas/TrackPointExtension/v1">
            <gpxtpx:hr>158</gpxtpx:hr>
          </gpxtpx:TrackPointExtension>
        </extensions>
      </trkpt>
      <trkpt lat="42.92745" lon="1.84033">
        <ele>536.2</ele>
        <time>2022-07-25T09:17:15.000Z</time>
        <extensions>
          <gpxtpx:TrackPointExtension xmlns:gpxtpx="http://www.garmin.com/xmlschemas/TrackPointExtension/v1">
            <gpxtpx:hr>158</gpxtpx:hr>
          </gpxtpx:TrackPointExtension>
        </extensions>
      </trkpt>
      <trkpt lat="42.92739" lon="1.84031">
        <ele>536.3</ele>
        <time>2022-07-25T09:17:17.000Z</time>
        <extensions>
          <gpxtpx:TrackPointExtension xmlns:gpxtpx="http://www.garmin.com/xmlschemas/TrackPointExtension/v1">
            <gpxtpx:hr>158</gpxtpx:hr>
          </gpxtpx:TrackPointExtension>
        </extensions>
      </trkpt>
      <trkpt lat="42.92733" lon="1.84029">
        <ele>536.5</ele>
        <time>2022-07-25T09:17:19.000Z</time>
        <extensions>
          <gpxtpx:TrackPointExtension xmlns:gpxtpx="http://www.garmin.com/xmlschemas/TrackPointExtension/v1">
            <gpxtpx:hr>158</gpxtpx:hr>
          </gpxtpx:TrackPointExtension>
        </extensions>
      </trkpt>
      <trkpt lat="42.92728" lon="1.84027">
        <ele>536.6</ele>
        <time>2022-07-25T09:17:21.000Z</time>
        <extensions>
          <gpxtpx:TrackPointExtension xmlns:gpxtpx="http://www.garmin.com/xmlschemas/TrackPointExtension/v1">
            <gpxtpx:hr>157</gpxtpx:hr>
          </gpxtpx:TrackPointExtension>
        </extensions>
      </trkpt>
      <trkpt lat="42.92724" lon="1.84025">
        <ele>536.8</ele>
        <time>2022-07-25T09:17:23.000Z</time>
        <extensions>
          <gpxtpx:TrackPointExtension xmlns:gpxtpx="http://www.garmin.com/xmlschemas/TrackPointExtension/v1">
            <gpxtpx:hr>157</gpxtpx:hr>
          </gpxtpx:TrackPointExtension>
        </extensions>
      </trkpt>
      <trkpt lat="42.92718" lon="1.84024">
        <ele>536.9</ele>
        <time>2022-07-25T09:17:25.000Z</time>
        <extensions>
          <gpxtpx:TrackPointExtension xmlns:gpxtpx="http://www.garmin.com/xmlschemas/TrackPointExtension/v1">
            <gpxtpx:hr>157</gpxtpx:hr>
          </gpxtpx:TrackPointExtension>
        </extensions>
      </trkpt>
      <trkpt lat="42.92712" lon="1.84022">
        <ele>537</ele>
        <time>2022-07-25T09:17:27.000Z</time>
        <extensions>
          <gpxtpx:TrackPointExtension xmlns:gpxtpx="http://www.garmin.com/xmlschemas/TrackPointExtension/v1">
            <gpxtpx:hr>156</gpxtpx:hr>
          </gpxtpx:TrackPointExtension>
        </extensions>
      </trkpt>
      <trkpt lat="42.92707" lon="1.84021">
        <ele>537.1</ele>
        <time>2022-07-25T09:17:29.000Z</time>
        <extensions>
          <gpxtpx:TrackPointExtension xmlns:gpxtpx="http://www.garmin.com/xmlschemas/TrackPointExtension/v1">
            <gpxtpx:hr>156</gpxtpx:hr>
          </gpxtpx:TrackPointExtension>
        </extensions>
      </trkpt>
      <trkpt lat="42.92703" lon="1.8402">
        <ele>537.2</ele>
        <time>2022-07-25T09:17:31.000Z</time>
        <extensions>
          <gpxtpx:TrackPointExtension xmlns:gpxtpx="http://www.garmin.com/xmlschemas/TrackPointExtension/v1">
            <gpxtpx:hr>155</gpxtpx:hr>
          </gpxtpx:TrackPointExtension>
        </extensions>
      </trkpt>
      <trkpt lat="42.92697" lon="1.84019">
        <ele>537.3</ele>
        <time>2022-07-25T09:17:33.000Z</time>
        <extensions>
          <gpxtpx:TrackPointExtension xmlns:gpxtpx="http://www.garmin.com/xmlschemas/TrackPointExtension/v1">
            <gpxtpx:hr>154</gpxtpx:hr>
          </gpxtpx:TrackPointExtension>
        </extensions>
      </trkpt>
      <trkpt lat="42.9269" lon="1.84019">
        <ele>537.4</ele>
        <time>2022-07-25T09:17:35.000Z</time>
        <extensions>
          <gpxtpx:TrackPointExtension xmlns:gpxtpx="http://www.garmin.com/xmlschemas/TrackPointExtension/v1">
            <gpxtpx:hr>153</gpxtpx:hr>
          </gpxtpx:TrackPointExtension>
        </extensions>
      </trkpt>
      <trkpt lat="42.92682" lon="1.84019">
        <ele>537.5</ele>
        <time>2022-07-25T09:17:37.000Z</time>
        <extensions>
          <gpxtpx:TrackPointExtension xmlns:gpxtpx="http://www.garmin.com/xmlschemas/TrackPointExtension/v1">
            <gpxtpx:hr>151</gpxtpx:hr>
          </gpxtpx:TrackPointExtension>
        </extensions>
      </trkpt>
      <trkpt lat="42.92676" lon="1.84019">
        <ele>537.5</ele>
        <time>2022-07-25T09:17:39.000Z</time>
        <extensions>
          <gpxtpx:TrackPointExtension xmlns:gpxtpx="http://www.garmin.com/xmlschemas/TrackPointExtension/v1">
            <gpxtpx:hr>149</gpxtpx:hr>
          </gpxtpx:TrackPointExtension>
        </extensions>
      </trkpt>
      <trkpt lat="42.92671" lon="1.84016">
        <ele>537.6</ele>
        <time>2022-07-25T09:17:41.000Z</time>
        <extensions>
          <gpxtpx:TrackPointExtension xmlns:gpxtpx="http://www.garmin.com/xmlschemas/TrackPointExtension/v1">
            <gpxtpx:hr>146</gpxtpx:hr>
          </gpxtpx:TrackPointExtension>
        </extensions>
      </trkpt>
      <trkpt lat="42.92668" lon="1.8401">
        <ele>537.6</ele>
        <time>2022-07-25T09:17:43.000Z</time>
        <extensions>
          <gpxtpx:TrackPointExtension xmlns:gpxtpx="http://www.garmin.com/xmlschemas/TrackPointExtension/v1">
            <gpxtpx:hr>146</gpxtpx:hr>
          </gpxtpx:TrackPointExtension>
        </extensions>
      </trkpt>
      <trkpt lat="42.92662" lon="1.84008">
        <ele>537.7</ele>
        <time>2022-07-25T09:17:45.000Z</time>
        <extensions>
          <gpxtpx:TrackPointExtension xmlns:gpxtpx="http://www.garmin.com/xmlschemas/TrackPointExtension/v1">
            <gpxtpx:hr>144</gpxtpx:hr>
          </gpxtpx:TrackPointExtension>
        </extensions>
      </trkpt>
      <trkpt lat="42.92655" lon="1.84009">
        <ele>537.7</ele>
        <time>2022-07-25T09:17:47.000Z</time>
        <extensions>
          <gpxtpx:TrackPointExtension xmlns:gpxtpx="http://www.garmin.com/xmlschemas/TrackPointExtension/v1">
            <gpxtpx:hr>144</gpxtpx:hr>
          </gpxtpx:TrackPointExtension>
        </extensions>
      </trkpt>
      <trkpt lat="42.9265" lon="1.8401">
        <ele>537.8</ele>
        <time>2022-07-25T09:17:49.000Z</time>
        <extensions>
          <gpxtpx:TrackPointExtension xmlns:gpxtpx="http://www.garmin.com/xmlschemas/TrackPointExtension/v1">
            <gpxtpx:hr>144</gpxtpx:hr>
          </gpxtpx:TrackPointExtension>
        </extensions>
      </trkpt>
      <trkpt lat="42.92644" lon="1.8401">
        <ele>537.8</ele>
        <time>2022-07-25T09:17:51.000Z</time>
        <extensions>
          <gpxtpx:TrackPointExtension xmlns:gpxtpx="http://www.garmin.com/xmlschemas/TrackPointExtension/v1">
            <gpxtpx:hr>145</gpxtpx:hr>
          </gpxtpx:TrackPointExtension>
        </extensions>
      </trkpt>
      <trkpt lat="42.92639" lon="1.84011">
        <ele>537.8</ele>
        <time>2022-07-25T09:17:53.000Z</time>
        <extensions>
          <gpxtpx:TrackPointExtension xmlns:gpxtpx="http://www.garmin.com/xmlschemas/TrackPointExtension/v1">
            <gpxtpx:hr>146</gpxtpx:hr>
          </gpxtpx:TrackPointExtension>
        </extensions>
      </trkpt>
      <trkpt lat="42.92633" lon="1.8401">
        <ele>537.8</ele>
        <time>2022-07-25T09:17:55.000Z</time>
        <extensions>
          <gpxtpx:TrackPointExtension xmlns:gpxtpx="http://www.garmin.com/xmlschemas/TrackPointExtension/v1">
            <gpxtpx:hr>146</gpxtpx:hr>
          </gpxtpx:TrackPointExtension>
        </extensions>
      </trkpt>
      <trkpt lat="42.92628" lon="1.84009">
        <ele>537.9</ele>
        <time>2022-07-25T09:17:57.000Z</time>
        <extensions>
          <gpxtpx:TrackPointExtension xmlns:gpxtpx="http://www.garmin.com/xmlschemas/TrackPointExtension/v1">
            <gpxtpx:hr>147</gpxtpx:hr>
          </gpxtpx:TrackPointExtension>
        </extensions>
      </trkpt>
      <trkpt lat="42.92623" lon="1.84008">
        <ele>538</ele>
        <time>2022-07-25T09:17:59.000Z</time>
        <extensions>
          <gpxtpx:TrackPointExtension xmlns:gpxtpx="http://www.garmin.com/xmlschemas/TrackPointExtension/v1">
            <gpxtpx:hr>148</gpxtpx:hr>
          </gpxtpx:TrackPointExtension>
        </extensions>
      </trkpt>
      <trkpt lat="42.92618" lon="1.84008">
        <ele>538.1</ele>
        <time>2022-07-25T09:18:01.000Z</time>
        <extensions>
          <gpxtpx:TrackPointExtension xmlns:gpxtpx="http://www.garmin.com/xmlschemas/TrackPointExtension/v1">
            <gpxtpx:hr>148</gpxtpx:hr>
          </gpxtpx:TrackPointExtension>
        </extensions>
      </trkpt>
      <trkpt lat="42.92613" lon="1.84007">
        <ele>538.2</ele>
        <time>2022-07-25T09:18:03.000Z</time>
        <extensions>
          <gpxtpx:TrackPointExtension xmlns:gpxtpx="http://www.garmin.com/xmlschemas/TrackPointExtension/v1">
            <gpxtpx:hr>148</gpxtpx:hr>
          </gpxtpx:TrackPointExtension>
        </extensions>
      </trkpt>
      <trkpt lat="42.92607" lon="1.84007">
        <ele>538.3</ele>
        <time>2022-07-25T09:18:05.000Z</time>
        <extensions>
          <gpxtpx:TrackPointExtension xmlns:gpxtpx="http://www.garmin.com/xmlschemas/TrackPointExtension/v1">
            <gpxtpx:hr>148</gpxtpx:hr>
          </gpxtpx:TrackPointExtension>
        </extensions>
      </trkpt>
      <trkpt lat="42.92601" lon="1.84008">
        <ele>538.4</ele>
        <time>2022-07-25T09:18:07.000Z</time>
        <extensions>
          <gpxtpx:TrackPointExtension xmlns:gpxtpx="http://www.garmin.com/xmlschemas/TrackPointExtension/v1">
            <gpxtpx:hr>148</gpxtpx:hr>
          </gpxtpx:TrackPointExtension>
        </extensions>
      </trkpt>
      <trkpt lat="42.92596" lon="1.84007">
        <ele>538.5</ele>
        <time>2022-07-25T09:18:09.000Z</time>
        <extensions>
          <gpxtpx:TrackPointExtension xmlns:gpxtpx="http://www.garmin.com/xmlschemas/TrackPointExtension/v1">
            <gpxtpx:hr>148</gpxtpx:hr>
          </gpxtpx:TrackPointExtension>
        </extensions>
      </trkpt>
      <trkpt lat="42.92591" lon="1.84005">
        <ele>538.7</ele>
        <time>2022-07-25T09:18:11.000Z</time>
        <extensions>
          <gpxtpx:TrackPointExtension xmlns:gpxtpx="http://www.garmin.com/xmlschemas/TrackPointExtension/v1">
            <gpxtpx:hr>148</gpxtpx:hr>
          </gpxtpx:TrackPointExtension>
        </extensions>
      </trkpt>
      <trkpt lat="42.92585" lon="1.84003">
        <ele>538.8</ele>
        <time>2022-07-25T09:18:13.000Z</time>
        <extensions>
          <gpxtpx:TrackPointExtension xmlns:gpxtpx="http://www.garmin.com/xmlschemas/TrackPointExtension/v1">
            <gpxtpx:hr>148</gpxtpx:hr>
          </gpxtpx:TrackPointExtension>
        </extensions>
      </trkpt>
      <trkpt lat="42.92579" lon="1.84004">
        <ele>538.9</ele>
        <time>2022-07-25T09:18:15.000Z</time>
        <extensions>
          <gpxtpx:TrackPointExtension xmlns:gpxtpx="http://www.garmin.com/xmlschemas/TrackPointExtension/v1">
            <gpxtpx:hr>148</gpxtpx:hr>
          </gpxtpx:TrackPointExtension>
        </extensions>
      </trkpt>
      <trkpt lat="42.92572" lon="1.84005">
        <ele>539</ele>
        <time>2022-07-25T09:18:17.000Z</time>
        <extensions>
          <gpxtpx:TrackPointExtension xmlns:gpxtpx="http://www.garmin.com/xmlschemas/TrackPointExtension/v1">
            <gpxtpx:hr>148</gpxtpx:hr>
          </gpxtpx:TrackPointExtension>
        </extensions>
      </trkpt>
      <trkpt lat="42.92565" lon="1.84007">
        <ele>539.1</ele>
        <time>2022-07-25T09:18:19.000Z</time>
        <extensions>
          <gpxtpx:TrackPointExtension xmlns:gpxtpx="http://www.garmin.com/xmlschemas/TrackPointExtension/v1">
            <gpxtpx:hr>148</gpxtpx:hr>
          </gpxtpx:TrackPointExtension>
        </extensions>
      </trkpt>
      <trkpt lat="42.92559" lon="1.84008">
        <ele>539.2</ele>
        <time>2022-07-25T09:18:21.000Z</time>
        <extensions>
          <gpxtpx:TrackPointExtension xmlns:gpxtpx="http://www.garmin.com/xmlschemas/TrackPointExtension/v1">
            <gpxtpx:hr>149</gpxtpx:hr>
          </gpxtpx:TrackPointExtension>
        </extensions>
      </trkpt>
      <trkpt lat="42.92551" lon="1.84009">
        <ele>539.3</ele>
        <time>2022-07-25T09:18:23.000Z</time>
        <extensions>
          <gpxtpx:TrackPointExtension xmlns:gpxtpx="http://www.garmin.com/xmlschemas/TrackPointExtension/v1">
            <gpxtpx:hr>149</gpxtpx:hr>
          </gpxtpx:TrackPointExtension>
        </extensions>
      </trkpt>
      <trkpt lat="42.92544" lon="1.84012">
        <ele>539.4</ele>
        <time>2022-07-25T09:18:25.000Z</time>
        <extensions>
          <gpxtpx:TrackPointExtension xmlns:gpxtpx="http://www.garmin.com/xmlschemas/TrackPointExtension/v1">
            <gpxtpx:hr>149</gpxtpx:hr>
          </gpxtpx:TrackPointExtension>
        </extensions>
      </trkpt>
      <trkpt lat="42.92536" lon="1.84014">
        <ele>539.5</ele>
        <time>2022-07-25T09:18:27.000Z</time>
        <extensions>
          <gpxtpx:TrackPointExtension xmlns:gpxtpx="http://www.garmin.com/xmlschemas/TrackPointExtension/v1">
            <gpxtpx:hr>149</gpxtpx:hr>
          </gpxtpx:TrackPointExtension>
        </extensions>
      </trkpt>
      <trkpt lat="42.92528" lon="1.84013">
        <ele>539.5</ele>
        <time>2022-07-25T09:18:29.000Z</time>
        <extensions>
          <gpxtpx:TrackPointExtension xmlns:gpxtpx="http://www.garmin.com/xmlschemas/TrackPointExtension/v1">
            <gpxtpx:hr>149</gpxtpx:hr>
          </gpxtpx:TrackPointExtension>
        </extensions>
      </trkpt>
      <trkpt lat="42.92522" lon="1.84011">
        <ele>539.6</ele>
        <time>2022-07-25T09:18:31.000Z</time>
        <extensions>
          <gpxtpx:TrackPointExtension xmlns:gpxtpx="http://www.garmin.com/xmlschemas/TrackPointExtension/v1">
            <gpxtpx:hr>149</gpxtpx:hr>
          </gpxtpx:TrackPointExtension>
        </extensions>
      </trkpt>
      <trkpt lat="42.92514" lon="1.8401">
        <ele>539.7</ele>
        <time>2022-07-25T09:18:33.000Z</time>
        <extensions>
          <gpxtpx:TrackPointExtension xmlns:gpxtpx="http://www.garmin.com/xmlschemas/TrackPointExtension/v1">
            <gpxtpx:hr>149</gpxtpx:hr>
          </gpxtpx:TrackPointExtension>
        </extensions>
      </trkpt>
      <trkpt lat="42.92507" lon="1.84008">
        <ele>539.8</ele>
        <time>2022-07-25T09:18:35.000Z</time>
        <extensions>
          <gpxtpx:TrackPointExtension xmlns:gpxtpx="http://www.garmin.com/xmlschemas/TrackPointExtension/v1">
            <gpxtpx:hr>149</gpxtpx:hr>
          </gpxtpx:TrackPointExtension>
        </extensions>
      </trkpt>
      <trkpt lat="42.92501" lon="1.84006">
        <ele>539.9</ele>
        <time>2022-07-25T09:18:37.000Z</time>
        <extensions>
          <gpxtpx:TrackPointExtension xmlns:gpxtpx="http://www.garmin.com/xmlschemas/TrackPointExtension/v1">
            <gpxtpx:hr>149</gpxtpx:hr>
          </gpxtpx:TrackPointExtension>
        </extensions>
      </trkpt>
      <trkpt lat="42.92495" lon="1.84004">
        <ele>540</ele>
        <time>2022-07-25T09:18:39.000Z</time>
        <extensions>
          <gpxtpx:TrackPointExtension xmlns:gpxtpx="http://www.garmin.com/xmlschemas/TrackPointExtension/v1">
            <gpxtpx:hr>149</gpxtpx:hr>
          </gpxtpx:TrackPointExtension>
        </extensions>
      </trkpt>
      <trkpt lat="42.9249" lon="1.84003">
        <ele>540.2</ele>
        <time>2022-07-25T09:18:41.000Z</time>
        <extensions>
          <gpxtpx:TrackPointExtension xmlns:gpxtpx="http://www.garmin.com/xmlschemas/TrackPointExtension/v1">
            <gpxtpx:hr>149</gpxtpx:hr>
          </gpxtpx:TrackPointExtension>
        </extensions>
      </trkpt>
      <trkpt lat="42.92484" lon="1.84001">
        <ele>540.4</ele>
        <time>2022-07-25T09:18:43.000Z</time>
        <extensions>
          <gpxtpx:TrackPointExtension xmlns:gpxtpx="http://www.garmin.com/xmlschemas/TrackPointExtension/v1">
            <gpxtpx:hr>149</gpxtpx:hr>
          </gpxtpx:TrackPointExtension>
        </extensions>
      </trkpt>
      <trkpt lat="42.92478" lon="1.84">
        <ele>540.7</ele>
        <time>2022-07-25T09:18:45.000Z</time>
        <extensions>
          <gpxtpx:TrackPointExtension xmlns:gpxtpx="http://www.garmin.com/xmlschemas/TrackPointExtension/v1">
            <gpxtpx:hr>149</gpxtpx:hr>
          </gpxtpx:TrackPointExtension>
        </extensions>
      </trkpt>
      <trkpt lat="42.92473" lon="1.83998">
        <ele>540.9</ele>
        <time>2022-07-25T09:18:47.000Z</time>
        <extensions>
          <gpxtpx:TrackPointExtension xmlns:gpxtpx="http://www.garmin.com/xmlschemas/TrackPointExtension/v1">
            <gpxtpx:hr>150</gpxtpx:hr>
          </gpxtpx:TrackPointExtension>
        </extensions>
      </trkpt>
      <trkpt lat="42.92468" lon="1.83996">
        <ele>541.1</ele>
        <time>2022-07-25T09:18:49.000Z</time>
        <extensions>
          <gpxtpx:TrackPointExtension xmlns:gpxtpx="http://www.garmin.com/xmlschemas/TrackPointExtension/v1">
            <gpxtpx:hr>150</gpxtpx:hr>
          </gpxtpx:TrackPointExtension>
        </extensions>
      </trkpt>
      <trkpt lat="42.92462" lon="1.83994">
        <ele>541.3</ele>
        <time>2022-07-25T09:18:51.000Z</time>
        <extensions>
          <gpxtpx:TrackPointExtension xmlns:gpxtpx="http://www.garmin.com/xmlschemas/TrackPointExtension/v1">
            <gpxtpx:hr>150</gpxtpx:hr>
          </gpxtpx:TrackPointExtension>
        </extensions>
      </trkpt>
      <trkpt lat="42.92457" lon="1.83992">
        <ele>541.6</ele>
        <time>2022-07-25T09:18:53.000Z</time>
        <extensions>
          <gpxtpx:TrackPointExtension xmlns:gpxtpx="http://www.garmin.com/xmlschemas/TrackPointExtension/v1">
            <gpxtpx:hr>150</gpxtpx:hr>
          </gpxtpx:TrackPointExtension>
        </extensions>
      </trkpt>
      <trkpt lat="42.92453" lon="1.83988">
        <ele>541.8</ele>
        <time>2022-07-25T09:18:55.000Z</time>
        <extensions>
          <gpxtpx:TrackPointExtension xmlns:gpxtpx="http://www.garmin.com/xmlschemas/TrackPointExtension/v1">
            <gpxtpx:hr>151</gpxtpx:hr>
          </gpxtpx:TrackPointExtension>
        </extensions>
      </trkpt>
      <trkpt lat="42.92449" lon="1.83984">
        <ele>542.3</ele>
        <time>2022-07-25T09:18:59.000Z</time>
        <extensions>
          <gpxtpx:TrackPointExtension xmlns:gpxtpx="http://www.garmin.com/xmlschemas/TrackPointExtension/v1">
            <gpxtpx:hr>151</gpxtpx:hr>
          </gpxtpx:TrackPointExtension>
        </extensions>
      </trkpt>
      <trkpt lat="42.92444" lon="1.83981">
        <ele>542.6</ele>
        <time>2022-07-25T09:19:02.000Z</time>
        <extensions>
          <gpxtpx:TrackPointExtension xmlns:gpxtpx="http://www.garmin.com/xmlschemas/TrackPointExtension/v1">
            <gpxtpx:hr>152</gpxtpx:hr>
          </gpxtpx:TrackPointExtension>
        </extensions>
      </trkpt>
      <trkpt lat="42.92439" lon="1.83979">
        <ele>542.8</ele>
        <time>2022-07-25T09:19:04.000Z</time>
        <extensions>
          <gpxtpx:TrackPointExtension xmlns:gpxtpx="http://www.garmin.com/xmlschemas/TrackPointExtension/v1">
            <gpxtpx:hr>153</gpxtpx:hr>
          </gpxtpx:TrackPointExtension>
        </extensions>
      </trkpt>
      <trkpt lat="42.92436" lon="1.83975">
        <ele>543.1</ele>
        <time>2022-07-25T09:19:06.000Z</time>
        <extensions>
          <gpxtpx:TrackPointExtension xmlns:gpxtpx="http://www.garmin.com/xmlschemas/TrackPointExtension/v1">
            <gpxtpx:hr>153</gpxtpx:hr>
          </gpxtpx:TrackPointExtension>
        </extensions>
      </trkpt>
      <trkpt lat="42.92432" lon="1.83972">
        <ele>543.3</ele>
        <time>2022-07-25T09:19:08.000Z</time>
        <extensions>
          <gpxtpx:TrackPointExtension xmlns:gpxtpx="http://www.garmin.com/xmlschemas/TrackPointExtension/v1">
            <gpxtpx:hr>153</gpxtpx:hr>
          </gpxtpx:TrackPointExtension>
        </extensions>
      </trkpt>
      <trkpt lat="42.92428" lon="1.83966">
        <ele>543.7</ele>
        <time>2022-07-25T09:19:11.000Z</time>
        <extensions>
          <gpxtpx:TrackPointExtension xmlns:gpxtpx="http://www.garmin.com/xmlschemas/TrackPointExtension/v1">
            <gpxtpx:hr>154</gpxtpx:hr>
          </gpxtpx:TrackPointExtension>
        </extensions>
      </trkpt>
      <trkpt lat="42.92425" lon="1.8396">
        <ele>543.9</ele>
        <time>2022-07-25T09:19:13.000Z</time>
        <extensions>
          <gpxtpx:TrackPointExtension xmlns:gpxtpx="http://www.garmin.com/xmlschemas/TrackPointExtension/v1">
            <gpxtpx:hr>154</gpxtpx:hr>
          </gpxtpx:TrackPointExtension>
        </extensions>
      </trkpt>
      <trkpt lat="42.92422" lon="1.83955">
        <ele>544.2</ele>
        <time>2022-07-25T09:19:15.000Z</time>
        <extensions>
          <gpxtpx:TrackPointExtension xmlns:gpxtpx="http://www.garmin.com/xmlschemas/TrackPointExtension/v1">
            <gpxtpx:hr>154</gpxtpx:hr>
          </gpxtpx:TrackPointExtension>
        </extensions>
      </trkpt>
      <trkpt lat="42.92418" lon="1.8395">
        <ele>544.4</ele>
        <time>2022-07-25T09:19:17.000Z</time>
        <extensions>
          <gpxtpx:TrackPointExtension xmlns:gpxtpx="http://www.garmin.com/xmlschemas/TrackPointExtension/v1">
            <gpxtpx:hr>154</gpxtpx:hr>
          </gpxtpx:TrackPointExtension>
        </extensions>
      </trkpt>
      <trkpt lat="42.92414" lon="1.83945">
        <ele>544.6</ele>
        <time>2022-07-25T09:19:19.000Z</time>
        <extensions>
          <gpxtpx:TrackPointExtension xmlns:gpxtpx="http://www.garmin.com/xmlschemas/TrackPointExtension/v1">
            <gpxtpx:hr>154</gpxtpx:hr>
          </gpxtpx:TrackPointExtension>
        </extensions>
      </trkpt>
      <trkpt lat="42.92409" lon="1.8394">
        <ele>544.9</ele>
        <time>2022-07-25T09:19:21.000Z</time>
        <extensions>
          <gpxtpx:TrackPointExtension xmlns:gpxtpx="http://www.garmin.com/xmlschemas/TrackPointExtension/v1">
            <gpxtpx:hr>154</gpxtpx:hr>
          </gpxtpx:TrackPointExtension>
        </extensions>
      </trkpt>
      <trkpt lat="42.92405" lon="1.83938">
        <ele>545.2</ele>
        <time>2022-07-25T09:19:23.000Z</time>
        <extensions>
          <gpxtpx:TrackPointExtension xmlns:gpxtpx="http://www.garmin.com/xmlschemas/TrackPointExtension/v1">
            <gpxtpx:hr>154</gpxtpx:hr>
          </gpxtpx:TrackPointExtension>
        </extensions>
      </trkpt>
      <trkpt lat="42.924" lon="1.83935">
        <ele>545.5</ele>
        <time>2022-07-25T09:19:25.000Z</time>
        <extensions>
          <gpxtpx:TrackPointExtension xmlns:gpxtpx="http://www.garmin.com/xmlschemas/TrackPointExtension/v1">
            <gpxtpx:hr>155</gpxtpx:hr>
          </gpxtpx:TrackPointExtension>
        </extensions>
      </trkpt>
      <trkpt lat="42.92395" lon="1.8393">
        <ele>545.8</ele>
        <time>2022-07-25T09:19:27.000Z</time>
        <extensions>
          <gpxtpx:TrackPointExtension xmlns:gpxtpx="http://www.garmin.com/xmlschemas/TrackPointExtension/v1">
            <gpxtpx:hr>155</gpxtpx:hr>
          </gpxtpx:TrackPointExtension>
        </extensions>
      </trkpt>
      <trkpt lat="42.9239" lon="1.83927">
        <ele>546.1</ele>
        <time>2022-07-25T09:19:29.000Z</time>
        <extensions>
          <gpxtpx:TrackPointExtension xmlns:gpxtpx="http://www.garmin.com/xmlschemas/TrackPointExtension/v1">
            <gpxtpx:hr>155</gpxtpx:hr>
          </gpxtpx:TrackPointExtension>
        </extensions>
      </trkpt>
      <trkpt lat="42.92384" lon="1.83923">
        <ele>546.3</ele>
        <time>2022-07-25T09:19:31.000Z</time>
        <extensions>
          <gpxtpx:TrackPointExtension xmlns:gpxtpx="http://www.garmin.com/xmlschemas/TrackPointExtension/v1">
            <gpxtpx:hr>155</gpxtpx:hr>
          </gpxtpx:TrackPointExtension>
        </extensions>
      </trkpt>
      <trkpt lat="42.92378" lon="1.83919">
        <ele>546.5</ele>
        <time>2022-07-25T09:19:33.000Z</time>
        <extensions>
          <gpxtpx:TrackPointExtension xmlns:gpxtpx="http://www.garmin.com/xmlschemas/TrackPointExtension/v1">
            <gpxtpx:hr>155</gpxtpx:hr>
          </gpxtpx:TrackPointExtension>
        </extensions>
      </trkpt>
      <trkpt lat="42.92372" lon="1.83914">
        <ele>546.6</ele>
        <time>2022-07-25T09:19:35.000Z</time>
        <extensions>
          <gpxtpx:TrackPointExtension xmlns:gpxtpx="http://www.garmin.com/xmlschemas/TrackPointExtension/v1">
            <gpxtpx:hr>155</gpxtpx:hr>
          </gpxtpx:TrackPointExtension>
        </extensions>
      </trkpt>
      <trkpt lat="42.92366" lon="1.83908">
        <ele>546.8</ele>
        <time>2022-07-25T09:19:37.000Z</time>
        <extensions>
          <gpxtpx:TrackPointExtension xmlns:gpxtpx="http://www.garmin.com/xmlschemas/TrackPointExtension/v1">
            <gpxtpx:hr>155</gpxtpx:hr>
          </gpxtpx:TrackPointExtension>
        </extensions>
      </trkpt>
      <trkpt lat="42.92361" lon="1.83903">
        <ele>546.9</ele>
        <time>2022-07-25T09:19:39.000Z</time>
        <extensions>
          <gpxtpx:TrackPointExtension xmlns:gpxtpx="http://www.garmin.com/xmlschemas/TrackPointExtension/v1">
            <gpxtpx:hr>155</gpxtpx:hr>
          </gpxtpx:TrackPointExtension>
        </extensions>
      </trkpt>
      <trkpt lat="42.92355" lon="1.83899">
        <ele>547</ele>
        <time>2022-07-25T09:19:41.000Z</time>
        <extensions>
          <gpxtpx:TrackPointExtension xmlns:gpxtpx="http://www.garmin.com/xmlschemas/TrackPointExtension/v1">
            <gpxtpx:hr>155</gpxtpx:hr>
          </gpxtpx:TrackPointExtension>
        </extensions>
      </trkpt>
      <trkpt lat="42.92349" lon="1.83893">
        <ele>547.1</ele>
        <time>2022-07-25T09:19:43.000Z</time>
        <extensions>
          <gpxtpx:TrackPointExtension xmlns:gpxtpx="http://www.garmin.com/xmlschemas/TrackPointExtension/v1">
            <gpxtpx:hr>155</gpxtpx:hr>
          </gpxtpx:TrackPointExtension>
        </extensions>
      </trkpt>
      <trkpt lat="42.92343" lon="1.8389">
        <ele>547.2</ele>
        <time>2022-07-25T09:19:45.000Z</time>
        <extensions>
          <gpxtpx:TrackPointExtension xmlns:gpxtpx="http://www.garmin.com/xmlschemas/TrackPointExtension/v1">
            <gpxtpx:hr>155</gpxtpx:hr>
          </gpxtpx:TrackPointExtension>
        </extensions>
      </trkpt>
      <trkpt lat="42.92337" lon="1.83886">
        <ele>547.3</ele>
        <time>2022-07-25T09:19:47.000Z</time>
        <extensions>
          <gpxtpx:TrackPointExtension xmlns:gpxtpx="http://www.garmin.com/xmlschemas/TrackPointExtension/v1">
            <gpxtpx:hr>155</gpxtpx:hr>
          </gpxtpx:TrackPointExtension>
        </extensions>
      </trkpt>
      <trkpt lat="42.92331" lon="1.83883">
        <ele>547.4</ele>
        <time>2022-07-25T09:19:49.000Z</time>
        <extensions>
          <gpxtpx:TrackPointExtension xmlns:gpxtpx="http://www.garmin.com/xmlschemas/TrackPointExtension/v1">
            <gpxtpx:hr>155</gpxtpx:hr>
          </gpxtpx:TrackPointExtension>
        </extensions>
      </trkpt>
      <trkpt lat="42.92325" lon="1.83879">
        <ele>547.5</ele>
        <time>2022-07-25T09:19:51.000Z</time>
        <extensions>
          <gpxtpx:TrackPointExtension xmlns:gpxtpx="http://www.garmin.com/xmlschemas/TrackPointExtension/v1">
            <gpxtpx:hr>155</gpxtpx:hr>
          </gpxtpx:TrackPointExtension>
        </extensions>
      </trkpt>
      <trkpt lat="42.92318" lon="1.83876">
        <ele>547.7</ele>
        <time>2022-07-25T09:19:53.000Z</time>
        <extensions>
          <gpxtpx:TrackPointExtension xmlns:gpxtpx="http://www.garmin.com/xmlschemas/TrackPointExtension/v1">
            <gpxtpx:hr>155</gpxtpx:hr>
          </gpxtpx:TrackPointExtension>
        </extensions>
      </trkpt>
      <trkpt lat="42.92312" lon="1.83874">
        <ele>547.9</ele>
        <time>2022-07-25T09:19:55.000Z</time>
        <extensions>
          <gpxtpx:TrackPointExtension xmlns:gpxtpx="http://www.garmin.com/xmlschemas/TrackPointExtension/v1">
            <gpxtpx:hr>155</gpxtpx:hr>
          </gpxtpx:TrackPointExtension>
        </extensions>
      </trkpt>
      <trkpt lat="42.92305" lon="1.8387">
        <ele>548</ele>
        <time>2022-07-25T09:19:57.000Z</time>
        <extensions>
          <gpxtpx:TrackPointExtension xmlns:gpxtpx="http://www.garmin.com/xmlschemas/TrackPointExtension/v1">
            <gpxtpx:hr>155</gpxtpx:hr>
          </gpxtpx:TrackPointExtension>
        </extensions>
      </trkpt>
      <trkpt lat="42.92298" lon="1.83867">
        <ele>548.2</ele>
        <time>2022-07-25T09:19:59.000Z</time>
        <extensions>
          <gpxtpx:TrackPointExtension xmlns:gpxtpx="http://www.garmin.com/xmlschemas/TrackPointExtension/v1">
            <gpxtpx:hr>155</gpxtpx:hr>
          </gpxtpx:TrackPointExtension>
        </extensions>
      </trkpt>
      <trkpt lat="42.92291" lon="1.83864">
        <ele>548.4</ele>
        <time>2022-07-25T09:20:01.000Z</time>
        <extensions>
          <gpxtpx:TrackPointExtension xmlns:gpxtpx="http://www.garmin.com/xmlschemas/TrackPointExtension/v1">
            <gpxtpx:hr>155</gpxtpx:hr>
          </gpxtpx:TrackPointExtension>
        </extensions>
      </trkpt>
      <trkpt lat="42.92284" lon="1.83861">
        <ele>548.6</ele>
        <time>2022-07-25T09:20:03.000Z</time>
        <extensions>
          <gpxtpx:TrackPointExtension xmlns:gpxtpx="http://www.garmin.com/xmlschemas/TrackPointExtension/v1">
            <gpxtpx:hr>155</gpxtpx:hr>
          </gpxtpx:TrackPointExtension>
        </extensions>
      </trkpt>
      <trkpt lat="42.92277" lon="1.83857">
        <ele>548.8</ele>
        <time>2022-07-25T09:20:05.000Z</time>
        <extensions>
          <gpxtpx:TrackPointExtension xmlns:gpxtpx="http://www.garmin.com/xmlschemas/TrackPointExtension/v1">
            <gpxtpx:hr>155</gpxtpx:hr>
          </gpxtpx:TrackPointExtension>
        </extensions>
      </trkpt>
      <trkpt lat="42.9227" lon="1.83853">
        <ele>548.9</ele>
        <time>2022-07-25T09:20:07.000Z</time>
        <extensions>
          <gpxtpx:TrackPointExtension xmlns:gpxtpx="http://www.garmin.com/xmlschemas/TrackPointExtension/v1">
            <gpxtpx:hr>156</gpxtpx:hr>
          </gpxtpx:TrackPointExtension>
        </extensions>
      </trkpt>
      <trkpt lat="42.92263" lon="1.8385">
        <ele>549.1</ele>
        <time>2022-07-25T09:20:09.000Z</time>
        <extensions>
          <gpxtpx:TrackPointExtension xmlns:gpxtpx="http://www.garmin.com/xmlschemas/TrackPointExtension/v1">
            <gpxtpx:hr>156</gpxtpx:hr>
          </gpxtpx:TrackPointExtension>
        </extensions>
      </trkpt>
      <trkpt lat="42.92257" lon="1.83846">
        <ele>549.2</ele>
        <time>2022-07-25T09:20:11.000Z</time>
        <extensions>
          <gpxtpx:TrackPointExtension xmlns:gpxtpx="http://www.garmin.com/xmlschemas/TrackPointExtension/v1">
            <gpxtpx:hr>156</gpxtpx:hr>
          </gpxtpx:TrackPointExtension>
        </extensions>
      </trkpt>
      <trkpt lat="42.92252" lon="1.83841">
        <ele>549.4</ele>
        <time>2022-07-25T09:20:13.000Z</time>
        <extensions>
          <gpxtpx:TrackPointExtension xmlns:gpxtpx="http://www.garmin.com/xmlschemas/TrackPointExtension/v1">
            <gpxtpx:hr>156</gpxtpx:hr>
          </gpxtpx:TrackPointExtension>
        </extensions>
      </trkpt>
      <trkpt lat="42.92246" lon="1.83837">
        <ele>549.5</ele>
        <time>2022-07-25T09:20:15.000Z</time>
        <extensions>
          <gpxtpx:TrackPointExtension xmlns:gpxtpx="http://www.garmin.com/xmlschemas/TrackPointExtension/v1">
            <gpxtpx:hr>156</gpxtpx:hr>
          </gpxtpx:TrackPointExtension>
        </extensions>
      </trkpt>
      <trkpt lat="42.9224" lon="1.83835">
        <ele>549.6</ele>
        <time>2022-07-25T09:20:17.000Z</time>
        <extensions>
          <gpxtpx:TrackPointExtension xmlns:gpxtpx="http://www.garmin.com/xmlschemas/TrackPointExtension/v1">
            <gpxtpx:hr>156</gpxtpx:hr>
          </gpxtpx:TrackPointExtension>
        </extensions>
      </trkpt>
      <trkpt lat="42.92233" lon="1.83832">
        <ele>549.8</ele>
        <time>2022-07-25T09:20:19.000Z</time>
        <extensions>
          <gpxtpx:TrackPointExtension xmlns:gpxtpx="http://www.garmin.com/xmlschemas/TrackPointExtension/v1">
            <gpxtpx:hr>156</gpxtpx:hr>
          </gpxtpx:TrackPointExtension>
        </extensions>
      </trkpt>
      <trkpt lat="42.92226" lon="1.8383">
        <ele>550</ele>
        <time>2022-07-25T09:20:21.000Z</time>
        <extensions>
          <gpxtpx:TrackPointExtension xmlns:gpxtpx="http://www.garmin.com/xmlschemas/TrackPointExtension/v1">
            <gpxtpx:hr>156</gpxtpx:hr>
          </gpxtpx:TrackPointExtension>
        </extensions>
      </trkpt>
      <trkpt lat="42.9222" lon="1.83827">
        <ele>550.1</ele>
        <time>2022-07-25T09:20:23.000Z</time>
        <extensions>
          <gpxtpx:TrackPointExtension xmlns:gpxtpx="http://www.garmin.com/xmlschemas/TrackPointExtension/v1">
            <gpxtpx:hr>156</gpxtpx:hr>
          </gpxtpx:TrackPointExtension>
        </extensions>
      </trkpt>
      <trkpt lat="42.92214" lon="1.83824">
        <ele>550.3</ele>
        <time>2022-07-25T09:20:25.000Z</time>
        <extensions>
          <gpxtpx:TrackPointExtension xmlns:gpxtpx="http://www.garmin.com/xmlschemas/TrackPointExtension/v1">
            <gpxtpx:hr>156</gpxtpx:hr>
          </gpxtpx:TrackPointExtension>
        </extensions>
      </trkpt>
      <trkpt lat="42.92207" lon="1.83821">
        <ele>550.4</ele>
        <time>2022-07-25T09:20:27.000Z</time>
        <extensions>
          <gpxtpx:TrackPointExtension xmlns:gpxtpx="http://www.garmin.com/xmlschemas/TrackPointExtension/v1">
            <gpxtpx:hr>156</gpxtpx:hr>
          </gpxtpx:TrackPointExtension>
        </extensions>
      </trkpt>
      <trkpt lat="42.92201" lon="1.83817">
        <ele>550.6</ele>
        <time>2022-07-25T09:20:29.000Z</time>
        <extensions>
          <gpxtpx:TrackPointExtension xmlns:gpxtpx="http://www.garmin.com/xmlschemas/TrackPointExtension/v1">
            <gpxtpx:hr>156</gpxtpx:hr>
          </gpxtpx:TrackPointExtension>
        </extensions>
      </trkpt>
      <trkpt lat="42.92194" lon="1.83813">
        <ele>550.7</ele>
        <time>2022-07-25T09:20:31.000Z</time>
        <extensions>
          <gpxtpx:TrackPointExtension xmlns:gpxtpx="http://www.garmin.com/xmlschemas/TrackPointExtension/v1">
            <gpxtpx:hr>156</gpxtpx:hr>
          </gpxtpx:TrackPointExtension>
        </extensions>
      </trkpt>
      <trkpt lat="42.92187" lon="1.8381">
        <ele>550.9</ele>
        <time>2022-07-25T09:20:33.000Z</time>
        <extensions>
          <gpxtpx:TrackPointExtension xmlns:gpxtpx="http://www.garmin.com/xmlschemas/TrackPointExtension/v1">
            <gpxtpx:hr>155</gpxtpx:hr>
          </gpxtpx:TrackPointExtension>
        </extensions>
      </trkpt>
      <trkpt lat="42.92181" lon="1.83806">
        <ele>551.1</ele>
        <time>2022-07-25T09:20:35.000Z</time>
        <extensions>
          <gpxtpx:TrackPointExtension xmlns:gpxtpx="http://www.garmin.com/xmlschemas/TrackPointExtension/v1">
            <gpxtpx:hr>155</gpxtpx:hr>
          </gpxtpx:TrackPointExtension>
        </extensions>
      </trkpt>
      <trkpt lat="42.92175" lon="1.83802">
        <ele>551.2</ele>
        <time>2022-07-25T09:20:37.000Z</time>
        <extensions>
          <gpxtpx:TrackPointExtension xmlns:gpxtpx="http://www.garmin.com/xmlschemas/TrackPointExtension/v1">
            <gpxtpx:hr>155</gpxtpx:hr>
          </gpxtpx:TrackPointExtension>
        </extensions>
      </trkpt>
      <trkpt lat="42.92169" lon="1.83798">
        <ele>551.4</ele>
        <time>2022-07-25T09:20:39.000Z</time>
        <extensions>
          <gpxtpx:TrackPointExtension xmlns:gpxtpx="http://www.garmin.com/xmlschemas/TrackPointExtension/v1">
            <gpxtpx:hr>155</gpxtpx:hr>
          </gpxtpx:TrackPointExtension>
        </extensions>
      </trkpt>
      <trkpt lat="42.92162" lon="1.83795">
        <ele>551.6</ele>
        <time>2022-07-25T09:20:41.000Z</time>
        <extensions>
          <gpxtpx:TrackPointExtension xmlns:gpxtpx="http://www.garmin.com/xmlschemas/TrackPointExtension/v1">
            <gpxtpx:hr>155</gpxtpx:hr>
          </gpxtpx:TrackPointExtension>
        </extensions>
      </trkpt>
      <trkpt lat="42.92156" lon="1.8379">
        <ele>551.8</ele>
        <time>2022-07-25T09:20:43.000Z</time>
        <extensions>
          <gpxtpx:TrackPointExtension xmlns:gpxtpx="http://www.garmin.com/xmlschemas/TrackPointExtension/v1">
            <gpxtpx:hr>155</gpxtpx:hr>
          </gpxtpx:TrackPointExtension>
        </extensions>
      </trkpt>
      <trkpt lat="42.9215" lon="1.83786">
        <ele>551.9</ele>
        <time>2022-07-25T09:20:45.000Z</time>
        <extensions>
          <gpxtpx:TrackPointExtension xmlns:gpxtpx="http://www.garmin.com/xmlschemas/TrackPointExtension/v1">
            <gpxtpx:hr>155</gpxtpx:hr>
          </gpxtpx:TrackPointExtension>
        </extensions>
      </trkpt>
      <trkpt lat="42.92142" lon="1.83782">
        <ele>552.1</ele>
        <time>2022-07-25T09:20:47.000Z</time>
        <extensions>
          <gpxtpx:TrackPointExtension xmlns:gpxtpx="http://www.garmin.com/xmlschemas/TrackPointExtension/v1">
            <gpxtpx:hr>155</gpxtpx:hr>
          </gpxtpx:TrackPointExtension>
        </extensions>
      </trkpt>
      <trkpt lat="42.92136" lon="1.83778">
        <ele>552.2</ele>
        <time>2022-07-25T09:20:49.000Z</time>
        <extensions>
          <gpxtpx:TrackPointExtension xmlns:gpxtpx="http://www.garmin.com/xmlschemas/TrackPointExtension/v1">
            <gpxtpx:hr>155</gpxtpx:hr>
          </gpxtpx:TrackPointExtension>
        </extensions>
      </trkpt>
      <trkpt lat="42.92128" lon="1.83775">
        <ele>552.4</ele>
        <time>2022-07-25T09:20:51.000Z</time>
        <extensions>
          <gpxtpx:TrackPointExtension xmlns:gpxtpx="http://www.garmin.com/xmlschemas/TrackPointExtension/v1">
            <gpxtpx:hr>156</gpxtpx:hr>
          </gpxtpx:TrackPointExtension>
        </extensions>
      </trkpt>
      <trkpt lat="42.92121" lon="1.8377">
        <ele>552.6</ele>
        <time>2022-07-25T09:20:53.000Z</time>
        <extensions>
          <gpxtpx:TrackPointExtension xmlns:gpxtpx="http://www.garmin.com/xmlschemas/TrackPointExtension/v1">
            <gpxtpx:hr>156</gpxtpx:hr>
          </gpxtpx:TrackPointExtension>
        </extensions>
      </trkpt>
      <trkpt lat="42.92115" lon="1.83766">
        <ele>552.8</ele>
        <time>2022-07-25T09:20:55.000Z</time>
        <extensions>
          <gpxtpx:TrackPointExtension xmlns:gpxtpx="http://www.garmin.com/xmlschemas/TrackPointExtension/v1">
            <gpxtpx:hr>156</gpxtpx:hr>
          </gpxtpx:TrackPointExtension>
        </extensions>
      </trkpt>
      <trkpt lat="42.92108" lon="1.83762">
        <ele>553</ele>
        <time>2022-07-25T09:20:57.000Z</time>
        <extensions>
          <gpxtpx:TrackPointExtension xmlns:gpxtpx="http://www.garmin.com/xmlschemas/TrackPointExtension/v1">
            <gpxtpx:hr>156</gpxtpx:hr>
          </gpxtpx:TrackPointExtension>
        </extensions>
      </trkpt>
      <trkpt lat="42.92101" lon="1.83758">
        <ele>553.2</ele>
        <time>2022-07-25T09:20:59.000Z</time>
        <extensions>
          <gpxtpx:TrackPointExtension xmlns:gpxtpx="http://www.garmin.com/xmlschemas/TrackPointExtension/v1">
            <gpxtpx:hr>156</gpxtpx:hr>
          </gpxtpx:TrackPointExtension>
        </extensions>
      </trkpt>
      <trkpt lat="42.92094" lon="1.83753">
        <ele>553.4</ele>
        <time>2022-07-25T09:21:01.000Z</time>
        <extensions>
          <gpxtpx:TrackPointExtension xmlns:gpxtpx="http://www.garmin.com/xmlschemas/TrackPointExtension/v1">
            <gpxtpx:hr>156</gpxtpx:hr>
          </gpxtpx:TrackPointExtension>
        </extensions>
      </trkpt>
      <trkpt lat="42.92088" lon="1.83749">
        <ele>553.5</ele>
        <time>2022-07-25T09:21:03.000Z</time>
        <extensions>
          <gpxtpx:TrackPointExtension xmlns:gpxtpx="http://www.garmin.com/xmlschemas/TrackPointExtension/v1">
            <gpxtpx:hr>156</gpxtpx:hr>
          </gpxtpx:TrackPointExtension>
        </extensions>
      </trkpt>
      <trkpt lat="42.92082" lon="1.83744">
        <ele>553.7</ele>
        <time>2022-07-25T09:21:05.000Z</time>
        <extensions>
          <gpxtpx:TrackPointExtension xmlns:gpxtpx="http://www.garmin.com/xmlschemas/TrackPointExtension/v1">
            <gpxtpx:hr>156</gpxtpx:hr>
          </gpxtpx:TrackPointExtension>
        </extensions>
      </trkpt>
      <trkpt lat="42.92076" lon="1.83738">
        <ele>553.9</ele>
        <time>2022-07-25T09:21:07.000Z</time>
        <extensions>
          <gpxtpx:TrackPointExtension xmlns:gpxtpx="http://www.garmin.com/xmlschemas/TrackPointExtension/v1">
            <gpxtpx:hr>156</gpxtpx:hr>
          </gpxtpx:TrackPointExtension>
        </extensions>
      </trkpt>
      <trkpt lat="42.9207" lon="1.83732">
        <ele>554.1</ele>
        <time>2022-07-25T09:21:09.000Z</time>
        <extensions>
          <gpxtpx:TrackPointExtension xmlns:gpxtpx="http://www.garmin.com/xmlschemas/TrackPointExtension/v1">
            <gpxtpx:hr>157</gpxtpx:hr>
          </gpxtpx:TrackPointExtension>
        </extensions>
      </trkpt>
      <trkpt lat="42.92065" lon="1.83725">
        <ele>554.3</ele>
        <time>2022-07-25T09:21:11.000Z</time>
        <extensions>
          <gpxtpx:TrackPointExtension xmlns:gpxtpx="http://www.garmin.com/xmlschemas/TrackPointExtension/v1">
            <gpxtpx:hr>157</gpxtpx:hr>
          </gpxtpx:TrackPointExtension>
        </extensions>
      </trkpt>
      <trkpt lat="42.92059" lon="1.83719">
        <ele>554.5</ele>
        <time>2022-07-25T09:21:13.000Z</time>
        <extensions>
          <gpxtpx:TrackPointExtension xmlns:gpxtpx="http://www.garmin.com/xmlschemas/TrackPointExtension/v1">
            <gpxtpx:hr>157</gpxtpx:hr>
          </gpxtpx:TrackPointExtension>
        </extensions>
      </trkpt>
      <trkpt lat="42.92053" lon="1.83713">
        <ele>554.7</ele>
        <time>2022-07-25T09:21:15.000Z</time>
        <extensions>
          <gpxtpx:TrackPointExtension xmlns:gpxtpx="http://www.garmin.com/xmlschemas/TrackPointExtension/v1">
            <gpxtpx:hr>157</gpxtpx:hr>
          </gpxtpx:TrackPointExtension>
        </extensions>
      </trkpt>
      <trkpt lat="42.92048" lon="1.83706">
        <ele>554.8</ele>
        <time>2022-07-25T09:21:17.000Z</time>
        <extensions>
          <gpxtpx:TrackPointExtension xmlns:gpxtpx="http://www.garmin.com/xmlschemas/TrackPointExtension/v1">
            <gpxtpx:hr>157</gpxtpx:hr>
          </gpxtpx:TrackPointExtension>
        </extensions>
      </trkpt>
      <trkpt lat="42.92043" lon="1.837">
        <ele>555</ele>
        <time>2022-07-25T09:21:19.000Z</time>
        <extensions>
          <gpxtpx:TrackPointExtension xmlns:gpxtpx="http://www.garmin.com/xmlschemas/TrackPointExtension/v1">
            <gpxtpx:hr>157</gpxtpx:hr>
          </gpxtpx:TrackPointExtension>
        </extensions>
      </trkpt>
      <trkpt lat="42.92037" lon="1.83693">
        <ele>555.2</ele>
        <time>2022-07-25T09:21:21.000Z</time>
        <extensions>
          <gpxtpx:TrackPointExtension xmlns:gpxtpx="http://www.garmin.com/xmlschemas/TrackPointExtension/v1">
            <gpxtpx:hr>157</gpxtpx:hr>
          </gpxtpx:TrackPointExtension>
        </extensions>
      </trkpt>
      <trkpt lat="42.92031" lon="1.83687">
        <ele>555.3</ele>
        <time>2022-07-25T09:21:23.000Z</time>
        <extensions>
          <gpxtpx:TrackPointExtension xmlns:gpxtpx="http://www.garmin.com/xmlschemas/TrackPointExtension/v1">
            <gpxtpx:hr>157</gpxtpx:hr>
          </gpxtpx:TrackPointExtension>
        </extensions>
      </trkpt>
      <trkpt lat="42.92025" lon="1.8368">
        <ele>555.5</ele>
        <time>2022-07-25T09:21:25.000Z</time>
        <extensions>
          <gpxtpx:TrackPointExtension xmlns:gpxtpx="http://www.garmin.com/xmlschemas/TrackPointExtension/v1">
            <gpxtpx:hr>157</gpxtpx:hr>
          </gpxtpx:TrackPointExtension>
        </extensions>
      </trkpt>
      <trkpt lat="42.92019" lon="1.83674">
        <ele>555.6</ele>
        <time>2022-07-25T09:21:27.000Z</time>
        <extensions>
          <gpxtpx:TrackPointExtension xmlns:gpxtpx="http://www.garmin.com/xmlschemas/TrackPointExtension/v1">
            <gpxtpx:hr>157</gpxtpx:hr>
          </gpxtpx:TrackPointExtension>
        </extensions>
      </trkpt>
      <trkpt lat="42.92013" lon="1.83669">
        <ele>555.8</ele>
        <time>2022-07-25T09:21:29.000Z</time>
        <extensions>
          <gpxtpx:TrackPointExtension xmlns:gpxtpx="http://www.garmin.com/xmlschemas/TrackPointExtension/v1">
            <gpxtpx:hr>157</gpxtpx:hr>
          </gpxtpx:TrackPointExtension>
        </extensions>
      </trkpt>
      <trkpt lat="42.92008" lon="1.83664">
        <ele>556</ele>
        <time>2022-07-25T09:21:31.000Z</time>
        <extensions>
          <gpxtpx:TrackPointExtension xmlns:gpxtpx="http://www.garmin.com/xmlschemas/TrackPointExtension/v1">
            <gpxtpx:hr>157</gpxtpx:hr>
          </gpxtpx:TrackPointExtension>
        </extensions>
      </trkpt>
      <trkpt lat="42.92001" lon="1.83659">
        <ele>556.1</ele>
        <time>2022-07-25T09:21:33.000Z</time>
        <extensions>
          <gpxtpx:TrackPointExtension xmlns:gpxtpx="http://www.garmin.com/xmlschemas/TrackPointExtension/v1">
            <gpxtpx:hr>157</gpxtpx:hr>
          </gpxtpx:TrackPointExtension>
        </extensions>
      </trkpt>
      <trkpt lat="42.91995" lon="1.83653">
        <ele>556.3</ele>
        <time>2022-07-25T09:21:35.000Z</time>
        <extensions>
          <gpxtpx:TrackPointExtension xmlns:gpxtpx="http://www.garmin.com/xmlschemas/TrackPointExtension/v1">
            <gpxtpx:hr>157</gpxtpx:hr>
          </gpxtpx:TrackPointExtension>
        </extensions>
      </trkpt>
      <trkpt lat="42.91989" lon="1.83647">
        <ele>556.5</ele>
        <time>2022-07-25T09:21:37.000Z</time>
        <extensions>
          <gpxtpx:TrackPointExtension xmlns:gpxtpx="http://www.garmin.com/xmlschemas/TrackPointExtension/v1">
            <gpxtpx:hr>157</gpxtpx:hr>
          </gpxtpx:TrackPointExtension>
        </extensions>
      </trkpt>
      <trkpt lat="42.91983" lon="1.83642">
        <ele>556.7</ele>
        <time>2022-07-25T09:21:39.000Z</time>
        <extensions>
          <gpxtpx:TrackPointExtension xmlns:gpxtpx="http://www.garmin.com/xmlschemas/TrackPointExtension/v1">
            <gpxtpx:hr>157</gpxtpx:hr>
          </gpxtpx:TrackPointExtension>
        </extensions>
      </trkpt>
      <trkpt lat="42.91978" lon="1.83636">
        <ele>556.9</ele>
        <time>2022-07-25T09:21:41.000Z</time>
        <extensions>
          <gpxtpx:TrackPointExtension xmlns:gpxtpx="http://www.garmin.com/xmlschemas/TrackPointExtension/v1">
            <gpxtpx:hr>157</gpxtpx:hr>
          </gpxtpx:TrackPointExtension>
        </extensions>
      </trkpt>
      <trkpt lat="42.91972" lon="1.8363">
        <ele>557</ele>
        <time>2022-07-25T09:21:43.000Z</time>
        <extensions>
          <gpxtpx:TrackPointExtension xmlns:gpxtpx="http://www.garmin.com/xmlschemas/TrackPointExtension/v1">
            <gpxtpx:hr>157</gpxtpx:hr>
          </gpxtpx:TrackPointExtension>
        </extensions>
      </trkpt>
      <trkpt lat="42.91966" lon="1.83625">
        <ele>557.2</ele>
        <time>2022-07-25T09:21:45.000Z</time>
        <extensions>
          <gpxtpx:TrackPointExtension xmlns:gpxtpx="http://www.garmin.com/xmlschemas/TrackPointExtension/v1">
            <gpxtpx:hr>157</gpxtpx:hr>
          </gpxtpx:TrackPointExtension>
        </extensions>
      </trkpt>
      <trkpt lat="42.91961" lon="1.8362">
        <ele>557.4</ele>
        <time>2022-07-25T09:21:47.000Z</time>
        <extensions>
          <gpxtpx:TrackPointExtension xmlns:gpxtpx="http://www.garmin.com/xmlschemas/TrackPointExtension/v1">
            <gpxtpx:hr>157</gpxtpx:hr>
          </gpxtpx:TrackPointExtension>
        </extensions>
      </trkpt>
      <trkpt lat="42.91956" lon="1.83613">
        <ele>557.5</ele>
        <time>2022-07-25T09:21:49.000Z</time>
        <extensions>
          <gpxtpx:TrackPointExtension xmlns:gpxtpx="http://www.garmin.com/xmlschemas/TrackPointExtension/v1">
            <gpxtpx:hr>157</gpxtpx:hr>
          </gpxtpx:TrackPointExtension>
        </extensions>
      </trkpt>
      <trkpt lat="42.9195" lon="1.83607">
        <ele>557.7</ele>
        <time>2022-07-25T09:21:51.000Z</time>
        <extensions>
          <gpxtpx:TrackPointExtension xmlns:gpxtpx="http://www.garmin.com/xmlschemas/TrackPointExtension/v1">
            <gpxtpx:hr>157</gpxtpx:hr>
          </gpxtpx:TrackPointExtension>
        </extensions>
      </trkpt>
      <trkpt lat="42.91945" lon="1.83601">
        <ele>557.9</ele>
        <time>2022-07-25T09:21:53.000Z</time>
        <extensions>
          <gpxtpx:TrackPointExtension xmlns:gpxtpx="http://www.garmin.com/xmlschemas/TrackPointExtension/v1">
            <gpxtpx:hr>157</gpxtpx:hr>
          </gpxtpx:TrackPointExtension>
        </extensions>
      </trkpt>
      <trkpt lat="42.9194" lon="1.83595">
        <ele>558.1</ele>
        <time>2022-07-25T09:21:55.000Z</time>
        <extensions>
          <gpxtpx:TrackPointExtension xmlns:gpxtpx="http://www.garmin.com/xmlschemas/TrackPointExtension/v1">
            <gpxtpx:hr>156</gpxtpx:hr>
          </gpxtpx:TrackPointExtension>
        </extensions>
      </trkpt>
      <trkpt lat="42.91935" lon="1.8359">
        <ele>558.2</ele>
        <time>2022-07-25T09:21:57.000Z</time>
        <extensions>
          <gpxtpx:TrackPointExtension xmlns:gpxtpx="http://www.garmin.com/xmlschemas/TrackPointExtension/v1">
            <gpxtpx:hr>156</gpxtpx:hr>
          </gpxtpx:TrackPointExtension>
        </extensions>
      </trkpt>
      <trkpt lat="42.91929" lon="1.83589">
        <ele>558.4</ele>
        <time>2022-07-25T09:21:59.000Z</time>
        <extensions>
          <gpxtpx:TrackPointExtension xmlns:gpxtpx="http://www.garmin.com/xmlschemas/TrackPointExtension/v1">
            <gpxtpx:hr>156</gpxtpx:hr>
          </gpxtpx:TrackPointExtension>
        </extensions>
      </trkpt>
      <trkpt lat="42.91925" lon="1.83593">
        <ele>558.5</ele>
        <time>2022-07-25T09:22:01.000Z</time>
        <extensions>
          <gpxtpx:TrackPointExtension xmlns:gpxtpx="http://www.garmin.com/xmlschemas/TrackPointExtension/v1">
            <gpxtpx:hr>156</gpxtpx:hr>
          </gpxtpx:TrackPointExtension>
        </extensions>
      </trkpt>
      <trkpt lat="42.9192" lon="1.83599">
        <ele>558.7</ele>
        <time>2022-07-25T09:22:04.000Z</time>
        <extensions>
          <gpxtpx:TrackPointExtension xmlns:gpxtpx="http://www.garmin.com/xmlschemas/TrackPointExtension/v1">
            <gpxtpx:hr>155</gpxtpx:hr>
          </gpxtpx:TrackPointExtension>
        </extensions>
      </trkpt>
      <trkpt lat="42.91917" lon="1.83605">
        <ele>558.8</ele>
        <time>2022-07-25T09:22:06.000Z</time>
        <extensions>
          <gpxtpx:TrackPointExtension xmlns:gpxtpx="http://www.garmin.com/xmlschemas/TrackPointExtension/v1">
            <gpxtpx:hr>154</gpxtpx:hr>
          </gpxtpx:TrackPointExtension>
        </extensions>
      </trkpt>
      <trkpt lat="42.91914" lon="1.83611">
        <ele>558.9</ele>
        <time>2022-07-25T09:22:08.000Z</time>
        <extensions>
          <gpxtpx:TrackPointExtension xmlns:gpxtpx="http://www.garmin.com/xmlschemas/TrackPointExtension/v1">
            <gpxtpx:hr>153</gpxtpx:hr>
          </gpxtpx:TrackPointExtension>
        </extensions>
      </trkpt>
      <trkpt lat="42.91908" lon="1.83613">
        <ele>559</ele>
        <time>2022-07-25T09:22:10.000Z</time>
        <extensions>
          <gpxtpx:TrackPointExtension xmlns:gpxtpx="http://www.garmin.com/xmlschemas/TrackPointExtension/v1">
            <gpxtpx:hr>152</gpxtpx:hr>
          </gpxtpx:TrackPointExtension>
        </extensions>
      </trkpt>
      <trkpt lat="42.91902" lon="1.83613">
        <ele>559</ele>
        <time>2022-07-25T09:22:12.000Z</time>
        <extensions>
          <gpxtpx:TrackPointExtension xmlns:gpxtpx="http://www.garmin.com/xmlschemas/TrackPointExtension/v1">
            <gpxtpx:hr>151</gpxtpx:hr>
          </gpxtpx:TrackPointExtension>
        </extensions>
      </trkpt>
      <trkpt lat="42.91896" lon="1.83616">
        <ele>559.1</ele>
        <time>2022-07-25T09:22:14.000Z</time>
        <extensions>
          <gpxtpx:TrackPointExtension xmlns:gpxtpx="http://www.garmin.com/xmlschemas/TrackPointExtension/v1">
            <gpxtpx:hr>150</gpxtpx:hr>
          </gpxtpx:TrackPointExtension>
        </extensions>
      </trkpt>
      <trkpt lat="42.9189" lon="1.8362">
        <ele>559.2</ele>
        <time>2022-07-25T09:22:16.000Z</time>
        <extensions>
          <gpxtpx:TrackPointExtension xmlns:gpxtpx="http://www.garmin.com/xmlschemas/TrackPointExtension/v1">
            <gpxtpx:hr>149</gpxtpx:hr>
          </gpxtpx:TrackPointExtension>
        </extensions>
      </trkpt>
      <trkpt lat="42.91886" lon="1.83627">
        <ele>559.2</ele>
        <time>2022-07-25T09:22:18.000Z</time>
        <extensions>
          <gpxtpx:TrackPointExtension xmlns:gpxtpx="http://www.garmin.com/xmlschemas/TrackPointExtension/v1">
            <gpxtpx:hr>149</gpxtpx:hr>
          </gpxtpx:TrackPointExtension>
        </extensions>
      </trkpt>
      <trkpt lat="42.91883" lon="1.83635">
        <ele>559.2</ele>
        <time>2022-07-25T09:22:20.000Z</time>
        <extensions>
          <gpxtpx:TrackPointExtension xmlns:gpxtpx="http://www.garmin.com/xmlschemas/TrackPointExtension/v1">
            <gpxtpx:hr>149</gpxtpx:hr>
          </gpxtpx:TrackPointExtension>
        </extensions>
      </trkpt>
      <trkpt lat="42.9188" lon="1.83642">
        <ele>559.3</ele>
        <time>2022-07-25T09:22:22.000Z</time>
        <extensions>
          <gpxtpx:TrackPointExtension xmlns:gpxtpx="http://www.garmin.com/xmlschemas/TrackPointExtension/v1">
            <gpxtpx:hr>149</gpxtpx:hr>
          </gpxtpx:TrackPointExtension>
        </extensions>
      </trkpt>
      <trkpt lat="42.91877" lon="1.83648">
        <ele>559.3</ele>
        <time>2022-07-25T09:22:24.000Z</time>
        <extensions>
          <gpxtpx:TrackPointExtension xmlns:gpxtpx="http://www.garmin.com/xmlschemas/TrackPointExtension/v1">
            <gpxtpx:hr>149</gpxtpx:hr>
          </gpxtpx:TrackPointExtension>
        </extensions>
      </trkpt>
      <trkpt lat="42.91872" lon="1.83652">
        <ele>559.3</ele>
        <time>2022-07-25T09:22:26.000Z</time>
        <extensions>
          <gpxtpx:TrackPointExtension xmlns:gpxtpx="http://www.garmin.com/xmlschemas/TrackPointExtension/v1">
            <gpxtpx:hr>149</gpxtpx:hr>
          </gpxtpx:TrackPointExtension>
        </extensions>
      </trkpt>
      <trkpt lat="42.91868" lon="1.83654">
        <ele>559.4</ele>
        <time>2022-07-25T09:22:28.000Z</time>
        <extensions>
          <gpxtpx:TrackPointExtension xmlns:gpxtpx="http://www.garmin.com/xmlschemas/TrackPointExtension/v1">
            <gpxtpx:hr>148</gpxtpx:hr>
          </gpxtpx:TrackPointExtension>
        </extensions>
      </trkpt>
      <trkpt lat="42.91863" lon="1.83658">
        <ele>559.4</ele>
        <time>2022-07-25T09:22:31.000Z</time>
        <extensions>
          <gpxtpx:TrackPointExtension xmlns:gpxtpx="http://www.garmin.com/xmlschemas/TrackPointExtension/v1">
            <gpxtpx:hr>147</gpxtpx:hr>
          </gpxtpx:TrackPointExtension>
        </extensions>
      </trkpt>
      <trkpt lat="42.91864" lon="1.83664">
        <ele>559.5</ele>
        <time>2022-07-25T09:22:35.000Z</time>
        <extensions>
          <gpxtpx:TrackPointExtension xmlns:gpxtpx="http://www.garmin.com/xmlschemas/TrackPointExtension/v1">
            <gpxtpx:hr>146</gpxtpx:hr>
          </gpxtpx:TrackPointExtension>
        </extensions>
      </trkpt>
      <trkpt lat="42.91861" lon="1.83659">
        <ele>559.6</ele>
        <time>2022-07-25T09:22:41.000Z</time>
        <extensions>
          <gpxtpx:TrackPointExtension xmlns:gpxtpx="http://www.garmin.com/xmlschemas/TrackPointExtension/v1">
            <gpxtpx:hr>144</gpxtpx:hr>
          </gpxtpx:TrackPointExtension>
        </extensions>
      </trkpt>
      <trkpt lat="42.91862" lon="1.8366">
        <ele>559.6</ele>
        <time>2022-07-25T09:22:42.000Z</time>
        <extensions>
          <gpxtpx:TrackPointExtension xmlns:gpxtpx="http://www.garmin.com/xmlschemas/TrackPointExtension/v1">
            <gpxtpx:hr>144</gpxtpx:hr>
          </gpxtpx:TrackPointExtension>
        </extensions>
      </trkpt>
    </trkseg>
  </trk>
</gpx>